<?xml version='1.0' encoding='UTF-8'?><gpx version="1.1" creator="JPX - https://github.com/jenetics/jpx" xmlns="http://www.topografix.com/GPX/1/1"><trk><trkseg><trkpt lat="44.35669977576618" lon="9.206530284608112"><ele>12.0</ele><time>2026-04-26T06:31:10.998Z</time></trkpt><trkpt lat="44.356680339209696" lon="9.206628441721284"><ele>12.0</ele><time>2026-04-26T06:31:11.998Z</time></trkpt><trkpt lat="44.35665180198285" lon="9.206751516816425"><ele>12.0</ele><time>2026-04-26T06:31:12.998Z</time></trkpt><trkpt lat="44.35661454441082" lon="9.206891953195761"><ele>12.0</ele><time>2026-04-26T06:31:13.998Z</time></trkpt><trkpt lat="44.356572757529776" lon="9.207037411409527"><ele>12.0</ele><time>2026-04-26T06:31:14.998Z</time></trkpt><trkpt lat="44.35653774981244" lon="9.207178156389956"><ele>12.0</ele><time>2026-04-26T06:31:15.998Z</time></trkpt><trkpt lat="44.35650186257089" lon="9.207288287004442"><ele>12.0</ele><time>2026-04-26T06:31:16.998Z</time></trkpt><trkpt lat="44.35647191763164" lon="9.207379875276594"><ele>12.0</ele><time>2026-04-26T06:31:17.998Z</time></trkpt><trkpt lat="44.356438583539436" lon="9.207473996523245"><ele>12.0</ele><time>2026-04-26T06:31:18.998Z</time></trkpt><trkpt lat="44.35640846564376" lon="9.207563023440748"><ele>12.0</ele><time>2026-04-26T06:31:19.998Z</time></trkpt><trkpt lat="44.356372178843834" lon="9.20767043851467"><ele>12.0</ele><time>2026-04-26T06:31:20.998Z</time></trkpt><trkpt lat="44.35632935469811" lon="9.207786365899196"><ele>11.8</ele><time>2026-04-26T06:31:21.998Z</time></trkpt><trkpt lat="44.35629129564387" lon="9.20789702819998"><ele>11.6</ele><time>2026-04-26T06:31:22.998Z</time></trkpt><trkpt lat="44.35625722831541" lon="9.20800925621903"><ele>11.4</ele><time>2026-04-26T06:31:23.998Z</time></trkpt><trkpt lat="44.35621628122516" lon="9.208121263010566"><ele>11.200000000000001</ele><time>2026-04-26T06:31:24.998Z</time></trkpt><trkpt lat="44.356179849611564" lon="9.208244602182322"><ele>11.0</ele><time>2026-04-26T06:31:25.998Z</time></trkpt><trkpt lat="44.356141494108044" lon="9.20836888505535"><ele>10.8</ele><time>2026-04-26T06:31:26.998Z</time></trkpt><trkpt lat="44.35610505793297" lon="9.208491990860237"><ele>10.600000000000001</ele><time>2026-04-26T06:31:27.998Z</time></trkpt><trkpt lat="44.356068392584376" lon="9.208606653555169"><ele>10.4</ele><time>2026-04-26T06:31:28.998Z</time></trkpt><trkpt lat="44.35603575116603" lon="9.208729073595036"><ele>10.2</ele><time>2026-04-26T06:31:29.998Z</time></trkpt><trkpt lat="44.35599723405023" lon="9.208846518417152"><ele>10.0</ele><time>2026-04-26T06:31:30.998Z</time></trkpt><trkpt lat="44.3559550726528" lon="9.208971147869057"><ele>10.0</ele><time>2026-04-26T06:31:31.998Z</time></trkpt><trkpt lat="44.35591866837501" lon="9.209078194553593"><ele>10.0</ele><time>2026-04-26T06:31:32.998Z</time></trkpt><trkpt lat="44.35588584005067" lon="9.209196878505804"><ele>10.0</ele><time>2026-04-26T06:31:33.998Z</time></trkpt><trkpt lat="44.35584536558153" lon="9.209305798814794"><ele>10.0</ele><time>2026-04-26T06:31:34.998Z</time></trkpt><trkpt lat="44.355806164854464" lon="9.209415563474238"><ele>10.0</ele><time>2026-04-26T06:31:35.998Z</time></trkpt><trkpt lat="44.35576981048729" lon="9.209522500571433"><ele>10.0</ele><time>2026-04-26T06:31:36.998Z</time></trkpt><trkpt lat="44.35573431220834" lon="9.209629229558725"><ele>10.0</ele><time>2026-04-26T06:31:37.998Z</time></trkpt><trkpt lat="44.3557018942649" lon="9.209718943831788"><ele>10.0</ele><time>2026-04-26T06:31:38.998Z</time></trkpt><trkpt lat="44.35566681505201" lon="9.209802531001015"><ele>10.0</ele><time>2026-04-26T06:31:39.998Z</time></trkpt><trkpt lat="44.355641692263184" lon="9.209891890543185"><ele>10.0</ele><time>2026-04-26T06:31:40.998Z</time></trkpt><trkpt lat="44.355611199292944" lon="9.210044900728228"><ele>10.0</ele><time>2026-04-26T06:31:42.997Z</time></trkpt><trkpt lat="44.35557902879766" lon="9.210187101233291"><ele>10.0</ele><time>2026-04-26T06:31:44.997Z</time></trkpt><trkpt lat="44.355543058726724" lon="9.210267031355642"><ele>10.0</ele><time>2026-04-26T06:31:45.998Z</time></trkpt><trkpt lat="44.35548119352285" lon="9.210403155273442"><ele>10.0</ele><time>2026-04-26T06:31:47.998Z</time></trkpt><trkpt lat="44.35543682152086" lon="9.210550788704053"><ele>10.0</ele><time>2026-04-26T06:31:49.998Z</time></trkpt><trkpt lat="44.35540337574733" lon="9.21063719647033"><ele>10.0</ele><time>2026-04-26T06:31:50.998Z</time></trkpt><trkpt lat="44.35533585381503" lon="9.210702157313559"><ele>10.0</ele><time>2026-04-26T06:31:51.998Z</time></trkpt><trkpt lat="44.35529282549099" lon="9.21078097237028"><ele>10.0</ele><time>2026-04-26T06:31:52.998Z</time></trkpt><trkpt lat="44.35525089574231" lon="9.210858959676418"><ele>10.0</ele><time>2026-04-26T06:31:53.998Z</time></trkpt><trkpt lat="44.35517469861094" lon="9.210971168639029"><ele>10.0</ele><time>2026-04-26T06:31:55.998Z</time></trkpt><trkpt lat="44.35512020683983" lon="9.211041637901683"><ele>10.0</ele><time>2026-04-26T06:31:57.998Z</time></trkpt><trkpt lat="44.35506930336555" lon="9.211194225924915"><ele>10.0</ele><time>2026-04-26T06:32:20.999Z</time></trkpt><trkpt lat="44.355017636029125" lon="9.211303796724353"><ele>10.0</ele><time>2026-04-26T06:32:21.999Z</time></trkpt><trkpt lat="44.35493487496855" lon="9.211417509650735"><ele>10.0</ele><time>2026-04-26T06:32:22.999Z</time></trkpt><trkpt lat="44.354852929260346" lon="9.211536184773065"><ele>10.0</ele><time>2026-04-26T06:32:23.999Z</time></trkpt><trkpt lat="44.35476959513739" lon="9.211654072098153"><ele>10.0</ele><time>2026-04-26T06:32:24.999Z</time></trkpt><trkpt lat="44.35468202485086" lon="9.211785409572233"><ele>10.75</ele><time>2026-04-26T06:32:25.999Z</time></trkpt><trkpt lat="44.3545933002409" lon="9.211897727312387"><ele>11.5</ele><time>2026-04-26T06:32:26.999Z</time></trkpt><trkpt lat="44.354503156128445" lon="9.2120208098852"><ele>12.25</ele><time>2026-04-26T06:32:27.999Z</time></trkpt><trkpt lat="44.35442829350841" lon="9.212127720370887"><ele>13.0</ele><time>2026-04-26T06:32:28.999Z</time></trkpt><trkpt lat="44.354355907773176" lon="9.212234185361647"><ele>12.600000000000001</ele><time>2026-04-26T06:32:29.999Z</time></trkpt><trkpt lat="44.35428276279185" lon="9.212336356064167"><ele>12.200000000000001</ele><time>2026-04-26T06:32:30.999Z</time></trkpt><trkpt lat="44.35421524842021" lon="9.212432145967279"><ele>11.8</ele><time>2026-04-26T06:32:31.999Z</time></trkpt><trkpt lat="44.35413296582902" lon="9.212497874458133"><ele>11.4</ele><time>2026-04-26T06:32:32.999Z</time></trkpt><trkpt lat="44.35405472992745" lon="9.21257689779811"><ele>11.0</ele><time>2026-04-26T06:32:33.999Z</time></trkpt><trkpt lat="44.35397742044025" lon="9.212652991000871"><ele>11.0</ele><time>2026-04-26T06:32:34.999Z</time></trkpt><trkpt lat="44.353897908459345" lon="9.212714540610742"><ele>11.0</ele><time>2026-04-26T06:32:35.999Z</time></trkpt><trkpt lat="44.353817315352224" lon="9.212790438742385"><ele>11.0</ele><time>2026-04-26T06:32:36.999Z</time></trkpt><trkpt lat="44.353742113724095" lon="9.212885561971605"><ele>11.0</ele><time>2026-04-26T06:32:37.999Z</time></trkpt><trkpt lat="44.35368531349513" lon="9.212996440745346"><ele>11.0</ele><time>2026-04-26T06:32:38.999Z</time></trkpt><trkpt lat="44.35363402330879" lon="9.213119738138332"><ele>10.4</ele><time>2026-04-26T06:32:39.999Z</time></trkpt><trkpt lat="44.35357241793278" lon="9.213227120621418"><ele>9.8</ele><time>2026-04-26T06:32:40.999Z</time></trkpt><trkpt lat="44.353517840694366" lon="9.21334051703823"><ele>9.200000000000001</ele><time>2026-04-26T06:32:41.999Z</time></trkpt><trkpt lat="44.35346241789125" lon="9.213460973339476"><ele>8.600000000000001</ele><time>2026-04-26T06:32:42.999Z</time></trkpt><trkpt lat="44.35341286585503" lon="9.213581465643854"><ele>8.0</ele><time>2026-04-26T06:32:43.998Z</time></trkpt><trkpt lat="44.35337157051614" lon="9.213714696712684"><ele>7.999999999999999</ele><time>2026-04-26T06:32:44.998Z</time></trkpt><trkpt lat="44.35334327432909" lon="9.213849249344943"><ele>8.0</ele><time>2026-04-26T06:32:45.998Z</time></trkpt><trkpt lat="44.353310568012915" lon="9.21396433848112"><ele>8.0</ele><time>2026-04-26T06:32:46.998Z</time></trkpt><trkpt lat="44.35329610086411" lon="9.214080716734436"><ele>8.0</ele><time>2026-04-26T06:32:47.998Z</time></trkpt><trkpt lat="44.35329524906077" lon="9.214193928903978"><ele>7.999999999999999</ele><time>2026-04-26T06:32:48.998Z</time></trkpt><trkpt lat="44.35329815381517" lon="9.214303568904414"><ele>8.0</ele><time>2026-04-26T06:32:49.998Z</time></trkpt><trkpt lat="44.353292232764694" lon="9.214409273050883"><ele>8.0</ele><time>2026-04-26T06:32:50.998Z</time></trkpt><trkpt lat="44.35329737869557" lon="9.214563268647314"><ele>8.0</ele><time>2026-04-26T06:32:52.998Z</time></trkpt><trkpt lat="44.353247635818406" lon="9.214716954749834"><ele>8.0</ele><time>2026-04-26T06:32:54.998Z</time></trkpt><trkpt lat="44.353229991223664" lon="9.214809304737425"><ele>8.0</ele><time>2026-04-26T06:32:55.998Z</time></trkpt><trkpt lat="44.353209184225626" lon="9.214912376344223"><ele>8.0</ele><time>2026-04-26T06:32:56.998Z</time></trkpt><trkpt lat="44.35315260526161" lon="9.215002771717602"><ele>7.999999999999999</ele><time>2026-04-26T06:32:57.998Z</time></trkpt><trkpt lat="44.35312776390937" lon="9.215106889063343"><ele>8.0</ele><time>2026-04-26T06:32:58.998Z</time></trkpt><trkpt lat="44.35311347684785" lon="9.215221710011368"><ele>8.0</ele><time>2026-04-26T06:32:59.998Z</time></trkpt><trkpt lat="44.35309003246971" lon="9.21533292261516"><ele>8.0</ele><time>2026-04-26T06:33:00.998Z</time></trkpt><trkpt lat="44.35306695572896" lon="9.215440225958263"><ele>7.999999999999999</ele><time>2026-04-26T06:33:01.998Z</time></trkpt><trkpt lat="44.35304435682581" lon="9.215539071017023"><ele>8.0</ele><time>2026-04-26T06:33:02.998Z</time></trkpt><trkpt lat="44.353023434241734" lon="9.215642879531497"><ele>8.5</ele><time>2026-04-26T06:33:03.998Z</time></trkpt><trkpt lat="44.352996570227845" lon="9.215754981526196"><ele>9.0</ele><time>2026-04-26T06:33:04.998Z</time></trkpt><trkpt lat="44.35297351552474" lon="9.215869695000842"><ele>9.5</ele><time>2026-04-26T06:33:05.998Z</time></trkpt><trkpt lat="44.35294009022515" lon="9.215989249302375"><ele>10.0</ele><time>2026-04-26T06:33:06.998Z</time></trkpt><trkpt lat="44.35292335251205" lon="9.216112783701112"><ele>10.5</ele><time>2026-04-26T06:33:07.998Z</time></trkpt><trkpt lat="44.35289327827117" lon="9.21624248077065"><ele>11.0</ele><time>2026-04-26T06:33:08.998Z</time></trkpt><trkpt lat="44.35286357241863" lon="9.216366980302688"><ele>11.0</ele><time>2026-04-26T06:33:09.998Z</time></trkpt><trkpt lat="44.3528375327395" lon="9.216493353194519"><ele>11.0</ele><time>2026-04-26T06:33:10.998Z</time></trkpt><trkpt lat="44.352816008022764" lon="9.216615330905295"><ele>11.0</ele><time>2026-04-26T06:33:11.998Z</time></trkpt><trkpt lat="44.352785498424225" lon="9.216747510131952"><ele>11.0</ele><time>2026-04-26T06:33:12.998Z</time></trkpt><trkpt lat="44.352758191718145" lon="9.216879940208955"><ele>11.0</ele><time>2026-04-26T06:33:13.998Z</time></trkpt><trkpt lat="44.352736383205844" lon="9.217010411404999"><ele>11.0</ele><time>2026-04-26T06:33:14.998Z</time></trkpt><trkpt lat="44.352712383046594" lon="9.217137370679314"><ele>11.0</ele><time>2026-04-26T06:33:15.998Z</time></trkpt><trkpt lat="44.352688892034394" lon="9.217253569917878"><ele>11.0</ele><time>2026-04-26T06:33:16.998Z</time></trkpt><trkpt lat="44.35266774778415" lon="9.217365269346672"><ele>11.0</ele><time>2026-04-26T06:33:17.998Z</time></trkpt><trkpt lat="44.352648333483344" lon="9.217469828468701"><ele>11.0</ele><time>2026-04-26T06:33:18.998Z</time></trkpt><trkpt lat="44.35263132755604" lon="9.21757891443507"><ele>11.0</ele><time>2026-04-26T06:33:19.998Z</time></trkpt><trkpt lat="44.35261172116259" lon="9.217685741912733"><ele>10.833333333333332</ele><time>2026-04-26T06:33:20.998Z</time></trkpt><trkpt lat="44.352592951782015" lon="9.217787023989228"><ele>10.666666666666666</ele><time>2026-04-26T06:33:21.998Z</time></trkpt><trkpt lat="44.35257257677355" lon="9.217882726620152"><ele>10.5</ele><time>2026-04-26T06:33:22.998Z</time></trkpt><trkpt lat="44.35254849560076" lon="9.218020856017354"><ele>10.333333333333334</ele><time>2026-04-26T06:33:24.998Z</time></trkpt><trkpt lat="44.35252504630465" lon="9.218130458876809"><ele>10.166666666666668</ele><time>2026-04-26T06:33:27.998Z</time></trkpt><trkpt lat="44.35244612794534" lon="9.218238476637644"><ele>10.0</ele><time>2026-04-26T06:33:29.998Z</time></trkpt><trkpt lat="44.3523167754218" lon="9.218277013492974"><ele>10.0</ele><time>2026-04-26T06:33:31.998Z</time></trkpt><trkpt lat="44.35225041907898" lon="9.21826003635402"><ele>10.0</ele><time>2026-04-26T06:33:32.998Z</time></trkpt><trkpt lat="44.35218211899993" lon="9.218239761609373"><ele>10.0</ele><time>2026-04-26T06:33:33.998Z</time></trkpt><trkpt lat="44.352112250895075" lon="9.21821836498946"><ele>10.0</ele><time>2026-04-26T06:33:34.998Z</time></trkpt><trkpt lat="44.352046268319164" lon="9.21818311430974"><ele>10.0</ele><time>2026-04-26T06:33:35.998Z</time></trkpt><trkpt lat="44.351975209468584" lon="9.218164628046269"><ele>10.0</ele><time>2026-04-26T06:33:36.998Z</time></trkpt><trkpt lat="44.35191281719124" lon="9.218126725752686"><ele>10.0</ele><time>2026-04-26T06:33:37.998Z</time></trkpt><trkpt lat="44.351839155414616" lon="9.218121413393474"><ele>11.2</ele><time>2026-04-26T06:33:38.998Z</time></trkpt><trkpt lat="44.351772470192884" lon="9.21809871626956"><ele>12.4</ele><time>2026-04-26T06:33:39.998Z</time></trkpt><trkpt lat="44.351680746530185" lon="9.218255365731814"><ele>13.600000000000001</ele><time>2026-04-26T06:33:41.998Z</time></trkpt><trkpt lat="44.351667305372146" lon="9.218378733405356"><ele>14.8</ele><time>2026-04-26T06:33:42.998Z</time></trkpt><trkpt lat="44.35165137324707" lon="9.218475826428875"><ele>16.0</ele><time>2026-04-26T06:33:43.998Z</time></trkpt><trkpt lat="44.35161876068688" lon="9.218593444803993"><ele>16.0</ele><time>2026-04-26T06:33:44.998Z</time></trkpt><trkpt lat="44.3515854592856" lon="9.218704461876818"><ele>16.0</ele><time>2026-04-26T06:33:45.998Z</time></trkpt><trkpt lat="44.35154428524746" lon="9.218826233526213"><ele>16.0</ele><time>2026-04-26T06:33:46.998Z</time></trkpt><trkpt lat="44.35150253273749" lon="9.218953101305091"><ele>16.0</ele><time>2026-04-26T06:33:47.998Z</time></trkpt><trkpt lat="44.351473604316695" lon="9.219077540710279"><ele>16.0</ele><time>2026-04-26T06:33:48.998Z</time></trkpt><trkpt lat="44.35143144754119" lon="9.219209722405854"><ele>16.0</ele><time>2026-04-26T06:33:49.998Z</time></trkpt><trkpt lat="44.35138294934445" lon="9.219346789844145"><ele>16.0</ele><time>2026-04-26T06:33:50.998Z</time></trkpt><trkpt lat="44.35134317412934" lon="9.219476243689693"><ele>16.0</ele><time>2026-04-26T06:33:51.998Z</time></trkpt><trkpt lat="44.35130960647662" lon="9.219606039273422"><ele>16.0</ele><time>2026-04-26T06:33:52.998Z</time></trkpt><trkpt lat="44.351268903410705" lon="9.219722106778294"><ele>16.0</ele><time>2026-04-26T06:33:53.998Z</time></trkpt><trkpt lat="44.351233827847715" lon="9.219842042665398"><ele>14.4</ele><time>2026-04-26T06:33:54.998Z</time></trkpt><trkpt lat="44.351199914582224" lon="9.219950979723185"><ele>12.8</ele><time>2026-04-26T06:33:55.998Z</time></trkpt><trkpt lat="44.35115437390971" lon="9.220065033272983"><ele>11.200000000000001</ele><time>2026-04-26T06:33:56.998Z</time></trkpt><trkpt lat="44.35111692884893" lon="9.220182780024508"><ele>9.600000000000001</ele><time>2026-04-26T06:33:57.998Z</time></trkpt><trkpt lat="44.35105003329801" lon="9.22029839387706"><ele>8.0</ele><time>2026-04-26T06:33:58.998Z</time></trkpt><trkpt lat="44.35100679957586" lon="9.220417283583075"><ele>7.999999999999999</ele><time>2026-04-26T06:33:59.998Z</time></trkpt><trkpt lat="44.350970410901276" lon="9.220539472155068"><ele>8.0</ele><time>2026-04-26T06:34:00.998Z</time></trkpt><trkpt lat="44.350948914974154" lon="9.220663790643698"><ele>8.0</ele><time>2026-04-26T06:34:01.998Z</time></trkpt><trkpt lat="44.35090630273078" lon="9.220780245240409"><ele>8.0</ele><time>2026-04-26T06:34:02.998Z</time></trkpt><trkpt lat="44.35086514362834" lon="9.220889825342168"><ele>7.999999999999999</ele><time>2026-04-26T06:34:03.998Z</time></trkpt><trkpt lat="44.350833341894855" lon="9.220991648873783"><ele>8.0</ele><time>2026-04-26T06:34:04.998Z</time></trkpt><trkpt lat="44.350801912627695" lon="9.22111705454456"><ele>8.4</ele><time>2026-04-26T06:34:05.998Z</time></trkpt><trkpt lat="44.35075747030504" lon="9.221229015452076"><ele>8.8</ele><time>2026-04-26T06:34:06.998Z</time></trkpt><trkpt lat="44.35072203403667" lon="9.22134512712866"><ele>9.2</ele><time>2026-04-26T06:34:07.998Z</time></trkpt><trkpt lat="44.35068030217697" lon="9.221465365653975"><ele>9.6</ele><time>2026-04-26T06:34:08.998Z</time></trkpt><trkpt lat="44.35064579388856" lon="9.221585598621159"><ele>10.0</ele><time>2026-04-26T06:34:09.998Z</time></trkpt><trkpt lat="44.350618362516016" lon="9.221714409856409"><ele>10.0</ele><time>2026-04-26T06:34:10.999Z</time></trkpt><trkpt lat="44.35056911881809" lon="9.221830874264903"><ele>10.0</ele><time>2026-04-26T06:34:11.999Z</time></trkpt><trkpt lat="44.35052660399113" lon="9.221938969661295"><ele>10.0</ele><time>2026-04-26T06:34:12.999Z</time></trkpt><trkpt lat="44.35048264196429" lon="9.222050979388799"><ele>10.0</ele><time>2026-04-26T06:34:13.999Z</time></trkpt><trkpt lat="44.35045099925474" lon="9.222167801950647"><ele>10.0</ele><time>2026-04-26T06:34:14.999Z</time></trkpt><trkpt lat="44.35041329897055" lon="9.222289227016953"><ele>10.2</ele><time>2026-04-26T06:34:15.999Z</time></trkpt><trkpt lat="44.35038065912784" lon="9.222403127501556"><ele>10.4</ele><time>2026-04-26T06:34:16.999Z</time></trkpt><trkpt lat="44.35033504985923" lon="9.222527454242353"><ele>10.600000000000001</ele><time>2026-04-26T06:34:17.999Z</time></trkpt><trkpt lat="44.350302882636626" lon="9.222651278628149"><ele>10.8</ele><time>2026-04-26T06:34:18.999Z</time></trkpt><trkpt lat="44.350250439828066" lon="9.22277231016154"><ele>11.0</ele><time>2026-04-26T06:34:19.999Z</time></trkpt><trkpt lat="44.35021559128147" lon="9.222900773269513"><ele>11.0</ele><time>2026-04-26T06:34:20.999Z</time></trkpt><trkpt lat="44.35017456495523" lon="9.223027868335206"><ele>11.0</ele><time>2026-04-26T06:34:21.999Z</time></trkpt><trkpt lat="44.35012890433113" lon="9.223146071070076"><ele>11.0</ele><time>2026-04-26T06:34:22.999Z</time></trkpt><trkpt lat="44.35009806112232" lon="9.223265233480683"><ele>11.0</ele><time>2026-04-26T06:34:23.999Z</time></trkpt><trkpt lat="44.350048237240735" lon="9.223389445915759"><ele>11.0</ele><time>2026-04-26T06:34:24.999Z</time></trkpt><trkpt lat="44.35000605635723" lon="9.223505870970817"><ele>10.4</ele><time>2026-04-26T06:34:25.999Z</time></trkpt><trkpt lat="44.34998130062656" lon="9.22363503957005"><ele>9.8</ele><time>2026-04-26T06:34:26.999Z</time></trkpt><trkpt lat="44.34993603924069" lon="9.223752360904925"><ele>9.200000000000001</ele><time>2026-04-26T06:34:27.999Z</time></trkpt><trkpt lat="44.34989069656351" lon="9.223865421325876"><ele>8.600000000000001</ele><time>2026-04-26T06:34:28.999Z</time></trkpt><trkpt lat="44.34984557113271" lon="9.223984714180796"><ele>8.0</ele><time>2026-04-26T06:34:29.999Z</time></trkpt><trkpt lat="44.34979150094272" lon="9.224095874207451"><ele>8.0</ele><time>2026-04-26T06:34:30.999Z</time></trkpt><trkpt lat="44.349738526616875" lon="9.224192623487358"><ele>8.0</ele><time>2026-04-26T06:34:31.999Z</time></trkpt><trkpt lat="44.34968586468128" lon="9.224301751051154"><ele>8.0</ele><time>2026-04-26T06:34:32.999Z</time></trkpt><trkpt lat="44.349641227701646" lon="9.224418127518804"><ele>8.0</ele><time>2026-04-26T06:34:33.999Z</time></trkpt><trkpt lat="44.34957851708212" lon="9.224525471353113"><ele>8.0</ele><time>2026-04-26T06:34:34.999Z</time></trkpt><trkpt lat="44.34952701939348" lon="9.224639809018008"><ele>8.0</ele><time>2026-04-26T06:34:35.999Z</time></trkpt><trkpt lat="44.34947134084514" lon="9.224741546734858"><ele>8.0</ele><time>2026-04-26T06:34:36.999Z</time></trkpt><trkpt lat="44.34943437285204" lon="9.224865328022302"><ele>8.0</ele><time>2026-04-26T06:34:37.999Z</time></trkpt><trkpt lat="44.34938327601252" lon="9.224979306993212"><ele>8.0</ele><time>2026-04-26T06:34:38.999Z</time></trkpt><trkpt lat="44.34932263026169" lon="9.225088356316384"><ele>8.0</ele><time>2026-04-26T06:34:39.999Z</time></trkpt><trkpt lat="44.34927093685018" lon="9.22519719193118"><ele>8.0</ele><time>2026-04-26T06:34:40.999Z</time></trkpt><trkpt lat="44.34922203989177" lon="9.225308350499981"><ele>8.0</ele><time>2026-04-26T06:34:41.999Z</time></trkpt><trkpt lat="44.349171871077225" lon="9.225424874291457"><ele>8.0</ele><time>2026-04-26T06:34:42.999Z</time></trkpt><trkpt lat="44.349122319807904" lon="9.22554161357744"><ele>8.0</ele><time>2026-04-26T06:34:43.999Z</time></trkpt><trkpt lat="44.349081747452615" lon="9.225667666709256"><ele>8.0</ele><time>2026-04-26T06:34:44.999Z</time></trkpt><trkpt lat="44.34902702673809" lon="9.225767135601822"><ele>8.0</ele><time>2026-04-26T06:34:45.999Z</time></trkpt><trkpt lat="44.348958592137954" lon="9.225879936280894"><ele>8.0</ele><time>2026-04-26T06:34:46.999Z</time></trkpt><trkpt lat="44.348895354389" lon="9.22597346421958"><ele>8.0</ele><time>2026-04-26T06:34:47.999Z</time></trkpt><trkpt lat="44.34882596219295" lon="9.226066539153686"><ele>8.0</ele><time>2026-04-26T06:34:48.999Z</time></trkpt><trkpt lat="44.348756875554315" lon="9.226150037052266"><ele>8.0</ele><time>2026-04-26T06:34:49.999Z</time></trkpt><trkpt lat="44.34869772062873" lon="9.226209419758037"><ele>8.0</ele><time>2026-04-26T06:34:50.999Z</time></trkpt><trkpt lat="44.348624125814105" lon="9.226279784050796"><ele>8.0</ele><time>2026-04-26T06:34:51.999Z</time></trkpt><trkpt lat="44.34855124341687" lon="9.226357446071242"><ele>8.0</ele><time>2026-04-26T06:34:52.999Z</time></trkpt><trkpt lat="44.34848202042556" lon="9.226430982524343"><ele>8.0</ele><time>2026-04-26T06:34:53.999Z</time></trkpt><trkpt lat="44.34840300569786" lon="9.226494468355225"><ele>8.0</ele><time>2026-04-26T06:34:54.999Z</time></trkpt><trkpt lat="44.3483262769741" lon="9.226564334539967"><ele>7.6000000000000005</ele><time>2026-04-26T06:34:55.999Z</time></trkpt><trkpt lat="44.348251907757735" lon="9.226626371880286"><ele>7.200000000000001</ele><time>2026-04-26T06:34:56.999Z</time></trkpt><trkpt lat="44.34817359496007" lon="9.226724327565982"><ele>6.8</ele><time>2026-04-26T06:34:58.999Z</time></trkpt><trkpt lat="44.34809845576007" lon="9.2267790378919"><ele>6.4</ele><time>2026-04-26T06:35:06.999Z</time></trkpt><trkpt lat="44.34798490823291" lon="9.226926191386324"><ele>6.0</ele><time>2026-04-26T06:35:08.999Z</time></trkpt><trkpt lat="44.347898055644634" lon="9.226995184262591"><ele>6.0</ele><time>2026-04-26T06:35:09.999Z</time></trkpt><trkpt lat="44.34780798708908" lon="9.22710216617676"><ele>6.0</ele><time>2026-04-26T06:35:10.999Z</time></trkpt><trkpt lat="44.34773790515079" lon="9.227159213404194"><ele>6.0</ele><time>2026-04-26T06:35:11.999Z</time></trkpt><trkpt lat="44.347668819224396" lon="9.227214059883343"><ele>6.0</ele><time>2026-04-26T06:35:12.999Z</time></trkpt><trkpt lat="44.34761361685046" lon="9.227268428387873"><ele>6.0</ele><time>2026-04-26T06:35:13.999Z</time></trkpt><trkpt lat="44.34752833398623" lon="9.227371163939262"><ele>6.0</ele><time>2026-04-26T06:35:15.999Z</time></trkpt><trkpt lat="44.347453599509045" lon="9.22743619854302"><ele>6.0</ele><time>2026-04-26T06:35:17.999Z</time></trkpt><trkpt lat="44.3473831793259" lon="9.227508837347598"><ele>6.0</ele><time>2026-04-26T06:35:19.999Z</time></trkpt><trkpt lat="44.34732481333932" lon="9.227580347353344"><ele>6.0</ele><time>2026-04-26T06:35:21.999Z</time></trkpt><trkpt lat="44.34725770512429" lon="9.227680672446214"><ele>6.0</ele><time>2026-04-26T06:35:23.999Z</time></trkpt><trkpt lat="44.34719942660941" lon="9.227767226189632"><ele>6.0</ele><time>2026-04-26T06:35:27.999Z</time></trkpt><trkpt lat="44.34727859463816" lon="9.227931781791394"><ele>5.666666666666667</ele><time>2026-04-26T06:35:29.999Z</time></trkpt><trkpt lat="44.34733020113743" lon="9.22798770504982"><ele>5.333333333333333</ele><time>2026-04-26T06:35:30.999Z</time></trkpt><trkpt lat="44.34738309634742" lon="9.228053322662335"><ele>5.0</ele><time>2026-04-26T06:35:31.999Z</time></trkpt><trkpt lat="44.34744222669375" lon="9.228120932745677"><ele>4.666666666666666</ele><time>2026-04-26T06:35:32.999Z</time></trkpt><trkpt lat="44.34750294496282" lon="9.228191160186052"><ele>4.333333333333333</ele><time>2026-04-26T06:35:33.999Z</time></trkpt><trkpt lat="44.347566016972124" lon="9.228263290180386"><ele>4.0</ele><time>2026-04-26T06:35:34.999Z</time></trkpt><trkpt lat="44.347631808774324" lon="9.228341223631158"><ele>3.833333333333333</ele><time>2026-04-26T06:35:35.999Z</time></trkpt><trkpt lat="44.34768327216973" lon="9.228426017485035"><ele>3.6666666666666665</ele><time>2026-04-26T06:35:36.999Z</time></trkpt><trkpt lat="44.34775431634169" lon="9.228502710504047"><ele>3.5</ele><time>2026-04-26T06:35:37.999Z</time></trkpt><trkpt lat="44.34782847087527" lon="9.228577300636948"><ele>3.333333333333333</ele><time>2026-04-26T06:35:38.999Z</time></trkpt><trkpt lat="44.347898620204354" lon="9.228663460087683"><ele>3.1666666666666665</ele><time>2026-04-26T06:35:39.999Z</time></trkpt><trkpt lat="44.34796816463622" lon="9.228744227213625"><ele>3.0</ele><time>2026-04-26T06:35:40.999Z</time></trkpt><trkpt lat="44.34801889655996" lon="9.228829347084758"><ele>4.0</ele><time>2026-04-26T06:35:41.999Z</time></trkpt><trkpt lat="44.348087113809235" lon="9.228883344002318"><ele>5.0</ele><time>2026-04-26T06:35:42.999Z</time></trkpt><trkpt lat="44.34813492764468" lon="9.228972423610973"><ele>6.000000000000001</ele><time>2026-04-26T06:35:43.999Z</time></trkpt><trkpt lat="44.34822658788597" lon="9.229072464999858"><ele>7.0</ele><time>2026-04-26T06:35:45.999Z</time></trkpt><trkpt lat="44.34824794176592" lon="9.229204640097775"><ele>8.0</ele><time>2026-04-26T06:35:47.999Z</time></trkpt><trkpt lat="44.348232049561766" lon="9.229350500667643"><ele>7.999999999999999</ele><time>2026-04-26T06:35:49.999Z</time></trkpt><trkpt lat="44.34819707861834" lon="9.229423839039455"><ele>8.0</ele><time>2026-04-26T06:35:51.999Z</time></trkpt><trkpt lat="44.34817737560822" lon="9.2295334141623"><ele>8.0</ele><time>2026-04-26T06:36:18.999Z</time></trkpt><trkpt lat="44.34817231104689" lon="9.22964144754533"><ele>8.0</ele><time>2026-04-26T06:36:19.999Z</time></trkpt><trkpt lat="44.34821560647527" lon="9.2297486866292"><ele>7.999999999999999</ele><time>2026-04-26T06:36:20.999Z</time></trkpt><trkpt lat="44.34826916884206" lon="9.229854335666433"><ele>8.0</ele><time>2026-04-26T06:36:21.999Z</time></trkpt><trkpt lat="44.34832875898501" lon="9.229945980011387"><ele>7.333333333333333</ele><time>2026-04-26T06:36:22.999Z</time></trkpt><trkpt lat="44.348391930599036" lon="9.230040743816849"><ele>6.666666666666666</ele><time>2026-04-26T06:36:23.999Z</time></trkpt><trkpt lat="44.34844537076862" lon="9.23013554799196"><ele>6.0</ele><time>2026-04-26T06:36:24.999Z</time></trkpt><trkpt lat="44.34850670445674" lon="9.23021417082825"><ele>5.333333333333333</ele><time>2026-04-26T06:36:25.999Z</time></trkpt><trkpt lat="44.348561839166926" lon="9.230301327588354"><ele>4.666666666666666</ele><time>2026-04-26T06:36:26.999Z</time></trkpt><trkpt lat="44.348593735974006" lon="9.230413599481915"><ele>4.0</ele><time>2026-04-26T06:36:27.999Z</time></trkpt><trkpt lat="44.34860296803986" lon="9.23052342656081"><ele>4.2</ele><time>2026-04-26T06:36:28.999Z</time></trkpt><trkpt lat="44.34861264087102" lon="9.230654215579133"><ele>4.4</ele><time>2026-04-26T06:36:29.999Z</time></trkpt><trkpt lat="44.34862219236699" lon="9.230786497792435"><ele>4.6</ele><time>2026-04-26T06:36:30.999Z</time></trkpt><trkpt lat="44.34863908379287" lon="9.230915771229101"><ele>4.8</ele><time>2026-04-26T06:36:31.999Z</time></trkpt><trkpt lat="44.34865293927773" lon="9.231049720631693"><ele>5.0</ele><time>2026-04-26T06:36:32.999Z</time></trkpt><trkpt lat="44.348663085802144" lon="9.23117771087443"><ele>5.0</ele><time>2026-04-26T06:36:33.999Z</time></trkpt><trkpt lat="44.34865460217314" lon="9.231298077439346"><ele>5.0</ele><time>2026-04-26T06:36:34.999Z</time></trkpt><trkpt lat="44.3486538531239" lon="9.23143598342252"><ele>5.0</ele><time>2026-04-26T06:36:35.999Z</time></trkpt><trkpt lat="44.34864748053553" lon="9.231563701257707"><ele>5.0</ele><time>2026-04-26T06:36:36.999Z</time></trkpt><trkpt lat="44.348641477710494" lon="9.231691222377693"><ele>5.0</ele><time>2026-04-26T06:36:37.999Z</time></trkpt><trkpt lat="44.34864027748732" lon="9.231826088073369"><ele>5.0</ele><time>2026-04-26T06:36:38.999Z</time></trkpt><trkpt lat="44.34863099256782" lon="9.231963330899122"><ele>5.0</ele><time>2026-04-26T06:36:39.999Z</time></trkpt><trkpt lat="44.34860959326724" lon="9.232087549692132"><ele>5.0</ele><time>2026-04-26T06:36:40.999Z</time></trkpt><trkpt lat="44.34857949997082" lon="9.23221044864217"><ele>5.0</ele><time>2026-04-26T06:36:41.999Z</time></trkpt><trkpt lat="44.348553590836474" lon="9.232336006132368"><ele>5.0</ele><time>2026-04-26T06:36:42.999Z</time></trkpt><trkpt lat="44.348530955638815" lon="9.232463401618785"><ele>4.6</ele><time>2026-04-26T06:36:43.999Z</time></trkpt><trkpt lat="44.34850901578864" lon="9.232587888805721"><ele>4.2</ele><time>2026-04-26T06:36:44.999Z</time></trkpt><trkpt lat="44.348488143164495" lon="9.232714140438523"><ele>3.8</ele><time>2026-04-26T06:36:45.999Z</time></trkpt><trkpt lat="44.34847191065869" lon="9.23284566346458"><ele>3.4</ele><time>2026-04-26T06:36:46.999Z</time></trkpt><trkpt lat="44.34845954102012" lon="9.2329781489339"><ele>3.0</ele><time>2026-04-26T06:36:47.999Z</time></trkpt><trkpt lat="44.348446648629064" lon="9.233107230106285"><ele>3.1666666666666665</ele><time>2026-04-26T06:36:48.999Z</time></trkpt><trkpt lat="44.34842715482054" lon="9.23324157312635"><ele>3.333333333333333</ele><time>2026-04-26T06:36:49.999Z</time></trkpt><trkpt lat="44.34841043285907" lon="9.233374574149627"><ele>3.5</ele><time>2026-04-26T06:36:50.999Z</time></trkpt><trkpt lat="44.3483970996367" lon="9.233500061136647"><ele>3.6666666666666665</ele><time>2026-04-26T06:36:51.999Z</time></trkpt><trkpt lat="44.34839773189923" lon="9.233589244460102"><ele>3.833333333333333</ele><time>2026-04-26T06:36:52.999Z</time></trkpt><trkpt lat="44.348424868508985" lon="9.233675942848478"><ele>4.0</ele><time>2026-04-26T06:36:56.999Z</time></trkpt><trkpt lat="44.34845865141711" lon="9.233773886413335"><ele>4.0</ele><time>2026-04-26T06:36:58.999Z</time></trkpt><trkpt lat="44.34850449190667" lon="9.233900781300221"><ele>4.0</ele><time>2026-04-26T06:37:00.999Z</time></trkpt><trkpt lat="44.34851561788077" lon="9.234080491108823"><ele>4.0</ele><time>2026-04-26T06:37:02.999Z</time></trkpt><trkpt lat="44.348525959252015" lon="9.234189167468282"><ele>4.0</ele><time>2026-04-26T06:37:03.999Z</time></trkpt><trkpt lat="44.34844029390451" lon="9.234299802834975"><ele>4.0</ele><time>2026-04-26T06:37:04.999Z</time></trkpt><trkpt lat="44.348387326145996" lon="9.23440557696971"><ele>4.800000000000001</ele><time>2026-04-26T06:37:05.999Z</time></trkpt><trkpt lat="44.34832683754705" lon="9.234522220214227"><ele>5.6000000000000005</ele><time>2026-04-26T06:37:06.999Z</time></trkpt><trkpt lat="44.348266937372784" lon="9.234651417567916"><ele>6.4</ele><time>2026-04-26T06:37:07.999Z</time></trkpt><trkpt lat="44.348208176535195" lon="9.234789792970325"><ele>7.2</ele><time>2026-04-26T06:37:08.999Z</time></trkpt><trkpt lat="44.348153681143806" lon="9.234907516138927"><ele>8.0</ele><time>2026-04-26T06:37:09.999Z</time></trkpt><trkpt lat="44.34806423879212" lon="9.235014633728552"><ele>7.0</ele><time>2026-04-26T06:37:10.999Z</time></trkpt><trkpt lat="44.348012105442805" lon="9.23516713218564"><ele>6.0</ele><time>2026-04-26T06:37:11.999Z</time></trkpt><trkpt lat="44.34796014608854" lon="9.235335072128773"><ele>5.0</ele><time>2026-04-26T06:37:12.999Z</time></trkpt><trkpt lat="44.34792003344353" lon="9.235504318959425"><ele>4.0</ele><time>2026-04-26T06:37:13.999Z</time></trkpt><trkpt lat="44.347902358719985" lon="9.235676950145091"><ele>4.0</ele><time>2026-04-26T06:37:14.999Z</time></trkpt><trkpt lat="44.34791571003293" lon="9.235852616707305"><ele>4.0</ele><time>2026-04-26T06:37:15.999Z</time></trkpt><trkpt lat="44.34795641206853" lon="9.236028925246563"><ele>4.0</ele><time>2026-04-26T06:37:16.999Z</time></trkpt><trkpt lat="44.348002319656985" lon="9.236202782015333"><ele>4.0</ele><time>2026-04-26T06:37:17.999Z</time></trkpt><trkpt lat="44.34805741719017" lon="9.236357804230927"><ele>8.0</ele><time>2026-04-26T06:37:18.999Z</time></trkpt><trkpt lat="44.34808549025196" lon="9.236516474549772"><ele>12.0</ele><time>2026-04-26T06:37:19.999Z</time></trkpt><trkpt lat="44.34812709307029" lon="9.236682192520648"><ele>16.0</ele><time>2026-04-26T06:37:20.999Z</time></trkpt><trkpt lat="44.34816500878705" lon="9.236830687923034"><ele>20.0</ele><time>2026-04-26T06:37:21.999Z</time></trkpt><trkpt lat="44.34819488631547" lon="9.236978498583039"><ele>20.0</ele><time>2026-04-26T06:37:22.999Z</time></trkpt><trkpt lat="44.34820062388048" lon="9.237126830026687"><ele>20.0</ele><time>2026-04-26T06:37:23.999Z</time></trkpt><trkpt lat="44.3481947326287" lon="9.237279433076896"><ele>20.0</ele><time>2026-04-26T06:37:24.999Z</time></trkpt><trkpt lat="44.34816798843192" lon="9.237426514581191"><ele>20.0</ele><time>2026-04-26T06:37:25.999Z</time></trkpt><trkpt lat="44.348108870591254" lon="9.237567716304977"><ele>20.0</ele><time>2026-04-26T06:37:26.999Z</time></trkpt><trkpt lat="44.3480317316788" lon="9.23769837500842"><ele>18.0</ele><time>2026-04-26T06:37:27.999Z</time></trkpt><trkpt lat="44.34793803234027" lon="9.23780961617334"><ele>16.0</ele><time>2026-04-26T06:37:28.999Z</time></trkpt><trkpt lat="44.34782759134895" lon="9.237897432035615"><ele>14.0</ele><time>2026-04-26T06:37:29.999Z</time></trkpt><trkpt lat="44.347720945328795" lon="9.237994787071576"><ele>12.0</ele><time>2026-04-26T06:37:30.999Z</time></trkpt><trkpt lat="44.34763004806019" lon="9.23809393265318"><ele>12.0</ele><time>2026-04-26T06:37:31.999Z</time></trkpt><trkpt lat="44.34753944536728" lon="9.238197772466552"><ele>12.0</ele><time>2026-04-26T06:37:32.999Z</time></trkpt><trkpt lat="44.34745272399397" lon="9.23831402230454"><ele>12.0</ele><time>2026-04-26T06:37:33.999Z</time></trkpt><trkpt lat="44.3473758959327" lon="9.238441675627039"><ele>12.0</ele><time>2026-04-26T06:37:34.999Z</time></trkpt><trkpt lat="44.34733599093635" lon="9.238598176362439"><ele>12.0</ele><time>2026-04-26T06:37:35.999Z</time></trkpt><trkpt lat="44.34732004334792" lon="9.238787546995322"><ele>12.0</ele><time>2026-04-26T06:37:36.999Z</time></trkpt><trkpt lat="44.34733421610956" lon="9.238957988868783"><ele>12.0</ele><time>2026-04-26T06:37:37.999Z</time></trkpt><trkpt lat="44.34736648037813" lon="9.239138690430744"><ele>12.0</ele><time>2026-04-26T06:37:38.999Z</time></trkpt><trkpt lat="44.3473837607481" lon="9.23931745623833"><ele>13.25</ele><time>2026-04-26T06:37:39.999Z</time></trkpt><trkpt lat="44.347399709804776" lon="9.239493681447314"><ele>14.5</ele><time>2026-04-26T06:37:40.999Z</time></trkpt><trkpt lat="44.34741794676014" lon="9.239659800926198"><ele>15.75</ele><time>2026-04-26T06:37:41.999Z</time></trkpt><trkpt lat="44.347433812404866" lon="9.239825644803984"><ele>17.0</ele><time>2026-04-26T06:37:42.999Z</time></trkpt><trkpt lat="44.34744703560727" lon="9.239983636985576"><ele>17.4</ele><time>2026-04-26T06:37:43.999Z</time></trkpt><trkpt lat="44.347460226584666" lon="9.240139689685858"><ele>17.799999999999997</ele><time>2026-04-26T06:37:44.999Z</time></trkpt><trkpt lat="44.3474811976524" lon="9.240296976985375"><ele>18.2</ele><time>2026-04-26T06:37:45.999Z</time></trkpt><trkpt lat="44.34749173682836" lon="9.240449438718997"><ele>18.599999999999998</ele><time>2026-04-26T06:37:46.999Z</time></trkpt><trkpt lat="44.34749901583704" lon="9.240600221496383"><ele>19.0</ele><time>2026-04-26T06:37:47.999Z</time></trkpt><trkpt lat="44.34748615497123" lon="9.240753828156626"><ele>19.5</ele><time>2026-04-26T06:37:48.999Z</time></trkpt><trkpt lat="44.34740973889151" lon="9.240873641305742"><ele>20.0</ele><time>2026-04-26T06:37:49.999Z</time></trkpt><trkpt lat="44.34732465998923" lon="9.241006410595336"><ele>20.5</ele><time>2026-04-26T06:37:50.999Z</time></trkpt><trkpt lat="44.34722958837706" lon="9.241157970725697"><ele>21.0</ele><time>2026-04-26T06:37:51.999Z</time></trkpt><trkpt lat="44.34712320121572" lon="9.241282869789343"><ele>20.0</ele><time>2026-04-26T06:37:52.999Z</time></trkpt><trkpt lat="44.347020704169296" lon="9.241400182730228"><ele>19.0</ele><time>2026-04-26T06:37:53.999Z</time></trkpt><trkpt lat="44.34691813921035" lon="9.24150953355138"><ele>18.0</ele><time>2026-04-26T06:37:54.999Z</time></trkpt><trkpt lat="44.346811051041556" lon="9.241610030482509"><ele>17.0</ele><time>2026-04-26T06:37:55.999Z</time></trkpt><trkpt lat="44.34669192088453" lon="9.241669729371717"><ele>17.0</ele><time>2026-04-26T06:37:56.999Z</time></trkpt><trkpt lat="44.346566896899304" lon="9.241709746938103"><ele>17.0</ele><time>2026-04-26T06:37:57.999Z</time></trkpt><trkpt lat="44.34645270269228" lon="9.241742623905136"><ele>17.0</ele><time>2026-04-26T06:37:58.999Z</time></trkpt><trkpt lat="44.3463412339099" lon="9.241776017215395"><ele>17.0</ele><time>2026-04-26T06:37:59.999Z</time></trkpt><trkpt lat="44.346233359508055" lon="9.241809681982398"><ele>17.0</ele><time>2026-04-26T06:38:00.999Z</time></trkpt><trkpt lat="44.34612711841361" lon="9.2418307357577"><ele>17.0</ele><time>2026-04-26T06:38:01.999Z</time></trkpt><trkpt lat="44.34602969973805" lon="9.241811653184703"><ele>17.0</ele><time>2026-04-26T06:38:02.999Z</time></trkpt><trkpt lat="44.34594279122914" lon="9.241709036164417"><ele>17.0</ele><time>2026-04-26T06:38:03.999Z</time></trkpt><trkpt lat="44.34589533218741" lon="9.241539953592232"><ele>17.0</ele><time>2026-04-26T06:38:04.999Z</time></trkpt><trkpt lat="44.34582612424911" lon="9.241380125132704"><ele>17.0</ele><time>2026-04-26T06:38:05.999Z</time></trkpt><trkpt lat="44.34577983199409" lon="9.241216195913236"><ele>17.0</ele><time>2026-04-26T06:38:06.999Z</time></trkpt><trkpt lat="44.34573424856271" lon="9.241077706257096"><ele>17.0</ele><time>2026-04-26T06:38:07.999Z</time></trkpt><trkpt lat="44.345660119708946" lon="9.240995618013956"><ele>17.0</ele><time>2026-04-26T06:38:08.999Z</time></trkpt><trkpt lat="44.34555622047791" lon="9.240977240202888"><ele>17.0</ele><time>2026-04-26T06:38:09.999Z</time></trkpt><trkpt lat="44.345430931057685" lon="9.241019276107476"><ele>16.0</ele><time>2026-04-26T06:38:10.999Z</time></trkpt><trkpt lat="44.34530084737778" lon="9.241114860697277"><ele>15.0</ele><time>2026-04-26T06:38:11.999Z</time></trkpt><trkpt lat="44.3451904708222" lon="9.24121631359656"><ele>14.0</ele><time>2026-04-26T06:38:12.999Z</time></trkpt><trkpt lat="44.34508302440352" lon="9.241266229060733"><ele>13.0</ele><time>2026-04-26T06:38:13.999Z</time></trkpt><trkpt lat="44.34496957758964" lon="9.241234765225094"><ele>13.0</ele><time>2026-04-26T06:38:14.999Z</time></trkpt><trkpt lat="44.344869759133736" lon="9.241112984728403"><ele>13.0</ele><time>2026-04-26T06:38:15.999Z</time></trkpt><trkpt lat="44.34476401221908" lon="9.240989796865168"><ele>13.0</ele><time>2026-04-26T06:38:16.999Z</time></trkpt><trkpt lat="44.344673181729284" lon="9.240871157609709"><ele>13.0</ele><time>2026-04-26T06:38:17.999Z</time></trkpt><trkpt lat="44.344574865904356" lon="9.240811121146956"><ele>12.25</ele><time>2026-04-26T06:38:18.999Z</time></trkpt><trkpt lat="44.34445351340216" lon="9.240823448106521"><ele>11.5</ele><time>2026-04-26T06:38:19.999Z</time></trkpt><trkpt lat="44.344334704437806" lon="9.240913396677069"><ele>10.75</ele><time>2026-04-26T06:38:20.999Z</time></trkpt><trkpt lat="44.34422432999639" lon="9.24104920043399"><ele>10.0</ele><time>2026-04-26T06:38:21.999Z</time></trkpt><trkpt lat="44.344124083085035" lon="9.241199635731759"><ele>10.0</ele><time>2026-04-26T06:38:22.999Z</time></trkpt><trkpt lat="44.344030945391516" lon="9.241344276657525"><ele>10.0</ele><time>2026-04-26T06:38:24Z</time></trkpt><trkpt lat="44.343953872960306" lon="9.241508176850514"><ele>10.0</ele><time>2026-04-26T06:38:25Z</time></trkpt><trkpt lat="44.343909547503635" lon="9.241693272636732"><ele>10.0</ele><time>2026-04-26T06:38:26Z</time></trkpt><trkpt lat="44.34389549283951" lon="9.241871466366069"><ele>9.0</ele><time>2026-04-26T06:38:27Z</time></trkpt><trkpt lat="44.34389649313837" lon="9.242035000430395"><ele>8.0</ele><time>2026-04-26T06:38:28Z</time></trkpt><trkpt lat="44.34388037820502" lon="9.242175661364197"><ele>7.0</ele><time>2026-04-26T06:38:29Z</time></trkpt><trkpt lat="44.34381372836677" lon="9.242285204937348"><ele>6.0</ele><time>2026-04-26T06:38:30Z</time></trkpt><trkpt lat="44.34373866807142" lon="9.242359906763227"><ele>5.0</ele><time>2026-04-26T06:38:31Z</time></trkpt><trkpt lat="44.34365593751276" lon="9.242444359527884"><ele>8.0</ele><time>2026-04-26T06:38:32Z</time></trkpt><trkpt lat="44.343558852600964" lon="9.242552886090172"><ele>11.0</ele><time>2026-04-26T06:38:33Z</time></trkpt><trkpt lat="44.343461438549156" lon="9.242650577050357"><ele>14.0</ele><time>2026-04-26T06:38:34Z</time></trkpt><trkpt lat="44.34336474295798" lon="9.242744501548371"><ele>17.0</ele><time>2026-04-26T06:38:35Z</time></trkpt><trkpt lat="44.34329666889674" lon="9.242885968611485"><ele>17.0</ele><time>2026-04-26T06:38:36Z</time></trkpt><trkpt lat="44.34323334092791" lon="9.243036723130274"><ele>17.0</ele><time>2026-04-26T06:38:37Z</time></trkpt><trkpt lat="44.34318949961976" lon="9.243199241231844"><ele>17.0</ele><time>2026-04-26T06:38:38Z</time></trkpt><trkpt lat="44.34317958415161" lon="9.243372953547317"><ele>17.0</ele><time>2026-04-26T06:38:39Z</time></trkpt><trkpt lat="44.343211831088105" lon="9.24355261991111"><ele>19.25</ele><time>2026-04-26T06:38:40Z</time></trkpt><trkpt lat="44.34326855675569" lon="9.243715433861986"><ele>21.5</ele><time>2026-04-26T06:38:41Z</time></trkpt><trkpt lat="44.34332659487696" lon="9.24386627618018"><ele>23.75</ele><time>2026-04-26T06:38:42Z</time></trkpt><trkpt lat="44.34336291227755" lon="9.244015755203565"><ele>26.0</ele><time>2026-04-26T06:38:43Z</time></trkpt><trkpt lat="44.343372044999896" lon="9.244157589192332"><ele>27.75</ele><time>2026-04-26T06:38:44Z</time></trkpt><trkpt lat="44.34335935717575" lon="9.244289931201903"><ele>29.5</ele><time>2026-04-26T06:38:45Z</time></trkpt><trkpt lat="44.34329310059648" lon="9.2443944774779"><ele>31.25</ele><time>2026-04-26T06:38:46Z</time></trkpt><trkpt lat="44.34314994206734" lon="9.244404234962516"><ele>33.0</ele><time>2026-04-26T06:38:47Z</time></trkpt><trkpt lat="44.34303578741837" lon="9.244482421218828"><ele>28.75</ele><time>2026-04-26T06:38:48Z</time></trkpt><trkpt lat="44.34290566675776" lon="9.244519390233382"><ele>24.5</ele><time>2026-04-26T06:38:49Z</time></trkpt><trkpt lat="44.34279085853501" lon="9.24457482317622"><ele>20.25</ele><time>2026-04-26T06:38:50Z</time></trkpt><trkpt lat="44.342673972145995" lon="9.244629830232954"><ele>16.0</ele><time>2026-04-26T06:38:51Z</time></trkpt><trkpt lat="44.34255944319631" lon="9.244680906618127"><ele>16.0</ele><time>2026-04-26T06:38:52Z</time></trkpt><trkpt lat="44.34245151009182" lon="9.244743866229905"><ele>16.0</ele><time>2026-04-26T06:38:53Z</time></trkpt><trkpt lat="44.34235635218406" lon="9.24484034190265"><ele>16.0</ele><time>2026-04-26T06:38:54Z</time></trkpt><trkpt lat="44.342290051795324" lon="9.245001795632126"><ele>16.0</ele><time>2026-04-26T06:38:55Z</time></trkpt><trkpt lat="44.34225204638816" lon="9.245176218692762"><ele>20.0</ele><time>2026-04-26T06:38:56Z</time></trkpt><trkpt lat="44.34225673157027" lon="9.245373655379604"><ele>24.0</ele><time>2026-04-26T06:38:57Z</time></trkpt><trkpt lat="44.34229094335864" lon="9.24557066714685"><ele>28.0</ele><time>2026-04-26T06:38:58Z</time></trkpt><trkpt lat="44.34231679010781" lon="9.245756285181445"><ele>32.0</ele><time>2026-04-26T06:38:59Z</time></trkpt><trkpt lat="44.342340937749654" lon="9.245943129463155"><ele>31.75</ele><time>2026-04-26T06:39:00Z</time></trkpt><trkpt lat="44.342365542691425" lon="9.246130011231628"><ele>31.5</ele><time>2026-04-26T06:39:01Z</time></trkpt><trkpt lat="44.3423943331087" lon="9.246309445836097"><ele>31.25</ele><time>2026-04-26T06:39:02Z</time></trkpt><trkpt lat="44.34246680020774" lon="9.246478825239672"><ele>31.0</ele><time>2026-04-26T06:39:03Z</time></trkpt><trkpt lat="44.34253583746251" lon="9.24663240946726"><ele>31.0</ele><time>2026-04-26T06:39:04Z</time></trkpt><trkpt lat="44.34259999385955" lon="9.246795324954695"><ele>31.0</ele><time>2026-04-26T06:39:05Z</time></trkpt><trkpt lat="44.34267588536817" lon="9.246952100446187"><ele>31.0</ele><time>2026-04-26T06:39:06Z</time></trkpt><trkpt lat="44.342758847776146" lon="9.24708881598859"><ele>31.0</ele><time>2026-04-26T06:39:07Z</time></trkpt><trkpt lat="44.34283762070704" lon="9.247227183521726"><ele>31.5</ele><time>2026-04-26T06:39:08Z</time></trkpt><trkpt lat="44.342942965136594" lon="9.247336325144554"><ele>32.0</ele><time>2026-04-26T06:39:09Z</time></trkpt><trkpt lat="44.34304822394325" lon="9.247440245710795"><ele>32.5</ele><time>2026-04-26T06:39:10Z</time></trkpt><trkpt lat="44.34315478768323" lon="9.247538106910735"><ele>33.0</ele><time>2026-04-26T06:39:11Z</time></trkpt><trkpt lat="44.34323058947193" lon="9.24766270493571"><ele>36.5</ele><time>2026-04-26T06:39:12Z</time></trkpt><trkpt lat="44.3432611319719" lon="9.247817689474394"><ele>40.0</ele><time>2026-04-26T06:39:13Z</time></trkpt><trkpt lat="44.34324974127724" lon="9.24799014709239"><ele>43.5</ele><time>2026-04-26T06:39:14Z</time></trkpt><trkpt lat="44.34317504530644" lon="9.248138377986212"><ele>47.0</ele><time>2026-04-26T06:39:15Z</time></trkpt><trkpt lat="44.34306895801064" lon="9.248237213127819"><ele>48.0</ele><time>2026-04-26T06:39:16Z</time></trkpt><trkpt lat="44.342976763697166" lon="9.248354830618098"><ele>49.0</ele><time>2026-04-26T06:39:17Z</time></trkpt><trkpt lat="44.34289423841873" lon="9.248450760196398"><ele>50.0</ele><time>2026-04-26T06:39:18Z</time></trkpt><trkpt lat="44.34279656419903" lon="9.248467864438572"><ele>51.0</ele><time>2026-04-26T06:39:19Z</time></trkpt><trkpt lat="44.34269811467183" lon="9.248402949618473"><ele>52.0</ele><time>2026-04-26T06:39:20Z</time></trkpt><trkpt lat="44.34261700451422" lon="9.248243485036918"><ele>52.0</ele><time>2026-04-26T06:39:21Z</time></trkpt><trkpt lat="44.34250202038119" lon="9.248142764512057"><ele>52.0</ele><time>2026-04-26T06:39:22Z</time></trkpt><trkpt lat="44.34238465103421" lon="9.248052122280296"><ele>52.0</ele><time>2026-04-26T06:39:23Z</time></trkpt><trkpt lat="44.342260804813186" lon="9.24800161557636"><ele>52.0</ele><time>2026-04-26T06:39:24Z</time></trkpt><trkpt lat="44.342141660368256" lon="9.24796684783333"><ele>49.25</ele><time>2026-04-26T06:39:25Z</time></trkpt><trkpt lat="44.34202096996549" lon="9.247922933022695"><ele>46.5</ele><time>2026-04-26T06:39:26Z</time></trkpt><trkpt lat="44.341892163667445" lon="9.247878456703548"><ele>43.75</ele><time>2026-04-26T06:39:27Z</time></trkpt><trkpt lat="44.34177830226084" lon="9.247827288874412"><ele>41.0</ele><time>2026-04-26T06:39:28Z</time></trkpt><trkpt lat="44.34167990205252" lon="9.247722317629297"><ele>41.0</ele><time>2026-04-26T06:39:29Z</time></trkpt><trkpt lat="44.341587185573395" lon="9.247626907345774"><ele>41.0</ele><time>2026-04-26T06:39:30Z</time></trkpt><trkpt lat="44.341536203804566" lon="9.247490124537535"><ele>41.0</ele><time>2026-04-26T06:39:31Z</time></trkpt><trkpt lat="44.3414812440421" lon="9.247389281441565"><ele>41.0</ele><time>2026-04-26T06:39:32Z</time></trkpt><trkpt lat="44.34139173757017" lon="9.247352888131383"><ele>41.0</ele><time>2026-04-26T06:39:33Z</time></trkpt><trkpt lat="44.341303805681385" lon="9.247400087626389"><ele>35.25</ele><time>2026-04-26T06:39:34Z</time></trkpt><trkpt lat="44.341238090392594" lon="9.24752471551255"><ele>29.5</ele><time>2026-04-26T06:39:35Z</time></trkpt><trkpt lat="44.34120338464145" lon="9.247680856222964"><ele>23.75</ele><time>2026-04-26T06:39:36Z</time></trkpt><trkpt lat="44.34117580062088" lon="9.247846218324998"><ele>18.0</ele><time>2026-04-26T06:39:37Z</time></trkpt><trkpt lat="44.34114536830705" lon="9.248000652514177"><ele>21.2</ele><time>2026-04-26T06:39:38Z</time></trkpt><trkpt lat="44.34110785504684" lon="9.248130336414382"><ele>24.4</ele><time>2026-04-26T06:39:39Z</time></trkpt><trkpt lat="44.34107091985334" lon="9.248263200494751"><ele>27.599999999999998</ele><time>2026-04-26T06:39:40Z</time></trkpt><trkpt lat="44.341030578998755" lon="9.248400949844225"><ele>30.8</ele><time>2026-04-26T06:39:41Z</time></trkpt><trkpt lat="44.34101420537205" lon="9.24855775211229"><ele>34.0</ele><time>2026-04-26T06:39:42Z</time></trkpt><trkpt lat="44.34100441397349" lon="9.24871172828425"><ele>34.0</ele><time>2026-04-26T06:39:43Z</time></trkpt><trkpt lat="44.34099456410119" lon="9.248869087479457"><ele>34.0</ele><time>2026-04-26T06:39:44Z</time></trkpt><trkpt lat="44.34098989653005" lon="9.24902863223863"><ele>34.0</ele><time>2026-04-26T06:39:45Z</time></trkpt><trkpt lat="44.340989372510684" lon="9.24919505397349"><ele>34.0</ele><time>2026-04-26T06:39:46Z</time></trkpt><trkpt lat="44.340985446694084" lon="9.249361816399578"><ele>38.25</ele><time>2026-04-26T06:39:47Z</time></trkpt><trkpt lat="44.34098995004305" lon="9.24952524782929"><ele>42.5</ele><time>2026-04-26T06:39:48Z</time></trkpt><trkpt lat="44.340989280026676" lon="9.249724813519977"><ele>46.75</ele><time>2026-04-26T06:39:49Z</time></trkpt><trkpt lat="44.34103319789033" lon="9.249965082803493"><ele>51.0</ele><time>2026-04-26T06:39:50Z</time></trkpt><trkpt lat="44.34109071059136" lon="9.25014927418526"><ele>52.0</ele><time>2026-04-26T06:39:51Z</time></trkpt><trkpt lat="44.341115873848274" lon="9.25031078757023"><ele>53.0</ele><time>2026-04-26T06:39:52Z</time></trkpt><trkpt lat="44.341101127949585" lon="9.250450703852819"><ele>53.99999999999999</ele><time>2026-04-26T06:39:53Z</time></trkpt><trkpt lat="44.34101276567488" lon="9.250536444010615"><ele>55.0</ele><time>2026-04-26T06:39:54Z</time></trkpt><trkpt lat="44.340916559856595" lon="9.250585309087958"><ele>56.0</ele><time>2026-04-26T06:39:55Z</time></trkpt><trkpt lat="44.34081457429095" lon="9.250624843955427"><ele>59.199999999999996</ele><time>2026-04-26T06:39:56Z</time></trkpt><trkpt lat="44.34070928147487" lon="9.25065199422393"><ele>62.39999999999999</ele><time>2026-04-26T06:39:57Z</time></trkpt><trkpt lat="44.34060311109629" lon="9.250675405638177"><ele>65.6</ele><time>2026-04-26T06:39:58Z</time></trkpt><trkpt lat="44.34050676010512" lon="9.250706780998033"><ele>68.8</ele><time>2026-04-26T06:39:59Z</time></trkpt><trkpt lat="44.340425853677786" lon="9.250761113797276"><ele>72.0</ele><time>2026-04-26T06:40:00Z</time></trkpt><trkpt lat="44.34037211383384" lon="9.250866665937453"><ele>63.5</ele><time>2026-04-26T06:40:01Z</time></trkpt><trkpt lat="44.34035732234252" lon="9.251017276646825"><ele>55.0</ele><time>2026-04-26T06:40:02Z</time></trkpt><trkpt lat="44.34039321924981" lon="9.25117811881273"><ele>46.5</ele><time>2026-04-26T06:40:03Z</time></trkpt><trkpt lat="44.340446714477416" lon="9.251340574399382"><ele>38.0</ele><time>2026-04-26T06:40:04Z</time></trkpt><trkpt lat="44.34049491416794" lon="9.25149089617253"><ele>46.75</ele><time>2026-04-26T06:40:05Z</time></trkpt><trkpt lat="44.340573819725506" lon="9.251611075290677"><ele>55.5</ele><time>2026-04-26T06:40:06Z</time></trkpt><trkpt lat="44.340688488536514" lon="9.251681966716836"><ele>64.25</ele><time>2026-04-26T06:40:07Z</time></trkpt><trkpt lat="44.34080732443531" lon="9.25172606938728"><ele>73.0</ele><time>2026-04-26T06:40:08Z</time></trkpt><trkpt lat="44.34090611153581" lon="9.251828350754813"><ele>73.0</ele><time>2026-04-26T06:40:09Z</time></trkpt><trkpt lat="44.34099486688648" lon="9.251955868975122"><ele>73.0</ele><time>2026-04-26T06:40:10Z</time></trkpt><trkpt lat="44.34107611863409" lon="9.252075685594638"><ele>73.0</ele><time>2026-04-26T06:40:11Z</time></trkpt><trkpt lat="44.34115140940762" lon="9.252213869196822"><ele>73.0</ele><time>2026-04-26T06:40:12Z</time></trkpt><trkpt lat="44.341251288906285" lon="9.252310866108498"><ele>74.0</ele><time>2026-04-26T06:40:13Z</time></trkpt><trkpt lat="44.34136746999841" lon="9.252375419062199"><ele>75.0</ele><time>2026-04-26T06:40:14Z</time></trkpt><trkpt lat="44.34148357017463" lon="9.252436066793019"><ele>76.0</ele><time>2026-04-26T06:40:15Z</time></trkpt><trkpt lat="44.341597279196556" lon="9.252507251327149"><ele>77.0</ele><time>2026-04-26T06:40:16Z</time></trkpt><trkpt lat="44.341708433700155" lon="9.252580113558157"><ele>77.0</ele><time>2026-04-26T06:40:17Z</time></trkpt><trkpt lat="44.34181685160921" lon="9.252656664152946"><ele>77.0</ele><time>2026-04-26T06:40:18Z</time></trkpt><trkpt lat="44.34191010401334" lon="9.252766136062183"><ele>77.0</ele><time>2026-04-26T06:40:19Z</time></trkpt><trkpt lat="44.341960128028006" lon="9.252923469813755"><ele>77.0</ele><time>2026-04-26T06:40:20Z</time></trkpt><trkpt lat="44.34201490894883" lon="9.253072368330816"><ele>79.0</ele><time>2026-04-26T06:40:21Z</time></trkpt><trkpt lat="44.342059376086944" lon="9.253226643820232"><ele>81.0</ele><time>2026-04-26T06:40:22Z</time></trkpt><trkpt lat="44.34213133121095" lon="9.25335807243134"><ele>83.0</ele><time>2026-04-26T06:40:23Z</time></trkpt><trkpt lat="44.34222912041952" lon="9.25346300720997"><ele>85.0</ele><time>2026-04-26T06:40:24Z</time></trkpt><trkpt lat="44.34234166923115" lon="9.253545612011635"><ele>85.0</ele><time>2026-04-26T06:40:25Z</time></trkpt><trkpt lat="44.342455146055656" lon="9.253609015620059"><ele>85.0</ele><time>2026-04-26T06:40:26Z</time></trkpt><trkpt lat="44.34256987650089" lon="9.253660959864863"><ele>85.0</ele><time>2026-04-26T06:40:27Z</time></trkpt><trkpt lat="44.342676603458486" lon="9.253702256899023"><ele>85.0</ele><time>2026-04-26T06:40:28Z</time></trkpt><trkpt lat="44.342777468719" lon="9.253745097069173"><ele>85.0</ele><time>2026-04-26T06:40:29Z</time></trkpt><trkpt lat="44.34286933082357" lon="9.253816214952504"><ele>85.0</ele><time>2026-04-26T06:40:30Z</time></trkpt><trkpt lat="44.342915865733154" lon="9.253933194422993"><ele>85.0</ele><time>2026-04-26T06:40:31Z</time></trkpt><trkpt lat="44.34290402122984" lon="9.254089645019482"><ele>85.0</ele><time>2026-04-26T06:40:32Z</time></trkpt><trkpt lat="44.34284251055751" lon="9.25424614843611"><ele>85.0</ele><time>2026-04-26T06:40:33Z</time></trkpt><trkpt lat="44.34279496126385" lon="9.254405278588777"><ele>84.0</ele><time>2026-04-26T06:40:34Z</time></trkpt><trkpt lat="44.342808894538194" lon="9.254583130983974"><ele>83.0</ele><time>2026-04-26T06:40:35Z</time></trkpt><trkpt lat="44.342844998828745" lon="9.254747684209063"><ele>82.0</ele><time>2026-04-26T06:40:36Z</time></trkpt><trkpt lat="44.3428181864871" lon="9.254896907146446"><ele>81.0</ele><time>2026-04-26T06:40:37Z</time></trkpt><trkpt lat="44.342736189165805" lon="9.255006388582222"><ele>81.0</ele><time>2026-04-26T06:40:38Z</time></trkpt><trkpt lat="44.3426381861559" lon="9.25508640944957"><ele>81.0</ele><time>2026-04-26T06:40:39Z</time></trkpt><trkpt lat="44.342521287100915" lon="9.255089365776305"><ele>81.0</ele><time>2026-04-26T06:40:40Z</time></trkpt><trkpt lat="44.34239663977996" lon="9.255007334321967"><ele>81.0</ele><time>2026-04-26T06:40:41Z</time></trkpt><trkpt lat="44.34227263296218" lon="9.254952215834166"><ele>78.75</ele><time>2026-04-26T06:40:42Z</time></trkpt><trkpt lat="44.34214377928191" lon="9.254900530516077"><ele>76.5</ele><time>2026-04-26T06:40:43Z</time></trkpt><trkpt lat="44.342010034145" lon="9.254861394014036"><ele>74.25</ele><time>2026-04-26T06:40:44Z</time></trkpt><trkpt lat="44.341886639180125" lon="9.254836479125848"><ele>72.0</ele><time>2026-04-26T06:40:45Z</time></trkpt><trkpt lat="44.341756192064125" lon="9.254830464316806"><ele>72.0</ele><time>2026-04-26T06:40:46Z</time></trkpt><trkpt lat="44.341631138608946" lon="9.254855721602684"><ele>72.0</ele><time>2026-04-26T06:40:47Z</time></trkpt><trkpt lat="44.34151928255969" lon="9.254921449988858"><ele>72.0</ele><time>2026-04-26T06:40:48Z</time></trkpt><trkpt lat="44.341437316113634" lon="9.255043874637435"><ele>72.0</ele><time>2026-04-26T06:40:49Z</time></trkpt><trkpt lat="44.34140421260342" lon="9.255207978356562"><ele>72.0</ele><time>2026-04-26T06:40:50Z</time></trkpt><trkpt lat="44.3414200974754" lon="9.255401671219676"><ele>72.0</ele><time>2026-04-26T06:40:51Z</time></trkpt><trkpt lat="44.34145112296388" lon="9.255602483889975"><ele>72.0</ele><time>2026-04-26T06:40:52Z</time></trkpt><trkpt lat="44.34146697387207" lon="9.25580139468882"><ele>72.0</ele><time>2026-04-26T06:40:53Z</time></trkpt><trkpt lat="44.34147743046341" lon="9.255991381554267"><ele>75.75</ele><time>2026-04-26T06:40:54Z</time></trkpt><trkpt lat="44.3414899866708" lon="9.256175561262795"><ele>79.5</ele><time>2026-04-26T06:40:55Z</time></trkpt><trkpt lat="44.34152873962809" lon="9.256360689605506"><ele>83.25</ele><time>2026-04-26T06:40:56Z</time></trkpt><trkpt lat="44.34157279505781" lon="9.256541184811736"><ele>87.0</ele><time>2026-04-26T06:40:57Z</time></trkpt><trkpt lat="44.34162225034869" lon="9.256715377693109"><ele>87.0</ele><time>2026-04-26T06:40:58Z</time></trkpt><trkpt lat="44.341684934115776" lon="9.25686984677675"><ele>87.0</ele><time>2026-04-26T06:40:59Z</time></trkpt><trkpt lat="44.34175632718572" lon="9.257014763996773"><ele>87.0</ele><time>2026-04-26T06:41:00Z</time></trkpt><trkpt lat="44.341809046792825" lon="9.257168563559038"><ele>87.0</ele><time>2026-04-26T06:41:01Z</time></trkpt><trkpt lat="44.341821255367556" lon="9.257336166486871"><ele>87.25</ele><time>2026-04-26T06:41:02Z</time></trkpt><trkpt lat="44.34178740778975" lon="9.257499365925945"><ele>87.5</ele><time>2026-04-26T06:41:03Z</time></trkpt><trkpt lat="44.341736969501405" lon="9.257659662132534"><ele>87.75</ele><time>2026-04-26T06:41:04Z</time></trkpt><trkpt lat="44.34169218683694" lon="9.257830999647712"><ele>88.0</ele><time>2026-04-26T06:41:05Z</time></trkpt><trkpt lat="44.34164540291346" lon="9.257999512847615"><ele>95.75</ele><time>2026-04-26T06:41:06Z</time></trkpt><trkpt lat="44.34158709890375" lon="9.258171009637323"><ele>103.5</ele><time>2026-04-26T06:41:07.015Z</time></trkpt><trkpt lat="44.34153172240845" lon="9.258345984438698"><ele>111.25</ele><time>2026-04-26T06:41:08.013Z</time></trkpt><trkpt lat="44.341477004325384" lon="9.258527887012903"><ele>119.0</ele><time>2026-04-26T06:41:09.016Z</time></trkpt><trkpt lat="44.34142483756956" lon="9.258718237665875"><ele>110.0</ele><time>2026-04-26T06:41:10.016Z</time></trkpt><trkpt lat="44.34137384050093" lon="9.258909270315923"><ele>101.0</ele><time>2026-04-26T06:41:11.021Z</time></trkpt><trkpt lat="44.34058694915793" lon="9.261590964534912"><ele>93.0</ele><time>2026-04-26T06:41:15.642Z</time></trkpt><trkpt lat="44.34045096397804" lon="9.261950450026674"><ele>85.0</ele><time>2026-04-26T06:41:29Z</time></trkpt><trkpt lat="44.34039046108916" lon="9.262099269130141"><ele>77.0</ele><time>2026-04-26T06:41:30Z</time></trkpt><trkpt lat="44.34025957882955" lon="9.262107957552587"><ele>77.0</ele><time>2026-04-26T06:41:31Z</time></trkpt><trkpt lat="44.34014219774319" lon="9.262198391111774"><ele>77.0</ele><time>2026-04-26T06:41:32Z</time></trkpt><trkpt lat="44.34002535756198" lon="9.26224484644343"><ele>77.0</ele><time>2026-04-26T06:41:33Z</time></trkpt><trkpt lat="44.3398960510063" lon="9.262281578579396"><ele>77.0</ele><time>2026-04-26T06:41:34Z</time></trkpt><trkpt lat="44.3397703188985" lon="9.262319917574274"><ele>72.75</ele><time>2026-04-26T06:41:35Z</time></trkpt><trkpt lat="44.33964438533371" lon="9.262363724316904"><ele>68.5</ele><time>2026-04-26T06:41:36Z</time></trkpt><trkpt lat="44.339525126060195" lon="9.26241714329681"><ele>64.25</ele><time>2026-04-26T06:41:37Z</time></trkpt><trkpt lat="44.33942712715065" lon="9.262477434304179"><ele>60.0</ele><time>2026-04-26T06:41:38Z</time></trkpt><trkpt lat="44.33933750718574" lon="9.2625586527939"><ele>60.0</ele><time>2026-04-26T06:41:39Z</time></trkpt><trkpt lat="44.339255349813385" lon="9.26264699229564"><ele>60.0</ele><time>2026-04-26T06:41:40Z</time></trkpt><trkpt lat="44.33918679132735" lon="9.262730171474091"><ele>60.0</ele><time>2026-04-26T06:41:41Z</time></trkpt><trkpt lat="44.3391279527641" lon="9.262803063233639"><ele>60.0</ele><time>2026-04-26T06:41:42Z</time></trkpt><trkpt lat="44.33907449070239" lon="9.26287135490122"><ele>60.0</ele><time>2026-04-26T06:41:43Z</time></trkpt><trkpt lat="44.33902592339717" lon="9.262935315596623"><ele>60.0</ele><time>2026-04-26T06:41:44Z</time></trkpt><trkpt lat="44.33893791078934" lon="9.26302909852194"><ele>60.0</ele><time>2026-04-26T06:41:46Z</time></trkpt><trkpt lat="44.33886556458734" lon="9.263107776127137"><ele>60.0</ele><time>2026-04-26T06:41:49Z</time></trkpt><trkpt lat="44.338932353089135" lon="9.26303707381855"><ele>60.0</ele><time>2026-04-26T06:41:52Z</time></trkpt><trkpt lat="44.338870072992826" lon="9.263141849886908"><ele>60.0</ele><time>2026-04-26T06:42:15.001Z</time></trkpt><trkpt lat="44.338800972275436" lon="9.26322425771991"><ele>60.0</ele><time>2026-04-26T06:42:16.001Z</time></trkpt><trkpt lat="44.33872533955389" lon="9.263325682063154"><ele>58.6</ele><time>2026-04-26T06:42:17.001Z</time></trkpt><trkpt lat="44.33863610025858" lon="9.263414369462234"><ele>57.2</ele><time>2026-04-26T06:42:18.001Z</time></trkpt><trkpt lat="44.33855291578826" lon="9.263514692599495"><ele>55.8</ele><time>2026-04-26T06:42:19.001Z</time></trkpt><trkpt lat="44.33846523148468" lon="9.263620442678798"><ele>54.4</ele><time>2026-04-26T06:42:20.001Z</time></trkpt><trkpt lat="44.33838252763021" lon="9.263720186160674"><ele>53.0</ele><time>2026-04-26T06:42:21.001Z</time></trkpt><trkpt lat="44.338302050763495" lon="9.263817243831499"><ele>53.0</ele><time>2026-04-26T06:42:22.001Z</time></trkpt><trkpt lat="44.33822285090482" lon="9.26391276139694"><ele>53.0</ele><time>2026-04-26T06:42:23.001Z</time></trkpt><trkpt lat="44.33815824852516" lon="9.264019974387336"><ele>53.0</ele><time>2026-04-26T06:42:24.001Z</time></trkpt><trkpt lat="44.33807393782337" lon="9.264107752146352"><ele>53.0</ele><time>2026-04-26T06:42:25.001Z</time></trkpt><trkpt lat="44.33799493072009" lon="9.264204363638862"><ele>53.0</ele><time>2026-04-26T06:42:26.001Z</time></trkpt><trkpt lat="44.3379063303696" lon="9.264299789152851"><ele>49.75</ele><time>2026-04-26T06:42:27.001Z</time></trkpt><trkpt lat="44.337814231405105" lon="9.26441396866011"><ele>46.5</ele><time>2026-04-26T06:42:28.001Z</time></trkpt><trkpt lat="44.33772331776694" lon="9.264519621595"><ele>43.25</ele><time>2026-04-26T06:42:29.001Z</time></trkpt><trkpt lat="44.337629282516055" lon="9.264630549586144"><ele>40.0</ele><time>2026-04-26T06:42:30.001Z</time></trkpt><trkpt lat="44.337536719550044" lon="9.264733955644447"><ele>42.75</ele><time>2026-04-26T06:42:31.001Z</time></trkpt><trkpt lat="44.337447172320466" lon="9.264838027821357"><ele>45.5</ele><time>2026-04-26T06:42:32.001Z</time></trkpt><trkpt lat="44.33736274438887" lon="9.264939517303658"><ele>48.25</ele><time>2026-04-26T06:42:33.001Z</time></trkpt><trkpt lat="44.337298878003125" lon="9.265072522863777"><ele>51.0</ele><time>2026-04-26T06:42:34.001Z</time></trkpt><trkpt lat="44.33727512794792" lon="9.26524395275499"><ele>51.0</ele><time>2026-04-26T06:42:35.001Z</time></trkpt><trkpt lat="44.33728329146887" lon="9.265416444311738"><ele>51.0</ele><time>2026-04-26T06:42:36.001Z</time></trkpt><trkpt lat="44.337345314593044" lon="9.265582825003412"><ele>51.0</ele><time>2026-04-26T06:42:37.001Z</time></trkpt><trkpt lat="44.33742676006148" lon="9.26575390057428"><ele>51.0</ele><time>2026-04-26T06:42:38.001Z</time></trkpt><trkpt lat="44.3375039270507" lon="9.26590925648431"><ele>49.75</ele><time>2026-04-26T06:42:39.001Z</time></trkpt><trkpt lat="44.33757016382472" lon="9.266068228236987"><ele>48.5</ele><time>2026-04-26T06:42:40.001Z</time></trkpt><trkpt lat="44.33763438468089" lon="9.266234323790705"><ele>47.25</ele><time>2026-04-26T06:42:41.001Z</time></trkpt><trkpt lat="44.33769867913314" lon="9.266395282051171"><ele>46.0</ele><time>2026-04-26T06:42:42.001Z</time></trkpt><trkpt lat="44.33776533331823" lon="9.26654165015075"><ele>47.0</ele><time>2026-04-26T06:42:43.001Z</time></trkpt><trkpt lat="44.337848294488225" lon="9.266689439550102"><ele>48.0</ele><time>2026-04-26T06:42:44.001Z</time></trkpt><trkpt lat="44.33795790252921" lon="9.26678321317968"><ele>49.0</ele><time>2026-04-26T06:42:45.001Z</time></trkpt><trkpt lat="44.338083661153156" lon="9.266852829731132"><ele>50.0</ele><time>2026-04-26T06:42:46.001Z</time></trkpt><trkpt lat="44.33820632102325" lon="9.266950697051406"><ele>50.0</ele><time>2026-04-26T06:42:47Z</time></trkpt><trkpt lat="44.33832814879584" lon="9.267056578103796"><ele>50.0</ele><time>2026-04-26T06:42:48Z</time></trkpt><trkpt lat="44.338448845390644" lon="9.267157899106278"><ele>50.0</ele><time>2026-04-26T06:42:49Z</time></trkpt><trkpt lat="44.33857226135605" lon="9.26726253795043"><ele>50.0</ele><time>2026-04-26T06:42:50Z</time></trkpt><trkpt lat="44.33869054219894" lon="9.267359899145177"><ele>48.0</ele><time>2026-04-26T06:42:51Z</time></trkpt><trkpt lat="44.33880683962047" lon="9.267464726623716"><ele>46.0</ele><time>2026-04-26T06:42:52Z</time></trkpt><trkpt lat="44.33892085936642" lon="9.267563200288647"><ele>44.0</ele><time>2026-04-26T06:42:53Z</time></trkpt><trkpt lat="44.33903501286865" lon="9.267662090372472"><ele>42.0</ele><time>2026-04-26T06:42:54Z</time></trkpt><trkpt lat="44.33914473743788" lon="9.267765258885623"><ele>42.0</ele><time>2026-04-26T06:42:55Z</time></trkpt><trkpt lat="44.33926025210421" lon="9.267861294366371"><ele>42.0</ele><time>2026-04-26T06:42:56Z</time></trkpt><trkpt lat="44.33937718414717" lon="9.267959441116993"><ele>42.0</ele><time>2026-04-26T06:42:57Z</time></trkpt><trkpt lat="44.33949695425563" lon="9.268055018573275"><ele>42.0</ele><time>2026-04-26T06:42:58Z</time></trkpt><trkpt lat="44.33960942572365" lon="9.268156022470235"><ele>38.0</ele><time>2026-04-26T06:42:59Z</time></trkpt><trkpt lat="44.33972089220555" lon="9.268258849774247"><ele>34.0</ele><time>2026-04-26T06:43:00Z</time></trkpt><trkpt lat="44.33979774617743" lon="9.268397934206485"><ele>30.0</ele><time>2026-04-26T06:43:01Z</time></trkpt><trkpt lat="44.33981068954633" lon="9.268589284020374"><ele>26.0</ele><time>2026-04-26T06:43:02Z</time></trkpt><trkpt lat="44.33981904435279" lon="9.268780081503227"><ele>26.0</ele><time>2026-04-26T06:43:03Z</time></trkpt><trkpt lat="44.33977952204715" lon="9.268958750551292"><ele>26.0</ele><time>2026-04-26T06:43:04Z</time></trkpt><trkpt lat="44.33967414559182" lon="9.269084084844515"><ele>26.0</ele><time>2026-04-26T06:43:05Z</time></trkpt><trkpt lat="44.339558588123886" lon="9.2691815707661"><ele>26.0</ele><time>2026-04-26T06:43:06Z</time></trkpt><trkpt lat="44.339445945077266" lon="9.269264725305"><ele>26.5</ele><time>2026-04-26T06:43:07Z</time></trkpt><trkpt lat="44.33934497995479" lon="9.269353808912784"><ele>27.0</ele><time>2026-04-26T06:43:08Z</time></trkpt><trkpt lat="44.33924046306021" lon="9.26940269349375"><ele>27.5</ele><time>2026-04-26T06:43:09Z</time></trkpt><trkpt lat="44.3391302665746" lon="9.269366325663409"><ele>28.0</ele><time>2026-04-26T06:43:10Z</time></trkpt><trkpt lat="44.339025199134305" lon="9.2693356595305"><ele>28.0</ele><time>2026-04-26T06:43:11Z</time></trkpt><trkpt lat="44.33894661731144" lon="9.269215790587442"><ele>28.0</ele><time>2026-04-26T06:43:12Z</time></trkpt><trkpt lat="44.33884760226503" lon="9.269149329329798"><ele>28.0</ele><time>2026-04-26T06:43:13Z</time></trkpt><trkpt lat="44.33875495934257" lon="9.269055127990175"><ele>28.0</ele><time>2026-04-26T06:43:14Z</time></trkpt><trkpt lat="44.33864612589976" lon="9.268969181019676"><ele>24.333333333333336</ele><time>2026-04-26T06:43:15Z</time></trkpt><trkpt lat="44.338496869321894" lon="9.268914285881523"><ele>20.666666666666668</ele><time>2026-04-26T06:43:16Z</time></trkpt><trkpt lat="44.33830612862563" lon="9.268892333216078"><ele>17.0</ele><time>2026-04-26T06:43:17Z</time></trkpt><trkpt lat="44.33811265236535" lon="9.26887885870698"><ele>19.0</ele><time>2026-04-26T06:43:18Z</time></trkpt><trkpt lat="44.337951407111206" lon="9.268852480696708"><ele>21.0</ele><time>2026-04-26T06:43:19Z</time></trkpt><trkpt lat="44.33781020649961" lon="9.268827189600652"><ele>23.0</ele><time>2026-04-26T06:43:20Z</time></trkpt><trkpt lat="44.33768113127248" lon="9.268798029799083"><ele>25.0</ele><time>2026-04-26T06:43:21Z</time></trkpt><trkpt lat="44.33755359578273" lon="9.268757484253532"><ele>25.0</ele><time>2026-04-26T06:43:22Z</time></trkpt><trkpt lat="44.33743891264936" lon="9.268698533332515"><ele>25.0</ele><time>2026-04-26T06:43:23Z</time></trkpt><trkpt lat="44.33733047933327" lon="9.268626067105178"><ele>25.0</ele><time>2026-04-26T06:43:24Z</time></trkpt><trkpt lat="44.33721601467587" lon="9.268573467307762"><ele>25.0</ele><time>2026-04-26T06:43:25Z</time></trkpt><trkpt lat="44.337091136340085" lon="9.268535226348172"><ele>28.0</ele><time>2026-04-26T06:43:26Z</time></trkpt><trkpt lat="44.336968093901085" lon="9.268509430174824"><ele>31.0</ele><time>2026-04-26T06:43:27Z</time></trkpt><trkpt lat="44.33685448750815" lon="9.268458014564652"><ele>34.0</ele><time>2026-04-26T06:43:28Z</time></trkpt><trkpt lat="44.336754219098694" lon="9.268369882995131"><ele>37.0</ele><time>2026-04-26T06:43:29Z</time></trkpt><trkpt lat="44.3366636042354" lon="9.26826978802209"><ele>37.0</ele><time>2026-04-26T06:43:30Z</time></trkpt><trkpt lat="44.336566464721834" lon="9.268191982742334"><ele>37.0</ele><time>2026-04-26T06:43:31Z</time></trkpt><trkpt lat="44.336469582377646" lon="9.268164621337643"><ele>37.0</ele><time>2026-04-26T06:43:32Z</time></trkpt><trkpt lat="44.3363588273559" lon="9.268231698035178"><ele>37.0</ele><time>2026-04-26T06:43:33Z</time></trkpt><trkpt lat="44.33626757323534" lon="9.268349201933159"><ele>36.0</ele><time>2026-04-26T06:43:34Z</time></trkpt><trkpt lat="44.33618486928775" lon="9.268471055560306"><ele>35.0</ele><time>2026-04-26T06:43:35Z</time></trkpt><trkpt lat="44.336114789533895" lon="9.268589160106005"><ele>34.0</ele><time>2026-04-26T06:43:36Z</time></trkpt><trkpt lat="44.33608389471668" lon="9.26871054462149"><ele>33.0</ele><time>2026-04-26T06:43:37Z</time></trkpt><trkpt lat="44.33609994899087" lon="9.268842207844994"><ele>32.0</ele><time>2026-04-26T06:43:38Z</time></trkpt><trkpt lat="44.33618986853592" lon="9.268966825856737"><ele>32.0</ele><time>2026-04-26T06:43:39Z</time></trkpt><trkpt lat="44.33630559012842" lon="9.269102248918422"><ele>32.0</ele><time>2026-04-26T06:43:40Z</time></trkpt><trkpt lat="44.33639781663325" lon="9.269266731305782"><ele>32.0</ele><time>2026-04-26T06:43:41.001Z</time></trkpt><trkpt lat="44.33647598563602" lon="9.269426754674202"><ele>32.0</ele><time>2026-04-26T06:43:42.001Z</time></trkpt><trkpt lat="44.33649546894292" lon="9.269594927104153"><ele>37.0</ele><time>2026-04-26T06:43:43.001Z</time></trkpt><trkpt lat="44.336505555510456" lon="9.269768404768369"><ele>42.0</ele><time>2026-04-26T06:43:44.001Z</time></trkpt><trkpt lat="44.33650324951733" lon="9.269947806807512"><ele>47.0</ele><time>2026-04-26T06:43:45.001Z</time></trkpt><trkpt lat="44.33650686545303" lon="9.270116192255417"><ele>52.0</ele><time>2026-04-26T06:43:46.001Z</time></trkpt><trkpt lat="44.33650320366619" lon="9.270270529511789"><ele>53.8</ele><time>2026-04-26T06:43:47.001Z</time></trkpt><trkpt lat="44.33650814898279" lon="9.270425720402985"><ele>55.6</ele><time>2026-04-26T06:43:48.001Z</time></trkpt><trkpt lat="44.33649669557664" lon="9.270570985002571"><ele>57.39999999999999</ele><time>2026-04-26T06:43:49.001Z</time></trkpt><trkpt lat="44.336438048307336" lon="9.270680607257109"><ele>59.199999999999996</ele><time>2026-04-26T06:43:50.001Z</time></trkpt><trkpt lat="44.336331344696795" lon="9.27070796012115"><ele>61.0</ele><time>2026-04-26T06:43:51.001Z</time></trkpt><trkpt lat="44.33620192993933" lon="9.27063457187243"><ele>62.0</ele><time>2026-04-26T06:43:52.001Z</time></trkpt><trkpt lat="44.33605678146162" lon="9.27061108485238"><ele>63.0</ele><time>2026-04-26T06:43:53.001Z</time></trkpt><trkpt lat="44.33593176939209" lon="9.27056633729917"><ele>64.0</ele><time>2026-04-26T06:43:54.001Z</time></trkpt><trkpt lat="44.33580259693113" lon="9.270557562903345"><ele>65.0</ele><time>2026-04-26T06:43:55.001Z</time></trkpt><trkpt lat="44.335677237998794" lon="9.270590299352374"><ele>65.0</ele><time>2026-04-26T06:43:56.001Z</time></trkpt><trkpt lat="44.33555508902417" lon="9.270653693972262"><ele>65.0</ele><time>2026-04-26T06:43:57.001Z</time></trkpt><trkpt lat="44.335434463194105" lon="9.270739699941899"><ele>65.0</ele><time>2026-04-26T06:43:58.001Z</time></trkpt><trkpt lat="44.33531942426271" lon="9.270834104811483"><ele>65.0</ele><time>2026-04-26T06:43:59.001Z</time></trkpt><trkpt lat="44.335210856134914" lon="9.27094317116399"><ele>65.5</ele><time>2026-04-26T06:44:00.001Z</time></trkpt><trkpt lat="44.33511488601937" lon="9.271079318313936"><ele>66.0</ele><time>2026-04-26T06:44:01.001Z</time></trkpt><trkpt lat="44.335035664639925" lon="9.271237173573569"><ele>66.5</ele><time>2026-04-26T06:44:02.001Z</time></trkpt><trkpt lat="44.33497387711216" lon="9.271408826510493"><ele>67.0</ele><time>2026-04-26T06:44:03.001Z</time></trkpt><trkpt lat="44.33491265500276" lon="9.271585337513054"><ele>67.0</ele><time>2026-04-26T06:44:04.001Z</time></trkpt><trkpt lat="44.334828996180974" lon="9.271737816056461"><ele>67.0</ele><time>2026-04-26T06:44:05.001Z</time></trkpt><trkpt lat="44.334743044496015" lon="9.271901816750628"><ele>67.0</ele><time>2026-04-26T06:44:06.001Z</time></trkpt><trkpt lat="44.33463823356128" lon="9.27203847002382"><ele>67.0</ele><time>2026-04-26T06:44:07.001Z</time></trkpt><trkpt lat="44.33453537128971" lon="9.272183559648616"><ele>63.75</ele><time>2026-04-26T06:44:08.001Z</time></trkpt><trkpt lat="44.33444513246034" lon="9.272335350518574"><ele>60.5</ele><time>2026-04-26T06:44:09.001Z</time></trkpt><trkpt lat="44.33437857239021" lon="9.272504555746831"><ele>57.25</ele><time>2026-04-26T06:44:10.001Z</time></trkpt><trkpt lat="44.33433412401334" lon="9.272685385719369"><ele>54.0</ele><time>2026-04-26T06:44:11.001Z</time></trkpt><trkpt lat="44.33429528186127" lon="9.27286678085872"><ele>54.0</ele><time>2026-04-26T06:44:12.001Z</time></trkpt><trkpt lat="44.3342554768168" lon="9.273046300218454"><ele>54.0</ele><time>2026-04-26T06:44:13.001Z</time></trkpt><trkpt lat="44.33421300098992" lon="9.273229412758047"><ele>54.0</ele><time>2026-04-26T06:44:14.001Z</time></trkpt><trkpt lat="44.33417158205924" lon="9.273418100914741"><ele>54.0</ele><time>2026-04-26T06:44:15.001Z</time></trkpt><trkpt lat="44.33412787825977" lon="9.273603284510056"><ele>49.75</ele><time>2026-04-26T06:44:16.001Z</time></trkpt><trkpt lat="44.33408353685876" lon="9.273778512667539"><ele>45.5</ele><time>2026-04-26T06:44:17.001Z</time></trkpt><trkpt lat="44.3340059841218" lon="9.273937624515366"><ele>41.25</ele><time>2026-04-26T06:44:18.001Z</time></trkpt><trkpt lat="44.333945800602514" lon="9.274099379408774"><ele>37.0</ele><time>2026-04-26T06:44:19.001Z</time></trkpt><trkpt lat="44.333885933494166" lon="9.274280294790955"><ele>37.0</ele><time>2026-04-26T06:44:20.001Z</time></trkpt><trkpt lat="44.33385565486779" lon="9.274472898991721"><ele>37.0</ele><time>2026-04-26T06:44:21.001Z</time></trkpt><trkpt lat="44.33386362184354" lon="9.27468223539841"><ele>37.0</ele><time>2026-04-26T06:44:22.001Z</time></trkpt><trkpt lat="44.3338724992458" lon="9.274905560516363"><ele>41.66666666666667</ele><time>2026-04-26T06:44:23.001Z</time></trkpt><trkpt lat="44.33385600973819" lon="9.275126048767156"><ele>46.333333333333336</ele><time>2026-04-26T06:44:24.001Z</time></trkpt><trkpt lat="44.333854288632445" lon="9.27536048170228"><ele>51.0</ele><time>2026-04-26T06:44:25.001Z</time></trkpt><trkpt lat="44.33382402079356" lon="9.275571955814415"><ele>54.0</ele><time>2026-04-26T06:44:26.001Z</time></trkpt><trkpt lat="44.33380188243501" lon="9.275778006709848"><ele>57.0</ele><time>2026-04-26T06:44:27.001Z</time></trkpt><trkpt lat="44.3337830294798" lon="9.275975499141882"><ele>60.0</ele><time>2026-04-26T06:44:28.001Z</time></trkpt><trkpt lat="44.33376720067122" lon="9.276167170318683"><ele>63.0</ele><time>2026-04-26T06:44:29.001Z</time></trkpt><trkpt lat="44.33375253945521" lon="9.276358259049994"><ele>66.25</ele><time>2026-04-26T06:44:30.001Z</time></trkpt><trkpt lat="44.33373512386641" lon="9.276545555082976"><ele>69.5</ele><time>2026-04-26T06:44:31.001Z</time></trkpt><trkpt lat="44.33371807410007" lon="9.27672546598187"><ele>72.75</ele><time>2026-04-26T06:44:32.001Z</time></trkpt><trkpt lat="44.33370089161649" lon="9.276905966689238"><ele>76.0</ele><time>2026-04-26T06:44:33.001Z</time></trkpt><trkpt lat="44.33365167981542" lon="9.277056835592813"><ele>76.0</ele><time>2026-04-26T06:44:34.001Z</time></trkpt><trkpt lat="44.33354151037031" lon="9.277132172606091"><ele>76.0</ele><time>2026-04-26T06:44:35.001Z</time></trkpt><trkpt lat="44.33342861005708" lon="9.277155030808613"><ele>76.0</ele><time>2026-04-26T06:44:36.001Z</time></trkpt><trkpt lat="44.333323507084096" lon="9.277078012131796"><ele>76.0</ele><time>2026-04-26T06:44:37.001Z</time></trkpt><trkpt lat="44.3332101928579" lon="9.276988312300025"><ele>76.0</ele><time>2026-04-26T06:44:38.001Z</time></trkpt><trkpt lat="44.33312136453835" lon="9.276855548766468"><ele>76.0</ele><time>2026-04-26T06:44:39.001Z</time></trkpt><trkpt lat="44.33301211970679" lon="9.276795966401835"><ele>76.0</ele><time>2026-04-26T06:44:40.001Z</time></trkpt><trkpt lat="44.33287921265868" lon="9.276821366589173"><ele>76.0</ele><time>2026-04-26T06:44:41.001Z</time></trkpt><trkpt lat="44.332746020688795" lon="9.27693730995954"><ele>70.33333333333333</ele><time>2026-04-26T06:44:42.001Z</time></trkpt><trkpt lat="44.332618996784" lon="9.277072809405285"><ele>64.66666666666667</ele><time>2026-04-26T06:44:43.001Z</time></trkpt><trkpt lat="44.332494876183574" lon="9.277220510024103"><ele>59.0</ele><time>2026-04-26T06:44:44.001Z</time></trkpt><trkpt lat="44.33237116457031" lon="9.277349300784316"><ele>59.5</ele><time>2026-04-26T06:44:45Z</time></trkpt><trkpt lat="44.33225469725572" lon="9.277485795533307"><ele>60.0</ele><time>2026-04-26T06:44:46Z</time></trkpt><trkpt lat="44.33214791035015" lon="9.2776246307891"><ele>60.5</ele><time>2026-04-26T06:44:47Z</time></trkpt><trkpt lat="44.33204476292161" lon="9.277767684210069"><ele>61.0</ele><time>2026-04-26T06:44:48Z</time></trkpt><trkpt lat="44.331930361603895" lon="9.277886079225205"><ele>61.0</ele><time>2026-04-26T06:44:49Z</time></trkpt><trkpt lat="44.33182504979611" lon="9.278013817301106"><ele>61.0</ele><time>2026-04-26T06:44:50Z</time></trkpt><trkpt lat="44.331718025709705" lon="9.278135834674597"><ele>61.0</ele><time>2026-04-26T06:44:51Z</time></trkpt><trkpt lat="44.331617422567234" lon="9.278255366807494"><ele>61.0</ele><time>2026-04-26T06:44:52Z</time></trkpt><trkpt lat="44.33151898429778" lon="9.278367962041322"><ele>61.75</ele><time>2026-04-26T06:44:53Z</time></trkpt><trkpt lat="44.33141855189344" lon="9.278462010092788"><ele>62.5</ele><time>2026-04-26T06:44:54Z</time></trkpt><trkpt lat="44.33129945301898" lon="9.27853180880408"><ele>63.25</ele><time>2026-04-26T06:44:55Z</time></trkpt><trkpt lat="44.331184388721624" lon="9.278618644287121"><ele>64.0</ele><time>2026-04-26T06:44:56Z</time></trkpt><trkpt lat="44.33108069010203" lon="9.278729722164137"><ele>64.0</ele><time>2026-04-26T06:44:57Z</time></trkpt><trkpt lat="44.33100450404769" lon="9.278835254592845"><ele>64.0</ele><time>2026-04-26T06:44:58Z</time></trkpt><trkpt lat="44.33093740925103" lon="9.278943475972993"><ele>64.0</ele><time>2026-04-26T06:44:59Z</time></trkpt><trkpt lat="44.33087248140138" lon="9.279039329455001"><ele>64.0</ele><time>2026-04-26T06:45:00Z</time></trkpt><trkpt lat="44.33080905663286" lon="9.27913295820221"><ele>64.0</ele><time>2026-04-26T06:45:01Z</time></trkpt><trkpt lat="44.330763106671775" lon="9.279233756209724"><ele>67.33333333333333</ele><time>2026-04-26T06:45:02Z</time></trkpt><trkpt lat="44.330760558892145" lon="9.279347546677126"><ele>70.66666666666666</ele><time>2026-04-26T06:45:03Z</time></trkpt><trkpt lat="44.33079101165451" lon="9.279451494352681"><ele>74.0</ele><time>2026-04-26T06:45:04Z</time></trkpt><trkpt lat="44.330860310758226" lon="9.279531789731413"><ele>77.33333333333333</ele><time>2026-04-26T06:45:05Z</time></trkpt><trkpt lat="44.33094940255222" lon="9.279567525836603"><ele>80.66666666666667</ele><time>2026-04-26T06:45:06Z</time></trkpt><trkpt lat="44.33104210514252" lon="9.279581686761803"><ele>84.0</ele><time>2026-04-26T06:45:07Z</time></trkpt><trkpt lat="44.331123081543694" lon="9.27959515560769"><ele>84.0</ele><time>2026-04-26T06:45:08Z</time></trkpt><trkpt lat="44.33119968754835" lon="9.27962112152832"><ele>84.0</ele><time>2026-04-26T06:45:09Z</time></trkpt><trkpt lat="44.33128313565246" lon="9.27966085866453"><ele>84.0</ele><time>2026-04-26T06:45:10Z</time></trkpt><trkpt lat="44.33139578060485" lon="9.279702804012462"><ele>84.0</ele><time>2026-04-26T06:45:11Z</time></trkpt><trkpt lat="44.331512994496165" lon="9.279747845063143"><ele>84.0</ele><time>2026-04-26T06:45:12Z</time></trkpt><trkpt lat="44.33161137680312" lon="9.279809257884933"><ele>85.25</ele><time>2026-04-26T06:45:13Z</time></trkpt><trkpt lat="44.33173106075185" lon="9.279917432859422"><ele>86.5</ele><time>2026-04-26T06:45:14Z</time></trkpt><trkpt lat="44.3318815052138" lon="9.279977908239266"><ele>87.75</ele><time>2026-04-26T06:45:15Z</time></trkpt><trkpt lat="44.332018223642315" lon="9.280047968178843"><ele>89.0</ele><time>2026-04-26T06:45:16Z</time></trkpt><trkpt lat="44.33214274562403" lon="9.28013525551518"><ele>98.75</ele><time>2026-04-26T06:45:17Z</time></trkpt><trkpt lat="44.3322594544259" lon="9.280225820602514"><ele>108.5</ele><time>2026-04-26T06:45:18Z</time></trkpt><trkpt lat="44.3323647560822" lon="9.280328137261279"><ele>118.25</ele><time>2026-04-26T06:45:19Z</time></trkpt><trkpt lat="44.33246793835334" lon="9.280440843164243"><ele>128.0</ele><time>2026-04-26T06:45:20Z</time></trkpt><trkpt lat="44.33256977412884" lon="9.280555275064122"><ele>120.75</ele><time>2026-04-26T06:45:21Z</time></trkpt><trkpt lat="44.33266737436331" lon="9.280680692069373"><ele>113.5</ele><time>2026-04-26T06:45:22Z</time></trkpt><trkpt lat="44.3327621475453" lon="9.280811888527547"><ele>106.25</ele><time>2026-04-26T06:45:23Z</time></trkpt><trkpt lat="44.33285074707706" lon="9.280945667244927"><ele>99.0</ele><time>2026-04-26T06:45:24Z</time></trkpt><trkpt lat="44.332932746932" lon="9.281090642209527"><ele>99.0</ele><time>2026-04-26T06:45:25Z</time></trkpt><trkpt lat="44.33300803914713" lon="9.281248225325607"><ele>99.0</ele><time>2026-04-26T06:45:26Z</time></trkpt><trkpt lat="44.333085257242686" lon="9.281415609904206"><ele>99.0</ele><time>2026-04-26T06:45:27Z</time></trkpt><trkpt lat="44.3331637057953" lon="9.281565218193718"><ele>99.0</ele><time>2026-04-26T06:45:28Z</time></trkpt><trkpt lat="44.333241559306416" lon="9.281696834891255"><ele>104.4</ele><time>2026-04-26T06:45:29Z</time></trkpt><trkpt lat="44.333295461640105" lon="9.281834226332032"><ele>109.80000000000001</ele><time>2026-04-26T06:45:30Z</time></trkpt><trkpt lat="44.33336803865357" lon="9.281952005104024"><ele>115.19999999999999</ele><time>2026-04-26T06:45:31Z</time></trkpt><trkpt lat="44.3334102576559" lon="9.282080619156835"><ele>120.6</ele><time>2026-04-26T06:45:32Z</time></trkpt><trkpt lat="44.333410741488464" lon="9.282194548497571"><ele>126.0</ele><time>2026-04-26T06:45:33Z</time></trkpt><trkpt lat="44.33330673927525" lon="9.282260545131743"><ele>126.0</ele><time>2026-04-26T06:45:35Z</time></trkpt><trkpt lat="44.333219531935725" lon="9.282214932753304"><ele>126.0</ele><time>2026-04-26T06:45:36Z</time></trkpt><trkpt lat="44.3331116434056" lon="9.282175979932694"><ele>126.0</ele><time>2026-04-26T06:45:37Z</time></trkpt><trkpt lat="44.332914582900955" lon="9.282215488647006"><ele>126.0</ele><time>2026-04-26T06:45:38Z</time></trkpt><trkpt lat="44.33275955436782" lon="9.282236477562163"><ele>126.75</ele><time>2026-04-26T06:45:39Z</time></trkpt><trkpt lat="44.33260048064658" lon="9.282273140403467"><ele>127.5</ele><time>2026-04-26T06:45:40Z</time></trkpt><trkpt lat="44.33245125544218" lon="9.282267793690483"><ele>128.25</ele><time>2026-04-26T06:45:41Z</time></trkpt><trkpt lat="44.332322234065295" lon="9.282336284458781"><ele>129.0</ele><time>2026-04-26T06:45:42Z</time></trkpt><trkpt lat="44.33221888889366" lon="9.282402956297469"><ele>120.25</ele><time>2026-04-26T06:45:43Z</time></trkpt><trkpt lat="44.33214297368414" lon="9.282547643672903"><ele>111.5</ele><time>2026-04-26T06:45:44Z</time></trkpt><trkpt lat="44.33210548352944" lon="9.282741107376731"><ele>102.75</ele><time>2026-04-26T06:45:45Z</time></trkpt><trkpt lat="44.332118816633795" lon="9.282920379226223"><ele>94.0</ele><time>2026-04-26T06:45:46Z</time></trkpt><trkpt lat="44.33210293809426" lon="9.283038808376258"><ele>94.66666666666666</ele><time>2026-04-26T06:45:47Z</time></trkpt><trkpt lat="44.33216292245605" lon="9.283250071610908"><ele>95.33333333333333</ele><time>2026-04-26T06:45:48Z</time></trkpt><trkpt lat="44.33222112684732" lon="9.283450822807065"><ele>96.0</ele><time>2026-04-26T06:45:49Z</time></trkpt><trkpt lat="44.33227922127663" lon="9.283639556498647"><ele>107.25</ele><time>2026-04-26T06:45:50Z</time></trkpt><trkpt lat="44.33234036961952" lon="9.283816567484978"><ele>118.5</ele><time>2026-04-26T06:45:51Z</time></trkpt><trkpt lat="44.332413872384656" lon="9.283971540597404"><ele>129.75</ele><time>2026-04-26T06:45:52Z</time></trkpt><trkpt lat="44.33249531845423" lon="9.284097715847022"><ele>141.0</ele><time>2026-04-26T06:45:53Z</time></trkpt><trkpt lat="44.33258279742899" lon="9.284204286783867"><ele>141.4</ele><time>2026-04-26T06:45:54Z</time></trkpt><trkpt lat="44.33264833207258" lon="9.28431990722345"><ele>141.8</ele><time>2026-04-26T06:45:55Z</time></trkpt><trkpt lat="44.33266161016895" lon="9.28445448264399"><ele>142.20000000000002</ele><time>2026-04-26T06:45:56Z</time></trkpt><trkpt lat="44.33261406122575" lon="9.284583544085459"><ele>142.6</ele><time>2026-04-26T06:45:57Z</time></trkpt><trkpt lat="44.332489284842936" lon="9.284634346858576"><ele>143.0</ele><time>2026-04-26T06:45:58Z</time></trkpt><trkpt lat="44.33235976602926" lon="9.284641892274262"><ele>143.0</ele><time>2026-04-26T06:45:59Z</time></trkpt><trkpt lat="44.33222557840709" lon="9.28471018105113"><ele>143.0</ele><time>2026-04-26T06:46:00Z</time></trkpt><trkpt lat="44.33208593066714" lon="9.284781248695259"><ele>143.0</ele><time>2026-04-26T06:46:01Z</time></trkpt><trkpt lat="44.331954415003594" lon="9.284869773609259"><ele>143.0</ele><time>2026-04-26T06:46:02Z</time></trkpt><trkpt lat="44.3318145313982" lon="9.284942357818341"><ele>141.5</ele><time>2026-04-26T06:46:03Z</time></trkpt><trkpt lat="44.33167804176257" lon="9.28499722884388"><ele>140.0</ele><time>2026-04-26T06:46:04Z</time></trkpt><trkpt lat="44.331561519125195" lon="9.285079564698439"><ele>138.5</ele><time>2026-04-26T06:46:05Z</time></trkpt><trkpt lat="44.33148459492318" lon="9.285227461270404"><ele>137.0</ele><time>2026-04-26T06:46:06Z</time></trkpt><trkpt lat="44.33144685474466" lon="9.285434771740952"><ele>131.33333333333331</ele><time>2026-04-26T06:46:07Z</time></trkpt><trkpt lat="44.33143963841037" lon="9.285655676250933"><ele>125.66666666666666</ele><time>2026-04-26T06:46:08Z</time></trkpt><trkpt lat="44.331400886746" lon="9.285868523179342"><ele>120.0</ele><time>2026-04-26T06:46:09Z</time></trkpt><trkpt lat="44.331310674840154" lon="9.286059600636506"><ele>120.0</ele><time>2026-04-26T06:46:10Z</time></trkpt><trkpt lat="44.33122605740196" lon="9.286243494694915"><ele>120.0</ele><time>2026-04-26T06:46:11Z</time></trkpt><trkpt lat="44.33116927935704" lon="9.286427654988232"><ele>120.0</ele><time>2026-04-26T06:46:12Z</time></trkpt><trkpt lat="44.331133825067724" lon="9.286630308936985"><ele>120.0</ele><time>2026-04-26T06:46:13Z</time></trkpt><trkpt lat="44.331118684667715" lon="9.28682473604314"><ele>125.5</ele><time>2026-04-26T06:46:14Z</time></trkpt><trkpt lat="44.3310903243929" lon="9.287023534915914"><ele>131.0</ele><time>2026-04-26T06:46:15Z</time></trkpt><trkpt lat="44.33105449405072" lon="9.287216859682864"><ele>136.5</ele><time>2026-04-26T06:46:16Z</time></trkpt><trkpt lat="44.33101465442734" lon="9.287406127550915"><ele>142.0</ele><time>2026-04-26T06:46:17Z</time></trkpt><trkpt lat="44.330937466672744" lon="9.287569258364616"><ele>145.75</ele><time>2026-04-26T06:46:18Z</time></trkpt><trkpt lat="44.33084621143542" lon="9.287709677821075"><ele>149.5</ele><time>2026-04-26T06:46:19Z</time></trkpt><trkpt lat="44.330737755312825" lon="9.287832407716751"><ele>153.25</ele><time>2026-04-26T06:46:20Z</time></trkpt><trkpt lat="44.33061430550274" lon="9.28793220157169"><ele>157.0</ele><time>2026-04-26T06:46:21Z</time></trkpt><trkpt lat="44.33049124260059" lon="9.287998898970912"><ele>157.0</ele><time>2026-04-26T06:46:22Z</time></trkpt><trkpt lat="44.33035251116556" lon="9.287967972450167"><ele>157.0</ele><time>2026-04-26T06:46:23Z</time></trkpt><trkpt lat="44.330212607578204" lon="9.287871387872835"><ele>157.0</ele><time>2026-04-26T06:46:24Z</time></trkpt><trkpt lat="44.33008687540602" lon="9.287757713976532"><ele>157.0</ele><time>2026-04-26T06:46:25Z</time></trkpt><trkpt lat="44.32996033005756" lon="9.28770684982267"><ele>157.0</ele><time>2026-04-26T06:46:26Z</time></trkpt><trkpt lat="44.3298183339247" lon="9.287734767299794"><ele>157.0</ele><time>2026-04-26T06:46:27Z</time></trkpt><trkpt lat="44.3296787568999" lon="9.287810269439122"><ele>157.0</ele><time>2026-04-26T06:46:28Z</time></trkpt><trkpt lat="44.329540641491434" lon="9.28791458881697"><ele>157.66666666666669</ele><time>2026-04-26T06:46:29Z</time></trkpt><trkpt lat="44.329418458122944" lon="9.288058808031408"><ele>158.33333333333334</ele><time>2026-04-26T06:46:30Z</time></trkpt><trkpt lat="44.32930881397433" lon="9.288218592572358"><ele>159.0</ele><time>2026-04-26T06:46:31Z</time></trkpt><trkpt lat="44.3292244694966" lon="9.288395360307163"><ele>159.0</ele><time>2026-04-26T06:46:32Z</time></trkpt><trkpt lat="44.32917450340506" lon="9.288590674135294"><ele>159.0</ele><time>2026-04-26T06:46:33Z</time></trkpt><trkpt lat="44.32912285127678" lon="9.288776679463961"><ele>159.0</ele><time>2026-04-26T06:46:34Z</time></trkpt><trkpt lat="44.32903147376607" lon="9.28893132424724"><ele>159.0</ele><time>2026-04-26T06:46:35Z</time></trkpt><trkpt lat="44.32896730791311" lon="9.289102921084586"><ele>155.5</ele><time>2026-04-26T06:46:36Z</time></trkpt><trkpt lat="44.328897141845786" lon="9.289278209047724"><ele>152.0</ele><time>2026-04-26T06:46:37Z</time></trkpt><trkpt lat="44.32881866822006" lon="9.289443797131717"><ele>148.5</ele><time>2026-04-26T06:46:38Z</time></trkpt><trkpt lat="44.3287457722374" lon="9.289605784317663"><ele>145.0</ele><time>2026-04-26T06:46:39Z</time></trkpt><trkpt lat="44.32864352427584" lon="9.289720380614035"><ele>155.66666666666669</ele><time>2026-04-26T06:46:40Z</time></trkpt><trkpt lat="44.32850848451179" lon="9.28980213223094"><ele>166.33333333333334</ele><time>2026-04-26T06:46:41Z</time></trkpt><trkpt lat="44.328357907509655" lon="9.28988710456321"><ele>177.0</ele><time>2026-04-26T06:46:42Z</time></trkpt><trkpt lat="44.32822204108424" lon="9.289968849801129"><ele>177.0</ele><time>2026-04-26T06:46:43Z</time></trkpt><trkpt lat="44.32810358217919" lon="9.290044461511647"><ele>177.0</ele><time>2026-04-26T06:46:44Z</time></trkpt><trkpt lat="44.32800564620269" lon="9.290140164115726"><ele>177.0</ele><time>2026-04-26T06:46:45Z</time></trkpt><trkpt lat="44.327931773060314" lon="9.290279294695537"><ele>177.0</ele><time>2026-04-26T06:46:46Z</time></trkpt><trkpt lat="44.32788384178644" lon="9.290449121392166"><ele>172.75</ele><time>2026-04-26T06:46:47Z</time></trkpt><trkpt lat="44.32789303131132" lon="9.290637961329898"><ele>168.5</ele><time>2026-04-26T06:46:48Z</time></trkpt><trkpt lat="44.32791492495342" lon="9.290838394881593"><ele>164.25</ele><time>2026-04-26T06:46:49Z</time></trkpt><trkpt lat="44.3279292308383" lon="9.291031931836057"><ele>160.0</ele><time>2026-04-26T06:46:50Z</time></trkpt><trkpt lat="44.327938051056776" lon="9.291238048939348"><ele>161.5</ele><time>2026-04-26T06:46:51Z</time></trkpt><trkpt lat="44.327940719154796" lon="9.291425923125322"><ele>163.0</ele><time>2026-04-26T06:46:52Z</time></trkpt><trkpt lat="44.32793916398593" lon="9.291622349785884"><ele>164.5</ele><time>2026-04-26T06:46:53Z</time></trkpt><trkpt lat="44.327918922224846" lon="9.291814364549749"><ele>166.0</ele><time>2026-04-26T06:46:54Z</time></trkpt><trkpt lat="44.32788315376126" lon="9.291993608653367"><ele>166.0</ele><time>2026-04-26T06:46:55Z</time></trkpt><trkpt lat="44.32783634712651" lon="9.292174346042433"><ele>166.0</ele><time>2026-04-26T06:46:56Z</time></trkpt><trkpt lat="44.32779718648989" lon="9.29235200587226"><ele>166.0</ele><time>2026-04-26T06:46:57Z</time></trkpt><trkpt lat="44.32775824540241" lon="9.29250696386215"><ele>166.0</ele><time>2026-04-26T06:46:58Z</time></trkpt><trkpt lat="44.32771719735899" lon="9.292650673346621"><ele>168.25</ele><time>2026-04-26T06:46:59Z</time></trkpt><trkpt lat="44.3276659437478" lon="9.292785594199344"><ele>170.5</ele><time>2026-04-26T06:47:00Z</time></trkpt><trkpt lat="44.327608871672574" lon="9.292909514435982"><ele>172.75</ele><time>2026-04-26T06:47:01Z</time></trkpt><trkpt lat="44.327541045454296" lon="9.293057746721134"><ele>175.0</ele><time>2026-04-26T06:47:02Z</time></trkpt><trkpt lat="44.32747119668384" lon="9.293219711581411"><ele>178.25</ele><time>2026-04-26T06:47:03Z</time></trkpt><trkpt lat="44.327404351834666" lon="9.293382865209072"><ele>181.5</ele><time>2026-04-26T06:47:04Z</time></trkpt><trkpt lat="44.32733827326948" lon="9.293542659526242"><ele>184.75</ele><time>2026-04-26T06:47:05Z</time></trkpt><trkpt lat="44.327268336968636" lon="9.29369649281252"><ele>188.0</ele><time>2026-04-26T06:47:06Z</time></trkpt><trkpt lat="44.327196494550776" lon="9.293839702134193"><ele>181.0</ele><time>2026-04-26T06:47:07Z</time></trkpt><trkpt lat="44.32712981789738" lon="9.293979656290253"><ele>174.0</ele><time>2026-04-26T06:47:08Z</time></trkpt><trkpt lat="44.32708733001614" lon="9.294129569118464"><ele>167.0</ele><time>2026-04-26T06:47:09Z</time></trkpt><trkpt lat="44.32707929494266" lon="9.294295372910556"><ele>160.0</ele><time>2026-04-26T06:47:10Z</time></trkpt><trkpt lat="44.32711311147993" lon="9.294465468979961"><ele>160.0</ele><time>2026-04-26T06:47:11Z</time></trkpt><trkpt lat="44.327176826433984" lon="9.294626045730103"><ele>160.0</ele><time>2026-04-26T06:47:12Z</time></trkpt><trkpt lat="44.32724727390692" lon="9.294777361001284"><ele>160.0</ele><time>2026-04-26T06:47:13Z</time></trkpt><trkpt lat="44.32729810138482" lon="9.294921225205863"><ele>160.0</ele><time>2026-04-26T06:47:14Z</time></trkpt><trkpt lat="44.327278487697676" lon="9.295064271165026"><ele>162.25</ele><time>2026-04-26T06:47:15Z</time></trkpt><trkpt lat="44.32722864803651" lon="9.295203299200042"><ele>164.5</ele><time>2026-04-26T06:47:16Z</time></trkpt><trkpt lat="44.32718535513287" lon="9.295377333461866"><ele>166.75</ele><time>2026-04-26T06:47:17Z</time></trkpt><trkpt lat="44.32712948175735" lon="9.295550435882387"><ele>169.0</ele><time>2026-04-26T06:47:18Z</time></trkpt><trkpt lat="44.32708402966222" lon="9.29573494328942"><ele>169.0</ele><time>2026-04-26T06:47:19Z</time></trkpt><trkpt lat="44.32704570190062" lon="9.295922196742785"><ele>169.0</ele><time>2026-04-26T06:47:20Z</time></trkpt><trkpt lat="44.327001127322134" lon="9.296102412723402"><ele>169.0</ele><time>2026-04-26T06:47:21Z</time></trkpt><trkpt lat="44.32696197412543" lon="9.296289117802251"><ele>169.0</ele><time>2026-04-26T06:47:22Z</time></trkpt><trkpt lat="44.326928849502586" lon="9.296475250278872"><ele>171.5</ele><time>2026-04-26T06:47:23Z</time></trkpt><trkpt lat="44.32687962138703" lon="9.296670384830932"><ele>174.0</ele><time>2026-04-26T06:47:24Z</time></trkpt><trkpt lat="44.32683626724548" lon="9.296856294980806"><ele>176.5</ele><time>2026-04-26T06:47:25Z</time></trkpt><trkpt lat="44.326795745973286" lon="9.297038680221018"><ele>179.0</ele><time>2026-04-26T06:47:26Z</time></trkpt><trkpt lat="44.32675561824051" lon="9.297223221953175"><ele>180.5</ele><time>2026-04-26T06:47:27Z</time></trkpt><trkpt lat="44.32671307891154" lon="9.297393177155074"><ele>182.0</ele><time>2026-04-26T06:47:28Z</time></trkpt><trkpt lat="44.32666059509087" lon="9.297570183347291"><ele>183.5</ele><time>2026-04-26T06:47:29Z</time></trkpt><trkpt lat="44.32659339984568" lon="9.29773624527882"><ele>185.0</ele><time>2026-04-26T06:47:30Z</time></trkpt><trkpt lat="44.326509873274794" lon="9.29789537662447"><ele>185.0</ele><time>2026-04-26T06:47:31Z</time></trkpt><trkpt lat="44.32642152009993" lon="9.29804794645928"><ele>185.0</ele><time>2026-04-26T06:47:32Z</time></trkpt><trkpt lat="44.32632599346887" lon="9.298196698417529"><ele>185.0</ele><time>2026-04-26T06:47:33Z</time></trkpt><trkpt lat="44.326238656887746" lon="9.298356844531655"><ele>185.0</ele><time>2026-04-26T06:47:34Z</time></trkpt><trkpt lat="44.326167447550034" lon="9.298526847777932"><ele>181.25</ele><time>2026-04-26T06:47:35Z</time></trkpt><trkpt lat="44.326111440637355" lon="9.298708100863642"><ele>177.5</ele><time>2026-04-26T06:47:36Z</time></trkpt><trkpt lat="44.32606128526942" lon="9.298886942885876"><ele>173.75</ele><time>2026-04-26T06:47:37Z</time></trkpt><trkpt lat="44.32600949923824" lon="9.299067069407432"><ele>170.0</ele><time>2026-04-26T06:47:38Z</time></trkpt><trkpt lat="44.32596201349153" lon="9.299240214178578"><ele>170.0</ele><time>2026-04-26T06:47:39Z</time></trkpt><trkpt lat="44.32591084456172" lon="9.299413202484784"><ele>170.0</ele><time>2026-04-26T06:47:40Z</time></trkpt><trkpt lat="44.325868446386735" lon="9.299584495514639"><ele>170.0</ele><time>2026-04-26T06:47:41Z</time></trkpt><trkpt lat="44.325826019044484" lon="9.299761419058704"><ele>170.0</ele><time>2026-04-26T06:47:42Z</time></trkpt><trkpt lat="44.32578338527254" lon="9.299938548556288"><ele>171.0</ele><time>2026-04-26T06:47:43Z</time></trkpt><trkpt lat="44.325738586756756" lon="9.300123181028804"><ele>172.0</ele><time>2026-04-26T06:47:44Z</time></trkpt><trkpt lat="44.325696030103586" lon="9.300305168093606"><ele>173.0</ele><time>2026-04-26T06:47:45Z</time></trkpt><trkpt lat="44.325614559685015" lon="9.300458409053267"><ele>174.0</ele><time>2026-04-26T06:47:46Z</time></trkpt><trkpt lat="44.325558495171755" lon="9.300645531066438"><ele>174.0</ele><time>2026-04-26T06:47:47Z</time></trkpt><trkpt lat="44.32550573709532" lon="9.300831843136388"><ele>174.0</ele><time>2026-04-26T06:47:48Z</time></trkpt><trkpt lat="44.32545616741317" lon="9.301021774793309"><ele>174.0</ele><time>2026-04-26T06:47:49.024Z</time></trkpt><trkpt lat="44.3254090791569" lon="9.301203048492372"><ele>174.0</ele><time>2026-04-26T06:47:50.021Z</time></trkpt><trkpt lat="44.32535770015097" lon="9.301375273648771"><ele>180.0</ele><time>2026-04-26T06:47:51.02Z</time></trkpt><trkpt lat="44.32508106813238" lon="9.302535289907178"><ele>180.0</ele><time>2026-04-26T06:47:56Z</time></trkpt><trkpt lat="44.32502880140625" lon="9.302738778379277"><ele>180.0</ele><time>2026-04-26T06:47:57Z</time></trkpt><trkpt lat="44.32500141926359" lon="9.302967405165065"><ele>180.0</ele><time>2026-04-26T06:47:58Z</time></trkpt><trkpt lat="44.324985875390745" lon="9.303167591345522"><ele>176.0</ele><time>2026-04-26T06:47:59Z</time></trkpt><trkpt lat="44.3250427313051" lon="9.303382238774104"><ele>172.0</ele><time>2026-04-26T06:48:00Z</time></trkpt><trkpt lat="44.32503837733336" lon="9.303583479038057"><ele>168.0</ele><time>2026-04-26T06:48:01Z</time></trkpt><trkpt lat="44.32502162851971" lon="9.3037661905459"><ele>164.0</ele><time>2026-04-26T06:48:02Z</time></trkpt><trkpt lat="44.32498943908394" lon="9.303959804047654"><ele>162.75</ele><time>2026-04-26T06:48:03Z</time></trkpt><trkpt lat="44.32494604432232" lon="9.304155362270924"><ele>161.5</ele><time>2026-04-26T06:48:04Z</time></trkpt><trkpt lat="44.32489496174039" lon="9.304341258324982"><ele>160.25</ele><time>2026-04-26T06:48:05Z</time></trkpt><trkpt lat="44.32483285127653" lon="9.30453744787794"><ele>159.0</ele><time>2026-04-26T06:48:06Z</time></trkpt><trkpt lat="44.32476254398809" lon="9.304729406965198"><ele>143.66666666666666</ele><time>2026-04-26T06:48:07Z</time></trkpt><trkpt lat="44.32470297070435" lon="9.30492615964942"><ele>128.33333333333331</ele><time>2026-04-26T06:48:08Z</time></trkpt><trkpt lat="44.3246428456874" lon="9.305122066053963"><ele>113.0</ele><time>2026-04-26T06:48:09Z</time></trkpt><trkpt lat="44.32459646663937" lon="9.305315269042795"><ele>113.0</ele><time>2026-04-26T06:48:10Z</time></trkpt><trkpt lat="44.324544450131164" lon="9.305506391797442"><ele>113.0</ele><time>2026-04-26T06:48:11Z</time></trkpt><trkpt lat="44.3245097817245" lon="9.305702901505429"><ele>113.0</ele><time>2026-04-26T06:48:12Z</time></trkpt><trkpt lat="44.32448052586756" lon="9.305906120987578"><ele>113.0</ele><time>2026-04-26T06:48:13Z</time></trkpt><trkpt lat="44.32444880094932" lon="9.306106848527453"><ele>114.5</ele><time>2026-04-26T06:48:14Z</time></trkpt><trkpt lat="44.32442416910608" lon="9.306313448290851"><ele>116.0</ele><time>2026-04-26T06:48:15Z</time></trkpt><trkpt lat="44.3244172423395" lon="9.30651817934916"><ele>117.5</ele><time>2026-04-26T06:48:16Z</time></trkpt><trkpt lat="44.32441704198248" lon="9.306725564203006"><ele>119.0</ele><time>2026-04-26T06:48:17Z</time></trkpt><trkpt lat="44.32441261296475" lon="9.30692698631382"><ele>119.5</ele><time>2026-04-26T06:48:18Z</time></trkpt><trkpt lat="44.32438649107905" lon="9.307120280729198"><ele>120.0</ele><time>2026-04-26T06:48:19Z</time></trkpt><trkpt lat="44.324340119925225" lon="9.307313443909408"><ele>120.5</ele><time>2026-04-26T06:48:20Z</time></trkpt><trkpt lat="44.324276923187156" lon="9.307496786932903"><ele>121.0</ele><time>2026-04-26T06:48:21Z</time></trkpt><trkpt lat="44.32420284727184" lon="9.307679215357068"><ele>122.5</ele><time>2026-04-26T06:48:22Z</time></trkpt><trkpt lat="44.324123698595564" lon="9.307855183720621"><ele>124.0</ele><time>2026-04-26T06:48:23Z</time></trkpt><trkpt lat="44.324041475578404" lon="9.308023422815067"><ele>125.5</ele><time>2026-04-26T06:48:24Z</time></trkpt><trkpt lat="44.32395057515033" lon="9.308175100870297"><ele>127.0</ele><time>2026-04-26T06:48:25Z</time></trkpt><trkpt lat="44.3238422389454" lon="9.308319107658422"><ele>122.0</ele><time>2026-04-26T06:48:26Z</time></trkpt><trkpt lat="44.323739646716625" lon="9.308453379993328"><ele>117.0</ele><time>2026-04-26T06:48:27Z</time></trkpt><trkpt lat="44.32365441619922" lon="9.30860019746681"><ele>112.0</ele><time>2026-04-26T06:48:28Z</time></trkpt><trkpt lat="44.32359770281237" lon="9.30876588486071"><ele>107.0</ele><time>2026-04-26T06:48:29Z</time></trkpt><trkpt lat="44.32356560026596" lon="9.308945074187255"><ele>107.0</ele><time>2026-04-26T06:48:30.001Z</time></trkpt><trkpt lat="44.32354362335364" lon="9.30912703082702"><ele>107.0</ele><time>2026-04-26T06:48:31.001Z</time></trkpt><trkpt lat="44.323529015517536" lon="9.309303781605303"><ele>107.0</ele><time>2026-04-26T06:48:32.001Z</time></trkpt><trkpt lat="44.32350963776143" lon="9.30947564412005"><ele>107.0</ele><time>2026-04-26T06:48:33.001Z</time></trkpt><trkpt lat="44.32349014157356" lon="9.309645168235438"><ele>107.75</ele><time>2026-04-26T06:48:34.001Z</time></trkpt><trkpt lat="44.3234643269035" lon="9.309820102571354"><ele>108.5</ele><time>2026-04-26T06:48:35.001Z</time></trkpt><trkpt lat="44.3234241484359" lon="9.309982725679799"><ele>109.25</ele><time>2026-04-26T06:48:36.001Z</time></trkpt><trkpt lat="44.3233658958351" lon="9.310132963237695"><ele>110.0</ele><time>2026-04-26T06:48:37.001Z</time></trkpt><trkpt lat="44.32330285157531" lon="9.310275803676863"><ele>110.0</ele><time>2026-04-26T06:48:38Z</time></trkpt><trkpt lat="44.32324483593992" lon="9.31042853280552"><ele>110.0</ele><time>2026-04-26T06:48:39Z</time></trkpt><trkpt lat="44.32320287295978" lon="9.310605768430536"><ele>110.0</ele><time>2026-04-26T06:48:40Z</time></trkpt><trkpt lat="44.323177995558545" lon="9.310796107099831"><ele>110.0</ele><time>2026-04-26T06:48:41Z</time></trkpt><trkpt lat="44.32316265383984" lon="9.310989351831791"><ele>112.0</ele><time>2026-04-26T06:48:42Z</time></trkpt><trkpt lat="44.323150625179366" lon="9.311193834837502"><ele>114.0</ele><time>2026-04-26T06:48:43Z</time></trkpt><trkpt lat="44.323136663494516" lon="9.311402601594953"><ele>116.0</ele><time>2026-04-26T06:48:44Z</time></trkpt><trkpt lat="44.32312342296449" lon="9.311609778182575"><ele>118.0</ele><time>2026-04-26T06:48:45Z</time></trkpt><trkpt lat="44.32310681872605" lon="9.31181358031873"><ele>119.25</ele><time>2026-04-26T06:48:46Z</time></trkpt><trkpt lat="44.323091164064856" lon="9.312013182753752"><ele>120.5</ele><time>2026-04-26T06:48:47Z</time></trkpt><trkpt lat="44.32307351662588" lon="9.312216574917237"><ele>121.75</ele><time>2026-04-26T06:48:48Z</time></trkpt><trkpt lat="44.32305709648138" lon="9.312420833828154"><ele>123.0</ele><time>2026-04-26T06:48:49Z</time></trkpt><trkpt lat="44.32304019385759" lon="9.312617326624475"><ele>110.5</ele><time>2026-04-26T06:48:50Z</time></trkpt><trkpt lat="44.32302874671326" lon="9.31281564376924"><ele>98.0</ele><time>2026-04-26T06:48:51Z</time></trkpt><trkpt lat="44.323013143755645" lon="9.313012126912154"><ele>85.5</ele><time>2026-04-26T06:48:52Z</time></trkpt><trkpt lat="44.322999121852405" lon="9.313207942490164"><ele>73.0</ele><time>2026-04-26T06:48:53Z</time></trkpt><trkpt lat="44.32299723768228" lon="9.313403729719322"><ele>72.75</ele><time>2026-04-26T06:48:54Z</time></trkpt><trkpt lat="44.32300617383103" lon="9.313603941448724"><ele>72.5</ele><time>2026-04-26T06:48:55Z</time></trkpt><trkpt lat="44.32302774530947" lon="9.313802008419238"><ele>72.25</ele><time>2026-04-26T06:48:56Z</time></trkpt><trkpt lat="44.323046633050026" lon="9.3139995480192"><ele>72.0</ele><time>2026-04-26T06:48:57Z</time></trkpt><trkpt lat="44.323063866216145" lon="9.31420062506963"><ele>76.75</ele><time>2026-04-26T06:48:58Z</time></trkpt><trkpt lat="44.323078233165155" lon="9.314397833465742"><ele>81.5</ele><time>2026-04-26T06:48:59Z</time></trkpt><trkpt lat="44.32309518602018" lon="9.314598061222487"><ele>86.25</ele><time>2026-04-26T06:49:00Z</time></trkpt><trkpt lat="44.32311103367113" lon="9.314795662284254"><ele>91.0</ele><time>2026-04-26T06:49:01Z</time></trkpt><trkpt lat="44.32312069068779" lon="9.314986180730415"><ele>91.0</ele><time>2026-04-26T06:49:02Z</time></trkpt><trkpt lat="44.32313044071547" lon="9.31517241260421"><ele>91.0</ele><time>2026-04-26T06:49:03Z</time></trkpt><trkpt lat="44.32313618667718" lon="9.315357722534426"><ele>91.0</ele><time>2026-04-26T06:49:04Z</time></trkpt><trkpt lat="44.32313575627319" lon="9.315539366848663"><ele>91.0</ele><time>2026-04-26T06:49:05Z</time></trkpt><trkpt lat="44.323132683132826" lon="9.315718881424475"><ele>89.0</ele><time>2026-04-26T06:49:06Z</time></trkpt><trkpt lat="44.32313010721627" lon="9.315893012024972"><ele>87.0</ele><time>2026-04-26T06:49:07Z</time></trkpt><trkpt lat="44.32312691882999" lon="9.31606386353371"><ele>85.0</ele><time>2026-04-26T06:49:08Z</time></trkpt><trkpt lat="44.32312406679238" lon="9.316234797998934"><ele>83.0</ele><time>2026-04-26T06:49:09Z</time></trkpt><trkpt lat="44.32312238406345" lon="9.316398909816213"><ele>80.80000000000001</ele><time>2026-04-26T06:49:10Z</time></trkpt><trkpt lat="44.32311953145375" lon="9.316560855810918"><ele>78.60000000000001</ele><time>2026-04-26T06:49:11Z</time></trkpt><trkpt lat="44.3231188743687" lon="9.316720754622624"><ele>76.4</ele><time>2026-04-26T06:49:12Z</time></trkpt><trkpt lat="44.32311887034812" lon="9.316853927706457"><ele>74.2</ele><time>2026-04-26T06:49:13Z</time></trkpt><trkpt lat="44.32313042982532" lon="9.316946878609214"><ele>72.0</ele><time>2026-04-26T06:49:14Z</time></trkpt><trkpt lat="44.323154086931225" lon="9.317029926045363"><ele>72.0</ele><time>2026-04-26T06:49:16Z</time></trkpt><trkpt lat="44.32319409048782" lon="9.317151225137895"><ele>72.0</ele><time>2026-04-26T06:49:28Z</time></trkpt><trkpt lat="44.32324124275187" lon="9.317258009981876"><ele>72.0</ele><time>2026-04-26T06:49:29Z</time></trkpt><trkpt lat="44.323291141444194" lon="9.317371079235752"><ele>72.0</ele><time>2026-04-26T06:49:30Z</time></trkpt><trkpt lat="44.323326135045804" lon="9.317497250024571"><ele>72.0</ele><time>2026-04-26T06:49:31Z</time></trkpt><trkpt lat="44.323343588151836" lon="9.317628803029677"><ele>69.75</ele><time>2026-04-26T06:49:32Z</time></trkpt><trkpt lat="44.32332614449957" lon="9.317779627570644"><ele>67.5</ele><time>2026-04-26T06:49:33Z</time></trkpt><trkpt lat="44.323288260767285" lon="9.31793011026369"><ele>65.25</ele><time>2026-04-26T06:49:34Z</time></trkpt><trkpt lat="44.323233593935335" lon="9.318068435452878"><ele>63.0</ele><time>2026-04-26T06:49:35Z</time></trkpt><trkpt lat="44.323162380468155" lon="9.318203122420833"><ele>61.2</ele><time>2026-04-26T06:49:36Z</time></trkpt><trkpt lat="44.32308795045268" lon="9.318325885175643"><ele>59.4</ele><time>2026-04-26T06:49:37Z</time></trkpt><trkpt lat="44.32302300573581" lon="9.318453093896451"><ele>57.60000000000001</ele><time>2026-04-26T06:49:38Z</time></trkpt><trkpt lat="44.322967575880696" lon="9.318587596852572"><ele>55.800000000000004</ele><time>2026-04-26T06:49:39Z</time></trkpt><trkpt lat="44.32292215282163" lon="9.318695517270845"><ele>54.0</ele><time>2026-04-26T06:49:40Z</time></trkpt><trkpt lat="44.322867975682215" lon="9.318779234503422"><ele>53.800000000000004</ele><time>2026-04-26T06:49:41Z</time></trkpt><trkpt lat="44.32279664007261" lon="9.318821200621558"><ele>53.60000000000001</ele><time>2026-04-26T06:49:42Z</time></trkpt><trkpt lat="44.32271729246521" lon="9.31880069610378"><ele>53.4</ele><time>2026-04-26T06:49:43Z</time></trkpt><trkpt lat="44.322654113619414" lon="9.318714428126183"><ele>53.2</ele><time>2026-04-26T06:49:44Z</time></trkpt><trkpt lat="44.32266000392419" lon="9.318576174453675"><ele>53.0</ele><time>2026-04-26T06:49:45Z</time></trkpt><trkpt lat="44.322640876795596" lon="9.31842594826647"><ele>53.0</ele><time>2026-04-26T06:49:46Z</time></trkpt><trkpt lat="44.32261641945565" lon="9.318269915228353"><ele>53.0</ele><time>2026-04-26T06:49:47Z</time></trkpt><trkpt lat="44.32258783051598" lon="9.31809635255264"><ele>53.0</ele><time>2026-04-26T06:49:48Z</time></trkpt><trkpt lat="44.32256108084855" lon="9.317936754153424"><ele>53.0</ele><time>2026-04-26T06:49:49Z</time></trkpt><trkpt lat="44.322537283150666" lon="9.317776524217605"><ele>52.5</ele><time>2026-04-26T06:49:50Z</time></trkpt><trkpt lat="44.32251314050327" lon="9.317621219902332"><ele>52.0</ele><time>2026-04-26T06:49:51Z</time></trkpt><trkpt lat="44.32249001735992" lon="9.317459767024685"><ele>51.5</ele><time>2026-04-26T06:49:52Z</time></trkpt><trkpt lat="44.32246877938766" lon="9.317301471772543"><ele>51.0</ele><time>2026-04-26T06:49:53Z</time></trkpt><trkpt lat="44.32244332717142" lon="9.31714871840181"><ele>51.0</ele><time>2026-04-26T06:49:54Z</time></trkpt><trkpt lat="44.32241656141617" lon="9.31699502145835"><ele>51.0</ele><time>2026-04-26T06:49:55Z</time></trkpt><trkpt lat="44.3223932789823" lon="9.316852893189507"><ele>51.0</ele><time>2026-04-26T06:49:56Z</time></trkpt><trkpt lat="44.32237372939289" lon="9.316712970877724"><ele>51.0</ele><time>2026-04-26T06:49:57Z</time></trkpt><trkpt lat="44.32235263740537" lon="9.316584069215484"><ele>51.0</ele><time>2026-04-26T06:49:58Z</time></trkpt><trkpt lat="44.32233863857078" lon="9.316463167926834"><ele>51.0</ele><time>2026-04-26T06:49:59Z</time></trkpt><trkpt lat="44.3223239132566" lon="9.316368519533723"><ele>51.0</ele><time>2026-04-26T06:50:00Z</time></trkpt><trkpt lat="44.322295961278805" lon="9.316259629048902"><ele>51.0</ele><time>2026-04-26T06:50:02Z</time></trkpt><trkpt lat="44.32223157561783" lon="9.31637413355049"><ele>51.0</ele><time>2026-04-26T06:50:06Z</time></trkpt><trkpt lat="44.322258842561574" lon="9.316541791462942"><ele>51.0</ele><time>2026-04-26T06:50:08Z</time></trkpt><trkpt lat="44.32226681429772" lon="9.316654158121267"><ele>51.0</ele><time>2026-04-26T06:50:09Z</time></trkpt><trkpt lat="44.322257400828406" lon="9.316787173775609"><ele>51.0</ele><time>2026-04-26T06:50:10Z</time></trkpt><trkpt lat="44.322237523475664" lon="9.316917456681734"><ele>51.0</ele><time>2026-04-26T06:50:11Z</time></trkpt><trkpt lat="44.32220713614234" lon="9.317050719947199"><ele>51.0</ele><time>2026-04-26T06:50:12Z</time></trkpt><trkpt lat="44.32216952172584" lon="9.317177747845262"><ele>51.0</ele><time>2026-04-26T06:50:13Z</time></trkpt><trkpt lat="44.32213639125272" lon="9.317304189055925"><ele>47.8</ele><time>2026-04-26T06:50:14Z</time></trkpt><trkpt lat="44.322104655350145" lon="9.317432245432427"><ele>44.599999999999994</ele><time>2026-04-26T06:50:15Z</time></trkpt><trkpt lat="44.32207332526025" lon="9.317557397470848"><ele>41.4</ele><time>2026-04-26T06:50:16Z</time></trkpt><trkpt lat="44.32204613478168" lon="9.3176744188464"><ele>38.2</ele><time>2026-04-26T06:50:17Z</time></trkpt><trkpt lat="44.322013128653" lon="9.317804840966721"><ele>35.0</ele><time>2026-04-26T06:50:18Z</time></trkpt><trkpt lat="44.321984777531824" lon="9.317929175534362"><ele>35.0</ele><time>2026-04-26T06:50:19Z</time></trkpt><trkpt lat="44.32196098826795" lon="9.318062754774843"><ele>35.0</ele><time>2026-04-26T06:50:20Z</time></trkpt><trkpt lat="44.32193228668334" lon="9.318187518631692"><ele>35.0</ele><time>2026-04-26T06:50:21Z</time></trkpt><trkpt lat="44.321903989392275" lon="9.318296683821677"><ele>35.0</ele><time>2026-04-26T06:50:22Z</time></trkpt><trkpt lat="44.32188587893436" lon="9.318410168688825"><ele>35.0</ele><time>2026-04-26T06:50:23Z</time></trkpt><trkpt lat="44.3218645795649" lon="9.31849779472196"><ele>35.0</ele><time>2026-04-26T06:50:24Z</time></trkpt><trkpt lat="44.32183013290898" lon="9.318643858128198"><ele>34.83333333333333</ele><time>2026-04-26T06:50:26Z</time></trkpt><trkpt lat="44.321783519755535" lon="9.318709294073566"><ele>34.666666666666664</ele><time>2026-04-26T06:50:28Z</time></trkpt><trkpt lat="44.32168928872608" lon="9.31866832068915"><ele>34.5</ele><time>2026-04-26T06:50:30Z</time></trkpt><trkpt lat="44.321630161327064" lon="9.318619970837755"><ele>34.333333333333336</ele><time>2026-04-26T06:50:31Z</time></trkpt><trkpt lat="44.321558746215146" lon="9.31857592995385"><ele>34.16666666666667</ele><time>2026-04-26T06:50:32Z</time></trkpt><trkpt lat="44.321484891275894" lon="9.31855050191279"><ele>34.0</ele><time>2026-04-26T06:50:33Z</time></trkpt><trkpt lat="44.32140634374561" lon="9.318506873949422"><ele>30.8</ele><time>2026-04-26T06:50:34Z</time></trkpt><trkpt lat="44.321327023492934" lon="9.318456323434985"><ele>27.599999999999998</ele><time>2026-04-26T06:50:35Z</time></trkpt><trkpt lat="44.32124558343387" lon="9.318408589871781"><ele>24.4</ele><time>2026-04-26T06:50:36Z</time></trkpt><trkpt lat="44.32115696682732" lon="9.31836880894297"><ele>21.2</ele><time>2026-04-26T06:50:37Z</time></trkpt><trkpt lat="44.32107619990526" lon="9.318326897169888"><ele>18.0</ele><time>2026-04-26T06:50:38Z</time></trkpt><trkpt lat="44.32098332839436" lon="9.318275953168197"><ele>18.0</ele><time>2026-04-26T06:50:39Z</time></trkpt><trkpt lat="44.32090067278032" lon="9.318221025018746"><ele>18.0</ele><time>2026-04-26T06:50:40Z</time></trkpt><trkpt lat="44.32081404766587" lon="9.31817559100602"><ele>18.0</ele><time>2026-04-26T06:50:41Z</time></trkpt><trkpt lat="44.320715565593424" lon="9.31813562353504"><ele>18.0</ele><time>2026-04-26T06:50:42Z</time></trkpt><trkpt lat="44.32063063101754" lon="9.318049882992058"><ele>18.0</ele><time>2026-04-26T06:50:43Z</time></trkpt><trkpt lat="44.32055236902259" lon="9.31796969545721"><ele>17.0</ele><time>2026-04-26T06:50:44Z</time></trkpt><trkpt lat="44.32050263161044" lon="9.317899821129474"><ele>16.0</ele><time>2026-04-26T06:50:45Z</time></trkpt><trkpt lat="44.32045959880998" lon="9.317833882899606"><ele>15.0</ele><time>2026-04-26T06:50:46Z</time></trkpt><trkpt lat="44.320383724611624" lon="9.317746117456265"><ele>14.0</ele><time>2026-04-26T06:50:48Z</time></trkpt><trkpt lat="44.32031716784048" lon="9.317692757542916"><ele>13.0</ele><time>2026-04-26T06:50:51Z</time></trkpt><trkpt lat="44.32025695682939" lon="9.317601112564251"><ele>12.0</ele><time>2026-04-26T06:50:53Z</time></trkpt><trkpt lat="44.32023871776728" lon="9.31742139045055"><ele>12.0</ele><time>2026-04-26T06:50:55Z</time></trkpt><trkpt lat="44.3201354952776" lon="9.317432046095371"><ele>12.0</ele><time>2026-04-26T06:50:57Z</time></trkpt><trkpt lat="44.32010744508217" lon="9.317512001704888"><ele>12.0</ele><time>2026-04-26T06:50:58Z</time></trkpt><trkpt lat="44.32012924548205" lon="9.317599403926287"><ele>12.0</ele><time>2026-04-26T06:50:59Z</time></trkpt><trkpt lat="44.32018971760804" lon="9.317661417976264"><ele>12.0</ele><time>2026-04-26T06:51:00Z</time></trkpt><trkpt lat="44.32026191694074" lon="9.317697797945243"><ele>12.0</ele><time>2026-04-26T06:51:01Z</time></trkpt><trkpt lat="44.32028733033994" lon="9.317809487349843"><ele>12.0</ele><time>2026-04-26T06:51:02Z</time></trkpt><trkpt lat="44.32028560158966" lon="9.317927818400712"><ele>12.0</ele><time>2026-04-26T06:51:03Z</time></trkpt><trkpt lat="44.3203022875111" lon="9.318054921482142"><ele>12.0</ele><time>2026-04-26T06:51:04Z</time></trkpt><trkpt lat="44.32030031851528" lon="9.318187598446155"><ele>12.0</ele><time>2026-04-26T06:51:05Z</time></trkpt><trkpt lat="44.32028838624967" lon="9.31831520359229"><ele>12.0</ele><time>2026-04-26T06:51:06Z</time></trkpt><trkpt lat="44.32025005188791" lon="9.31843166539828"><ele>11.833333333333334</ele><time>2026-04-26T06:51:07Z</time></trkpt><trkpt lat="44.32020068792157" lon="9.318540568776399"><ele>11.666666666666666</ele><time>2026-04-26T06:51:08Z</time></trkpt><trkpt lat="44.32015495876685" lon="9.318653049329876"><ele>11.5</ele><time>2026-04-26T06:51:09Z</time></trkpt><trkpt lat="44.32010671634313" lon="9.318747654298324"><ele>11.333333333333332</ele><time>2026-04-26T06:51:10Z</time></trkpt><trkpt lat="44.32006042844368" lon="9.31885067632294"><ele>11.166666666666666</ele><time>2026-04-26T06:51:11Z</time></trkpt><trkpt lat="44.320010941307224" lon="9.31895514738197"><ele>11.0</ele><time>2026-04-26T06:51:12Z</time></trkpt><trkpt lat="44.3199653727863" lon="9.31905169882639"><ele>11.0</ele><time>2026-04-26T06:51:13Z</time></trkpt><trkpt lat="44.3199279671979" lon="9.319139259052262"><ele>11.0</ele><time>2026-04-26T06:51:14Z</time></trkpt><trkpt lat="44.319894731585514" lon="9.319215205479315"><ele>11.0</ele><time>2026-04-26T06:51:15Z</time></trkpt><trkpt lat="44.31984140974194" lon="9.31930439582506"><ele>11.0</ele><time>2026-04-26T06:51:17Z</time></trkpt><trkpt lat="44.319878102703505" lon="9.319383487546892"><ele>11.0</ele><time>2026-04-26T06:52:25Z</time></trkpt><trkpt lat="44.31981449892219" lon="9.319492496495764"><ele>11.0</ele><time>2026-04-26T06:52:27Z</time></trkpt><trkpt lat="44.319735223676254" lon="9.319505740131843"><ele>10.666666666666666</ele><time>2026-04-26T06:52:29Z</time></trkpt><trkpt lat="44.31964735858801" lon="9.319443322054216"><ele>10.333333333333332</ele><time>2026-04-26T06:52:30Z</time></trkpt><trkpt lat="44.31957689086642" lon="9.319373985984669"><ele>10.0</ele><time>2026-04-26T06:52:31Z</time></trkpt><trkpt lat="44.31951306175765" lon="9.319340724210988"><ele>9.666666666666666</ele><time>2026-04-26T06:52:32Z</time></trkpt><trkpt lat="44.31943591163338" lon="9.319276249196209"><ele>9.333333333333334</ele><time>2026-04-26T06:52:33Z</time></trkpt><trkpt lat="44.3193608332543" lon="9.31918875047424"><ele>9.0</ele><time>2026-04-26T06:52:34Z</time></trkpt><trkpt lat="44.31928541014702" lon="9.319128926290773"><ele>9.0</ele><time>2026-04-26T06:52:35Z</time></trkpt><trkpt lat="44.319206318347156" lon="9.31906953815644"><ele>9.0</ele><time>2026-04-26T06:52:36Z</time></trkpt><trkpt lat="44.3191242887236" lon="9.319007668237049"><ele>9.0</ele><time>2026-04-26T06:52:37Z</time></trkpt><trkpt lat="44.31903804640234" lon="9.31893715837238"><ele>9.0</ele><time>2026-04-26T06:52:38Z</time></trkpt><trkpt lat="44.31894632797468" lon="9.31887254795167"><ele>9.0</ele><time>2026-04-26T06:52:39Z</time></trkpt><trkpt lat="44.318860117623366" lon="9.318789574839643"><ele>8.5</ele><time>2026-04-26T06:52:40Z</time></trkpt><trkpt lat="44.3187821633599" lon="9.318722893656593"><ele>8.0</ele><time>2026-04-26T06:52:41Z</time></trkpt><trkpt lat="44.31870941660413" lon="9.318672086303536"><ele>7.5</ele><time>2026-04-26T06:52:41.999Z</time></trkpt><trkpt lat="44.3186443999258" lon="9.318629438044"><ele>7.0</ele><time>2026-04-26T06:52:42.999Z</time></trkpt><trkpt lat="44.318554516750794" lon="9.318550220408847"><ele>6.5</ele><time>2026-04-26T06:52:44.999Z</time></trkpt><trkpt lat="44.31848796094724" lon="9.318511182517929"><ele>6.0</ele><time>2026-04-26T06:52:46.999Z</time></trkpt><trkpt lat="44.31841829482396" lon="9.318678159559013"><ele>6.0</ele><time>2026-04-26T06:52:48.999Z</time></trkpt><trkpt lat="44.31837634345654" lon="9.31876428090624"><ele>6.0</ele><time>2026-04-26T06:52:49.999Z</time></trkpt><trkpt lat="44.31833472143635" lon="9.31885841855047"><ele>6.0</ele><time>2026-04-26T06:52:50.999Z</time></trkpt><trkpt lat="44.31829066305488" lon="9.318958066115774"><ele>6.0</ele><time>2026-04-26T06:52:51.999Z</time></trkpt><trkpt lat="44.318253190694165" lon="9.31906387279163"><ele>6.0</ele><time>2026-04-26T06:52:52.999Z</time></trkpt><trkpt lat="44.31821075934557" lon="9.319172248141424"><ele>6.0</ele><time>2026-04-26T06:52:53.999Z</time></trkpt><trkpt lat="44.31816503469593" lon="9.31927678996409"><ele>6.0</ele><time>2026-04-26T06:52:54.999Z</time></trkpt><trkpt lat="44.318115375301325" lon="9.319386270768955"><ele>6.0</ele><time>2026-04-26T06:52:55.999Z</time></trkpt><trkpt lat="44.31806670191215" lon="9.31949635507363"><ele>6.0</ele><time>2026-04-26T06:52:56.999Z</time></trkpt><trkpt lat="44.31801504888586" lon="9.319615913461305"><ele>6.0</ele><time>2026-04-26T06:52:57.999Z</time></trkpt><trkpt lat="44.31795651091559" lon="9.319727222259605"><ele>6.0</ele><time>2026-04-26T06:52:58.999Z</time></trkpt><trkpt lat="44.31790901436801" lon="9.319832003451742"><ele>6.0</ele><time>2026-04-26T06:52:59.999Z</time></trkpt><trkpt lat="44.317862310982434" lon="9.319953730531802"><ele>6.0</ele><time>2026-04-26T06:53:00.999Z</time></trkpt><trkpt lat="44.31781649578052" lon="9.320066730386383"><ele>6.0</ele><time>2026-04-26T06:53:01.999Z</time></trkpt><trkpt lat="44.31776480597959" lon="9.320183275855749"><ele>6.0</ele><time>2026-04-26T06:53:02.999Z</time></trkpt><trkpt lat="44.31770356995409" lon="9.32028007343929"><ele>6.0</ele><time>2026-04-26T06:53:03.999Z</time></trkpt><trkpt lat="44.3176590721503" lon="9.320382679183567"><ele>6.0</ele><time>2026-04-26T06:53:04.999Z</time></trkpt><trkpt lat="44.31760838426586" lon="9.320522140398632"><ele>6.0</ele><time>2026-04-26T06:53:07Z</time></trkpt><trkpt lat="44.31755445040016" lon="9.320616416554287"><ele>6.0</ele><time>2026-04-26T06:53:09Z</time></trkpt><trkpt lat="44.31750674491614" lon="9.320754830646631"><ele>6.0</ele><time>2026-04-26T06:53:12Z</time></trkpt><trkpt lat="44.317469899375325" lon="9.32085105635233"><ele>6.0</ele><time>2026-04-26T06:53:13Z</time></trkpt><trkpt lat="44.317428929703915" lon="9.320955796771948"><ele>6.199999999999999</ele><time>2026-04-26T06:53:14Z</time></trkpt><trkpt lat="44.31738047544831" lon="9.321068882626415"><ele>6.3999999999999995</ele><time>2026-04-26T06:53:15Z</time></trkpt><trkpt lat="44.31733198871544" lon="9.32117591582643"><ele>6.6</ele><time>2026-04-26T06:53:16Z</time></trkpt><trkpt lat="44.31728386302414" lon="9.32128489748919"><ele>6.8</ele><time>2026-04-26T06:53:17Z</time></trkpt><trkpt lat="44.31723513383381" lon="9.321396688517785"><ele>7.0</ele><time>2026-04-26T06:53:18Z</time></trkpt><trkpt lat="44.31719336107584" lon="9.321504535504625"><ele>7.6</ele><time>2026-04-26T06:53:19Z</time></trkpt><trkpt lat="44.3171467059417" lon="9.32161318522431"><ele>8.2</ele><time>2026-04-26T06:53:20Z</time></trkpt><trkpt lat="44.31710018248289" lon="9.32172396546294"><ele>8.8</ele><time>2026-04-26T06:53:21Z</time></trkpt><trkpt lat="44.317051913777355" lon="9.321837536377442"><ele>9.4</ele><time>2026-04-26T06:53:22Z</time></trkpt><trkpt lat="44.31700520071697" lon="9.321946554700578"><ele>10.0</ele><time>2026-04-26T06:53:23Z</time></trkpt><trkpt lat="44.31695793110849" lon="9.322051980515782"><ele>10.0</ele><time>2026-04-26T06:53:24Z</time></trkpt><trkpt lat="44.31690843457528" lon="9.32216240827353"><ele>10.0</ele><time>2026-04-26T06:53:25Z</time></trkpt><trkpt lat="44.316865750646116" lon="9.322274850829409"><ele>10.0</ele><time>2026-04-26T06:53:26Z</time></trkpt><trkpt lat="44.316820456161736" lon="9.322390852236751"><ele>10.0</ele><time>2026-04-26T06:53:27Z</time></trkpt><trkpt lat="44.316775782542905" lon="9.322497933744078"><ele>10.0</ele><time>2026-04-26T06:53:28Z</time></trkpt><trkpt lat="44.31673380749502" lon="9.32259664601852"><ele>9.714285714285714</ele><time>2026-04-26T06:53:29Z</time></trkpt><trkpt lat="44.31669462212109" lon="9.322692455977878"><ele>9.428571428571429</ele><time>2026-04-26T06:53:30Z</time></trkpt><trkpt lat="44.316653883587065" lon="9.32278689277733"><ele>9.142857142857142</ele><time>2026-04-26T06:53:31Z</time></trkpt><trkpt lat="44.31661416182487" lon="9.322868519563988"><ele>8.857142857142858</ele><time>2026-04-26T06:53:32Z</time></trkpt><trkpt lat="44.31657477959312" lon="9.32294902623547"><ele>8.571428571428571</ele><time>2026-04-26T06:53:33Z</time></trkpt><trkpt lat="44.31653930980905" lon="9.323039923543115"><ele>8.285714285714285</ele><time>2026-04-26T06:53:34Z</time></trkpt><trkpt lat="44.31652081393825" lon="9.323136846136851"><ele>8.0</ele><time>2026-04-26T06:53:35Z</time></trkpt><trkpt lat="44.316509621226" lon="9.323242985245605"><ele>7.666666666666666</ele><time>2026-04-26T06:53:36Z</time></trkpt><trkpt lat="44.31649649950536" lon="9.323348019520221"><ele>7.333333333333333</ele><time>2026-04-26T06:53:37Z</time></trkpt><trkpt lat="44.31648808409223" lon="9.32345206152662"><ele>7.0</ele><time>2026-04-26T06:53:38Z</time></trkpt><trkpt lat="44.31647726979325" lon="9.323559174818447"><ele>6.666666666666666</ele><time>2026-04-26T06:53:39Z</time></trkpt><trkpt lat="44.316473387283864" lon="9.323667481516981"><ele>6.333333333333333</ele><time>2026-04-26T06:53:40Z</time></trkpt><trkpt lat="44.316471674421074" lon="9.323781695582642"><ele>6.0</ele><time>2026-04-26T06:53:41Z</time></trkpt><trkpt lat="44.316476670081535" lon="9.323894323184845"><ele>6.4</ele><time>2026-04-26T06:53:42Z</time></trkpt><trkpt lat="44.31648605341899" lon="9.32400059676337"><ele>6.8</ele><time>2026-04-26T06:53:43Z</time></trkpt><trkpt lat="44.31649739023133" lon="9.324093641068655"><ele>7.200000000000001</ele><time>2026-04-26T06:53:44Z</time></trkpt><trkpt lat="44.316580210287725" lon="9.324236071794497"><ele>7.6000000000000005</ele><time>2026-04-26T06:53:46Z</time></trkpt><trkpt lat="44.316666983361536" lon="9.32430737351073"><ele>8.0</ele><time>2026-04-26T06:53:48Z</time></trkpt><trkpt lat="44.31658891178276" lon="9.3246081641489"><ele>7.999999999999999</ele><time>2026-04-26T06:53:51Z</time></trkpt><trkpt lat="44.31653698060688" lon="9.324697224690901"><ele>8.0</ele><time>2026-04-26T06:53:52Z</time></trkpt><trkpt lat="44.31649620441022" lon="9.324800404133008"><ele>8.0</ele><time>2026-04-26T06:53:53Z</time></trkpt><trkpt lat="44.316458029533905" lon="9.32489965470854"><ele>8.0</ele><time>2026-04-26T06:53:54Z</time></trkpt><trkpt lat="44.31641620000418" lon="9.325000453309132"><ele>7.999999999999999</ele><time>2026-04-26T06:53:55Z</time></trkpt><trkpt lat="44.316368858546525" lon="9.325109176758344"><ele>8.0</ele><time>2026-04-26T06:53:56Z</time></trkpt><trkpt lat="44.316330979239716" lon="9.325227246773807"><ele>7.833333333333333</ele><time>2026-04-26T06:53:57Z</time></trkpt><trkpt lat="44.31628488067428" lon="9.325336358084721"><ele>7.666666666666666</ele><time>2026-04-26T06:53:58Z</time></trkpt><trkpt lat="44.316252516376714" lon="9.325442093107446"><ele>7.5</ele><time>2026-04-26T06:53:59Z</time></trkpt><trkpt lat="44.316213193539106" lon="9.325548447830117"><ele>7.333333333333334</ele><time>2026-04-26T06:54:00Z</time></trkpt><trkpt lat="44.31616685733536" lon="9.325639746962471"><ele>7.166666666666667</ele><time>2026-04-26T06:54:01Z</time></trkpt><trkpt lat="44.316125823740876" lon="9.325730941536158"><ele>7.0</ele><time>2026-04-26T06:54:02Z</time></trkpt><trkpt lat="44.316086208972834" lon="9.325831647593722"><ele>7.666666666666667</ele><time>2026-04-26T06:54:03Z</time></trkpt><trkpt lat="44.31605183592288" lon="9.3259310745859"><ele>8.333333333333334</ele><time>2026-04-26T06:54:04Z</time></trkpt><trkpt lat="44.31601247376625" lon="9.326036426546152"><ele>9.0</ele><time>2026-04-26T06:54:05Z</time></trkpt><trkpt lat="44.31596857086956" lon="9.32614707577327"><ele>9.666666666666666</ele><time>2026-04-26T06:54:06Z</time></trkpt><trkpt lat="44.315926431611885" lon="9.326228960578003"><ele>10.333333333333332</ele><time>2026-04-26T06:54:07Z</time></trkpt><trkpt lat="44.31589142965233" lon="9.32633551015157"><ele>11.0</ele><time>2026-04-26T06:54:08Z</time></trkpt><trkpt lat="44.3158592682876" lon="9.326431105838784"><ele>11.200000000000001</ele><time>2026-04-26T06:54:09Z</time></trkpt><trkpt lat="44.3158105824477" lon="9.326543844495168"><ele>11.4</ele><time>2026-04-26T06:54:11Z</time></trkpt><trkpt lat="44.31576633019786" lon="9.326620121581147"><ele>11.6</ele><time>2026-04-26T06:54:13Z</time></trkpt><trkpt lat="44.31573342354099" lon="9.32669761256096"><ele>11.8</ele><time>2026-04-26T06:54:16Z</time></trkpt><trkpt lat="44.31559780684624" lon="9.326615150062928"><ele>12.0</ele><time>2026-04-26T06:54:20Z</time></trkpt><trkpt lat="44.315529556552434" lon="9.32656497391868"><ele>12.0</ele><time>2026-04-26T06:54:21Z</time></trkpt><trkpt lat="44.31545614311705" lon="9.326514938011886"><ele>12.0</ele><time>2026-04-26T06:54:22Z</time></trkpt><trkpt lat="44.31532663256483" lon="9.32645124208894"><ele>12.0</ele><time>2026-04-26T06:54:24Z</time></trkpt><trkpt lat="44.31524805134194" lon="9.326400936185244"><ele>12.0</ele><time>2026-04-26T06:54:26Z</time></trkpt><trkpt lat="44.315160368572556" lon="9.326648832659888"><ele>12.0</ele><time>2026-04-26T06:54:28Z</time></trkpt><trkpt lat="44.315126789074384" lon="9.326752458592846"><ele>12.0</ele><time>2026-04-26T06:54:29Z</time></trkpt><trkpt lat="44.31508113994657" lon="9.326856799833385"><ele>12.0</ele><time>2026-04-26T06:54:30Z</time></trkpt><trkpt lat="44.315036924399585" lon="9.326978662632595"><ele>12.0</ele><time>2026-04-26T06:54:31Z</time></trkpt><trkpt lat="44.31499316245431" lon="9.327086703304667"><ele>12.0</ele><time>2026-04-26T06:54:32Z</time></trkpt><trkpt lat="44.31494116459165" lon="9.327200571978324"><ele>11.8</ele><time>2026-04-26T06:54:33Z</time></trkpt><trkpt lat="44.31489436714193" lon="9.32731238236878"><ele>11.6</ele><time>2026-04-26T06:54:34Z</time></trkpt><trkpt lat="44.31484563822909" lon="9.327419219946064"><ele>11.4</ele><time>2026-04-26T06:54:35Z</time></trkpt><trkpt lat="44.31482329711671" lon="9.327548905663466"><ele>11.200000000000001</ele><time>2026-04-26T06:54:36Z</time></trkpt><trkpt lat="44.314780678363896" lon="9.327675496487945"><ele>11.0</ele><time>2026-04-26T06:54:37Z</time></trkpt><trkpt lat="44.31473484084629" lon="9.32780212160784"><ele>10.5</ele><time>2026-04-26T06:54:38Z</time></trkpt><trkpt lat="44.31469138942483" lon="9.327914162085511"><ele>10.0</ele><time>2026-04-26T06:54:39Z</time></trkpt><trkpt lat="44.31465395575356" lon="9.32802451805639"><ele>9.5</ele><time>2026-04-26T06:54:40Z</time></trkpt><trkpt lat="44.314616174091384" lon="9.328128377291515"><ele>9.0</ele><time>2026-04-26T06:54:41Z</time></trkpt><trkpt lat="44.31458391328912" lon="9.328219248987262"><ele>8.5</ele><time>2026-04-26T06:54:42Z</time></trkpt><trkpt lat="44.31452525098408" lon="9.328354143857817"><ele>8.0</ele><time>2026-04-26T06:54:44Z</time></trkpt><trkpt lat="44.314495092749254" lon="9.328436597574639"><ele>7.999999999999999</ele><time>2026-04-26T06:54:45Z</time></trkpt><trkpt lat="44.314452600504396" lon="9.328524435905084"><ele>8.0</ele><time>2026-04-26T06:54:46Z</time></trkpt><trkpt lat="44.31441405515278" lon="9.328594478746005"><ele>8.0</ele><time>2026-04-26T06:54:49Z</time></trkpt><trkpt lat="44.314381584388684" lon="9.328709861612293"><ele>8.0</ele><time>2026-04-26T06:54:51Z</time></trkpt><trkpt lat="44.31433710911366" lon="9.328814263015117"><ele>7.999999999999999</ele><time>2026-04-26T06:54:52Z</time></trkpt><trkpt lat="44.31428761482899" lon="9.328928610223576"><ele>8.0</ele><time>2026-04-26T06:54:53Z</time></trkpt><trkpt lat="44.314237435021475" lon="9.329050321937174"><ele>8.0</ele><time>2026-04-26T06:54:54Z</time></trkpt><trkpt lat="44.31419216348441" lon="9.329170746227904"><ele>8.0</ele><time>2026-04-26T06:54:55Z</time></trkpt><trkpt lat="44.31414165009751" lon="9.329285319347624"><ele>8.0</ele><time>2026-04-26T06:54:56Z</time></trkpt><trkpt lat="44.31408781906446" lon="9.329401107266408"><ele>8.0</ele><time>2026-04-26T06:54:57Z</time></trkpt><trkpt lat="44.314032326683936" lon="9.329521261070637"><ele>8.0</ele><time>2026-04-26T06:54:58Z</time></trkpt><trkpt lat="44.313983240501315" lon="9.32963690781627"><ele>8.0</ele><time>2026-04-26T06:54:59Z</time></trkpt><trkpt lat="44.31393223110525" lon="9.329758372325795"><ele>8.0</ele><time>2026-04-26T06:55:00Z</time></trkpt><trkpt lat="44.31382727435365" lon="9.330010877146357"><ele>8.0</ele><time>2026-04-26T06:55:02Z</time></trkpt><trkpt lat="44.31377646428884" lon="9.330144008002128"><ele>8.0</ele><time>2026-04-26T06:55:03Z</time></trkpt><trkpt lat="44.313718094288284" lon="9.330279224893637"><ele>8.0</ele><time>2026-04-26T06:55:04Z</time></trkpt><trkpt lat="44.31365460611397" lon="9.330412654482199"><ele>8.0</ele><time>2026-04-26T06:55:05Z</time></trkpt><trkpt lat="44.3135964472507" lon="9.330550657911058"><ele>8.0</ele><time>2026-04-26T06:55:06Z</time></trkpt><trkpt lat="44.31354222265875" lon="9.33069953103808"><ele>8.0</ele><time>2026-04-26T06:55:07Z</time></trkpt><trkpt lat="44.313487066971874" lon="9.330838426746384"><ele>8.25</ele><time>2026-04-26T06:55:08Z</time></trkpt><trkpt lat="44.31342693492765" lon="9.330983431132362"><ele>8.5</ele><time>2026-04-26T06:55:09Z</time></trkpt><trkpt lat="44.31336525303867" lon="9.331128173306002"><ele>8.75</ele><time>2026-04-26T06:55:10Z</time></trkpt><trkpt lat="44.3133034424099" lon="9.331281921381558"><ele>9.0</ele><time>2026-04-26T06:55:11Z</time></trkpt><trkpt lat="44.313247209792166" lon="9.331439599810704"><ele>9.25</ele><time>2026-04-26T06:55:12Z</time></trkpt><trkpt lat="44.3131907340146" lon="9.33157458209336"><ele>9.5</ele><time>2026-04-26T06:55:13Z</time></trkpt><trkpt lat="44.3131360122664" lon="9.331716241703008"><ele>9.75</ele><time>2026-04-26T06:55:14Z</time></trkpt><trkpt lat="44.31307882163209" lon="9.33184800161689"><ele>10.0</ele><time>2026-04-26T06:55:15Z</time></trkpt><trkpt lat="44.31301503549068" lon="9.331978843078236"><ele>9.6</ele><time>2026-04-26T06:55:16Z</time></trkpt><trkpt lat="44.31295523708872" lon="9.332109665768355"><ele>9.2</ele><time>2026-04-26T06:55:17Z</time></trkpt><trkpt lat="44.312914081448795" lon="9.33225145249484"><ele>8.8</ele><time>2026-04-26T06:55:18Z</time></trkpt><trkpt lat="44.31286620084808" lon="9.332381559804"><ele>8.4</ele><time>2026-04-26T06:55:19Z</time></trkpt><trkpt lat="44.312813064899004" lon="9.332494852704645"><ele>8.0</ele><time>2026-04-26T06:55:20Z</time></trkpt><trkpt lat="44.31275731877021" lon="9.332608646396114"><ele>7.499999999999999</ele><time>2026-04-26T06:55:21Z</time></trkpt><trkpt lat="44.31271223225501" lon="9.332714593081784"><ele>7.0</ele><time>2026-04-26T06:55:22Z</time></trkpt><trkpt lat="44.3126646494993" lon="9.332817283715173"><ele>6.5</ele><time>2026-04-26T06:55:23Z</time></trkpt><trkpt lat="44.31262860082552" lon="9.33290576081702"><ele>6.0</ele><time>2026-04-26T06:55:24Z</time></trkpt><trkpt lat="44.312589784144556" lon="9.33298394072048"><ele>5.5</ele><time>2026-04-26T06:55:25Z</time></trkpt><trkpt lat="44.31251683027745" lon="9.333086500917966"><ele>5.0</ele><time>2026-04-26T06:55:27Z</time></trkpt><trkpt lat="44.31244970134346" lon="9.333135003472357"><ele>4.2</ele><time>2026-04-26T06:55:29Z</time></trkpt><trkpt lat="44.31239107747624" lon="9.333220726940153"><ele>3.4</ele><time>2026-04-26T06:55:31Z</time></trkpt><trkpt lat="44.31242963012002" lon="9.333387540919784"><ele>2.6</ele><time>2026-04-26T06:55:33Z</time></trkpt><trkpt lat="44.31248505972637" lon="9.333469695495875"><ele>1.8</ele><time>2026-04-26T06:55:34Z</time></trkpt><trkpt lat="44.31253984505067" lon="9.333564308602824"><ele>1.0</ele><time>2026-04-26T06:55:35Z</time></trkpt><trkpt lat="44.3125947157665" lon="9.333667360881975"><ele>1.0</ele><time>2026-04-26T06:55:36Z</time></trkpt><trkpt lat="44.31265194196428" lon="9.333774233774585"><ele>1.0</ele><time>2026-04-26T06:55:37Z</time></trkpt><trkpt lat="44.312716497345775" lon="9.333878007067401"><ele>1.0</ele><time>2026-04-26T06:55:38Z</time></trkpt><trkpt lat="44.312776857837285" lon="9.333986349929999"><ele>1.0</ele><time>2026-04-26T06:55:39Z</time></trkpt><trkpt lat="44.312841407960235" lon="9.334099448919801"><ele>1.0</ele><time>2026-04-26T06:55:40Z</time></trkpt><trkpt lat="44.31290758522695" lon="9.334205462957057"><ele>1.3333333333333333</ele><time>2026-04-26T06:55:41Z</time></trkpt><trkpt lat="44.31297043718122" lon="9.334319324451668"><ele>1.6666666666666665</ele><time>2026-04-26T06:55:42Z</time></trkpt><trkpt lat="44.31303066440677" lon="9.334428346139445"><ele>2.0</ele><time>2026-04-26T06:55:43Z</time></trkpt><trkpt lat="44.313089269748716" lon="9.334533336179296"><ele>2.3333333333333335</ele><time>2026-04-26T06:55:44Z</time></trkpt><trkpt lat="44.31313809862672" lon="9.33463090107662"><ele>2.6666666666666665</ele><time>2026-04-26T06:55:45Z</time></trkpt><trkpt lat="44.31317173783197" lon="9.33471038536007"><ele>3.0</ele><time>2026-04-26T06:55:46Z</time></trkpt><trkpt lat="44.313213241772196" lon="9.3348649841612"><ele>3.4</ele><time>2026-04-26T06:55:49Z</time></trkpt><trkpt lat="44.313222441007284" lon="9.334998556704772"><ele>3.8</ele><time>2026-04-26T06:55:51Z</time></trkpt><trkpt lat="44.3132088202231" lon="9.335104790531545"><ele>4.2</ele><time>2026-04-26T06:55:53Z</time></trkpt><trkpt lat="44.31317498330488" lon="9.335212099849167"><ele>4.6</ele><time>2026-04-26T06:55:55Z</time></trkpt><trkpt lat="44.31310760102066" lon="9.335355440155007"><ele>5.0</ele><time>2026-04-26T06:55:57Z</time></trkpt><trkpt lat="44.313065704488594" lon="9.335445608202319"><ele>5.0</ele><time>2026-04-26T06:55:58Z</time></trkpt><trkpt lat="44.31302471506929" lon="9.335541856580749"><ele>5.0</ele><time>2026-04-26T06:55:59Z</time></trkpt><trkpt lat="44.3129831370833" lon="9.335645900005593"><ele>5.0</ele><time>2026-04-26T06:56:00Z</time></trkpt><trkpt lat="44.31294092214646" lon="9.33575189227127"><ele>5.0</ele><time>2026-04-26T06:56:01Z</time></trkpt><trkpt lat="44.31289711602581" lon="9.335862479865833"><ele>5.0</ele><time>2026-04-26T06:56:02Z</time></trkpt><trkpt lat="44.31284869910616" lon="9.335978142534664"><ele>5.0</ele><time>2026-04-26T06:56:03Z</time></trkpt><trkpt lat="44.312802268966806" lon="9.336090370146223"><ele>4.8</ele><time>2026-04-26T06:56:04Z</time></trkpt><trkpt lat="44.312758551046755" lon="9.336203241464744"><ele>4.6</ele><time>2026-04-26T06:56:05Z</time></trkpt><trkpt lat="44.312712090996676" lon="9.33631864138166"><ele>4.4</ele><time>2026-04-26T06:56:06Z</time></trkpt><trkpt lat="44.31266869020165" lon="9.33642892319046"><ele>4.2</ele><time>2026-04-26T06:56:07Z</time></trkpt><trkpt lat="44.3126237637383" lon="9.336538653159016"><ele>4.0</ele><time>2026-04-26T06:56:08Z</time></trkpt><trkpt lat="44.31257937544998" lon="9.336650295751257"><ele>3.8000000000000003</ele><time>2026-04-26T06:56:09Z</time></trkpt><trkpt lat="44.31253183948411" lon="9.336762769160819"><ele>3.6000000000000005</ele><time>2026-04-26T06:56:10Z</time></trkpt><trkpt lat="44.31248693728825" lon="9.336877159481432"><ele>3.4</ele><time>2026-04-26T06:56:11Z</time></trkpt><trkpt lat="44.312441467624964" lon="9.336988601608322"><ele>3.2</ele><time>2026-04-26T06:56:12Z</time></trkpt><trkpt lat="44.31239570678069" lon="9.337097741725746"><ele>3.0</ele><time>2026-04-26T06:56:13Z</time></trkpt><trkpt lat="44.312350157861744" lon="9.337207267540993"><ele>3.3333333333333335</ele><time>2026-04-26T06:56:14Z</time></trkpt><trkpt lat="44.31231006684897" lon="9.337319265570953"><ele>3.666666666666667</ele><time>2026-04-26T06:56:15Z</time></trkpt><trkpt lat="44.312269964128575" lon="9.337428147813998"><ele>4.0</ele><time>2026-04-26T06:56:16Z</time></trkpt><trkpt lat="44.31222806124583" lon="9.337536538198172"><ele>4.333333333333334</ele><time>2026-04-26T06:56:17Z</time></trkpt><trkpt lat="44.31218426805554" lon="9.337643305383752"><ele>4.666666666666667</ele><time>2026-04-26T06:56:18Z</time></trkpt><trkpt lat="44.31213855623435" lon="9.337745394631712"><ele>5.0</ele><time>2026-04-26T06:56:19Z</time></trkpt><trkpt lat="44.31209961963934" lon="9.337851160673516"><ele>5.0</ele><time>2026-04-26T06:56:20Z</time></trkpt><trkpt lat="44.31205988935145" lon="9.337943609586517"><ele>5.0</ele><time>2026-04-26T06:56:21Z</time></trkpt><trkpt lat="44.31202017027589" lon="9.338037356817845"><ele>5.0</ele><time>2026-04-26T06:56:22Z</time></trkpt><trkpt lat="44.311981246528404" lon="9.338139550037285"><ele>5.0</ele><time>2026-04-26T06:56:23Z</time></trkpt><trkpt lat="44.31193555111991" lon="9.338245113334988"><ele>5.0</ele><time>2026-04-26T06:56:24Z</time></trkpt><trkpt lat="44.31189199152675" lon="9.338354796299335"><ele>5.0</ele><time>2026-04-26T06:56:25Z</time></trkpt><trkpt lat="44.31184848559684" lon="9.338461940310284"><ele>5.333333333333334</ele><time>2026-04-26T06:56:26Z</time></trkpt><trkpt lat="44.31180914091356" lon="9.33856696938363"><ele>5.666666666666667</ele><time>2026-04-26T06:56:27Z</time></trkpt><trkpt lat="44.311757758404056" lon="9.338645034161594"><ele>6.0</ele><time>2026-04-26T06:56:28Z</time></trkpt><trkpt lat="44.311724173064604" lon="9.338728560479035"><ele>6.333333333333334</ele><time>2026-04-26T06:56:29Z</time></trkpt><trkpt lat="44.3116916190719" lon="9.33880732272497"><ele>6.666666666666667</ele><time>2026-04-26T06:56:30Z</time></trkpt><trkpt lat="44.311629785210805" lon="9.338964300117789"><ele>7.0</ele><time>2026-04-26T06:56:32Z</time></trkpt><trkpt lat="44.31158893688749" lon="9.339068001733152"><ele>7.199999999999999</ele><time>2026-04-26T06:56:33Z</time></trkpt><trkpt lat="44.31155530626375" lon="9.339198562824903"><ele>7.3999999999999995</ele><time>2026-04-26T06:56:34Z</time></trkpt><trkpt lat="44.31149455725699" lon="9.339308542247794"><ele>7.6000000000000005</ele><time>2026-04-26T06:56:35Z</time></trkpt><trkpt lat="44.31144433591637" lon="9.339434018041848"><ele>7.800000000000001</ele><time>2026-04-26T06:56:36Z</time></trkpt><trkpt lat="44.311393581837756" lon="9.339559593181688"><ele>8.0</ele><time>2026-04-26T06:56:37Z</time></trkpt><trkpt lat="44.311340325100595" lon="9.339689360962012"><ele>7.4</ele><time>2026-04-26T06:56:38Z</time></trkpt><trkpt lat="44.311297408063545" lon="9.339837988526613"><ele>6.800000000000001</ele><time>2026-04-26T06:56:39Z</time></trkpt><trkpt lat="44.31123676054188" lon="9.339961343771613"><ele>6.2</ele><time>2026-04-26T06:56:40Z</time></trkpt><trkpt lat="44.311176709647874" lon="9.340083201326992"><ele>5.6</ele><time>2026-04-26T06:56:41Z</time></trkpt><trkpt lat="44.31112226677808" lon="9.340196488160393"><ele>5.0</ele><time>2026-04-26T06:56:42Z</time></trkpt><trkpt lat="44.311075540934176" lon="9.340317437270116"><ele>5.0</ele><time>2026-04-26T06:56:43Z</time></trkpt><trkpt lat="44.31102607377822" lon="9.340444209497168"><ele>5.0</ele><time>2026-04-26T06:56:44Z</time></trkpt><trkpt lat="44.3109745751279" lon="9.340571692710014"><ele>5.0</ele><time>2026-04-26T06:56:45Z</time></trkpt><trkpt lat="44.31093273143799" lon="9.340678485855129"><ele>5.0</ele><time>2026-04-26T06:56:46Z</time></trkpt><trkpt lat="44.31087317487438" lon="9.340818004474453"><ele>5.0</ele><time>2026-04-26T06:56:47Z</time></trkpt><trkpt lat="44.31081302742717" lon="9.340949687948743"><ele>5.0</ele><time>2026-04-26T06:56:48Z</time></trkpt><trkpt lat="44.310761774654324" lon="9.341092527911382"><ele>5.0</ele><time>2026-04-26T06:56:49Z</time></trkpt><trkpt lat="44.31070443014822" lon="9.341227783563948"><ele>5.0</ele><time>2026-04-26T06:56:50Z</time></trkpt><trkpt lat="44.31065048680145" lon="9.341384429903684"><ele>5.0</ele><time>2026-04-26T06:56:51Z</time></trkpt><trkpt lat="44.31058053679029" lon="9.341543206781902"><ele>5.0</ele><time>2026-04-26T06:56:52Z</time></trkpt><trkpt lat="44.310517224594044" lon="9.341703663238034"><ele>5.0</ele><time>2026-04-26T06:56:53Z</time></trkpt><trkpt lat="44.310454482543676" lon="9.341857423110113"><ele>5.0</ele><time>2026-04-26T06:56:54Z</time></trkpt><trkpt lat="44.310397737765705" lon="9.341996055131533"><ele>5.0</ele><time>2026-04-26T06:56:55Z</time></trkpt><trkpt lat="44.310342973300074" lon="9.342135470161445"><ele>4.5</ele><time>2026-04-26T06:56:56Z</time></trkpt><trkpt lat="44.31028368989396" lon="9.342274701122133"><ele>4.0</ele><time>2026-04-26T06:56:57Z</time></trkpt><trkpt lat="44.31022758316961" lon="9.34242068366857"><ele>3.5</ele><time>2026-04-26T06:56:58Z</time></trkpt><trkpt lat="44.31017067383246" lon="9.342559392951994"><ele>3.0</ele><time>2026-04-26T06:56:59Z</time></trkpt><trkpt lat="44.3101105492498" lon="9.34268843354211"><ele>3.0</ele><time>2026-04-26T06:57:00Z</time></trkpt><trkpt lat="44.310059353931834" lon="9.342824581190872"><ele>3.0</ele><time>2026-04-26T06:57:01Z</time></trkpt><trkpt lat="44.310007949808735" lon="9.342951739533511"><ele>3.0</ele><time>2026-04-26T06:57:02Z</time></trkpt><trkpt lat="44.30995671227924" lon="9.343076301682046"><ele>3.0</ele><time>2026-04-26T06:57:03Z</time></trkpt><trkpt lat="44.30990336815728" lon="9.343206651080244"><ele>3.0</ele><time>2026-04-26T06:57:04Z</time></trkpt><trkpt lat="44.30985494163842" lon="9.34333503779995"><ele>3.0</ele><time>2026-04-26T06:57:05Z</time></trkpt><trkpt lat="44.309805575098686" lon="9.343467145199966"><ele>3.0</ele><time>2026-04-26T06:57:06Z</time></trkpt><trkpt lat="44.3097542708943" lon="9.343591362615067"><ele>3.0</ele><time>2026-04-26T06:57:07Z</time></trkpt><trkpt lat="44.3097034289049" lon="9.34368741931878"><ele>3.0</ele><time>2026-04-26T06:57:08Z</time></trkpt><trkpt lat="44.309653541146155" lon="9.343787812485203"><ele>3.0</ele><time>2026-04-26T06:57:09Z</time></trkpt><trkpt lat="44.309617756240264" lon="9.343888150629304"><ele>3.5</ele><time>2026-04-26T06:57:10Z</time></trkpt><trkpt lat="44.3095854715076" lon="9.34398146322914"><ele>4.0</ele><time>2026-04-26T06:57:11Z</time></trkpt><trkpt lat="44.30954379757136" lon="9.344071644521357"><ele>4.5</ele><time>2026-04-26T06:57:12Z</time></trkpt><trkpt lat="44.309496606551505" lon="9.344164792113855"><ele>5.0</ele><time>2026-04-26T06:57:13Z</time></trkpt><trkpt lat="44.30945412928195" lon="9.34424264795411"><ele>5.5</ele><time>2026-04-26T06:57:14Z</time></trkpt><trkpt lat="44.30937907004576" lon="9.34435429765153"><ele>6.0</ele><time>2026-04-26T06:57:16Z</time></trkpt><trkpt lat="44.309331615646805" lon="9.344412690963448"><ele>6.0</ele><time>2026-04-26T06:57:17Z</time></trkpt><trkpt lat="44.309290960450745" lon="9.3444987941778"><ele>6.0</ele><time>2026-04-26T06:57:18Z</time></trkpt><trkpt lat="44.30928177608305" lon="9.344587177895395"><ele>6.0</ele><time>2026-04-26T06:57:19Z</time></trkpt><trkpt lat="44.30927727679394" lon="9.344677675658312"><ele>6.0</ele><time>2026-04-26T06:57:20Z</time></trkpt><trkpt lat="44.30924260325514" lon="9.34480001855462"><ele>6.0</ele><time>2026-04-26T06:57:22Z</time></trkpt><trkpt lat="44.309191158720004" lon="9.344901092201251"><ele>6.0</ele><time>2026-04-26T06:57:25Z</time></trkpt><trkpt lat="44.309132606683896" lon="9.34502557022943"><ele>6.333333333333333</ele><time>2026-04-26T06:57:27Z</time></trkpt><trkpt lat="44.30909437385668" lon="9.345111310407601"><ele>6.666666666666666</ele><time>2026-04-26T06:57:28Z</time></trkpt><trkpt lat="44.30904994107775" lon="9.345188790456133"><ele>7.0</ele><time>2026-04-26T06:57:29Z</time></trkpt><trkpt lat="44.30900863294692" lon="9.345263504719338"><ele>7.333333333333333</ele><time>2026-04-26T06:57:30Z</time></trkpt><trkpt lat="44.30894920789549" lon="9.345395608617862"><ele>7.666666666666666</ele><time>2026-04-26T06:57:32Z</time></trkpt><trkpt lat="44.30889272977284" lon="9.34551029091595"><ele>8.0</ele><time>2026-04-26T06:57:34Z</time></trkpt><trkpt lat="44.30883523883956" lon="9.345621258792036"><ele>7.999999999999999</ele><time>2026-04-26T06:57:36Z</time></trkpt><trkpt lat="44.308773954829654" lon="9.345735745014654"><ele>8.0</ele><time>2026-04-26T06:57:38Z</time></trkpt><trkpt lat="44.30872510485663" lon="9.345824716287568"><ele>8.0</ele><time>2026-04-26T06:57:40Z</time></trkpt><trkpt lat="44.30867673039256" lon="9.345909354749999"><ele>8.0</ele><time>2026-04-26T06:57:42Z</time></trkpt><trkpt lat="44.30862362059114" lon="9.345991925545226"><ele>7.999999999999999</ele><time>2026-04-26T06:57:44Z</time></trkpt><trkpt lat="44.308576698373" lon="9.346069666618272"><ele>8.0</ele><time>2026-04-26T06:57:46Z</time></trkpt><trkpt lat="44.30853438530299" lon="9.346152913117455"><ele>7.999999999999999</ele><time>2026-04-26T06:57:48Z</time></trkpt><trkpt lat="44.30847408772121" lon="9.346226488625902"><ele>8.0</ele><time>2026-04-26T06:57:51Z</time></trkpt><trkpt lat="44.30843242066306" lon="9.34629444802838"><ele>8.0</ele><time>2026-04-26T06:57:53Z</time></trkpt><trkpt lat="44.30836483211672" lon="9.346397621879879"><ele>8.0</ele><time>2026-04-26T06:57:55Z</time></trkpt><trkpt lat="44.30828208537945" lon="9.346538641599187"><ele>7.999999999999999</ele><time>2026-04-26T06:57:57Z</time></trkpt><trkpt lat="44.30823454297285" lon="9.346615287807166"><ele>8.0</ele><time>2026-04-26T06:57:58Z</time></trkpt><trkpt lat="44.30818517805665" lon="9.346686454424027"><ele>7.833333333333333</ele><time>2026-04-26T06:57:59Z</time></trkpt><trkpt lat="44.3081437786559" lon="9.346753251238878"><ele>7.666666666666666</ele><time>2026-04-26T06:58:00Z</time></trkpt><trkpt lat="44.308095892597485" lon="9.346826395512453"><ele>7.5</ele><time>2026-04-26T06:58:01Z</time></trkpt><trkpt lat="44.308045602092946" lon="9.346902291422062"><ele>7.333333333333334</ele><time>2026-04-26T06:58:02Z</time></trkpt><trkpt lat="44.30800239558977" lon="9.3469716251528"><ele>7.166666666666667</ele><time>2026-04-26T06:58:03Z</time></trkpt><trkpt lat="44.307932978655096" lon="9.34708113412251"><ele>7.0</ele><time>2026-04-26T06:58:05Z</time></trkpt><trkpt lat="44.307848698524516" lon="9.347199204724705"><ele>7.666666666666667</ele><time>2026-04-26T06:58:07Z</time></trkpt><trkpt lat="44.307800643220276" lon="9.347272526166888"><ele>8.333333333333334</ele><time>2026-04-26T06:58:08Z</time></trkpt><trkpt lat="44.30775811534821" lon="9.34734544294422"><ele>9.0</ele><time>2026-04-26T06:58:09Z</time></trkpt><trkpt lat="44.30767668834435" lon="9.347477100118958"><ele>9.666666666666666</ele><time>2026-04-26T06:58:11Z</time></trkpt><trkpt lat="44.30763801542215" lon="9.34754840548275"><ele>10.333333333333332</ele><time>2026-04-26T06:58:12Z</time></trkpt><trkpt lat="44.307590074873154" lon="9.347624300987354"><ele>11.0</ele><time>2026-04-26T06:58:13Z</time></trkpt><trkpt lat="44.307543521533674" lon="9.347703002454361"><ele>11.0</ele><time>2026-04-26T06:58:14Z</time></trkpt><trkpt lat="44.307494350983994" lon="9.347787037358291"><ele>11.0</ele><time>2026-04-26T06:58:15Z</time></trkpt><trkpt lat="44.30744506698118" lon="9.347857796320996"><ele>11.0</ele><time>2026-04-26T06:58:16Z</time></trkpt><trkpt lat="44.30739297490444" lon="9.347926291136258"><ele>11.0</ele><time>2026-04-26T06:58:17Z</time></trkpt><trkpt lat="44.30732442745208" lon="9.348014904886288"><ele>11.0</ele><time>2026-04-26T06:58:19Z</time></trkpt><trkpt lat="44.3072673675592" lon="9.34810286318254"><ele>11.0</ele><time>2026-04-26T06:58:22Z</time></trkpt><trkpt lat="44.30724094023114" lon="9.348215711036415"><ele>11.200000000000001</ele><time>2026-04-26T06:58:28Z</time></trkpt><trkpt lat="44.30728403993723" lon="9.348361236627301"><ele>11.4</ele><time>2026-04-26T06:58:30Z</time></trkpt><trkpt lat="44.30733420884185" lon="9.348422769234983"><ele>11.6</ele><time>2026-04-26T06:58:31Z</time></trkpt><trkpt lat="44.307423551504385" lon="9.348532348555116"><ele>11.8</ele><time>2026-04-26T06:58:33Z</time></trkpt><trkpt lat="44.30747448232302" lon="9.348594815332415"><ele>12.0</ele><time>2026-04-26T06:58:34Z</time></trkpt><trkpt lat="44.30756834416319" lon="9.348710475369927"><ele>11.999999999999998</ele><time>2026-04-26T06:58:36Z</time></trkpt><trkpt lat="44.30761938525486" lon="9.348773556123483"><ele>12.0</ele><time>2026-04-26T06:58:37Z</time></trkpt><trkpt lat="44.30767312892014" lon="9.34883997687094"><ele>12.0</ele><time>2026-04-26T06:58:38Z</time></trkpt><trkpt lat="44.30772996882144" lon="9.34891022423845"><ele>12.0</ele><time>2026-04-26T06:58:39Z</time></trkpt><trkpt lat="44.30778597441309" lon="9.348979440613435"><ele>12.0</ele><time>2026-04-26T06:58:40Z</time></trkpt><trkpt lat="44.30784490088001" lon="9.349028369172034"><ele>11.999999999999998</ele><time>2026-04-26T06:58:41Z</time></trkpt><trkpt lat="44.30789619655221" lon="9.349084718418329"><ele>12.0</ele><time>2026-04-26T06:58:42Z</time></trkpt><trkpt lat="44.30796802597432" lon="9.349190970382532"><ele>11.8</ele><time>2026-04-26T06:58:44Z</time></trkpt><trkpt lat="44.30788995554547" lon="9.349357689220525"><ele>11.6</ele><time>2026-04-26T06:58:47Z</time></trkpt><trkpt lat="44.30784404574678" lon="9.349432490442382"><ele>11.4</ele><time>2026-04-26T06:58:48Z</time></trkpt><trkpt lat="44.3077835992916" lon="9.349510150686175"><ele>11.200000000000001</ele><time>2026-04-26T06:58:49Z</time></trkpt><trkpt lat="44.307729527028826" lon="9.349600712897558"><ele>11.0</ele><time>2026-04-26T06:58:50Z</time></trkpt><trkpt lat="44.307678435813266" lon="9.34968314476793"><ele>10.4</ele><time>2026-04-26T06:58:51Z</time></trkpt><trkpt lat="44.30760617385969" lon="9.349767164588345"><ele>9.8</ele><time>2026-04-26T06:58:52Z</time></trkpt><trkpt lat="44.30752167163667" lon="9.349802764959652"><ele>9.200000000000001</ele><time>2026-04-26T06:58:53Z</time></trkpt><trkpt lat="44.30742154497469" lon="9.349815457935094"><ele>8.600000000000001</ele><time>2026-04-26T06:58:54Z</time></trkpt><trkpt lat="44.30731731888241" lon="9.34984103997849"><ele>8.0</ele><time>2026-04-26T06:58:55Z</time></trkpt><trkpt lat="44.30722439357435" lon="9.349874502327307"><ele>8.0</ele><time>2026-04-26T06:58:56Z</time></trkpt><trkpt lat="44.307138908166124" lon="9.349933381899758"><ele>8.0</ele><time>2026-04-26T06:58:57Z</time></trkpt><trkpt lat="44.30704732254738" lon="9.349974524656458"><ele>8.0</ele><time>2026-04-26T06:58:58Z</time></trkpt><trkpt lat="44.30695654831191" lon="9.350018099407842"><ele>8.0</ele><time>2026-04-26T06:58:59Z</time></trkpt><trkpt lat="44.30686950130084" lon="9.350080519341875"><ele>8.0</ele><time>2026-04-26T06:59:00.001Z</time></trkpt><trkpt lat="44.30678561952916" lon="9.350159397712654"><ele>8.0</ele><time>2026-04-26T06:59:01.001Z</time></trkpt><trkpt lat="44.30670637281938" lon="9.350240483085297"><ele>8.0</ele><time>2026-04-26T06:59:02.001Z</time></trkpt><trkpt lat="44.306625159613205" lon="9.350332546878983"><ele>8.0</ele><time>2026-04-26T06:59:03.001Z</time></trkpt><trkpt lat="44.306544108360924" lon="9.350428267653468"><ele>8.0</ele><time>2026-04-26T06:59:04.001Z</time></trkpt><trkpt lat="44.306426563107635" lon="9.350677131207892"><ele>8.8</ele><time>2026-04-26T06:59:06.001Z</time></trkpt><trkpt lat="44.30640010094202" lon="9.350803867675479"><ele>9.600000000000001</ele><time>2026-04-26T06:59:07.001Z</time></trkpt><trkpt lat="44.306355747249775" lon="9.35091759212141"><ele>10.399999999999999</ele><time>2026-04-26T06:59:08.001Z</time></trkpt><trkpt lat="44.30627859711056" lon="9.350980109669399"><ele>11.2</ele><time>2026-04-26T06:59:09.001Z</time></trkpt><trkpt lat="44.3062214523247" lon="9.351078269401393"><ele>12.0</ele><time>2026-04-26T06:59:10.001Z</time></trkpt><trkpt lat="44.30615388964742" lon="9.351146660386918"><ele>12.0</ele><time>2026-04-26T06:59:11Z</time></trkpt><trkpt lat="44.30609583017283" lon="9.351216373421163"><ele>12.0</ele><time>2026-04-26T06:59:12Z</time></trkpt><trkpt lat="44.30606506091846" lon="9.351301939974885"><ele>12.0</ele><time>2026-04-26T06:59:13Z</time></trkpt><trkpt lat="44.30605514185794" lon="9.351394477110642"><ele>12.0</ele><time>2026-04-26T06:59:14Z</time></trkpt><trkpt lat="44.30620997640743" lon="9.35153160183028"><ele>12.0</ele><time>2026-04-26T06:59:16Z</time></trkpt><trkpt lat="44.306291037260756" lon="9.351559332432563"><ele>13.0</ele><time>2026-04-26T06:59:17Z</time></trkpt><trkpt lat="44.306366844438315" lon="9.351585846698862"><ele>14.0</ele><time>2026-04-26T06:59:18Z</time></trkpt><trkpt lat="44.30644331170146" lon="9.351622212512966"><ele>15.0</ele><time>2026-04-26T06:59:19Z</time></trkpt><trkpt lat="44.30652095937042" lon="9.351663562748932"><ele>16.0</ele><time>2026-04-26T06:59:20Z</time></trkpt><trkpt lat="44.30659556961238" lon="9.351692366536698"><ele>17.0</ele><time>2026-04-26T06:59:21Z</time></trkpt><trkpt lat="44.30666641592414" lon="9.35174029054185"><ele>18.0</ele><time>2026-04-26T06:59:22Z</time></trkpt><trkpt lat="44.30674861935749" lon="9.351770482641777"><ele>20.0</ele><time>2026-04-26T06:59:23Z</time></trkpt><trkpt lat="44.30681028926155" lon="9.351835483381326"><ele>22.0</ele><time>2026-04-26T06:59:24Z</time></trkpt><trkpt lat="44.306847984729146" lon="9.351925270073501"><ele>24.0</ele><time>2026-04-26T06:59:25Z</time></trkpt><trkpt lat="44.30685307349686" lon="9.352028172266028"><ele>26.0</ele><time>2026-04-26T06:59:26Z</time></trkpt><trkpt lat="44.30681764149434" lon="9.35213001523707"><ele>28.0</ele><time>2026-04-26T06:59:27Z</time></trkpt><trkpt lat="44.30671755122062" lon="9.35218678195368"><ele>30.0</ele><time>2026-04-26T06:59:28Z</time></trkpt><trkpt lat="44.30662315542093" lon="9.352217693414001"><ele>31.2</ele><time>2026-04-26T06:59:29Z</time></trkpt><trkpt lat="44.30653017622869" lon="9.35228644569062"><ele>32.4</ele><time>2026-04-26T06:59:30Z</time></trkpt><trkpt lat="44.30642922138764" lon="9.35232550237824"><ele>33.6</ele><time>2026-04-26T06:59:31Z</time></trkpt><trkpt lat="44.3063328758901" lon="9.35236651239904"><ele>34.8</ele><time>2026-04-26T06:59:32Z</time></trkpt><trkpt lat="44.30624528258137" lon="9.35241885871628"><ele>36.0</ele><time>2026-04-26T06:59:33Z</time></trkpt><trkpt lat="44.30617609959267" lon="9.352500046475106"><ele>34.8</ele><time>2026-04-26T06:59:34Z</time></trkpt><trkpt lat="44.306129033999824" lon="9.35261220919635"><ele>33.6</ele><time>2026-04-26T06:59:35Z</time></trkpt><trkpt lat="44.30608281472434" lon="9.352741348608049"><ele>32.4</ele><time>2026-04-26T06:59:36Z</time></trkpt><trkpt lat="44.30603682497065" lon="9.352872484434798"><ele>31.2</ele><time>2026-04-26T06:59:37Z</time></trkpt><trkpt lat="44.30600544124163" lon="9.353003693096497"><ele>30.0</ele><time>2026-04-26T06:59:38Z</time></trkpt><trkpt lat="44.30600119437608" lon="9.353148821396761"><ele>30.0</ele><time>2026-04-26T06:59:39Z</time></trkpt><trkpt lat="44.306018904191085" lon="9.353296115498821"><ele>30.0</ele><time>2026-04-26T06:59:40Z</time></trkpt><trkpt lat="44.3060442544663" lon="9.353430601383229"><ele>30.0</ele><time>2026-04-26T06:59:41Z</time></trkpt><trkpt lat="44.3060593233271" lon="9.353561287856877"><ele>30.0</ele><time>2026-04-26T06:59:42Z</time></trkpt><trkpt lat="44.30607195974974" lon="9.353688878650868"><ele>30.0</ele><time>2026-04-26T06:59:43Z</time></trkpt><trkpt lat="44.30607468246594" lon="9.353818559517222"><ele>31.333333333333332</ele><time>2026-04-26T06:59:44Z</time></trkpt><trkpt lat="44.30603941387827" lon="9.35393596327155"><ele>32.666666666666664</ele><time>2026-04-26T06:59:45Z</time></trkpt><trkpt lat="44.30597315505207" lon="9.354023727437532"><ele>34.0</ele><time>2026-04-26T06:59:46Z</time></trkpt><trkpt lat="44.305895938111355" lon="9.354096171649463"><ele>35.33333333333333</ele><time>2026-04-26T06:59:47Z</time></trkpt><trkpt lat="44.305823763035974" lon="9.354135776399696"><ele>36.666666666666664</ele><time>2026-04-26T06:59:48Z</time></trkpt><trkpt lat="44.30575533254746" lon="9.354137817110153"><ele>38.0</ele><time>2026-04-26T06:59:49Z</time></trkpt><trkpt lat="44.30569948457236" lon="9.354055540599447"><ele>38.0</ele><time>2026-04-26T06:59:50Z</time></trkpt><trkpt lat="44.30563233185718" lon="9.353976093913268"><ele>38.0</ele><time>2026-04-26T06:59:51Z</time></trkpt><trkpt lat="44.30555206477422" lon="9.353906878535065"><ele>38.0</ele><time>2026-04-26T06:59:52Z</time></trkpt><trkpt lat="44.305476512104725" lon="9.353826652168811"><ele>38.0</ele><time>2026-04-26T06:59:53Z</time></trkpt><trkpt lat="44.30538872089497" lon="9.353774741661702"><ele>38.0</ele><time>2026-04-26T06:59:54Z</time></trkpt><trkpt lat="44.305287506176256" lon="9.35376803076425"><ele>37.4</ele><time>2026-04-26T06:59:55Z</time></trkpt><trkpt lat="44.3051800364644" lon="9.353790724091413"><ele>36.8</ele><time>2026-04-26T06:59:56Z</time></trkpt><trkpt lat="44.305084835717565" lon="9.353824605293354"><ele>36.2</ele><time>2026-04-26T06:59:57Z</time></trkpt><trkpt lat="44.30499517294414" lon="9.353865395199774"><ele>35.6</ele><time>2026-04-26T06:59:58Z</time></trkpt><trkpt lat="44.30492005648142" lon="9.35392907646789"><ele>35.0</ele><time>2026-04-26T06:59:59Z</time></trkpt><trkpt lat="44.304859795859514" lon="9.354025824650684"><ele>35.0</ele><time>2026-04-26T07:00:00Z</time></trkpt><trkpt lat="44.30481454574716" lon="9.354141251468388"><ele>35.0</ele><time>2026-04-26T07:00:01Z</time></trkpt><trkpt lat="44.30477738904191" lon="9.354266128237054"><ele>35.0</ele><time>2026-04-26T07:00:02Z</time></trkpt><trkpt lat="44.30475416875247" lon="9.354385458454974"><ele>35.0</ele><time>2026-04-26T07:00:03Z</time></trkpt><trkpt lat="44.30476391273495" lon="9.354506867102947"><ele>35.0</ele><time>2026-04-26T07:00:04Z</time></trkpt><trkpt lat="44.3048030590497" lon="9.35461564071551"><ele>35.0</ele><time>2026-04-26T07:00:05Z</time></trkpt><trkpt lat="44.3048525258601" lon="9.354697979723731"><ele>35.0</ele><time>2026-04-26T07:00:06Z</time></trkpt><trkpt lat="44.30489813142509" lon="9.354770235249502"><ele>35.0</ele><time>2026-04-26T07:00:07Z</time></trkpt><trkpt lat="44.30494790779465" lon="9.354848972685282"><ele>35.0</ele><time>2026-04-26T07:00:08Z</time></trkpt><trkpt lat="44.30501141345024" lon="9.354929387522597"><ele>35.0</ele><time>2026-04-26T07:00:09Z</time></trkpt><trkpt lat="44.305057625361364" lon="9.355023655691017"><ele>35.0</ele><time>2026-04-26T07:00:10Z</time></trkpt><trkpt lat="44.30507060535613" lon="9.355133122748892"><ele>35.0</ele><time>2026-04-26T07:00:11Z</time></trkpt><trkpt lat="44.30504702289332" lon="9.355238266978366"><ele>35.0</ele><time>2026-04-26T07:00:12Z</time></trkpt><trkpt lat="44.304990660620255" lon="9.355328320047203"><ele>35.0</ele><time>2026-04-26T07:00:13Z</time></trkpt><trkpt lat="44.30490450481768" lon="9.355391499760675"><ele>35.0</ele><time>2026-04-26T07:00:14Z</time></trkpt><trkpt lat="44.30484413811365" lon="9.355498333224828"><ele>35.0</ele><time>2026-04-26T07:00:15Z</time></trkpt><trkpt lat="44.304770442627316" lon="9.35558663806029"><ele>34.0</ele><time>2026-04-26T07:00:16Z</time></trkpt><trkpt lat="44.30469241442698" lon="9.355673037287826"><ele>33.0</ele><time>2026-04-26T07:00:17Z</time></trkpt><trkpt lat="44.30460655119995" lon="9.3557175227039"><ele>32.0</ele><time>2026-04-26T07:00:18Z</time></trkpt><trkpt lat="44.30451505938122" lon="9.355684327982546"><ele>31.0</ele><time>2026-04-26T07:00:19Z</time></trkpt><trkpt lat="44.30442224772054" lon="9.355683091720088"><ele>30.0</ele><time>2026-04-26T07:00:20Z</time></trkpt><trkpt lat="44.30432545080731" lon="9.355698396914155"><ele>30.0</ele><time>2026-04-26T07:00:21Z</time></trkpt><trkpt lat="44.30423161272826" lon="9.355688417278555"><ele>30.0</ele><time>2026-04-26T07:00:22Z</time></trkpt><trkpt lat="44.30413920690048" lon="9.355680209858598"><ele>30.0</ele><time>2026-04-26T07:00:23Z</time></trkpt><trkpt lat="44.30404247352318" lon="9.355675848001809"><ele>30.0</ele><time>2026-04-26T07:00:24Z</time></trkpt><trkpt lat="44.303951277194116" lon="9.355694607928351"><ele>30.0</ele><time>2026-04-26T07:00:25Z</time></trkpt><trkpt lat="44.30386952325209" lon="9.355754450058301"><ele>27.6</ele><time>2026-04-26T07:00:26Z</time></trkpt><trkpt lat="44.303808512267835" lon="9.355850453589655"><ele>25.2</ele><time>2026-04-26T07:00:27Z</time></trkpt><trkpt lat="44.30375502253017" lon="9.355962474006514"><ele>22.8</ele><time>2026-04-26T07:00:28Z</time></trkpt><trkpt lat="44.30372445646895" lon="9.35607765902196"><ele>20.4</ele><time>2026-04-26T07:00:29Z</time></trkpt><trkpt lat="44.30372623848289" lon="9.356214454291653"><ele>18.0</ele><time>2026-04-26T07:00:30Z</time></trkpt><trkpt lat="44.3037687265538" lon="9.356350322048396"><ele>19.0</ele><time>2026-04-26T07:00:31Z</time></trkpt><trkpt lat="44.30381574809535" lon="9.356483203314719"><ele>20.0</ele><time>2026-04-26T07:00:32Z</time></trkpt><trkpt lat="44.30385284740699" lon="9.356618410551276"><ele>21.0</ele><time>2026-04-26T07:00:33Z</time></trkpt><trkpt lat="44.30386758331751" lon="9.356761643574487"><ele>22.0</ele><time>2026-04-26T07:00:34Z</time></trkpt><trkpt lat="44.30386284557629" lon="9.356907539642277"><ele>23.0</ele><time>2026-04-26T07:00:35Z</time></trkpt><trkpt lat="44.30385035949721" lon="9.357049247111012"><ele>23.0</ele><time>2026-04-26T07:00:36Z</time></trkpt><trkpt lat="44.30382341376981" lon="9.357164668057404"><ele>23.0</ele><time>2026-04-26T07:00:37Z</time></trkpt><trkpt lat="44.30376434426876" lon="9.3572543234593"><ele>23.0</ele><time>2026-04-26T07:00:38Z</time></trkpt><trkpt lat="44.30367181741842" lon="9.357259218016976"><ele>23.0</ele><time>2026-04-26T07:00:39Z</time></trkpt><trkpt lat="44.30358440070153" lon="9.357310762536086"><ele>23.0</ele><time>2026-04-26T07:00:40Z</time></trkpt><trkpt lat="44.303496649896275" lon="9.357325857309716"><ele>24.2</ele><time>2026-04-26T07:00:41Z</time></trkpt><trkpt lat="44.30341421544366" lon="9.357358027517424"><ele>25.4</ele><time>2026-04-26T07:00:42Z</time></trkpt><trkpt lat="44.303344735596916" lon="9.357413018629947"><ele>26.599999999999998</ele><time>2026-04-26T07:00:43Z</time></trkpt><trkpt lat="44.303273717060684" lon="9.35744292615596"><ele>27.799999999999997</ele><time>2026-04-26T07:00:44Z</time></trkpt><trkpt lat="44.30325325611967" lon="9.357605151210919"><ele>29.0</ele><time>2026-04-26T07:00:45Z</time></trkpt><trkpt lat="44.30321549120112" lon="9.357729868350168"><ele>29.0</ele><time>2026-04-26T07:00:46Z</time></trkpt><trkpt lat="44.30317091484438" lon="9.35785396177011"><ele>29.0</ele><time>2026-04-26T07:00:47Z</time></trkpt><trkpt lat="44.30311954428848" lon="9.357978687256765"><ele>29.0</ele><time>2026-04-26T07:00:48Z</time></trkpt><trkpt lat="44.30307116927907" lon="9.358099089052407"><ele>29.0</ele><time>2026-04-26T07:00:49Z</time></trkpt><trkpt lat="44.3030249102159" lon="9.358214120069984"><ele>29.0</ele><time>2026-04-26T07:00:50Z</time></trkpt><trkpt lat="44.30298445711911" lon="9.358322637672769"><ele>27.799999999999997</ele><time>2026-04-26T07:00:51Z</time></trkpt><trkpt lat="44.30294764003724" lon="9.358438084560941"><ele>26.599999999999998</ele><time>2026-04-26T07:00:52Z</time></trkpt><trkpt lat="44.30293352369028" lon="9.35856365943609"><ele>25.4</ele><time>2026-04-26T07:00:53Z</time></trkpt><trkpt lat="44.30295193515223" lon="9.358694106479353"><ele>24.2</ele><time>2026-04-26T07:00:54Z</time></trkpt><trkpt lat="44.302968532347904" lon="9.358830066490903"><ele>23.0</ele><time>2026-04-26T07:00:55Z</time></trkpt><trkpt lat="44.30297561361753" lon="9.358964863108854"><ele>23.0</ele><time>2026-04-26T07:00:56Z</time></trkpt><trkpt lat="44.30297458785027" lon="9.359106518762536"><ele>23.0</ele><time>2026-04-26T07:00:57Z</time></trkpt><trkpt lat="44.302965454146644" lon="9.359240214414603"><ele>23.0</ele><time>2026-04-26T07:00:58Z</time></trkpt><trkpt lat="44.30294781779988" lon="9.359377539594163"><ele>23.0</ele><time>2026-04-26T07:00:59Z</time></trkpt><trkpt lat="44.3029243814035" lon="9.359513552332144"><ele>23.0</ele><time>2026-04-26T07:01:00Z</time></trkpt><trkpt lat="44.30289249635539" lon="9.359629940663083"><ele>24.0</ele><time>2026-04-26T07:01:01Z</time></trkpt><trkpt lat="44.30284146786514" lon="9.359715770535344"><ele>25.0</ele><time>2026-04-26T07:01:02Z</time></trkpt><trkpt lat="44.30276214132641" lon="9.359734129047707"><ele>26.0</ele><time>2026-04-26T07:01:03Z</time></trkpt><trkpt lat="44.302693981483415" lon="9.359793880780938"><ele>27.0</ele><time>2026-04-26T07:01:04Z</time></trkpt><trkpt lat="44.302614492885205" lon="9.35983431088538"><ele>27.999999999999996</ele><time>2026-04-26T07:01:05Z</time></trkpt><trkpt lat="44.30253369486462" lon="9.359885560083823"><ele>29.0</ele><time>2026-04-26T07:01:06Z</time></trkpt><trkpt lat="44.30245227040161" lon="9.359937982283093"><ele>29.0</ele><time>2026-04-26T07:01:07Z</time></trkpt><trkpt lat="44.30237554867657" lon="9.36000932315466"><ele>29.0</ele><time>2026-04-26T07:01:08Z</time></trkpt><trkpt lat="44.30231668806513" lon="9.360102871526914"><ele>29.0</ele><time>2026-04-26T07:01:09Z</time></trkpt><trkpt lat="44.302249155312616" lon="9.36019919025639"><ele>29.0</ele><time>2026-04-26T07:01:10Z</time></trkpt><trkpt lat="44.302176995096346" lon="9.360295232057306"><ele>29.0</ele><time>2026-04-26T07:01:11Z</time></trkpt><trkpt lat="44.3021114208266" lon="9.36040308178101"><ele>28.6</ele><time>2026-04-26T07:01:12Z</time></trkpt><trkpt lat="44.30204681117855" lon="9.360520877035283"><ele>28.2</ele><time>2026-04-26T07:01:13Z</time></trkpt><trkpt lat="44.301994486242535" lon="9.360643241948658"><ele>27.800000000000004</ele><time>2026-04-26T07:01:14Z</time></trkpt><trkpt lat="44.30196244092612" lon="9.360772952703629"><ele>27.400000000000002</ele><time>2026-04-26T07:01:15Z</time></trkpt><trkpt lat="44.301937332809594" lon="9.360912926289219"><ele>27.0</ele><time>2026-04-26T07:01:16Z</time></trkpt><trkpt lat="44.30192498188331" lon="9.361058017871503"><ele>27.0</ele><time>2026-04-26T07:01:17Z</time></trkpt><trkpt lat="44.30194467646526" lon="9.361203017106686"><ele>27.000000000000004</ele><time>2026-04-26T07:01:18Z</time></trkpt><trkpt lat="44.30200226629881" lon="9.361323953633827"><ele>27.000000000000004</ele><time>2026-04-26T07:01:19Z</time></trkpt><trkpt lat="44.302084646437834" lon="9.36142089732232"><ele>27.0</ele><time>2026-04-26T07:01:20Z</time></trkpt><trkpt lat="44.302150186012724" lon="9.361533132109358"><ele>27.0</ele><time>2026-04-26T07:01:21Z</time></trkpt><trkpt lat="44.30220987901877" lon="9.361630906732472"><ele>27.0</ele><time>2026-04-26T07:01:22Z</time></trkpt><trkpt lat="44.30225398143991" lon="9.361735421732803"><ele>27.000000000000004</ele><time>2026-04-26T07:01:23Z</time></trkpt><trkpt lat="44.30226041140348" lon="9.361863290662647"><ele>27.000000000000004</ele><time>2026-04-26T07:01:24Z</time></trkpt><trkpt lat="44.302211633392936" lon="9.361983077564371"><ele>27.0</ele><time>2026-04-26T07:01:25Z</time></trkpt><trkpt lat="44.30218056878421" lon="9.362106604261289"><ele>27.0</ele><time>2026-04-26T07:01:26Z</time></trkpt><trkpt lat="44.30213738831485" lon="9.362214190441518"><ele>28.0</ele><time>2026-04-26T07:01:27Z</time></trkpt><trkpt lat="44.302119650536625" lon="9.362337388779036"><ele>29.000000000000004</ele><time>2026-04-26T07:01:28Z</time></trkpt><trkpt lat="44.30212521775051" lon="9.362480508071204"><ele>30.000000000000004</ele><time>2026-04-26T07:01:29Z</time></trkpt><trkpt lat="44.30216256731231" lon="9.36260890147898"><ele>31.0</ele><time>2026-04-26T07:01:30Z</time></trkpt><trkpt lat="44.302187220852744" lon="9.362722894777251"><ele>32.0</ele><time>2026-04-26T07:01:31Z</time></trkpt><trkpt lat="44.302164895834125" lon="9.362826719974347"><ele>32.0</ele><time>2026-04-26T07:01:32Z</time></trkpt><trkpt lat="44.30210101225752" lon="9.362890477375704"><ele>32.0</ele><time>2026-04-26T07:01:33Z</time></trkpt><trkpt lat="44.30201645772" lon="9.362901374924535"><ele>32.0</ele><time>2026-04-26T07:01:34Z</time></trkpt><trkpt lat="44.30192196356343" lon="9.36283338169836"><ele>32.0</ele><time>2026-04-26T07:01:35Z</time></trkpt><trkpt lat="44.301818704415844" lon="9.362825047914503"><ele>32.0</ele><time>2026-04-26T07:01:36Z</time></trkpt><trkpt lat="44.301720259273225" lon="9.362805583617474"><ele>32.0</ele><time>2026-04-26T07:01:37Z</time></trkpt><trkpt lat="44.30163162305008" lon="9.362807574572384"><ele>32.0</ele><time>2026-04-26T07:01:38Z</time></trkpt><trkpt lat="44.30155460138266" lon="9.362860283416197"><ele>32.0</ele><time>2026-04-26T07:01:39Z</time></trkpt><trkpt lat="44.301506486069854" lon="9.362976264595778"><ele>32.0</ele><time>2026-04-26T07:01:40Z</time></trkpt><trkpt lat="44.301486802652235" lon="9.363104299788095"><ele>32.0</ele><time>2026-04-26T07:01:41Z</time></trkpt><trkpt lat="44.301460671478154" lon="9.363222285641534"><ele>32.83333333333333</ele><time>2026-04-26T07:01:42Z</time></trkpt><trkpt lat="44.30143990187934" lon="9.363329185327709"><ele>33.666666666666664</ele><time>2026-04-26T07:01:43Z</time></trkpt><trkpt lat="44.30143418219787" lon="9.363422314922078"><ele>34.5</ele><time>2026-04-26T07:01:45Z</time></trkpt><trkpt lat="44.301476248517844" lon="9.363559646090884"><ele>35.333333333333336</ele><time>2026-04-26T07:01:47Z</time></trkpt><trkpt lat="44.30153457547315" lon="9.363656802297271"><ele>36.16666666666667</ele><time>2026-04-26T07:01:48Z</time></trkpt><trkpt lat="44.30160430618307" lon="9.363751383265738"><ele>37.0</ele><time>2026-04-26T07:01:49Z</time></trkpt><trkpt lat="44.301676478358765" lon="9.363841580743648"><ele>38.0</ele><time>2026-04-26T07:01:50Z</time></trkpt><trkpt lat="44.30173736695549" lon="9.363924767359084"><ele>39.0</ele><time>2026-04-26T07:01:51Z</time></trkpt><trkpt lat="44.301791429111994" lon="9.364000242572024"><ele>40.0</ele><time>2026-04-26T07:01:52Z</time></trkpt><trkpt lat="44.30180627152386" lon="9.364096439054276"><ele>41.0</ele><time>2026-04-26T07:01:53Z</time></trkpt><trkpt lat="44.30170971132253" lon="9.364254435040433"><ele>42.0</ele><time>2026-04-26T07:01:55Z</time></trkpt><trkpt lat="44.30161554179489" lon="9.364246506200548"><ele>42.0</ele><time>2026-04-26T07:01:56Z</time></trkpt><trkpt lat="44.30152188317039" lon="9.364242794105815"><ele>42.0</ele><time>2026-04-26T07:01:57Z</time></trkpt><trkpt lat="44.30142741246913" lon="9.364254589131647"><ele>42.0</ele><time>2026-04-26T07:01:58Z</time></trkpt><trkpt lat="44.30134679824694" lon="9.364272401535972"><ele>42.0</ele><time>2026-04-26T07:01:59Z</time></trkpt><trkpt lat="44.30129042396045" lon="9.364349202704302"><ele>42.0</ele><time>2026-04-26T07:02:00Z</time></trkpt><trkpt lat="44.30125422596323" lon="9.36447072960574"><ele>42.0</ele><time>2026-04-26T07:02:01Z</time></trkpt><trkpt lat="44.30122471624312" lon="9.364592785976868"><ele>41.0</ele><time>2026-04-26T07:02:02Z</time></trkpt><trkpt lat="44.30115288411362" lon="9.364688718746665"><ele>40.0</ele><time>2026-04-26T07:02:03Z</time></trkpt><trkpt lat="44.30108023120557" lon="9.364786996180218"><ele>39.0</ele><time>2026-04-26T07:02:04Z</time></trkpt><trkpt lat="44.301011909208825" lon="9.364894454496147"><ele>38.0</ele><time>2026-04-26T07:02:05Z</time></trkpt><trkpt lat="44.30091865124697" lon="9.36496240146546"><ele>37.0</ele><time>2026-04-26T07:02:06Z</time></trkpt><trkpt lat="44.300813233784005" lon="9.364965262154328"><ele>37.0</ele><time>2026-04-26T07:02:07Z</time></trkpt><trkpt lat="44.30071281728208" lon="9.364958533033372"><ele>37.0</ele><time>2026-04-26T07:02:08Z</time></trkpt><trkpt lat="44.30061043237718" lon="9.364967133303951"><ele>37.0</ele><time>2026-04-26T07:02:09Z</time></trkpt><trkpt lat="44.30051765413961" lon="9.364962702063254"><ele>37.0</ele><time>2026-04-26T07:02:10Z</time></trkpt><trkpt lat="44.30043803437021" lon="9.365013486952243"><ele>37.0</ele><time>2026-04-26T07:02:11Z</time></trkpt><trkpt lat="44.30038083042199" lon="9.365116413088812"><ele>35.2</ele><time>2026-04-26T07:02:12Z</time></trkpt><trkpt lat="44.30033888596545" lon="9.365247714295036"><ele>33.400000000000006</ele><time>2026-04-26T07:02:13Z</time></trkpt><trkpt lat="44.300292115345236" lon="9.36537122652063"><ele>31.599999999999998</ele><time>2026-04-26T07:02:14Z</time></trkpt><trkpt lat="44.30025229440109" lon="9.365497932250179"><ele>29.799999999999997</ele><time>2026-04-26T07:02:15Z</time></trkpt><trkpt lat="44.30022747567643" lon="9.365639985764124"><ele>28.0</ele><time>2026-04-26T07:02:16Z</time></trkpt><trkpt lat="44.300222679792604" lon="9.365779089905214"><ele>28.0</ele><time>2026-04-26T07:02:17Z</time></trkpt><trkpt lat="44.30022704422677" lon="9.365915328199435"><ele>27.999999999999996</ele><time>2026-04-26T07:02:18Z</time></trkpt><trkpt lat="44.30022129243104" lon="9.366033061713066"><ele>27.999999999999996</ele><time>2026-04-26T07:02:19Z</time></trkpt><trkpt lat="44.30018052807067" lon="9.366131488303695"><ele>28.0</ele><time>2026-04-26T07:02:20Z</time></trkpt><trkpt lat="44.30010401918754" lon="9.366189028413604"><ele>28.0</ele><time>2026-04-26T07:02:21Z</time></trkpt><trkpt lat="44.30000168580159" lon="9.366168179183706"><ele>28.0</ele><time>2026-04-26T07:02:22Z</time></trkpt><trkpt lat="44.29989671575385" lon="9.366206080960085"><ele>27.999999999999996</ele><time>2026-04-26T07:02:23Z</time></trkpt><trkpt lat="44.29979758311604" lon="9.366215064822004"><ele>27.999999999999996</ele><time>2026-04-26T07:02:24Z</time></trkpt><trkpt lat="44.2997050653991" lon="9.366229454376578"><ele>28.0</ele><time>2026-04-26T07:02:25Z</time></trkpt><trkpt lat="44.29961685071985" lon="9.36624640957123"><ele>28.0</ele><time>2026-04-26T07:02:26Z</time></trkpt><trkpt lat="44.299540018457826" lon="9.366309343121607"><ele>27.0</ele><time>2026-04-26T07:02:27Z</time></trkpt><trkpt lat="44.29948991585425" lon="9.366442777158888"><ele>25.999999999999996</ele><time>2026-04-26T07:02:28Z</time></trkpt><trkpt lat="44.299439821156035" lon="9.366554732689996"><ele>25.0</ele><time>2026-04-26T07:02:29Z</time></trkpt><trkpt lat="44.29938553888847" lon="9.366674547962193"><ele>24.0</ele><time>2026-04-26T07:02:30Z</time></trkpt><trkpt lat="44.29933237377425" lon="9.36678936597347"><ele>23.0</ele><time>2026-04-26T07:02:31Z</time></trkpt><trkpt lat="44.29928117177388" lon="9.366908742117447"><ele>23.0</ele><time>2026-04-26T07:02:32Z</time></trkpt><trkpt lat="44.299227406571006" lon="9.367038239270627"><ele>23.0</ele><time>2026-04-26T07:02:33Z</time></trkpt><trkpt lat="44.299175030247234" lon="9.367150247529517"><ele>23.0</ele><time>2026-04-26T07:02:34Z</time></trkpt><trkpt lat="44.29911947487445" lon="9.367263526099466"><ele>23.0</ele><time>2026-04-26T07:02:35Z</time></trkpt><trkpt lat="44.2990679982289" lon="9.367362293913438"><ele>23.0</ele><time>2026-04-26T07:02:36Z</time></trkpt><trkpt lat="44.299027821438635" lon="9.367479563724304"><ele>22.599999999999998</ele><time>2026-04-26T07:02:37Z</time></trkpt><trkpt lat="44.298985604613094" lon="9.367621396085722"><ele>22.2</ele><time>2026-04-26T07:02:38Z</time></trkpt><trkpt lat="44.2989653020133" lon="9.367751608592727"><ele>21.8</ele><time>2026-04-26T07:02:39Z</time></trkpt><trkpt lat="44.298915504542975" lon="9.36787417713768"><ele>21.4</ele><time>2026-04-26T07:02:40Z</time></trkpt><trkpt lat="44.29887750948562" lon="9.367999166690032"><ele>21.0</ele><time>2026-04-26T07:02:41Z</time></trkpt><trkpt lat="44.29882969239603" lon="9.368087128934627"><ele>21.0</ele><time>2026-04-26T07:02:42Z</time></trkpt><trkpt lat="44.298778016518455" lon="9.36816391155868"><ele>21.0</ele><time>2026-04-26T07:02:43Z</time></trkpt><trkpt lat="44.29863286194596" lon="9.368011786740395"><ele>21.0</ele><time>2026-04-26T07:02:45Z</time></trkpt><trkpt lat="44.29854908109221" lon="9.367954074094015"><ele>21.0</ele><time>2026-04-26T07:02:46Z</time></trkpt><trkpt lat="44.29847289896114" lon="9.367878877179967"><ele>21.0</ele><time>2026-04-26T07:02:47Z</time></trkpt><trkpt lat="44.298403775833805" lon="9.367819726914524"><ele>21.0</ele><time>2026-04-26T07:02:48Z</time></trkpt><trkpt lat="44.29831082491371" lon="9.36782687120795"><ele>21.0</ele><time>2026-04-26T07:02:49Z</time></trkpt><trkpt lat="44.298217805093664" lon="9.367872770462128"><ele>21.0</ele><time>2026-04-26T07:02:50Z</time></trkpt><trkpt lat="44.29812896592129" lon="9.367928974489667"><ele>21.0</ele><time>2026-04-26T07:02:51Z</time></trkpt><trkpt lat="44.29803582837669" lon="9.367973599817038"><ele>21.0</ele><time>2026-04-26T07:02:52Z</time></trkpt><trkpt lat="44.29796663616365" lon="9.368054445221876"><ele>21.0</ele><time>2026-04-26T07:02:53Z</time></trkpt><trkpt lat="44.29789592364881" lon="9.368160422180964"><ele>21.0</ele><time>2026-04-26T07:02:54Z</time></trkpt><trkpt lat="44.29782926526127" lon="9.368258281911404"><ele>21.0</ele><time>2026-04-26T07:02:55Z</time></trkpt><trkpt lat="44.29777486282669" lon="9.368374572878835"><ele>21.0</ele><time>2026-04-26T07:02:56Z</time></trkpt><trkpt lat="44.297726846530765" lon="9.368511749595102"><ele>21.0</ele><time>2026-04-26T07:02:57Z</time></trkpt><trkpt lat="44.29770644881228" lon="9.36863583875208"><ele>21.0</ele><time>2026-04-26T07:02:58Z</time></trkpt><trkpt lat="44.29768268970066" lon="9.368766050638055"><ele>21.0</ele><time>2026-04-26T07:02:59Z</time></trkpt><trkpt lat="44.29764741154167" lon="9.368879647268109"><ele>21.0</ele><time>2026-04-26T07:03:00Z</time></trkpt><trkpt lat="44.2975928531324" lon="9.36898155326907"><ele>21.0</ele><time>2026-04-26T07:03:01Z</time></trkpt><trkpt lat="44.29753320205657" lon="9.369075368305458"><ele>21.0</ele><time>2026-04-26T07:03:02Z</time></trkpt><trkpt lat="44.29748338391317" lon="9.369167107194945"><ele>21.0</ele><time>2026-04-26T07:03:03Z</time></trkpt><trkpt lat="44.29745447638034" lon="9.369278686793791"><ele>23.200000000000003</ele><time>2026-04-26T07:03:04Z</time></trkpt><trkpt lat="44.29745791733746" lon="9.3694014467358"><ele>25.400000000000002</ele><time>2026-04-26T07:03:05Z</time></trkpt><trkpt lat="44.29749408189867" lon="9.36950849560341"><ele>27.6</ele><time>2026-04-26T07:03:06Z</time></trkpt><trkpt lat="44.29755260203227" lon="9.369624646291031"><ele>29.8</ele><time>2026-04-26T07:03:07Z</time></trkpt><trkpt lat="44.29760369771092" lon="9.369726611007577"><ele>32.0</ele><time>2026-04-26T07:03:08Z</time></trkpt><trkpt lat="44.29765195615325" lon="9.369846670889205"><ele>32.166666666666664</ele><time>2026-04-26T07:03:09Z</time></trkpt><trkpt lat="44.29768992274445" lon="9.369966403174486"><ele>32.33333333333333</ele><time>2026-04-26T07:03:10Z</time></trkpt><trkpt lat="44.29770751893509" lon="9.370084713527017"><ele>32.5</ele><time>2026-04-26T07:03:11.001Z</time></trkpt><trkpt lat="44.297693771408674" lon="9.37019967130811"><ele>32.666666666666664</ele><time>2026-04-26T07:03:12.001Z</time></trkpt><trkpt lat="44.29762942517997" lon="9.370280354399307"><ele>32.833333333333336</ele><time>2026-04-26T07:03:13.001Z</time></trkpt><trkpt lat="44.297566453290294" lon="9.37036502619315"><ele>33.0</ele><time>2026-04-26T07:03:14.001Z</time></trkpt><trkpt lat="44.29748276587059" lon="9.370413086346085"><ele>33.0</ele><time>2026-04-26T07:03:15.001Z</time></trkpt><trkpt lat="44.297416957531134" lon="9.37043104619836"><ele>33.0</ele><time>2026-04-26T07:03:16.001Z</time></trkpt><trkpt lat="44.29732434933703" lon="9.370456479398324"><ele>33.0</ele><time>2026-04-26T07:03:18.001Z</time></trkpt><trkpt lat="44.29723850946319" lon="9.370450615229602"><ele>33.0</ele><time>2026-04-26T07:03:45Z</time></trkpt><trkpt lat="44.29711947124879" lon="9.37042983008743"><ele>33.0</ele><time>2026-04-26T07:03:47Z</time></trkpt><trkpt lat="44.29701843306004" lon="9.370522187572545"><ele>31.799999999999997</ele><time>2026-04-26T07:03:49Z</time></trkpt><trkpt lat="44.296966205872295" lon="9.370676347164203"><ele>30.599999999999998</ele><time>2026-04-26T07:03:51Z</time></trkpt><trkpt lat="44.29695318539857" lon="9.370780679728773"><ele>29.400000000000002</ele><time>2026-04-26T07:03:52Z</time></trkpt><trkpt lat="44.296947313852016" lon="9.370872903366012"><ele>28.200000000000003</ele><time>2026-04-26T07:03:53Z</time></trkpt><trkpt lat="44.29693787463202" lon="9.371043475393463"><ele>27.0</ele><time>2026-04-26T07:03:55Z</time></trkpt><trkpt lat="44.29691341228878" lon="9.371126640330045"><ele>27.0</ele><time>2026-04-26T07:03:56Z</time></trkpt><trkpt lat="44.29687132955395" lon="9.371199941066314"><ele>27.0</ele><time>2026-04-26T07:03:58Z</time></trkpt><trkpt lat="44.296809811739195" lon="9.371116355413877"><ele>27.0</ele><time>2026-04-26T07:04:13Z</time></trkpt><trkpt lat="44.29679300050261" lon="9.37100362429152"><ele>27.0</ele><time>2026-04-26T07:04:14Z</time></trkpt><trkpt lat="44.29676873262967" lon="9.370910058376408"><ele>27.0</ele><time>2026-04-26T07:04:15Z</time></trkpt><trkpt lat="44.29673231797296" lon="9.370824167324082"><ele>27.0</ele><time>2026-04-26T07:04:16Z</time></trkpt><trkpt lat="44.29668839175719" lon="9.370747342342012"><ele>27.0</ele><time>2026-04-26T07:04:17Z</time></trkpt><trkpt lat="44.296639930241035" lon="9.370672835418466"><ele>27.0</ele><time>2026-04-26T07:04:18Z</time></trkpt><trkpt lat="44.296571801388104" lon="9.370552652108897"><ele>27.000000000000004</ele><time>2026-04-26T07:04:20Z</time></trkpt><trkpt lat="44.29649210767902" lon="9.370468263527687"><ele>27.000000000000004</ele><time>2026-04-26T07:04:22Z</time></trkpt><trkpt lat="44.29638312735252" lon="9.370489693223474"><ele>27.0</ele><time>2026-04-26T07:04:24Z</time></trkpt><trkpt lat="44.29631840171271" lon="9.370575884729153"><ele>27.0</ele><time>2026-04-26T07:04:26Z</time></trkpt><trkpt lat="44.29625666138407" lon="9.370639514183269"><ele>25.166666666666668</ele><time>2026-04-26T07:04:28Z</time></trkpt><trkpt lat="44.29620448319435" lon="9.370709241551038"><ele>23.333333333333332</ele><time>2026-04-26T07:04:30Z</time></trkpt><trkpt lat="44.296106055962454" lon="9.37073180403973"><ele>21.5</ele><time>2026-04-26T07:04:33Z</time></trkpt><trkpt lat="44.29602735193444" lon="9.370712060899642"><ele>19.666666666666664</ele><time>2026-04-26T07:04:35Z</time></trkpt><trkpt lat="44.295965610638234" lon="9.370678555721385"><ele>17.833333333333332</ele><time>2026-04-26T07:04:37Z</time></trkpt><trkpt lat="44.29589505252865" lon="9.370712763063485"><ele>16.0</ele><time>2026-04-26T07:04:39Z</time></trkpt><trkpt lat="44.2958257900347" lon="9.370768585421184"><ele>16.0</ele><time>2026-04-26T07:04:42Z</time></trkpt><trkpt lat="44.29575599852742" lon="9.370730160972705"><ele>16.0</ele><time>2026-04-26T07:04:44Z</time></trkpt><trkpt lat="44.295676896316" lon="9.37061334043387"><ele>16.0</ele><time>2026-04-26T07:04:46Z</time></trkpt><trkpt lat="44.29558462722892" lon="9.370481900858747"><ele>16.0</ele><time>2026-04-26T07:04:48Z</time></trkpt><trkpt lat="44.29553586939524" lon="9.370415957287133"><ele>16.0</ele><time>2026-04-26T07:04:49Z</time></trkpt><trkpt lat="44.29548683431758" lon="9.370330884175036"><ele>13.999999999999998</ele><time>2026-04-26T07:04:50Z</time></trkpt><trkpt lat="44.29542541445785" lon="9.370259390040202"><ele>12.0</ele><time>2026-04-26T07:04:51Z</time></trkpt><trkpt lat="44.29538132667542" lon="9.37019470832557"><ele>10.0</ele><time>2026-04-26T07:04:52Z</time></trkpt><trkpt lat="44.29533384957502" lon="9.37012290855582"><ele>8.0</ele><time>2026-04-26T07:04:53Z</time></trkpt><trkpt lat="44.295265754712005" lon="9.370037634191627"><ele>6.0</ele><time>2026-04-26T07:04:55Z</time></trkpt><trkpt lat="44.295210936365095" lon="9.369963605751536"><ele>4.0</ele><time>2026-04-26T07:05:03Z</time></trkpt><trkpt lat="44.295108867839296" lon="9.370084258208008"><ele>3.9999999999999996</ele><time>2026-04-26T07:05:05Z</time></trkpt><trkpt lat="44.29506969393671" lon="9.370184327797693"><ele>4.0</ele><time>2026-04-26T07:05:06Z</time></trkpt><trkpt lat="44.295025438428596" lon="9.370275549957698"><ele>4.0</ele><time>2026-04-26T07:05:07Z</time></trkpt><trkpt lat="44.29497273865003" lon="9.370377139238323"><ele>4.0</ele><time>2026-04-26T07:05:08Z</time></trkpt><trkpt lat="44.29491822922443" lon="9.370482456644519"><ele>3.9999999999999996</ele><time>2026-04-26T07:05:09Z</time></trkpt><trkpt lat="44.2948679910415" lon="9.370584410358626"><ele>4.0</ele><time>2026-04-26T07:05:10Z</time></trkpt><trkpt lat="44.294813509896905" lon="9.370694452426713"><ele>3.6</ele><time>2026-04-26T07:05:11Z</time></trkpt><trkpt lat="44.29475975262678" lon="9.370808379828322"><ele>3.2</ele><time>2026-04-26T07:05:12Z</time></trkpt><trkpt lat="44.29470161345448" lon="9.370916929700773"><ele>2.8000000000000003</ele><time>2026-04-26T07:05:13Z</time></trkpt><trkpt lat="44.29464707332335" lon="9.37103409477586"><ele>2.4000000000000004</ele><time>2026-04-26T07:05:14Z</time></trkpt><trkpt lat="44.29458109553059" lon="9.371161562920996"><ele>2.0</ele><time>2026-04-26T07:05:15Z</time></trkpt><trkpt lat="44.294521020559834" lon="9.371284689910286"><ele>2.4000000000000004</ele><time>2026-04-26T07:05:16Z</time></trkpt><trkpt lat="44.294459707848105" lon="9.37140336145519"><ele>2.8000000000000003</ele><time>2026-04-26T07:05:17.001Z</time></trkpt><trkpt lat="44.29439536139502" lon="9.371527408415046"><ele>3.2</ele><time>2026-04-26T07:05:18.001Z</time></trkpt><trkpt lat="44.29433227930021" lon="9.37165662216566"><ele>3.6</ele><time>2026-04-26T07:05:19.001Z</time></trkpt><trkpt lat="44.29426734188828" lon="9.371790051495545"><ele>4.0</ele><time>2026-04-26T07:05:20.001Z</time></trkpt><trkpt lat="44.29419715957976" lon="9.371919427729742"><ele>4.0</ele><time>2026-04-26T07:05:21.001Z</time></trkpt><trkpt lat="44.294130498837156" lon="9.37204168329236"><ele>4.0</ele><time>2026-04-26T07:05:22.001Z</time></trkpt><trkpt lat="44.29405583274003" lon="9.372167125281392"><ele>4.0</ele><time>2026-04-26T07:05:23.001Z</time></trkpt><trkpt lat="44.293982324635486" lon="9.372296418538555"><ele>4.0</ele><time>2026-04-26T07:05:24.001Z</time></trkpt><trkpt lat="44.29390331102268" lon="9.372424625990961"><ele>4.25</ele><time>2026-04-26T07:05:25.001Z</time></trkpt><trkpt lat="44.29382691214998" lon="9.372561327436811"><ele>4.5</ele><time>2026-04-26T07:05:26.001Z</time></trkpt><trkpt lat="44.293748008713386" lon="9.372698482335718"><ele>4.75</ele><time>2026-04-26T07:05:27.001Z</time></trkpt><trkpt lat="44.293673391404646" lon="9.372830810218536"><ele>5.0</ele><time>2026-04-26T07:05:28.001Z</time></trkpt><trkpt lat="44.29359012903245" lon="9.372963139364918"><ele>6.0</ele><time>2026-04-26T07:05:29.001Z</time></trkpt><trkpt lat="44.29350986868645" lon="9.373092336282726"><ele>7.0</ele><time>2026-04-26T07:05:30.001Z</time></trkpt><trkpt lat="44.293435722949866" lon="9.37323302470086"><ele>8.0</ele><time>2026-04-26T07:05:31.001Z</time></trkpt><trkpt lat="44.29336015610405" lon="9.373369654149524"><ele>9.0</ele><time>2026-04-26T07:05:32.001Z</time></trkpt><trkpt lat="44.29328447413905" lon="9.373506994625398"><ele>9.0</ele><time>2026-04-26T07:05:33.001Z</time></trkpt><trkpt lat="44.29321000815163" lon="9.373636110691727"><ele>9.0</ele><time>2026-04-26T07:05:34.001Z</time></trkpt><trkpt lat="44.29313687845702" lon="9.373769030891724"><ele>9.0</ele><time>2026-04-26T07:05:35.001Z</time></trkpt><trkpt lat="44.29306411206013" lon="9.373902770122857"><ele>9.0</ele><time>2026-04-26T07:05:36.001Z</time></trkpt><trkpt lat="44.292990929475124" lon="9.37403098045863"><ele>8.75</ele><time>2026-04-26T07:05:37.001Z</time></trkpt><trkpt lat="44.2929195735308" lon="9.374162074241575"><ele>8.5</ele><time>2026-04-26T07:05:38.001Z</time></trkpt><trkpt lat="44.29284939374369" lon="9.374295748358612"><ele>8.25</ele><time>2026-04-26T07:05:39.001Z</time></trkpt><trkpt lat="44.29277969506852" lon="9.374424169847854"><ele>8.0</ele><time>2026-04-26T07:05:40Z</time></trkpt><trkpt lat="44.29270911595413" lon="9.374556574260946"><ele>9.75</ele><time>2026-04-26T07:05:41Z</time></trkpt><trkpt lat="44.29263141544132" lon="9.37469294817403"><ele>11.5</ele><time>2026-04-26T07:05:42Z</time></trkpt><trkpt lat="44.29255510911525" lon="9.374829974374643"><ele>13.25</ele><time>2026-04-26T07:05:43Z</time></trkpt><trkpt lat="44.292485479136" lon="9.374966657556556"><ele>15.0</ele><time>2026-04-26T07:05:44Z</time></trkpt><trkpt lat="44.292396762031345" lon="9.375109987848784"><ele>15.0</ele><time>2026-04-26T07:05:45Z</time></trkpt><trkpt lat="44.29231219538599" lon="9.37525164906815"><ele>15.0</ele><time>2026-04-26T07:05:46Z</time></trkpt><trkpt lat="44.29223886504597" lon="9.375393415666622"><ele>15.0</ele><time>2026-04-26T07:05:47Z</time></trkpt><trkpt lat="44.29216192681381" lon="9.375532448014157"><ele>15.0</ele><time>2026-04-26T07:05:48Z</time></trkpt><trkpt lat="44.29208745527471" lon="9.375665335889268"><ele>13.25</ele><time>2026-04-26T07:05:49Z</time></trkpt><trkpt lat="44.29201625836199" lon="9.375803241945963"><ele>11.5</ele><time>2026-04-26T07:05:50Z</time></trkpt><trkpt lat="44.291945901136465" lon="9.375936001095134"><ele>9.75</ele><time>2026-04-26T07:05:51Z</time></trkpt><trkpt lat="44.29187602021413" lon="9.37606272452591"><ele>8.0</ele><time>2026-04-26T07:05:52Z</time></trkpt><trkpt lat="44.2918065208418" lon="9.37618642319015"><ele>8.0</ele><time>2026-04-26T07:05:53Z</time></trkpt><trkpt lat="44.29174219197161" lon="9.376305608982264"><ele>8.0</ele><time>2026-04-26T07:05:54Z</time></trkpt><trkpt lat="44.29167766814594" lon="9.376423218605083"><ele>8.0</ele><time>2026-04-26T07:05:55Z</time></trkpt><trkpt lat="44.29161439000013" lon="9.376527299278392"><ele>8.0</ele><time>2026-04-26T07:05:56Z</time></trkpt><trkpt lat="44.29154982990322" lon="9.376633408603853"><ele>8.0</ele><time>2026-04-26T07:05:57Z</time></trkpt><trkpt lat="44.29148130539796" lon="9.37673783396856"><ele>8.4</ele><time>2026-04-26T07:05:58Z</time></trkpt><trkpt lat="44.291414181515435" lon="9.376846763322492"><ele>8.8</ele><time>2026-04-26T07:05:59Z</time></trkpt><trkpt lat="44.29134072998992" lon="9.376950314854458"><ele>9.2</ele><time>2026-04-26T07:06:00Z</time></trkpt><trkpt lat="44.291263169258656" lon="9.377046688561215"><ele>9.6</ele><time>2026-04-26T07:06:01Z</time></trkpt><trkpt lat="44.291162922331345" lon="9.37712790754762"><ele>10.0</ele><time>2026-04-26T07:06:02Z</time></trkpt><trkpt lat="44.29106348626679" lon="9.377206583859774"><ele>10.0</ele><time>2026-04-26T07:06:03Z</time></trkpt><trkpt lat="44.290969193653424" lon="9.377295248838957"><ele>10.0</ele><time>2026-04-26T07:06:04Z</time></trkpt><trkpt lat="44.29087171206648" lon="9.377386530609893"><ele>10.0</ele><time>2026-04-26T07:06:05Z</time></trkpt><trkpt lat="44.29078236713079" lon="9.377496359434742"><ele>10.0</ele><time>2026-04-26T07:06:06Z</time></trkpt><trkpt lat="44.2906920990631" lon="9.377608637643666"><ele>10.0</ele><time>2026-04-26T07:06:07Z</time></trkpt><trkpt lat="44.290603065309874" lon="9.377726862315106"><ele>10.0</ele><time>2026-04-26T07:06:08Z</time></trkpt><trkpt lat="44.29051887120479" lon="9.377852269147018"><ele>10.0</ele><time>2026-04-26T07:06:09Z</time></trkpt><trkpt lat="44.29043224744847" lon="9.37797541446077"><ele>10.0</ele><time>2026-04-26T07:06:10Z</time></trkpt><trkpt lat="44.29034598719926" lon="9.378095339619186"><ele>8.5</ele><time>2026-04-26T07:06:11Z</time></trkpt><trkpt lat="44.29026217413162" lon="9.378219132992283"><ele>7.0</ele><time>2026-04-26T07:06:12Z</time></trkpt><trkpt lat="44.29018021950905" lon="9.378342186881317"><ele>5.5</ele><time>2026-04-26T07:06:13Z</time></trkpt><trkpt lat="44.29009441355574" lon="9.378467503570583"><ele>4.0</ele><time>2026-04-26T07:06:14Z</time></trkpt><trkpt lat="44.29001082202758" lon="9.378584776058377"><ele>4.0</ele><time>2026-04-26T07:06:15Z</time></trkpt><trkpt lat="44.28992487487853" lon="9.378707652899479"><ele>4.0</ele><time>2026-04-26T07:06:16Z</time></trkpt><trkpt lat="44.289843731987744" lon="9.378830174763578"><ele>4.0</ele><time>2026-04-26T07:06:17Z</time></trkpt><trkpt lat="44.289758688633164" lon="9.378958074407947"><ele>4.0</ele><time>2026-04-26T07:06:18Z</time></trkpt><trkpt lat="44.289671141937376" lon="9.37908296822507"><ele>3.5</ele><time>2026-04-26T07:06:19Z</time></trkpt><trkpt lat="44.289583525410016" lon="9.379213907465674"><ele>3.0</ele><time>2026-04-26T07:06:20Z</time></trkpt><trkpt lat="44.28949631477233" lon="9.379344341237074"><ele>2.5</ele><time>2026-04-26T07:06:21Z</time></trkpt><trkpt lat="44.28941205104185" lon="9.379470589681791"><ele>2.0</ele><time>2026-04-26T07:06:22Z</time></trkpt><trkpt lat="44.28932257102185" lon="9.379595402991166"><ele>3.5</ele><time>2026-04-26T07:06:23Z</time></trkpt><trkpt lat="44.2892342713422" lon="9.379720325317415"><ele>5.0</ele><time>2026-04-26T07:06:24Z</time></trkpt><trkpt lat="44.28914259872152" lon="9.379847981959372"><ele>6.5</ele><time>2026-04-26T07:06:25Z</time></trkpt><trkpt lat="44.28905102695331" lon="9.379983506434266"><ele>8.0</ele><time>2026-04-26T07:06:26Z</time></trkpt><trkpt lat="44.28895704971666" lon="9.380119360431351"><ele>7.25</ele><time>2026-04-26T07:06:27Z</time></trkpt><trkpt lat="44.288857850583" lon="9.380255564444195"><ele>6.5</ele><time>2026-04-26T07:06:28Z</time></trkpt><trkpt lat="44.28876648993758" lon="9.380394176432048"><ele>5.75</ele><time>2026-04-26T07:06:29Z</time></trkpt><trkpt lat="44.288674083176105" lon="9.380530330005891"><ele>5.0</ele><time>2026-04-26T07:06:30Z</time></trkpt><trkpt lat="44.288579228516376" lon="9.380662707558661"><ele>8.0</ele><time>2026-04-26T07:06:31Z</time></trkpt><trkpt lat="44.28848751048607" lon="9.3807922904561"><ele>11.0</ele><time>2026-04-26T07:06:32Z</time></trkpt><trkpt lat="44.28839924809687" lon="9.38092093650673"><ele>14.0</ele><time>2026-04-26T07:06:33Z</time></trkpt><trkpt lat="44.288305252779665" lon="9.381046044934461"><ele>17.0</ele><time>2026-04-26T07:06:34Z</time></trkpt><trkpt lat="44.288196961233275" lon="9.381150763364174"><ele>18.25</ele><time>2026-04-26T07:06:35Z</time></trkpt><trkpt lat="44.28808463675616" lon="9.381239908164705"><ele>19.5</ele><time>2026-04-26T07:06:36Z</time></trkpt><trkpt lat="44.28795283392025" lon="9.38130207579588"><ele>20.75</ele><time>2026-04-26T07:06:37Z</time></trkpt><trkpt lat="44.28783458542176" lon="9.381359530275992"><ele>22.0</ele><time>2026-04-26T07:06:38Z</time></trkpt><trkpt lat="44.28769445153542" lon="9.381410330850278"><ele>22.0</ele><time>2026-04-26T07:06:39Z</time></trkpt><trkpt lat="44.28755424937197" lon="9.381417046972992"><ele>22.0</ele><time>2026-04-26T07:06:40Z</time></trkpt><trkpt lat="44.287417451495806" lon="9.38143989209424"><ele>22.0</ele><time>2026-04-26T07:06:41Z</time></trkpt><trkpt lat="44.28727714040443" lon="9.381446690008463"><ele>22.0</ele><time>2026-04-26T07:06:42Z</time></trkpt><trkpt lat="44.28714557722056" lon="9.381448682520022"><ele>19.5</ele><time>2026-04-26T07:06:43Z</time></trkpt><trkpt lat="44.28701391769781" lon="9.381466989764693"><ele>17.0</ele><time>2026-04-26T07:06:44Z</time></trkpt><trkpt lat="44.286884255598785" lon="9.381490232852192"><ele>14.5</ele><time>2026-04-26T07:06:45Z</time></trkpt><trkpt lat="44.28675594948907" lon="9.381538905351315"><ele>12.0</ele><time>2026-04-26T07:06:46Z</time></trkpt><trkpt lat="44.286634804859645" lon="9.381598735991789"><ele>12.0</ele><time>2026-04-26T07:06:47Z</time></trkpt><trkpt lat="44.28650757936081" lon="9.381661378172256"><ele>12.0</ele><time>2026-04-26T07:06:48Z</time></trkpt><trkpt lat="44.2863846139302" lon="9.38173093543173"><ele>12.0</ele><time>2026-04-26T07:06:49Z</time></trkpt><trkpt lat="44.286260265195395" lon="9.3817994318254"><ele>12.0</ele><time>2026-04-26T07:06:50Z</time></trkpt><trkpt lat="44.28613534824106" lon="9.38186799077763"><ele>13.0</ele><time>2026-04-26T07:06:51Z</time></trkpt><trkpt lat="44.28601579085296" lon="9.381936519710996"><ele>14.0</ele><time>2026-04-26T07:06:52Z</time></trkpt><trkpt lat="44.28591324991935" lon="9.382033043753712"><ele>15.0</ele><time>2026-04-26T07:06:53Z</time></trkpt><trkpt lat="44.28583136932" lon="9.382166704871509"><ele>16.0</ele><time>2026-04-26T07:06:54Z</time></trkpt><trkpt lat="44.285762770172475" lon="9.38232351527044"><ele>16.0</ele><time>2026-04-26T07:06:55Z</time></trkpt><trkpt lat="44.2857070939349" lon="9.38248168844928"><ele>16.0</ele><time>2026-04-26T07:06:56Z</time></trkpt><trkpt lat="44.28565071524927" lon="9.382648687103464"><ele>16.0</ele><time>2026-04-26T07:06:57Z</time></trkpt><trkpt lat="44.28559024999546" lon="9.382821314079381"><ele>16.0</ele><time>2026-04-26T07:06:58Z</time></trkpt><trkpt lat="44.28553632845966" lon="9.382992815272486"><ele>13.25</ele><time>2026-04-26T07:06:59Z</time></trkpt><trkpt lat="44.28546941451403" lon="9.383167826363103"><ele>10.5</ele><time>2026-04-26T07:07:00Z</time></trkpt><trkpt lat="44.28541352912939" lon="9.383339072333724"><ele>7.75</ele><time>2026-04-26T07:07:01Z</time></trkpt><trkpt lat="44.2853554941484" lon="9.383510784854272"><ele>5.0</ele><time>2026-04-26T07:07:02Z</time></trkpt><trkpt lat="44.28529635785668" lon="9.383675906799587"><ele>5.0</ele><time>2026-04-26T07:07:03Z</time></trkpt><trkpt lat="44.28524066862853" lon="9.383834402810825"><ele>5.0</ele><time>2026-04-26T07:07:04Z</time></trkpt><trkpt lat="44.285185928459825" lon="9.384001406591112"><ele>5.0</ele><time>2026-04-26T07:07:05Z</time></trkpt><trkpt lat="44.28513095588215" lon="9.384171503325502"><ele>5.0</ele><time>2026-04-26T07:07:06Z</time></trkpt><trkpt lat="44.28506565281203" lon="9.384340484792663"><ele>4.5</ele><time>2026-04-26T07:07:07Z</time></trkpt><trkpt lat="44.28494967831329" lon="9.384483211287689"><ele>4.0</ele><time>2026-04-26T07:07:08Z</time></trkpt><trkpt lat="44.284868947117126" lon="9.384646573095944"><ele>3.5</ele><time>2026-04-26T07:07:09Z</time></trkpt><trkpt lat="44.28479655068249" lon="9.384799394588127"><ele>3.0</ele><time>2026-04-26T07:07:10Z</time></trkpt><trkpt lat="44.28469661205094" lon="9.384915865079506"><ele>3.0</ele><time>2026-04-26T07:07:11Z</time></trkpt><trkpt lat="44.284651284682916" lon="9.385028618054125"><ele>3.0</ele><time>2026-04-26T07:07:12Z</time></trkpt><trkpt lat="44.28459754055471" lon="9.385147295317733"><ele>3.0</ele><time>2026-04-26T07:07:13Z</time></trkpt><trkpt lat="44.28454266681164" lon="9.385254831949947"><ele>3.0</ele><time>2026-04-26T07:07:14Z</time></trkpt><trkpt lat="44.28449287800742" lon="9.385367983821093"><ele>3.0</ele><time>2026-04-26T07:07:15Z</time></trkpt><trkpt lat="44.28442016047296" lon="9.385531134174627"><ele>6.75</ele><time>2026-04-26T07:07:16Z</time></trkpt><trkpt lat="44.28433112652089" lon="9.385665505581194"><ele>10.5</ele><time>2026-04-26T07:07:17Z</time></trkpt><trkpt lat="44.284274167561044" lon="9.385846717812985"><ele>14.25</ele><time>2026-04-26T07:07:18Z</time></trkpt><trkpt lat="44.28420432500287" lon="9.385972463420206"><ele>18.0</ele><time>2026-04-26T07:07:19Z</time></trkpt><trkpt lat="44.284167755678936" lon="9.386079229005247"><ele>18.0</ele><time>2026-04-26T07:07:20Z</time></trkpt><trkpt lat="44.28407330536078" lon="9.386144615181639"><ele>18.0</ele><time>2026-04-26T07:07:21Z</time></trkpt><trkpt lat="44.28398937592481" lon="9.386283311846894"><ele>18.0</ele><time>2026-04-26T07:07:22Z</time></trkpt><trkpt lat="44.283915904654265" lon="9.386409378257442"><ele>18.0</ele><time>2026-04-26T07:07:23.001Z</time></trkpt><trkpt lat="44.28383768527598" lon="9.38654703059163"><ele>17.75</ele><time>2026-04-26T07:07:24.001Z</time></trkpt><trkpt lat="44.28376212503687" lon="9.38667993482385"><ele>17.5</ele><time>2026-04-26T07:07:25.001Z</time></trkpt><trkpt lat="44.283686671281664" lon="9.386818226633647"><ele>17.25</ele><time>2026-04-26T07:07:26.001Z</time></trkpt><trkpt lat="44.2835780734714" lon="9.387010401000838"><ele>17.0</ele><time>2026-04-26T07:07:27.001Z</time></trkpt><trkpt lat="44.28342124891311" lon="9.387300683621413"><ele>9.5</ele><time>2026-04-26T07:07:28.001Z</time></trkpt><trkpt lat="44.283311045127896" lon="9.387478192145577"><ele>2.0</ele><time>2026-04-26T07:07:29.001Z</time></trkpt><trkpt lat="44.283047110257584" lon="9.387765462608524"><ele>2.0</ele><time>2026-04-26T07:07:30.001Z</time></trkpt><trkpt lat="44.282921529038234" lon="9.387869290647872"><ele>2.0</ele><time>2026-04-26T07:07:31.001Z</time></trkpt><trkpt lat="44.28281393326164" lon="9.38795824871195"><ele>2.0</ele><time>2026-04-26T07:07:32.001Z</time></trkpt><trkpt lat="44.282672700674404" lon="9.388082136548956"><ele>2.0</ele><time>2026-04-26T07:07:33.001Z</time></trkpt><trkpt lat="44.28254662777908" lon="9.388212836993693"><ele>1.75</ele><time>2026-04-26T07:07:34.001Z</time></trkpt><trkpt lat="44.28243291903621" lon="9.388352016667385"><ele>1.5</ele><time>2026-04-26T07:07:35Z</time></trkpt><trkpt lat="44.28231766551621" lon="9.388520433548077"><ele>1.25</ele><time>2026-04-26T07:07:36Z</time></trkpt><trkpt lat="44.282245219176815" lon="9.388650662358444"><ele>1.0</ele><time>2026-04-26T07:07:37Z</time></trkpt><trkpt lat="44.28217452271359" lon="9.388792490463867"><ele>2.3333333333333335</ele><time>2026-04-26T07:07:38Z</time></trkpt><trkpt lat="44.282118747560446" lon="9.388923781462758"><ele>3.666666666666667</ele><time>2026-04-26T07:07:39Z</time></trkpt><trkpt lat="44.28201406812928" lon="9.389182388126397"><ele>5.0</ele><time>2026-04-26T07:07:40Z</time></trkpt><trkpt lat="44.281933484577955" lon="9.389388310669204"><ele>5.0</ele><time>2026-04-26T07:07:41Z</time></trkpt><trkpt lat="44.28185594671548" lon="9.389570987593155"><ele>5.0</ele><time>2026-04-26T07:07:42Z</time></trkpt><trkpt lat="44.28177282258396" lon="9.389727951771171"><ele>5.0</ele><time>2026-04-26T07:07:43Z</time></trkpt><trkpt lat="44.2816826653758" lon="9.389869137805928"><ele>5.0</ele><time>2026-04-26T07:07:44Z</time></trkpt><trkpt lat="44.28158558749317" lon="9.390005177755661"><ele>5.25</ele><time>2026-04-26T07:07:45Z</time></trkpt><trkpt lat="44.28149077310757" lon="9.390143514396211"><ele>5.5</ele><time>2026-04-26T07:07:46Z</time></trkpt><trkpt lat="44.28139383054315" lon="9.390279196145713"><ele>5.75</ele><time>2026-04-26T07:07:47Z</time></trkpt><trkpt lat="44.281301467230996" lon="9.390409774963718"><ele>6.0</ele><time>2026-04-26T07:07:48Z</time></trkpt><trkpt lat="44.28121564255271" lon="9.390535140194064"><ele>5.6</ele><time>2026-04-26T07:07:49Z</time></trkpt><trkpt lat="44.28113397056683" lon="9.3906590476318"><ele>5.199999999999999</ele><time>2026-04-26T07:07:50Z</time></trkpt><trkpt lat="44.28105466560417" lon="9.390765090526646"><ele>4.800000000000001</ele><time>2026-04-26T07:07:51Z</time></trkpt><trkpt lat="44.28098397263712" lon="9.390867487128462"><ele>4.4</ele><time>2026-04-26T07:07:52Z</time></trkpt><trkpt lat="44.280910672122005" lon="9.390951308260034"><ele>4.0</ele><time>2026-04-26T07:07:53Z</time></trkpt><trkpt lat="44.28082761462049" lon="9.391015301817307"><ele>4.0</ele><time>2026-04-26T07:07:54Z</time></trkpt><trkpt lat="44.280733395624914" lon="9.391062519819588"><ele>4.0</ele><time>2026-04-26T07:07:55Z</time></trkpt><trkpt lat="44.28064051145624" lon="9.39112956938603"><ele>4.0</ele><time>2026-04-26T07:07:56Z</time></trkpt><trkpt lat="44.28056731329746" lon="9.391244571693534"><ele>4.0</ele><time>2026-04-26T07:07:57Z</time></trkpt><trkpt lat="44.28050850190142" lon="9.391382091157816"><ele>4.0</ele><time>2026-04-26T07:07:58Z</time></trkpt><trkpt lat="44.28041749813273" lon="9.391484234924379"><ele>4.0</ele><time>2026-04-26T07:07:59Z</time></trkpt><trkpt lat="44.28029487653619" lon="9.3915587414852"><ele>4.0</ele><time>2026-04-26T07:08:00Z</time></trkpt><trkpt lat="44.28017580214163" lon="9.3916403165988"><ele>4.0</ele><time>2026-04-26T07:08:01Z</time></trkpt><trkpt lat="44.280053849792466" lon="9.391722714374412"><ele>4.0</ele><time>2026-04-26T07:08:02Z</time></trkpt><trkpt lat="44.27993206274174" lon="9.391807053760516"><ele>4.0</ele><time>2026-04-26T07:08:03Z</time></trkpt><trkpt lat="44.279814865523726" lon="9.391893464053222"><ele>4.0</ele><time>2026-04-26T07:08:04Z</time></trkpt><trkpt lat="44.279701462426615" lon="9.391980463887208"><ele>4.0</ele><time>2026-04-26T07:08:05Z</time></trkpt><trkpt lat="44.27958646746992" lon="9.392062454180307"><ele>4.0</ele><time>2026-04-26T07:08:06Z</time></trkpt><trkpt lat="44.27947204350965" lon="9.392147065549057"><ele>4.25</ele><time>2026-04-26T07:08:07Z</time></trkpt><trkpt lat="44.279359332102985" lon="9.392232235566238"><ele>4.5</ele><time>2026-04-26T07:08:08Z</time></trkpt><trkpt lat="44.27924698347506" lon="9.392315009185758"><ele>4.75</ele><time>2026-04-26T07:08:09Z</time></trkpt><trkpt lat="44.27914384116553" lon="9.392394293862953"><ele>5.0</ele><time>2026-04-26T07:08:10Z</time></trkpt><trkpt lat="44.2790288898516" lon="9.392476713766987"><ele>4.5</ele><time>2026-04-26T07:08:11Z</time></trkpt><trkpt lat="44.27892186588755" lon="9.392556480060962"><ele>4.0</ele><time>2026-04-26T07:08:12Z</time></trkpt><trkpt lat="44.27881569495101" lon="9.392638518292195"><ele>3.5</ele><time>2026-04-26T07:08:13Z</time></trkpt><trkpt lat="44.27871065779831" lon="9.39272048301526"><ele>3.0</ele><time>2026-04-26T07:08:14Z</time></trkpt><trkpt lat="44.27861067274849" lon="9.392802038802632"><ele>3.0</ele><time>2026-04-26T07:08:15Z</time></trkpt><trkpt lat="44.27852222430571" lon="9.392882823684658"><ele>3.0</ele><time>2026-04-26T07:08:16Z</time></trkpt><trkpt lat="44.278436741890104" lon="9.392952799586677"><ele>3.0</ele><time>2026-04-26T07:08:17Z</time></trkpt><trkpt lat="44.27835826921582" lon="9.393011579962565"><ele>3.0</ele><time>2026-04-26T07:08:18Z</time></trkpt><trkpt lat="44.278282567859456" lon="9.393068111639911"><ele>3.0</ele><time>2026-04-26T07:08:19Z</time></trkpt><trkpt lat="44.27821337633308" lon="9.393117665723324"><ele>3.8</ele><time>2026-04-26T07:08:20Z</time></trkpt><trkpt lat="44.27814652746963" lon="9.393166047431297"><ele>4.6</ele><time>2026-04-26T07:08:21Z</time></trkpt><trkpt lat="44.27803028526324" lon="9.393243461133363"><ele>5.3999999999999995</ele><time>2026-04-26T07:08:23Z</time></trkpt><trkpt lat="44.27795168914659" lon="9.393237945262921"><ele>6.199999999999999</ele><time>2026-04-26T07:08:25Z</time></trkpt><trkpt lat="44.27788528668849" lon="9.393259890709272"><ele>7.0</ele><time>2026-04-26T07:08:28Z</time></trkpt><trkpt lat="44.277805445247665" lon="9.393341813542154"><ele>7.0</ele><time>2026-04-26T07:13:19.999Z</time></trkpt><trkpt lat="44.27776171758806" lon="9.393424661265865"><ele>6.999999999999999</ele><time>2026-04-26T07:13:22.999Z</time></trkpt><trkpt lat="44.27765946803111" lon="9.393504967284157"><ele>6.999999999999999</ele><time>2026-04-26T07:13:24.999Z</time></trkpt><trkpt lat="44.27758948407083" lon="9.393566701820331"><ele>7.0</ele><time>2026-04-26T07:13:25.999Z</time></trkpt><trkpt lat="44.277505316063824" lon="9.39362358050125"><ele>7.0</ele><time>2026-04-26T07:13:26.999Z</time></trkpt><trkpt lat="44.27742515026543" lon="9.393683369876033"><ele>7.0</ele><time>2026-04-26T07:13:27.999Z</time></trkpt><trkpt lat="44.27733933393358" lon="9.393745338753297"><ele>6.999999999999999</ele><time>2026-04-26T07:13:28.999Z</time></trkpt><trkpt lat="44.27725049125122" lon="9.393805164091566"><ele>6.999999999999999</ele><time>2026-04-26T07:13:29.999Z</time></trkpt><trkpt lat="44.27716259271038" lon="9.393864448122795"><ele>7.0</ele><time>2026-04-26T07:13:30.999Z</time></trkpt><trkpt lat="44.277073244939466" lon="9.393931802865374"><ele>7.0</ele><time>2026-04-26T07:13:31.999Z</time></trkpt><trkpt lat="44.27697594220417" lon="9.393994242925912"><ele>6.8</ele><time>2026-04-26T07:13:32.999Z</time></trkpt><trkpt lat="44.276874129403865" lon="9.394066935649448"><ele>6.6</ele><time>2026-04-26T07:13:33.999Z</time></trkpt><trkpt lat="44.276780106422784" lon="9.39413503951516"><ele>6.3999999999999995</ele><time>2026-04-26T07:13:34.999Z</time></trkpt><trkpt lat="44.27668004408717" lon="9.394210428259425"><ele>6.199999999999999</ele><time>2026-04-26T07:13:35.999Z</time></trkpt><trkpt lat="44.27657846553437" lon="9.394283793115337"><ele>6.0</ele><time>2026-04-26T07:13:36.999Z</time></trkpt><trkpt lat="44.27648134948306" lon="9.394357522894161"><ele>5.8</ele><time>2026-04-26T07:13:37.999Z</time></trkpt><trkpt lat="44.27638989521382" lon="9.394435992021469"><ele>5.6</ele><time>2026-04-26T07:13:38.999Z</time></trkpt><trkpt lat="44.27629258854354" lon="9.394499519200581"><ele>5.4</ele><time>2026-04-26T07:13:40.001Z</time></trkpt><trkpt lat="44.27619622296623" lon="9.394536764636358"><ele>5.2</ele><time>2026-04-26T07:13:41.001Z</time></trkpt><trkpt lat="44.276102297525036" lon="9.394618789460155"><ele>5.0</ele><time>2026-04-26T07:13:42.001Z</time></trkpt><trkpt lat="44.276015306692976" lon="9.394684332767111"><ele>5.6</ele><time>2026-04-26T07:13:43.001Z</time></trkpt><trkpt lat="44.27592212576921" lon="9.394753321732443"><ele>6.2</ele><time>2026-04-26T07:13:44.001Z</time></trkpt><trkpt lat="44.27582877187666" lon="9.394820423171854"><ele>6.800000000000001</ele><time>2026-04-26T07:13:45.001Z</time></trkpt><trkpt lat="44.27573199257297" lon="9.394888970087731"><ele>7.4</ele><time>2026-04-26T07:13:46.001Z</time></trkpt><trkpt lat="44.27563806105585" lon="9.394962618741982"><ele>8.0</ele><time>2026-04-26T07:13:47.001Z</time></trkpt><trkpt lat="44.27554460329687" lon="9.395032131525902"><ele>8.0</ele><time>2026-04-26T07:13:48.001Z</time></trkpt><trkpt lat="44.27544462243651" lon="9.395102698155432"><ele>8.0</ele><time>2026-04-26T07:13:49.001Z</time></trkpt><trkpt lat="44.275347425545846" lon="9.395173788219024"><ele>8.0</ele><time>2026-04-26T07:13:50.001Z</time></trkpt><trkpt lat="44.27524502658596" lon="9.395252581152734"><ele>8.0</ele><time>2026-04-26T07:13:51.001Z</time></trkpt><trkpt lat="44.275143680026545" lon="9.395332587973684"><ele>8.0</ele><time>2026-04-26T07:13:52.001Z</time></trkpt><trkpt lat="44.2750373089532" lon="9.395406357456737"><ele>8.0</ele><time>2026-04-26T07:13:53.001Z</time></trkpt><trkpt lat="44.274930320522756" lon="9.395481717781822"><ele>8.0</ele><time>2026-04-26T07:13:54.001Z</time></trkpt><trkpt lat="44.27481359626477" lon="9.395558111965116"><ele>8.0</ele><time>2026-04-26T07:13:55.001Z</time></trkpt><trkpt lat="44.274707564522004" lon="9.39562591542397"><ele>7.5</ele><time>2026-04-26T07:13:56.001Z</time></trkpt><trkpt lat="44.27461028863743" lon="9.395700746038584"><ele>7.0</ele><time>2026-04-26T07:13:57.001Z</time></trkpt><trkpt lat="44.2745070541295" lon="9.395777837384953"><ele>6.5</ele><time>2026-04-26T07:13:58Z</time></trkpt><trkpt lat="44.274408066025934" lon="9.395859691550427"><ele>6.0</ele><time>2026-04-26T07:13:59Z</time></trkpt><trkpt lat="44.27430858336572" lon="9.395939289287933"><ele>6.0</ele><time>2026-04-26T07:14:00Z</time></trkpt><trkpt lat="44.27421278740652" lon="9.396022266952688"><ele>6.0</ele><time>2026-04-26T07:14:01Z</time></trkpt><trkpt lat="44.27411555429256" lon="9.396099283835886"><ele>6.0</ele><time>2026-04-26T07:14:02Z</time></trkpt><trkpt lat="44.27402349361051" lon="9.396173136646727"><ele>6.0</ele><time>2026-04-26T07:14:03Z</time></trkpt><trkpt lat="44.273931584414896" lon="9.39624650411658"><ele>6.0</ele><time>2026-04-26T07:14:04Z</time></trkpt><trkpt lat="44.27384134047613" lon="9.396311892079085"><ele>5.8</ele><time>2026-04-26T07:14:05Z</time></trkpt><trkpt lat="44.27375517354492" lon="9.396373918979005"><ele>5.6</ele><time>2026-04-26T07:14:06Z</time></trkpt><trkpt lat="44.273673245776756" lon="9.396436326082187"><ele>5.4</ele><time>2026-04-26T07:14:07Z</time></trkpt><trkpt lat="44.27359642362158" lon="9.396498971181439"><ele>5.2</ele><time>2026-04-26T07:14:08Z</time></trkpt><trkpt lat="44.27352124916055" lon="9.396561477267994"><ele>5.0</ele><time>2026-04-26T07:14:09Z</time></trkpt><trkpt lat="44.27344563461178" lon="9.396618314393592"><ele>5.0</ele><time>2026-04-26T07:14:10Z</time></trkpt><trkpt lat="44.273372559136966" lon="9.396680977047705"><ele>5.0</ele><time>2026-04-26T07:14:11Z</time></trkpt><trkpt lat="44.27329651676512" lon="9.396730069099673"><ele>5.0</ele><time>2026-04-26T07:14:12Z</time></trkpt><trkpt lat="44.273210422671106" lon="9.3967690331756"><ele>5.0</ele><time>2026-04-26T07:14:13Z</time></trkpt><trkpt lat="44.2731246649577" lon="9.396796171642896"><ele>5.0</ele><time>2026-04-26T07:14:14Z</time></trkpt><trkpt lat="44.27302847889111" lon="9.39683758747254"><ele>5.0</ele><time>2026-04-26T07:14:15Z</time></trkpt><trkpt lat="44.27294961838656" lon="9.396917835688713"><ele>5.0</ele><time>2026-04-26T07:14:16Z</time></trkpt><trkpt lat="44.272882448521706" lon="9.397034140175029"><ele>5.0</ele><time>2026-04-26T07:14:17Z</time></trkpt><trkpt lat="44.27282563510859" lon="9.397144368244025"><ele>5.0</ele><time>2026-04-26T07:14:18Z</time></trkpt><trkpt lat="44.272773255934766" lon="9.39722980484264"><ele>5.0</ele><time>2026-04-26T07:14:19Z</time></trkpt><trkpt lat="44.27272948455745" lon="9.397308194029401"><ele>5.0</ele><time>2026-04-26T07:14:20Z</time></trkpt><trkpt lat="44.27268978111317" lon="9.397394819916952"><ele>5.0</ele><time>2026-04-26T07:14:22Z</time></trkpt><trkpt lat="44.272649171136685" lon="9.397496152147001"><ele>5.166666666666667</ele><time>2026-04-26T07:14:48Z</time></trkpt><trkpt lat="44.2726001880326" lon="9.39757881612717"><ele>5.333333333333334</ele><time>2026-04-26T07:14:49Z</time></trkpt><trkpt lat="44.272563118987996" lon="9.397677916476546"><ele>5.5</ele><time>2026-04-26T07:14:50Z</time></trkpt><trkpt lat="44.272524158658456" lon="9.397773005216838"><ele>5.666666666666667</ele><time>2026-04-26T07:14:51Z</time></trkpt><trkpt lat="44.2724791471675" lon="9.39787723536952"><ele>5.833333333333333</ele><time>2026-04-26T07:14:52Z</time></trkpt><trkpt lat="44.27242848233087" lon="9.397994026709952"><ele>6.0</ele><time>2026-04-26T07:14:53Z</time></trkpt><trkpt lat="44.27238192521113" lon="9.398118829050405"><ele>6.0</ele><time>2026-04-26T07:14:53.999Z</time></trkpt><trkpt lat="44.27234037956022" lon="9.39825485243371"><ele>6.0</ele><time>2026-04-26T07:14:54.999Z</time></trkpt><trkpt lat="44.27230117232092" lon="9.398412720636108"><ele>6.0</ele><time>2026-04-26T07:14:55.999Z</time></trkpt><trkpt lat="44.27224630034879" lon="9.398559761596674"><ele>6.0</ele><time>2026-04-26T07:14:56.999Z</time></trkpt><trkpt lat="44.272178337711324" lon="9.398724601357774"><ele>7.0</ele><time>2026-04-26T07:14:57.999Z</time></trkpt><trkpt lat="44.272143767645396" lon="9.39890124681283"><ele>8.0</ele><time>2026-04-26T07:14:58.999Z</time></trkpt><trkpt lat="44.27210029535625" lon="9.399015691407632"><ele>9.0</ele><time>2026-04-26T07:14:59.999Z</time></trkpt><trkpt lat="44.27208659417278" lon="9.399132574419435"><ele>10.0</ele><time>2026-04-26T07:15:00.999Z</time></trkpt><trkpt lat="44.2720479612694" lon="9.399249525538124"><ele>11.0</ele><time>2026-04-26T07:15:01.999Z</time></trkpt><trkpt lat="44.27201834281411" lon="9.399399499380914"><ele>11.0</ele><time>2026-04-26T07:15:02.999Z</time></trkpt><trkpt lat="44.27199420099781" lon="9.399533897259172"><ele>11.0</ele><time>2026-04-26T07:15:03.999Z</time></trkpt><trkpt lat="44.27197326159175" lon="9.399678730386189"><ele>11.0</ele><time>2026-04-26T07:15:04.999Z</time></trkpt><trkpt lat="44.27195529343829" lon="9.399806268689847"><ele>11.0</ele><time>2026-04-26T07:15:05.999Z</time></trkpt><trkpt lat="44.27193688281761" lon="9.399933442683238"><ele>11.0</ele><time>2026-04-26T07:15:06.999Z</time></trkpt><trkpt lat="44.27191686197136" lon="9.400066775914652"><ele>10.200000000000001</ele><time>2026-04-26T07:15:07.999Z</time></trkpt><trkpt lat="44.27189703046093" lon="9.400198848267296"><ele>9.4</ele><time>2026-04-26T07:15:08.999Z</time></trkpt><trkpt lat="44.271876618320114" lon="9.400334774658857"><ele>8.6</ele><time>2026-04-26T07:15:09.999Z</time></trkpt><trkpt lat="44.271855395793764" lon="9.400476084128625"><ele>7.8</ele><time>2026-04-26T07:15:10.999Z</time></trkpt><trkpt lat="44.27183344758287" lon="9.40062222554944"><ele>7.0</ele><time>2026-04-26T07:15:11.999Z</time></trkpt><trkpt lat="44.27181152129343" lon="9.400768221377797"><ele>6.75</ele><time>2026-04-26T07:15:12.999Z</time></trkpt><trkpt lat="44.271808777920654" lon="9.400926468850459"><ele>6.5</ele><time>2026-04-26T07:15:13.999Z</time></trkpt><trkpt lat="44.27178010932654" lon="9.401076670612412"><ele>6.25</ele><time>2026-04-26T07:15:14.999Z</time></trkpt><trkpt lat="44.271752978645104" lon="9.401230264427463"><ele>6.0</ele><time>2026-04-26T07:15:15.999Z</time></trkpt><trkpt lat="44.27172785206389" lon="9.40138361766202"><ele>6.0</ele><time>2026-04-26T07:15:16.999Z</time></trkpt><trkpt lat="44.27170895945519" lon="9.401523726755576"><ele>6.0</ele><time>2026-04-26T07:15:17.999Z</time></trkpt><trkpt lat="44.271691862137004" lon="9.40166711744164"><ele>6.0</ele><time>2026-04-26T07:15:18.999Z</time></trkpt><trkpt lat="44.27167097099426" lon="9.401807609297148"><ele>6.0</ele><time>2026-04-26T07:15:19.999Z</time></trkpt><trkpt lat="44.271647685755816" lon="9.401945627342982"><ele>6.0</ele><time>2026-04-26T07:15:20.999Z</time></trkpt><trkpt lat="44.271626512383044" lon="9.402090706208423"><ele>6.166666666666667</ele><time>2026-04-26T07:15:21.999Z</time></trkpt><trkpt lat="44.27161002860454" lon="9.402227914808464"><ele>6.333333333333334</ele><time>2026-04-26T07:15:22.999Z</time></trkpt><trkpt lat="44.27159411953063" lon="9.402360345909543"><ele>6.5</ele><time>2026-04-26T07:15:23.999Z</time></trkpt><trkpt lat="44.27158296644457" lon="9.402482412209427"><ele>6.666666666666667</ele><time>2026-04-26T07:15:24.999Z</time></trkpt><trkpt lat="44.27156851488568" lon="9.40260036502505"><ele>6.833333333333334</ele><time>2026-04-26T07:15:25.999Z</time></trkpt><trkpt lat="44.27156178211239" lon="9.402702916472656"><ele>7.0</ele><time>2026-04-26T07:15:26.999Z</time></trkpt><trkpt lat="44.27154738213659" lon="9.402793966389691"><ele>7.000000000000001</ele><time>2026-04-26T07:15:27.999Z</time></trkpt><trkpt lat="44.27152763794375" lon="9.40288553360473"><ele>7.0</ele><time>2026-04-26T07:15:28.999Z</time></trkpt><trkpt lat="44.27149728886084" lon="9.402975466151418"><ele>7.0</ele><time>2026-04-26T07:15:29.999Z</time></trkpt><trkpt lat="44.27147368659507" lon="9.40307777365491"><ele>7.0</ele><time>2026-04-26T07:15:30.999Z</time></trkpt><trkpt lat="44.27146298060859" lon="9.403178972326836"><ele>7.000000000000001</ele><time>2026-04-26T07:15:31.999Z</time></trkpt><trkpt lat="44.27146255311132" lon="9.403269417197999"><ele>7.0</ele><time>2026-04-26T07:15:32.999Z</time></trkpt><trkpt lat="44.271533681422966" lon="9.403416341234768"><ele>6.3999999999999995</ele><time>2026-04-26T07:15:34.999Z</time></trkpt><trkpt lat="44.27159959965456" lon="9.403468400748931"><ele>5.799999999999999</ele><time>2026-04-26T07:15:35.999Z</time></trkpt><trkpt lat="44.271674044415796" lon="9.403515965215268"><ele>5.2</ele><time>2026-04-26T07:15:36.999Z</time></trkpt><trkpt lat="44.27175092632544" lon="9.403561886328017"><ele>4.6</ele><time>2026-04-26T07:15:37.999Z</time></trkpt><trkpt lat="44.27191571679376" lon="9.403637810023087"><ele>4.0</ele><time>2026-04-26T07:15:39.999Z</time></trkpt><trkpt lat="44.27200288925023" lon="9.40365438898762"><ele>3.9999999999999996</ele><time>2026-04-26T07:15:40.999Z</time></trkpt><trkpt lat="44.27209407145557" lon="9.40364639840241"><ele>4.0</ele><time>2026-04-26T07:15:41.999Z</time></trkpt><trkpt lat="44.2721769696507" lon="9.40362205602522"><ele>4.0</ele><time>2026-04-26T07:15:42.999Z</time></trkpt><trkpt lat="44.27225832962948" lon="9.403593354554916"><ele>4.0</ele><time>2026-04-26T07:15:43.999Z</time></trkpt><trkpt lat="44.272337027594354" lon="9.403565403961261"><ele>3.9999999999999996</ele><time>2026-04-26T07:15:44.999Z</time></trkpt><trkpt lat="44.27240671827792" lon="9.40354250835932"><ele>4.0</ele><time>2026-04-26T07:15:46Z</time></trkpt><trkpt lat="44.27247123762472" lon="9.403527089351114"><ele>4.2</ele><time>2026-04-26T07:15:47Z</time></trkpt><trkpt lat="44.272534296584446" lon="9.403530067693422"><ele>4.4</ele><time>2026-04-26T07:15:48Z</time></trkpt><trkpt lat="44.27264088899099" lon="9.403545029876094"><ele>4.6</ele><time>2026-04-26T07:15:50Z</time></trkpt><trkpt lat="44.27272538431526" lon="9.403589715115741"><ele>4.8</ele><time>2026-04-26T07:15:52Z</time></trkpt><trkpt lat="44.27281941381691" lon="9.403694529660044"><ele>5.0</ele><time>2026-04-26T07:15:54Z</time></trkpt><trkpt lat="44.27286139158184" lon="9.403772825680006"><ele>5.0</ele><time>2026-04-26T07:15:55Z</time></trkpt><trkpt lat="44.27289365337219" lon="9.403862654731535"><ele>5.0</ele><time>2026-04-26T07:15:56Z</time></trkpt><trkpt lat="44.27291455075599" lon="9.40396609698393"><ele>5.0</ele><time>2026-04-26T07:15:57Z</time></trkpt><trkpt lat="44.2729331143385" lon="9.404083278216673"><ele>5.0</ele><time>2026-04-26T07:15:58Z</time></trkpt><trkpt lat="44.27295097775515" lon="9.404203462532001"><ele>5.0</ele><time>2026-04-26T07:15:59Z</time></trkpt><trkpt lat="44.27297019884803" lon="9.404327596291226"><ele>5.0</ele><time>2026-04-26T07:16:00Z</time></trkpt><trkpt lat="44.27299100527218" lon="9.40445293158664"><ele>5.0</ele><time>2026-04-26T07:16:01Z</time></trkpt><trkpt lat="44.272993680122404" lon="9.40457795933924"><ele>5.0</ele><time>2026-04-26T07:16:02Z</time></trkpt><trkpt lat="44.27296940176901" lon="9.404698125378228"><ele>5.0</ele><time>2026-04-26T07:16:03Z</time></trkpt><trkpt lat="44.27294993686897" lon="9.404821647010314"><ele>5.0</ele><time>2026-04-26T07:16:04Z</time></trkpt><trkpt lat="44.27293631774873" lon="9.404943712198731"><ele>5.0</ele><time>2026-04-26T07:16:05Z</time></trkpt><trkpt lat="44.27289651268771" lon="9.405058731663967"><ele>5.0</ele><time>2026-04-26T07:16:06Z</time></trkpt><trkpt lat="44.272837945751064" lon="9.405163227422685"><ele>5.0</ele><time>2026-04-26T07:16:07Z</time></trkpt><trkpt lat="44.27279094246636" lon="9.405274333087807"><ele>5.0</ele><time>2026-04-26T07:16:08Z</time></trkpt><trkpt lat="44.2727496046976" lon="9.405396339627842"><ele>5.0</ele><time>2026-04-26T07:16:09Z</time></trkpt><trkpt lat="44.27269687868447" lon="9.405512338819342"><ele>5.0</ele><time>2026-04-26T07:16:10Z</time></trkpt><trkpt lat="44.27264399384819" lon="9.405628246825565"><ele>5.0</ele><time>2026-04-26T07:16:11Z</time></trkpt><trkpt lat="44.27258901054139" lon="9.405736783741192"><ele>5.8</ele><time>2026-04-26T07:16:12Z</time></trkpt><trkpt lat="44.27253420041045" lon="9.405856011248037"><ele>6.6</ele><time>2026-04-26T07:16:13Z</time></trkpt><trkpt lat="44.27247498728563" lon="9.405969697868963"><ele>7.4</ele><time>2026-04-26T07:16:14Z</time></trkpt><trkpt lat="44.272419398558434" lon="9.406078343000411"><ele>8.2</ele><time>2026-04-26T07:16:14.999Z</time></trkpt><trkpt lat="44.2723657855463" lon="9.406194110874816"><ele>9.0</ele><time>2026-04-26T07:16:15.999Z</time></trkpt><trkpt lat="44.272306992544415" lon="9.406311826272338"><ele>9.0</ele><time>2026-04-26T07:16:16.999Z</time></trkpt><trkpt lat="44.27225010285627" lon="9.406428068996492"><ele>9.0</ele><time>2026-04-26T07:16:17.999Z</time></trkpt><trkpt lat="44.272195443859815" lon="9.406556822961836"><ele>9.0</ele><time>2026-04-26T07:16:18.999Z</time></trkpt><trkpt lat="44.27214041039564" lon="9.406682769846313"><ele>9.0</ele><time>2026-04-26T07:16:19.999Z</time></trkpt><trkpt lat="44.27208334355364" lon="9.406803579110393"><ele>9.0</ele><time>2026-04-26T07:16:20.999Z</time></trkpt><trkpt lat="44.27202583780916" lon="9.406922692774387"><ele>9.0</ele><time>2026-04-26T07:16:21.999Z</time></trkpt><trkpt lat="44.27196434425435" lon="9.407050425286958"><ele>9.0</ele><time>2026-04-26T07:16:22.999Z</time></trkpt><trkpt lat="44.27189544913289" lon="9.40717733499769"><ele>9.0</ele><time>2026-04-26T07:16:23.999Z</time></trkpt><trkpt lat="44.27184062634115" lon="9.407318826598098"><ele>9.0</ele><time>2026-04-26T07:16:24.999Z</time></trkpt><trkpt lat="44.271789166458554" lon="9.40745524562725"><ele>9.0</ele><time>2026-04-26T07:16:25.999Z</time></trkpt><trkpt lat="44.27172028191487" lon="9.407585314258244"><ele>9.0</ele><time>2026-04-26T07:16:26.999Z</time></trkpt><trkpt lat="44.27165872218799" lon="9.407701797124153"><ele>9.0</ele><time>2026-04-26T07:16:27.999Z</time></trkpt><trkpt lat="44.27160515915055" lon="9.407802023618396"><ele>9.0</ele><time>2026-04-26T07:16:28.999Z</time></trkpt><trkpt lat="44.271545619762605" lon="9.40790238033094"><ele>9.0</ele><time>2026-04-26T07:16:29.999Z</time></trkpt><trkpt lat="44.27147758638935" lon="9.408003824026054"><ele>8.5</ele><time>2026-04-26T07:16:30.999Z</time></trkpt><trkpt lat="44.27140625957475" lon="9.408101192425455"><ele>8.0</ele><time>2026-04-26T07:16:31.999Z</time></trkpt><trkpt lat="44.271328498633096" lon="9.408186232462313"><ele>7.5</ele><time>2026-04-26T07:16:32.999Z</time></trkpt><trkpt lat="44.271264418267634" lon="9.408272762006453"><ele>7.0</ele><time>2026-04-26T07:16:33.999Z</time></trkpt><trkpt lat="44.27120547683673" lon="9.4083380522527"><ele>6.5</ele><time>2026-04-26T07:16:34.999Z</time></trkpt><trkpt lat="44.271157859278574" lon="9.408402819631679"><ele>6.0</ele><time>2026-04-26T07:16:35.999Z</time></trkpt><trkpt lat="44.2710709501228" lon="9.408508193019445"><ele>6.0</ele><time>2026-04-26T07:16:37.999Z</time></trkpt><trkpt lat="44.27098712364582" lon="9.408611124542901"><ele>6.0</ele><time>2026-04-26T07:16:39.999Z</time></trkpt><trkpt lat="44.2709003237212" lon="9.408704619068686"><ele>6.0</ele><time>2026-04-26T07:16:41.999Z</time></trkpt><trkpt lat="44.27078378797988" lon="9.40875322629542"><ele>6.0</ele><time>2026-04-26T07:16:43.999Z</time></trkpt><trkpt lat="44.27071067868004" lon="9.4087665167552"><ele>6.0</ele><time>2026-04-26T07:16:44.999Z</time></trkpt><trkpt lat="44.270645510427116" lon="9.408795484092188"><ele>7.7142857142857135</ele><time>2026-04-26T07:16:45.999Z</time></trkpt><trkpt lat="44.27059481435169" lon="9.408868965671264"><ele>9.428571428571429</ele><time>2026-04-26T07:16:46.999Z</time></trkpt><trkpt lat="44.2705640486561" lon="9.40898038754496"><ele>11.142857142857144</ele><time>2026-04-26T07:16:47.999Z</time></trkpt><trkpt lat="44.27057738634691" lon="9.409099004919907"><ele>12.857142857142858</ele><time>2026-04-26T07:16:48.999Z</time></trkpt><trkpt lat="44.27057992918556" lon="9.409198144626735"><ele>14.571428571428571</ele><time>2026-04-26T07:16:49.999Z</time></trkpt><trkpt lat="44.27057461444473" lon="9.409290235361691"><ele>16.28571428571429</ele><time>2026-04-26T07:16:50.999Z</time></trkpt><trkpt lat="44.27056362816811" lon="9.409378768638389"><ele>18.0</ele><time>2026-04-26T07:16:51.999Z</time></trkpt><trkpt lat="44.27053737627076" lon="9.409537690417203"><ele>18.6</ele><time>2026-04-26T07:16:53.999Z</time></trkpt><trkpt lat="44.27051409385362" lon="9.409687426922487"><ele>19.200000000000003</ele><time>2026-04-26T07:16:55.999Z</time></trkpt><trkpt lat="44.27049138495605" lon="9.409861701938128"><ele>19.8</ele><time>2026-04-26T07:16:57.999Z</time></trkpt><trkpt lat="44.2704803473906" lon="9.409950485016942"><ele>20.400000000000002</ele><time>2026-04-26T07:16:58.999Z</time></trkpt><trkpt lat="44.2704516280712" lon="9.41009974357912"><ele>21.0</ele><time>2026-04-26T07:17:00.999Z</time></trkpt><trkpt lat="44.27044255269114" lon="9.410219724091235"><ele>21.0</ele><time>2026-04-26T07:17:02.999Z</time></trkpt><trkpt lat="44.270424916778964" lon="9.410314510900083"><ele>21.0</ele><time>2026-04-26T07:17:04.999Z</time></trkpt><trkpt lat="44.27041432487059" lon="9.410405538429583"><ele>21.0</ele><time>2026-04-26T07:17:12.999Z</time></trkpt><trkpt lat="44.27039807293649" lon="9.410503154557084"><ele>21.0</ele><time>2026-04-26T07:17:14.999Z</time></trkpt><trkpt lat="44.27037157958831" lon="9.410629125227679"><ele>21.0</ele><time>2026-04-26T07:17:16.999Z</time></trkpt><trkpt lat="44.27032815856964" lon="9.410773793561063"><ele>21.0</ele><time>2026-04-26T07:17:18.999Z</time></trkpt><trkpt lat="44.27030355578602" lon="9.41087278350711"><ele>19.5</ele><time>2026-04-26T07:17:19.999Z</time></trkpt><trkpt lat="44.27029247943355" lon="9.410972435313882"><ele>18.0</ele><time>2026-04-26T07:17:20.999Z</time></trkpt><trkpt lat="44.270252500132074" lon="9.411061178166657"><ele>16.5</ele><time>2026-04-26T07:17:21.999Z</time></trkpt><trkpt lat="44.27021587264283" lon="9.411161280738222"><ele>15.0</ele><time>2026-04-26T07:17:22.999Z</time></trkpt><trkpt lat="44.27017381293324" lon="9.411279998797903"><ele>13.5</ele><time>2026-04-26T07:17:23.999Z</time></trkpt><trkpt lat="44.2701412469115" lon="9.411393996597337"><ele>12.0</ele><time>2026-04-26T07:17:24.999Z</time></trkpt><trkpt lat="44.27010804121971" lon="9.411526254862496"><ele>10.799999999999999</ele><time>2026-04-26T07:17:25.999Z</time></trkpt><trkpt lat="44.270068458471144" lon="9.411665674512967"><ele>9.6</ele><time>2026-04-26T07:17:26.999Z</time></trkpt><trkpt lat="44.270029030217614" lon="9.411795082194056"><ele>8.399999999999999</ele><time>2026-04-26T07:17:27.999Z</time></trkpt><trkpt lat="44.26999265628591" lon="9.411927172477553"><ele>7.199999999999999</ele><time>2026-04-26T07:17:28.999Z</time></trkpt><trkpt lat="44.26996151851801" lon="9.412040670376536"><ele>6.0</ele><time>2026-04-26T07:17:29.999Z</time></trkpt><trkpt lat="44.269932962678354" lon="9.41213108935951"><ele>6.333333333333333</ele><time>2026-04-26T07:17:30.999Z</time></trkpt><trkpt lat="44.26988120247479" lon="9.412293688165915"><ele>6.666666666666666</ele><time>2026-04-26T07:17:32.999Z</time></trkpt><trkpt lat="44.269855598970224" lon="9.41237578498996"><ele>7.0</ele><time>2026-04-26T07:17:33.999Z</time></trkpt><trkpt lat="44.26981908973019" lon="9.412501141379984"><ele>7.333333333333333</ele><time>2026-04-26T07:17:35.999Z</time></trkpt><trkpt lat="44.26979669587019" lon="9.412592962749303"><ele>7.666666666666666</ele><time>2026-04-26T07:17:37.998Z</time></trkpt><trkpt lat="44.26977607765016" lon="9.412682305963223"><ele>8.0</ele><time>2026-04-26T07:17:40.998Z</time></trkpt><trkpt lat="44.26971889687897" lon="9.41282424675919"><ele>8.4</ele><time>2026-04-26T07:18:10.999Z</time></trkpt><trkpt lat="44.26968313886334" lon="9.412933338923875"><ele>8.8</ele><time>2026-04-26T07:18:11.999Z</time></trkpt><trkpt lat="44.26964260418994" lon="9.41306874888312"><ele>9.2</ele><time>2026-04-26T07:18:12.999Z</time></trkpt><trkpt lat="44.26960038983788" lon="9.413202287682909"><ele>9.6</ele><time>2026-04-26T07:18:13.999Z</time></trkpt><trkpt lat="44.269556198196895" lon="9.41334327396932"><ele>10.0</ele><time>2026-04-26T07:18:14.999Z</time></trkpt><trkpt lat="44.26950524944604" lon="9.413496644993135"><ele>10.0</ele><time>2026-04-26T07:18:15.999Z</time></trkpt><trkpt lat="44.26943608362088" lon="9.413677675569286"><ele>10.0</ele><time>2026-04-26T07:18:16.999Z</time></trkpt><trkpt lat="44.269366065459884" lon="9.413865552013922"><ele>10.0</ele><time>2026-04-26T07:18:17.999Z</time></trkpt><trkpt lat="44.26928812570991" lon="9.414068940023002"><ele>9.75</ele><time>2026-04-26T07:18:18.999Z</time></trkpt><trkpt lat="44.26921711782296" lon="9.414264679706188"><ele>9.5</ele><time>2026-04-26T07:18:19.999Z</time></trkpt><trkpt lat="44.26914364496746" lon="9.414445038463878"><ele>9.25</ele><time>2026-04-26T07:18:20.999Z</time></trkpt><trkpt lat="44.269078940701235" lon="9.41461502688634"><ele>9.0</ele><time>2026-04-26T07:18:21.999Z</time></trkpt><trkpt lat="44.26901773319809" lon="9.414772874211673"><ele>8.75</ele><time>2026-04-26T07:18:22.999Z</time></trkpt><trkpt lat="44.26895863961028" lon="9.41492708320545"><ele>8.5</ele><time>2026-04-26T07:18:23.999Z</time></trkpt><trkpt lat="44.26890332999627" lon="9.415071432271958"><ele>8.25</ele><time>2026-04-26T07:18:24.999Z</time></trkpt><trkpt lat="44.26885119302815" lon="9.41520752394533"><ele>8.0</ele><time>2026-04-26T07:18:25.999Z</time></trkpt><trkpt lat="44.26881183420357" lon="9.415340852636255"><ele>7.999999999999999</ele><time>2026-04-26T07:18:26.999Z</time></trkpt><trkpt lat="44.26879031789293" lon="9.415471381328024"><ele>8.0</ele><time>2026-04-26T07:18:27.999Z</time></trkpt><trkpt lat="44.26879409194052" lon="9.415603487959398"><ele>8.0</ele><time>2026-04-26T07:18:28.999Z</time></trkpt><trkpt lat="44.26880375980403" lon="9.4157267917433"><ele>8.0</ele><time>2026-04-26T07:18:29.999Z</time></trkpt><trkpt lat="44.268803653916365" lon="9.415846693798063"><ele>7.999999999999999</ele><time>2026-04-26T07:18:30.999Z</time></trkpt><trkpt lat="44.26880186206126" lon="9.415959280020523"><ele>8.0</ele><time>2026-04-26T07:18:31.999Z</time></trkpt><trkpt lat="44.268855660305064" lon="9.416047159634424"><ele>8.0</ele><time>2026-04-26T07:18:32.999Z</time></trkpt><trkpt lat="44.26890295910997" lon="9.41614167518159"><ele>8.0</ele><time>2026-04-26T07:18:33.999Z</time></trkpt><trkpt lat="44.268999748034425" lon="9.41620982821405"><ele>8.0</ele><time>2026-04-26T07:18:34.999Z</time></trkpt><trkpt lat="44.269087200382465" lon="9.416271587966927"><ele>8.0</ele><time>2026-04-26T07:18:35.999Z</time></trkpt><trkpt lat="44.26918305818327" lon="9.416347315318024"><ele>8.0</ele><time>2026-04-26T07:18:36.999Z</time></trkpt><trkpt lat="44.269290634030035" lon="9.41642409376784"><ele>8.25</ele><time>2026-04-26T07:18:37.999Z</time></trkpt><trkpt lat="44.269397805691725" lon="9.416496894983382"><ele>8.5</ele><time>2026-04-26T07:18:38.999Z</time></trkpt><trkpt lat="44.26949735757226" lon="9.416565933758598"><ele>8.75</ele><time>2026-04-26T07:18:39.999Z</time></trkpt><trkpt lat="44.2695947245143" lon="9.416645906477928"><ele>9.0</ele><time>2026-04-26T07:18:40.999Z</time></trkpt><trkpt lat="44.2696909413866" lon="9.416720558121812"><ele>9.0</ele><time>2026-04-26T07:18:41.999Z</time></trkpt><trkpt lat="44.26977715346902" lon="9.416804077820636"><ele>9.0</ele><time>2026-04-26T07:18:42.999Z</time></trkpt><trkpt lat="44.26984808931872" lon="9.41690551217909"><ele>9.0</ele><time>2026-04-26T07:18:43.999Z</time></trkpt><trkpt lat="44.269898862017314" lon="9.417019558878867"><ele>9.0</ele><time>2026-04-26T07:18:44.999Z</time></trkpt><trkpt lat="44.26993632658171" lon="9.41715030359828"><ele>9.0</ele><time>2026-04-26T07:18:45.999Z</time></trkpt><trkpt lat="44.26993902549849" lon="9.417282596667983"><ele>9.0</ele><time>2026-04-26T07:18:46.999Z</time></trkpt><trkpt lat="44.26993510757665" lon="9.417411018241191"><ele>9.0</ele><time>2026-04-26T07:18:47.999Z</time></trkpt><trkpt lat="44.2699626907177" lon="9.417523151358568"><ele>9.0</ele><time>2026-04-26T07:18:48.999Z</time></trkpt><trkpt lat="44.26995167086366" lon="9.417643756907221"><ele>9.0</ele><time>2026-04-26T07:18:49.999Z</time></trkpt><trkpt lat="44.269930309077814" lon="9.41775540496548"><ele>9.0</ele><time>2026-04-26T07:18:50.999Z</time></trkpt><trkpt lat="44.269949650354064" lon="9.417856228058447"><ele>9.0</ele><time>2026-04-26T07:18:51.999Z</time></trkpt><trkpt lat="44.270009037230245" lon="9.41793253459444"><ele>9.0</ele><time>2026-04-26T07:18:52.999Z</time></trkpt><trkpt lat="44.27008889313153" lon="9.417967062800694"><ele>9.0</ele><time>2026-04-26T07:18:53.999Z</time></trkpt><trkpt lat="44.27018572996865" lon="9.417937253469518"><ele>9.0</ele><time>2026-04-26T07:18:54.999Z</time></trkpt><trkpt lat="44.270267915635664" lon="9.41797631423928"><ele>9.0</ele><time>2026-04-26T07:18:55.999Z</time></trkpt><trkpt lat="44.27035266317986" lon="9.418013718162983"><ele>9.0</ele><time>2026-04-26T07:18:56.999Z</time></trkpt><trkpt lat="44.27043322607379" lon="9.418091026793284"><ele>9.2</ele><time>2026-04-26T07:18:57.999Z</time></trkpt><trkpt lat="44.27049446525023" lon="9.418214941437984"><ele>9.4</ele><time>2026-04-26T07:18:58.999Z</time></trkpt><trkpt lat="44.27058223189436" lon="9.418317034725087"><ele>9.6</ele><time>2026-04-26T07:18:59.999Z</time></trkpt><trkpt lat="44.270655689025105" lon="9.418442157260257"><ele>9.8</ele><time>2026-04-26T07:19:00.999Z</time></trkpt><trkpt lat="44.27072928935804" lon="9.418558581281834"><ele>10.0</ele><time>2026-04-26T07:19:01.999Z</time></trkpt><trkpt lat="44.27080219498578" lon="9.418675266038317"><ele>10.0</ele><time>2026-04-26T07:19:02.999Z</time></trkpt><trkpt lat="44.270878185195755" lon="9.418796591354047"><ele>10.0</ele><time>2026-04-26T07:19:03.999Z</time></trkpt><trkpt lat="44.27095333748662" lon="9.418917486934845"><ele>10.0</ele><time>2026-04-26T07:19:04.999Z</time></trkpt><trkpt lat="44.271030737147505" lon="9.419036070619262"><ele>10.0</ele><time>2026-04-26T07:19:05.999Z</time></trkpt><trkpt lat="44.271108117037166" lon="9.419150636658056"><ele>10.4</ele><time>2026-04-26T07:19:06.999Z</time></trkpt><trkpt lat="44.271183336187164" lon="9.419265966992443"><ele>10.8</ele><time>2026-04-26T07:19:07.999Z</time></trkpt><trkpt lat="44.27125733949759" lon="9.419373466325276"><ele>11.2</ele><time>2026-04-26T07:19:08.999Z</time></trkpt><trkpt lat="44.27132161708395" lon="9.419470142694669"><ele>11.6</ele><time>2026-04-26T07:19:09.999Z</time></trkpt><trkpt lat="44.27136888733847" lon="9.419558922284226"><ele>12.0</ele><time>2026-04-26T07:19:10.999Z</time></trkpt><trkpt lat="44.27141182928717" lon="9.419652543650297"><ele>11.8</ele><time>2026-04-26T07:19:11.999Z</time></trkpt><trkpt lat="44.2714515631455" lon="9.419766584124625"><ele>11.6</ele><time>2026-04-26T07:19:12.999Z</time></trkpt><trkpt lat="44.27149388613237" lon="9.419888866931949"><ele>11.4</ele><time>2026-04-26T07:19:13.999Z</time></trkpt><trkpt lat="44.27151361353897" lon="9.420024430802616"><ele>11.200000000000001</ele><time>2026-04-26T07:19:14.999Z</time></trkpt><trkpt lat="44.27147209687709" lon="9.420183387903037"><ele>11.0</ele><time>2026-04-26T07:19:15.999Z</time></trkpt><trkpt lat="44.27144537223015" lon="9.420328312037531"><ele>11.25</ele><time>2026-04-26T07:19:16.999Z</time></trkpt><trkpt lat="44.271394956781414" lon="9.420473176897366"><ele>11.5</ele><time>2026-04-26T07:19:17.999Z</time></trkpt><trkpt lat="44.27133283128521" lon="9.420613614119347"><ele>11.75</ele><time>2026-04-26T07:19:18.999Z</time></trkpt><trkpt lat="44.271273812760896" lon="9.420760890277164"><ele>12.0</ele><time>2026-04-26T07:19:19.999Z</time></trkpt><trkpt lat="44.27120791092745" lon="9.420904448624313"><ele>12.0</ele><time>2026-04-26T07:19:20.999Z</time></trkpt><trkpt lat="44.27114636148047" lon="9.421053764718316"><ele>12.0</ele><time>2026-04-26T07:19:21.999Z</time></trkpt><trkpt lat="44.27108999233784" lon="9.421197583276093"><ele>12.0</ele><time>2026-04-26T07:19:22.999Z</time></trkpt><trkpt lat="44.27103526826498" lon="9.421334333160692"><ele>12.0</ele><time>2026-04-26T07:19:23.999Z</time></trkpt><trkpt lat="44.270983753475434" lon="9.421466826124124"><ele>11.8</ele><time>2026-04-26T07:19:24.999Z</time></trkpt><trkpt lat="44.27093176901979" lon="9.421592910258893"><ele>11.6</ele><time>2026-04-26T07:19:25.999Z</time></trkpt><trkpt lat="44.27088279976597" lon="9.421717014717386"><ele>11.4</ele><time>2026-04-26T07:19:26.999Z</time></trkpt><trkpt lat="44.27083837633053" lon="9.421825423657593"><ele>11.200000000000001</ele><time>2026-04-26T07:19:27.999Z</time></trkpt><trkpt lat="44.27079550089935" lon="9.421929008682499"><ele>11.0</ele><time>2026-04-26T07:19:28.999Z</time></trkpt><trkpt lat="44.27074927590457" lon="9.422036804602119"><ele>11.0</ele><time>2026-04-26T07:19:29.999Z</time></trkpt><trkpt lat="44.27071379982959" lon="9.422131279954488"><ele>11.0</ele><time>2026-04-26T07:19:30.999Z</time></trkpt><trkpt lat="44.2706824203156" lon="9.42220772721898"><ele>11.0</ele><time>2026-04-26T07:19:31.999Z</time></trkpt><trkpt lat="44.27061266982026" lon="9.422377872000956"><ele>11.0</ele><time>2026-04-26T07:19:33.999Z</time></trkpt><trkpt lat="44.270564924837636" lon="9.422494430448484"><ele>11.0</ele><time>2026-04-26T07:19:34.999Z</time></trkpt><trkpt lat="44.27051604570213" lon="9.42262117777986"><ele>11.200000000000001</ele><time>2026-04-26T07:19:35.999Z</time></trkpt><trkpt lat="44.270470198900355" lon="9.422746270836472"><ele>11.4</ele><time>2026-04-26T07:19:36.999Z</time></trkpt><trkpt lat="44.2704261418754" lon="9.422862536945654"><ele>11.6</ele><time>2026-04-26T07:19:37.999Z</time></trkpt><trkpt lat="44.27038356609652" lon="9.422976978895543"><ele>11.8</ele><time>2026-04-26T07:19:38.999Z</time></trkpt><trkpt lat="44.270345935720236" lon="9.423094881115047"><ele>12.0</ele><time>2026-04-26T07:19:39.999Z</time></trkpt><trkpt lat="44.27031831109282" lon="9.423198102354036"><ele>11.999999999999998</ele><time>2026-04-26T07:19:40.999Z</time></trkpt><trkpt lat="44.27029283282271" lon="9.423291026747238"><ele>12.0</ele><time>2026-04-26T07:19:41.999Z</time></trkpt><trkpt lat="44.27027076161744" lon="9.423373448406705"><ele>12.0</ele><time>2026-04-26T07:19:42.999Z</time></trkpt><trkpt lat="44.27024086214076" lon="9.423457930385354"><ele>12.0</ele><time>2026-04-26T07:19:43.999Z</time></trkpt><trkpt lat="44.270208918876406" lon="9.423546823085696"><ele>12.0</ele><time>2026-04-26T07:19:44.999Z</time></trkpt><trkpt lat="44.27017100096748" lon="9.4236404188753"><ele>11.999999999999998</ele><time>2026-04-26T07:19:45.999Z</time></trkpt><trkpt lat="44.270132819692556" lon="9.423729416577444"><ele>12.0</ele><time>2026-04-26T07:19:46.999Z</time></trkpt><trkpt lat="44.270091547182275" lon="9.423828123346414"><ele>12.0</ele><time>2026-04-26T07:19:47.999Z</time></trkpt><trkpt lat="44.27005229528828" lon="9.423933676547074"><ele>12.0</ele><time>2026-04-26T07:19:48.999Z</time></trkpt><trkpt lat="44.27001012305673" lon="9.424045242758563"><ele>12.0</ele><time>2026-04-26T07:19:49.999Z</time></trkpt><trkpt lat="44.26995999486235" lon="9.42416512703115"><ele>12.0</ele><time>2026-04-26T07:19:50.999Z</time></trkpt><trkpt lat="44.26991745688212" lon="9.424281851800085"><ele>12.0</ele><time>2026-04-26T07:19:51.999Z</time></trkpt><trkpt lat="44.269873531314865" lon="9.424402625811721"><ele>12.0</ele><time>2026-04-26T07:19:52.998Z</time></trkpt><trkpt lat="44.2698263583135" lon="9.424532935681787"><ele>12.0</ele><time>2026-04-26T07:19:53.998Z</time></trkpt><trkpt lat="44.269780975079144" lon="9.424663529819414"><ele>12.0</ele><time>2026-04-26T07:19:54.998Z</time></trkpt><trkpt lat="44.269735229403906" lon="9.42478585406674"><ele>12.0</ele><time>2026-04-26T07:19:55.998Z</time></trkpt><trkpt lat="44.26969127322397" lon="9.42490083983882"><ele>12.0</ele><time>2026-04-26T07:19:56.998Z</time></trkpt><trkpt lat="44.26965304730697" lon="9.425000917514213"><ele>12.0</ele><time>2026-04-26T07:19:57.999Z</time></trkpt><trkpt lat="44.269618062739305" lon="9.425103431178393"><ele>12.0</ele><time>2026-04-26T07:19:58.999Z</time></trkpt><trkpt lat="44.26957818056929" lon="9.425206541719788"><ele>12.0</ele><time>2026-04-26T07:19:59.999Z</time></trkpt><trkpt lat="44.269547350901085" lon="9.425303284591436"><ele>12.0</ele><time>2026-04-26T07:20:00.999Z</time></trkpt><trkpt lat="44.26951159471142" lon="9.42539399631319"><ele>12.0</ele><time>2026-04-26T07:20:01.999Z</time></trkpt><trkpt lat="44.269478212360966" lon="9.425478285843996"><ele>12.0</ele><time>2026-04-26T07:20:02.999Z</time></trkpt><trkpt lat="44.269418264188815" lon="9.425608587331375"><ele>11.8</ele><time>2026-04-26T07:20:04.999Z</time></trkpt><trkpt lat="44.269407741700334" lon="9.42574983919017"><ele>11.6</ele><time>2026-04-26T07:20:06.999Z</time></trkpt><trkpt lat="44.269481711696926" lon="9.425861591137805"><ele>11.4</ele><time>2026-04-26T07:20:08.999Z</time></trkpt><trkpt lat="44.26959484412387" lon="9.42591166302627"><ele>11.200000000000001</ele><time>2026-04-26T07:20:10.999Z</time></trkpt><trkpt lat="44.269660124331956" lon="9.425945486168812"><ele>11.0</ele><time>2026-04-26T07:20:11.999Z</time></trkpt><trkpt lat="44.269740893804126" lon="9.425971326519175"><ele>11.166666666666666</ele><time>2026-04-26T07:20:12.999Z</time></trkpt><trkpt lat="44.26983051350763" lon="9.425983527306242"><ele>11.333333333333332</ele><time>2026-04-26T07:20:13.999Z</time></trkpt><trkpt lat="44.26991933108619" lon="9.425992262529345"><ele>11.5</ele><time>2026-04-26T07:20:14.999Z</time></trkpt><trkpt lat="44.2700057023771" lon="9.425995118989192"><ele>11.666666666666666</ele><time>2026-04-26T07:20:15.999Z</time></trkpt><trkpt lat="44.27009049244578" lon="9.426005343677716"><ele>11.833333333333334</ele><time>2026-04-26T07:20:16.999Z</time></trkpt><trkpt lat="44.27016303603201" lon="9.426035222178422"><ele>12.0</ele><time>2026-04-26T07:20:17.999Z</time></trkpt><trkpt lat="44.27023590061921" lon="9.426095333540651"><ele>12.0</ele><time>2026-04-26T07:20:18.999Z</time></trkpt><trkpt lat="44.270293885948135" lon="9.426169160689904"><ele>12.0</ele><time>2026-04-26T07:20:19.999Z</time></trkpt><trkpt lat="44.27033300061549" lon="9.426296544413773"><ele>12.0</ele><time>2026-04-26T07:20:20.999Z</time></trkpt><trkpt lat="44.27035011971226" lon="9.426416751848274"><ele>12.0</ele><time>2026-04-26T07:20:21.999Z</time></trkpt><trkpt lat="44.270342093898876" lon="9.426553447290486"><ele>12.0</ele><time>2026-04-26T07:20:22.999Z</time></trkpt><trkpt lat="44.27030275482165" lon="9.42671512571004"><ele>12.399999999999999</ele><time>2026-04-26T07:20:23.999Z</time></trkpt><trkpt lat="44.27029980079363" lon="9.426861111932423"><ele>12.799999999999999</ele><time>2026-04-26T07:20:24.999Z</time></trkpt><trkpt lat="44.27030110486813" lon="9.427005699079197"><ele>13.2</ele><time>2026-04-26T07:20:25.999Z</time></trkpt><trkpt lat="44.27030573851063" lon="9.427154573027417"><ele>13.6</ele><time>2026-04-26T07:20:26.999Z</time></trkpt><trkpt lat="44.27031112547876" lon="9.427299609681446"><ele>14.0</ele><time>2026-04-26T07:20:27.999Z</time></trkpt><trkpt lat="44.270311311537306" lon="9.427439655782193"><ele>14.2</ele><time>2026-04-26T07:20:28.999Z</time></trkpt><trkpt lat="44.27032484805013" lon="9.427570972000336"><ele>14.399999999999999</ele><time>2026-04-26T07:20:29.999Z</time></trkpt><trkpt lat="44.2703350354457" lon="9.427694407712178"><ele>14.6</ele><time>2026-04-26T07:20:30.999Z</time></trkpt><trkpt lat="44.27033648127503" lon="9.427810028704997"><ele>14.8</ele><time>2026-04-26T07:20:31.999Z</time></trkpt><trkpt lat="44.27034583430083" lon="9.427928715464072"><ele>15.0</ele><time>2026-04-26T07:20:32.999Z</time></trkpt><trkpt lat="44.270352930333914" lon="9.428064440957542"><ele>15.25</ele><time>2026-04-26T07:20:33.999Z</time></trkpt><trkpt lat="44.27036949682773" lon="9.42822967382735"><ele>15.5</ele><time>2026-04-26T07:20:34.999Z</time></trkpt><trkpt lat="44.270365420297665" lon="9.428421113462068"><ele>15.75</ele><time>2026-04-26T07:20:35.999Z</time></trkpt><trkpt lat="44.27037766821496" lon="9.428615882456501"><ele>16.0</ele><time>2026-04-26T07:20:36.999Z</time></trkpt><trkpt lat="44.27040426672643" lon="9.428785197188727"><ele>15.75</ele><time>2026-04-26T07:20:37.999Z</time></trkpt><trkpt lat="44.27041160107238" lon="9.428952745015458"><ele>15.5</ele><time>2026-04-26T07:20:38.999Z</time></trkpt><trkpt lat="44.270407011522295" lon="9.429119785081987"><ele>15.25</ele><time>2026-04-26T07:20:39.999Z</time></trkpt><trkpt lat="44.27040701977927" lon="9.42928683590315"><ele>15.0</ele><time>2026-04-26T07:20:40.999Z</time></trkpt><trkpt lat="44.27040827421253" lon="9.42945165159906"><ele>15.0</ele><time>2026-04-26T07:20:41.999Z</time></trkpt><trkpt lat="44.27040659788976" lon="9.42961507112245"><ele>15.0</ele><time>2026-04-26T07:20:42.999Z</time></trkpt><trkpt lat="44.270409070325734" lon="9.429780147095162"><ele>15.0</ele><time>2026-04-26T07:20:43.999Z</time></trkpt><trkpt lat="44.27041656272801" lon="9.429944725128392"><ele>15.0</ele><time>2026-04-26T07:20:44.999Z</time></trkpt><trkpt lat="44.27041935130328" lon="9.430111018905878"><ele>14.25</ele><time>2026-04-26T07:20:45.999Z</time></trkpt><trkpt lat="44.27043050785847" lon="9.430282896599824"><ele>13.5</ele><time>2026-04-26T07:20:46.999Z</time></trkpt><trkpt lat="44.27043819182695" lon="9.43044736280648"><ele>12.75</ele><time>2026-04-26T07:20:47.999Z</time></trkpt><trkpt lat="44.27044364239772" lon="9.430619425922627"><ele>12.0</ele><time>2026-04-26T07:20:48.999Z</time></trkpt><trkpt lat="44.27045116826222" lon="9.430784182505821"><ele>12.0</ele><time>2026-04-26T07:20:49.999Z</time></trkpt><trkpt lat="44.27046524174821" lon="9.430936222347803"><ele>12.0</ele><time>2026-04-26T07:20:50.999Z</time></trkpt><trkpt lat="44.2704747235044" lon="9.43108409003632"><ele>12.0</ele><time>2026-04-26T07:20:51.999Z</time></trkpt><trkpt lat="44.27048711217562" lon="9.431240121164308"><ele>12.0</ele><time>2026-04-26T07:20:52.999Z</time></trkpt><trkpt lat="44.2704974740967" lon="9.431392891394891"><ele>12.0</ele><time>2026-04-26T07:20:53.999Z</time></trkpt><trkpt lat="44.27049998273582" lon="9.43153173698067"><ele>12.0</ele><time>2026-04-26T07:20:54.999Z</time></trkpt><trkpt lat="44.27050976834165" lon="9.431659601133784"><ele>12.0</ele><time>2026-04-26T07:20:55.999Z</time></trkpt><trkpt lat="44.27051391767776" lon="9.431751583169445"><ele>12.0</ele><time>2026-04-26T07:20:56.999Z</time></trkpt><trkpt lat="44.270513782397366" lon="9.431843453316679"><ele>12.0</ele><time>2026-04-26T07:20:57.999Z</time></trkpt><trkpt lat="44.270504837132606" lon="9.431940324225097"><ele>12.0</ele><time>2026-04-26T07:20:58.999Z</time></trkpt><trkpt lat="44.2704823441404" lon="9.432047958450855"><ele>12.0</ele><time>2026-04-26T07:20:59.999Z</time></trkpt><trkpt lat="44.27050729175088" lon="9.432169292343714"><ele>12.0</ele><time>2026-04-26T07:21:00.999Z</time></trkpt><trkpt lat="44.270549542045764" lon="9.432416110466983"><ele>12.0</ele><time>2026-04-26T07:21:02.999Z</time></trkpt><trkpt lat="44.270549617788205" lon="9.432532586422015"><ele>12.0</ele><time>2026-04-26T07:21:03.999Z</time></trkpt><trkpt lat="44.270549320908046" lon="9.432653651103232"><ele>12.0</ele><time>2026-04-26T07:21:04.999Z</time></trkpt><trkpt lat="44.27055437453" lon="9.432781928266031"><ele>12.0</ele><time>2026-04-26T07:21:05.999Z</time></trkpt><trkpt lat="44.27056449525189" lon="9.432917191528274"><ele>12.25</ele><time>2026-04-26T07:21:06.999Z</time></trkpt><trkpt lat="44.27057532952034" lon="9.433050841266809"><ele>12.5</ele><time>2026-04-26T07:21:07.999Z</time></trkpt><trkpt lat="44.27059750271565" lon="9.433214675553106"><ele>12.75</ele><time>2026-04-26T07:21:08.999Z</time></trkpt><trkpt lat="44.27062617898641" lon="9.433408386571893"><ele>13.0</ele><time>2026-04-26T07:21:09.999Z</time></trkpt><trkpt lat="44.27063713842145" lon="9.43362069162294"><ele>16.0</ele><time>2026-04-26T07:21:10.999Z</time></trkpt><trkpt lat="44.270662369813486" lon="9.433838805063704"><ele>19.0</ele><time>2026-04-26T07:21:11.999Z</time></trkpt><trkpt lat="44.270699474882186" lon="9.434029636011319"><ele>22.0</ele><time>2026-04-26T07:21:12.999Z</time></trkpt><trkpt lat="44.27070786490675" lon="9.434201171911203"><ele>25.0</ele><time>2026-04-26T07:21:13.999Z</time></trkpt><trkpt lat="44.2707227827951" lon="9.434358476630681"><ele>25.0</ele><time>2026-04-26T07:21:14.999Z</time></trkpt><trkpt lat="44.2707450134554" lon="9.434510939450993"><ele>25.0</ele><time>2026-04-26T07:21:15.999Z</time></trkpt><trkpt lat="44.270772200544535" lon="9.434658715922485"><ele>25.0</ele><time>2026-04-26T07:21:16.999Z</time></trkpt><trkpt lat="44.27082538453548" lon="9.434798485257986"><ele>25.0</ele><time>2026-04-26T07:21:17.999Z</time></trkpt><trkpt lat="44.27088731057748" lon="9.434932102181408"><ele>25.0</ele><time>2026-04-26T07:21:18.999Z</time></trkpt><trkpt lat="44.270967020143964" lon="9.43504643873328"><ele>24.75</ele><time>2026-04-26T07:21:19.999Z</time></trkpt><trkpt lat="44.271042575883" lon="9.435172584707233"><ele>24.5</ele><time>2026-04-26T07:21:20.999Z</time></trkpt><trkpt lat="44.271115967280366" lon="9.435311073213404"><ele>24.25</ele><time>2026-04-26T07:21:21.999Z</time></trkpt><trkpt lat="44.27118176213243" lon="9.435448563734612"><ele>24.0</ele><time>2026-04-26T07:21:22.999Z</time></trkpt><trkpt lat="44.27124827417829" lon="9.435589027548717"><ele>22.75</ele><time>2026-04-26T07:21:23.999Z</time></trkpt><trkpt lat="44.271314296370704" lon="9.435724661980768"><ele>21.5</ele><time>2026-04-26T07:21:24.999Z</time></trkpt><trkpt lat="44.271374692065386" lon="9.435864796397478"><ele>20.25</ele><time>2026-04-26T07:21:25.999Z</time></trkpt><trkpt lat="44.27142664191105" lon="9.436010040148437"><ele>19.0</ele><time>2026-04-26T07:21:26.999Z</time></trkpt><trkpt lat="44.27146807796727" lon="9.436159982356493"><ele>19.799999999999997</ele><time>2026-04-26T07:21:27.999Z</time></trkpt><trkpt lat="44.27148622287937" lon="9.436317116370239"><ele>20.599999999999998</ele><time>2026-04-26T07:21:28.999Z</time></trkpt><trkpt lat="44.27149582127835" lon="9.43647029618081"><ele>21.4</ele><time>2026-04-26T07:21:29.999Z</time></trkpt><trkpt lat="44.271502728988615" lon="9.436628583042353"><ele>22.2</ele><time>2026-04-26T07:21:30.999Z</time></trkpt><trkpt lat="44.27150190574261" lon="9.436781361655468"><ele>23.0</ele><time>2026-04-26T07:21:31.999Z</time></trkpt><trkpt lat="44.27150077558287" lon="9.4369348299282"><ele>23.0</ele><time>2026-04-26T07:21:32.999Z</time></trkpt><trkpt lat="44.27149955423538" lon="9.437094169405201"><ele>23.0</ele><time>2026-04-26T07:21:33.999Z</time></trkpt><trkpt lat="44.2714963639645" lon="9.437254485554416"><ele>23.0</ele><time>2026-04-26T07:21:34.999Z</time></trkpt><trkpt lat="44.2714886924813" lon="9.437416763558367"><ele>23.0</ele><time>2026-04-26T07:21:35.999Z</time></trkpt><trkpt lat="44.27147292471879" lon="9.437575210606191"><ele>23.5</ele><time>2026-04-26T07:21:36.999Z</time></trkpt><trkpt lat="44.27145430472179" lon="9.437733642777111"><ele>24.0</ele><time>2026-04-26T07:21:37.999Z</time></trkpt><trkpt lat="44.27142289522959" lon="9.437887881357588"><ele>24.5</ele><time>2026-04-26T07:21:38.999Z</time></trkpt><trkpt lat="44.2713883139916" lon="9.43803508264718"><ele>25.0</ele><time>2026-04-26T07:21:39.999Z</time></trkpt><trkpt lat="44.271351713413445" lon="9.438184316883895"><ele>25.2</ele><time>2026-04-26T07:21:40.999Z</time></trkpt><trkpt lat="44.27131762392518" lon="9.438326153784857"><ele>25.4</ele><time>2026-04-26T07:21:41.999Z</time></trkpt><trkpt lat="44.27129077808279" lon="9.43846430058195"><ele>25.6</ele><time>2026-04-26T07:21:42.999Z</time></trkpt><trkpt lat="44.27125884434934" lon="9.438602585252632"><ele>25.8</ele><time>2026-04-26T07:21:43.999Z</time></trkpt><trkpt lat="44.27122587634821" lon="9.438740707962554"><ele>26.0</ele><time>2026-04-26T07:21:44.999Z</time></trkpt><trkpt lat="44.271195262350425" lon="9.438874414841278"><ele>26.0</ele><time>2026-04-26T07:21:45.999Z</time></trkpt><trkpt lat="44.27116654736202" lon="9.439000733093025"><ele>26.0</ele><time>2026-04-26T07:21:46.999Z</time></trkpt><trkpt lat="44.27113458395105" lon="9.43913431289688"><ele>26.0</ele><time>2026-04-26T07:21:47.999Z</time></trkpt><trkpt lat="44.27109882184933" lon="9.439262766368818"><ele>26.0</ele><time>2026-04-26T07:21:48.999Z</time></trkpt><trkpt lat="44.271035953336465" lon="9.439363424304592"><ele>26.0</ele><time>2026-04-26T07:21:49.999Z</time></trkpt><trkpt lat="44.270986422093905" lon="9.439462655992859"><ele>25.999999999999996</ele><time>2026-04-26T07:21:50.999Z</time></trkpt><trkpt lat="44.270934944246505" lon="9.439552512607138"><ele>26.0</ele><time>2026-04-26T07:21:51.999Z</time></trkpt><trkpt lat="44.270887160291004" lon="9.439658751491168"><ele>26.0</ele><time>2026-04-26T07:21:52.999Z</time></trkpt><trkpt lat="44.270820227887654" lon="9.439751411048139"><ele>26.0</ele><time>2026-04-26T07:21:53.999Z</time></trkpt><trkpt lat="44.270764825436025" lon="9.439838628390426"><ele>25.999999999999996</ele><time>2026-04-26T07:21:54.999Z</time></trkpt><trkpt lat="44.270708486827886" lon="9.439923550555587"><ele>26.0</ele><time>2026-04-26T07:21:55.999Z</time></trkpt><trkpt lat="44.270647321247736" lon="9.4400104119929"><ele>24.999999999999996</ele><time>2026-04-26T07:21:56.999Z</time></trkpt><trkpt lat="44.27059339908198" lon="9.440101517400144"><ele>24.0</ele><time>2026-04-26T07:21:57.999Z</time></trkpt><trkpt lat="44.270539930077575" lon="9.440193598776942"><ele>23.0</ele><time>2026-04-26T07:21:58.999Z</time></trkpt><trkpt lat="44.270489357361505" lon="9.440292555289734"><ele>22.0</ele><time>2026-04-26T07:21:59.999Z</time></trkpt><trkpt lat="44.270440886682586" lon="9.440392745657753"><ele>21.0</ele><time>2026-04-26T07:22:00.999Z</time></trkpt><trkpt lat="44.27040933718623" lon="9.440520610866896"><ele>20.0</ele><time>2026-04-26T07:22:01.999Z</time></trkpt><trkpt lat="44.27040227171834" lon="9.440656753617368"><ele>20.0</ele><time>2026-04-26T07:22:02.999Z</time></trkpt><trkpt lat="44.270413103950474" lon="9.44078374350411"><ele>20.0</ele><time>2026-04-26T07:22:04Z</time></trkpt><trkpt lat="44.27042909444732" lon="9.440916757288285"><ele>20.0</ele><time>2026-04-26T07:22:05Z</time></trkpt><trkpt lat="44.270453071759995" lon="9.441051799049738"><ele>20.0</ele><time>2026-04-26T07:22:06Z</time></trkpt><trkpt lat="44.270479741378225" lon="9.441197654829304"><ele>20.0</ele><time>2026-04-26T07:22:07Z</time></trkpt><trkpt lat="44.270507641761256" lon="9.441361207549345"><ele>19.5</ele><time>2026-04-26T07:22:08Z</time></trkpt><trkpt lat="44.27056642351169" lon="9.441534022349874"><ele>19.0</ele><time>2026-04-26T07:22:09Z</time></trkpt><trkpt lat="44.27061065533598" lon="9.441700985889483"><ele>18.5</ele><time>2026-04-26T07:22:10Z</time></trkpt><trkpt lat="44.27067058437765" lon="9.441844121163108"><ele>18.0</ele><time>2026-04-26T07:22:11Z</time></trkpt><trkpt lat="44.27074035584923" lon="9.44197422925915"><ele>20.0</ele><time>2026-04-26T07:22:12Z</time></trkpt><trkpt lat="44.270790120692226" lon="9.442117025602073"><ele>22.0</ele><time>2026-04-26T07:22:13Z</time></trkpt><trkpt lat="44.27082893820038" lon="9.44226446274412"><ele>24.0</ele><time>2026-04-26T07:22:14Z</time></trkpt><trkpt lat="44.27084878404736" lon="9.442424801130967"><ele>26.0</ele><time>2026-04-26T07:22:15Z</time></trkpt><trkpt lat="44.27084475610692" lon="9.442581085613636"><ele>26.0</ele><time>2026-04-26T07:22:16Z</time></trkpt><trkpt lat="44.27083645003705" lon="9.442736505955784"><ele>26.0</ele><time>2026-04-26T07:22:17Z</time></trkpt><trkpt lat="44.270827402963675" lon="9.4429121686858"><ele>26.0</ele><time>2026-04-26T07:22:18Z</time></trkpt><trkpt lat="44.27081161230446" lon="9.443080949745744"><ele>26.0</ele><time>2026-04-26T07:22:19Z</time></trkpt><trkpt lat="44.27079211555961" lon="9.443251471816394"><ele>26.5</ele><time>2026-04-26T07:22:20Z</time></trkpt><trkpt lat="44.270784670588135" lon="9.443424675819097"><ele>27.0</ele><time>2026-04-26T07:22:21Z</time></trkpt><trkpt lat="44.27078494703091" lon="9.443591544702189"><ele>27.5</ele><time>2026-04-26T07:22:22Z</time></trkpt><trkpt lat="44.27079584774944" lon="9.443763846229439"><ele>28.0</ele><time>2026-04-26T07:22:23Z</time></trkpt><trkpt lat="44.27081765744275" lon="9.443936574190126"><ele>28.0</ele><time>2026-04-26T07:22:24Z</time></trkpt><trkpt lat="44.270847957071545" lon="9.44410132263744"><ele>28.0</ele><time>2026-04-26T07:22:25Z</time></trkpt><trkpt lat="44.27088621879577" lon="9.444260152060906"><ele>28.0</ele><time>2026-04-26T07:22:26Z</time></trkpt><trkpt lat="44.27093649150342" lon="9.444416493392737"><ele>28.0</ele><time>2026-04-26T07:22:27Z</time></trkpt><trkpt lat="44.27099323931073" lon="9.444566126242918"><ele>27.25</ele><time>2026-04-26T07:22:28Z</time></trkpt><trkpt lat="44.27106031649436" lon="9.44470728285844"><ele>26.5</ele><time>2026-04-26T07:22:29Z</time></trkpt><trkpt lat="44.27113505348879" lon="9.444855889910809"><ele>25.75</ele><time>2026-04-26T07:22:30Z</time></trkpt><trkpt lat="44.271214278278066" lon="9.444988172525537"><ele>25.0</ele><time>2026-04-26T07:22:31Z</time></trkpt><trkpt lat="44.27130311321903" lon="9.445116459120454"><ele>25.0</ele><time>2026-04-26T07:22:32Z</time></trkpt><trkpt lat="44.271389154039106" lon="9.445252748229862"><ele>25.0</ele><time>2026-04-26T07:22:33Z</time></trkpt><trkpt lat="44.27146793946281" lon="9.4453835712077"><ele>25.0</ele><time>2026-04-26T07:22:34Z</time></trkpt><trkpt lat="44.271535240317526" lon="9.445520705889084"><ele>25.0</ele><time>2026-04-26T07:22:35Z</time></trkpt><trkpt lat="44.27160469423799" lon="9.445657248632413"><ele>26.25</ele><time>2026-04-26T07:22:36Z</time></trkpt><trkpt lat="44.2716874921147" lon="9.445796532614011"><ele>27.5</ele><time>2026-04-26T07:22:37Z</time></trkpt><trkpt lat="44.27178170255678" lon="9.44591010034168"><ele>28.75</ele><time>2026-04-26T07:22:38Z</time></trkpt><trkpt lat="44.27189781883632" lon="9.446047314176784"><ele>30.0</ele><time>2026-04-26T07:22:39Z</time></trkpt><trkpt lat="44.271984273449235" lon="9.446195623227773"><ele>28.5</ele><time>2026-04-26T07:22:40Z</time></trkpt><trkpt lat="44.27205080965587" lon="9.446341303805484"><ele>27.0</ele><time>2026-04-26T07:22:41Z</time></trkpt><trkpt lat="44.2720862182226" lon="9.446512328944074"><ele>25.5</ele><time>2026-04-26T07:22:42Z</time></trkpt><trkpt lat="44.27210981919385" lon="9.446691966532137"><ele>24.0</ele><time>2026-04-26T07:22:43Z</time></trkpt><trkpt lat="44.2721366949849" lon="9.446867679233684"><ele>24.0</ele><time>2026-04-26T07:22:44Z</time></trkpt><trkpt lat="44.27216631498492" lon="9.447032889831812"><ele>24.0</ele><time>2026-04-26T07:22:45Z</time></trkpt><trkpt lat="44.27219523401215" lon="9.447195017374563"><ele>24.0</ele><time>2026-04-26T07:22:46Z</time></trkpt><trkpt lat="44.27222457400419" lon="9.447356435959023"><ele>24.0</ele><time>2026-04-26T07:22:47Z</time></trkpt><trkpt lat="44.272249532747395" lon="9.447523722702009"><ele>24.5</ele><time>2026-04-26T07:22:48Z</time></trkpt><trkpt lat="44.27227824686761" lon="9.447690085638442"><ele>25.0</ele><time>2026-04-26T07:22:49Z</time></trkpt><trkpt lat="44.27230494468583" lon="9.447855504147292"><ele>25.5</ele><time>2026-04-26T07:22:49.999Z</time></trkpt><trkpt lat="44.272330246415315" lon="9.448020950659043"><ele>26.0</ele><time>2026-04-26T07:22:50.999Z</time></trkpt><trkpt lat="44.272353222776445" lon="9.448186215815726"><ele>26.0</ele><time>2026-04-26T07:22:51.999Z</time></trkpt><trkpt lat="44.272378949850406" lon="9.448355983760958"><ele>26.0</ele><time>2026-04-26T07:22:52.999Z</time></trkpt><trkpt lat="44.27240137526004" lon="9.448530020419835"><ele>26.0</ele><time>2026-04-26T07:22:53.999Z</time></trkpt><trkpt lat="44.27241660546025" lon="9.448671633438025"><ele>26.0</ele><time>2026-04-26T07:22:54.999Z</time></trkpt><trkpt lat="44.272432566586446" lon="9.448824843805909"><ele>25.75</ele><time>2026-04-26T07:22:55.999Z</time></trkpt><trkpt lat="44.27244881730985" lon="9.44898216963988"><ele>25.5</ele><time>2026-04-26T07:22:56.999Z</time></trkpt><trkpt lat="44.27246604573868" lon="9.449143152652724"><ele>25.25</ele><time>2026-04-26T07:22:57.999Z</time></trkpt><trkpt lat="44.272484609350144" lon="9.449312608259975"><ele>25.0</ele><time>2026-04-26T07:22:58.999Z</time></trkpt><trkpt lat="44.27250617785227" lon="9.449484746070311"><ele>25.0</ele><time>2026-04-26T07:22:59.999Z</time></trkpt><trkpt lat="44.27254103123906" lon="9.449659503360346"><ele>25.0</ele><time>2026-04-26T07:23:00.999Z</time></trkpt><trkpt lat="44.27260469573755" lon="9.449814849029101"><ele>25.0</ele><time>2026-04-26T07:23:01.999Z</time></trkpt><trkpt lat="44.272662762900914" lon="9.4499772320759"><ele>25.0</ele><time>2026-04-26T07:23:02.999Z</time></trkpt><trkpt lat="44.27272801815126" lon="9.45012945399411"><ele>25.0</ele><time>2026-04-26T07:23:03.999Z</time></trkpt><trkpt lat="44.272789723951995" lon="9.450278475895209"><ele>25.0</ele><time>2026-04-26T07:23:04.999Z</time></trkpt><trkpt lat="44.272848585440826" lon="9.45043037582493"><ele>25.0</ele><time>2026-04-26T07:23:05.999Z</time></trkpt><trkpt lat="44.27290986322848" lon="9.450573033183703"><ele>25.0</ele><time>2026-04-26T07:23:06.999Z</time></trkpt><trkpt lat="44.272970251982464" lon="9.450718640776202"><ele>25.0</ele><time>2026-04-26T07:23:07.999Z</time></trkpt><trkpt lat="44.27302531080647" lon="9.450872831712886"><ele>25.0</ele><time>2026-04-26T07:23:08.999Z</time></trkpt><trkpt lat="44.27309073049498" lon="9.451034910282237"><ele>25.0</ele><time>2026-04-26T07:23:09.999Z</time></trkpt><trkpt lat="44.273149212367976" lon="9.451183246841426"><ele>25.0</ele><time>2026-04-26T07:23:10.999Z</time></trkpt><trkpt lat="44.273184506927095" lon="9.451338256236378"><ele>26.5</ele><time>2026-04-26T07:23:11.999Z</time></trkpt><trkpt lat="44.2732378764991" lon="9.451487326141887"><ele>28.0</ele><time>2026-04-26T07:23:12.999Z</time></trkpt><trkpt lat="44.273296826816896" lon="9.451671977795709"><ele>29.5</ele><time>2026-04-26T07:23:13.999Z</time></trkpt><trkpt lat="44.27335515006525" lon="9.451858862669502"><ele>31.0</ele><time>2026-04-26T07:23:14.999Z</time></trkpt><trkpt lat="44.27341774745442" lon="9.45201822088006"><ele>30.200000000000003</ele><time>2026-04-26T07:23:15.999Z</time></trkpt><trkpt lat="44.27346108962094" lon="9.45216630110953"><ele>29.400000000000002</ele><time>2026-04-26T07:23:16.999Z</time></trkpt><trkpt lat="44.27352671119782" lon="9.452284752126598"><ele>28.6</ele><time>2026-04-26T07:23:17.999Z</time></trkpt><trkpt lat="44.273620596336784" lon="9.452365920978863"><ele>27.8</ele><time>2026-04-26T07:23:18.999Z</time></trkpt><trkpt lat="44.27372306316433" lon="9.452424752486206"><ele>27.0</ele><time>2026-04-26T07:23:19.999Z</time></trkpt><trkpt lat="44.27380260690916" lon="9.452524153662113"><ele>27.0</ele><time>2026-04-26T07:23:20.999Z</time></trkpt><trkpt lat="44.27387293261119" lon="9.452627097686157"><ele>27.000000000000004</ele><time>2026-04-26T07:23:21.999Z</time></trkpt><trkpt lat="44.273917535991664" lon="9.452760720563916"><ele>27.000000000000004</ele><time>2026-04-26T07:23:22.999Z</time></trkpt><trkpt lat="44.2739581350339" lon="9.452907236505073"><ele>27.0</ele><time>2026-04-26T07:23:23.999Z</time></trkpt><trkpt lat="44.27397627641476" lon="9.453031879435777"><ele>27.0</ele><time>2026-04-26T07:23:24.999Z</time></trkpt><trkpt lat="44.27399411310187" lon="9.453142420029007"><ele>27.6</ele><time>2026-04-26T07:23:25.999Z</time></trkpt><trkpt lat="44.27402064563691" lon="9.453259017007417"><ele>28.200000000000003</ele><time>2026-04-26T07:23:26.999Z</time></trkpt><trkpt lat="44.274056083245945" lon="9.45337479017824"><ele>28.8</ele><time>2026-04-26T07:23:27.999Z</time></trkpt><trkpt lat="44.274070174453364" lon="9.453502906387996"><ele>29.4</ele><time>2026-04-26T07:23:28.999Z</time></trkpt><trkpt lat="44.27409865047469" lon="9.453624134062721"><ele>30.0</ele><time>2026-04-26T07:23:29.999Z</time></trkpt><trkpt lat="44.274128258816205" lon="9.453745816932486"><ele>30.5</ele><time>2026-04-26T07:23:30.999Z</time></trkpt><trkpt lat="44.27416162448523" lon="9.453874351271176"><ele>31.0</ele><time>2026-04-26T07:23:31.999Z</time></trkpt><trkpt lat="44.27419712793627" lon="9.454029611878983"><ele>31.5</ele><time>2026-04-26T07:23:32.999Z</time></trkpt><trkpt lat="44.2742570643787" lon="9.454195072458461"><ele>32.0</ele><time>2026-04-26T07:23:33.999Z</time></trkpt><trkpt lat="44.27432840179117" lon="9.45436303189446"><ele>32.0</ele><time>2026-04-26T07:23:34.999Z</time></trkpt><trkpt lat="44.27440276562777" lon="9.454488349869935"><ele>32.0</ele><time>2026-04-26T07:23:35.999Z</time></trkpt><trkpt lat="44.274462234634896" lon="9.454624482813935"><ele>32.0</ele><time>2026-04-26T07:23:36.999Z</time></trkpt><trkpt lat="44.27451472664245" lon="9.45474381439551"><ele>32.0</ele><time>2026-04-26T07:23:37.999Z</time></trkpt><trkpt lat="44.27457216308265" lon="9.454866556412227"><ele>32.0</ele><time>2026-04-26T07:23:38.999Z</time></trkpt><trkpt lat="44.2746226754739" lon="9.454985788759409"><ele>32.0</ele><time>2026-04-26T07:23:39.999Z</time></trkpt><trkpt lat="44.27467451647532" lon="9.455113745868529"><ele>32.0</ele><time>2026-04-26T07:23:40.999Z</time></trkpt><trkpt lat="44.27471814078824" lon="9.45525870227964"><ele>32.0</ele><time>2026-04-26T07:23:41.999Z</time></trkpt><trkpt lat="44.274754656672336" lon="9.455411315947389"><ele>32.0</ele><time>2026-04-26T07:23:42.999Z</time></trkpt><trkpt lat="44.27477377955673" lon="9.455551555622044"><ele>32.0</ele><time>2026-04-26T07:23:43.999Z</time></trkpt><trkpt lat="44.27478234012366" lon="9.455685451838477"><ele>33.6</ele><time>2026-04-26T07:23:44.999Z</time></trkpt><trkpt lat="44.274792463589144" lon="9.455819400422492"><ele>35.2</ele><time>2026-04-26T07:23:45.999Z</time></trkpt><trkpt lat="44.274802778905254" lon="9.455955114354964"><ele>36.8</ele><time>2026-04-26T07:23:46.999Z</time></trkpt><trkpt lat="44.274809382800555" lon="9.456097863190324"><ele>38.4</ele><time>2026-04-26T07:23:47.999Z</time></trkpt><trkpt lat="44.27480849327576" lon="9.45624138990625"><ele>40.0</ele><time>2026-04-26T07:23:48.999Z</time></trkpt><trkpt lat="44.27480290230545" lon="9.4563857640455"><ele>40.0</ele><time>2026-04-26T07:23:49.999Z</time></trkpt><trkpt lat="44.274795912182235" lon="9.45652960394103"><ele>40.0</ele><time>2026-04-26T07:23:50.999Z</time></trkpt><trkpt lat="44.27479015276431" lon="9.456671519570085"><ele>40.0</ele><time>2026-04-26T07:23:51.999Z</time></trkpt><trkpt lat="44.27478937526437" lon="9.45681115095303"><ele>40.0</ele><time>2026-04-26T07:23:52.999Z</time></trkpt><trkpt lat="44.274794376369286" lon="9.45695117129432"><ele>40.0</ele><time>2026-04-26T07:23:53.999Z</time></trkpt><trkpt lat="44.27480816125501" lon="9.457085837861953"><ele>39.6</ele><time>2026-04-26T07:23:54.999Z</time></trkpt><trkpt lat="44.27482840323443" lon="9.457225425408252"><ele>39.2</ele><time>2026-04-26T07:23:55.999Z</time></trkpt><trkpt lat="44.27484774617106" lon="9.45736150808682"><ele>38.8</ele><time>2026-04-26T07:23:56.999Z</time></trkpt><trkpt lat="44.274866720489285" lon="9.45749594711717"><ele>38.4</ele><time>2026-04-26T07:23:57.999Z</time></trkpt><trkpt lat="44.27489012037095" lon="9.457632340256046"><ele>38.0</ele><time>2026-04-26T07:23:58.999Z</time></trkpt><trkpt lat="44.27492138993861" lon="9.457767790299254"><ele>38.0</ele><time>2026-04-26T07:23:59.999Z</time></trkpt><trkpt lat="44.27495627151167" lon="9.457899246590951"><ele>38.0</ele><time>2026-04-26T07:24:00.999Z</time></trkpt><trkpt lat="44.27498229449329" lon="9.458032447970913"><ele>38.0</ele><time>2026-04-26T07:24:01.999Z</time></trkpt><trkpt lat="44.274995277511394" lon="9.458172803354543"><ele>38.0</ele><time>2026-04-26T07:24:02.999Z</time></trkpt><trkpt lat="44.27498471748498" lon="9.458332448475872"><ele>38.0</ele><time>2026-04-26T07:24:03.999Z</time></trkpt><trkpt lat="44.27499552248722" lon="9.458492218677085"><ele>38.0</ele><time>2026-04-26T07:24:04.999Z</time></trkpt><trkpt lat="44.27498367241832" lon="9.458665649333579"><ele>38.0</ele><time>2026-04-26T07:24:05.999Z</time></trkpt><trkpt lat="44.27497818025317" lon="9.458835986415243"><ele>38.0</ele><time>2026-04-26T07:24:06.999Z</time></trkpt><trkpt lat="44.274978032493145" lon="9.459011908628293"><ele>38.0</ele><time>2026-04-26T07:24:07.999Z</time></trkpt><trkpt lat="44.27497733930994" lon="9.459171998811271"><ele>38.0</ele><time>2026-04-26T07:24:08.999Z</time></trkpt><trkpt lat="44.274976306488846" lon="9.459338466776183"><ele>38.0</ele><time>2026-04-26T07:24:10Z</time></trkpt><trkpt lat="44.274998009100415" lon="9.459517132798668"><ele>38.0</ele><time>2026-04-26T07:24:11Z</time></trkpt><trkpt lat="44.27502529232633" lon="9.459708631910205"><ele>38.0</ele><time>2026-04-26T07:24:12Z</time></trkpt><trkpt lat="44.27504614428888" lon="9.459912755962785"><ele>38.0</ele><time>2026-04-26T07:24:13Z</time></trkpt><trkpt lat="44.27506455531684" lon="9.460127168738882"><ele>38.0</ele><time>2026-04-26T07:24:14Z</time></trkpt><trkpt lat="44.27508419439019" lon="9.460335073834054"><ele>38.0</ele><time>2026-04-26T07:24:15Z</time></trkpt><trkpt lat="44.27509946757386" lon="9.460538804555867"><ele>37.75</ele><time>2026-04-26T07:24:16Z</time></trkpt><trkpt lat="44.27512157202323" lon="9.460725173711287"><ele>37.5</ele><time>2026-04-26T07:24:17Z</time></trkpt><trkpt lat="44.27514229356169" lon="9.460899188433674"><ele>37.25</ele><time>2026-04-26T07:24:18Z</time></trkpt><trkpt lat="44.27516091662357" lon="9.461066128780354"><ele>37.0</ele><time>2026-04-26T07:24:19Z</time></trkpt><trkpt lat="44.275178698046616" lon="9.461239829444619"><ele>36.5</ele><time>2026-04-26T07:24:20Z</time></trkpt><trkpt lat="44.27519514972164" lon="9.461406007191863"><ele>36.0</ele><time>2026-04-26T07:24:21Z</time></trkpt><trkpt lat="44.27520778914548" lon="9.46156898081061"><ele>35.5</ele><time>2026-04-26T07:24:22Z</time></trkpt><trkpt lat="44.275217192097905" lon="9.461721024732055"><ele>35.0</ele><time>2026-04-26T07:24:23Z</time></trkpt><trkpt lat="44.275226650037666" lon="9.46186697602394"><ele>35.0</ele><time>2026-04-26T07:24:24Z</time></trkpt><trkpt lat="44.27522931082083" lon="9.462012575979463"><ele>35.0</ele><time>2026-04-26T07:24:25Z</time></trkpt><trkpt lat="44.27522332944714" lon="9.462162898659408"><ele>35.0</ele><time>2026-04-26T07:24:26Z</time></trkpt><trkpt lat="44.275215607020634" lon="9.46231721501188"><ele>35.0</ele><time>2026-04-26T07:24:27Z</time></trkpt><trkpt lat="44.27521753224161" lon="9.462477423581403"><ele>35.0</ele><time>2026-04-26T07:24:28Z</time></trkpt><trkpt lat="44.275226307933096" lon="9.46264545221447"><ele>35.75</ele><time>2026-04-26T07:24:29Z</time></trkpt><trkpt lat="44.27523504775612" lon="9.462819917617296"><ele>36.5</ele><time>2026-04-26T07:24:30Z</time></trkpt><trkpt lat="44.27524082596206" lon="9.462994698065181"><ele>37.25</ele><time>2026-04-26T07:24:31Z</time></trkpt><trkpt lat="44.27524512019128" lon="9.463169162238998"><ele>38.0</ele><time>2026-04-26T07:24:32Z</time></trkpt><trkpt lat="44.275240183246154" lon="9.463348880563162"><ele>38.25</ele><time>2026-04-26T07:24:33Z</time></trkpt><trkpt lat="44.27524496419141" lon="9.463532270150163"><ele>38.5</ele><time>2026-04-26T07:24:34Z</time></trkpt><trkpt lat="44.27526221332938" lon="9.463712201953932"><ele>38.75</ele><time>2026-04-26T07:24:35Z</time></trkpt><trkpt lat="44.27528013686765" lon="9.463892034092705"><ele>39.0</ele><time>2026-04-26T07:24:36Z</time></trkpt><trkpt lat="44.2753004224007" lon="9.464071745904532"><ele>39.0</ele><time>2026-04-26T07:24:37Z</time></trkpt><trkpt lat="44.27532192604673" lon="9.464247875037598"><ele>39.0</ele><time>2026-04-26T07:24:38Z</time></trkpt><trkpt lat="44.275342625042434" lon="9.464429018163793"><ele>39.0</ele><time>2026-04-26T07:24:39Z</time></trkpt><trkpt lat="44.27535899897061" lon="9.46460703138305"><ele>39.0</ele><time>2026-04-26T07:24:40Z</time></trkpt><trkpt lat="44.27537191396261" lon="9.464785794107373"><ele>39.0</ele><time>2026-04-26T07:24:41Z</time></trkpt><trkpt lat="44.27539082597988" lon="9.464965433166414"><ele>39.0</ele><time>2026-04-26T07:24:42Z</time></trkpt><trkpt lat="44.27539632281502" lon="9.46514622970556"><ele>39.0</ele><time>2026-04-26T07:24:43Z</time></trkpt><trkpt lat="44.27538079065042" lon="9.465325430418641"><ele>39.0</ele><time>2026-04-26T07:24:44Z</time></trkpt><trkpt lat="44.27533742945236" lon="9.465494686100623"><ele>40.5</ele><time>2026-04-26T07:24:45Z</time></trkpt><trkpt lat="44.275278822793005" lon="9.46566554653826"><ele>42.0</ele><time>2026-04-26T07:24:46Z</time></trkpt><trkpt lat="44.27520592118188" lon="9.465815701416526"><ele>43.5</ele><time>2026-04-26T07:24:47Z</time></trkpt><trkpt lat="44.27512893523219" lon="9.465968958977403"><ele>45.0</ele><time>2026-04-26T07:24:48Z</time></trkpt><trkpt lat="44.275066190062184" lon="9.46612844866315"><ele>45.5</ele><time>2026-04-26T07:24:49Z</time></trkpt><trkpt lat="44.27502176120037" lon="9.466301859570216"><ele>46.0</ele><time>2026-04-26T07:24:50Z</time></trkpt><trkpt lat="44.275001897757576" lon="9.466490439431738"><ele>46.5</ele><time>2026-04-26T07:24:51Z</time></trkpt><trkpt lat="44.274986925167994" lon="9.466671947683555"><ele>47.0</ele><time>2026-04-26T07:24:52Z</time></trkpt><trkpt lat="44.27498568901089" lon="9.466864780206096"><ele>47.0</ele><time>2026-04-26T07:24:53Z</time></trkpt><trkpt lat="44.27499577118349" lon="9.467054714242977"><ele>47.0</ele><time>2026-04-26T07:24:54Z</time></trkpt><trkpt lat="44.27501719199655" lon="9.467242432127454"><ele>47.0</ele><time>2026-04-26T07:24:55Z</time></trkpt><trkpt lat="44.27501589276494" lon="9.467421694811756"><ele>47.0</ele><time>2026-04-26T07:24:56Z</time></trkpt><trkpt lat="44.27500375101196" lon="9.467596195490938"><ele>47.5</ele><time>2026-04-26T07:24:57Z</time></trkpt><trkpt lat="44.27495314060151" lon="9.467758804130021"><ele>48.0</ele><time>2026-04-26T07:24:58Z</time></trkpt><trkpt lat="44.27486536739903" lon="9.467901250866506"><ele>48.5</ele><time>2026-04-26T07:24:59Z</time></trkpt><trkpt lat="44.27477970985692" lon="9.468055490620582"><ele>49.0</ele><time>2026-04-26T07:25:00Z</time></trkpt><trkpt lat="44.274692525457105" lon="9.468181389139557"><ele>47.5</ele><time>2026-04-26T07:25:01Z</time></trkpt><trkpt lat="44.27461988177475" lon="9.468322596832875"><ele>46.0</ele><time>2026-04-26T07:25:02Z</time></trkpt><trkpt lat="44.274574278044724" lon="9.468480833055002"><ele>44.5</ele><time>2026-04-26T07:25:03Z</time></trkpt><trkpt lat="44.27455837326696" lon="9.468655975425458"><ele>43.0</ele><time>2026-04-26T07:25:04Z</time></trkpt><trkpt lat="44.27457804074298" lon="9.468828489899893"><ele>43.0</ele><time>2026-04-26T07:25:05Z</time></trkpt><trkpt lat="44.27462690021559" lon="9.468975172986712"><ele>43.0</ele><time>2026-04-26T07:25:06Z</time></trkpt><trkpt lat="44.27469766837825" lon="9.46909102475392"><ele>43.0</ele><time>2026-04-26T07:25:07Z</time></trkpt><trkpt lat="44.27477372475732" lon="9.469164082729371"><ele>43.0</ele><time>2026-04-26T07:25:08Z</time></trkpt><trkpt lat="44.274846500936455" lon="9.469206329904276"><ele>43.0</ele><time>2026-04-26T07:25:09Z</time></trkpt><trkpt lat="44.27492709247191" lon="9.469232383859845"><ele>46.0</ele><time>2026-04-26T07:25:10Z</time></trkpt><trkpt lat="44.27502023365754" lon="9.469268637693883"><ele>49.0</ele><time>2026-04-26T07:25:11Z</time></trkpt><trkpt lat="44.27512591505419" lon="9.469293478137951"><ele>52.0</ele><time>2026-04-26T07:25:12Z</time></trkpt><trkpt lat="44.275252273737905" lon="9.469319005232217"><ele>55.0</ele><time>2026-04-26T07:25:13Z</time></trkpt><trkpt lat="44.27537936273593" lon="9.469333834622542"><ele>55.0</ele><time>2026-04-26T07:25:14Z</time></trkpt><trkpt lat="44.27549696897246" lon="9.46936404663663"><ele>55.0</ele><time>2026-04-26T07:25:15Z</time></trkpt><trkpt lat="44.27562194466463" lon="9.469383882129142"><ele>55.0</ele><time>2026-04-26T07:25:16Z</time></trkpt><trkpt lat="44.27574631821525" lon="9.469396622994205"><ele>55.0</ele><time>2026-04-26T07:25:17Z</time></trkpt><trkpt lat="44.275865457388576" lon="9.469409460661701"><ele>56.25</ele><time>2026-04-26T07:25:18Z</time></trkpt><trkpt lat="44.275988640559326" lon="9.46941008092883"><ele>57.5</ele><time>2026-04-26T07:25:19Z</time></trkpt><trkpt lat="44.27611398262829" lon="9.469408731118289"><ele>58.75</ele><time>2026-04-26T07:25:20Z</time></trkpt><trkpt lat="44.27623618467904" lon="9.469406057820809"><ele>60.0</ele><time>2026-04-26T07:25:21Z</time></trkpt><trkpt lat="44.276360386375465" lon="9.469412468953308"><ele>60.25</ele><time>2026-04-26T07:25:22Z</time></trkpt><trkpt lat="44.27648288538453" lon="9.469446282117394"><ele>60.5</ele><time>2026-04-26T07:25:23Z</time></trkpt><trkpt lat="44.276592525501314" lon="9.469519173996055"><ele>60.75</ele><time>2026-04-26T07:25:24Z</time></trkpt><trkpt lat="44.27668286949745" lon="9.469639819026884"><ele>61.0</ele><time>2026-04-26T07:25:25Z</time></trkpt><trkpt lat="44.27673281388089" lon="9.469799341080677"><ele>59.0</ele><time>2026-04-26T07:25:26Z</time></trkpt><trkpt lat="44.276771112754616" lon="9.469954645277605"><ele>57.0</ele><time>2026-04-26T07:25:27Z</time></trkpt><trkpt lat="44.27677361987319" lon="9.470127046851573"><ele>55.0</ele><time>2026-04-26T07:25:28Z</time></trkpt><trkpt lat="44.27674132857917" lon="9.47029408631564"><ele>53.0</ele><time>2026-04-26T07:25:29Z</time></trkpt><trkpt lat="44.27667868956839" lon="9.470447047692614"><ele>53.0</ele><time>2026-04-26T07:25:30Z</time></trkpt><trkpt lat="44.27658493558401" lon="9.470564819764535"><ele>53.0</ele><time>2026-04-26T07:25:31Z</time></trkpt><trkpt lat="44.27648041238673" lon="9.470676763630891"><ele>53.0</ele><time>2026-04-26T07:25:32Z</time></trkpt><trkpt lat="44.27638419020809" lon="9.470786618373985"><ele>53.0</ele><time>2026-04-26T07:25:33Z</time></trkpt><trkpt lat="44.2762802198119" lon="9.47087428424819"><ele>52.0</ele><time>2026-04-26T07:25:34Z</time></trkpt><trkpt lat="44.27617768324204" lon="9.470963935262489"><ele>51.0</ele><time>2026-04-26T07:25:35Z</time></trkpt><trkpt lat="44.276088736009065" lon="9.471066110856615"><ele>50.0</ele><time>2026-04-26T07:25:36Z</time></trkpt><trkpt lat="44.27598851367775" lon="9.471154200397946"><ele>49.0</ele><time>2026-04-26T07:25:37Z</time></trkpt><trkpt lat="44.275904057620274" lon="9.471272094688647"><ele>50.25</ele><time>2026-04-26T07:25:38Z</time></trkpt><trkpt lat="44.27582431251772" lon="9.47139813993642"><ele>51.5</ele><time>2026-04-26T07:25:39Z</time></trkpt><trkpt lat="44.275760206454734" lon="9.471546632172227"><ele>52.75</ele><time>2026-04-26T07:25:40Z</time></trkpt><trkpt lat="44.27569736253619" lon="9.471693317629011"><ele>54.0</ele><time>2026-04-26T07:25:41Z</time></trkpt><trkpt lat="44.275645030238884" lon="9.471840387412607"><ele>53.0</ele><time>2026-04-26T07:25:42Z</time></trkpt><trkpt lat="44.275586929688885" lon="9.471982537061637"><ele>52.0</ele><time>2026-04-26T07:25:43Z</time></trkpt><trkpt lat="44.27552433088661" lon="9.472123269102799"><ele>51.0</ele><time>2026-04-26T07:25:44Z</time></trkpt><trkpt lat="44.27547979793401" lon="9.472263583855355"><ele>50.0</ele><time>2026-04-26T07:25:44.999Z</time></trkpt><trkpt lat="44.275421122384884" lon="9.472408283468242"><ele>50.0</ele><time>2026-04-26T07:25:45.999Z</time></trkpt><trkpt lat="44.27536376370153" lon="9.472525620072528"><ele>50.0</ele><time>2026-04-26T07:25:46.999Z</time></trkpt><trkpt lat="44.27528444222278" lon="9.472602326388264"><ele>50.0</ele><time>2026-04-26T07:25:47.999Z</time></trkpt><trkpt lat="44.27521162068139" lon="9.47269191105351"><ele>50.0</ele><time>2026-04-26T07:25:48.999Z</time></trkpt><trkpt lat="44.27514978187209" lon="9.472835277558682"><ele>50.0</ele><time>2026-04-26T07:25:49.999Z</time></trkpt><trkpt lat="44.275068836967" lon="9.47294279406366"><ele>50.4</ele><time>2026-04-26T07:25:50.999Z</time></trkpt><trkpt lat="44.27499069250107" lon="9.473038884679298"><ele>50.8</ele><time>2026-04-26T07:25:51.999Z</time></trkpt><trkpt lat="44.2749151447751" lon="9.473123164647914"><ele>51.2</ele><time>2026-04-26T07:25:52.999Z</time></trkpt><trkpt lat="44.27482601824817" lon="9.473181467092713"><ele>51.6</ele><time>2026-04-26T07:25:53.999Z</time></trkpt><trkpt lat="44.274753478357624" lon="9.473263754919856"><ele>52.0</ele><time>2026-04-26T07:25:54.999Z</time></trkpt><trkpt lat="44.27467923350716" lon="9.473354548604025"><ele>52.0</ele><time>2026-04-26T07:25:55.999Z</time></trkpt><trkpt lat="44.274580962849484" lon="9.473383994989254"><ele>52.0</ele><time>2026-04-26T07:25:56.999Z</time></trkpt><trkpt lat="44.27448611995801" lon="9.47341635886004"><ele>52.0</ele><time>2026-04-26T07:25:57.999Z</time></trkpt><trkpt lat="44.27439057773886" lon="9.473465592786717"><ele>52.0</ele><time>2026-04-26T07:25:58.999Z</time></trkpt><trkpt lat="44.27429204080746" lon="9.473481156350928"><ele>52.0</ele><time>2026-04-26T07:25:59.999Z</time></trkpt><trkpt lat="44.27419240132716" lon="9.47351208069906"><ele>52.0</ele><time>2026-04-26T07:26:00.999Z</time></trkpt><trkpt lat="44.27410258533908" lon="9.473579103295112"><ele>52.0</ele><time>2026-04-26T07:26:01.999Z</time></trkpt><trkpt lat="44.27401583083795" lon="9.473668484019782"><ele>52.0</ele><time>2026-04-26T07:26:02.999Z</time></trkpt><trkpt lat="44.273934720866656" lon="9.473777775449474"><ele>52.0</ele><time>2026-04-26T07:26:03.999Z</time></trkpt><trkpt lat="44.27386457594537" lon="9.473913304177511"><ele>52.0</ele><time>2026-04-26T07:26:04.999Z</time></trkpt><trkpt lat="44.27380640451926" lon="9.474059522063536"><ele>51.75</ele><time>2026-04-26T07:26:05.999Z</time></trkpt><trkpt lat="44.27375316653148" lon="9.4742042800329"><ele>51.5</ele><time>2026-04-26T07:26:06.999Z</time></trkpt><trkpt lat="44.27370191177439" lon="9.474354943425881"><ele>51.25</ele><time>2026-04-26T07:26:07.999Z</time></trkpt><trkpt lat="44.273645859540565" lon="9.474488149164788"><ele>51.0</ele><time>2026-04-26T07:26:08.999Z</time></trkpt><trkpt lat="44.27363193169153" lon="9.474647205147875"><ele>52.0</ele><time>2026-04-26T07:26:09.999Z</time></trkpt><trkpt lat="44.27363858222862" lon="9.474818928917355"><ele>53.0</ele><time>2026-04-26T07:26:10.999Z</time></trkpt><trkpt lat="44.273656459713656" lon="9.474991843271999"><ele>54.0</ele><time>2026-04-26T07:26:11.999Z</time></trkpt><trkpt lat="44.27367834189419" lon="9.47516233652233"><ele>55.0</ele><time>2026-04-26T07:26:12.999Z</time></trkpt><trkpt lat="44.273705197182615" lon="9.475341017183624"><ele>55.25</ele><time>2026-04-26T07:26:13.999Z</time></trkpt><trkpt lat="44.27373179269793" lon="9.475502973018616"><ele>55.5</ele><time>2026-04-26T07:26:14.999Z</time></trkpt><trkpt lat="44.273753041829906" lon="9.475676420730636"><ele>55.75</ele><time>2026-04-26T07:26:16Z</time></trkpt><trkpt lat="44.27374407662614" lon="9.475836976443196"><ele>56.0</ele><time>2026-04-26T07:26:17Z</time></trkpt><trkpt lat="44.273729409563245" lon="9.475989705603261"><ele>56.0</ele><time>2026-04-26T07:26:18Z</time></trkpt><trkpt lat="44.27371004134342" lon="9.476166554003322"><ele>56.0</ele><time>2026-04-26T07:26:19Z</time></trkpt><trkpt lat="44.273668292222" lon="9.476325387738845"><ele>56.0</ele><time>2026-04-26T07:26:20Z</time></trkpt><trkpt lat="44.27362506223822" lon="9.476490941499616"><ele>56.0</ele><time>2026-04-26T07:26:21Z</time></trkpt><trkpt lat="44.27358100370799" lon="9.47665850524618"><ele>56.5</ele><time>2026-04-26T07:26:22Z</time></trkpt><trkpt lat="44.27353615216309" lon="9.476831693600142"><ele>57.0</ele><time>2026-04-26T07:26:23Z</time></trkpt><trkpt lat="44.273499660560056" lon="9.47700218073943"><ele>57.5</ele><time>2026-04-26T07:26:24Z</time></trkpt><trkpt lat="44.273463477403546" lon="9.477180465188551"><ele>58.0</ele><time>2026-04-26T07:26:25Z</time></trkpt><trkpt lat="44.27344448447237" lon="9.477378490987647"><ele>58.75</ele><time>2026-04-26T07:26:26Z</time></trkpt><trkpt lat="44.27342615903092" lon="9.477564807807092"><ele>59.5</ele><time>2026-04-26T07:26:27Z</time></trkpt><trkpt lat="44.27340710569978" lon="9.477742941334371"><ele>60.25</ele><time>2026-04-26T07:26:28Z</time></trkpt><trkpt lat="44.27338489457502" lon="9.47792420169446"><ele>61.0</ele><time>2026-04-26T07:26:29Z</time></trkpt><trkpt lat="44.2733581728197" lon="9.47810265088322"><ele>61.25</ele><time>2026-04-26T07:26:30Z</time></trkpt><trkpt lat="44.27329887555643" lon="9.478272293257115"><ele>61.5</ele><time>2026-04-26T07:26:31Z</time></trkpt><trkpt lat="44.273256770504624" lon="9.478434383757598"><ele>61.75</ele><time>2026-04-26T07:26:32Z</time></trkpt><trkpt lat="44.27319424466199" lon="9.478578762802591"><ele>62.0</ele><time>2026-04-26T07:26:33Z</time></trkpt><trkpt lat="44.27314402791095" lon="9.478733748950466"><ele>64.5</ele><time>2026-04-26T07:26:34Z</time></trkpt><trkpt lat="44.27310143513493" lon="9.478894824591412"><ele>67.0</ele><time>2026-04-26T07:26:35Z</time></trkpt><trkpt lat="44.273066830570414" lon="9.479063405010299"><ele>69.5</ele><time>2026-04-26T07:26:36Z</time></trkpt><trkpt lat="44.27305435183277" lon="9.479236551899994"><ele>72.0</ele><time>2026-04-26T07:26:37Z</time></trkpt><trkpt lat="44.27306561370132" lon="9.479405954214927"><ele>72.0</ele><time>2026-04-26T07:26:38Z</time></trkpt><trkpt lat="44.27308926053596" lon="9.479582379847708"><ele>72.0</ele><time>2026-04-26T07:26:39Z</time></trkpt><trkpt lat="44.27312659343038" lon="9.479757903392308"><ele>72.0</ele><time>2026-04-26T07:26:40Z</time></trkpt><trkpt lat="44.27318032792081" lon="9.479927131943674"><ele>72.0</ele><time>2026-04-26T07:26:41Z</time></trkpt><trkpt lat="44.27325396631742" lon="9.480085783306372"><ele>70.25</ele><time>2026-04-26T07:26:42Z</time></trkpt><trkpt lat="44.27334566014572" lon="9.480227715879668"><ele>68.5</ele><time>2026-04-26T07:26:43Z</time></trkpt><trkpt lat="44.2734528123949" lon="9.480344691765554"><ele>66.75</ele><time>2026-04-26T07:26:44Z</time></trkpt><trkpt lat="44.273575340692766" lon="9.480444552947334"><ele>65.0</ele><time>2026-04-26T07:26:45Z</time></trkpt><trkpt lat="44.27369882310775" lon="9.480514542292234"><ele>65.0</ele><time>2026-04-26T07:26:46Z</time></trkpt><trkpt lat="44.27382912399568" lon="9.480581309108443"><ele>65.0</ele><time>2026-04-26T07:26:47Z</time></trkpt><trkpt lat="44.27395368275465" lon="9.480647686130652"><ele>65.0</ele><time>2026-04-26T07:26:48Z</time></trkpt><trkpt lat="44.274078094744794" lon="9.480723707339509"><ele>65.0</ele><time>2026-04-26T07:26:49Z</time></trkpt><trkpt lat="44.27419995729619" lon="9.480808605407164"><ele>65.0</ele><time>2026-04-26T07:26:50Z</time></trkpt><trkpt lat="44.27431464004063" lon="9.480910363726343"><ele>65.0</ele><time>2026-04-26T07:26:51Z</time></trkpt><trkpt lat="44.27441757797168" lon="9.481037779273265"><ele>65.0</ele><time>2026-04-26T07:26:52Z</time></trkpt><trkpt lat="44.27451897778556" lon="9.481187239435693"><ele>65.0</ele><time>2026-04-26T07:26:53Z</time></trkpt><trkpt lat="44.274605996996016" lon="9.481346495032632"><ele>66.33333333333334</ele><time>2026-04-26T07:26:54Z</time></trkpt><trkpt lat="44.27468866440285" lon="9.481522851350318"><ele>67.66666666666667</ele><time>2026-04-26T07:26:55Z</time></trkpt><trkpt lat="44.274761588371426" lon="9.481709648424085"><ele>69.0</ele><time>2026-04-26T07:26:56Z</time></trkpt><trkpt lat="44.274828173252274" lon="9.48191473058611"><ele>72.0</ele><time>2026-04-26T07:26:57Z</time></trkpt><trkpt lat="44.27488781419483" lon="9.482160121726315"><ele>75.0</ele><time>2026-04-26T07:26:58Z</time></trkpt><trkpt lat="44.27492258622815" lon="9.482449753077884"><ele>78.0</ele><time>2026-04-26T07:26:59Z</time></trkpt><trkpt lat="44.27496437968115" lon="9.482723330829126"><ele>82.0</ele><time>2026-04-26T07:27:00Z</time></trkpt><trkpt lat="44.27500157900839" lon="9.482991752045127"><ele>86.0</ele><time>2026-04-26T07:27:01Z</time></trkpt><trkpt lat="44.27503739506822" lon="9.483249307202259"><ele>90.0</ele><time>2026-04-26T07:27:02Z</time></trkpt><trkpt lat="44.27505196337267" lon="9.483501844406812"><ele>90.0</ele><time>2026-04-26T07:27:03Z</time></trkpt><trkpt lat="44.275050851162234" lon="9.483747285460598"><ele>90.0</ele><time>2026-04-26T07:27:04Z</time></trkpt><trkpt lat="44.2750638928381" lon="9.48398902310973"><ele>90.0</ele><time>2026-04-26T07:27:05Z</time></trkpt><trkpt lat="44.27506293855887" lon="9.484229817932386"><ele>91.0</ele><time>2026-04-26T07:27:06Z</time></trkpt><trkpt lat="44.27505767724012" lon="9.484474072518418"><ele>92.0</ele><time>2026-04-26T07:27:07Z</time></trkpt><trkpt lat="44.275050167018" lon="9.484713581576262"><ele>93.0</ele><time>2026-04-26T07:27:08Z</time></trkpt><trkpt lat="44.27504794195405" lon="9.4849526283873"><ele>93.0</ele><time>2026-04-26T07:27:09Z</time></trkpt><trkpt lat="44.275049092342826" lon="9.485196275175294"><ele>93.0</ele><time>2026-04-26T07:27:10Z</time></trkpt><trkpt lat="44.2750432704163" lon="9.485430615361965"><ele>93.0</ele><time>2026-04-26T07:27:11Z</time></trkpt><trkpt lat="44.27503255360203" lon="9.485672286898104"><ele>92.33333333333333</ele><time>2026-04-26T07:27:12Z</time></trkpt><trkpt lat="44.27500687099151" lon="9.485911688492"><ele>91.66666666666666</ele><time>2026-04-26T07:27:13Z</time></trkpt><trkpt lat="44.2749743431092" lon="9.486155411457958"><ele>91.0</ele><time>2026-04-26T07:27:14Z</time></trkpt><trkpt lat="44.27494110355844" lon="9.486399591042433"><ele>90.33333333333333</ele><time>2026-04-26T07:27:15Z</time></trkpt><trkpt lat="44.27490114373868" lon="9.486639591354203"><ele>89.66666666666667</ele><time>2026-04-26T07:27:16Z</time></trkpt><trkpt lat="44.27482242033044" lon="9.486857173105872"><ele>89.0</ele><time>2026-04-26T07:27:17Z</time></trkpt><trkpt lat="44.27474644279671" lon="9.487068550535737"><ele>99.33333333333334</ele><time>2026-04-26T07:27:18Z</time></trkpt><trkpt lat="44.274661045899954" lon="9.487273773969392"><ele>109.66666666666667</ele><time>2026-04-26T07:27:19Z</time></trkpt><trkpt lat="44.27455516837028" lon="9.487476849255417"><ele>120.0</ele><time>2026-04-26T07:27:20Z</time></trkpt><trkpt lat="44.27448277017119" lon="9.487695209821563"><ele>120.0</ele><time>2026-04-26T07:27:21Z</time></trkpt><trkpt lat="44.27440977020714" lon="9.48791163886889"><ele>120.0</ele><time>2026-04-26T07:27:22Z</time></trkpt><trkpt lat="44.27436079285514" lon="9.488148618632383"><ele>120.0</ele><time>2026-04-26T07:27:23Z</time></trkpt><trkpt lat="44.27432171662803" lon="9.488378989753365"><ele>117.66666666666666</ele><time>2026-04-26T07:27:24Z</time></trkpt><trkpt lat="44.274331695841745" lon="9.488594987271837"><ele>115.33333333333333</ele><time>2026-04-26T07:27:25Z</time></trkpt><trkpt lat="44.274355975702775" lon="9.488810196141618"><ele>113.0</ele><time>2026-04-26T07:27:26Z</time></trkpt><trkpt lat="44.274430947391814" lon="9.489006711472639"><ele>113.0</ele><time>2026-04-26T07:27:27Z</time></trkpt><trkpt lat="44.27449094545355" lon="9.489205331272212"><ele>113.0</ele><time>2026-04-26T07:27:28Z</time></trkpt><trkpt lat="44.27452766512403" lon="9.489401879219946"><ele>113.0</ele><time>2026-04-26T07:27:29Z</time></trkpt><trkpt lat="44.27454635295746" lon="9.489581786430287"><ele>113.0</ele><time>2026-04-26T07:27:30Z</time></trkpt><trkpt lat="44.274563699173164" lon="9.489758579166653"><ele>114.25</ele><time>2026-04-26T07:27:31Z</time></trkpt><trkpt lat="44.2745571784143" lon="9.489925666903067"><ele>115.5</ele><time>2026-04-26T07:27:32Z</time></trkpt><trkpt lat="44.2745012679024" lon="9.490092120175696"><ele>116.75</ele><time>2026-04-26T07:27:33Z</time></trkpt><trkpt lat="44.27443808468249" lon="9.490285632172585"><ele>118.0</ele><time>2026-04-26T07:27:34Z</time></trkpt><trkpt lat="44.274348606302645" lon="9.490466581374108"><ele>118.0</ele><time>2026-04-26T07:27:35Z</time></trkpt><trkpt lat="44.27427803835511" lon="9.490659765926177"><ele>118.0</ele><time>2026-04-26T07:27:36Z</time></trkpt><trkpt lat="44.274232793317566" lon="9.490858691484737"><ele>118.0</ele><time>2026-04-26T07:27:37Z</time></trkpt><trkpt lat="44.27422693988897" lon="9.49106908994202"><ele>119.66666666666667</ele><time>2026-04-26T07:27:38Z</time></trkpt><trkpt lat="44.2742693771422" lon="9.491278868234739"><ele>121.33333333333334</ele><time>2026-04-26T07:27:39Z</time></trkpt><trkpt lat="44.27434435233383" lon="9.491483572631552"><ele>123.0</ele><time>2026-04-26T07:27:40Z</time></trkpt><trkpt lat="44.27445358574608" lon="9.491659666382414"><ele>123.0</ele><time>2026-04-26T07:27:41Z</time></trkpt><trkpt lat="44.274575536751385" lon="9.49182073154281"><ele>123.0</ele><time>2026-04-26T07:27:42Z</time></trkpt><trkpt lat="44.27471246494856" lon="9.491938767712172"><ele>123.0</ele><time>2026-04-26T07:27:43Z</time></trkpt><trkpt lat="44.274867553179355" lon="9.491997591709026"><ele>119.25</ele><time>2026-04-26T07:27:44Z</time></trkpt><trkpt lat="44.27501537366391" lon="9.4920568306229"><ele>115.5</ele><time>2026-04-26T07:27:45Z</time></trkpt><trkpt lat="44.275142614776655" lon="9.492124262860905"><ele>111.75</ele><time>2026-04-26T07:27:46Z</time></trkpt><trkpt lat="44.27525607557249" lon="9.492199584960163"><ele>108.0</ele><time>2026-04-26T07:27:47Z</time></trkpt><trkpt lat="44.275335515084315" lon="9.492310246103147"><ele>108.0</ele><time>2026-04-26T07:27:48Z</time></trkpt><trkpt lat="44.275385403811036" lon="9.492456793774805"><ele>108.0</ele><time>2026-04-26T07:27:49Z</time></trkpt><trkpt lat="44.275377351231235" lon="9.492609744386757"><ele>108.0</ele><time>2026-04-26T07:27:50Z</time></trkpt><trkpt lat="44.275334027301625" lon="9.492768135291017"><ele>108.0</ele><time>2026-04-26T07:27:51Z</time></trkpt><trkpt lat="44.27523408579633" lon="9.492882245608941"><ele>107.75</ele><time>2026-04-26T07:27:52Z</time></trkpt><trkpt lat="44.275122756806724" lon="9.493001873768335"><ele>107.5</ele><time>2026-04-26T07:27:52.999Z</time></trkpt><trkpt lat="44.27502249032729" lon="9.493161565143673"><ele>107.25</ele><time>2026-04-26T07:27:53.999Z</time></trkpt><trkpt lat="44.27492221386112" lon="9.49332063602976"><ele>107.0</ele><time>2026-04-26T07:27:54.999Z</time></trkpt><trkpt lat="44.274844672799084" lon="9.49351721012373"><ele>107.0</ele><time>2026-04-26T07:27:55.999Z</time></trkpt><trkpt lat="44.274793305194386" lon="9.493725911781782"><ele>107.0</ele><time>2026-04-26T07:27:56.999Z</time></trkpt><trkpt lat="44.274749715889364" lon="9.493929921778722"><ele>107.0</ele><time>2026-04-26T07:27:57.999Z</time></trkpt><trkpt lat="44.27469441174994" lon="9.494123790525903"><ele>108.66666666666666</ele><time>2026-04-26T07:27:58.999Z</time></trkpt><trkpt lat="44.274647884783676" lon="9.494329656349972"><ele>110.33333333333334</ele><time>2026-04-26T07:27:59.999Z</time></trkpt><trkpt lat="44.27461574813256" lon="9.494532380818166"><ele>112.0</ele><time>2026-04-26T07:28:00.999Z</time></trkpt><trkpt lat="44.27456373596918" lon="9.494723870838222"><ele>112.0</ele><time>2026-04-26T07:28:01.999Z</time></trkpt><trkpt lat="44.27451855791637" lon="9.494910882445499"><ele>112.0</ele><time>2026-04-26T07:28:02.999Z</time></trkpt><trkpt lat="44.27448785437069" lon="9.49508667885618"><ele>112.0</ele><time>2026-04-26T07:28:03.999Z</time></trkpt><trkpt lat="44.27449667668843" lon="9.495260146020787"><ele>112.0</ele><time>2026-04-26T07:28:04.999Z</time></trkpt><trkpt lat="44.27454176634329" lon="9.495432633696296"><ele>112.0</ele><time>2026-04-26T07:28:05.999Z</time></trkpt><trkpt lat="44.27462566145169" lon="9.4955733441166"><ele>112.0</ele><time>2026-04-26T07:28:06.999Z</time></trkpt><trkpt lat="44.2747501271408" lon="9.495681589830651"><ele>112.0</ele><time>2026-04-26T07:28:07.999Z</time></trkpt><trkpt lat="44.27488548986656" lon="9.495777704954364"><ele>112.0</ele><time>2026-04-26T07:28:08.999Z</time></trkpt><trkpt lat="44.275006386351315" lon="9.495848991416484"><ele>112.19999999999999</ele><time>2026-04-26T07:28:09.999Z</time></trkpt><trkpt lat="44.275117004610145" lon="9.495911447313166"><ele>112.39999999999999</ele><time>2026-04-26T07:28:10.999Z</time></trkpt><trkpt lat="44.27521143944159" lon="9.495972142210281"><ele>112.60000000000001</ele><time>2026-04-26T07:28:11.999Z</time></trkpt><trkpt lat="44.27530648149256" lon="9.495997784886406"><ele>112.80000000000001</ele><time>2026-04-26T07:28:12.999Z</time></trkpt><trkpt lat="44.2753914789406" lon="9.495923035797436"><ele>113.0</ele><time>2026-04-26T07:28:13.999Z</time></trkpt><trkpt lat="44.27545555598423" lon="9.495818593590808"><ele>113.0</ele><time>2026-04-26T07:28:14.999Z</time></trkpt><trkpt lat="44.275524136869855" lon="9.495750078103399"><ele>113.00000000000001</ele><time>2026-04-26T07:28:15.999Z</time></trkpt><trkpt lat="44.275606273698806" lon="9.495769823802123"><ele>113.00000000000001</ele><time>2026-04-26T07:28:16.999Z</time></trkpt><trkpt lat="44.27566149259548" lon="9.495868904432267"><ele>113.0</ele><time>2026-04-26T07:28:17.999Z</time></trkpt><trkpt lat="44.27566958846027" lon="9.49599987391266"><ele>113.0</ele><time>2026-04-26T07:28:18.999Z</time></trkpt><trkpt lat="44.275591995924266" lon="9.496091735545882"><ele>113.0</ele><time>2026-04-26T07:28:19.999Z</time></trkpt><trkpt lat="44.275497540085006" lon="9.496146975069918"><ele>113.0</ele><time>2026-04-26T07:28:20.999Z</time></trkpt><trkpt lat="44.27538400898174" lon="9.496141867151486"><ele>113.0</ele><time>2026-04-26T07:28:22Z</time></trkpt><trkpt lat="44.275258453027575" lon="9.496159359533667"><ele>113.0</ele><time>2026-04-26T07:28:23Z</time></trkpt><trkpt lat="44.27514194939517" lon="9.496151885967235"><ele>113.0</ele><time>2026-04-26T07:28:24Z</time></trkpt><trkpt lat="44.275037634271726" lon="9.496150007056118"><ele>113.00000000000001</ele><time>2026-04-26T07:28:25Z</time></trkpt><trkpt lat="44.274937696893126" lon="9.49616203801263"><ele>113.00000000000001</ele><time>2026-04-26T07:28:26Z</time></trkpt><trkpt lat="44.27484377335439" lon="9.496184618760427"><ele>113.0</ele><time>2026-04-26T07:28:27Z</time></trkpt><trkpt lat="44.274772889183836" lon="9.496221268337573"><ele>113.0</ele><time>2026-04-26T07:28:28Z</time></trkpt><trkpt lat="44.274741068742976" lon="9.496330804316717"><ele>112.75</ele><time>2026-04-26T07:28:29Z</time></trkpt><trkpt lat="44.274758285092254" lon="9.4964904339766"><ele>112.5</ele><time>2026-04-26T07:28:30Z</time></trkpt><trkpt lat="44.27481509306762" lon="9.496650267105881"><ele>112.25</ele><time>2026-04-26T07:28:31Z</time></trkpt><trkpt lat="44.27487132684309" lon="9.49682541851088"><ele>112.0</ele><time>2026-04-26T07:28:32Z</time></trkpt><trkpt lat="44.27490964626983" lon="9.497003201403887"><ele>116.5</ele><time>2026-04-26T07:28:33Z</time></trkpt><trkpt lat="44.2749195083307" lon="9.497189575701384"><ele>121.0</ele><time>2026-04-26T07:28:34Z</time></trkpt><trkpt lat="44.27493571268456" lon="9.497378914111934"><ele>125.5</ele><time>2026-04-26T07:28:35Z</time></trkpt><trkpt lat="44.274956060719056" lon="9.497568085936654"><ele>130.0</ele><time>2026-04-26T07:28:36Z</time></trkpt><trkpt lat="44.27494548810994" lon="9.497770709008847"><ele>130.75</ele><time>2026-04-26T07:28:37Z</time></trkpt><trkpt lat="44.27493603309651" lon="9.497952799595407"><ele>131.5</ele><time>2026-04-26T07:28:38Z</time></trkpt><trkpt lat="44.27493685750194" lon="9.498144931379613"><ele>132.25</ele><time>2026-04-26T07:28:39Z</time></trkpt><trkpt lat="44.27494512731933" lon="9.498332755174896"><ele>133.0</ele><time>2026-04-26T07:28:40Z</time></trkpt><trkpt lat="44.27496409831379" lon="9.498521975772674"><ele>133.0</ele><time>2026-04-26T07:28:41Z</time></trkpt><trkpt lat="44.274998103192125" lon="9.498708937029047"><ele>133.0</ele><time>2026-04-26T07:28:42Z</time></trkpt><trkpt lat="44.27504829082625" lon="9.49888966164373"><ele>133.0</ele><time>2026-04-26T07:28:43Z</time></trkpt><trkpt lat="44.275112994011714" lon="9.499073354999725"><ele>133.0</ele><time>2026-04-26T07:28:44Z</time></trkpt><trkpt lat="44.2751837505201" lon="9.499242831053765"><ele>132.75</ele><time>2026-04-26T07:28:45Z</time></trkpt><trkpt lat="44.27522429808001" lon="9.499411769801348"><ele>132.5</ele><time>2026-04-26T07:28:46Z</time></trkpt><trkpt lat="44.275246956625786" lon="9.499595731466657"><ele>132.25</ele><time>2026-04-26T07:28:47Z</time></trkpt><trkpt lat="44.27525683371366" lon="9.499779689377435"><ele>132.0</ele><time>2026-04-26T07:28:48Z</time></trkpt><trkpt lat="44.27525698781137" lon="9.499988141335093"><ele>132.75</ele><time>2026-04-26T07:28:49Z</time></trkpt><trkpt lat="44.275239800430256" lon="9.500182480792533"><ele>133.5</ele><time>2026-04-26T07:28:50Z</time></trkpt><trkpt lat="44.27520310525275" lon="9.50037721089325"><ele>134.25</ele><time>2026-04-26T07:28:51Z</time></trkpt><trkpt lat="44.275144966762944" lon="9.500571661050737"><ele>135.0</ele><time>2026-04-26T07:28:52Z</time></trkpt><trkpt lat="44.27508078970833" lon="9.500756353112353"><ele>138.5</ele><time>2026-04-26T07:28:53Z</time></trkpt><trkpt lat="44.27502557244859" lon="9.500938880702671"><ele>142.0</ele><time>2026-04-26T07:28:54Z</time></trkpt><trkpt lat="44.274949613011756" lon="9.501096958969017"><ele>145.5</ele><time>2026-04-26T07:28:55Z</time></trkpt><trkpt lat="44.274862791352646" lon="9.501233480387304"><ele>149.0</ele><time>2026-04-26T07:28:56Z</time></trkpt><trkpt lat="44.27475720542028" lon="9.501350198965493"><ele>149.66666666666666</ele><time>2026-04-26T07:28:57Z</time></trkpt><trkpt lat="44.27462948115336" lon="9.501470936181212"><ele>150.33333333333334</ele><time>2026-04-26T07:28:58Z</time></trkpt><trkpt lat="44.27449843069878" lon="9.50158394516691"><ele>151.0</ele><time>2026-04-26T07:28:59Z</time></trkpt><trkpt lat="44.27436686046977" lon="9.501711618523906"><ele>151.0</ele><time>2026-04-26T07:29:00Z</time></trkpt><trkpt lat="44.27422541657229" lon="9.501806803970137"><ele>151.0</ele><time>2026-04-26T07:29:01Z</time></trkpt><trkpt lat="44.27409405712833" lon="9.501899890934896"><ele>151.0</ele><time>2026-04-26T07:29:02Z</time></trkpt><trkpt lat="44.27397060570578" lon="9.501990425381194"><ele>151.0</ele><time>2026-04-26T07:29:03Z</time></trkpt><trkpt lat="44.27384609646024" lon="9.502066923123232"><ele>152.75</ele><time>2026-04-26T07:29:04Z</time></trkpt><trkpt lat="44.27372681770071" lon="9.502137971995499"><ele>154.5</ele><time>2026-04-26T07:29:05Z</time></trkpt><trkpt lat="44.273599455406334" lon="9.502184279289711"><ele>156.25</ele><time>2026-04-26T07:29:06Z</time></trkpt><trkpt lat="44.27347329722989" lon="9.50220071266375"><ele>158.0</ele><time>2026-04-26T07:29:07Z</time></trkpt><trkpt lat="44.27335024097504" lon="9.502235796868334"><ele>158.0</ele><time>2026-04-26T07:29:08Z</time></trkpt><trkpt lat="44.273251028375086" lon="9.502333898529853"><ele>158.0</ele><time>2026-04-26T07:29:09Z</time></trkpt><trkpt lat="44.273181798849585" lon="9.50250150692555"><ele>158.0</ele><time>2026-04-26T07:29:10Z</time></trkpt><trkpt lat="44.27314770047662" lon="9.502710165195335"><ele>158.0</ele><time>2026-04-26T07:29:11Z</time></trkpt><trkpt lat="44.27310003730585" lon="9.502888461148432"><ele>156.25</ele><time>2026-04-26T07:29:12Z</time></trkpt><trkpt lat="44.273032077339245" lon="9.503043221310037"><ele>154.5</ele><time>2026-04-26T07:29:13Z</time></trkpt><trkpt lat="44.272926008216054" lon="9.503169956952044"><ele>152.75</ele><time>2026-04-26T07:29:14Z</time></trkpt><trkpt lat="44.27283772487678" lon="9.503305194616898"><ele>151.0</ele><time>2026-04-26T07:29:15Z</time></trkpt><trkpt lat="44.27276764319687" lon="9.503462305248181"><ele>151.0</ele><time>2026-04-26T07:29:16Z</time></trkpt><trkpt lat="44.272732552962914" lon="9.503650805240849"><ele>151.0</ele><time>2026-04-26T07:29:17Z</time></trkpt><trkpt lat="44.27270787135577" lon="9.503831365228407"><ele>151.0</ele><time>2026-04-26T07:29:18Z</time></trkpt><trkpt lat="44.27269212393735" lon="9.504005813478582"><ele>151.0</ele><time>2026-04-26T07:29:19Z</time></trkpt><trkpt lat="44.27269949595874" lon="9.504180273700129"><ele>154.4</ele><time>2026-04-26T07:29:20Z</time></trkpt><trkpt lat="44.27273877869219" lon="9.50432977870096"><ele>157.8</ele><time>2026-04-26T07:29:21Z</time></trkpt><trkpt lat="44.27277671964015" lon="9.504469289174704"><ele>161.20000000000002</ele><time>2026-04-26T07:29:22Z</time></trkpt><trkpt lat="44.272811316898505" lon="9.504590151831605"><ele>164.6</ele><time>2026-04-26T07:29:23Z</time></trkpt><trkpt lat="44.27282512307581" lon="9.504698431413269"><ele>168.0</ele><time>2026-04-26T07:29:24Z</time></trkpt><trkpt lat="44.27275112217628" lon="9.504806535642274"><ele>172.25</ele><time>2026-04-26T07:29:25Z</time></trkpt><trkpt lat="44.27264062087316" lon="9.504810750253265"><ele>176.5</ele><time>2026-04-26T07:29:26Z</time></trkpt><trkpt lat="44.27251907857998" lon="9.504787031056425"><ele>180.75</ele><time>2026-04-26T07:29:27Z</time></trkpt><trkpt lat="44.27239165175503" lon="9.504732103387195"><ele>185.0</ele><time>2026-04-26T07:29:28Z</time></trkpt><trkpt lat="44.27227679597194" lon="9.504647065646658"><ele>179.5</ele><time>2026-04-26T07:29:29Z</time></trkpt><trkpt lat="44.27217179817143" lon="9.504575660748566"><ele>174.0</ele><time>2026-04-26T07:29:30Z</time></trkpt><trkpt lat="44.272055079763454" lon="9.504586998954897"><ele>168.5</ele><time>2026-04-26T07:29:31Z</time></trkpt><trkpt lat="44.271951942751876" lon="9.504668653402982"><ele>163.0</ele><time>2026-04-26T07:29:32Z</time></trkpt><trkpt lat="44.271881436792874" lon="9.504815719668814"><ele>163.0</ele><time>2026-04-26T07:29:33Z</time></trkpt><trkpt lat="44.27186626046828" lon="9.504983393642316"><ele>163.0</ele><time>2026-04-26T07:29:34Z</time></trkpt><trkpt lat="44.27189742133623" lon="9.505140435471448"><ele>163.0</ele><time>2026-04-26T07:29:35Z</time></trkpt><trkpt lat="44.27199360338782" lon="9.505276844528874"><ele>163.0</ele><time>2026-04-26T07:29:36Z</time></trkpt><trkpt lat="44.272098860534506" lon="9.505409139623081"><ele>162.75</ele><time>2026-04-26T07:29:36.999Z</time></trkpt><trkpt lat="44.27217403349656" lon="9.505570915166139"><ele>162.5</ele><time>2026-04-26T07:29:37.999Z</time></trkpt><trkpt lat="44.27224346756341" lon="9.505737611036245"><ele>162.25</ele><time>2026-04-26T07:29:38.999Z</time></trkpt><trkpt lat="44.27230801817986" lon="9.505893882949957"><ele>162.0</ele><time>2026-04-26T07:29:39.999Z</time></trkpt><trkpt lat="44.27236810632649" lon="9.506042161581103"><ele>168.0</ele><time>2026-04-26T07:29:40.999Z</time></trkpt><trkpt lat="44.27241445358726" lon="9.506177872974266"><ele>174.0</ele><time>2026-04-26T07:29:41.999Z</time></trkpt><trkpt lat="44.272425963628514" lon="9.50631098082946"><ele>180.0</ele><time>2026-04-26T07:29:42.999Z</time></trkpt><trkpt lat="44.27238333354064" lon="9.506452337577871"><ele>186.0</ele><time>2026-04-26T07:29:43.999Z</time></trkpt><trkpt lat="44.27231382219548" lon="9.50660494133817"><ele>192.0</ele><time>2026-04-26T07:29:44.999Z</time></trkpt><trkpt lat="44.27228421889601" lon="9.506777936851236"><ele>192.0</ele><time>2026-04-26T07:29:45.999Z</time></trkpt><trkpt lat="44.27228990385257" lon="9.506957297008235"><ele>192.0</ele><time>2026-04-26T07:29:46.999Z</time></trkpt><trkpt lat="44.27232037540582" lon="9.507150125383774"><ele>192.0</ele><time>2026-04-26T07:29:47.999Z</time></trkpt><trkpt lat="44.27235764396058" lon="9.507333275755501"><ele>192.0</ele><time>2026-04-26T07:29:48.999Z</time></trkpt><trkpt lat="44.27241689978362" lon="9.507479382167844"><ele>192.0</ele><time>2026-04-26T07:29:49.999Z</time></trkpt><trkpt lat="44.27251325846933" lon="9.50756612572624"><ele>192.0</ele><time>2026-04-26T07:29:50.999Z</time></trkpt><trkpt lat="44.27264771828861" lon="9.50760663092268"><ele>192.0</ele><time>2026-04-26T07:29:51.999Z</time></trkpt><trkpt lat="44.27278506492576" lon="9.507612929757842"><ele>192.0</ele><time>2026-04-26T07:29:52.999Z</time></trkpt><trkpt lat="44.27293200802966" lon="9.507583135326296"><ele>192.0</ele><time>2026-04-26T07:29:53.999Z</time></trkpt><trkpt lat="44.273078254371754" lon="9.507545571249812"><ele>192.0</ele><time>2026-04-26T07:29:54.999Z</time></trkpt><trkpt lat="44.27320160034444" lon="9.507529985120195"><ele>192.0</ele><time>2026-04-26T07:29:55.999Z</time></trkpt><trkpt lat="44.273338038648866" lon="9.5075528145606"><ele>192.0</ele><time>2026-04-26T07:29:56.999Z</time></trkpt><trkpt lat="44.27346352233901" lon="9.507591023758438"><ele>192.0</ele><time>2026-04-26T07:29:57.999Z</time></trkpt><trkpt lat="44.27358642244139" lon="9.507636489031945"><ele>192.0</ele><time>2026-04-26T07:29:58.999Z</time></trkpt><trkpt lat="44.273711382272936" lon="9.507709128053426"><ele>192.0</ele><time>2026-04-26T07:29:59.999Z</time></trkpt><trkpt lat="44.27382805846162" lon="9.507790511613134"><ele>192.0</ele><time>2026-04-26T07:30:00.999Z</time></trkpt><trkpt lat="44.273920648427506" lon="9.507917615755103"><ele>197.0</ele><time>2026-04-26T07:30:01.999Z</time></trkpt><trkpt lat="44.27401076581012" lon="9.508058605638594"><ele>202.0</ele><time>2026-04-26T07:30:02.999Z</time></trkpt><trkpt lat="44.2741064592428" lon="9.508195416267409"><ele>207.0</ele><time>2026-04-26T07:30:03.999Z</time></trkpt><trkpt lat="44.274181588516534" lon="9.508346815590576"><ele>212.0</ele><time>2026-04-26T07:30:04.999Z</time></trkpt><trkpt lat="44.27425017614031" lon="9.508499023266191"><ele>212.0</ele><time>2026-04-26T07:30:05.999Z</time></trkpt><trkpt lat="44.27431648381059" lon="9.508636140612545"><ele>212.0</ele><time>2026-04-26T07:30:06.999Z</time></trkpt><trkpt lat="44.2743822262535" lon="9.508756664067956"><ele>212.0</ele><time>2026-04-26T07:30:07.999Z</time></trkpt><trkpt lat="44.27442868731716" lon="9.508882387972525"><ele>212.0</ele><time>2026-04-26T07:30:08.999Z</time></trkpt><trkpt lat="44.27447246288529" lon="9.50899058395614"><ele>212.0</ele><time>2026-04-26T07:30:09.999Z</time></trkpt><trkpt lat="44.27449343916979" lon="9.509113464304617"><ele>212.6</ele><time>2026-04-26T07:30:10.999Z</time></trkpt><trkpt lat="44.274417135714394" lon="9.509228164551388"><ele>213.2</ele><time>2026-04-26T07:30:11.999Z</time></trkpt><trkpt lat="44.27437302006184" lon="9.50938249016477"><ele>213.8</ele><time>2026-04-26T07:30:12.999Z</time></trkpt><trkpt lat="44.27432214356848" lon="9.509515152624278"><ele>214.4</ele><time>2026-04-26T07:30:13.999Z</time></trkpt><trkpt lat="44.27430564130136" lon="9.50965506397554"><ele>215.0</ele><time>2026-04-26T07:30:14.999Z</time></trkpt><trkpt lat="44.27426018545883" lon="9.50975912101269"><ele>214.8</ele><time>2026-04-26T07:30:15.999Z</time></trkpt><trkpt lat="44.27419573084176" lon="9.50983158840343"><ele>214.6</ele><time>2026-04-26T07:30:16.999Z</time></trkpt><trkpt lat="44.27409416101772" lon="9.509806916940997"><ele>214.39999999999998</ele><time>2026-04-26T07:30:17.999Z</time></trkpt><trkpt lat="44.274028589247074" lon="9.509668938364513"><ele>214.2</ele><time>2026-04-26T07:30:18.999Z</time></trkpt><trkpt lat="44.27393007757834" lon="9.509577166781037"><ele>214.0</ele><time>2026-04-26T07:30:19.999Z</time></trkpt><trkpt lat="44.273854396300734" lon="9.50948208485639"><ele>214.0</ele><time>2026-04-26T07:30:20.999Z</time></trkpt><trkpt lat="44.27375351818997" lon="9.509475305182566"><ele>213.99999999999997</ele><time>2026-04-26T07:30:21.999Z</time></trkpt><trkpt lat="44.273655080681586" lon="9.509533713490251"><ele>213.99999999999997</ele><time>2026-04-26T07:30:22.999Z</time></trkpt><trkpt lat="44.2735911341267" lon="9.509651393350238"><ele>214.0</ele><time>2026-04-26T07:30:23.999Z</time></trkpt><trkpt lat="44.27356412101686" lon="9.509810410486619"><ele>214.0</ele><time>2026-04-26T07:30:24.999Z</time></trkpt><trkpt lat="44.27354733151884" lon="9.50997731688884"><ele>214.0</ele><time>2026-04-26T07:30:25.999Z</time></trkpt><trkpt lat="44.2735278135726" lon="9.51013616315362"><ele>213.99999999999997</ele><time>2026-04-26T07:30:26.999Z</time></trkpt><trkpt lat="44.27350050914329" lon="9.510292506739559"><ele>213.99999999999997</ele><time>2026-04-26T07:30:28Z</time></trkpt><trkpt lat="44.27347871271945" lon="9.510434268392144"><ele>214.0</ele><time>2026-04-26T07:30:29Z</time></trkpt><trkpt lat="44.27347940116785" lon="9.51057229478592"><ele>214.0</ele><time>2026-04-26T07:30:30Z</time></trkpt><trkpt lat="44.273514390929" lon="9.510695881987942"><ele>213.6</ele><time>2026-04-26T07:30:31Z</time></trkpt><trkpt lat="44.27358408277675" lon="9.510791080949229"><ele>213.2</ele><time>2026-04-26T07:30:32Z</time></trkpt><trkpt lat="44.273671608253395" lon="9.510856302911433"><ele>212.79999999999998</ele><time>2026-04-26T07:30:33Z</time></trkpt><trkpt lat="44.27376386591156" lon="9.510882175625026"><ele>212.39999999999998</ele><time>2026-04-26T07:30:34Z</time></trkpt><trkpt lat="44.27387755514601" lon="9.510873658086215"><ele>212.0</ele><time>2026-04-26T07:30:35Z</time></trkpt><trkpt lat="44.274008141068116" lon="9.510830206096315"><ele>216.5</ele><time>2026-04-26T07:30:36Z</time></trkpt><trkpt lat="44.27416321893432" lon="9.510791009393337"><ele>221.0</ele><time>2026-04-26T07:30:37Z</time></trkpt><trkpt lat="44.27430743501917" lon="9.510772353157927"><ele>225.5</ele><time>2026-04-26T07:30:38Z</time></trkpt><trkpt lat="44.27443688261941" lon="9.510788324421181"><ele>230.0</ele><time>2026-04-26T07:30:39Z</time></trkpt><trkpt lat="44.27455727474632" lon="9.510831536688958"><ele>230.0</ele><time>2026-04-26T07:30:40Z</time></trkpt><trkpt lat="44.274671402838194" lon="9.51088519101642"><ele>230.0</ele><time>2026-04-26T07:30:41Z</time></trkpt><trkpt lat="44.27478118160639" lon="9.510971041796935"><ele>230.0</ele><time>2026-04-26T07:30:42Z</time></trkpt><trkpt lat="44.27488750836513" lon="9.511067067713114"><ele>230.0</ele><time>2026-04-26T07:30:43Z</time></trkpt><trkpt lat="44.27498379789389" lon="9.51116993431022"><ele>232.75</ele><time>2026-04-26T07:30:44Z</time></trkpt><trkpt lat="44.27508107141863" lon="9.51129673383733"><ele>235.5</ele><time>2026-04-26T07:30:45Z</time></trkpt><trkpt lat="44.2751674482166" lon="9.511439321435386"><ele>238.25</ele><time>2026-04-26T07:30:46Z</time></trkpt><trkpt lat="44.275252398909956" lon="9.511584902872514"><ele>241.0</ele><time>2026-04-26T07:30:47Z</time></trkpt><trkpt lat="44.275336975208816" lon="9.511732444320186"><ele>241.0</ele><time>2026-04-26T07:30:48Z</time></trkpt><trkpt lat="44.27540638200745" lon="9.511876722037957"><ele>241.0</ele><time>2026-04-26T07:30:49Z</time></trkpt><trkpt lat="44.275459934914764" lon="9.512023055752012"><ele>241.0</ele><time>2026-04-26T07:30:50Z</time></trkpt><trkpt lat="44.27550382468429" lon="9.512164552558346"><ele>241.0</ele><time>2026-04-26T07:30:51Z</time></trkpt><trkpt lat="44.27555036839993" lon="9.51228957491245"><ele>242.60000000000002</ele><time>2026-04-26T07:30:52Z</time></trkpt><trkpt lat="44.27559452230008" lon="9.512405022654072"><ele>244.20000000000002</ele><time>2026-04-26T07:30:53Z</time></trkpt><trkpt lat="44.27560846533754" lon="9.512519040838201"><ele>245.79999999999998</ele><time>2026-04-26T07:30:54Z</time></trkpt><trkpt lat="44.275577139773794" lon="9.51263003101164"><ele>247.39999999999998</ele><time>2026-04-26T07:30:55Z</time></trkpt><trkpt lat="44.275496101737026" lon="9.512708009632904"><ele>249.0</ele><time>2026-04-26T07:30:56Z</time></trkpt><trkpt lat="44.275386509284075" lon="9.512669715198808"><ele>249.0</ele><time>2026-04-26T07:30:57Z</time></trkpt><trkpt lat="44.27529697494063" lon="9.512570939657943"><ele>248.99999999999997</ele><time>2026-04-26T07:30:58Z</time></trkpt><trkpt lat="44.27518096464166" lon="9.512535083778225"><ele>248.99999999999997</ele><time>2026-04-26T07:30:59Z</time></trkpt><trkpt lat="44.27508242076495" lon="9.512510921620564"><ele>249.0</ele><time>2026-04-26T07:31:00Z</time></trkpt><trkpt lat="44.27499454436378" lon="9.512545109463586"><ele>249.0</ele><time>2026-04-26T07:31:01Z</time></trkpt><trkpt lat="44.27491985990455" lon="9.51264393575929"><ele>249.0</ele><time>2026-04-26T07:31:02Z</time></trkpt><trkpt lat="44.27486591579968" lon="9.5127855752067"><ele>249.0</ele><time>2026-04-26T07:31:03Z</time></trkpt><trkpt lat="44.2748141661422" lon="9.512948522487756"><ele>249.0</ele><time>2026-04-26T07:31:04Z</time></trkpt><trkpt lat="44.274761719093036" lon="9.513108435078589"><ele>249.0</ele><time>2026-04-26T07:31:05Z</time></trkpt><trkpt lat="44.274719686491615" lon="9.51327785446633"><ele>248.75</ele><time>2026-04-26T07:31:06Z</time></trkpt><trkpt lat="44.27466204295768" lon="9.513412595672127"><ele>248.5</ele><time>2026-04-26T07:31:07Z</time></trkpt><trkpt lat="44.27459705286761" lon="9.513557234248047"><ele>248.25</ele><time>2026-04-26T07:31:08Z</time></trkpt><trkpt lat="44.27451447800388" lon="9.513662803150664"><ele>248.0</ele><time>2026-04-26T07:31:09Z</time></trkpt><trkpt lat="44.27442380303246" lon="9.513750374259798"><ele>252.75</ele><time>2026-04-26T07:31:10Z</time></trkpt><trkpt lat="44.27432526149955" lon="9.513846297890668"><ele>257.5</ele><time>2026-04-26T07:31:11Z</time></trkpt><trkpt lat="44.2742191807838" lon="9.513921126090903"><ele>262.25</ele><time>2026-04-26T07:31:12Z</time></trkpt><trkpt lat="44.2741149141615" lon="9.51400277655608"><ele>267.0</ele><time>2026-04-26T07:31:13Z</time></trkpt><trkpt lat="44.27401525808782" lon="9.514083747705685"><ele>263.8333333333333</ele><time>2026-04-26T07:31:14Z</time></trkpt><trkpt lat="44.27392229811826" lon="9.514151675616459"><ele>260.6666666666667</ele><time>2026-04-26T07:31:15Z</time></trkpt><trkpt lat="44.27383968081526" lon="9.514218365990237"><ele>257.5</ele><time>2026-04-26T07:31:16Z</time></trkpt><trkpt lat="44.27375993787834" lon="9.514271605405632"><ele>254.33333333333334</ele><time>2026-04-26T07:31:17Z</time></trkpt><trkpt lat="44.27369637167783" lon="9.514335332737588"><ele>251.16666666666669</ele><time>2026-04-26T07:31:18Z</time></trkpt><trkpt lat="44.273665621335255" lon="9.514427391754488"><ele>248.0</ele><time>2026-04-26T07:31:19Z</time></trkpt><trkpt lat="44.27367089204498" lon="9.51454527021736"><ele>247.2</ele><time>2026-04-26T07:31:20Z</time></trkpt><trkpt lat="44.27369107284736" lon="9.51467640225332"><ele>246.4</ele><time>2026-04-26T07:31:21Z</time></trkpt><trkpt lat="44.27372675626915" lon="9.514815631159276"><ele>245.59999999999997</ele><time>2026-04-26T07:31:22Z</time></trkpt><trkpt lat="44.2737609320067" lon="9.514951093447861"><ele>244.79999999999998</ele><time>2026-04-26T07:31:23Z</time></trkpt><trkpt lat="44.27380237511718" lon="9.515087524809642"><ele>244.0</ele><time>2026-04-26T07:31:24Z</time></trkpt><trkpt lat="44.2738594207152" lon="9.51521312206372"><ele>244.0</ele><time>2026-04-26T07:31:25Z</time></trkpt><trkpt lat="44.27391835942388" lon="9.515339852948319"><ele>243.99999999999997</ele><time>2026-04-26T07:31:26Z</time></trkpt><trkpt lat="44.27401026015283" lon="9.51541640867169"><ele>243.99999999999997</ele><time>2026-04-26T07:31:27Z</time></trkpt><trkpt lat="44.274121207872895" lon="9.515459660434992"><ele>244.0</ele><time>2026-04-26T07:31:28Z</time></trkpt><trkpt lat="44.27423466845058" lon="9.515505152351835"><ele>244.0</ele><time>2026-04-26T07:31:29Z</time></trkpt><trkpt lat="44.27433172505388" lon="9.515592558626443"><ele>247.75</ele><time>2026-04-26T07:31:30Z</time></trkpt><trkpt lat="44.27442692332919" lon="9.515693329680492"><ele>251.5</ele><time>2026-04-26T07:31:31Z</time></trkpt><trkpt lat="44.27452212388004" lon="9.515800944524155"><ele>255.25</ele><time>2026-04-26T07:31:32Z</time></trkpt><trkpt lat="44.274611528442136" lon="9.515919524387389"><ele>259.0</ele><time>2026-04-26T07:31:33Z</time></trkpt><trkpt lat="44.27470867436667" lon="9.516028317668388"><ele>262.5</ele><time>2026-04-26T07:31:34Z</time></trkpt><trkpt lat="44.274792162385076" lon="9.51614927610956"><ele>266.0</ele><time>2026-04-26T07:31:35Z</time></trkpt><trkpt lat="44.274865879038536" lon="9.51628385609759"><ele>269.5</ele><time>2026-04-26T07:31:36Z</time></trkpt><trkpt lat="44.27492062921593" lon="9.516439265397612"><ele>273.0</ele><time>2026-04-26T07:31:36.999Z</time></trkpt><trkpt lat="44.274934186550375" lon="9.516609537271366"><ele>273.0</ele><time>2026-04-26T07:31:37.999Z</time></trkpt><trkpt lat="44.274955893603185" lon="9.516780675876053"><ele>273.0</ele><time>2026-04-26T07:31:38.999Z</time></trkpt><trkpt lat="44.27500108035645" lon="9.516936778831358"><ele>273.0</ele><time>2026-04-26T07:31:39.999Z</time></trkpt><trkpt lat="44.275065033066035" lon="9.51708122420399"><ele>273.0</ele><time>2026-04-26T07:31:40.999Z</time></trkpt><trkpt lat="44.275141906115934" lon="9.51722528826045"><ele>270.5</ele><time>2026-04-26T07:31:41.999Z</time></trkpt><trkpt lat="44.27521846602328" lon="9.517370891236723"><ele>268.0</ele><time>2026-04-26T07:31:42.999Z</time></trkpt><trkpt lat="44.2752965713674" lon="9.517498824438047"><ele>265.5</ele><time>2026-04-26T07:31:43.999Z</time></trkpt><trkpt lat="44.27539653683832" lon="9.517603536024374"><ele>263.0</ele><time>2026-04-26T07:31:44.999Z</time></trkpt><trkpt lat="44.27549907974457" lon="9.517684025626636"><ele>263.0</ele><time>2026-04-26T07:31:45.999Z</time></trkpt><trkpt lat="44.275586898256" lon="9.517769426114976"><ele>263.0</ele><time>2026-04-26T07:31:46.999Z</time></trkpt><trkpt lat="44.275657649635654" lon="9.517879199672574"><ele>263.0</ele><time>2026-04-26T07:31:47.999Z</time></trkpt><trkpt lat="44.27571875982003" lon="9.517986328121532"><ele>263.0</ele><time>2026-04-26T07:31:48.999Z</time></trkpt><trkpt lat="44.27573901947302" lon="9.518124406427077"><ele>263.0</ele><time>2026-04-26T07:31:49.999Z</time></trkpt><trkpt lat="44.27566372940108" lon="9.518257270774287"><ele>262.5</ele><time>2026-04-26T07:31:50.999Z</time></trkpt><trkpt lat="44.275611932910905" lon="9.518424901357747"><ele>262.0</ele><time>2026-04-26T07:31:51.999Z</time></trkpt><trkpt lat="44.27554413584131" lon="9.518593405972275"><ele>261.5</ele><time>2026-04-26T07:31:52.999Z</time></trkpt><trkpt lat="44.27550191043426" lon="9.518776684611549"><ele>261.0</ele><time>2026-04-26T07:31:53.999Z</time></trkpt><trkpt lat="44.27546723266469" lon="9.518949977764569"><ele>261.0</ele><time>2026-04-26T07:31:54.999Z</time></trkpt><trkpt lat="44.27543002531571" lon="9.5191136561875"><ele>261.0</ele><time>2026-04-26T07:31:55.999Z</time></trkpt><trkpt lat="44.27539342173414" lon="9.519269157625692"><ele>261.0</ele><time>2026-04-26T07:31:56.999Z</time></trkpt><trkpt lat="44.27536564429036" lon="9.519411627829182"><ele>261.0</ele><time>2026-04-26T07:31:57.999Z</time></trkpt><trkpt lat="44.275356182178385" lon="9.519557221603824"><ele>260.75</ele><time>2026-04-26T07:31:58.999Z</time></trkpt><trkpt lat="44.27538485894072" lon="9.519688017434309"><ele>260.5</ele><time>2026-04-26T07:31:59.999Z</time></trkpt><trkpt lat="44.275457611860936" lon="9.51980765597694"><ele>260.25</ele><time>2026-04-26T07:32:00.999Z</time></trkpt><trkpt lat="44.27556235196927" lon="9.519902596552454"><ele>260.0</ele><time>2026-04-26T07:32:01.999Z</time></trkpt><trkpt lat="44.27567030134064" lon="9.520000159281933"><ele>263.75</ele><time>2026-04-26T07:32:02.999Z</time></trkpt><trkpt lat="44.27577843030555" lon="9.52011309547274"><ele>267.5</ele><time>2026-04-26T07:32:03.999Z</time></trkpt><trkpt lat="44.27588582512121" lon="9.520227383313376"><ele>271.25</ele><time>2026-04-26T07:32:04.999Z</time></trkpt><trkpt lat="44.27600038291525" lon="9.52032033272328"><ele>275.0</ele><time>2026-04-26T07:32:05.999Z</time></trkpt><trkpt lat="44.276128420279115" lon="9.520390989839973"><ele>275.5</ele><time>2026-04-26T07:32:06.999Z</time></trkpt><trkpt lat="44.276259163609986" lon="9.520464678678051"><ele>276.0</ele><time>2026-04-26T07:32:07.999Z</time></trkpt><trkpt lat="44.276391244127815" lon="9.520502747031665"><ele>276.5</ele><time>2026-04-26T07:32:08.999Z</time></trkpt><trkpt lat="44.276511357092915" lon="9.520558720384292"><ele>277.0</ele><time>2026-04-26T07:32:09.999Z</time></trkpt><trkpt lat="44.27661346607152" lon="9.520656738313823"><ele>277.0</ele><time>2026-04-26T07:32:10.999Z</time></trkpt><trkpt lat="44.27667358005333" lon="9.52079889365"><ele>277.0</ele><time>2026-04-26T07:32:11.999Z</time></trkpt><trkpt lat="44.27669638588362" lon="9.52096015039964"><ele>277.0</ele><time>2026-04-26T07:32:12.999Z</time></trkpt><trkpt lat="44.276659924060944" lon="9.52112107557639"><ele>277.0</ele><time>2026-04-26T07:32:13.999Z</time></trkpt><trkpt lat="44.276615125656726" lon="9.521286642671782"><ele>277.5</ele><time>2026-04-26T07:32:14.999Z</time></trkpt><trkpt lat="44.27650807261257" lon="9.521412264569626"><ele>278.0</ele><time>2026-04-26T07:32:15.999Z</time></trkpt><trkpt lat="44.27636945786821" lon="9.52147348029836"><ele>278.5</ele><time>2026-04-26T07:32:16.999Z</time></trkpt><trkpt lat="44.276224545340426" lon="9.521483208978584"><ele>279.0</ele><time>2026-04-26T07:32:17.999Z</time></trkpt><trkpt lat="44.27609554112159" lon="9.521511149273596"><ele>279.0</ele><time>2026-04-26T07:32:18.999Z</time></trkpt><trkpt lat="44.27599613774377" lon="9.521619159874874"><ele>279.0</ele><time>2026-04-26T07:32:19.999Z</time></trkpt><trkpt lat="44.27591134916453" lon="9.521782049716965"><ele>279.0</ele><time>2026-04-26T07:32:20.999Z</time></trkpt><trkpt lat="44.275815951246464" lon="9.521930785950143"><ele>279.0</ele><time>2026-04-26T07:32:21.999Z</time></trkpt><trkpt lat="44.27571473029626" lon="9.522069582433563"><ele>279.0</ele><time>2026-04-26T07:32:22.999Z</time></trkpt><trkpt lat="44.275620136821104" lon="9.52220569670462"><ele>279.0</ele><time>2026-04-26T07:32:23.999Z</time></trkpt><trkpt lat="44.27551851065167" lon="9.52233496996916"><ele>279.0</ele><time>2026-04-26T07:32:24.999Z</time></trkpt><trkpt lat="44.27542698187201" lon="9.522460392756"><ele>279.0</ele><time>2026-04-26T07:32:25.999Z</time></trkpt><trkpt lat="44.275346122535" lon="9.522595461416051"><ele>275.75</ele><time>2026-04-26T07:32:26.999Z</time></trkpt><trkpt lat="44.275278479538414" lon="9.522755724641039"><ele>272.5</ele><time>2026-04-26T07:32:27.999Z</time></trkpt><trkpt lat="44.27526362394558" lon="9.522948127812082"><ele>269.25</ele><time>2026-04-26T07:32:28.999Z</time></trkpt><trkpt lat="44.27527534235657" lon="9.523144744097046"><ele>266.0</ele><time>2026-04-26T07:32:29.999Z</time></trkpt><trkpt lat="44.27528173896501" lon="9.52333922795244"><ele>266.0</ele><time>2026-04-26T07:32:30.999Z</time></trkpt><trkpt lat="44.27528730688221" lon="9.523538097035747"><ele>266.0</ele><time>2026-04-26T07:32:31.999Z</time></trkpt><trkpt lat="44.275274266903764" lon="9.523722726336992"><ele>266.0</ele><time>2026-04-26T07:32:32.999Z</time></trkpt><trkpt lat="44.27526831016246" lon="9.523915883149504"><ele>266.0</ele><time>2026-04-26T07:32:34Z</time></trkpt><trkpt lat="44.27528949334565" lon="9.52408470401381"><ele>266.0</ele><time>2026-04-26T07:32:35Z</time></trkpt><trkpt lat="44.27536137330746" lon="9.524236085901501"><ele>266.0</ele><time>2026-04-26T07:32:36Z</time></trkpt><trkpt lat="44.2754657968836" lon="9.524355816574205"><ele>266.0</ele><time>2026-04-26T07:32:37Z</time></trkpt><trkpt lat="44.27559692727835" lon="9.524446170824282"><ele>266.0</ele><time>2026-04-26T07:32:38Z</time></trkpt><trkpt lat="44.2757290593933" lon="9.5245195395747"><ele>267.5</ele><time>2026-04-26T07:32:39Z</time></trkpt><trkpt lat="44.275843295911805" lon="9.52464793978163"><ele>269.0</ele><time>2026-04-26T07:32:40Z</time></trkpt><trkpt lat="44.27594155268011" lon="9.524777090563346"><ele>270.5</ele><time>2026-04-26T07:32:41Z</time></trkpt><trkpt lat="44.276049411542" lon="9.52490490197191"><ele>272.0</ele><time>2026-04-26T07:32:42Z</time></trkpt><trkpt lat="44.27614549763465" lon="9.525037022090343"><ele>272.0</ele><time>2026-04-26T07:32:43Z</time></trkpt><trkpt lat="44.27626791968756" lon="9.525128246107807"><ele>272.0</ele><time>2026-04-26T07:32:44Z</time></trkpt><trkpt lat="44.276400778193356" lon="9.525194407005205"><ele>272.0</ele><time>2026-04-26T07:32:45Z</time></trkpt><trkpt lat="44.27654046749638" lon="9.525252004115028"><ele>272.0</ele><time>2026-04-26T07:32:46Z</time></trkpt><trkpt lat="44.276678855072845" lon="9.525303883556324"><ele>273.25</ele><time>2026-04-26T07:32:47Z</time></trkpt><trkpt lat="44.276796639426486" lon="9.52539060213961"><ele>274.5</ele><time>2026-04-26T07:32:48Z</time></trkpt><trkpt lat="44.27691047240999" lon="9.525484579027518"><ele>275.75</ele><time>2026-04-26T07:32:49Z</time></trkpt><trkpt lat="44.27702638602928" lon="9.525585899136816"><ele>277.0</ele><time>2026-04-26T07:32:50Z</time></trkpt><trkpt lat="44.27714098286555" lon="9.525688526109404"><ele>277.0</ele><time>2026-04-26T07:32:51Z</time></trkpt><trkpt lat="44.277245019257556" lon="9.525783766780076"><ele>277.0</ele><time>2026-04-26T07:32:52Z</time></trkpt><trkpt lat="44.27733348398163" lon="9.52590376455845"><ele>277.0</ele><time>2026-04-26T07:32:53Z</time></trkpt><trkpt lat="44.27738537796431" lon="9.526054970626209"><ele>277.0</ele><time>2026-04-26T07:32:54Z</time></trkpt><trkpt lat="44.2773938957392" lon="9.526230393720274"><ele>279.75</ele><time>2026-04-26T07:32:55Z</time></trkpt><trkpt lat="44.27735864763834" lon="9.5264062362813"><ele>282.5</ele><time>2026-04-26T07:32:56Z</time></trkpt><trkpt lat="44.27727478831169" lon="9.526558763321503"><ele>285.25</ele><time>2026-04-26T07:32:57Z</time></trkpt><trkpt lat="44.27713127214563" lon="9.526634878236429"><ele>288.0</ele><time>2026-04-26T07:32:58Z</time></trkpt><trkpt lat="44.277005513241726" lon="9.526741423357892"><ele>288.0</ele><time>2026-04-26T07:32:59Z</time></trkpt><trkpt lat="44.276871133211046" lon="9.526819239805954"><ele>288.0</ele><time>2026-04-26T07:33:00Z</time></trkpt><trkpt lat="44.27674399224684" lon="9.526914628724052"><ele>288.0</ele><time>2026-04-26T07:33:01Z</time></trkpt><trkpt lat="44.276619722273715" lon="9.52701380177356"><ele>288.0</ele><time>2026-04-26T07:33:02Z</time></trkpt><trkpt lat="44.276495275412955" lon="9.527110771279297"><ele>291.5</ele><time>2026-04-26T07:33:03Z</time></trkpt><trkpt lat="44.27636872169217" lon="9.527199555192016"><ele>295.0</ele><time>2026-04-26T07:33:04Z</time></trkpt><trkpt lat="44.27623460508678" lon="9.527274511787958"><ele>298.5</ele><time>2026-04-26T07:33:05Z</time></trkpt><trkpt lat="44.27609323971531" lon="9.527301086089697"><ele>302.0</ele><time>2026-04-26T07:33:06Z</time></trkpt><trkpt lat="44.27595148013005" lon="9.527278776318024"><ele>302.0</ele><time>2026-04-26T07:33:07Z</time></trkpt><trkpt lat="44.275812341137836" lon="9.527264536807234"><ele>302.0</ele><time>2026-04-26T07:33:08Z</time></trkpt><trkpt lat="44.27567896851417" lon="9.527309031213086"><ele>302.0</ele><time>2026-04-26T07:33:09Z</time></trkpt><trkpt lat="44.275561711266896" lon="9.527434563559874"><ele>302.0</ele><time>2026-04-26T07:33:10Z</time></trkpt><trkpt lat="44.275451436711634" lon="9.527575020015506"><ele>300.75</ele><time>2026-04-26T07:33:11Z</time></trkpt><trkpt lat="44.27534385524697" lon="9.527718899028729"><ele>299.5</ele><time>2026-04-26T07:33:12Z</time></trkpt><trkpt lat="44.27524450918639" lon="9.527851967182206"><ele>298.25</ele><time>2026-04-26T07:33:13Z</time></trkpt><trkpt lat="44.27513613480515" lon="9.52797576239762"><ele>297.0</ele><time>2026-04-26T07:33:14Z</time></trkpt><trkpt lat="44.27504296697923" lon="9.52811267364455"><ele>297.0</ele><time>2026-04-26T07:33:15Z</time></trkpt><trkpt lat="44.274987566769965" lon="9.528286408408455"><ele>297.0</ele><time>2026-04-26T07:33:16Z</time></trkpt><trkpt lat="44.274990573106784" lon="9.528480023678902"><ele>297.0</ele><time>2026-04-26T07:33:17Z</time></trkpt><trkpt lat="44.27503096221613" lon="9.528685196023767"><ele>297.0</ele><time>2026-04-26T07:33:18Z</time></trkpt><trkpt lat="44.27506320492892" lon="9.528883760258672"><ele>296.25</ele><time>2026-04-26T07:33:19Z</time></trkpt><trkpt lat="44.27509694047303" lon="9.529074670508551"><ele>295.5</ele><time>2026-04-26T07:33:20Z</time></trkpt><trkpt lat="44.27515568694131" lon="9.529251064654819"><ele>294.75</ele><time>2026-04-26T07:33:21Z</time></trkpt><trkpt lat="44.2752550233592" lon="9.529396214504803"><ele>294.0</ele><time>2026-04-26T07:33:22Z</time></trkpt><trkpt lat="44.27536871458639" lon="9.529515853363046"><ele>295.75</ele><time>2026-04-26T07:33:23Z</time></trkpt><trkpt lat="44.275505212705376" lon="9.529599410651235"><ele>297.5</ele><time>2026-04-26T07:33:24Z</time></trkpt><trkpt lat="44.27563099372779" lon="9.529689079395123"><ele>299.25</ele><time>2026-04-26T07:33:25Z</time></trkpt><trkpt lat="44.27576198570666" lon="9.52975218352178"><ele>301.0</ele><time>2026-04-26T07:33:26Z</time></trkpt><trkpt lat="44.275871845893654" lon="9.529853273603164"><ele>301.0</ele><time>2026-04-26T07:33:27Z</time></trkpt><trkpt lat="44.27598015655607" lon="9.529973925982224"><ele>301.0</ele><time>2026-04-26T07:33:28Z</time></trkpt><trkpt lat="44.27608439594418" lon="9.53008462490639"><ele>301.0</ele><time>2026-04-26T07:33:29Z</time></trkpt><trkpt lat="44.27617672537104" lon="9.530216522356898"><ele>301.0</ele><time>2026-04-26T07:33:30Z</time></trkpt><trkpt lat="44.27629369251293" lon="9.530320369617783"><ele>300.2</ele><time>2026-04-26T07:33:31Z</time></trkpt><trkpt lat="44.27641495319537" lon="9.530392305988174"><ele>299.40000000000003</ele><time>2026-04-26T07:33:32Z</time></trkpt><trkpt lat="44.276527284887514" lon="9.53044720255204"><ele>298.6</ele><time>2026-04-26T07:33:33Z</time></trkpt><trkpt lat="44.27661353353448" lon="9.530525068289165"><ele>297.8</ele><time>2026-04-26T07:33:34Z</time></trkpt><trkpt lat="44.27668269157935" lon="9.530594769705754"><ele>297.0</ele><time>2026-04-26T07:33:35Z</time></trkpt><trkpt lat="44.27670823196102" lon="9.530697834675452"><ele>297.0</ele><time>2026-04-26T07:33:36Z</time></trkpt><trkpt lat="44.276658466501985" lon="9.530816639692349"><ele>297.0</ele><time>2026-04-26T07:33:37Z</time></trkpt><trkpt lat="44.27657146179878" lon="9.530903954263236"><ele>297.0</ele><time>2026-04-26T07:33:38Z</time></trkpt><trkpt lat="44.2764544997692" lon="9.53097667530328"><ele>297.0</ele><time>2026-04-26T07:33:39Z</time></trkpt><trkpt lat="44.27633746352853" lon="9.531045258759931"><ele>297.0</ele><time>2026-04-26T07:33:40Z</time></trkpt><trkpt lat="44.276234682157934" lon="9.531115000168809"><ele>297.0</ele><time>2026-04-26T07:33:40.999Z</time></trkpt><trkpt lat="44.27613472779832" lon="9.531189769998592"><ele>297.0</ele><time>2026-04-26T07:33:41.999Z</time></trkpt><trkpt lat="44.276018569132034" lon="9.531275833357954"><ele>297.0</ele><time>2026-04-26T07:33:42.999Z</time></trkpt><trkpt lat="44.27589619529933" lon="9.531359350721448"><ele>298.0</ele><time>2026-04-26T07:33:43.999Z</time></trkpt><trkpt lat="44.275776741905126" lon="9.531445169319895"><ele>299.0</ele><time>2026-04-26T07:33:44.999Z</time></trkpt><trkpt lat="44.27566442875736" lon="9.531525611239335"><ele>300.0</ele><time>2026-04-26T07:33:45.999Z</time></trkpt><trkpt lat="44.275557959854495" lon="9.531600352572664"><ele>301.0</ele><time>2026-04-26T07:33:46.999Z</time></trkpt><trkpt lat="44.275455419111466" lon="9.531665149720414"><ele>301.0</ele><time>2026-04-26T07:33:47.999Z</time></trkpt><trkpt lat="44.27535131358231" lon="9.53172745421999"><ele>301.0</ele><time>2026-04-26T07:33:48.999Z</time></trkpt><trkpt lat="44.275265429185644" lon="9.531826889891041"><ele>301.0</ele><time>2026-04-26T07:33:49.999Z</time></trkpt><trkpt lat="44.27522100179149" lon="9.531979210980255"><ele>301.0</ele><time>2026-04-26T07:33:50.999Z</time></trkpt><trkpt lat="44.275230898205706" lon="9.532148018119413"><ele>304.0</ele><time>2026-04-26T07:33:51.999Z</time></trkpt><trkpt lat="44.27527982794792" lon="9.532319428145726"><ele>307.0</ele><time>2026-04-26T07:33:52.999Z</time></trkpt><trkpt lat="44.27532084605046" lon="9.532490195101081"><ele>310.0</ele><time>2026-04-26T07:33:53.999Z</time></trkpt><trkpt lat="44.27535763044746" lon="9.532652704393152"><ele>313.0</ele><time>2026-04-26T07:33:54.999Z</time></trkpt><trkpt lat="44.27538503475252" lon="9.532805141360758"><ele>315.2</ele><time>2026-04-26T07:33:55.999Z</time></trkpt><trkpt lat="44.27538079473835" lon="9.532947644634199"><ele>317.4</ele><time>2026-04-26T07:33:56.999Z</time></trkpt><trkpt lat="44.27534537200916" lon="9.533074657940546"><ele>319.59999999999997</ele><time>2026-04-26T07:33:57.999Z</time></trkpt><trkpt lat="44.275256125040194" lon="9.53316878366298"><ele>321.8</ele><time>2026-04-26T07:33:58.999Z</time></trkpt><trkpt lat="44.275150561939704" lon="9.53322078037282"><ele>324.0</ele><time>2026-04-26T07:33:59.999Z</time></trkpt><trkpt lat="44.27502789540178" lon="9.533238515459127"><ele>324.0</ele><time>2026-04-26T07:34:00.999Z</time></trkpt><trkpt lat="44.27494345560276" lon="9.533248684133826"><ele>324.0</ele><time>2026-04-26T07:34:01.999Z</time></trkpt><trkpt lat="44.27486297620031" lon="9.533250891574786"><ele>324.0</ele><time>2026-04-26T07:34:02.999Z</time></trkpt><trkpt lat="44.274813578804135" lon="9.533315292038946"><ele>324.0</ele><time>2026-04-26T07:34:03.999Z</time></trkpt><trkpt lat="44.27478948143101" lon="9.533424250782431"><ele>324.0</ele><time>2026-04-26T07:34:04.999Z</time></trkpt><trkpt lat="44.27484636123157" lon="9.533565568810074"><ele>324.0</ele><time>2026-04-26T07:34:05.999Z</time></trkpt><trkpt lat="44.274855081379926" lon="9.533677728887481"><ele>325.79999999999995</ele><time>2026-04-26T07:34:06.999Z</time></trkpt><trkpt lat="44.27481016558931" lon="9.533770449223168"><ele>327.59999999999997</ele><time>2026-04-26T07:34:07.999Z</time></trkpt><trkpt lat="44.274789656715924" lon="9.533924803859728"><ele>329.4</ele><time>2026-04-26T07:34:08.999Z</time></trkpt><trkpt lat="44.27479032576142" lon="9.534083322514624"><ele>331.2</ele><time>2026-04-26T07:34:09.999Z</time></trkpt><trkpt lat="44.274822911617996" lon="9.534252963369283"><ele>333.0</ele><time>2026-04-26T07:34:10.999Z</time></trkpt><trkpt lat="44.274817427723704" lon="9.534410472062445"><ele>334.0</ele><time>2026-04-26T07:34:11.999Z</time></trkpt><trkpt lat="44.2748207447905" lon="9.534576154139877"><ele>335.0</ele><time>2026-04-26T07:34:12.999Z</time></trkpt><trkpt lat="44.27483822807059" lon="9.53473570072758"><ele>336.0</ele><time>2026-04-26T07:34:13.999Z</time></trkpt><trkpt lat="44.27484002250089" lon="9.534885333926937"><ele>337.0</ele><time>2026-04-26T07:34:14.999Z</time></trkpt><trkpt lat="44.27480371756199" lon="9.535016201599337"><ele>338.0</ele><time>2026-04-26T07:34:15.999Z</time></trkpt><trkpt lat="44.27474622775432" lon="9.53511383042071"><ele>333.2</ele><time>2026-04-26T07:34:16.999Z</time></trkpt><trkpt lat="44.27466491331326" lon="9.535157820987214"><ele>328.4</ele><time>2026-04-26T07:34:17.999Z</time></trkpt><trkpt lat="44.27455745079975" lon="9.535179602868828"><ele>323.59999999999997</ele><time>2026-04-26T07:34:18.999Z</time></trkpt><trkpt lat="44.27446137849646" lon="9.535277026638406"><ele>318.79999999999995</ele><time>2026-04-26T07:34:19.999Z</time></trkpt><trkpt lat="44.274405980517194" lon="9.535429600219175"><ele>314.0</ele><time>2026-04-26T07:34:20.999Z</time></trkpt><trkpt lat="44.27438356589047" lon="9.53560423208071"><ele>314.0</ele><time>2026-04-26T07:34:21.999Z</time></trkpt><trkpt lat="44.27439149333271" lon="9.53577763416202"><ele>314.0</ele><time>2026-04-26T07:34:22.999Z</time></trkpt><trkpt lat="44.27440807793361" lon="9.535958103365918"><ele>314.0</ele><time>2026-04-26T07:34:23.999Z</time></trkpt><trkpt lat="44.274418622161726" lon="9.536142513880836"><ele>314.0</ele><time>2026-04-26T07:34:24.999Z</time></trkpt><trkpt lat="44.27442415525535" lon="9.536323806113987"><ele>314.0</ele><time>2026-04-26T07:34:25.999Z</time></trkpt><trkpt lat="44.274427130334836" lon="9.536514005189657"><ele>314.0</ele><time>2026-04-26T07:34:26.999Z</time></trkpt><trkpt lat="44.274432387734656" lon="9.536700179085704"><ele>314.0</ele><time>2026-04-26T07:34:27.999Z</time></trkpt><trkpt lat="44.274441563936655" lon="9.53685455911968"><ele>314.0</ele><time>2026-04-26T07:34:28.999Z</time></trkpt><trkpt lat="44.27444274915464" lon="9.537018657258624"><ele>312.5</ele><time>2026-04-26T07:34:29.999Z</time></trkpt><trkpt lat="44.274476384636365" lon="9.537172267968755"><ele>311.0</ele><time>2026-04-26T07:34:30.999Z</time></trkpt><trkpt lat="44.2745533667251" lon="9.537300488761367"><ele>309.5</ele><time>2026-04-26T07:34:31.999Z</time></trkpt><trkpt lat="44.2746506883271" lon="9.537422579929538"><ele>308.0</ele><time>2026-04-26T07:34:32.999Z</time></trkpt><trkpt lat="44.274749899813706" lon="9.53753169879753"><ele>313.5</ele><time>2026-04-26T07:34:33.999Z</time></trkpt><trkpt lat="44.27485887792767" lon="9.537627764307473"><ele>319.0</ele><time>2026-04-26T07:34:34.999Z</time></trkpt><trkpt lat="44.27498075510092" lon="9.537699133548402"><ele>324.5</ele><time>2026-04-26T07:34:35.999Z</time></trkpt><trkpt lat="44.27510124978034" lon="9.537761150230866"><ele>330.0</ele><time>2026-04-26T07:34:36.999Z</time></trkpt><trkpt lat="44.27522561568131" lon="9.53778369916583"><ele>330.0</ele><time>2026-04-26T07:34:37.999Z</time></trkpt><trkpt lat="44.275347151182835" lon="9.537754391044517"><ele>330.0</ele><time>2026-04-26T07:34:38.999Z</time></trkpt><trkpt lat="44.27544855041136" lon="9.53769013270005"><ele>330.0</ele><time>2026-04-26T07:34:40Z</time></trkpt><trkpt lat="44.27555253325663" lon="9.537694737835912"><ele>330.0</ele><time>2026-04-26T07:34:41Z</time></trkpt><trkpt lat="44.27565415488486" lon="9.537735871744136"><ele>330.0</ele><time>2026-04-26T07:34:42Z</time></trkpt><trkpt lat="44.275720239970624" lon="9.537884059967007"><ele>327.0</ele><time>2026-04-26T07:34:43Z</time></trkpt><trkpt lat="44.275800093529554" lon="9.538025227670603"><ele>324.0</ele><time>2026-04-26T07:34:44Z</time></trkpt><trkpt lat="44.27585964310356" lon="9.53818230974507"><ele>321.0</ele><time>2026-04-26T07:34:45Z</time></trkpt><trkpt lat="44.27592111994322" lon="9.538323586856032"><ele>318.0</ele><time>2026-04-26T07:34:46Z</time></trkpt><trkpt lat="44.27597793995578" lon="9.538464384762063"><ele>318.0</ele><time>2026-04-26T07:34:47Z</time></trkpt><trkpt lat="44.27603414478514" lon="9.538593824184083"><ele>318.0</ele><time>2026-04-26T07:34:48Z</time></trkpt><trkpt lat="44.276109574384584" lon="9.538706518625894"><ele>318.0</ele><time>2026-04-26T07:34:49Z</time></trkpt><trkpt lat="44.276218946335604" lon="9.53876337548767"><ele>318.0</ele><time>2026-04-26T07:34:50Z</time></trkpt><trkpt lat="44.276343997501655" lon="9.538780651006201"><ele>317.0</ele><time>2026-04-26T07:34:51Z</time></trkpt><trkpt lat="44.276467002612996" lon="9.53879707988554"><ele>316.0</ele><time>2026-04-26T07:34:52Z</time></trkpt><trkpt lat="44.27658496249084" lon="9.53879442572157"><ele>315.0</ele><time>2026-04-26T07:34:53Z</time></trkpt><trkpt lat="44.276702813196145" lon="9.538776236888468"><ele>314.0</ele><time>2026-04-26T07:34:54Z</time></trkpt><trkpt lat="44.276821797526466" lon="9.538771199260378"><ele>314.0</ele><time>2026-04-26T07:34:55Z</time></trkpt><trkpt lat="44.27694294600379" lon="9.538795996130084"><ele>314.0</ele><time>2026-04-26T07:34:56Z</time></trkpt><trkpt lat="44.277054025594765" lon="9.538842799501367"><ele>314.0</ele><time>2026-04-26T07:34:57Z</time></trkpt><trkpt lat="44.27717295139843" lon="9.538907434564752"><ele>314.0</ele><time>2026-04-26T07:34:58Z</time></trkpt><trkpt lat="44.27730153935561" lon="9.538992076735639"><ele>317.0</ele><time>2026-04-26T07:34:59Z</time></trkpt><trkpt lat="44.27743844852108" lon="9.53909396507241"><ele>320.0</ele><time>2026-04-26T07:35:00Z</time></trkpt><trkpt lat="44.277574912184086" lon="9.539209269724235"><ele>323.0</ele><time>2026-04-26T07:35:01Z</time></trkpt><trkpt lat="44.277709958436766" lon="9.539291469091767"><ele>323.0</ele><time>2026-04-26T07:35:02Z</time></trkpt><trkpt lat="44.27783118671078" lon="9.539382329433622"><ele>323.0</ele><time>2026-04-26T07:35:03Z</time></trkpt><trkpt lat="44.277959788454176" lon="9.539468264216655"><ele>323.0</ele><time>2026-04-26T07:35:04Z</time></trkpt><trkpt lat="44.278089640597756" lon="9.539537530862134"><ele>323.0</ele><time>2026-04-26T07:35:05Z</time></trkpt><trkpt lat="44.27821821686437" lon="9.539612568513945"><ele>321.75</ele><time>2026-04-26T07:35:06Z</time></trkpt><trkpt lat="44.27833911210594" lon="9.539694123066653"><ele>320.5</ele><time>2026-04-26T07:35:07Z</time></trkpt><trkpt lat="44.278454100112825" lon="9.539788470324487"><ele>319.25</ele><time>2026-04-26T07:35:08Z</time></trkpt><trkpt lat="44.278560773560066" lon="9.539890064643682"><ele>318.0</ele><time>2026-04-26T07:35:09Z</time></trkpt><trkpt lat="44.27865779402419" lon="9.540002581077424"><ele>318.0</ele><time>2026-04-26T07:35:10Z</time></trkpt><trkpt lat="44.27872961066351" lon="9.540147469983253"><ele>318.0</ele><time>2026-04-26T07:35:11Z</time></trkpt><trkpt lat="44.27877555316352" lon="9.540316559552087"><ele>318.0</ele><time>2026-04-26T07:35:12Z</time></trkpt><trkpt lat="44.27882790517976" lon="9.540488812724394"><ele>318.0</ele><time>2026-04-26T07:35:13Z</time></trkpt><trkpt lat="44.27888588125764" lon="9.540660639547092"><ele>320.25</ele><time>2026-04-26T07:35:14Z</time></trkpt><trkpt lat="44.278952881144235" lon="9.540803809105618"><ele>322.5</ele><time>2026-04-26T07:35:15Z</time></trkpt><trkpt lat="44.2790391186772" lon="9.540929965606127"><ele>324.75</ele><time>2026-04-26T07:35:16Z</time></trkpt><trkpt lat="44.279150635567326" lon="9.541011904591347"><ele>327.0</ele><time>2026-04-26T07:35:17Z</time></trkpt><trkpt lat="44.27927488591688" lon="9.541042397414406"><ele>327.0</ele><time>2026-04-26T07:35:18Z</time></trkpt><trkpt lat="44.27940353543067" lon="9.541030100027653"><ele>327.0</ele><time>2026-04-26T07:35:19Z</time></trkpt><trkpt lat="44.27953049551737" lon="9.540982182832312"><ele>327.0</ele><time>2026-04-26T07:35:20Z</time></trkpt><trkpt lat="44.27964852499772" lon="9.540917899575431"><ele>327.0</ele><time>2026-04-26T07:35:21Z</time></trkpt><trkpt lat="44.27976142147063" lon="9.540868484835514"><ele>327.25</ele><time>2026-04-26T07:35:22Z</time></trkpt><trkpt lat="44.27987658531407" lon="9.540844492156246"><ele>327.5</ele><time>2026-04-26T07:35:23Z</time></trkpt><trkpt lat="44.27999800890615" lon="9.540858199662374"><ele>327.75</ele><time>2026-04-26T07:35:24Z</time></trkpt><trkpt lat="44.28011355734822" lon="9.540931986213533"><ele>328.0</ele><time>2026-04-26T07:35:25Z</time></trkpt><trkpt lat="44.28022489661431" lon="9.541022529946474"><ele>328.0</ele><time>2026-04-26T07:35:26Z</time></trkpt><trkpt lat="44.28033372915347" lon="9.541109807470791"><ele>328.0</ele><time>2026-04-26T07:35:27Z</time></trkpt><trkpt lat="44.280441036224516" lon="9.54119347310458"><ele>328.0</ele><time>2026-04-26T07:35:28Z</time></trkpt><trkpt lat="44.280539099855794" lon="9.541276930924788"><ele>328.0</ele><time>2026-04-26T07:35:29Z</time></trkpt><trkpt lat="44.28063941953708" lon="9.5414045903597"><ele>327.75</ele><time>2026-04-26T07:35:30Z</time></trkpt><trkpt lat="44.28071983381082" lon="9.541539288069893"><ele>327.5</ele><time>2026-04-26T07:35:31Z</time></trkpt><trkpt lat="44.28079545474886" lon="9.541677672534417"><ele>327.25</ele><time>2026-04-26T07:35:32Z</time></trkpt><trkpt lat="44.280868867460235" lon="9.541825710386027"><ele>327.0</ele><time>2026-04-26T07:35:33Z</time></trkpt><trkpt lat="44.28091804456531" lon="9.5419775133489"><ele>325.5</ele><time>2026-04-26T07:35:34Z</time></trkpt><trkpt lat="44.28092500824646" lon="9.542145321519628"><ele>324.0</ele><time>2026-04-26T07:35:35Z</time></trkpt><trkpt lat="44.28090257225227" lon="9.542320916177513"><ele>322.5</ele><time>2026-04-26T07:35:36Z</time></trkpt><trkpt lat="44.28085181862326" lon="9.542477265888502"><ele>321.0</ele><time>2026-04-26T07:35:37Z</time></trkpt><trkpt lat="44.280805597222624" lon="9.542607783095567"><ele>321.0</ele><time>2026-04-26T07:35:38Z</time></trkpt><trkpt lat="44.28079469821904" lon="9.542757829047945"><ele>321.0</ele><time>2026-04-26T07:35:39Z</time></trkpt><trkpt lat="44.28082157373697" lon="9.542907285451049"><ele>321.0</ele><time>2026-04-26T07:35:40Z</time></trkpt><trkpt lat="44.28086876893117" lon="9.543055267565455"><ele>321.0</ele><time>2026-04-26T07:35:41Z</time></trkpt><trkpt lat="44.280929589871256" lon="9.543194725104446"><ele>318.25</ele><time>2026-04-26T07:35:41.999Z</time></trkpt><trkpt lat="44.28101773236796" lon="9.543316576056396"><ele>315.5</ele><time>2026-04-26T07:35:42.999Z</time></trkpt><trkpt lat="44.28113599637037" lon="9.543416879839885"><ele>312.75</ele><time>2026-04-26T07:35:43.999Z</time></trkpt><trkpt lat="44.2812918767885" lon="9.543512513309018"><ele>310.0</ele><time>2026-04-26T07:35:44.999Z</time></trkpt><trkpt lat="44.28146032943133" lon="9.543599310534786"><ele>311.3333333333333</ele><time>2026-04-26T07:35:45.999Z</time></trkpt><trkpt lat="44.28161354737869" lon="9.54368109716341"><ele>312.6666666666667</ele><time>2026-04-26T07:35:46.999Z</time></trkpt><trkpt lat="44.28175660295096" lon="9.543760773761282"><ele>314.0</ele><time>2026-04-26T07:35:47.999Z</time></trkpt><trkpt lat="44.28190142361948" lon="9.543836719046583"><ele>314.0</ele><time>2026-04-26T07:35:48.999Z</time></trkpt><trkpt lat="44.28203558693506" lon="9.543895337628024"><ele>314.0</ele><time>2026-04-26T07:35:49.999Z</time></trkpt><trkpt lat="44.282176721574096" lon="9.543979440852166"><ele>314.0</ele><time>2026-04-26T07:35:50.999Z</time></trkpt><trkpt lat="44.2823032270287" lon="9.54403179476493"><ele>314.0</ele><time>2026-04-26T07:35:51.999Z</time></trkpt><trkpt lat="44.28243032404685" lon="9.544097875332865"><ele>316.75</ele><time>2026-04-26T07:35:52.999Z</time></trkpt><trkpt lat="44.28256245227918" lon="9.544182218789667"><ele>319.5</ele><time>2026-04-26T07:35:53.999Z</time></trkpt><trkpt lat="44.28267727150307" lon="9.544249157532667"><ele>322.25</ele><time>2026-04-26T07:35:54.999Z</time></trkpt><trkpt lat="44.2827885434839" lon="9.544321666341778"><ele>325.0</ele><time>2026-04-26T07:35:55.999Z</time></trkpt><trkpt lat="44.282901993290196" lon="9.544404460728229"><ele>325.0</ele><time>2026-04-26T07:35:56.999Z</time></trkpt><trkpt lat="44.283027521598584" lon="9.544488519847466"><ele>325.0</ele><time>2026-04-26T07:35:57.999Z</time></trkpt><trkpt lat="44.283139921549484" lon="9.544545214151775"><ele>325.0</ele><time>2026-04-26T07:35:58.999Z</time></trkpt><trkpt lat="44.28325096414193" lon="9.544616199041121"><ele>325.0</ele><time>2026-04-26T07:35:59.999Z</time></trkpt><trkpt lat="44.28335189273327" lon="9.544703496592426"><ele>324.5</ele><time>2026-04-26T07:36:00.999Z</time></trkpt><trkpt lat="44.28344003417361" lon="9.544811434458945"><ele>324.0</ele><time>2026-04-26T07:36:01.999Z</time></trkpt><trkpt lat="44.28350999952112" lon="9.544949930710711"><ele>323.5</ele><time>2026-04-26T07:36:02.999Z</time></trkpt><trkpt lat="44.28355973296922" lon="9.54510253865949"><ele>323.0</ele><time>2026-04-26T07:36:03.999Z</time></trkpt><trkpt lat="44.28358860306198" lon="9.54526469553349"><ele>325.0</ele><time>2026-04-26T07:36:04.999Z</time></trkpt><trkpt lat="44.283589332630946" lon="9.545409584857287"><ele>327.0</ele><time>2026-04-26T07:36:05.999Z</time></trkpt><trkpt lat="44.283574220926496" lon="9.545555301308696"><ele>329.0</ele><time>2026-04-26T07:36:06.999Z</time></trkpt><trkpt lat="44.28352624502985" lon="9.545680375672049"><ele>331.0</ele><time>2026-04-26T07:36:07.999Z</time></trkpt><trkpt lat="44.283480445119494" lon="9.54584851580912"><ele>333.0</ele><time>2026-04-26T07:36:08.999Z</time></trkpt><trkpt lat="44.28342590251981" lon="9.546010776253096"><ele>333.0</ele><time>2026-04-26T07:36:09.999Z</time></trkpt><trkpt lat="44.28330168101752" lon="9.54613458476469"><ele>333.0</ele><time>2026-04-26T07:36:10.999Z</time></trkpt><trkpt lat="44.283205861354695" lon="9.546246190360339"><ele>333.0</ele><time>2026-04-26T07:36:11.999Z</time></trkpt><trkpt lat="44.28311739320162" lon="9.54634829858966"><ele>333.0</ele><time>2026-04-26T07:36:12.999Z</time></trkpt><trkpt lat="44.28305608796525" lon="9.546460552887005"><ele>334.79999999999995</ele><time>2026-04-26T07:36:13.999Z</time></trkpt><trkpt lat="44.2830692659115" lon="9.546599817835"><ele>336.6</ele><time>2026-04-26T07:36:14.999Z</time></trkpt><trkpt lat="44.28310801175276" lon="9.546735190804991"><ele>338.4</ele><time>2026-04-26T07:36:15.999Z</time></trkpt><trkpt lat="44.283102559618726" lon="9.546854906092443"><ele>340.20000000000005</ele><time>2026-04-26T07:36:16.999Z</time></trkpt><trkpt lat="44.28304190352787" lon="9.54695312705038"><ele>342.0</ele><time>2026-04-26T07:36:17.999Z</time></trkpt><trkpt lat="44.28293825846498" lon="9.546981242766934"><ele>342.0</ele><time>2026-04-26T07:36:18.999Z</time></trkpt><trkpt lat="44.28280441538257" lon="9.546985248597473"><ele>342.0</ele><time>2026-04-26T07:36:19.999Z</time></trkpt><trkpt lat="44.282667313937345" lon="9.546982134692291"><ele>342.0</ele><time>2026-04-26T07:36:20.999Z</time></trkpt><trkpt lat="44.28253888337684" lon="9.547010989281375"><ele>342.0</ele><time>2026-04-26T07:36:21.999Z</time></trkpt><trkpt lat="44.2824215534559" lon="9.547042354954893"><ele>342.0</ele><time>2026-04-26T07:36:22.999Z</time></trkpt><trkpt lat="44.28230077857607" lon="9.547043833196096"><ele>342.0</ele><time>2026-04-26T07:36:23.999Z</time></trkpt><trkpt lat="44.28218188055669" lon="9.546963168373257"><ele>342.0</ele><time>2026-04-26T07:36:24.999Z</time></trkpt><trkpt lat="44.28207590310932" lon="9.546872146596838"><ele>342.0</ele><time>2026-04-26T07:36:25.999Z</time></trkpt><trkpt lat="44.2819462481309" lon="9.546835295249384"><ele>343.0</ele><time>2026-04-26T07:36:26.999Z</time></trkpt><trkpt lat="44.28181658139265" lon="9.546852556123735"><ele>344.0</ele><time>2026-04-26T07:36:27.999Z</time></trkpt><trkpt lat="44.28170014282823" lon="9.546887394291323"><ele>345.0</ele><time>2026-04-26T07:36:28.999Z</time></trkpt><trkpt lat="44.281602053880334" lon="9.546905428418263"><ele>346.0</ele><time>2026-04-26T07:36:29.999Z</time></trkpt><trkpt lat="44.28151986063034" lon="9.546996198620299"><ele>348.75</ele><time>2026-04-26T07:36:30.999Z</time></trkpt><trkpt lat="44.28146275004016" lon="9.547147925842712"><ele>351.5</ele><time>2026-04-26T07:36:31.999Z</time></trkpt><trkpt lat="44.28141218691604" lon="9.547321664836943"><ele>354.25</ele><time>2026-04-26T07:36:32.999Z</time></trkpt><trkpt lat="44.28135811705764" lon="9.547491282981756"><ele>357.0</ele><time>2026-04-26T07:36:33.999Z</time></trkpt><trkpt lat="44.281291728346304" lon="9.547662198024511"><ele>357.0</ele><time>2026-04-26T07:36:34.999Z</time></trkpt><trkpt lat="44.281230663875064" lon="9.547824612641497"><ele>357.0</ele><time>2026-04-26T07:36:35.999Z</time></trkpt><trkpt lat="44.281187174394894" lon="9.547989468594468"><ele>357.0</ele><time>2026-04-26T07:36:36.999Z</time></trkpt><trkpt lat="44.28116446599576" lon="9.548151079232701"><ele>357.0</ele><time>2026-04-26T07:36:37.999Z</time></trkpt><trkpt lat="44.28117850397893" lon="9.548319559475141"><ele>360.5</ele><time>2026-04-26T07:36:38.999Z</time></trkpt><trkpt lat="44.28122418523125" lon="9.548483250712128"><ele>364.0</ele><time>2026-04-26T07:36:39.999Z</time></trkpt><trkpt lat="44.281288308105644" lon="9.548626507809251"><ele>367.5</ele><time>2026-04-26T07:36:40.999Z</time></trkpt><trkpt lat="44.28132813467781" lon="9.548777078963075"><ele>371.0</ele><time>2026-04-26T07:36:41.999Z</time></trkpt><trkpt lat="44.28136465237356" lon="9.54891433313593"><ele>373.0</ele><time>2026-04-26T07:36:42.999Z</time></trkpt><trkpt lat="44.28139109016241" lon="9.54905784473979"><ele>375.0</ele><time>2026-04-26T07:36:43.999Z</time></trkpt><trkpt lat="44.28137458787857" lon="9.549202904675592"><ele>377.0</ele><time>2026-04-26T07:36:44.999Z</time></trkpt><trkpt lat="44.28131122736725" lon="9.54931372511157"><ele>379.0</ele><time>2026-04-26T07:36:46Z</time></trkpt><trkpt lat="44.2812553360053" lon="9.549406023559053"><ele>381.0</ele><time>2026-04-26T07:36:47Z</time></trkpt><trkpt lat="44.281173424247285" lon="9.549442881956585"><ele>381.0</ele><time>2026-04-26T07:36:48Z</time></trkpt><trkpt lat="44.28107896397107" lon="9.549391519753726"><ele>381.0</ele><time>2026-04-26T07:36:49Z</time></trkpt><trkpt lat="44.28102987134541" lon="9.549267526493706"><ele>381.0</ele><time>2026-04-26T07:36:50Z</time></trkpt><trkpt lat="44.281049034238066" lon="9.5490903849402"><ele>381.0</ele><time>2026-04-26T07:36:51Z</time></trkpt><trkpt lat="44.281002388998814" lon="9.548969703008455"><ele>381.0</ele><time>2026-04-26T07:36:52Z</time></trkpt><trkpt lat="44.28092837526147" lon="9.548854746381162"><ele>381.0</ele><time>2026-04-26T07:36:53Z</time></trkpt><trkpt lat="44.28081776659045" lon="9.54879253649697"><ele>381.0</ele><time>2026-04-26T07:36:54Z</time></trkpt><trkpt lat="44.28070811011652" lon="9.548763002448808"><ele>381.0</ele><time>2026-04-26T07:36:55Z</time></trkpt><trkpt lat="44.280605635703466" lon="9.548736834026059"><ele>381.0</ele><time>2026-04-26T07:36:56Z</time></trkpt><trkpt lat="44.280509108382404" lon="9.548650873521504"><ele>379.8</ele><time>2026-04-26T07:36:57Z</time></trkpt><trkpt lat="44.28041782679227" lon="9.548590510935295"><ele>378.6</ele><time>2026-04-26T07:36:58Z</time></trkpt><trkpt lat="44.28034989295493" lon="9.54846093170648"><ele>377.4</ele><time>2026-04-26T07:36:59Z</time></trkpt><trkpt lat="44.28029382013017" lon="9.548339140295605"><ele>376.2</ele><time>2026-04-26T07:37:00Z</time></trkpt><trkpt lat="44.28022558600096" lon="9.548252000849908"><ele>375.0</ele><time>2026-04-26T07:37:01Z</time></trkpt><trkpt lat="44.2801267758833" lon="9.548234369396559"><ele>375.0</ele><time>2026-04-26T07:37:02Z</time></trkpt><trkpt lat="44.280019300604145" lon="9.548283834873118"><ele>375.0</ele><time>2026-04-26T07:37:03Z</time></trkpt><trkpt lat="44.27993259990164" lon="9.54837411805511"><ele>375.0</ele><time>2026-04-26T07:37:04Z</time></trkpt><trkpt lat="44.27985743217876" lon="9.548482151214374"><ele>375.0</ele><time>2026-04-26T07:37:05Z</time></trkpt><trkpt lat="44.279783345865816" lon="9.548582892759939"><ele>375.0</ele><time>2026-04-26T07:37:06Z</time></trkpt><trkpt lat="44.279710687401284" lon="9.548692809580173"><ele>377.0</ele><time>2026-04-26T07:37:07Z</time></trkpt><trkpt lat="44.279652890478296" lon="9.548808285875902"><ele>379.0</ele><time>2026-04-26T07:37:08Z</time></trkpt><trkpt lat="44.279610623125336" lon="9.548935995405186"><ele>381.0</ele><time>2026-04-26T07:37:09Z</time></trkpt><trkpt lat="44.27956885519986" lon="9.54906411640101"><ele>383.0</ele><time>2026-04-26T07:37:10Z</time></trkpt><trkpt lat="44.279523978512316" lon="9.54918968181023"><ele>385.0</ele><time>2026-04-26T07:37:11Z</time></trkpt><trkpt lat="44.27948061665945" lon="9.549312259113623"><ele>385.0</ele><time>2026-04-26T07:37:12Z</time></trkpt><trkpt lat="44.279459145950426" lon="9.549441996864376"><ele>385.0</ele><time>2026-04-26T07:37:13Z</time></trkpt><trkpt lat="44.279468288102464" lon="9.549586660644351"><ele>385.0</ele><time>2026-04-26T07:37:14Z</time></trkpt><trkpt lat="44.27948327512064" lon="9.549726352670588"><ele>385.0</ele><time>2026-04-26T07:37:15Z</time></trkpt><trkpt lat="44.27949185469592" lon="9.54987408367465"><ele>385.0</ele><time>2026-04-26T07:37:16Z</time></trkpt><trkpt lat="44.279499279202994" lon="9.54999661866046"><ele>387.2</ele><time>2026-04-26T07:37:17Z</time></trkpt><trkpt lat="44.27950513080871" lon="9.550097039743966"><ele>389.4</ele><time>2026-04-26T07:37:18Z</time></trkpt><trkpt lat="44.27943873903183" lon="9.550226500453025"><ele>391.6</ele><time>2026-04-26T07:37:20Z</time></trkpt><trkpt lat="44.2793124576337" lon="9.550209976452027"><ele>393.8</ele><time>2026-04-26T07:37:22Z</time></trkpt><trkpt lat="44.27926548645585" lon="9.550116723887108"><ele>396.0</ele><time>2026-04-26T07:37:23Z</time></trkpt><trkpt lat="44.279218662204194" lon="9.550038991001664"><ele>396.0</ele><time>2026-04-26T07:37:24Z</time></trkpt><trkpt lat="44.27920681463235" lon="9.549925322469102"><ele>396.0</ele><time>2026-04-26T07:37:25Z</time></trkpt><trkpt lat="44.279167815235965" lon="9.549823833449242"><ele>396.0</ele><time>2026-04-26T07:37:26Z</time></trkpt><trkpt lat="44.279088281669864" lon="9.549759469905114"><ele>396.0</ele><time>2026-04-26T07:37:27Z</time></trkpt><trkpt lat="44.2789914129487" lon="9.549741746641063"><ele>396.0</ele><time>2026-04-26T07:37:28Z</time></trkpt><trkpt lat="44.27890470293345" lon="9.549722432627462"><ele>396.0</ele><time>2026-04-26T07:37:29Z</time></trkpt><trkpt lat="44.27884054783213" lon="9.54969421311669"><ele>396.0</ele><time>2026-04-26T07:37:30Z</time></trkpt><trkpt lat="44.27878582578526" lon="9.549645419740573"><ele>396.0</ele><time>2026-04-26T07:37:31Z</time></trkpt><trkpt lat="44.27881354420121" lon="9.54954438881834"><ele>396.0</ele><time>2026-04-26T07:37:32Z</time></trkpt><trkpt lat="44.278828505067125" lon="9.549445341568537"><ele>396.0</ele><time>2026-04-26T07:37:33Z</time></trkpt><trkpt lat="44.278835127616944" lon="9.549337046108674"><ele>396.0</ele><time>2026-04-26T07:37:34Z</time></trkpt><trkpt lat="44.27881797358582" lon="9.549230481171774"><ele>396.0</ele><time>2026-04-26T07:37:35Z</time></trkpt><trkpt lat="44.278775988784915" lon="9.549140767335023"><ele>396.0</ele><time>2026-04-26T07:37:36Z</time></trkpt><trkpt lat="44.27871254856449" lon="9.5490886772735"><ele>396.0</ele><time>2026-04-26T07:37:37Z</time></trkpt><trkpt lat="44.27863264492338" lon="9.54909256958709"><ele>396.0</ele><time>2026-04-26T07:37:38Z</time></trkpt><trkpt lat="44.278550012570584" lon="9.549135032298436"><ele>396.0</ele><time>2026-04-26T07:37:39Z</time></trkpt><trkpt lat="44.278480777982686" lon="9.549189884318642"><ele>396.0</ele><time>2026-04-26T07:37:40Z</time></trkpt><trkpt lat="44.278421323001474" lon="9.54926006655449"><ele>396.0</ele><time>2026-04-26T07:37:41Z</time></trkpt><trkpt lat="44.27836570102166" lon="9.549335288735728"><ele>396.0</ele><time>2026-04-26T07:37:42Z</time></trkpt><trkpt lat="44.27830574765251" lon="9.549408456218888"><ele>396.0</ele><time>2026-04-26T07:37:43Z</time></trkpt><trkpt lat="44.27824350294726" lon="9.549476587069332"><ele>396.0</ele><time>2026-04-26T07:37:44Z</time></trkpt><trkpt lat="44.278181751335545" lon="9.54954901336953"><ele>396.0</ele><time>2026-04-26T07:37:45Z</time></trkpt><trkpt lat="44.27812341465936" lon="9.549619941714802"><ele>396.0</ele><time>2026-04-26T07:37:46Z</time></trkpt><trkpt lat="44.278069029738596" lon="9.549685163606894"><ele>396.0</ele><time>2026-04-26T07:37:47Z</time></trkpt><trkpt lat="44.27801684193355" lon="9.54974269467751"><ele>396.0</ele><time>2026-04-26T07:37:48Z</time></trkpt><trkpt lat="44.27796578058059" lon="9.549798653602442"><ele>396.0</ele><time>2026-04-26T07:37:49Z</time></trkpt><trkpt lat="44.277917640886805" lon="9.549863227160573"><ele>396.42857142857144</ele><time>2026-04-26T07:37:50Z</time></trkpt><trkpt lat="44.27786794922144" lon="9.54992889432063"><ele>396.85714285714283</ele><time>2026-04-26T07:37:50.999Z</time></trkpt><trkpt lat="44.27780173771919" lon="9.549955644517707"><ele>397.2857142857143</ele><time>2026-04-26T07:37:51.999Z</time></trkpt><trkpt lat="44.27772954691296" lon="9.549914765759357"><ele>397.7142857142857</ele><time>2026-04-26T07:37:52.999Z</time></trkpt><trkpt lat="44.277713792843535" lon="9.549811905049337"><ele>398.1428571428571</ele><time>2026-04-26T07:37:53.999Z</time></trkpt><trkpt lat="44.27770199575343" lon="9.549722939615046"><ele>398.57142857142856</ele><time>2026-04-26T07:37:54.999Z</time></trkpt><trkpt lat="44.27770021183233" lon="9.54962495860281"><ele>399.0</ele><time>2026-04-26T07:37:55.999Z</time></trkpt><trkpt lat="44.27766501045559" lon="9.549541112804592"><ele>399.0</ele><time>2026-04-26T07:37:56.999Z</time></trkpt><trkpt lat="44.27759716374858" lon="9.549479448980385"><ele>399.0</ele><time>2026-04-26T07:37:57.999Z</time></trkpt><trkpt lat="44.27752020665223" lon="9.549442172294155"><ele>399.0</ele><time>2026-04-26T07:37:58.999Z</time></trkpt><trkpt lat="44.27744130131485" lon="9.549448322955314"><ele>399.0</ele><time>2026-04-26T07:37:59.999Z</time></trkpt><trkpt lat="44.27736390271368" lon="9.549479648696574"><ele>399.0</ele><time>2026-04-26T07:38:00.999Z</time></trkpt><trkpt lat="44.27729118006296" lon="9.54953060291024"><ele>399.0</ele><time>2026-04-26T07:38:01.999Z</time></trkpt><trkpt lat="44.27722156875853" lon="9.549581972246457"><ele>401.8333333333333</ele><time>2026-04-26T07:38:02.999Z</time></trkpt><trkpt lat="44.27716308236989" lon="9.549656373592853"><ele>404.66666666666663</ele><time>2026-04-26T07:38:03.999Z</time></trkpt><trkpt lat="44.27712814554838" lon="9.549754947595634"><ele>407.5</ele><time>2026-04-26T07:38:04.999Z</time></trkpt><trkpt lat="44.27709975216665" lon="9.54986373432715"><ele>410.3333333333333</ele><time>2026-04-26T07:38:05.999Z</time></trkpt><trkpt lat="44.27706906321035" lon="9.549965252984574"><ele>413.16666666666663</ele><time>2026-04-26T07:38:06.999Z</time></trkpt><trkpt lat="44.27703854705375" lon="9.550069913496255"><ele>416.0</ele><time>2026-04-26T07:38:07.999Z</time></trkpt><trkpt lat="44.277008759395" lon="9.550171050555555"><ele>415.99999999999994</ele><time>2026-04-26T07:38:08.999Z</time></trkpt><trkpt lat="44.27697960310782" lon="9.550275162111745"><ele>416.0</ele><time>2026-04-26T07:38:09.999Z</time></trkpt><trkpt lat="44.27691940944227" lon="9.550341012476771"><ele>416.0</ele><time>2026-04-26T07:38:10.999Z</time></trkpt><trkpt lat="44.27685344486967" lon="9.550359892375125"><ele>416.0</ele><time>2026-04-26T07:38:11.999Z</time></trkpt><trkpt lat="44.27674549331222" lon="9.550254965461288"><ele>415.99999999999994</ele><time>2026-04-26T07:38:13.999Z</time></trkpt><trkpt lat="44.27669696854974" lon="9.550152291063208"><ele>416.0</ele><time>2026-04-26T07:38:14.999Z</time></trkpt><trkpt lat="44.276636977862296" lon="9.55006097787148"><ele>415.99999999999994</ele><time>2026-04-26T07:38:15.999Z</time></trkpt><trkpt lat="44.27657104124459" lon="9.549969300744683"><ele>416.0</ele><time>2026-04-26T07:38:16.999Z</time></trkpt><trkpt lat="44.27649658409696" lon="9.549898061200693"><ele>416.0</ele><time>2026-04-26T07:38:17.999Z</time></trkpt><trkpt lat="44.276413654472144" lon="9.549848881054757"><ele>416.0</ele><time>2026-04-26T07:38:18.999Z</time></trkpt><trkpt lat="44.27632922666958" lon="9.549821501080114"><ele>415.99999999999994</ele><time>2026-04-26T07:38:19.999Z</time></trkpt><trkpt lat="44.276248789976606" lon="9.549793158200396"><ele>416.0</ele><time>2026-04-26T07:38:20.999Z</time></trkpt><trkpt lat="44.27617317525683" lon="9.549774957763004"><ele>417.1428571428571</ele><time>2026-04-26T07:38:21.999Z</time></trkpt><trkpt lat="44.27610380974767" lon="9.549765259170735"><ele>418.28571428571433</ele><time>2026-04-26T07:38:22.999Z</time></trkpt><trkpt lat="44.27603256291437" lon="9.54976888597137"><ele>419.42857142857144</ele><time>2026-04-26T07:38:23.999Z</time></trkpt><trkpt lat="44.275960134641046" lon="9.5497891385046"><ele>420.57142857142856</ele><time>2026-04-26T07:38:24.999Z</time></trkpt><trkpt lat="44.27588256999518" lon="9.549812814017994"><ele>421.71428571428567</ele><time>2026-04-26T07:38:25.999Z</time></trkpt><trkpt lat="44.27581499026214" lon="9.549841376270624"><ele>422.8571428571429</ele><time>2026-04-26T07:38:26.999Z</time></trkpt><trkpt lat="44.27575036889708" lon="9.549854959926542"><ele>424.0</ele><time>2026-04-26T07:38:27.999Z</time></trkpt><trkpt lat="44.275665133359375" lon="9.549845784397837"><ele>425.4</ele><time>2026-04-26T07:38:28.999Z</time></trkpt><trkpt lat="44.27555416638836" lon="9.549810934539652"><ele>426.79999999999995</ele><time>2026-04-26T07:38:29.999Z</time></trkpt><trkpt lat="44.2754645857271" lon="9.549797124933889"><ele>428.20000000000005</ele><time>2026-04-26T07:38:30.999Z</time></trkpt><trkpt lat="44.27537437809485" lon="9.549794668369753"><ele>429.6</ele><time>2026-04-26T07:38:31.999Z</time></trkpt><trkpt lat="44.275286789173045" lon="9.549808861142282"><ele>431.0</ele><time>2026-04-26T07:38:32.999Z</time></trkpt><trkpt lat="44.275207587442594" lon="9.549809067461657"><ele>430.99999999999994</ele><time>2026-04-26T07:38:33.999Z</time></trkpt><trkpt lat="44.275128881555084" lon="9.54978486446415"><ele>431.0</ele><time>2026-04-26T07:38:34.999Z</time></trkpt><trkpt lat="44.27506293286692" lon="9.549738330550976"><ele>431.0</ele><time>2026-04-26T07:38:35.999Z</time></trkpt><trkpt lat="44.27501466008074" lon="9.549662029912062"><ele>431.0</ele><time>2026-04-26T07:38:36.999Z</time></trkpt><trkpt lat="44.27499485504449" lon="9.549555017238214"><ele>430.99999999999994</ele><time>2026-04-26T07:38:37.999Z</time></trkpt><trkpt lat="44.274998873412414" lon="9.549428411543856"><ele>431.0</ele><time>2026-04-26T07:38:38.999Z</time></trkpt><trkpt lat="44.27499922831118" lon="9.549316530797121"><ele>429.8333333333333</ele><time>2026-04-26T07:38:39.999Z</time></trkpt><trkpt lat="44.274997585586675" lon="9.549221944344975"><ele>428.66666666666663</ele><time>2026-04-26T07:38:40.999Z</time></trkpt><trkpt lat="44.27495383554123" lon="9.549126270723592"><ele>427.5</ele><time>2026-04-26T07:38:41.999Z</time></trkpt><trkpt lat="44.27488645511789" lon="9.54908483420515"><ele>426.33333333333337</ele><time>2026-04-26T07:38:42.999Z</time></trkpt><trkpt lat="44.27480878476906" lon="9.549077660004617"><ele>425.1666666666667</ele><time>2026-04-26T07:38:43.999Z</time></trkpt><trkpt lat="44.27472574178076" lon="9.5491057072103"><ele>424.0</ele><time>2026-04-26T07:38:44.999Z</time></trkpt><trkpt lat="44.274648916760555" lon="9.549125086914728"><ele>421.33333333333337</ele><time>2026-04-26T07:38:45.999Z</time></trkpt><trkpt lat="44.27457523320097" lon="9.549174384430305"><ele>418.6666666666667</ele><time>2026-04-26T07:38:46.999Z</time></trkpt><trkpt lat="44.274519402993164" lon="9.549266563451027"><ele>416.0</ele><time>2026-04-26T07:38:47.999Z</time></trkpt><trkpt lat="44.27448513463146" lon="9.549379661180303"><ele>413.33333333333337</ele><time>2026-04-26T07:38:48.999Z</time></trkpt><trkpt lat="44.2744627849531" lon="9.549496408274909"><ele>410.6666666666667</ele><time>2026-04-26T07:38:49.999Z</time></trkpt><trkpt lat="44.27444533810761" lon="9.54960230624457"><ele>408.0</ele><time>2026-04-26T07:38:50.999Z</time></trkpt><trkpt lat="44.274426453322704" lon="9.549699578051415"><ele>408.0</ele><time>2026-04-26T07:38:52Z</time></trkpt><trkpt lat="44.27441678250384" lon="9.549800754627514"><ele>408.0</ele><time>2026-04-26T07:38:53Z</time></trkpt><trkpt lat="44.27443455381007" lon="9.549907029473745"><ele>408.0</ele><time>2026-04-26T07:38:54Z</time></trkpt><trkpt lat="44.27447310231902" lon="9.550004566139892"><ele>408.0</ele><time>2026-04-26T07:38:55Z</time></trkpt><trkpt lat="44.27452584496309" lon="9.55008625701826"><ele>408.0</ele><time>2026-04-26T07:38:56Z</time></trkpt><trkpt lat="44.27459791398746" lon="9.550128643109757"><ele>408.0</ele><time>2026-04-26T07:38:57Z</time></trkpt><trkpt lat="44.27468422651011" lon="9.550133984457274"><ele>408.0</ele><time>2026-04-26T07:38:58Z</time></trkpt><trkpt lat="44.274769947212256" lon="9.550108930382532"><ele>408.0</ele><time>2026-04-26T07:38:59Z</time></trkpt><trkpt lat="44.27485608412558" lon="9.550072451966413"><ele>408.0</ele><time>2026-04-26T07:39:00Z</time></trkpt><trkpt lat="44.27493689900508" lon="9.55005116834493"><ele>408.0</ele><time>2026-04-26T07:39:01Z</time></trkpt><trkpt lat="44.27502150622129" lon="9.55004087911063"><ele>408.0</ele><time>2026-04-26T07:39:02Z</time></trkpt><trkpt lat="44.27509861770477" lon="9.550037809946183"><ele>408.0</ele><time>2026-04-26T07:39:03Z</time></trkpt><trkpt lat="44.275176682847814" lon="9.550054839927396"><ele>412.59999999999997</ele><time>2026-04-26T07:39:04Z</time></trkpt><trkpt lat="44.27525861534327" lon="9.550090768857356"><ele>417.2</ele><time>2026-04-26T07:39:05Z</time></trkpt><trkpt lat="44.275340104442925" lon="9.550142816756034"><ele>421.8</ele><time>2026-04-26T07:39:06Z</time></trkpt><trkpt lat="44.27541017989827" lon="9.55022362938389"><ele>426.4</ele><time>2026-04-26T07:39:07Z</time></trkpt><trkpt lat="44.27545547206381" lon="9.55033984806768"><ele>431.0</ele><time>2026-04-26T07:39:08Z</time></trkpt><trkpt lat="44.2755077424726" lon="9.550440893644264"><ele>432.8</ele><time>2026-04-26T07:39:09Z</time></trkpt><trkpt lat="44.275569119631534" lon="9.550537642322977"><ele>434.6</ele><time>2026-04-26T07:39:10Z</time></trkpt><trkpt lat="44.2756136065222" lon="9.550645916076874"><ele>436.4</ele><time>2026-04-26T07:39:11Z</time></trkpt><trkpt lat="44.275666937365436" lon="9.550749986411281"><ele>438.2</ele><time>2026-04-26T07:39:12Z</time></trkpt><trkpt lat="44.27572792755744" lon="9.55087667872023"><ele>440.0</ele><time>2026-04-26T07:39:13Z</time></trkpt><trkpt lat="44.27578077172914" lon="9.550993585377533"><ele>440.6</ele><time>2026-04-26T07:39:14Z</time></trkpt><trkpt lat="44.275830400040874" lon="9.551084275971691"><ele>441.2</ele><time>2026-04-26T07:39:15Z</time></trkpt><trkpt lat="44.27589112898506" lon="9.5511831197184"><ele>441.79999999999995</ele><time>2026-04-26T07:39:16Z</time></trkpt><trkpt lat="44.275969537088024" lon="9.551245981883739"><ele>442.4</ele><time>2026-04-26T07:39:17Z</time></trkpt><trkpt lat="44.276077242714365" lon="9.551228983567656"><ele>443.0</ele><time>2026-04-26T07:39:18Z</time></trkpt><trkpt lat="44.27615410052778" lon="9.551175541600585"><ele>443.0</ele><time>2026-04-26T07:39:19Z</time></trkpt><trkpt lat="44.27623878224777" lon="9.551172794267595"><ele>442.99999999999994</ele><time>2026-04-26T07:39:20Z</time></trkpt><trkpt lat="44.276330757083635" lon="9.551179652065093"><ele>442.99999999999994</ele><time>2026-04-26T07:39:21Z</time></trkpt><trkpt lat="44.27639767260611" lon="9.551261191042139"><ele>443.0</ele><time>2026-04-26T07:39:22Z</time></trkpt><trkpt lat="44.276397112321185" lon="9.551419117676547"><ele>443.0</ele><time>2026-04-26T07:39:23Z</time></trkpt><trkpt lat="44.276430749573606" lon="9.551567796857135"><ele>443.0</ele><time>2026-04-26T07:39:24Z</time></trkpt><trkpt lat="44.27647961226902" lon="9.551725800627747"><ele>443.0</ele><time>2026-04-26T07:39:25Z</time></trkpt><trkpt lat="44.27651478365782" lon="9.551894140443448"><ele>443.0</ele><time>2026-04-26T07:39:26Z</time></trkpt><trkpt lat="44.276552896599995" lon="9.552060356211319"><ele>443.0</ele><time>2026-04-26T07:39:27Z</time></trkpt><trkpt lat="44.27659311308137" lon="9.552218211041957"><ele>447.75</ele><time>2026-04-26T07:39:28Z</time></trkpt><trkpt lat="44.276641105112155" lon="9.552357162361822"><ele>452.5</ele><time>2026-04-26T07:39:29Z</time></trkpt><trkpt lat="44.276720334032206" lon="9.552468707579399"><ele>457.25</ele><time>2026-04-26T07:39:30Z</time></trkpt><trkpt lat="44.27682181693041" lon="9.552543826864332"><ele>462.0</ele><time>2026-04-26T07:39:31Z</time></trkpt><trkpt lat="44.27693085401899" lon="9.552600790898637"><ele>462.0</ele><time>2026-04-26T07:39:32Z</time></trkpt><trkpt lat="44.27704739796179" lon="9.552629098404529"><ele>462.00000000000006</ele><time>2026-04-26T07:39:33Z</time></trkpt><trkpt lat="44.27714543430922" lon="9.552667600789093"><ele>462.00000000000006</ele><time>2026-04-26T07:39:34Z</time></trkpt><trkpt lat="44.277210915073695" lon="9.552757425448196"><ele>462.0</ele><time>2026-04-26T07:39:35Z</time></trkpt><trkpt lat="44.27720869298461" lon="9.552927475551835"><ele>462.0</ele><time>2026-04-26T07:39:36Z</time></trkpt><trkpt lat="44.27725340724377" lon="9.553066750170027"><ele>463.25</ele><time>2026-04-26T07:39:37Z</time></trkpt><trkpt lat="44.27734331021474" lon="9.553171940826738"><ele>464.5</ele><time>2026-04-26T07:39:38Z</time></trkpt><trkpt lat="44.27745350561474" lon="9.553235141861466"><ele>465.75</ele><time>2026-04-26T07:39:39Z</time></trkpt><trkpt lat="44.27758188552354" lon="9.553213235150922"><ele>467.0</ele><time>2026-04-26T07:39:40Z</time></trkpt><trkpt lat="44.27768691866054" lon="9.553258454236337"><ele>467.0</ele><time>2026-04-26T07:39:41Z</time></trkpt><trkpt lat="44.27779246414816" lon="9.553309318447825"><ele>467.0</ele><time>2026-04-26T07:39:42Z</time></trkpt><trkpt lat="44.27788444597239" lon="9.553405995101105"><ele>467.0</ele><time>2026-04-26T07:39:43Z</time></trkpt><trkpt lat="44.277971923285904" lon="9.553510016738294"><ele>467.0</ele><time>2026-04-26T07:39:44Z</time></trkpt><trkpt lat="44.27808782169808" lon="9.553564918035883"><ele>465.75</ele><time>2026-04-26T07:39:45Z</time></trkpt><trkpt lat="44.2782002484875" lon="9.553604942234525"><ele>464.5</ele><time>2026-04-26T07:39:46Z</time></trkpt><trkpt lat="44.278310396929" lon="9.55364226993113"><ele>463.25</ele><time>2026-04-26T07:39:47Z</time></trkpt><trkpt lat="44.27841298564918" lon="9.553711194054063"><ele>462.0</ele><time>2026-04-26T07:39:48Z</time></trkpt><trkpt lat="44.27850734189778" lon="9.553811588366006"><ele>465.0</ele><time>2026-04-26T07:39:49Z</time></trkpt><trkpt lat="44.27858958513557" lon="9.553927416002484"><ele>468.0</ele><time>2026-04-26T07:39:50Z</time></trkpt><trkpt lat="44.27865950493016" lon="9.554054425611284"><ele>471.0</ele><time>2026-04-26T07:39:51Z</time></trkpt><trkpt lat="44.27871716948456" lon="9.554200404023073"><ele>474.0</ele><time>2026-04-26T07:39:52Z</time></trkpt><trkpt lat="44.27877514276341" lon="9.554341237303335"><ele>474.0</ele><time>2026-04-26T07:39:53Z</time></trkpt><trkpt lat="44.27885453674707" lon="9.55447089486722"><ele>474.0</ele><time>2026-04-26T07:39:54Z</time></trkpt><trkpt lat="44.278972671662956" lon="9.554517895245526"><ele>474.0</ele><time>2026-04-26T07:39:55Z</time></trkpt><trkpt lat="44.27907689842723" lon="9.554590876324397"><ele>474.0</ele><time>2026-04-26T07:39:56Z</time></trkpt><trkpt lat="44.27919259218487" lon="9.554632919658804"><ele>477.25</ele><time>2026-04-26T07:39:57Z</time></trkpt><trkpt lat="44.27930163064976" lon="9.554685704589557"><ele>480.5</ele><time>2026-04-26T07:39:58Z</time></trkpt><trkpt lat="44.279417603086266" lon="9.554720811525234"><ele>483.75</ele><time>2026-04-26T07:39:59Z</time></trkpt><trkpt lat="44.279539920828825" lon="9.554742211471597"><ele>487.0</ele><time>2026-04-26T07:40:00Z</time></trkpt><trkpt lat="44.279666570169184" lon="9.55473443154479"><ele>490.0</ele><time>2026-04-26T07:40:01Z</time></trkpt><trkpt lat="44.279787778881094" lon="9.55467188277209"><ele>493.0</ele><time>2026-04-26T07:40:02Z</time></trkpt><trkpt lat="44.2799032115394" lon="9.554601875482673"><ele>496.0</ele><time>2026-04-26T07:40:03Z</time></trkpt><trkpt lat="44.28002446039512" lon="9.554544715707214"><ele>499.0</ele><time>2026-04-26T07:40:04Z</time></trkpt><trkpt lat="44.280145524468786" lon="9.554493082693034"><ele>495.25</ele><time>2026-04-26T07:40:04.999Z</time></trkpt><trkpt lat="44.28026839436152" lon="9.554438799995152"><ele>491.5</ele><time>2026-04-26T07:40:05.999Z</time></trkpt><trkpt lat="44.28039266081172" lon="9.554383773938335"><ele>487.75</ele><time>2026-04-26T07:40:06.999Z</time></trkpt><trkpt lat="44.28051137712914" lon="9.554330971390401"><ele>484.0</ele><time>2026-04-26T07:40:07.999Z</time></trkpt><trkpt lat="44.28063690359704" lon="9.55428124409813"><ele>484.0</ele><time>2026-04-26T07:40:08.999Z</time></trkpt><trkpt lat="44.28074925846864" lon="9.55423106386325"><ele>484.0</ele><time>2026-04-26T07:40:09.999Z</time></trkpt><trkpt lat="44.28085465720895" lon="9.554190919375609"><ele>484.0</ele><time>2026-04-26T07:40:10.999Z</time></trkpt><trkpt lat="44.28095469549493" lon="9.55414984582299"><ele>484.0</ele><time>2026-04-26T07:40:11.999Z</time></trkpt><trkpt lat="44.281051907714975" lon="9.55410434628064"><ele>484.0</ele><time>2026-04-26T07:40:12.999Z</time></trkpt><trkpt lat="44.28114341678697" lon="9.55406197817795"><ele>484.0</ele><time>2026-04-26T07:40:13.999Z</time></trkpt><trkpt lat="44.281220762584475" lon="9.55403890361695"><ele>484.0</ele><time>2026-04-26T07:40:14.999Z</time></trkpt><trkpt lat="44.281286061153175" lon="9.554024971202676"><ele>484.0</ele><time>2026-04-26T07:40:15.999Z</time></trkpt><trkpt lat="44.281391990845414" lon="9.554071619292362"><ele>484.0</ele><time>2026-04-26T07:40:17.999Z</time></trkpt><trkpt lat="44.2814052103607" lon="9.554208565199199"><ele>484.0</ele><time>2026-04-26T07:40:19.999Z</time></trkpt><trkpt lat="44.28139193328157" lon="9.554371234400426"><ele>484.00000000000006</ele><time>2026-04-26T07:40:21.999Z</time></trkpt><trkpt lat="44.28137473898712" lon="9.554462866464272"><ele>484.0</ele><time>2026-04-26T07:40:22.999Z</time></trkpt><trkpt lat="44.281339079700274" lon="9.554584187440357"><ele>484.0</ele><time>2026-04-26T07:40:24.999Z</time></trkpt><trkpt lat="44.28127448501314" lon="9.554621878758653"><ele>484.0</ele><time>2026-04-26T07:40:27.999Z</time></trkpt><trkpt lat="44.2812744530874" lon="9.554531086469915"><ele>484.00000000000006</ele><time>2026-04-26T07:40:29.999Z</time></trkpt><trkpt lat="44.281281445877596" lon="9.554374628368208"><ele>484.0</ele><time>2026-04-26T07:40:31.999Z</time></trkpt><trkpt lat="44.28121644379265" lon="9.554277151799987"><ele>484.00000000000006</ele><time>2026-04-26T07:40:33.999Z</time></trkpt><trkpt lat="44.28115263754235" lon="9.554233132166292"><ele>484.0</ele><time>2026-04-26T07:40:34.999Z</time></trkpt><trkpt lat="44.28108070246689" lon="9.55422636263872"><ele>484.0</ele><time>2026-04-26T07:40:35.999Z</time></trkpt><trkpt lat="44.2810110734697" lon="9.554272466147566"><ele>484.0</ele><time>2026-04-26T07:40:36.999Z</time></trkpt><trkpt lat="44.28094864458887" lon="9.554348368381762"><ele>484.00000000000006</ele><time>2026-04-26T07:40:37.999Z</time></trkpt><trkpt lat="44.28088432332981" lon="9.55441974001242"><ele>484.0</ele><time>2026-04-26T07:40:38.999Z</time></trkpt><trkpt lat="44.280812306816706" lon="9.554478960916654"><ele>484.0</ele><time>2026-04-26T07:40:39.999Z</time></trkpt><trkpt lat="44.280740466835454" lon="9.554535828359628"><ele>484.0</ele><time>2026-04-26T07:40:40.999Z</time></trkpt><trkpt lat="44.28067453005052" lon="9.554594918674757"><ele>484.0</ele><time>2026-04-26T07:40:41.999Z</time></trkpt><trkpt lat="44.28059204052842" lon="9.554661131001877"><ele>484.0</ele><time>2026-04-26T07:40:43.999Z</time></trkpt><trkpt lat="44.28052100992361" lon="9.554729364578066"><ele>484.0</ele><time>2026-04-26T07:41:01Z</time></trkpt><trkpt lat="44.280412560711035" lon="9.554845248214333"><ele>486.50000000000006</ele><time>2026-04-26T07:41:03Z</time></trkpt><trkpt lat="44.280351919315706" lon="9.55490942724992"><ele>489.0</ele><time>2026-04-26T07:41:04Z</time></trkpt><trkpt lat="44.28028621684368" lon="9.554972134535598"><ele>491.5</ele><time>2026-04-26T07:41:05Z</time></trkpt><trkpt lat="44.28020918671304" lon="9.55500484006601"><ele>494.0</ele><time>2026-04-26T07:41:06Z</time></trkpt><trkpt lat="44.280143401752106" lon="9.555057158524704"><ele>496.50000000000006</ele><time>2026-04-26T07:41:07Z</time></trkpt><trkpt lat="44.28006946350217" lon="9.555135327139569"><ele>499.0</ele><time>2026-04-26T07:41:08Z</time></trkpt><trkpt lat="44.28001123762429" lon="9.555214204275012"><ele>499.00000000000006</ele><time>2026-04-26T07:41:09Z</time></trkpt><trkpt lat="44.279943788274196" lon="9.555269522449546"><ele>499.0</ele><time>2026-04-26T07:41:10Z</time></trkpt><trkpt lat="44.27988189281098" lon="9.555328364616894"><ele>499.0</ele><time>2026-04-26T07:41:11Z</time></trkpt><trkpt lat="44.279813824289654" lon="9.555381784090589"><ele>499.0</ele><time>2026-04-26T07:41:12Z</time></trkpt><trkpt lat="44.27974958662876" lon="9.55544824494834"><ele>499.00000000000006</ele><time>2026-04-26T07:41:13Z</time></trkpt><trkpt lat="44.279674945503416" lon="9.555515028780896"><ele>499.0</ele><time>2026-04-26T07:41:14Z</time></trkpt><trkpt lat="44.279597355996536" lon="9.55557336610411"><ele>500.50000000000006</ele><time>2026-04-26T07:41:15Z</time></trkpt><trkpt lat="44.279526366476674" lon="9.555627424006826"><ele>502.0</ele><time>2026-04-26T07:41:16Z</time></trkpt><trkpt lat="44.279459681512115" lon="9.55569826289439"><ele>503.5</ele><time>2026-04-26T07:41:17Z</time></trkpt><trkpt lat="44.27939746601533" lon="9.555762038192487"><ele>505.0</ele><time>2026-04-26T07:41:18Z</time></trkpt><trkpt lat="44.27932788393074" lon="9.555806557744214"><ele>506.50000000000006</ele><time>2026-04-26T07:41:19Z</time></trkpt><trkpt lat="44.279250369617465" lon="9.55585666890941"><ele>508.0</ele><time>2026-04-26T07:41:20Z</time></trkpt><trkpt lat="44.279172505973655" lon="9.555915919815142"><ele>508.00000000000006</ele><time>2026-04-26T07:41:21Z</time></trkpt><trkpt lat="44.279095301713895" lon="9.555951564280246"><ele>508.0</ele><time>2026-04-26T07:41:22Z</time></trkpt><trkpt lat="44.27900925615505" lon="9.555942543174215"><ele>508.0</ele><time>2026-04-26T07:41:23Z</time></trkpt><trkpt lat="44.2789229314217" lon="9.55595222511589"><ele>508.0</ele><time>2026-04-26T07:41:24Z</time></trkpt><trkpt lat="44.27882917576298" lon="9.555951856359556"><ele>508.00000000000006</ele><time>2026-04-26T07:41:25Z</time></trkpt><trkpt lat="44.278736553103435" lon="9.555954613508211"><ele>508.0</ele><time>2026-04-26T07:41:26Z</time></trkpt><trkpt lat="44.27864403246509" lon="9.555934203198746"><ele>509.33333333333337</ele><time>2026-04-26T07:41:27Z</time></trkpt><trkpt lat="44.27856279389813" lon="9.555890768699948"><ele>510.6666666666667</ele><time>2026-04-26T07:41:28Z</time></trkpt><trkpt lat="44.27848546589616" lon="9.555831525214227"><ele>512.0</ele><time>2026-04-26T07:41:29Z</time></trkpt><trkpt lat="44.278404642429614" lon="9.555801209285805"><ele>513.3333333333334</ele><time>2026-04-26T07:41:30Z</time></trkpt><trkpt lat="44.278315414167686" lon="9.555811601327154"><ele>514.6666666666666</ele><time>2026-04-26T07:41:31Z</time></trkpt><trkpt lat="44.27823011541519" lon="9.555856948605927"><ele>516.0</ele><time>2026-04-26T07:41:32Z</time></trkpt><trkpt lat="44.27814415079343" lon="9.555910515002529"><ele>520.0</ele><time>2026-04-26T07:41:33Z</time></trkpt><trkpt lat="44.2780618964035" lon="9.555941408228799"><ele>524.0</ele><time>2026-04-26T07:41:34Z</time></trkpt><trkpt lat="44.27798375170135" lon="9.555909648401041"><ele>528.0</ele><time>2026-04-26T07:41:35Z</time></trkpt><trkpt lat="44.27791382947902" lon="9.555815811960722"><ele>532.0</ele><time>2026-04-26T07:41:36Z</time></trkpt><trkpt lat="44.27783489113956" lon="9.555755914624878"><ele>536.0</ele><time>2026-04-26T07:41:37Z</time></trkpt><trkpt lat="44.277769498608556" lon="9.555648492719499"><ele>536.0</ele><time>2026-04-26T07:41:38Z</time></trkpt><trkpt lat="44.27770581766641" lon="9.555563473227426"><ele>536.0</ele><time>2026-04-26T07:41:39Z</time></trkpt><trkpt lat="44.277636035002395" lon="9.555485812157979"><ele>536.0</ele><time>2026-04-26T07:41:40Z</time></trkpt><trkpt lat="44.277566609727565" lon="9.555417873191963"><ele>536.0</ele><time>2026-04-26T07:41:41Z</time></trkpt><trkpt lat="44.277482312854666" lon="9.555378450143461"><ele>536.0</ele><time>2026-04-26T07:41:42Z</time></trkpt><trkpt lat="44.27739313715451" lon="9.55535855927791"><ele>536.0</ele><time>2026-04-26T07:41:43Z</time></trkpt><trkpt lat="44.27732212085348" lon="9.555305732214338"><ele>534.1666666666666</ele><time>2026-04-26T07:41:44Z</time></trkpt><trkpt lat="44.27723761942894" lon="9.55525470318531"><ele>532.3333333333333</ele><time>2026-04-26T07:41:45Z</time></trkpt><trkpt lat="44.27717198638402" lon="9.555182411922976"><ele>530.5</ele><time>2026-04-26T07:41:46Z</time></trkpt><trkpt lat="44.27710989751321" lon="9.555117535553428"><ele>528.6666666666666</ele><time>2026-04-26T07:41:47Z</time></trkpt><trkpt lat="44.27703661476363" lon="9.555087310837038"><ele>526.8333333333334</ele><time>2026-04-26T07:41:48Z</time></trkpt><trkpt lat="44.276954070755245" lon="9.555057867346116"><ele>525.0</ele><time>2026-04-26T07:41:49Z</time></trkpt><trkpt lat="44.27686961836245" lon="9.555030543341118"><ele>525.0</ele><time>2026-04-26T07:41:50Z</time></trkpt><trkpt lat="44.27677645353462" lon="9.55501345728844"><ele>525.0</ele><time>2026-04-26T07:41:51Z</time></trkpt><trkpt lat="44.27668074324178" lon="9.554995482528167"><ele>525.0</ele><time>2026-04-26T07:41:52Z</time></trkpt><trkpt lat="44.27658427662685" lon="9.555008865026204"><ele>525.0</ele><time>2026-04-26T07:41:53Z</time></trkpt><trkpt lat="44.27649367456232" lon="9.555031986338705"><ele>525.0</ele><time>2026-04-26T07:41:54Z</time></trkpt><trkpt lat="44.27640416129827" lon="9.555064249868924"><ele>524.3333333333334</ele><time>2026-04-26T07:41:55Z</time></trkpt><trkpt lat="44.27632462062016" lon="9.555101194592432"><ele>523.6666666666666</ele><time>2026-04-26T07:41:56Z</time></trkpt><trkpt lat="44.276253994030334" lon="9.55517264239344"><ele>523.0</ele><time>2026-04-26T07:41:57Z</time></trkpt><trkpt lat="44.27619697043953" lon="9.555266818379817"><ele>522.3333333333333</ele><time>2026-04-26T07:41:58Z</time></trkpt><trkpt lat="44.27615836707539" lon="9.555374291786341"><ele>521.6666666666666</ele><time>2026-04-26T07:41:59Z</time></trkpt><trkpt lat="44.27613782986729" lon="9.555499290706585"><ele>521.0</ele><time>2026-04-26T07:42:00Z</time></trkpt><trkpt lat="44.276112088304096" lon="9.555616860295569"><ele>521.0</ele><time>2026-04-26T07:42:01Z</time></trkpt><trkpt lat="44.27609333110021" lon="9.555736820369862"><ele>521.0</ele><time>2026-04-26T07:42:02Z</time></trkpt><trkpt lat="44.27608242705197" lon="9.555851866597132"><ele>521.0</ele><time>2026-04-26T07:42:03Z</time></trkpt><trkpt lat="44.27609137867787" lon="9.555968096500253"><ele>521.0</ele><time>2026-04-26T07:42:04Z</time></trkpt><trkpt lat="44.27612900080307" lon="9.556088073181364"><ele>521.0</ele><time>2026-04-26T07:42:05Z</time></trkpt><trkpt lat="44.276179569597716" lon="9.5561995376701"><ele>521.0</ele><time>2026-04-26T07:42:06Z</time></trkpt><trkpt lat="44.27621632815936" lon="9.556315425321928"><ele>521.6</ele><time>2026-04-26T07:42:07Z</time></trkpt><trkpt lat="44.27620415718966" lon="9.556450898050223"><ele>522.2</ele><time>2026-04-26T07:42:08Z</time></trkpt><trkpt lat="44.27620558526342" lon="9.556588428929158"><ele>522.8</ele><time>2026-04-26T07:42:08.999Z</time></trkpt><trkpt lat="44.27618689318508" lon="9.55673672083714"><ele>523.4</ele><time>2026-04-26T07:42:09.999Z</time></trkpt><trkpt lat="44.276177278004695" lon="9.556859014396535"><ele>524.0</ele><time>2026-04-26T07:42:10.999Z</time></trkpt><trkpt lat="44.27616777824101" lon="9.556977180158228"><ele>527.4</ele><time>2026-04-26T07:42:11.999Z</time></trkpt><trkpt lat="44.27613544988035" lon="9.55708911662371"><ele>530.8</ele><time>2026-04-26T07:42:12.999Z</time></trkpt><trkpt lat="44.27609249300059" lon="9.557204964382858"><ele>534.2</ele><time>2026-04-26T07:42:13.999Z</time></trkpt><trkpt lat="44.276039782252866" lon="9.557309717767625"><ele>537.6</ele><time>2026-04-26T07:42:14.999Z</time></trkpt><trkpt lat="44.27599244433828" lon="9.557423705813266"><ele>541.0</ele><time>2026-04-26T07:42:15.999Z</time></trkpt><trkpt lat="44.2759313472336" lon="9.557537985765173"><ele>541.0</ele><time>2026-04-26T07:42:16.999Z</time></trkpt><trkpt lat="44.275875461307486" lon="9.557644494221613"><ele>541.0</ele><time>2026-04-26T07:42:17.999Z</time></trkpt><trkpt lat="44.27585043500192" lon="9.557764354923087"><ele>541.0</ele><time>2026-04-26T07:42:18.999Z</time></trkpt><trkpt lat="44.27582046888167" lon="9.557882551080164"><ele>541.0</ele><time>2026-04-26T07:42:19.999Z</time></trkpt><trkpt lat="44.275808803613955" lon="9.557999864626062"><ele>541.0</ele><time>2026-04-26T07:42:20.999Z</time></trkpt><trkpt lat="44.27581739655736" lon="9.558136915447559"><ele>542.25</ele><time>2026-04-26T07:42:21.999Z</time></trkpt><trkpt lat="44.27584601292371" lon="9.558280999616848"><ele>543.5</ele><time>2026-04-26T07:42:22.999Z</time></trkpt><trkpt lat="44.27590221057253" lon="9.558424670529217"><ele>544.75</ele><time>2026-04-26T07:42:23.999Z</time></trkpt><trkpt lat="44.275970278161616" lon="9.558562307678562"><ele>546.0</ele><time>2026-04-26T07:42:24.999Z</time></trkpt><trkpt lat="44.276035758917736" lon="9.558689336319462"><ele>543.75</ele><time>2026-04-26T07:42:25.999Z</time></trkpt><trkpt lat="44.27608208545718" lon="9.558824338835878"><ele>541.5</ele><time>2026-04-26T07:42:26.999Z</time></trkpt><trkpt lat="44.27613882227166" lon="9.558963296578767"><ele>539.25</ele><time>2026-04-26T07:42:27.999Z</time></trkpt><trkpt lat="44.27617336203302" lon="9.559121476860414"><ele>537.0</ele><time>2026-04-26T07:42:28.999Z</time></trkpt><trkpt lat="44.27618146275369" lon="9.559285142146027"><ele>537.0</ele><time>2026-04-26T07:42:29.999Z</time></trkpt><trkpt lat="44.27620274691856" lon="9.559454591332834"><ele>537.0</ele><time>2026-04-26T07:42:30.999Z</time></trkpt><trkpt lat="44.276227180088895" lon="9.559623397718843"><ele>537.0</ele><time>2026-04-26T07:42:31.999Z</time></trkpt><trkpt lat="44.276238672840186" lon="9.559787847051595"><ele>537.0</ele><time>2026-04-26T07:42:32.999Z</time></trkpt><trkpt lat="44.27623806404442" lon="9.559949272776441"><ele>537.75</ele><time>2026-04-26T07:42:33.999Z</time></trkpt><trkpt lat="44.276221810592496" lon="9.56011311183292"><ele>538.5</ele><time>2026-04-26T07:42:34.999Z</time></trkpt><trkpt lat="44.27619117233415" lon="9.560276526424044"><ele>539.25</ele><time>2026-04-26T07:42:35.999Z</time></trkpt><trkpt lat="44.27617455622027" lon="9.560436331693177"><ele>540.0</ele><time>2026-04-26T07:42:36.999Z</time></trkpt><trkpt lat="44.27615919966316" lon="9.56058398415473"><ele>542.0</ele><time>2026-04-26T07:42:37.999Z</time></trkpt><trkpt lat="44.27619900695821" lon="9.560729414718704"><ele>544.0</ele><time>2026-04-26T07:42:38.999Z</time></trkpt><trkpt lat="44.27626072960921" lon="9.560847176676837"><ele>546.0</ele><time>2026-04-26T07:42:39.999Z</time></trkpt><trkpt lat="44.27629823233144" lon="9.560958491485232"><ele>548.0</ele><time>2026-04-26T07:42:40.999Z</time></trkpt><trkpt lat="44.276282640375356" lon="9.561087367125552"><ele>550.0</ele><time>2026-04-26T07:42:41.999Z</time></trkpt><trkpt lat="44.276192006765896" lon="9.561187334077815"><ele>554.0</ele><time>2026-04-26T07:42:42.999Z</time></trkpt><trkpt lat="44.27607833266519" lon="9.561235686221066"><ele>558.0</ele><time>2026-04-26T07:42:43.999Z</time></trkpt><trkpt lat="44.275956732793226" lon="9.561317245496939"><ele>562.0</ele><time>2026-04-26T07:42:44.999Z</time></trkpt><trkpt lat="44.27583886756433" lon="9.561356915506872"><ele>566.0</ele><time>2026-04-26T07:42:45.999Z</time></trkpt><trkpt lat="44.2757432909827" lon="9.561422079085855"><ele>566.0</ele><time>2026-04-26T07:42:46.999Z</time></trkpt><trkpt lat="44.275677438277505" lon="9.561537028283118"><ele>566.0</ele><time>2026-04-26T07:42:47.999Z</time></trkpt><trkpt lat="44.27567377791357" lon="9.561654595693042"><ele>566.0</ele><time>2026-04-26T07:42:48.999Z</time></trkpt><trkpt lat="44.27572161661905" lon="9.561768945986579"><ele>566.0</ele><time>2026-04-26T07:42:49.999Z</time></trkpt><trkpt lat="44.275803760678826" lon="9.561857938599484"><ele>566.0</ele><time>2026-04-26T07:42:50.999Z</time></trkpt><trkpt lat="44.27589620239245" lon="9.561936060697104"><ele>566.8</ele><time>2026-04-26T07:42:51.999Z</time></trkpt><trkpt lat="44.27593644842142" lon="9.562056541810124"><ele>567.6</ele><time>2026-04-26T07:42:52.999Z</time></trkpt><trkpt lat="44.27594324824264" lon="9.562208501532794"><ele>568.4</ele><time>2026-04-26T07:42:53.999Z</time></trkpt><trkpt lat="44.27596248927817" lon="9.562381269500627"><ele>569.2</ele><time>2026-04-26T07:42:54.999Z</time></trkpt><trkpt lat="44.27593261465927" lon="9.562519800942136"><ele>570.0</ele><time>2026-04-26T07:42:55.999Z</time></trkpt><trkpt lat="44.27588219142741" lon="9.562654351594862"><ele>570.0</ele><time>2026-04-26T07:42:56.999Z</time></trkpt><trkpt lat="44.2758686071609" lon="9.562789702163377"><ele>570.0</ele><time>2026-04-26T07:42:57.999Z</time></trkpt><trkpt lat="44.275926955155505" lon="9.56291960619257"><ele>570.0</ele><time>2026-04-26T07:42:58.999Z</time></trkpt><trkpt lat="44.27601878096451" lon="9.563043010857228"><ele>570.0</ele><time>2026-04-26T07:42:59.999Z</time></trkpt><trkpt lat="44.2761075196717" lon="9.563176690155414"><ele>569.75</ele><time>2026-04-26T07:43:00.999Z</time></trkpt><trkpt lat="44.27619407095816" lon="9.563318421582098"><ele>569.5</ele><time>2026-04-26T07:43:01.999Z</time></trkpt><trkpt lat="44.27628082759497" lon="9.563452879004144"><ele>569.25</ele><time>2026-04-26T07:43:02.999Z</time></trkpt><trkpt lat="44.27636974173349" lon="9.563580600916039"><ele>569.0</ele><time>2026-04-26T07:43:04Z</time></trkpt><trkpt lat="44.27646145138536" lon="9.563702088970327"><ele>572.75</ele><time>2026-04-26T07:43:05Z</time></trkpt><trkpt lat="44.276555444463874" lon="9.56382040716043"><ele>576.5</ele><time>2026-04-26T07:43:06Z</time></trkpt><trkpt lat="44.27664415456896" lon="9.563936278002014"><ele>580.25</ele><time>2026-04-26T07:43:07Z</time></trkpt><trkpt lat="44.27672859417201" lon="9.564047135084463"><ele>584.0</ele><time>2026-04-26T07:43:08Z</time></trkpt><trkpt lat="44.27681505816796" lon="9.56415142591908"><ele>584.0</ele><time>2026-04-26T07:43:09Z</time></trkpt><trkpt lat="44.276884654586986" lon="9.564274170174508"><ele>584.0</ele><time>2026-04-26T07:43:10Z</time></trkpt><trkpt lat="44.27690639272441" lon="9.564440007495723"><ele>584.0</ele><time>2026-04-26T07:43:11Z</time></trkpt><trkpt lat="44.276943052198845" lon="9.564616061640539"><ele>584.0</ele><time>2026-04-26T07:43:12Z</time></trkpt><trkpt lat="44.276942479061525" lon="9.564780462465263"><ele>585.3333333333333</ele><time>2026-04-26T07:43:13Z</time></trkpt><trkpt lat="44.27692297858695" lon="9.56489959498121"><ele>586.6666666666666</ele><time>2026-04-26T07:43:14Z</time></trkpt><trkpt lat="44.27687210916277" lon="9.564962085977013"><ele>588.0</ele><time>2026-04-26T07:43:16Z</time></trkpt><trkpt lat="44.27679760822249" lon="9.565112256243708"><ele>589.3333333333334</ele><time>2026-04-26T07:43:38Z</time></trkpt><trkpt lat="44.27674743177206" lon="9.565198046181639"><ele>590.6666666666667</ele><time>2026-04-26T07:43:39Z</time></trkpt><trkpt lat="44.27669206625358" lon="9.56528011239382"><ele>592.0</ele><time>2026-04-26T07:43:40Z</time></trkpt><trkpt lat="44.27663427829239" lon="9.565359943224395"><ele>591.6</ele><time>2026-04-26T07:43:41Z</time></trkpt><trkpt lat="44.27657521834994" lon="9.565458671384572"><ele>591.2</ele><time>2026-04-26T07:43:42Z</time></trkpt><trkpt lat="44.276516285329244" lon="9.565553764583386"><ele>590.8</ele><time>2026-04-26T07:43:43Z</time></trkpt><trkpt lat="44.27645480993863" lon="9.56564781195177"><ele>590.4</ele><time>2026-04-26T07:43:44Z</time></trkpt><trkpt lat="44.27638640886918" lon="9.565754128044064"><ele>590.0</ele><time>2026-04-26T07:43:45Z</time></trkpt><trkpt lat="44.27632863914556" lon="9.565860063001734"><ele>596.4</ele><time>2026-04-26T07:43:46Z</time></trkpt><trkpt lat="44.27627763204664" lon="9.56597806745158"><ele>602.8</ele><time>2026-04-26T07:43:47Z</time></trkpt><trkpt lat="44.27623800811249" lon="9.566109947642904"><ele>609.2</ele><time>2026-04-26T07:43:48Z</time></trkpt><trkpt lat="44.27620934026337" lon="9.566250898558273"><ele>615.6</ele><time>2026-04-26T07:43:49Z</time></trkpt><trkpt lat="44.276207835549464" lon="9.566401484761272"><ele>622.0</ele><time>2026-04-26T07:43:50Z</time></trkpt><trkpt lat="44.27622946327005" lon="9.566542751557076"><ele>622.5</ele><time>2026-04-26T07:43:51Z</time></trkpt><trkpt lat="44.27625752863579" lon="9.566701931999338"><ele>623.0</ele><time>2026-04-26T07:43:52Z</time></trkpt><trkpt lat="44.27627946394614" lon="9.566869677691406"><ele>623.5</ele><time>2026-04-26T07:43:53Z</time></trkpt><trkpt lat="44.27627391245936" lon="9.567039078385587"><ele>624.0</ele><time>2026-04-26T07:43:54Z</time></trkpt><trkpt lat="44.276246008388114" lon="9.567192204623847"><ele>625.0</ele><time>2026-04-26T07:43:55Z</time></trkpt><trkpt lat="44.27622097768025" lon="9.567341006298365"><ele>626.0</ele><time>2026-04-26T07:43:56Z</time></trkpt><trkpt lat="44.276198789618036" lon="9.567492276707945"><ele>627.0</ele><time>2026-04-26T07:43:57Z</time></trkpt><trkpt lat="44.27617494202354" lon="9.567647430774164"><ele>628.0</ele><time>2026-04-26T07:43:58Z</time></trkpt><trkpt lat="44.27615485245407" lon="9.56780716974774"><ele>628.5</ele><time>2026-04-26T07:43:59Z</time></trkpt><trkpt lat="44.27614593510777" lon="9.567961193332494"><ele>629.0</ele><time>2026-04-26T07:44:00Z</time></trkpt><trkpt lat="44.27616751054382" lon="9.56811034209196"><ele>629.5</ele><time>2026-04-26T07:44:01Z</time></trkpt><trkpt lat="44.27622447683931" lon="9.568249015524476"><ele>630.0</ele><time>2026-04-26T07:44:02Z</time></trkpt><trkpt lat="44.27630338714813" lon="9.568370041549322"><ele>630.0</ele><time>2026-04-26T07:44:03Z</time></trkpt><trkpt lat="44.276388428155364" lon="9.568478694766462"><ele>630.0</ele><time>2026-04-26T07:44:04Z</time></trkpt><trkpt lat="44.27646379864601" lon="9.568592761013203"><ele>630.0</ele><time>2026-04-26T07:44:05Z</time></trkpt><trkpt lat="44.276509535015705" lon="9.568715136689555"><ele>630.0</ele><time>2026-04-26T07:44:06Z</time></trkpt><trkpt lat="44.27652476379391" lon="9.568873897898156"><ele>630.0</ele><time>2026-04-26T07:44:07Z</time></trkpt><trkpt lat="44.27652368898634" lon="9.569069738364627"><ele>626.25</ele><time>2026-04-26T07:44:08Z</time></trkpt><trkpt lat="44.276505013501655" lon="9.569259871694573"><ele>622.5</ele><time>2026-04-26T07:44:09Z</time></trkpt><trkpt lat="44.276489320835395" lon="9.569423800571784"><ele>618.75</ele><time>2026-04-26T07:44:10Z</time></trkpt><trkpt lat="44.27648812028141" lon="9.569580251765375"><ele>615.0</ele><time>2026-04-26T07:44:11Z</time></trkpt><trkpt lat="44.276504605525915" lon="9.569740036442628"><ele>614.25</ele><time>2026-04-26T07:44:12Z</time></trkpt><trkpt lat="44.27654130181073" lon="9.569905598537337"><ele>613.5</ele><time>2026-04-26T07:44:12.999Z</time></trkpt><trkpt lat="44.27659760957061" lon="9.57007561360403"><ele>612.75</ele><time>2026-04-26T07:44:13.999Z</time></trkpt><trkpt lat="44.27664814083103" lon="9.570236847720968"><ele>612.0</ele><time>2026-04-26T07:44:14.999Z</time></trkpt><trkpt lat="44.27666220645457" lon="9.570430523887765"><ele>612.0</ele><time>2026-04-26T07:44:15.999Z</time></trkpt><trkpt lat="44.276636053492645" lon="9.570636958563624"><ele>612.0</ele><time>2026-04-26T07:44:16.999Z</time></trkpt><trkpt lat="44.276583792975245" lon="9.570826061645324"><ele>612.0</ele><time>2026-04-26T07:44:17.999Z</time></trkpt><trkpt lat="44.276531873800636" lon="9.570983525145248"><ele>612.0</ele><time>2026-04-26T07:44:18.999Z</time></trkpt><trkpt lat="44.27646699096569" lon="9.57113019938742"><ele>619.25</ele><time>2026-04-26T07:44:19.999Z</time></trkpt><trkpt lat="44.27639542118515" lon="9.571266235344964"><ele>626.5</ele><time>2026-04-26T07:44:20.999Z</time></trkpt><trkpt lat="44.27632526802646" lon="9.5714062884435"><ele>633.75</ele><time>2026-04-26T07:44:21.999Z</time></trkpt><trkpt lat="44.2762619476733" lon="9.57154757959866"><ele>641.0</ele><time>2026-04-26T07:44:22.999Z</time></trkpt><trkpt lat="44.27619637727707" lon="9.571689474119294"><ele>641.0</ele><time>2026-04-26T07:44:23.999Z</time></trkpt><trkpt lat="44.27613336073092" lon="9.571832707966392"><ele>641.0</ele><time>2026-04-26T07:44:24.999Z</time></trkpt><trkpt lat="44.27609585505623" lon="9.571976196588365"><ele>641.0</ele><time>2026-04-26T07:44:25.999Z</time></trkpt><trkpt lat="44.276076963053214" lon="9.572129780349359"><ele>641.0</ele><time>2026-04-26T07:44:26.999Z</time></trkpt><trkpt lat="44.27609228654945" lon="9.572285292844342"><ele>640.25</ele><time>2026-04-26T07:44:27.999Z</time></trkpt><trkpt lat="44.27615928881906" lon="9.572425450363784"><ele>639.5</ele><time>2026-04-26T07:44:28.999Z</time></trkpt><trkpt lat="44.27625876751428" lon="9.572542482738017"><ele>638.75</ele><time>2026-04-26T07:44:29.999Z</time></trkpt><trkpt lat="44.27638793462869" lon="9.572594731654798"><ele>638.0</ele><time>2026-04-26T07:44:30.999Z</time></trkpt><trkpt lat="44.276515559698296" lon="9.572633606503613"><ele>639.5</ele><time>2026-04-26T07:44:31.999Z</time></trkpt><trkpt lat="44.276626637917786" lon="9.572688069368839"><ele>641.0</ele><time>2026-04-26T07:44:32.999Z</time></trkpt><trkpt lat="44.27673339702329" lon="9.572758373735756"><ele>642.5</ele><time>2026-04-26T07:44:33.999Z</time></trkpt><trkpt lat="44.27683436087958" lon="9.57284987891958"><ele>644.0</ele><time>2026-04-26T07:44:34.999Z</time></trkpt><trkpt lat="44.276909655243266" lon="9.572995157408597"><ele>644.0</ele><time>2026-04-26T07:44:35.999Z</time></trkpt><trkpt lat="44.27698378102019" lon="9.573144027625908"><ele>644.0</ele><time>2026-04-26T07:44:36.999Z</time></trkpt><trkpt lat="44.27706942234621" lon="9.573278268333791"><ele>644.0</ele><time>2026-04-26T07:44:37.999Z</time></trkpt><trkpt lat="44.27712711851697" lon="9.573428704279362"><ele>644.0</ele><time>2026-04-26T07:44:38.999Z</time></trkpt><trkpt lat="44.27720565206269" lon="9.573551464888872"><ele>640.25</ele><time>2026-04-26T07:44:39.999Z</time></trkpt><trkpt lat="44.27731703156177" lon="9.573634434910204"><ele>636.5</ele><time>2026-04-26T07:44:40.999Z</time></trkpt><trkpt lat="44.277437728315284" lon="9.573656709264451"><ele>632.75</ele><time>2026-04-26T07:44:41.999Z</time></trkpt><trkpt lat="44.27756050725496" lon="9.573610844885796"><ele>629.0</ele><time>2026-04-26T07:44:42.999Z</time></trkpt><trkpt lat="44.27767625470674" lon="9.573518060906505"><ele>629.0</ele><time>2026-04-26T07:44:43.999Z</time></trkpt><trkpt lat="44.27778129710369" lon="9.573415873301716"><ele>629.0</ele><time>2026-04-26T07:44:44.999Z</time></trkpt><trkpt lat="44.2778831858482" lon="9.573319245477888"><ele>629.0</ele><time>2026-04-26T07:44:45.999Z</time></trkpt><trkpt lat="44.27799663581143" lon="9.57325241206741"><ele>629.0</ele><time>2026-04-26T07:44:46.999Z</time></trkpt><trkpt lat="44.27810631486923" lon="9.573181773341775"><ele>631.0</ele><time>2026-04-26T07:44:47.999Z</time></trkpt><trkpt lat="44.278220219395635" lon="9.573155307328454"><ele>633.0</ele><time>2026-04-26T07:44:48.999Z</time></trkpt><trkpt lat="44.27833985488631" lon="9.573187793038139"><ele>635.0</ele><time>2026-04-26T07:44:49.999Z</time></trkpt><trkpt lat="44.2784377435664" lon="9.573269472832699"><ele>637.0</ele><time>2026-04-26T07:44:50.999Z</time></trkpt><trkpt lat="44.2785309957714" lon="9.573412305777515"><ele>637.0</ele><time>2026-04-26T07:44:51.999Z</time></trkpt><trkpt lat="44.27861229925227" lon="9.573572218026172"><ele>637.0</ele><time>2026-04-26T07:44:52.999Z</time></trkpt><trkpt lat="44.27860442879329" lon="9.573762967125331"><ele>637.0</ele><time>2026-04-26T07:44:53.999Z</time></trkpt><trkpt lat="44.2785906956171" lon="9.573953656499823"><ele>637.0</ele><time>2026-04-26T07:44:54.999Z</time></trkpt><trkpt lat="44.27857739669586" lon="9.574153698671623"><ele>640.0</ele><time>2026-04-26T07:44:55.999Z</time></trkpt><trkpt lat="44.27855340132933" lon="9.574334060781291"><ele>643.0</ele><time>2026-04-26T07:44:56.999Z</time></trkpt><trkpt lat="44.278544580783105" lon="9.574504781087057"><ele>646.0</ele><time>2026-04-26T07:44:57.999Z</time></trkpt><trkpt lat="44.278550912821466" lon="9.57467024471057"><ele>649.0</ele><time>2026-04-26T07:44:58.999Z</time></trkpt><trkpt lat="44.27858453803142" lon="9.574836958783951"><ele>651.0</ele><time>2026-04-26T07:44:59.999Z</time></trkpt><trkpt lat="44.27864798265547" lon="9.574992005500615"><ele>653.0</ele><time>2026-04-26T07:45:00.999Z</time></trkpt><trkpt lat="44.27871348547958" lon="9.575142237384332"><ele>655.0</ele><time>2026-04-26T07:45:01.999Z</time></trkpt><trkpt lat="44.27878439976861" lon="9.575294757199117"><ele>657.0</ele><time>2026-04-26T07:45:02.999Z</time></trkpt><trkpt lat="44.27885188071839" lon="9.575447156753318"><ele>659.0</ele><time>2026-04-26T07:45:03.999Z</time></trkpt><trkpt lat="44.27891995421798" lon="9.575601811438432"><ele>661.0</ele><time>2026-04-26T07:45:04.999Z</time></trkpt><trkpt lat="44.278981595354914" lon="9.575759162190318"><ele>663.0</ele><time>2026-04-26T07:45:05.999Z</time></trkpt><trkpt lat="44.27904821967457" lon="9.575915692225292"><ele>665.0</ele><time>2026-04-26T07:45:06.999Z</time></trkpt><trkpt lat="44.27912474585579" lon="9.576066785858865"><ele>662.5</ele><time>2026-04-26T07:45:07.999Z</time></trkpt><trkpt lat="44.27918301191502" lon="9.576222052065868"><ele>660.0</ele><time>2026-04-26T07:45:08.999Z</time></trkpt><trkpt lat="44.27924524724712" lon="9.576369697503042"><ele>657.5</ele><time>2026-04-26T07:45:10Z</time></trkpt><trkpt lat="44.279305522578035" lon="9.576511001127358"><ele>655.0</ele><time>2026-04-26T07:45:11Z</time></trkpt><trkpt lat="44.27935617218056" lon="9.576635257473699"><ele>655.0</ele><time>2026-04-26T07:45:12Z</time></trkpt><trkpt lat="44.279401261594266" lon="9.576742875395784"><ele>655.0</ele><time>2026-04-26T07:45:13Z</time></trkpt><trkpt lat="44.279445683886415" lon="9.576833374591514"><ele>655.0</ele><time>2026-04-26T07:45:14Z</time></trkpt><trkpt lat="44.27947812489896" lon="9.576925063344083"><ele>655.0</ele><time>2026-04-26T07:45:15Z</time></trkpt><trkpt lat="44.279524679004886" lon="9.577031054282942"><ele>655.0</ele><time>2026-04-26T07:45:16Z</time></trkpt><trkpt lat="44.279550315268224" lon="9.577125418148151"><ele>655.0</ele><time>2026-04-26T07:45:17Z</time></trkpt><trkpt lat="44.279597164739286" lon="9.577236657772403"><ele>654.8333333333334</ele><time>2026-04-26T07:45:19Z</time></trkpt><trkpt lat="44.27963781510158" lon="9.57731875494289"><ele>654.6666666666667</ele><time>2026-04-26T07:45:42Z</time></trkpt><trkpt lat="44.27970310071302" lon="9.577439483222497"><ele>654.5</ele><time>2026-04-26T07:45:44Z</time></trkpt><trkpt lat="44.27975286079116" lon="9.577520952050344"><ele>654.3333333333334</ele><time>2026-04-26T07:45:45Z</time></trkpt><trkpt lat="44.27982254714528" lon="9.577598860023835"><ele>654.1666666666666</ele><time>2026-04-26T07:45:46Z</time></trkpt><trkpt lat="44.27990075953884" lon="9.577668967254215"><ele>654.0</ele><time>2026-04-26T07:45:47Z</time></trkpt><trkpt lat="44.27998866921635" lon="9.577719043505326"><ele>654.0</ele><time>2026-04-26T07:45:48Z</time></trkpt><trkpt lat="44.28007635221951" lon="9.577775788156861"><ele>654.0</ele><time>2026-04-26T07:45:49Z</time></trkpt><trkpt lat="44.280174915848185" lon="9.577802878060737"><ele>654.0</ele><time>2026-04-26T07:45:50Z</time></trkpt><trkpt lat="44.28027013463945" lon="9.577820850378991"><ele>654.0</ele><time>2026-04-26T07:45:51Z</time></trkpt><trkpt lat="44.2803616500296" lon="9.577863140877964"><ele>654.0</ele><time>2026-04-26T07:45:52Z</time></trkpt><trkpt lat="44.28044962280317" lon="9.577939094182009"><ele>654.0</ele><time>2026-04-26T07:45:53Z</time></trkpt><trkpt lat="44.28052903715246" lon="9.578038535429009"><ele>654.0</ele><time>2026-04-26T07:45:54Z</time></trkpt><trkpt lat="44.28060735822191" lon="9.578137292658019"><ele>654.0</ele><time>2026-04-26T07:45:55Z</time></trkpt><trkpt lat="44.280686563437484" lon="9.57823602604651"><ele>654.0</ele><time>2026-04-26T07:45:56Z</time></trkpt><trkpt lat="44.28075074413395" lon="9.57834186469295"><ele>654.0</ele><time>2026-04-26T07:45:57Z</time></trkpt><trkpt lat="44.28079965613575" lon="9.578416767211815"><ele>654.0</ele><time>2026-04-26T07:45:58Z</time></trkpt><trkpt lat="44.28081486175845" lon="9.57859725377316"><ele>654.0</ele><time>2026-04-26T07:46:00Z</time></trkpt><trkpt lat="44.28076139148518" lon="9.578675558319757"><ele>654.0</ele><time>2026-04-26T07:46:01Z</time></trkpt><trkpt lat="44.28068956062358" lon="9.578723078324414"><ele>654.0</ele><time>2026-04-26T07:46:02Z</time></trkpt><trkpt lat="44.2805715179502" lon="9.578625129077091"><ele>654.0</ele><time>2026-04-26T07:46:03Z</time></trkpt><trkpt lat="44.28047539686392" lon="9.578556057039197"><ele>652.0</ele><time>2026-04-26T07:46:04Z</time></trkpt><trkpt lat="44.280396199230914" lon="9.578467857643355"><ele>650.0</ele><time>2026-04-26T07:46:05Z</time></trkpt><trkpt lat="44.280300213741576" lon="9.578434081888771"><ele>648.0</ele><time>2026-04-26T07:46:06Z</time></trkpt><trkpt lat="44.28017710035107" lon="9.578466416811088"><ele>646.0</ele><time>2026-04-26T07:46:07Z</time></trkpt><trkpt lat="44.28004415932177" lon="9.578555729646517"><ele>646.0</ele><time>2026-04-26T07:46:08Z</time></trkpt><trkpt lat="44.27990938295595" lon="9.578653018022116"><ele>646.0</ele><time>2026-04-26T07:46:09Z</time></trkpt><trkpt lat="44.27977757858184" lon="9.578723200084607"><ele>646.0</ele><time>2026-04-26T07:46:10Z</time></trkpt><trkpt lat="44.27965700852906" lon="9.578768194936861"><ele>646.0</ele><time>2026-04-26T07:46:11Z</time></trkpt><trkpt lat="44.27954443813756" lon="9.578815894424322"><ele>643.5</ele><time>2026-04-26T07:46:12Z</time></trkpt><trkpt lat="44.27945360922029" lon="9.578901650019557"><ele>641.0</ele><time>2026-04-26T07:46:13Z</time></trkpt><trkpt lat="44.27939646324684" lon="9.57904201297698"><ele>638.5</ele><time>2026-04-26T07:46:14Z</time></trkpt><trkpt lat="44.27939484212005" lon="9.579209116295013"><ele>636.0</ele><time>2026-04-26T07:46:15Z</time></trkpt><trkpt lat="44.27943235151382" lon="9.579361052069384"><ele>636.0</ele><time>2026-04-26T07:46:16Z</time></trkpt><trkpt lat="44.279523355226026" lon="9.579463168403999"><ele>636.0</ele><time>2026-04-26T07:46:17Z</time></trkpt><trkpt lat="44.279634756388646" lon="9.579511336950912"><ele>636.0</ele><time>2026-04-26T07:46:17.999Z</time></trkpt><trkpt lat="44.27975350697818" lon="9.579490740037953"><ele>636.0</ele><time>2026-04-26T07:46:18.999Z</time></trkpt><trkpt lat="44.27986906808124" lon="9.579412732899694"><ele>635.25</ele><time>2026-04-26T07:46:19.999Z</time></trkpt><trkpt lat="44.279974465759935" lon="9.57935432670745"><ele>634.5</ele><time>2026-04-26T07:46:20.999Z</time></trkpt><trkpt lat="44.28008205507569" lon="9.57929744421355"><ele>633.75</ele><time>2026-04-26T07:46:21.999Z</time></trkpt><trkpt lat="44.28019904098598" lon="9.579280270202814"><ele>633.0</ele><time>2026-04-26T07:46:22.999Z</time></trkpt><trkpt lat="44.28032896617922" lon="9.579314463444184"><ele>633.0</ele><time>2026-04-26T07:46:23.999Z</time></trkpt><trkpt lat="44.28045311238432" lon="9.579389207224514"><ele>633.0</ele><time>2026-04-26T07:46:24.999Z</time></trkpt><trkpt lat="44.2805901912185" lon="9.579516271001095"><ele>633.0</ele><time>2026-04-26T07:46:25.999Z</time></trkpt><trkpt lat="44.28072920761165" lon="9.579681577175595"><ele>629.0</ele><time>2026-04-26T07:46:26.999Z</time></trkpt><trkpt lat="44.280874241179156" lon="9.579843820403347"><ele>625.0</ele><time>2026-04-26T07:46:27.999Z</time></trkpt><trkpt lat="44.28101058228188" lon="9.579998016806464"><ele>621.0</ele><time>2026-04-26T07:46:28.999Z</time></trkpt><trkpt lat="44.2811336106581" lon="9.580130289603266"><ele>621.0</ele><time>2026-04-26T07:46:29.999Z</time></trkpt><trkpt lat="44.28123040500816" lon="9.580247461952903"><ele>621.0</ele><time>2026-04-26T07:46:30.999Z</time></trkpt><trkpt lat="44.28132579999827" lon="9.580354051948381"><ele>621.0</ele><time>2026-04-26T07:46:31.999Z</time></trkpt><trkpt lat="44.28143883064443" lon="9.580426954559632"><ele>621.0</ele><time>2026-04-26T07:46:32.999Z</time></trkpt><trkpt lat="44.28156953611129" lon="9.58044046310936"><ele>616.75</ele><time>2026-04-26T07:46:33.999Z</time></trkpt><trkpt lat="44.28170595222493" lon="9.580433718434056"><ele>612.5</ele><time>2026-04-26T07:46:34.999Z</time></trkpt><trkpt lat="44.28184817411661" lon="9.580442581743407"><ele>608.25</ele><time>2026-04-26T07:46:35.999Z</time></trkpt><trkpt lat="44.281991998488856" lon="9.580451498531845"><ele>604.0</ele><time>2026-04-26T07:46:36.999Z</time></trkpt><trkpt lat="44.282130441119115" lon="9.580464890843862"><ele>604.0</ele><time>2026-04-26T07:46:37.999Z</time></trkpt><trkpt lat="44.282263036471065" lon="9.580479518531744"><ele>604.0</ele><time>2026-04-26T07:46:38.999Z</time></trkpt><trkpt lat="44.282381401595686" lon="9.58050018809032"><ele>604.0</ele><time>2026-04-26T07:46:39.999Z</time></trkpt><trkpt lat="44.28249339283473" lon="9.58057345179189"><ele>604.0</ele><time>2026-04-26T07:46:40.999Z</time></trkpt><trkpt lat="44.28257947827582" lon="9.58072488295277"><ele>603.5</ele><time>2026-04-26T07:46:41.999Z</time></trkpt><trkpt lat="44.28268705489319" lon="9.580846421986468"><ele>603.0</ele><time>2026-04-26T07:46:42.999Z</time></trkpt><trkpt lat="44.282800176076954" lon="9.58093852761533"><ele>602.5</ele><time>2026-04-26T07:46:43.999Z</time></trkpt><trkpt lat="44.28292064943066" lon="9.580992444935152"><ele>602.0</ele><time>2026-04-26T07:46:44.999Z</time></trkpt><trkpt lat="44.28300757605296" lon="9.581062999882331"><ele>602.0</ele><time>2026-04-26T07:46:45.999Z</time></trkpt><trkpt lat="44.28308006268394" lon="9.58114147606201"><ele>602.0</ele><time>2026-04-26T07:46:46.999Z</time></trkpt><trkpt lat="44.28311296375135" lon="9.581252449702667"><ele>602.0</ele><time>2026-04-26T07:46:47.999Z</time></trkpt><trkpt lat="44.28307921640786" lon="9.581363254704423"><ele>602.0</ele><time>2026-04-26T07:46:48.999Z</time></trkpt><trkpt lat="44.28301523794026" lon="9.581423242880533"><ele>602.0</ele><time>2026-04-26T07:46:49.999Z</time></trkpt><trkpt lat="44.28290134913135" lon="9.581427386175378"><ele>602.0</ele><time>2026-04-26T07:46:50.999Z</time></trkpt><trkpt lat="44.28280522311747" lon="9.581348992088984"><ele>602.0</ele><time>2026-04-26T07:46:51.999Z</time></trkpt><trkpt lat="44.2827481561231" lon="9.581197548629396"><ele>602.0</ele><time>2026-04-26T07:46:52.999Z</time></trkpt><trkpt lat="44.2826480705335" lon="9.581075021667461"><ele>602.0</ele><time>2026-04-26T07:46:53.999Z</time></trkpt><trkpt lat="44.282559466591955" lon="9.580959947885026"><ele>602.0</ele><time>2026-04-26T07:46:54.999Z</time></trkpt><trkpt lat="44.282452148398114" lon="9.58087918058657"><ele>602.0</ele><time>2026-04-26T07:46:55.999Z</time></trkpt><trkpt lat="44.28234047429794" lon="9.580830367377752"><ele>602.0</ele><time>2026-04-26T07:46:56.999Z</time></trkpt><trkpt lat="44.28221659538753" lon="9.580845811228217"><ele>602.0</ele><time>2026-04-26T07:46:57.999Z</time></trkpt><trkpt lat="44.28209542584412" lon="9.580919785417596"><ele>602.5</ele><time>2026-04-26T07:46:58.999Z</time></trkpt><trkpt lat="44.28196697857727" lon="9.581001075855895"><ele>603.0</ele><time>2026-04-26T07:46:59.999Z</time></trkpt><trkpt lat="44.28185704312827" lon="9.581070230046492"><ele>603.5</ele><time>2026-04-26T07:47:00.999Z</time></trkpt><trkpt lat="44.281786963767296" lon="9.58116700641782"><ele>604.0</ele><time>2026-04-26T07:47:01.999Z</time></trkpt><trkpt lat="44.281765660321106" lon="9.581303501286223"><ele>600.5</ele><time>2026-04-26T07:47:02.999Z</time></trkpt><trkpt lat="44.281793406016526" lon="9.581463668302701"><ele>597.0</ele><time>2026-04-26T07:47:03.999Z</time></trkpt><trkpt lat="44.28186345457688" lon="9.581611014482627"><ele>593.5</ele><time>2026-04-26T07:47:04.999Z</time></trkpt><trkpt lat="44.28193507523082" lon="9.58174273100667"><ele>590.0</ele><time>2026-04-26T07:47:05.999Z</time></trkpt><trkpt lat="44.28200157408784" lon="9.581902263115131"><ele>588.0</ele><time>2026-04-26T07:47:06.999Z</time></trkpt><trkpt lat="44.28204682244328" lon="9.582041863522594"><ele>586.0</ele><time>2026-04-26T07:47:07.999Z</time></trkpt><trkpt lat="44.28207383028869" lon="9.582186022196915"><ele>584.0</ele><time>2026-04-26T07:47:08.999Z</time></trkpt><trkpt lat="44.28211839665993" lon="9.58239361587273"><ele>582.0</ele><time>2026-04-26T07:47:09.999Z</time></trkpt><trkpt lat="44.28213319329394" lon="9.582572569944228"><ele>582.0</ele><time>2026-04-26T07:47:10.999Z</time></trkpt><trkpt lat="44.28214369043578" lon="9.58274814409509"><ele>582.0</ele><time>2026-04-26T07:47:11.999Z</time></trkpt><trkpt lat="44.282139887927144" lon="9.582916335741292"><ele>582.0</ele><time>2026-04-26T07:47:12.999Z</time></trkpt><trkpt lat="44.28208378791935" lon="9.583088377751016"><ele>582.0</ele><time>2026-04-26T07:47:13.999Z</time></trkpt><trkpt lat="44.28201295646682" lon="9.583251623901361"><ele>579.25</ele><time>2026-04-26T07:47:14.999Z</time></trkpt><trkpt lat="44.281916670159184" lon="9.58342407250967"><ele>576.5</ele><time>2026-04-26T07:47:16Z</time></trkpt><trkpt lat="44.281824176234494" lon="9.58358241676676"><ele>573.75</ele><time>2026-04-26T07:47:17Z</time></trkpt><trkpt lat="44.28174186872877" lon="9.583744776141646"><ele>571.0</ele><time>2026-04-26T07:47:18Z</time></trkpt><trkpt lat="44.28166709086192" lon="9.583900011487593"><ele>568.75</ele><time>2026-04-26T07:47:19Z</time></trkpt><trkpt lat="44.28159067092956" lon="9.584048128845389"><ele>566.5</ele><time>2026-04-26T07:47:20Z</time></trkpt><trkpt lat="44.28151709483007" lon="9.584194209403881"><ele>564.25</ele><time>2026-04-26T07:47:21Z</time></trkpt><trkpt lat="44.28144448591311" lon="9.584333889241657"><ele>562.0</ele><time>2026-04-26T07:47:22Z</time></trkpt><trkpt lat="44.28137786231134" lon="9.584462035676683"><ele>561.5</ele><time>2026-04-26T07:47:23Z</time></trkpt><trkpt lat="44.281340592160355" lon="9.58459456842409"><ele>561.0</ele><time>2026-04-26T07:47:24Z</time></trkpt><trkpt lat="44.28136039145177" lon="9.584752958018813"><ele>560.5</ele><time>2026-04-26T07:47:25Z</time></trkpt><trkpt lat="44.28142408550303" lon="9.584893671680693"><ele>560.0</ele><time>2026-04-26T07:47:26Z</time></trkpt><trkpt lat="44.28152568653191" lon="9.585027270049387"><ele>560.0</ele><time>2026-04-26T07:47:27Z</time></trkpt><trkpt lat="44.281636735996386" lon="9.585167660849129"><ele>560.0</ele><time>2026-04-26T07:47:28Z</time></trkpt><trkpt lat="44.281746010846504" lon="9.585318874553526"><ele>560.0</ele><time>2026-04-26T07:47:29Z</time></trkpt><trkpt lat="44.28184396266014" lon="9.585461057297815"><ele>560.0</ele><time>2026-04-26T07:47:30Z</time></trkpt><trkpt lat="44.28193747021143" lon="9.585595872537592"><ele>558.75</ele><time>2026-04-26T07:47:31Z</time></trkpt><trkpt lat="44.28202526559367" lon="9.585724981162182"><ele>557.5</ele><time>2026-04-26T07:47:32Z</time></trkpt><trkpt lat="44.28211216811085" lon="9.585857629851317"><ele>556.25</ele><time>2026-04-26T07:47:33Z</time></trkpt><trkpt lat="44.282197987951136" lon="9.585985801621833"><ele>555.0</ele><time>2026-04-26T07:47:34Z</time></trkpt><trkpt lat="44.282280811973564" lon="9.58610853141192"><ele>553.75</ele><time>2026-04-26T07:47:35Z</time></trkpt><trkpt lat="44.2823589275347" lon="9.586235243663983"><ele>552.5</ele><time>2026-04-26T07:47:36Z</time></trkpt><trkpt lat="44.282438469107895" lon="9.586349990775972"><ele>551.25</ele><time>2026-04-26T07:47:37Z</time></trkpt><trkpt lat="44.282519784091505" lon="9.586463089461567"><ele>550.0</ele><time>2026-04-26T07:47:38Z</time></trkpt><trkpt lat="44.28259625421388" lon="9.58656672418449"><ele>550.0</ele><time>2026-04-26T07:47:39Z</time></trkpt><trkpt lat="44.282637302415445" lon="9.586679319070434"><ele>550.0</ele><time>2026-04-26T07:47:40Z</time></trkpt><trkpt lat="44.28265196940198" lon="9.586838141475932"><ele>550.0</ele><time>2026-04-26T07:47:41Z</time></trkpt><trkpt lat="44.28260839775237" lon="9.586971607426248"><ele>550.0</ele><time>2026-04-26T07:47:42Z</time></trkpt><trkpt lat="44.282528256019766" lon="9.587094131603346"><ele>550.0</ele><time>2026-04-26T07:47:43Z</time></trkpt><trkpt lat="44.28243555191175" lon="9.587192151778751"><ele>547.75</ele><time>2026-04-26T07:47:44Z</time></trkpt><trkpt lat="44.28231727414263" lon="9.587227634823819"><ele>545.5</ele><time>2026-04-26T07:47:45Z</time></trkpt><trkpt lat="44.282219677834775" lon="9.58718836659651"><ele>543.25</ele><time>2026-04-26T07:47:46Z</time></trkpt><trkpt lat="44.28212099273734" lon="9.587101752969504"><ele>541.0</ele><time>2026-04-26T07:47:47Z</time></trkpt><trkpt lat="44.28204730364936" lon="9.586940204868881"><ele>539.5</ele><time>2026-04-26T07:47:48Z</time></trkpt><trkpt lat="44.281947369847884" lon="9.5868008453852"><ele>538.0</ele><time>2026-04-26T07:47:49Z</time></trkpt><trkpt lat="44.28185083254627" lon="9.5866529664515"><ele>536.5</ele><time>2026-04-26T07:47:50Z</time></trkpt><trkpt lat="44.28174617873983" lon="9.586517071560367"><ele>535.0</ele><time>2026-04-26T07:47:51Z</time></trkpt><trkpt lat="44.2816477345508" lon="9.586383028243235"><ele>535.0</ele><time>2026-04-26T07:47:52Z</time></trkpt><trkpt lat="44.2815523674169" lon="9.58625369601251"><ele>535.0</ele><time>2026-04-26T07:47:53Z</time></trkpt><trkpt lat="44.28146024316572" lon="9.586133349377125"><ele>535.0</ele><time>2026-04-26T07:47:54Z</time></trkpt><trkpt lat="44.28136482821852" lon="9.586059993490192"><ele>535.0</ele><time>2026-04-26T07:47:55Z</time></trkpt><trkpt lat="44.28125472332093" lon="9.586062348354986"><ele>535.75</ele><time>2026-04-26T07:47:56Z</time></trkpt><trkpt lat="44.28115819141182" lon="9.58614156711032"><ele>536.5</ele><time>2026-04-26T07:47:57Z</time></trkpt><trkpt lat="44.28107408776751" lon="9.586267634110692"><ele>537.25</ele><time>2026-04-26T07:47:58Z</time></trkpt><trkpt lat="44.28103205137134" lon="9.586445930277863"><ele>538.0</ele><time>2026-04-26T07:47:59Z</time></trkpt><trkpt lat="44.2810055615598" lon="9.58664149446878"><ele>538.0</ele><time>2026-04-26T07:48:00Z</time></trkpt><trkpt lat="44.280969390313125" lon="9.586826781032624"><ele>538.0</ele><time>2026-04-26T07:48:01Z</time></trkpt><trkpt lat="44.28092418552067" lon="9.587003291111598"><ele>538.0</ele><time>2026-04-26T07:48:02Z</time></trkpt><trkpt lat="44.280861648022544" lon="9.587167944141948"><ele>538.0</ele><time>2026-04-26T07:48:03Z</time></trkpt><trkpt lat="44.28076081805733" lon="9.587295032445962"><ele>536.75</ele><time>2026-04-26T07:48:04Z</time></trkpt><trkpt lat="44.28066137660011" lon="9.587432237602206"><ele>535.5</ele><time>2026-04-26T07:48:05Z</time></trkpt><trkpt lat="44.28055116453449" lon="9.587541623506992"><ele>534.25</ele><time>2026-04-26T07:48:06Z</time></trkpt><trkpt lat="44.28045102082452" lon="9.587658981696968"><ele>533.0</ele><time>2026-04-26T07:48:07Z</time></trkpt><trkpt lat="44.28038177744362" lon="9.58781265141127"><ele>531.0</ele><time>2026-04-26T07:48:08Z</time></trkpt><trkpt lat="44.280325441595636" lon="9.587986989030412"><ele>529.0</ele><time>2026-04-26T07:48:09Z</time></trkpt><trkpt lat="44.280271675360574" lon="9.588157978662531"><ele>527.0</ele><time>2026-04-26T07:48:10Z</time></trkpt><trkpt lat="44.28021218533938" lon="9.58832435130329"><ele>525.0</ele><time>2026-04-26T07:48:11Z</time></trkpt><trkpt lat="44.28015216816944" lon="9.588488208953132"><ele>525.0</ele><time>2026-04-26T07:48:12Z</time></trkpt><trkpt lat="44.28010725799923" lon="9.588652609138467"><ele>525.0</ele><time>2026-04-26T07:48:13Z</time></trkpt><trkpt lat="44.2800826729057" lon="9.588825059672935"><ele>525.0</ele><time>2026-04-26T07:48:14Z</time></trkpt><trkpt lat="44.280072441637" lon="9.588996079349666"><ele>525.0</ele><time>2026-04-26T07:48:15Z</time></trkpt><trkpt lat="44.28005831818996" lon="9.589171796076226"><ele>522.5</ele><time>2026-04-26T07:48:16Z</time></trkpt><trkpt lat="44.28003266699263" lon="9.589340422020843"><ele>520.0</ele><time>2026-04-26T07:48:17Z</time></trkpt><trkpt lat="44.27997468788301" lon="9.589506994534803"><ele>517.5</ele><time>2026-04-26T07:48:18Z</time></trkpt><trkpt lat="44.279863015241034" lon="9.589611322475998"><ele>515.0</ele><time>2026-04-26T07:48:19Z</time></trkpt><trkpt lat="44.27974316447763" lon="9.589744196858495"><ele>513.75</ele><time>2026-04-26T07:48:20Z</time></trkpt><trkpt lat="44.27962222928948" lon="9.589859378102433"><ele>512.5</ele><time>2026-04-26T07:48:21Z</time></trkpt><trkpt lat="44.27951219299564" lon="9.589997472342878"><ele>511.25</ele><time>2026-04-26T07:48:21.999Z</time></trkpt><trkpt lat="44.27939708730238" lon="9.59012268843144"><ele>510.0</ele><time>2026-04-26T07:48:22.999Z</time></trkpt><trkpt lat="44.27928412507127" lon="9.590252252006563"><ele>508.75</ele><time>2026-04-26T07:48:23.999Z</time></trkpt><trkpt lat="44.27917254170661" lon="9.590382038761263"><ele>507.5</ele><time>2026-04-26T07:48:24.999Z</time></trkpt><trkpt lat="44.279060381551666" lon="9.590510715391911"><ele>506.25</ele><time>2026-04-26T07:48:25.999Z</time></trkpt><trkpt lat="44.278950739608675" lon="9.590633903378558"><ele>505.0</ele><time>2026-04-26T07:48:26.999Z</time></trkpt><trkpt lat="44.278842172487764" lon="9.590752675990275"><ele>505.0</ele><time>2026-04-26T07:48:27.999Z</time></trkpt><trkpt lat="44.278727373574235" lon="9.59086173652895"><ele>505.0</ele><time>2026-04-26T07:48:28.999Z</time></trkpt><trkpt lat="44.27860056794412" lon="9.590948194961863"><ele>505.0</ele><time>2026-04-26T07:48:29.999Z</time></trkpt><trkpt lat="44.278480669628685" lon="9.59104607185631"><ele>505.0</ele><time>2026-04-26T07:48:30.999Z</time></trkpt><trkpt lat="44.278379937985214" lon="9.591185392578101"><ele>499.5</ele><time>2026-04-26T07:48:31.999Z</time></trkpt><trkpt lat="44.27830914835855" lon="9.59136262264359"><ele>494.0</ele><time>2026-04-26T07:48:32.999Z</time></trkpt><trkpt lat="44.27825168005908" lon="9.591551754144033"><ele>488.5</ele><time>2026-04-26T07:48:33.999Z</time></trkpt><trkpt lat="44.27818642074499" lon="9.591734737721332"><ele>483.0</ele><time>2026-04-26T07:48:34.999Z</time></trkpt><trkpt lat="44.2781161104132" lon="9.591908277427589"><ele>486.25</ele><time>2026-04-26T07:48:35.999Z</time></trkpt><trkpt lat="44.278041193245315" lon="9.592078704622072"><ele>489.5</ele><time>2026-04-26T07:48:36.999Z</time></trkpt><trkpt lat="44.27795393027808" lon="9.592240957343796"><ele>492.75</ele><time>2026-04-26T07:48:37.999Z</time></trkpt><trkpt lat="44.277850534576196" lon="9.592405054431264"><ele>496.0</ele><time>2026-04-26T07:48:38.999Z</time></trkpt><trkpt lat="44.2777284104366" lon="9.592580774038169"><ele>496.0</ele><time>2026-04-26T07:48:39.999Z</time></trkpt><trkpt lat="44.277614280806056" lon="9.592759827399199"><ele>496.0</ele><time>2026-04-26T07:48:40.999Z</time></trkpt><trkpt lat="44.27750956900643" lon="9.592926151564061"><ele>496.0</ele><time>2026-04-26T07:48:41.999Z</time></trkpt><trkpt lat="44.277408906093264" lon="9.593093154428676"><ele>495.25</ele><time>2026-04-26T07:48:42.999Z</time></trkpt><trkpt lat="44.27732218411343" lon="9.593266268302315"><ele>494.5</ele><time>2026-04-26T07:48:43.999Z</time></trkpt><trkpt lat="44.277271232557524" lon="9.593462383863494"><ele>493.75</ele><time>2026-04-26T07:48:44.999Z</time></trkpt><trkpt lat="44.27725579099528" lon="9.593659286109698"><ele>493.0</ele><time>2026-04-26T07:48:45.999Z</time></trkpt><trkpt lat="44.27721850636955" lon="9.593834971744114"><ele>489.5</ele><time>2026-04-26T07:48:46.999Z</time></trkpt><trkpt lat="44.277144516847905" lon="9.593982357121343"><ele>486.0</ele><time>2026-04-26T07:48:47.999Z</time></trkpt><trkpt lat="44.27703431182943" lon="9.59410991627177"><ele>482.5</ele><time>2026-04-26T07:48:48.999Z</time></trkpt><trkpt lat="44.27692017439852" lon="9.594220923057945"><ele>479.0</ele><time>2026-04-26T07:48:49.999Z</time></trkpt><trkpt lat="44.27681805763813" lon="9.594352412652048"><ele>479.0</ele><time>2026-04-26T07:48:50.999Z</time></trkpt><trkpt lat="44.276712142835564" lon="9.594483970967099"><ele>479.0</ele><time>2026-04-26T07:48:51.999Z</time></trkpt><trkpt lat="44.276605419774576" lon="9.594614838292788"><ele>479.0</ele><time>2026-04-26T07:48:52.999Z</time></trkpt><trkpt lat="44.27651187228543" lon="9.59474612736902"><ele>479.0</ele><time>2026-04-26T07:48:53.999Z</time></trkpt><trkpt lat="44.27640635324207" lon="9.594864092720229"><ele>477.75</ele><time>2026-04-26T07:48:54.999Z</time></trkpt><trkpt lat="44.27631129210396" lon="9.595001706116008"><ele>476.5</ele><time>2026-04-26T07:48:55.999Z</time></trkpt><trkpt lat="44.27623070307302" lon="9.595142175281758"><ele>475.25</ele><time>2026-04-26T07:48:56.999Z</time></trkpt><trkpt lat="44.276176880871034" lon="9.595304655205048"><ele>474.0</ele><time>2026-04-26T07:48:57.999Z</time></trkpt><trkpt lat="44.2761370168526" lon="9.595455726557411"><ele>469.5</ele><time>2026-04-26T07:48:58.999Z</time></trkpt><trkpt lat="44.27606592670021" lon="9.5956103480023"><ele>465.0</ele><time>2026-04-26T07:48:59.999Z</time></trkpt><trkpt lat="44.275967481039125" lon="9.59573080606827"><ele>460.5</ele><time>2026-04-26T07:49:00.999Z</time></trkpt><trkpt lat="44.27585538528969" lon="9.595826661394806"><ele>456.0</ele><time>2026-04-26T07:49:01.999Z</time></trkpt><trkpt lat="44.27572847714506" lon="9.595900513578348"><ele>455.75</ele><time>2026-04-26T07:49:02.999Z</time></trkpt><trkpt lat="44.27559851921195" lon="9.595983688220459"><ele>455.5</ele><time>2026-04-26T07:49:03.999Z</time></trkpt><trkpt lat="44.275484530388226" lon="9.596082476127545"><ele>455.25</ele><time>2026-04-26T07:49:04.999Z</time></trkpt><trkpt lat="44.27538637571246" lon="9.596208883644794"><ele>455.0</ele><time>2026-04-26T07:49:05.999Z</time></trkpt><trkpt lat="44.27531453970017" lon="9.59637147349086"><ele>452.0</ele><time>2026-04-26T07:49:06.999Z</time></trkpt><trkpt lat="44.27525961515873" lon="9.596535672735113"><ele>449.0</ele><time>2026-04-26T07:49:07.999Z</time></trkpt><trkpt lat="44.27520870680519" lon="9.596700664418107"><ele>446.0</ele><time>2026-04-26T07:49:08.999Z</time></trkpt><trkpt lat="44.275155398654036" lon="9.596856391870173"><ele>443.0</ele><time>2026-04-26T07:49:09.999Z</time></trkpt><trkpt lat="44.27511639651897" lon="9.597021765632604"><ele>441.2</ele><time>2026-04-26T07:49:10.999Z</time></trkpt><trkpt lat="44.275107805144245" lon="9.597200099965614"><ele>439.4</ele><time>2026-04-26T07:49:11.999Z</time></trkpt><trkpt lat="44.27512514547085" lon="9.597366506304356"><ele>437.59999999999997</ele><time>2026-04-26T07:49:12.999Z</time></trkpt><trkpt lat="44.27514040774192" lon="9.597517314052"><ele>435.79999999999995</ele><time>2026-04-26T07:49:13.999Z</time></trkpt><trkpt lat="44.27513743058658" lon="9.597641750974741"><ele>434.0</ele><time>2026-04-26T07:49:14.999Z</time></trkpt><trkpt lat="44.2751194830584" lon="9.597756356137326"><ele>434.6</ele><time>2026-04-26T07:49:15.999Z</time></trkpt><trkpt lat="44.27508345018471" lon="9.597880604500464"><ele>435.2</ele><time>2026-04-26T07:49:16.999Z</time></trkpt><trkpt lat="44.275030693576674" lon="9.597997966137848"><ele>435.80000000000007</ele><time>2026-04-26T07:49:17.999Z</time></trkpt><trkpt lat="44.27498113878705" lon="9.598108505722742"><ele>436.40000000000003</ele><time>2026-04-26T07:49:18.999Z</time></trkpt><trkpt lat="44.27493615389528" lon="9.598223562838562"><ele>437.0</ele><time>2026-04-26T07:49:19.999Z</time></trkpt><trkpt lat="44.27488719702128" lon="9.598346350879297"><ele>437.0</ele><time>2026-04-26T07:49:20.999Z</time></trkpt><trkpt lat="44.27483375410387" lon="9.598469649642126"><ele>437.00000000000006</ele><time>2026-04-26T07:49:22Z</time></trkpt><trkpt lat="44.27478449116131" lon="9.598594335614134"><ele>437.00000000000006</ele><time>2026-04-26T07:49:23Z</time></trkpt><trkpt lat="44.27473403992857" lon="9.5987170206784"><ele>437.0</ele><time>2026-04-26T07:49:24Z</time></trkpt><trkpt lat="44.27468816453967" lon="9.598822664570969"><ele>437.0</ele><time>2026-04-26T07:49:25Z</time></trkpt><trkpt lat="44.27463619931192" lon="9.59891782493416"><ele>437.16666666666663</ele><time>2026-04-26T07:49:27Z</time></trkpt><trkpt lat="44.274600064424575" lon="9.599040207454836"><ele>437.3333333333333</ele><time>2026-04-26T07:49:41Z</time></trkpt><trkpt lat="44.27457536502488" lon="9.599124105527846"><ele>437.5</ele><time>2026-04-26T07:49:42Z</time></trkpt><trkpt lat="44.27454969554347" lon="9.599236926739822"><ele>437.66666666666663</ele><time>2026-04-26T07:49:43Z</time></trkpt><trkpt lat="44.27453522845624" lon="9.599363390415057"><ele>437.8333333333333</ele><time>2026-04-26T07:49:44Z</time></trkpt><trkpt lat="44.27453990148451" lon="9.599503988879063"><ele>438.0</ele><time>2026-04-26T07:49:45Z</time></trkpt><trkpt lat="44.27454962444942" lon="9.599649953115954"><ele>440.75</ele><time>2026-04-26T07:49:46Z</time></trkpt><trkpt lat="44.274555101959" lon="9.599801973601481"><ele>443.5</ele><time>2026-04-26T07:49:47Z</time></trkpt><trkpt lat="44.2745643845028" lon="9.599964183706973"><ele>446.25</ele><time>2026-04-26T07:49:48Z</time></trkpt><trkpt lat="44.27457107443917" lon="9.600149179970254"><ele>449.0</ele><time>2026-04-26T07:49:49Z</time></trkpt><trkpt lat="44.27457371084389" lon="9.600332175610852"><ele>449.75</ele><time>2026-04-26T07:49:50Z</time></trkpt><trkpt lat="44.2745795590931" lon="9.600504173771697"><ele>450.5</ele><time>2026-04-26T07:49:51Z</time></trkpt><trkpt lat="44.27460771004464" lon="9.600660564014124"><ele>451.25</ele><time>2026-04-26T07:49:52Z</time></trkpt><trkpt lat="44.27466677013625" lon="9.600805278206229"><ele>452.0</ele><time>2026-04-26T07:49:53Z</time></trkpt><trkpt lat="44.274730550901864" lon="9.600932705947598"><ele>452.0</ele><time>2026-04-26T07:49:54Z</time></trkpt><trkpt lat="44.27476945242465" lon="9.601045299069435"><ele>452.00000000000006</ele><time>2026-04-26T07:49:55Z</time></trkpt><trkpt lat="44.27477623227438" lon="9.60118700577692"><ele>452.00000000000006</ele><time>2026-04-26T07:49:56Z</time></trkpt><trkpt lat="44.27474495424635" lon="9.601332867053983"><ele>452.0</ele><time>2026-04-26T07:49:57Z</time></trkpt><trkpt lat="44.27467939239394" lon="9.601478859590046"><ele>452.0</ele><time>2026-04-26T07:49:58Z</time></trkpt><trkpt lat="44.27460096592867" lon="9.601618184757227"><ele>450.25</ele><time>2026-04-26T07:49:59Z</time></trkpt><trkpt lat="44.274508584424396" lon="9.601754973444944"><ele>448.5</ele><time>2026-04-26T07:50:00Z</time></trkpt><trkpt lat="44.27443578485799" lon="9.60190433312439"><ele>446.75</ele><time>2026-04-26T07:50:01Z</time></trkpt><trkpt lat="44.27439106131482" lon="9.602058870700779"><ele>445.0</ele><time>2026-04-26T07:50:02Z</time></trkpt><trkpt lat="44.27438115513787" lon="9.602221347654178"><ele>441.5</ele><time>2026-04-26T07:50:03Z</time></trkpt><trkpt lat="44.27440906738363" lon="9.602411956432821"><ele>438.0</ele><time>2026-04-26T07:50:04Z</time></trkpt><trkpt lat="44.274446788909444" lon="9.60259348295925"><ele>434.5</ele><time>2026-04-26T07:50:05Z</time></trkpt><trkpt lat="44.27447331962443" lon="9.602770996112218"><ele>431.0</ele><time>2026-04-26T07:50:06Z</time></trkpt><trkpt lat="44.274494815988376" lon="9.602939632769719"><ele>428.0</ele><time>2026-04-26T07:50:07Z</time></trkpt><trkpt lat="44.274507636005545" lon="9.603101086134373"><ele>425.0</ele><time>2026-04-26T07:50:08Z</time></trkpt><trkpt lat="44.27451320179916" lon="9.603256548806938"><ele>422.0</ele><time>2026-04-26T07:50:09Z</time></trkpt><trkpt lat="44.274491158379526" lon="9.603412781074024"><ele>419.0</ele><time>2026-04-26T07:50:10Z</time></trkpt><trkpt lat="44.27441917455349" lon="9.603552237093144"><ele>419.0</ele><time>2026-04-26T07:50:11Z</time></trkpt><trkpt lat="44.27431164201936" lon="9.603641102160774"><ele>419.0</ele><time>2026-04-26T07:50:12Z</time></trkpt><trkpt lat="44.274184744845776" lon="9.603698107709832"><ele>419.0</ele><time>2026-04-26T07:50:13Z</time></trkpt><trkpt lat="44.274068279158016" lon="9.6037643474587"><ele>419.0</ele><time>2026-04-26T07:50:14Z</time></trkpt><trkpt lat="44.27396296081483" lon="9.603840930558691"><ele>416.75</ele><time>2026-04-26T07:50:15Z</time></trkpt><trkpt lat="44.2738623522434" lon="9.60392086727272"><ele>414.5</ele><time>2026-04-26T07:50:16Z</time></trkpt><trkpt lat="44.273753981856885" lon="9.603996993803767"><ele>412.25</ele><time>2026-04-26T07:50:17Z</time></trkpt><trkpt lat="44.273648917154524" lon="9.604071848847468"><ele>410.0</ele><time>2026-04-26T07:50:17.999Z</time></trkpt><trkpt lat="44.27354230975977" lon="9.604156475109276"><ele>410.0</ele><time>2026-04-26T07:50:18.999Z</time></trkpt><trkpt lat="44.273441490348326" lon="9.604234986634228"><ele>410.0</ele><time>2026-04-26T07:50:19.999Z</time></trkpt><trkpt lat="44.27334667216732" lon="9.604319618579357"><ele>410.0</ele><time>2026-04-26T07:50:20.999Z</time></trkpt><trkpt lat="44.27326016918733" lon="9.604416564405785"><ele>410.0</ele><time>2026-04-26T07:50:21.999Z</time></trkpt><trkpt lat="44.27318136144065" lon="9.60452659797057"><ele>407.4</ele><time>2026-04-26T07:50:22.999Z</time></trkpt><trkpt lat="44.273107629262846" lon="9.604648532020201"><ele>404.8</ele><time>2026-04-26T07:50:23.999Z</time></trkpt><trkpt lat="44.273037009325016" lon="9.60476816425297"><ele>402.20000000000005</ele><time>2026-04-26T07:50:24.999Z</time></trkpt><trkpt lat="44.272969600364696" lon="9.60488774976996"><ele>399.6</ele><time>2026-04-26T07:50:25.999Z</time></trkpt><trkpt lat="44.272897021113884" lon="9.604996230676072"><ele>397.0</ele><time>2026-04-26T07:50:26.999Z</time></trkpt><trkpt lat="44.272828260070845" lon="9.605094540350573"><ele>397.0</ele><time>2026-04-26T07:50:27.999Z</time></trkpt><trkpt lat="44.272747980329754" lon="9.605180034543954"><ele>397.0</ele><time>2026-04-26T07:50:28.999Z</time></trkpt><trkpt lat="44.272669409053094" lon="9.605279152903117"><ele>397.0</ele><time>2026-04-26T07:50:29.999Z</time></trkpt><trkpt lat="44.27259073718419" lon="9.605385130444834"><ele>397.0</ele><time>2026-04-26T07:50:30.999Z</time></trkpt><trkpt lat="44.27251320526817" lon="9.60549295227189"><ele>397.0</ele><time>2026-04-26T07:50:31.999Z</time></trkpt><trkpt lat="44.272431430037045" lon="9.605583523226876"><ele>397.75</ele><time>2026-04-26T07:50:32.999Z</time></trkpt><trkpt lat="44.27236296038283" lon="9.605698892472935"><ele>398.5</ele><time>2026-04-26T07:50:33.999Z</time></trkpt><trkpt lat="44.272298721156176" lon="9.605836382820124"><ele>399.25</ele><time>2026-04-26T07:50:34.999Z</time></trkpt><trkpt lat="44.27223621792004" lon="9.605970056122269"><ele>400.0</ele><time>2026-04-26T07:50:35.999Z</time></trkpt><trkpt lat="44.27218825772177" lon="9.606116855484508"><ele>395.0</ele><time>2026-04-26T07:50:36.999Z</time></trkpt><trkpt lat="44.27217802285946" lon="9.606304812469203"><ele>390.0</ele><time>2026-04-26T07:50:37.999Z</time></trkpt><trkpt lat="44.27216879044962" lon="9.606478749654809"><ele>385.0</ele><time>2026-04-26T07:50:38.999Z</time></trkpt><trkpt lat="44.272155223136025" lon="9.606655235921753"><ele>380.0</ele><time>2026-04-26T07:50:39.999Z</time></trkpt><trkpt lat="44.27213615874274" lon="9.606832817470785"><ele>378.5</ele><time>2026-04-26T07:50:40.999Z</time></trkpt><trkpt lat="44.272117696906186" lon="9.607016459108412"><ele>377.0</ele><time>2026-04-26T07:50:41.999Z</time></trkpt><trkpt lat="44.272100829694274" lon="9.607192570807747"><ele>375.5</ele><time>2026-04-26T07:50:42.999Z</time></trkpt><trkpt lat="44.27208369300811" lon="9.607364311138353"><ele>374.0</ele><time>2026-04-26T07:50:43.999Z</time></trkpt><trkpt lat="44.27206831193805" lon="9.607526295795576"><ele>374.0</ele><time>2026-04-26T07:50:44.999Z</time></trkpt><trkpt lat="44.27205163420644" lon="9.607679798993335"><ele>374.0</ele><time>2026-04-26T07:50:45.999Z</time></trkpt><trkpt lat="44.27203705516304" lon="9.607845360153398"><ele>374.0</ele><time>2026-04-26T07:50:46.999Z</time></trkpt><trkpt lat="44.27201560443724" lon="9.608009650793374"><ele>374.0</ele><time>2026-04-26T07:50:47.999Z</time></trkpt><trkpt lat="44.27200126909759" lon="9.608184366191885"><ele>373.25</ele><time>2026-04-26T07:50:48.999Z</time></trkpt><trkpt lat="44.27199230710499" lon="9.608357647733591"><ele>372.5</ele><time>2026-04-26T07:50:49.999Z</time></trkpt><trkpt lat="44.272000963542595" lon="9.60852993547046"><ele>371.75</ele><time>2026-04-26T07:50:50.999Z</time></trkpt><trkpt lat="44.2720239711489" lon="9.608691729653335"><ele>371.0</ele><time>2026-04-26T07:50:51.999Z</time></trkpt><trkpt lat="44.272063133942176" lon="9.608837384796592"><ele>370.6</ele><time>2026-04-26T07:50:52.999Z</time></trkpt><trkpt lat="44.27210125846147" lon="9.60896088517375"><ele>370.20000000000005</ele><time>2026-04-26T07:50:53.999Z</time></trkpt><trkpt lat="44.27215104814205" lon="9.609099240811677"><ele>369.79999999999995</ele><time>2026-04-26T07:50:54.999Z</time></trkpt><trkpt lat="44.2721905948415" lon="9.609254417174704"><ele>369.4</ele><time>2026-04-26T07:50:55.999Z</time></trkpt><trkpt lat="44.272202701157816" lon="9.60941751344648"><ele>369.0</ele><time>2026-04-26T07:50:56.999Z</time></trkpt><trkpt lat="44.27219175908861" lon="9.609590979537417"><ele>368.75</ele><time>2026-04-26T07:50:57.999Z</time></trkpt><trkpt lat="44.272177461028335" lon="9.609775077114325"><ele>368.5</ele><time>2026-04-26T07:50:58.999Z</time></trkpt><trkpt lat="44.272147152008365" lon="9.609983115255217"><ele>368.25</ele><time>2026-04-26T07:50:59.999Z</time></trkpt><trkpt lat="44.272115229915975" lon="9.610189936005035"><ele>368.0</ele><time>2026-04-26T07:51:00.999Z</time></trkpt><trkpt lat="44.27209080264294" lon="9.610372781866351"><ele>367.25</ele><time>2026-04-26T07:51:01.999Z</time></trkpt><trkpt lat="44.2720728913049" lon="9.610554947825934"><ele>366.5</ele><time>2026-04-26T07:51:02.999Z</time></trkpt><trkpt lat="44.27205285757015" lon="9.610727909548988"><ele>365.75</ele><time>2026-04-26T07:51:03.999Z</time></trkpt><trkpt lat="44.272030269977805" lon="9.610899517451653"><ele>365.0</ele><time>2026-04-26T07:51:04.999Z</time></trkpt><trkpt lat="44.2720040464785" lon="9.611053480854405"><ele>365.8</ele><time>2026-04-26T07:51:05.999Z</time></trkpt><trkpt lat="44.27197513144955" lon="9.611206523047288"><ele>366.6</ele><time>2026-04-26T07:51:06.999Z</time></trkpt><trkpt lat="44.27194060841945" lon="9.611348075645864"><ele>367.4</ele><time>2026-04-26T07:51:07.999Z</time></trkpt><trkpt lat="44.27190486694844" lon="9.611486595540514"><ele>368.2</ele><time>2026-04-26T07:51:08.999Z</time></trkpt><trkpt lat="44.27185592415839" lon="9.611613932267035"><ele>369.0</ele><time>2026-04-26T07:51:09.999Z</time></trkpt><trkpt lat="44.271792556344586" lon="9.611744632456903"><ele>369.0</ele><time>2026-04-26T07:51:10.999Z</time></trkpt><trkpt lat="44.27172191773284" lon="9.61187418161012"><ele>369.0</ele><time>2026-04-26T07:51:11.999Z</time></trkpt><trkpt lat="44.271642834056955" lon="9.611990492086125"><ele>369.0</ele><time>2026-04-26T07:51:12.999Z</time></trkpt><trkpt lat="44.2715474677267" lon="9.612096698277764"><ele>369.0</ele><time>2026-04-26T07:51:13.999Z</time></trkpt><trkpt lat="44.27144475105967" lon="9.612191526594223"><ele>368.0</ele><time>2026-04-26T07:51:14.999Z</time></trkpt><trkpt lat="44.27135327421976" lon="9.612283268072352"><ele>367.0</ele><time>2026-04-26T07:51:15.999Z</time></trkpt><trkpt lat="44.271244090227846" lon="9.61239200552637"><ele>366.0</ele><time>2026-04-26T07:51:16.999Z</time></trkpt><trkpt lat="44.27113524654046" lon="9.612503297498813"><ele>365.0</ele><time>2026-04-26T07:51:17.999Z</time></trkpt><trkpt lat="44.27101668008238" lon="9.612660472516858"><ele>365.0</ele><time>2026-04-26T07:51:18.999Z</time></trkpt><trkpt lat="44.27090474191607" lon="9.61280872198415"><ele>365.0</ele><time>2026-04-26T07:51:19.999Z</time></trkpt><trkpt lat="44.270804481359505" lon="9.612934096279913"><ele>365.0</ele><time>2026-04-26T07:51:20.999Z</time></trkpt><trkpt lat="44.270725149519144" lon="9.613066724226439"><ele>365.0</ele><time>2026-04-26T07:51:21.999Z</time></trkpt><trkpt lat="44.270659046981386" lon="9.613204776684665"><ele>364.4</ele><time>2026-04-26T07:51:22.999Z</time></trkpt><trkpt lat="44.27059115646583" lon="9.613325442210042"><ele>363.8</ele><time>2026-04-26T07:51:23.999Z</time></trkpt><trkpt lat="44.270540609918854" lon="9.613447328878085"><ele>363.20000000000005</ele><time>2026-04-26T07:51:24.999Z</time></trkpt><trkpt lat="44.27050052003258" lon="9.613570141352417"><ele>362.6</ele><time>2026-04-26T07:51:25.999Z</time></trkpt><trkpt lat="44.270487678777634" lon="9.613694281576748"><ele>362.0</ele><time>2026-04-26T07:51:26.999Z</time></trkpt><trkpt lat="44.27048673282021" lon="9.61384183186765"><ele>361.33333333333337</ele><time>2026-04-26T07:51:28Z</time></trkpt><trkpt lat="44.27050052818735" lon="9.61398916847654"><ele>360.6666666666667</ele><time>2026-04-26T07:51:29Z</time></trkpt><trkpt lat="44.27052009675827" lon="9.614114288868365"><ele>360.0</ele><time>2026-04-26T07:51:30Z</time></trkpt><trkpt lat="44.270518953705114" lon="9.614214393460895"><ele>359.3333333333333</ele><time>2026-04-26T07:51:32Z</time></trkpt><trkpt lat="44.27053971808546" lon="9.614325147161848"><ele>358.66666666666663</ele><time>2026-04-26T07:51:34Z</time></trkpt><trkpt lat="44.270550224449565" lon="9.614415654338204"><ele>358.0</ele><time>2026-04-26T07:51:35Z</time></trkpt><trkpt lat="44.27055470106138" lon="9.614520550377746"><ele>358.0</ele><time>2026-04-26T07:51:36Z</time></trkpt><trkpt lat="44.27055823168155" lon="9.614646577541048"><ele>358.0</ele><time>2026-04-26T07:51:37Z</time></trkpt><trkpt lat="44.27056454948875" lon="9.614778942490508"><ele>358.0</ele><time>2026-04-26T07:51:38Z</time></trkpt><trkpt lat="44.27055160488173" lon="9.614912572114635"><ele>358.0</ele><time>2026-04-26T07:51:39Z</time></trkpt><trkpt lat="44.270531438742736" lon="9.615063780356465"><ele>358.0</ele><time>2026-04-26T07:51:40Z</time></trkpt><trkpt lat="44.27049106756745" lon="9.615208564114374"><ele>357.79999999999995</ele><time>2026-04-26T07:51:41Z</time></trkpt><trkpt lat="44.27044535905833" lon="9.615334250174746"><ele>357.6</ele><time>2026-04-26T07:51:42Z</time></trkpt><trkpt lat="44.27038684218562" lon="9.615468942186178"><ele>357.4</ele><time>2026-04-26T07:51:43Z</time></trkpt><trkpt lat="44.27032570005693" lon="9.615583810514005"><ele>357.20000000000005</ele><time>2026-04-26T07:51:44Z</time></trkpt><trkpt lat="44.27025161827259" lon="9.615686822418922"><ele>357.0</ele><time>2026-04-26T07:51:45Z</time></trkpt><trkpt lat="44.27018739242061" lon="9.615748292079378"><ele>357.0</ele><time>2026-04-26T07:51:46Z</time></trkpt><trkpt lat="44.2700953305806" lon="9.615802524360815"><ele>357.0</ele><time>2026-04-26T07:51:48Z</time></trkpt><trkpt lat="44.27001456524943" lon="9.615842609498836"><ele>357.0</ele><time>2026-04-26T07:51:51Z</time></trkpt><trkpt lat="44.26992494485992" lon="9.615950298359282"><ele>357.0</ele><time>2026-04-26T07:51:59Z</time></trkpt><trkpt lat="44.269859569239664" lon="9.616020881364925"><ele>357.0</ele><time>2026-04-26T07:52:00Z</time></trkpt><trkpt lat="44.269774862503226" lon="9.616090281228063"><ele>355.40000000000003</ele><time>2026-04-26T07:52:01Z</time></trkpt><trkpt lat="44.26970490648456" lon="9.616162476348434"><ele>353.8</ele><time>2026-04-26T07:52:02Z</time></trkpt><trkpt lat="44.26963339549847" lon="9.616227162654207"><ele>352.2</ele><time>2026-04-26T07:52:03Z</time></trkpt><trkpt lat="44.2695308751736" lon="9.616318882481872"><ele>350.6</ele><time>2026-04-26T07:52:04Z</time></trkpt><trkpt lat="44.26944345288899" lon="9.616426123761105"><ele>349.0</ele><time>2026-04-26T07:52:05Z</time></trkpt><trkpt lat="44.26936136810638" lon="9.61654432922396"><ele>349.0</ele><time>2026-04-26T07:52:06Z</time></trkpt><trkpt lat="44.26930967322324" lon="9.61667411174194"><ele>349.0</ele><time>2026-04-26T07:52:07Z</time></trkpt><trkpt lat="44.269262176763235" lon="9.616808109461065"><ele>349.0</ele><time>2026-04-26T07:52:08Z</time></trkpt><trkpt lat="44.269232064812314" lon="9.616954066422961"><ele>349.0</ele><time>2026-04-26T07:52:09Z</time></trkpt><trkpt lat="44.26921441683629" lon="9.617103379430553"><ele>349.0</ele><time>2026-04-26T07:52:10Z</time></trkpt><trkpt lat="44.269203539641744" lon="9.61725764547256"><ele>346.75</ele><time>2026-04-26T07:52:11Z</time></trkpt><trkpt lat="44.26919747557555" lon="9.617425105519208"><ele>344.5</ele><time>2026-04-26T07:52:12Z</time></trkpt><trkpt lat="44.26920307997633" lon="9.617586145740527"><ele>342.25</ele><time>2026-04-26T07:52:13Z</time></trkpt><trkpt lat="44.26920184019159" lon="9.617767516219898"><ele>340.0</ele><time>2026-04-26T07:52:14Z</time></trkpt><trkpt lat="44.26920130184522" lon="9.617970169438044"><ele>339.25</ele><time>2026-04-26T07:52:15Z</time></trkpt><trkpt lat="44.26920561002482" lon="9.61818443848079"><ele>338.5</ele><time>2026-04-26T07:52:16Z</time></trkpt><trkpt lat="44.269201585631464" lon="9.618382638662787"><ele>337.75</ele><time>2026-04-26T07:52:17Z</time></trkpt><trkpt lat="44.26920659832968" lon="9.618567818804888"><ele>337.0</ele><time>2026-04-26T07:52:18Z</time></trkpt><trkpt lat="44.2692121662893" lon="9.618757884813704"><ele>337.0</ele><time>2026-04-26T07:52:19Z</time></trkpt><trkpt lat="44.26920988234598" lon="9.618943754310978"><ele>337.0</ele><time>2026-04-26T07:52:20Z</time></trkpt><trkpt lat="44.26919573876586" lon="9.619123842585322"><ele>337.0</ele><time>2026-04-26T07:52:21Z</time></trkpt><trkpt lat="44.26917000872372" lon="9.619297120258194"><ele>337.0</ele><time>2026-04-26T07:52:21.999Z</time></trkpt><trkpt lat="44.26915337753194" lon="9.619472360123266"><ele>335.75</ele><time>2026-04-26T07:52:22.999Z</time></trkpt><trkpt lat="44.26913270929648" lon="9.619654574709802"><ele>334.5</ele><time>2026-04-26T07:52:23.999Z</time></trkpt><trkpt lat="44.2691098850952" lon="9.619840051699812"><ele>333.25</ele><time>2026-04-26T07:52:24.999Z</time></trkpt><trkpt lat="44.2690875167636" lon="9.620024545485109"><ele>332.0</ele><time>2026-04-26T07:52:25.999Z</time></trkpt><trkpt lat="44.26906390240094" lon="9.62021547816606"><ele>331.5</ele><time>2026-04-26T07:52:26.999Z</time></trkpt><trkpt lat="44.269041660440365" lon="9.620410195774525"><ele>331.0</ele><time>2026-04-26T07:52:27.999Z</time></trkpt><trkpt lat="44.26901811415356" lon="9.620601210996186"><ele>330.5</ele><time>2026-04-26T07:52:28.999Z</time></trkpt><trkpt lat="44.26898537796101" lon="9.620787654331169"><ele>330.0</ele><time>2026-04-26T07:52:29.999Z</time></trkpt><trkpt lat="44.26894802618393" lon="9.620973066692866"><ele>323.75</ele><time>2026-04-26T07:52:30.999Z</time></trkpt><trkpt lat="44.26889679987123" lon="9.621149738177387"><ele>317.5</ele><time>2026-04-26T07:52:31.999Z</time></trkpt><trkpt lat="44.268819289417614" lon="9.621303392551011"><ele>311.25</ele><time>2026-04-26T07:52:32.999Z</time></trkpt><trkpt lat="44.26875601898406" lon="9.621472435121914"><ele>305.0</ele><time>2026-04-26T07:52:33.999Z</time></trkpt><trkpt lat="44.26867973618651" lon="9.62162116522082"><ele>305.0</ele><time>2026-04-26T07:52:34.999Z</time></trkpt><trkpt lat="44.268608634174896" lon="9.621769071657473"><ele>305.0</ele><time>2026-04-26T07:52:35.999Z</time></trkpt><trkpt lat="44.26853993821888" lon="9.621923123166795"><ele>305.0</ele><time>2026-04-26T07:52:36.999Z</time></trkpt><trkpt lat="44.2684721041075" lon="9.622074707784778"><ele>305.0</ele><time>2026-04-26T07:52:37.999Z</time></trkpt><trkpt lat="44.26839808555173" lon="9.622217695698255"><ele>307.5</ele><time>2026-04-26T07:52:38.999Z</time></trkpt><trkpt lat="44.26832395303743" lon="9.622366028004475"><ele>310.0</ele><time>2026-04-26T07:52:39.999Z</time></trkpt><trkpt lat="44.268250420309975" lon="9.62250539925704"><ele>312.5</ele><time>2026-04-26T07:52:40.999Z</time></trkpt><trkpt lat="44.26818313858857" lon="9.622651712796745"><ele>315.0</ele><time>2026-04-26T07:52:41.999Z</time></trkpt><trkpt lat="44.268128211010996" lon="9.622812339876"><ele>307.5</ele><time>2026-04-26T07:52:42.999Z</time></trkpt><trkpt lat="44.268084831099756" lon="9.622962646033336"><ele>300.0</ele><time>2026-04-26T07:52:43.999Z</time></trkpt><trkpt lat="44.26805571871414" lon="9.623140194189654"><ele>292.5</ele><time>2026-04-26T07:52:44.999Z</time></trkpt><trkpt lat="44.26803513025932" lon="9.623314072632985"><ele>285.0</ele><time>2026-04-26T07:52:45.999Z</time></trkpt><trkpt lat="44.268014873878805" lon="9.623485864481987"><ele>284.5</ele><time>2026-04-26T07:52:46.999Z</time></trkpt><trkpt lat="44.267993840544456" lon="9.623651619957428"><ele>284.0</ele><time>2026-04-26T07:52:47.999Z</time></trkpt><trkpt lat="44.26797045331931" lon="9.623811341434841"><ele>283.5</ele><time>2026-04-26T07:52:48.999Z</time></trkpt><trkpt lat="44.267947246530355" lon="9.623971336322287"><ele>283.0</ele><time>2026-04-26T07:52:49.999Z</time></trkpt><trkpt lat="44.26793603035446" lon="9.624121570663867"><ele>283.0</ele><time>2026-04-26T07:52:50.999Z</time></trkpt><trkpt lat="44.267943140960185" lon="9.624247010836015"><ele>283.0</ele><time>2026-04-26T07:52:51.999Z</time></trkpt><trkpt lat="44.267929639187564" lon="9.624346283106496"><ele>283.0</ele><time>2026-04-26T07:52:52.999Z</time></trkpt><trkpt lat="44.26793731801259" lon="9.624433916340799"><ele>283.0</ele><time>2026-04-26T07:52:53.999Z</time></trkpt><trkpt lat="44.26788639280268" lon="9.624519201676952"><ele>283.0</ele><time>2026-04-26T07:52:54.999Z</time></trkpt><trkpt lat="44.267808796733945" lon="9.624596931004588"><ele>283.0</ele><time>2026-04-26T07:52:55.999Z</time></trkpt><trkpt lat="44.26775482174512" lon="9.62469030017758"><ele>284.6</ele><time>2026-04-26T07:52:56.999Z</time></trkpt><trkpt lat="44.26773398090014" lon="9.624824027003035"><ele>286.20000000000005</ele><time>2026-04-26T07:52:57.999Z</time></trkpt><trkpt lat="44.26770133373836" lon="9.62496320323527"><ele>287.8</ele><time>2026-04-26T07:52:58.999Z</time></trkpt><trkpt lat="44.2676470455926" lon="9.625096060082225"><ele>289.40000000000003</ele><time>2026-04-26T07:52:59.999Z</time></trkpt><trkpt lat="44.26757285211713" lon="9.625222971410619"><ele>291.0</ele><time>2026-04-26T07:53:00.999Z</time></trkpt><trkpt lat="44.26747212357701" lon="9.625344695949341"><ele>287.40000000000003</ele><time>2026-04-26T07:53:01.999Z</time></trkpt><trkpt lat="44.267393123261826" lon="9.625438122361977"><ele>283.8</ele><time>2026-04-26T07:53:02.999Z</time></trkpt><trkpt lat="44.2673373793424" lon="9.625567180438573"><ele>280.20000000000005</ele><time>2026-04-26T07:53:03.999Z</time></trkpt><trkpt lat="44.26728836409305" lon="9.62570288362833"><ele>276.6</ele><time>2026-04-26T07:53:04.999Z</time></trkpt><trkpt lat="44.267217407814684" lon="9.625806417631129"><ele>273.0</ele><time>2026-04-26T07:53:05.999Z</time></trkpt><trkpt lat="44.26709942912872" lon="9.625873083714811"><ele>273.0</ele><time>2026-04-26T07:53:06.999Z</time></trkpt><trkpt lat="44.26698794281702" lon="9.625929002161747"><ele>273.0</ele><time>2026-04-26T07:53:07.999Z</time></trkpt><trkpt lat="44.26690194200286" lon="9.626055212960381"><ele>273.0</ele><time>2026-04-26T07:53:08.999Z</time></trkpt><trkpt lat="44.266808649798655" lon="9.626175108146507"><ele>273.0</ele><time>2026-04-26T07:53:09.999Z</time></trkpt><trkpt lat="44.26671838538675" lon="9.626287559376873"><ele>271.0</ele><time>2026-04-26T07:53:10.999Z</time></trkpt><trkpt lat="44.266626545746725" lon="9.626405735780752"><ele>269.0</ele><time>2026-04-26T07:53:11.999Z</time></trkpt><trkpt lat="44.26653773393288" lon="9.626511876132858"><ele>267.0</ele><time>2026-04-26T07:53:12.999Z</time></trkpt><trkpt lat="44.266459815844534" lon="9.626631956377357"><ele>265.0</ele><time>2026-04-26T07:53:13.999Z</time></trkpt><trkpt lat="44.26641136141806" lon="9.626772062868115"><ele>265.0</ele><time>2026-04-26T07:53:14.999Z</time></trkpt><trkpt lat="44.26641108806337" lon="9.626933867989804"><ele>265.0</ele><time>2026-04-26T07:53:15.999Z</time></trkpt><trkpt lat="44.266456597284574" lon="9.627079434281882"><ele>265.0</ele><time>2026-04-26T07:53:16.999Z</time></trkpt><trkpt lat="44.26655633822481" lon="9.627184331105964"><ele>265.0</ele><time>2026-04-26T07:53:17.999Z</time></trkpt><trkpt lat="44.266676185678705" lon="9.627234729040284"><ele>267.4</ele><time>2026-04-26T07:53:18.999Z</time></trkpt><trkpt lat="44.26678649899338" lon="9.627295231149928"><ele>269.8</ele><time>2026-04-26T07:53:19.999Z</time></trkpt><trkpt lat="44.26688531817403" lon="9.627366924977432"><ele>272.2</ele><time>2026-04-26T07:53:20.999Z</time></trkpt><trkpt lat="44.26696803907039" lon="9.62746134621543"><ele>274.6</ele><time>2026-04-26T07:53:21.999Z</time></trkpt><trkpt lat="44.26702594721691" lon="9.627583256703076"><ele>277.0</ele><time>2026-04-26T07:53:22.999Z</time></trkpt><trkpt lat="44.26705410733709" lon="9.62775003234459"><ele>274.0</ele><time>2026-04-26T07:53:23.999Z</time></trkpt><trkpt lat="44.26707343480769" lon="9.627931220466543"><ele>271.0</ele><time>2026-04-26T07:53:24.999Z</time></trkpt><trkpt lat="44.26707175469962" lon="9.628126811202707"><ele>268.0</ele><time>2026-04-26T07:53:25.999Z</time></trkpt><trkpt lat="44.267062026447086" lon="9.628335146554313"><ele>265.0</ele><time>2026-04-26T07:53:26.999Z</time></trkpt><trkpt lat="44.26706270474288" lon="9.62853585285157"><ele>263.5</ele><time>2026-04-26T07:53:27.999Z</time></trkpt><trkpt lat="44.267064025993555" lon="9.628725115051111"><ele>262.0</ele><time>2026-04-26T07:53:28.999Z</time></trkpt><trkpt lat="44.26706604794402" lon="9.628914085027596"><ele>260.5</ele><time>2026-04-26T07:53:29.999Z</time></trkpt><trkpt lat="44.267066314797795" lon="9.629093080272142"><ele>259.0</ele><time>2026-04-26T07:53:30.999Z</time></trkpt><trkpt lat="44.267064495036976" lon="9.62926837407996"><ele>259.0</ele><time>2026-04-26T07:53:31.999Z</time></trkpt><trkpt lat="44.267035102129704" lon="9.629443092443745"><ele>259.0</ele><time>2026-04-26T07:53:32.999Z</time></trkpt><trkpt lat="44.26699354785966" lon="9.629609625702129"><ele>259.0</ele><time>2026-04-26T07:53:34Z</time></trkpt><trkpt lat="44.26688644425901" lon="9.629728986681949"><ele>259.0</ele><time>2026-04-26T07:53:35Z</time></trkpt><trkpt lat="44.266789290039334" lon="9.629856588283653"><ele>258.5</ele><time>2026-04-26T07:53:36Z</time></trkpt><trkpt lat="44.26666142896459" lon="9.629965108371653"><ele>258.0</ele><time>2026-04-26T07:53:37Z</time></trkpt><trkpt lat="44.2665419730166" lon="9.630077585195327"><ele>257.5</ele><time>2026-04-26T07:53:38Z</time></trkpt><trkpt lat="44.266423343662574" lon="9.63016887105557"><ele>257.0</ele><time>2026-04-26T07:53:39Z</time></trkpt><trkpt lat="44.26629394976542" lon="9.630245326235226"><ele>267.25</ele><time>2026-04-26T07:53:40Z</time></trkpt><trkpt lat="44.26616905216306" lon="9.63032930344928"><ele>277.5</ele><time>2026-04-26T07:53:41Z</time></trkpt><trkpt lat="44.26603457596244" lon="9.630390676892448"><ele>287.75</ele><time>2026-04-26T07:53:42Z</time></trkpt><trkpt lat="44.26590488809286" lon="9.630465267451038"><ele>298.0</ele><time>2026-04-26T07:53:43Z</time></trkpt><trkpt lat="44.26576818414658" lon="9.630502058839241"><ele>298.0</ele><time>2026-04-26T07:53:44Z</time></trkpt><trkpt lat="44.265612922229494" lon="9.63049813319908"><ele>298.0</ele><time>2026-04-26T07:53:45Z</time></trkpt><trkpt lat="44.26545693187673" lon="9.630466424922059"><ele>298.0</ele><time>2026-04-26T07:53:46Z</time></trkpt><trkpt lat="44.26532022075474" lon="9.630483859500375"><ele>289.25</ele><time>2026-04-26T07:53:47Z</time></trkpt><trkpt lat="44.26519707644757" lon="9.63052262110145"><ele>280.5</ele><time>2026-04-26T07:53:48Z</time></trkpt><trkpt lat="44.26508614851292" lon="9.630605594252925"><ele>271.75</ele><time>2026-04-26T07:53:49Z</time></trkpt><trkpt lat="44.26498433568162" lon="9.630718066414834"><ele>263.0</ele><time>2026-04-26T07:53:50Z</time></trkpt><trkpt lat="44.264896783018955" lon="9.630868324119648"><ele>263.0</ele><time>2026-04-26T07:53:51Z</time></trkpt><trkpt lat="44.26482828661132" lon="9.631048721247458"><ele>263.0</ele><time>2026-04-26T07:53:52Z</time></trkpt><trkpt lat="44.26475551902742" lon="9.631250023074687"><ele>263.0</ele><time>2026-04-26T07:53:53Z</time></trkpt><trkpt lat="44.264702705142156" lon="9.631475769157333"><ele>260.6666666666667</ele><time>2026-04-26T07:53:54Z</time></trkpt><trkpt lat="44.264645159033726" lon="9.63168812868454"><ele>258.3333333333333</ele><time>2026-04-26T07:53:55Z</time></trkpt><trkpt lat="44.264573542792895" lon="9.631886366625245"><ele>256.0</ele><time>2026-04-26T07:53:56Z</time></trkpt><trkpt lat="44.26449328886597" lon="9.632049327248176"><ele>256.0</ele><time>2026-04-26T07:53:57Z</time></trkpt><trkpt lat="44.264418265217294" lon="9.632205918435346"><ele>256.0</ele><time>2026-04-26T07:53:58Z</time></trkpt><trkpt lat="44.26435110556515" lon="9.632359198272027"><ele>256.0</ele><time>2026-04-26T07:53:59Z</time></trkpt><trkpt lat="44.264291393867" lon="9.632504657435856"><ele>256.0</ele><time>2026-04-26T07:54:00Z</time></trkpt><trkpt lat="44.264249148299804" lon="9.632656668579802"><ele>254.25</ele><time>2026-04-26T07:54:01Z</time></trkpt><trkpt lat="44.264241572483726" lon="9.632828309754876"><ele>252.5</ele><time>2026-04-26T07:54:02Z</time></trkpt><trkpt lat="44.26427279327524" lon="9.633019634268242"><ele>250.75</ele><time>2026-04-26T07:54:03Z</time></trkpt><trkpt lat="44.26434871321411" lon="9.633199123479287"><ele>249.0</ele><time>2026-04-26T07:54:04Z</time></trkpt><trkpt lat="44.26445398129353" lon="9.633358800692164"><ele>249.0</ele><time>2026-04-26T07:54:05Z</time></trkpt><trkpt lat="44.26456114594093" lon="9.633512985670976"><ele>249.0</ele><time>2026-04-26T07:54:06Z</time></trkpt><trkpt lat="44.264641682400885" lon="9.633682876096021"><ele>249.0</ele><time>2026-04-26T07:54:07Z</time></trkpt><trkpt lat="44.26469167515716" lon="9.633867421516534"><ele>249.0</ele><time>2026-04-26T07:54:08Z</time></trkpt><trkpt lat="44.264733690407716" lon="9.634056610809319"><ele>246.25</ele><time>2026-04-26T07:54:09Z</time></trkpt><trkpt lat="44.264804476912666" lon="9.634229812314656"><ele>243.5</ele><time>2026-04-26T07:54:10Z</time></trkpt><trkpt lat="44.26490093765651" lon="9.634374996191658"><ele>240.75</ele><time>2026-04-26T07:54:11Z</time></trkpt><trkpt lat="44.26500434838755" lon="9.63452894464229"><ele>238.0</ele><time>2026-04-26T07:54:12Z</time></trkpt><trkpt lat="44.26510330626596" lon="9.634648726615513"><ele>238.0</ele><time>2026-04-26T07:54:13Z</time></trkpt><trkpt lat="44.265194631212296" lon="9.634794216899708"><ele>238.0</ele><time>2026-04-26T07:54:14Z</time></trkpt><trkpt lat="44.265280197165055" lon="9.634942640133238"><ele>238.0</ele><time>2026-04-26T07:54:15Z</time></trkpt><trkpt lat="44.26536694594312" lon="9.635087892153951"><ele>238.0</ele><time>2026-04-26T07:54:16Z</time></trkpt><trkpt lat="44.26545922984255" lon="9.635229144545344"><ele>237.0</ele><time>2026-04-26T07:54:17Z</time></trkpt><trkpt lat="44.26557304901755" lon="9.635347286083435"><ele>236.0</ele><time>2026-04-26T07:54:18Z</time></trkpt><trkpt lat="44.26571647900944" lon="9.635412713654059"><ele>235.0</ele><time>2026-04-26T07:54:19Z</time></trkpt><trkpt lat="44.26586859094027" lon="9.635465082175525"><ele>234.0</ele><time>2026-04-26T07:54:20Z</time></trkpt><trkpt lat="44.26600866864989" lon="9.635532399274295"><ele>234.0</ele><time>2026-04-26T07:54:21Z</time></trkpt><trkpt lat="44.26613475814202" lon="9.63560024782172"><ele>234.0</ele><time>2026-04-26T07:54:22Z</time></trkpt><trkpt lat="44.26625954973148" lon="9.635668015276831"><ele>234.0</ele><time>2026-04-26T07:54:22.999Z</time></trkpt><trkpt lat="44.26637710581673" lon="9.635732833743722"><ele>234.0</ele><time>2026-04-26T07:54:23.999Z</time></trkpt><trkpt lat="44.26649101374811" lon="9.635794881751073"><ele>237.5</ele><time>2026-04-26T07:54:24.999Z</time></trkpt><trkpt lat="44.26659705589893" lon="9.635858926624312"><ele>241.0</ele><time>2026-04-26T07:54:25.999Z</time></trkpt><trkpt lat="44.26670412919447" lon="9.635923393855718"><ele>244.5</ele><time>2026-04-26T07:54:26.999Z</time></trkpt><trkpt lat="44.2668111421518" lon="9.636008847266666"><ele>248.0</ele><time>2026-04-26T07:54:27.999Z</time></trkpt><trkpt lat="44.266919513194075" lon="9.636120570840449"><ele>243.0</ele><time>2026-04-26T07:54:28.999Z</time></trkpt><trkpt lat="44.26701092318888" lon="9.636264603936729"><ele>238.0</ele><time>2026-04-26T07:54:29.999Z</time></trkpt><trkpt lat="44.267086383869" lon="9.6364285608471"><ele>233.0</ele><time>2026-04-26T07:54:30.999Z</time></trkpt><trkpt lat="44.267140912499336" lon="9.636616502164618"><ele>228.0</ele><time>2026-04-26T07:54:31.999Z</time></trkpt><trkpt lat="44.26716985891602" lon="9.636817108065998"><ele>227.0</ele><time>2026-04-26T07:54:32.999Z</time></trkpt><trkpt lat="44.26717489902411" lon="9.637019575249594"><ele>226.0</ele><time>2026-04-26T07:54:33.999Z</time></trkpt><trkpt lat="44.26714976346827" lon="9.637220716095184"><ele>225.0</ele><time>2026-04-26T07:54:34.999Z</time></trkpt><trkpt lat="44.26709703186821" lon="9.637414200487504"><ele>224.0</ele><time>2026-04-26T07:54:35.999Z</time></trkpt><trkpt lat="44.264241572483726" lon="9.632828309754876"><ele>230.25</ele><time>2026-04-26T07:54:02Z</time></trkpt><trkpt lat="44.26427279327524" lon="9.633019634268242"><ele>236.5</ele><time>2026-04-26T07:54:03Z</time></trkpt><trkpt lat="44.26434871321411" lon="9.633199123479287"><ele>242.75</ele><time>2026-04-26T07:54:04Z</time></trkpt><trkpt lat="44.26445398129353" lon="9.633358800692164"><ele>249.0</ele><time>2026-04-26T07:54:05Z</time></trkpt><trkpt lat="44.26456114594093" lon="9.633512985670976"><ele>249.25</ele><time>2026-04-26T07:54:06Z</time></trkpt><trkpt lat="44.264641682400885" lon="9.633682876096021"><ele>249.5</ele><time>2026-04-26T07:54:07Z</time></trkpt><trkpt lat="44.26469167515716" lon="9.633867421516534"><ele>249.75</ele><time>2026-04-26T07:54:08Z</time></trkpt><trkpt lat="44.264733690407716" lon="9.634056610809319"><ele>250.0</ele><time>2026-04-26T07:54:09Z</time></trkpt><trkpt lat="44.264804476912666" lon="9.634229812314656"><ele>247.0</ele><time>2026-04-26T07:54:10Z</time></trkpt><trkpt lat="44.26490093765651" lon="9.634374996191658"><ele>244.0</ele><time>2026-04-26T07:54:11Z</time></trkpt><trkpt lat="44.26500434838755" lon="9.63452894464229"><ele>241.0</ele><time>2026-04-26T07:54:12Z</time></trkpt><trkpt lat="44.26510330626596" lon="9.634648726615513"><ele>238.0</ele><time>2026-04-26T07:54:13Z</time></trkpt><trkpt lat="44.265194631212296" lon="9.634794216899708"><ele>238.0</ele><time>2026-04-26T07:54:14Z</time></trkpt><trkpt lat="44.265280197165055" lon="9.634942640133238"><ele>238.0</ele><time>2026-04-26T07:54:15Z</time></trkpt><trkpt lat="44.26536694594312" lon="9.635087892153951"><ele>238.0</ele><time>2026-04-26T07:54:16Z</time></trkpt><trkpt lat="44.26545922984255" lon="9.635229144545344"><ele>238.0</ele><time>2026-04-26T07:54:17Z</time></trkpt><trkpt lat="44.26557304901755" lon="9.635347286083435"><ele>236.66666666666666</ele><time>2026-04-26T07:54:18Z</time></trkpt><trkpt lat="44.26571647900944" lon="9.635412713654059"><ele>235.33333333333331</ele><time>2026-04-26T07:54:19Z</time></trkpt><trkpt lat="44.26586859094027" lon="9.635465082175525"><ele>234.0</ele><time>2026-04-26T07:54:20Z</time></trkpt><trkpt lat="44.26600866864989" lon="9.635532399274295"><ele>234.0</ele><time>2026-04-26T07:54:21Z</time></trkpt><trkpt lat="44.26613475814202" lon="9.63560024782172"><ele>234.0</ele><time>2026-04-26T07:54:22Z</time></trkpt><trkpt lat="44.26625954973148" lon="9.635668015276831"><ele>234.0</ele><time>2026-04-26T07:54:22.999Z</time></trkpt><trkpt lat="44.26637710581673" lon="9.635732833743722"><ele>234.0</ele><time>2026-04-26T07:54:23.999Z</time></trkpt><trkpt lat="44.26649101374811" lon="9.635794881751073"><ele>237.5</ele><time>2026-04-26T07:54:24.999Z</time></trkpt><trkpt lat="44.26659705589893" lon="9.635858926624312"><ele>241.0</ele><time>2026-04-26T07:54:25.999Z</time></trkpt><trkpt lat="44.26670412919447" lon="9.635923393855718"><ele>244.5</ele><time>2026-04-26T07:54:26.999Z</time></trkpt><trkpt lat="44.2668111421518" lon="9.636008847266666"><ele>248.0</ele><time>2026-04-26T07:54:27.999Z</time></trkpt><trkpt lat="44.266919513194075" lon="9.636120570840449"><ele>243.0</ele><time>2026-04-26T07:54:28.999Z</time></trkpt><trkpt lat="44.26701092318888" lon="9.636264603936729"><ele>238.0</ele><time>2026-04-26T07:54:29.999Z</time></trkpt><trkpt lat="44.267086383869" lon="9.6364285608471"><ele>233.0</ele><time>2026-04-26T07:54:30.999Z</time></trkpt><trkpt lat="44.267140912499336" lon="9.636616502164618"><ele>228.0</ele><time>2026-04-26T07:54:31.999Z</time></trkpt><trkpt lat="44.26716985891602" lon="9.636817108065998"><ele>227.0</ele><time>2026-04-26T07:54:32.999Z</time></trkpt><trkpt lat="44.26717489902411" lon="9.637019575249594"><ele>226.0</ele><time>2026-04-26T07:54:33.999Z</time></trkpt><trkpt lat="44.26714976346827" lon="9.637220716095184"><ele>225.0</ele><time>2026-04-26T07:54:34.999Z</time></trkpt><trkpt lat="44.26709703186821" lon="9.637414200487504"><ele>224.0</ele><time>2026-04-26T07:54:35.999Z</time></trkpt><trkpt lat="44.267028984555" lon="9.637596936719032"><ele>224.0</ele><time>2026-04-26T07:54:36.999Z</time></trkpt><trkpt lat="44.26695541174511" lon="9.637759168994704"><ele>224.0</ele><time>2026-04-26T07:54:37.999Z</time></trkpt><trkpt lat="44.266880910775164" lon="9.637913225512333"><ele>224.0</ele><time>2026-04-26T07:54:38.999Z</time></trkpt><trkpt lat="44.266817020099666" lon="9.638070680420475"><ele>224.0</ele><time>2026-04-26T07:54:39.999Z</time></trkpt><trkpt lat="44.26675809936375" lon="9.638223116943903"><ele>224.5</ele><time>2026-04-26T07:54:40.999Z</time></trkpt><trkpt lat="44.26671303526717" lon="9.638374314053706"><ele>225.0</ele><time>2026-04-26T07:54:41.999Z</time></trkpt><trkpt lat="44.26670328491265" lon="9.63854064748926"><ele>225.5</ele><time>2026-04-26T07:54:42.999Z</time></trkpt><trkpt lat="44.266723008566984" lon="9.638710987461055"><ele>226.0</ele><time>2026-04-26T07:54:43.999Z</time></trkpt><trkpt lat="44.26677955288641" lon="9.638868805486794"><ele>224.75</ele><time>2026-04-26T07:54:44.999Z</time></trkpt><trkpt lat="44.26687215464946" lon="9.638993864444805"><ele>223.5</ele><time>2026-04-26T07:54:45.999Z</time></trkpt><trkpt lat="44.266988506723976" lon="9.639095714514673"><ele>222.25</ele><time>2026-04-26T07:54:46.999Z</time></trkpt><trkpt lat="44.2671128368983" lon="9.639187730074598"><ele>221.0</ele><time>2026-04-26T07:54:47.999Z</time></trkpt><trkpt lat="44.26723486376768" lon="9.639275735025223"><ele>219.5</ele><time>2026-04-26T07:54:48.999Z</time></trkpt><trkpt lat="44.26735868598588" lon="9.639382896137235"><ele>218.0</ele><time>2026-04-26T07:54:49.999Z</time></trkpt><trkpt lat="44.26747542007916" lon="9.639495560668218"><ele>216.5</ele><time>2026-04-26T07:54:50.999Z</time></trkpt><trkpt lat="44.26759369984671" lon="9.639614721568417"><ele>215.0</ele><time>2026-04-26T07:54:51.999Z</time></trkpt><trkpt lat="44.267719755323334" lon="9.639723569888899"><ele>215.0</ele><time>2026-04-26T07:54:52.999Z</time></trkpt><trkpt lat="44.26784056109339" lon="9.639833424457949"><ele>215.0</ele><time>2026-04-26T07:54:53.999Z</time></trkpt><trkpt lat="44.26796279533835" lon="9.639936430684502"><ele>215.0</ele><time>2026-04-26T07:54:54.999Z</time></trkpt><trkpt lat="44.268075298907206" lon="9.64002841070688"><ele>215.0</ele><time>2026-04-26T07:54:55.999Z</time></trkpt><trkpt lat="44.26818301988622" lon="9.640121387684964"><ele>213.5</ele><time>2026-04-26T07:54:56.999Z</time></trkpt><trkpt lat="44.26828832191789" lon="9.640214055797298"><ele>212.0</ele><time>2026-04-26T07:54:57.999Z</time></trkpt><trkpt lat="44.268384628151935" lon="9.640317115363251"><ele>210.5</ele><time>2026-04-26T07:54:58.999Z</time></trkpt><trkpt lat="44.26846841330488" lon="9.640439687783713"><ele>209.0</ele><time>2026-04-26T07:54:59.999Z</time></trkpt><trkpt lat="44.268520605425586" lon="9.640589944526239"><ele>209.0</ele><time>2026-04-26T07:55:00.999Z</time></trkpt><trkpt lat="44.26855920861387" lon="9.640730845446337"><ele>209.0</ele><time>2026-04-26T07:55:01.999Z</time></trkpt><trkpt lat="44.26859456176418" lon="9.640882393359078"><ele>209.0</ele><time>2026-04-26T07:55:02.999Z</time></trkpt><trkpt lat="44.268594006167525" lon="9.6410435622925"><ele>209.0</ele><time>2026-04-26T07:55:03.999Z</time></trkpt><trkpt lat="44.26857221273342" lon="9.641214057130068"><ele>209.75</ele><time>2026-04-26T07:55:04.999Z</time></trkpt><trkpt lat="44.26853951463113" lon="9.64137703448425"><ele>210.5</ele><time>2026-04-26T07:55:05.999Z</time></trkpt><trkpt lat="44.26850949933042" lon="9.641534085221755"><ele>211.25</ele><time>2026-04-26T07:55:06.999Z</time></trkpt><trkpt lat="44.26848496174075" lon="9.641701513304984"><ele>212.0</ele><time>2026-04-26T07:55:07.999Z</time></trkpt><trkpt lat="44.268459188765135" lon="9.641866649389494"><ele>211.0</ele><time>2026-04-26T07:55:08.999Z</time></trkpt><trkpt lat="44.26842918732013" lon="9.642023674820448"><ele>210.0</ele><time>2026-04-26T07:55:09.999Z</time></trkpt><trkpt lat="44.26841094965258" lon="9.642184520138427"><ele>209.0</ele><time>2026-04-26T07:55:10.999Z</time></trkpt><trkpt lat="44.268400651021615" lon="9.642343999806332"><ele>208.0</ele><time>2026-04-26T07:55:11.999Z</time></trkpt><trkpt lat="44.26840570871344" lon="9.642496982109025"><ele>208.0</ele><time>2026-04-26T07:55:12.999Z</time></trkpt><trkpt lat="44.26843200539108" lon="9.642644574067472"><ele>208.0</ele><time>2026-04-26T07:55:13.999Z</time></trkpt><trkpt lat="44.26847915196219" lon="9.64277678351413"><ele>208.0</ele><time>2026-04-26T07:55:14.999Z</time></trkpt><trkpt lat="44.26854663986555" lon="9.642894416303895"><ele>208.0</ele><time>2026-04-26T07:55:15.999Z</time></trkpt><trkpt lat="44.26862819332324" lon="9.642988112656365"><ele>208.0</ele><time>2026-04-26T07:55:16.999Z</time></trkpt><trkpt lat="44.268712023404646" lon="9.643065866652991"><ele>207.60000000000002</ele><time>2026-04-26T07:55:17.999Z</time></trkpt><trkpt lat="44.26878460066076" lon="9.643140552919823"><ele>207.20000000000002</ele><time>2026-04-26T07:55:18.999Z</time></trkpt><trkpt lat="44.26885541106751" lon="9.643226728632783"><ele>206.8</ele><time>2026-04-26T07:55:19.999Z</time></trkpt><trkpt lat="44.26891600904376" lon="9.643322085227133"><ele>206.4</ele><time>2026-04-26T07:55:20.999Z</time></trkpt><trkpt lat="44.26895564514038" lon="9.643437926196702"><ele>206.0</ele><time>2026-04-26T07:55:21.999Z</time></trkpt><trkpt lat="44.26898904801604" lon="9.643558691968195"><ele>206.60000000000002</ele><time>2026-04-26T07:55:22.999Z</time></trkpt><trkpt lat="44.2690226290321" lon="9.643677840959574"><ele>207.2</ele><time>2026-04-26T07:55:23.999Z</time></trkpt><trkpt lat="44.269058940316505" lon="9.64379678732038"><ele>207.8</ele><time>2026-04-26T07:55:24.999Z</time></trkpt><trkpt lat="44.26909842012267" lon="9.64392349140766"><ele>208.39999999999998</ele><time>2026-04-26T07:55:25.999Z</time></trkpt><trkpt lat="44.26913434782611" lon="9.644050152145978"><ele>209.0</ele><time>2026-04-26T07:55:26.999Z</time></trkpt><trkpt lat="44.26917145273319" lon="9.644180373759514"><ele>209.0</ele><time>2026-04-26T07:55:27.999Z</time></trkpt><trkpt lat="44.269211355595445" lon="9.644322158179811"><ele>209.0</ele><time>2026-04-26T07:55:28.999Z</time></trkpt><trkpt lat="44.26924812722756" lon="9.644460754301035"><ele>209.0</ele><time>2026-04-26T07:55:29.999Z</time></trkpt><trkpt lat="44.2692844079057" lon="9.644618459278979"><ele>209.0</ele><time>2026-04-26T07:55:30.999Z</time></trkpt><trkpt lat="44.26931134489404" lon="9.644778862403355"><ele>208.0</ele><time>2026-04-26T07:55:31.999Z</time></trkpt><trkpt lat="44.269324344376734" lon="9.644945548219951"><ele>207.0</ele><time>2026-04-26T07:55:32.999Z</time></trkpt><trkpt lat="44.26933633282564" lon="9.645114820345075"><ele>206.0</ele><time>2026-04-26T07:55:33.999Z</time></trkpt><trkpt lat="44.26935537345006" lon="9.645281802631027"><ele>205.0</ele><time>2026-04-26T07:55:34.999Z</time></trkpt><trkpt lat="44.26936763566595" lon="9.645444151336418"><ele>204.8</ele><time>2026-04-26T07:55:35.999Z</time></trkpt><trkpt lat="44.26939084081734" lon="9.645605175135676"><ele>204.6</ele><time>2026-04-26T07:55:36.998Z</time></trkpt><trkpt lat="44.26939817559725" lon="9.645761656474917"><ele>204.39999999999998</ele><time>2026-04-26T07:55:37.999Z</time></trkpt><trkpt lat="44.2694137086432" lon="9.645916808005637"><ele>204.2</ele><time>2026-04-26T07:55:38.998Z</time></trkpt><trkpt lat="44.26943077862217" lon="9.646062501182994"><ele>204.0</ele><time>2026-04-26T07:55:40Z</time></trkpt><trkpt lat="44.2694570693369" lon="9.646209506170504"><ele>203.39999999999998</ele><time>2026-04-26T07:55:41Z</time></trkpt><trkpt lat="44.2694937487203" lon="9.646353382047316"><ele>202.8</ele><time>2026-04-26T07:55:42Z</time></trkpt><trkpt lat="44.269516868817064" lon="9.646494075417852"><ele>202.2</ele><time>2026-04-26T07:55:43Z</time></trkpt><trkpt lat="44.269551184916864" lon="9.646640018847608"><ele>201.60000000000002</ele><time>2026-04-26T07:55:44Z</time></trkpt><trkpt lat="44.26958354197094" lon="9.646795767596966"><ele>201.0</ele><time>2026-04-26T07:55:45Z</time></trkpt><trkpt lat="44.26962703931127" lon="9.646941321947306"><ele>201.25</ele><time>2026-04-26T07:55:46Z</time></trkpt><trkpt lat="44.269690100071095" lon="9.647081958714036"><ele>201.5</ele><time>2026-04-26T07:55:47Z</time></trkpt><trkpt lat="44.26977050494144" lon="9.64720739413098"><ele>201.75</ele><time>2026-04-26T07:55:48Z</time></trkpt><trkpt lat="44.26986887273557" lon="9.647308342440558"><ele>202.0</ele><time>2026-04-26T07:55:49Z</time></trkpt><trkpt lat="44.26997503842512" lon="9.647388457913111"><ele>200.0</ele><time>2026-04-26T07:55:50Z</time></trkpt><trkpt lat="44.27007368295038" lon="9.647469192313096"><ele>198.0</ele><time>2026-04-26T07:55:51Z</time></trkpt><trkpt lat="44.27016292775989" lon="9.647551873273626"><ele>196.0</ele><time>2026-04-26T07:55:52Z</time></trkpt><trkpt lat="44.27024714778523" lon="9.64763287295396"><ele>194.0</ele><time>2026-04-26T07:55:53Z</time></trkpt><trkpt lat="44.270315317501186" lon="9.64773604764499"><ele>192.0</ele><time>2026-04-26T07:55:54Z</time></trkpt><trkpt lat="44.270373756668626" lon="9.647851913802405"><ele>191.2</ele><time>2026-04-26T07:55:55Z</time></trkpt><trkpt lat="44.27040894431907" lon="9.647985419236592"><ele>190.39999999999998</ele><time>2026-04-26T07:55:56Z</time></trkpt><trkpt lat="44.27042967046458" lon="9.648130014339042"><ele>189.60000000000002</ele><time>2026-04-26T07:55:57Z</time></trkpt><trkpt lat="44.270431834065874" lon="9.648276407006453"><ele>188.8</ele><time>2026-04-26T07:55:58Z</time></trkpt><trkpt lat="44.27044856023122" lon="9.648422093635697"><ele>188.0</ele><time>2026-04-26T07:55:59Z</time></trkpt><trkpt lat="44.270468179754694" lon="9.648570496442748"><ele>188.5</ele><time>2026-04-26T07:56:00Z</time></trkpt><trkpt lat="44.270498076150076" lon="9.648718723804693"><ele>189.0</ele><time>2026-04-26T07:56:01Z</time></trkpt><trkpt lat="44.270530116786574" lon="9.648869181981373"><ele>189.5</ele><time>2026-04-26T07:56:02Z</time></trkpt><trkpt lat="44.27057196453508" lon="9.649016752591143"><ele>190.0</ele><time>2026-04-26T07:56:03Z</time></trkpt><trkpt lat="44.27061937673466" lon="9.649164451554899"><ele>190.25</ele><time>2026-04-26T07:56:04Z</time></trkpt><trkpt lat="44.270671116388115" lon="9.649309226308526"><ele>190.5</ele><time>2026-04-26T07:56:05Z</time></trkpt><trkpt lat="44.27072674537404" lon="9.649451734939218"><ele>190.75</ele><time>2026-04-26T07:56:06Z</time></trkpt><trkpt lat="44.27078008583971" lon="9.649594648045039"><ele>191.0</ele><time>2026-04-26T07:56:07Z</time></trkpt><trkpt lat="44.27082298384675" lon="9.649740472401279"><ele>189.0</ele><time>2026-04-26T07:56:08Z</time></trkpt><trkpt lat="44.27086559644199" lon="9.649891752248605"><ele>187.0</ele><time>2026-04-26T07:56:09Z</time></trkpt><trkpt lat="44.27091605375274" lon="9.650034427860708"><ele>185.0</ele><time>2026-04-26T07:56:10Z</time></trkpt><trkpt lat="44.27096919680611" lon="9.650173132379956"><ele>183.0</ele><time>2026-04-26T07:56:11Z</time></trkpt><trkpt lat="44.27101725222573" lon="9.650321948655133"><ele>182.25</ele><time>2026-04-26T07:56:12Z</time></trkpt><trkpt lat="44.27106593388663" lon="9.650478799495957"><ele>181.5</ele><time>2026-04-26T07:56:13Z</time></trkpt><trkpt lat="44.27111986391165" lon="9.650632988692012"><ele>180.75</ele><time>2026-04-26T07:56:14Z</time></trkpt><trkpt lat="44.27116856778129" lon="9.650784383758339"><ele>180.0</ele><time>2026-04-26T07:56:15Z</time></trkpt><trkpt lat="44.27120616050231" lon="9.650919948647571"><ele>180.0</ele><time>2026-04-26T07:56:16Z</time></trkpt><trkpt lat="44.27126178432807" lon="9.651065842724693"><ele>180.0</ele><time>2026-04-26T07:56:17Z</time></trkpt><trkpt lat="44.27131309943155" lon="9.651207652580796"><ele>180.0</ele><time>2026-04-26T07:56:18Z</time></trkpt><trkpt lat="44.27136033920267" lon="9.651352851318181"><ele>180.0</ele><time>2026-04-26T07:56:19Z</time></trkpt><trkpt lat="44.27140240129484" lon="9.651512526081559"><ele>178.5</ele><time>2026-04-26T07:56:20Z</time></trkpt><trkpt lat="44.27142848931009" lon="9.651672089149496"><ele>177.0</ele><time>2026-04-26T07:56:20.999Z</time></trkpt><trkpt lat="44.27143896017374" lon="9.651834632493658"><ele>175.5</ele><time>2026-04-26T07:56:21.999Z</time></trkpt><trkpt lat="44.271432111390816" lon="9.651994627976627"><ele>174.0</ele><time>2026-04-26T07:56:22.999Z</time></trkpt><trkpt lat="44.271425783651146" lon="9.652157463441888"><ele>174.5</ele><time>2026-04-26T07:56:23.999Z</time></trkpt><trkpt lat="44.27143166705483" lon="9.65232590347331"><ele>175.0</ele><time>2026-04-26T07:56:24.999Z</time></trkpt><trkpt lat="44.271454352813414" lon="9.65248936893054"><ele>175.5</ele><time>2026-04-26T07:56:25.999Z</time></trkpt><trkpt lat="44.27149611569707" lon="9.65264632379265"><ele>176.0</ele><time>2026-04-26T07:56:26.999Z</time></trkpt><trkpt lat="44.27155641982709" lon="9.652794554898433"><ele>176.0</ele><time>2026-04-26T07:56:27.999Z</time></trkpt><trkpt lat="44.27162253984122" lon="9.652939135845168"><ele>176.0</ele><time>2026-04-26T07:56:28.999Z</time></trkpt><trkpt lat="44.271707423888806" lon="9.653066643160356"><ele>176.0</ele><time>2026-04-26T07:56:29.999Z</time></trkpt><trkpt lat="44.27180424653582" lon="9.65317635286468"><ele>176.0</ele><time>2026-04-26T07:56:30.999Z</time></trkpt><trkpt lat="44.27191771681705" lon="9.653271940556305"><ele>176.0</ele><time>2026-04-26T07:56:31.999Z</time></trkpt><trkpt lat="44.2720294688954" lon="9.653374059701152"><ele>176.0</ele><time>2026-04-26T07:56:32.999Z</time></trkpt><trkpt lat="44.272148260796065" lon="9.653483636689216"><ele>176.0</ele><time>2026-04-26T07:56:33.999Z</time></trkpt><trkpt lat="44.27224816429735" lon="9.653583785960597"><ele>176.0</ele><time>2026-04-26T07:56:34.999Z</time></trkpt><trkpt lat="44.272337375372274" lon="9.653681410164143"><ele>177.0</ele><time>2026-04-26T07:56:35.999Z</time></trkpt><trkpt lat="44.27242419662753" lon="9.653789384907451"><ele>178.0</ele><time>2026-04-26T07:56:36.999Z</time></trkpt><trkpt lat="44.27250836263751" lon="9.65391153826334"><ele>179.0</ele><time>2026-04-26T07:56:37.999Z</time></trkpt><trkpt lat="44.27258981226522" lon="9.654043009827646"><ele>180.0</ele><time>2026-04-26T07:56:38.999Z</time></trkpt><trkpt lat="44.272669879132714" lon="9.65417999833872"><ele>180.0</ele><time>2026-04-26T07:56:39.999Z</time></trkpt><trkpt lat="44.272748644202075" lon="9.654310390765064"><ele>180.0</ele><time>2026-04-26T07:56:40.999Z</time></trkpt><trkpt lat="44.272830048817916" lon="9.654438532954662"><ele>180.0</ele><time>2026-04-26T07:56:41.999Z</time></trkpt><trkpt lat="44.27291017288058" lon="9.65457354213044"><ele>180.0</ele><time>2026-04-26T07:56:42.999Z</time></trkpt><trkpt lat="44.27298597456149" lon="9.654716827172331"><ele>178.0</ele><time>2026-04-26T07:56:43.999Z</time></trkpt><trkpt lat="44.27306720509392" lon="9.654852119439218"><ele>176.0</ele><time>2026-04-26T07:56:44.999Z</time></trkpt><trkpt lat="44.27314253165924" lon="9.654986701671149"><ele>174.0</ele><time>2026-04-26T07:56:45.999Z</time></trkpt><trkpt lat="44.273217625238175" lon="9.65511839141982"><ele>172.0</ele><time>2026-04-26T07:56:46.999Z</time></trkpt><trkpt lat="44.27329247927978" lon="9.655244757164555"><ele>173.25</ele><time>2026-04-26T07:56:47.999Z</time></trkpt><trkpt lat="44.273367144268825" lon="9.655377320248013"><ele>174.5</ele><time>2026-04-26T07:56:48.999Z</time></trkpt><trkpt lat="44.27343014802808" lon="9.655505449041092"><ele>175.75</ele><time>2026-04-26T07:56:49.999Z</time></trkpt><trkpt lat="44.27349390500177" lon="9.65564479559476"><ele>177.0</ele><time>2026-04-26T07:56:50.999Z</time></trkpt><trkpt lat="44.273566187208594" lon="9.65579178901096"><ele>177.0</ele><time>2026-04-26T07:56:51.999Z</time></trkpt><trkpt lat="44.27363606913989" lon="9.65593782024016"><ele>177.0</ele><time>2026-04-26T07:56:52.999Z</time></trkpt><trkpt lat="44.27369554510669" lon="9.65608672391932"><ele>177.0</ele><time>2026-04-26T07:56:53.999Z</time></trkpt><trkpt lat="44.27375614984995" lon="9.65623299092753"><ele>177.0</ele><time>2026-04-26T07:56:54.999Z</time></trkpt><trkpt lat="44.273811192914955" lon="9.65637685990571"><ele>175.75</ele><time>2026-04-26T07:56:55.999Z</time></trkpt><trkpt lat="44.27386881837996" lon="9.65651861116728"><ele>174.5</ele><time>2026-04-26T07:56:56.999Z</time></trkpt><trkpt lat="44.27392993695449" lon="9.656664266251187"><ele>173.25</ele><time>2026-04-26T07:56:57.999Z</time></trkpt><trkpt lat="44.27399192212545" lon="9.656816543847707"><ele>172.0</ele><time>2026-04-26T07:56:58.999Z</time></trkpt><trkpt lat="44.27406024194019" lon="9.656975407619077"><ele>174.75</ele><time>2026-04-26T07:56:59.999Z</time></trkpt><trkpt lat="44.274129250826675" lon="9.65713199339277"><ele>177.5</ele><time>2026-04-26T07:57:00.999Z</time></trkpt><trkpt lat="44.27420218970191" lon="9.657290460216691"><ele>180.25</ele><time>2026-04-26T07:57:01.999Z</time></trkpt><trkpt lat="44.27429088278302" lon="9.657440502264729"><ele>183.0</ele><time>2026-04-26T07:57:02.999Z</time></trkpt><trkpt lat="44.27438515902005" lon="9.65757643361891"><ele>183.0</ele><time>2026-04-26T07:57:03.999Z</time></trkpt><trkpt lat="44.274476762357494" lon="9.657708768990037"><ele>183.0</ele><time>2026-04-26T07:57:04.999Z</time></trkpt><trkpt lat="44.27457094473102" lon="9.657841113193511"><ele>183.0</ele><time>2026-04-26T07:57:05.999Z</time></trkpt><trkpt lat="44.274659640386936" lon="9.657964071663097"><ele>183.0</ele><time>2026-04-26T07:57:06.999Z</time></trkpt><trkpt lat="44.27474763344304" lon="9.658088486682557"><ele>184.0</ele><time>2026-04-26T07:57:07.999Z</time></trkpt><trkpt lat="44.274828033430346" lon="9.658221270836991"><ele>185.0</ele><time>2026-04-26T07:57:08.999Z</time></trkpt><trkpt lat="44.27488833760935" lon="9.658374276302006"><ele>186.0</ele><time>2026-04-26T07:57:09.999Z</time></trkpt><trkpt lat="44.27488632901932" lon="9.658546280324815"><ele>187.0</ele><time>2026-04-26T07:57:10.999Z</time></trkpt><trkpt lat="44.27489660024631" lon="9.658721375502543"><ele>187.0</ele><time>2026-04-26T07:57:11.999Z</time></trkpt><trkpt lat="44.274886347759136" lon="9.658889933086874"><ele>187.0</ele><time>2026-04-26T07:57:12.999Z</time></trkpt><trkpt lat="44.27491976281555" lon="9.659045816388502"><ele>187.0</ele><time>2026-04-26T07:57:13.999Z</time></trkpt><trkpt lat="44.27498140185924" lon="9.659180460001307"><ele>187.0</ele><time>2026-04-26T07:57:14.999Z</time></trkpt><trkpt lat="44.27505270033639" lon="9.659295711226997"><ele>187.0</ele><time>2026-04-26T07:57:15.999Z</time></trkpt><trkpt lat="44.275116844188844" lon="9.659417254924794"><ele>187.0</ele><time>2026-04-26T07:57:16.999Z</time></trkpt><trkpt lat="44.275151234490224" lon="9.659532932686233"><ele>187.0</ele><time>2026-04-26T07:57:17.999Z</time></trkpt><trkpt lat="44.275171617557284" lon="9.659659634326673"><ele>187.0</ele><time>2026-04-26T07:57:19.999Z</time></trkpt><trkpt lat="44.27528287801268" lon="9.659822347862388"><ele>188.0</ele><time>2026-04-26T07:57:46.999Z</time></trkpt><trkpt lat="44.27534322466653" lon="9.659869724005166"><ele>189.0</ele><time>2026-04-26T07:57:51.999Z</time></trkpt><trkpt lat="44.27540486705243" lon="9.659891952909092"><ele>190.0</ele><time>2026-04-26T07:57:53.999Z</time></trkpt><trkpt lat="44.275490780613865" lon="9.659919801305362"><ele>191.0</ele><time>2026-04-26T07:57:55.999Z</time></trkpt><trkpt lat="44.27561681171943" lon="9.659962841592904"><ele>191.99999999999997</ele><time>2026-04-26T07:57:57.999Z</time></trkpt><trkpt lat="44.2756837627289" lon="9.659987521207821"><ele>193.0</ele><time>2026-04-26T07:57:58.999Z</time></trkpt><trkpt lat="44.27574598507705" lon="9.66001089105407"><ele>192.99999999999997</ele><time>2026-04-26T07:57:59.999Z</time></trkpt><trkpt lat="44.27585107163305" lon="9.660051646346806"><ele>193.0</ele><time>2026-04-26T07:58:01.999Z</time></trkpt><trkpt lat="44.27591275385529" lon="9.660081505770176"><ele>193.0</ele><time>2026-04-26T07:58:02.999Z</time></trkpt><trkpt lat="44.275983761731354" lon="9.660115457557536"><ele>193.0</ele><time>2026-04-26T07:58:03.999Z</time></trkpt><trkpt lat="44.27605760027643" lon="9.66015455040228"><ele>192.99999999999997</ele><time>2026-04-26T07:58:04.999Z</time></trkpt><trkpt lat="44.27613423454311" lon="9.66020161722458"><ele>193.0</ele><time>2026-04-26T07:58:05.999Z</time></trkpt><trkpt lat="44.276212629814445" lon="9.660256457664039"><ele>191.66666666666666</ele><time>2026-04-26T07:58:06.999Z</time></trkpt><trkpt lat="44.27629034190437" lon="9.660315827781709"><ele>190.33333333333331</ele><time>2026-04-26T07:58:07.999Z</time></trkpt><trkpt lat="44.276365691584274" lon="9.660381939529517"><ele>189.0</ele><time>2026-04-26T07:58:08.999Z</time></trkpt><trkpt lat="44.27643990767699" lon="9.660446495810174"><ele>187.66666666666666</ele><time>2026-04-26T07:58:09.999Z</time></trkpt><trkpt lat="44.27651123548978" lon="9.660513417297611"><ele>186.33333333333331</ele><time>2026-04-26T07:58:10.999Z</time></trkpt><trkpt lat="44.276580076085935" lon="9.660581491106631"><ele>185.0</ele><time>2026-04-26T07:58:11.999Z</time></trkpt><trkpt lat="44.27665222538907" lon="9.660648891020738"><ele>185.0</ele><time>2026-04-26T07:58:12.999Z</time></trkpt><trkpt lat="44.276721592692546" lon="9.660716900017583"><ele>185.0</ele><time>2026-04-26T07:58:13.999Z</time></trkpt><trkpt lat="44.276793066023565" lon="9.660792014904287"><ele>185.0</ele><time>2026-04-26T07:58:14.999Z</time></trkpt><trkpt lat="44.27686385155208" lon="9.660866346879097"><ele>185.0</ele><time>2026-04-26T07:58:15.999Z</time></trkpt><trkpt lat="44.27693780128185" lon="9.660938533402117"><ele>185.0</ele><time>2026-04-26T07:58:16.999Z</time></trkpt><trkpt lat="44.27701189359596" lon="9.661008878698835"><ele>185.0</ele><time>2026-04-26T07:58:17.999Z</time></trkpt><trkpt lat="44.27708016546898" lon="9.661071600241275"><ele>184.99999999999997</ele><time>2026-04-26T07:58:18.999Z</time></trkpt><trkpt lat="44.277145986891895" lon="9.66113644597596"><ele>185.0</ele><time>2026-04-26T07:58:19.999Z</time></trkpt><trkpt lat="44.27721236294438" lon="9.661200309544608"><ele>185.0</ele><time>2026-04-26T07:58:20.999Z</time></trkpt><trkpt lat="44.27727981085655" lon="9.66126652756132"><ele>185.0</ele><time>2026-04-26T07:58:21.999Z</time></trkpt><trkpt lat="44.277333095999474" lon="9.661322603339373"><ele>185.0</ele><time>2026-04-26T07:58:22.999Z</time></trkpt><trkpt lat="44.27738468771542" lon="9.661390021165417"><ele>184.99999999999997</ele><time>2026-04-26T07:58:24.999Z</time></trkpt><trkpt lat="44.277439735225194" lon="9.661436642927507"><ele>185.0</ele><time>2026-04-26T07:58:54.999Z</time></trkpt><trkpt lat="44.27757637900228" lon="9.661190282836342"><ele>186.6</ele><time>2026-04-26T07:58:58.999Z</time></trkpt><trkpt lat="44.277654055097294" lon="9.66107978701856"><ele>188.2</ele><time>2026-04-26T07:59:00.999Z</time></trkpt><trkpt lat="44.27773040041243" lon="9.660938335792386"><ele>189.8</ele><time>2026-04-26T07:59:02.999Z</time></trkpt><trkpt lat="44.277789019266294" lon="9.660851603268803"><ele>191.4</ele><time>2026-04-26T07:59:03.999Z</time></trkpt><trkpt lat="44.27785322185784" lon="9.660770511684172"><ele>193.0</ele><time>2026-04-26T07:59:04.999Z</time></trkpt><trkpt lat="44.277906919452704" lon="9.660686588680331"><ele>193.00000000000003</ele><time>2026-04-26T07:59:05.999Z</time></trkpt><trkpt lat="44.27794351912006" lon="9.660595933443089"><ele>193.0</ele><time>2026-04-26T07:59:06.999Z</time></trkpt><trkpt lat="44.277965862872875" lon="9.660492422151869"><ele>193.0</ele><time>2026-04-26T07:59:07.999Z</time></trkpt><trkpt lat="44.277986783158575" lon="9.660389800183754"><ele>193.0</ele><time>2026-04-26T07:59:08.999Z</time></trkpt><trkpt lat="44.27800644877622" lon="9.66028881734133"><ele>193.0</ele><time>2026-04-26T07:59:09.999Z</time></trkpt><trkpt lat="44.278001235061026" lon="9.660195801552788"><ele>193.00000000000003</ele><time>2026-04-26T07:59:10.999Z</time></trkpt><trkpt lat="44.277995276793774" lon="9.66010577730538"><ele>193.0</ele><time>2026-04-26T07:59:11.999Z</time></trkpt><trkpt lat="44.27802297954668" lon="9.660007343835954"><ele>193.66666666666666</ele><time>2026-04-26T07:59:12.999Z</time></trkpt><trkpt lat="44.278088177434576" lon="9.65994820885726"><ele>194.33333333333331</ele><time>2026-04-26T07:59:13.999Z</time></trkpt><trkpt lat="44.278158755690825" lon="9.659868582158039"><ele>195.0</ele><time>2026-04-26T07:59:14.999Z</time></trkpt><trkpt lat="44.2782207574451" lon="9.659770785638454"><ele>195.66666666666669</ele><time>2026-04-26T07:59:15.999Z</time></trkpt><trkpt lat="44.27828066869583" lon="9.659701655205307"><ele>196.33333333333334</ele><time>2026-04-26T07:59:16.999Z</time></trkpt><trkpt lat="44.27835198032348" lon="9.65961748848311"><ele>197.0</ele><time>2026-04-26T07:59:18.999Z</time></trkpt><trkpt lat="44.27839962002783" lon="9.659552440348085"><ele>194.50000000000003</ele><time>2026-04-26T07:59:19.999Z</time></trkpt><trkpt lat="44.27845706276703" lon="9.659487032454269"><ele>192.0</ele><time>2026-04-26T07:59:20.999Z</time></trkpt><trkpt lat="44.2785320093609" lon="9.659468010512771"><ele>189.5</ele><time>2026-04-26T07:59:21.999Z</time></trkpt><trkpt lat="44.27860022711215" lon="9.659471101255448"><ele>187.0</ele><time>2026-04-26T07:59:22.999Z</time></trkpt><trkpt lat="44.278671114287846" lon="9.659485915344296"><ele>184.5</ele><time>2026-04-26T07:59:23.999Z</time></trkpt><trkpt lat="44.278736320806225" lon="9.65955918155805"><ele>182.0</ele><time>2026-04-26T07:59:24.999Z</time></trkpt><trkpt lat="44.278814157727815" lon="9.659654014192935"><ele>182.0</ele><time>2026-04-26T07:59:25.999Z</time></trkpt><trkpt lat="44.27888504359246" lon="9.659759908891685"><ele>182.0</ele><time>2026-04-26T07:59:26.999Z</time></trkpt><trkpt lat="44.27894538125258" lon="9.65986783133313"><ele>182.0</ele><time>2026-04-26T07:59:27.999Z</time></trkpt><trkpt lat="44.27900009109356" lon="9.65999262650255"><ele>182.0</ele><time>2026-04-26T07:59:28.999Z</time></trkpt><trkpt lat="44.2790547910503" lon="9.66013411471585"><ele>182.0</ele><time>2026-04-26T07:59:29.999Z</time></trkpt><trkpt lat="44.27910720031236" lon="9.660274422125227"><ele>185.5</ele><time>2026-04-26T07:59:30.999Z</time></trkpt><trkpt lat="44.279167470083365" lon="9.660426218332098"><ele>189.0</ele><time>2026-04-26T07:59:31.999Z</time></trkpt><trkpt lat="44.27922947243254" lon="9.660574585585259"><ele>192.5</ele><time>2026-04-26T07:59:32.999Z</time></trkpt><trkpt lat="44.27928830500494" lon="9.660725637759148"><ele>196.0</ele><time>2026-04-26T07:59:33.999Z</time></trkpt><trkpt lat="44.279357950663915" lon="9.660867690209747"><ele>196.0</ele><time>2026-04-26T07:59:34.999Z</time></trkpt><trkpt lat="44.279419231426566" lon="9.661016009385607"><ele>196.0</ele><time>2026-04-26T07:59:35.999Z</time></trkpt><trkpt lat="44.27947821490708" lon="9.661172029771903"><ele>196.0</ele><time>2026-04-26T07:59:36.999Z</time></trkpt><trkpt lat="44.279552061278025" lon="9.661312063544154"><ele>196.0</ele><time>2026-04-26T07:59:37.999Z</time></trkpt><trkpt lat="44.27963495040816" lon="9.661439256904217"><ele>195.5</ele><time>2026-04-26T07:59:38.999Z</time></trkpt><trkpt lat="44.27971130209377" lon="9.661547134262397"><ele>195.0</ele><time>2026-04-26T07:59:39.999Z</time></trkpt><trkpt lat="44.27979822507919" lon="9.661636736823528"><ele>194.5</ele><time>2026-04-26T07:59:40.999Z</time></trkpt><trkpt lat="44.27991015938741" lon="9.661699599400015"><ele>194.0</ele><time>2026-04-26T07:59:41.999Z</time></trkpt><trkpt lat="44.28003490912242" lon="9.661732195575347"><ele>194.0</ele><time>2026-04-26T07:59:42.999Z</time></trkpt><trkpt lat="44.280158317108885" lon="9.66176496741889"><ele>194.0</ele><time>2026-04-26T07:59:43.999Z</time></trkpt><trkpt lat="44.28027843002775" lon="9.661795334053432"><ele>194.0</ele><time>2026-04-26T07:59:44.999Z</time></trkpt><trkpt lat="44.280397554555435" lon="9.6618196707004"><ele>194.0</ele><time>2026-04-26T07:59:45.999Z</time></trkpt><trkpt lat="44.280519838556955" lon="9.66184699886385"><ele>194.25</ele><time>2026-04-26T07:59:46.999Z</time></trkpt><trkpt lat="44.28063843532458" lon="9.661873949127859"><ele>194.5</ele><time>2026-04-26T07:59:47.999Z</time></trkpt><trkpt lat="44.28076037504986" lon="9.661904206059132"><ele>194.75</ele><time>2026-04-26T07:59:48.998Z</time></trkpt><trkpt lat="44.280879839775515" lon="9.661932551028592"><ele>195.0</ele><time>2026-04-26T07:59:49.998Z</time></trkpt><trkpt lat="44.28099487111676" lon="9.661959584316717"><ele>195.0</ele><time>2026-04-26T07:59:50.998Z</time></trkpt><trkpt lat="44.28111301156101" lon="9.661983003982852"><ele>195.0</ele><time>2026-04-26T07:59:51.999Z</time></trkpt><trkpt lat="44.28122375006636" lon="9.662010876219142"><ele>195.0</ele><time>2026-04-26T07:59:52.999Z</time></trkpt><trkpt lat="44.28133072354269" lon="9.66203113598671"><ele>195.0</ele><time>2026-04-26T07:59:53.999Z</time></trkpt><trkpt lat="44.281442640810035" lon="9.662019296987744"><ele>195.25</ele><time>2026-04-26T07:59:54.999Z</time></trkpt><trkpt lat="44.28156218512919" lon="9.661993148895306"><ele>195.5</ele><time>2026-04-26T07:59:55.999Z</time></trkpt><trkpt lat="44.28167704019959" lon="9.661963387787683"><ele>195.75</ele><time>2026-04-26T07:59:56.999Z</time></trkpt><trkpt lat="44.28179113561789" lon="9.661949774128976"><ele>196.0</ele><time>2026-04-26T07:59:58Z</time></trkpt><trkpt lat="44.28189621773327" lon="9.661977008899644"><ele>196.0</ele><time>2026-04-26T07:59:59Z</time></trkpt><trkpt lat="44.28199630385403" lon="9.662038673510958"><ele>196.0</ele><time>2026-04-26T08:00:00Z</time></trkpt><trkpt lat="44.282094590861924" lon="9.662096623303452"><ele>196.0</ele><time>2026-04-26T08:00:01Z</time></trkpt><trkpt lat="44.282198915334995" lon="9.662161522465562"><ele>196.0</ele><time>2026-04-26T08:00:02Z</time></trkpt><trkpt lat="44.28230576346008" lon="9.662247249372772"><ele>200.5</ele><time>2026-04-26T08:00:03Z</time></trkpt><trkpt lat="44.28241208349201" lon="9.66233654863413"><ele>205.0</ele><time>2026-04-26T08:00:04Z</time></trkpt><trkpt lat="44.282512847814736" lon="9.662439666525874"><ele>209.5</ele><time>2026-04-26T08:00:05Z</time></trkpt><trkpt lat="44.282629835664984" lon="9.662527474953636"><ele>214.0</ele><time>2026-04-26T08:00:06Z</time></trkpt><trkpt lat="44.282733622382935" lon="9.662640368600377"><ele>214.0</ele><time>2026-04-26T08:00:07Z</time></trkpt><trkpt lat="44.2828372294493" lon="9.662733826620213"><ele>214.0</ele><time>2026-04-26T08:00:08Z</time></trkpt><trkpt lat="44.28293885561315" lon="9.66282208621033"><ele>214.0</ele><time>2026-04-26T08:00:09Z</time></trkpt><trkpt lat="44.28303503066739" lon="9.662909610178763"><ele>214.0</ele><time>2026-04-26T08:00:10Z</time></trkpt><trkpt lat="44.283122577084974" lon="9.663009620624251"><ele>211.5</ele><time>2026-04-26T08:00:11Z</time></trkpt><trkpt lat="44.283208182523005" lon="9.663134223624793"><ele>209.0</ele><time>2026-04-26T08:00:12Z</time></trkpt><trkpt lat="44.283285340491034" lon="9.663272983130929"><ele>206.5</ele><time>2026-04-26T08:00:13Z</time></trkpt><trkpt lat="44.28335816446003" lon="9.663411949210383"><ele>204.0</ele><time>2026-04-26T08:00:14Z</time></trkpt><trkpt lat="44.28343814519605" lon="9.663541437274233"><ele>203.5</ele><time>2026-04-26T08:00:15Z</time></trkpt><trkpt lat="44.28351640251964" lon="9.663675974101992"><ele>203.0</ele><time>2026-04-26T08:00:16Z</time></trkpt><trkpt lat="44.28359757407883" lon="9.66381684096629"><ele>202.5</ele><time>2026-04-26T08:00:17Z</time></trkpt><trkpt lat="44.28367812456579" lon="9.663954908215644"><ele>202.0</ele><time>2026-04-26T08:00:18Z</time></trkpt><trkpt lat="44.28375482668837" lon="9.664092166174965"><ele>202.0</ele><time>2026-04-26T08:00:19Z</time></trkpt><trkpt lat="44.28382747196575" lon="9.66421039455163"><ele>202.0</ele><time>2026-04-26T08:00:20Z</time></trkpt><trkpt lat="44.283894125373706" lon="9.664317493864905"><ele>202.0</ele><time>2026-04-26T08:00:21Z</time></trkpt><trkpt lat="44.2839634059876" lon="9.664431939612967"><ele>202.0</ele><time>2026-04-26T08:00:22Z</time></trkpt><trkpt lat="44.284031103710504" lon="9.664554281240079"><ele>202.0</ele><time>2026-04-26T08:00:23Z</time></trkpt><trkpt lat="44.28410167525564" lon="9.664677020091753"><ele>203.0</ele><time>2026-04-26T08:00:24Z</time></trkpt><trkpt lat="44.28417776663559" lon="9.664802605804441"><ele>204.0</ele><time>2026-04-26T08:00:25Z</time></trkpt><trkpt lat="44.28425941467435" lon="9.66492975781691"><ele>205.0</ele><time>2026-04-26T08:00:26Z</time></trkpt><trkpt lat="44.28434394437048" lon="9.665060310396123"><ele>206.0</ele><time>2026-04-26T08:00:27Z</time></trkpt><trkpt lat="44.28442718009105" lon="9.665200467998408"><ele>205.5</ele><time>2026-04-26T08:00:28Z</time></trkpt><trkpt lat="44.284507721872394" lon="9.665339968020447"><ele>205.0</ele><time>2026-04-26T08:00:29Z</time></trkpt><trkpt lat="44.28458972468478" lon="9.66547273156876"><ele>204.5</ele><time>2026-04-26T08:00:30Z</time></trkpt><trkpt lat="44.28467067976606" lon="9.66559920377023"><ele>204.0</ele><time>2026-04-26T08:00:31Z</time></trkpt><trkpt lat="44.2847478810585" lon="9.665726829238015"><ele>205.75</ele><time>2026-04-26T08:00:32Z</time></trkpt><trkpt lat="44.284824870744345" lon="9.665856720888973"><ele>207.5</ele><time>2026-04-26T08:00:33Z</time></trkpt><trkpt lat="44.284893121761094" lon="9.665984496557169"><ele>209.25</ele><time>2026-04-26T08:00:34Z</time></trkpt><trkpt lat="44.284971666222624" lon="9.666120501549491"><ele>211.0</ele><time>2026-04-26T08:00:35Z</time></trkpt><trkpt lat="44.285052461238294" lon="9.666252282322187"><ele>211.0</ele><time>2026-04-26T08:00:36Z</time></trkpt><trkpt lat="44.28513451773636" lon="9.666389604140717"><ele>211.0</ele><time>2026-04-26T08:00:36.999Z</time></trkpt><trkpt lat="44.28522011482595" lon="9.666531770887289"><ele>211.0</ele><time>2026-04-26T08:00:37.999Z</time></trkpt><trkpt lat="44.285305061191366" lon="9.66667184787061"><ele>211.0</ele><time>2026-04-26T08:00:38.999Z</time></trkpt><trkpt lat="44.2853954241681" lon="9.66681330186714"><ele>211.25</ele><time>2026-04-26T08:00:39.999Z</time></trkpt><trkpt lat="44.28547833968408" lon="9.6669547800347"><ele>211.5</ele><time>2026-04-26T08:00:40.999Z</time></trkpt><trkpt lat="44.28555763191691" lon="9.667090902870791"><ele>211.75</ele><time>2026-04-26T08:00:41.999Z</time></trkpt><trkpt lat="44.285636548569066" lon="9.667223360403833"><ele>212.0</ele><time>2026-04-26T08:00:42.999Z</time></trkpt><trkpt lat="44.28571648924457" lon="9.667355952212075"><ele>212.5</ele><time>2026-04-26T08:00:43.999Z</time></trkpt><trkpt lat="44.285800538484054" lon="9.667485438734468"><ele>213.0</ele><time>2026-04-26T08:00:44.999Z</time></trkpt><trkpt lat="44.285900732829816" lon="9.667611126649627"><ele>213.5</ele><time>2026-04-26T08:00:45.999Z</time></trkpt><trkpt lat="44.2859993550502" lon="9.667737660249463"><ele>214.0</ele><time>2026-04-26T08:00:46.999Z</time></trkpt><trkpt lat="44.28610205951354" lon="9.667849987146393"><ele>214.0</ele><time>2026-04-26T08:00:47.999Z</time></trkpt><trkpt lat="44.28620846621384" lon="9.667962499278575"><ele>214.0</ele><time>2026-04-26T08:00:48.999Z</time></trkpt><trkpt lat="44.28631231606057" lon="9.668066335330078"><ele>214.0</ele><time>2026-04-26T08:00:49.999Z</time></trkpt><trkpt lat="44.28641488726638" lon="9.668173689829224"><ele>214.0</ele><time>2026-04-26T08:00:50.999Z</time></trkpt><trkpt lat="44.28652139642732" lon="9.668280085624628"><ele>215.25</ele><time>2026-04-26T08:00:51.999Z</time></trkpt><trkpt lat="44.28662412894639" lon="9.66838615702733"><ele>216.5</ele><time>2026-04-26T08:00:52.999Z</time></trkpt><trkpt lat="44.28673034809246" lon="9.668487777164446"><ele>217.75</ele><time>2026-04-26T08:00:53.999Z</time></trkpt><trkpt lat="44.28683495079839" lon="9.668589796547769"><ele>219.0</ele><time>2026-04-26T08:00:54.999Z</time></trkpt><trkpt lat="44.28693725720758" lon="9.668700929014502"><ele>219.0</ele><time>2026-04-26T08:00:55.999Z</time></trkpt><trkpt lat="44.28703804640517" lon="9.668802454060208"><ele>219.0</ele><time>2026-04-26T08:00:56.999Z</time></trkpt><trkpt lat="44.28714872955992" lon="9.668907611852513"><ele>219.0</ele><time>2026-04-26T08:00:57.999Z</time></trkpt><trkpt lat="44.28725900543994" lon="9.669016199675362"><ele>219.0</ele><time>2026-04-26T08:00:58.999Z</time></trkpt><trkpt lat="44.28735387411387" lon="9.669112919931724"><ele>219.6</ele><time>2026-04-26T08:00:59.999Z</time></trkpt><trkpt lat="44.28743851677265" lon="9.669202862325225"><ele>220.2</ele><time>2026-04-26T08:01:00.999Z</time></trkpt><trkpt lat="44.28751090636456" lon="9.66929410597723"><ele>220.79999999999998</ele><time>2026-04-26T08:01:01.999Z</time></trkpt><trkpt lat="44.28759452368275" lon="9.669380209290152"><ele>221.39999999999998</ele><time>2026-04-26T08:01:02.999Z</time></trkpt><trkpt lat="44.28767484541158" lon="9.66946752703422"><ele>222.0</ele><time>2026-04-26T08:01:03.999Z</time></trkpt><trkpt lat="44.28776166372936" lon="9.669547026096708"><ele>222.2</ele><time>2026-04-26T08:01:04.999Z</time></trkpt><trkpt lat="44.287837928328685" lon="9.669621393107303"><ele>222.39999999999998</ele><time>2026-04-26T08:01:05.999Z</time></trkpt><trkpt lat="44.28792768826888" lon="9.669708201473956"><ele>222.60000000000002</ele><time>2026-04-26T08:01:06.999Z</time></trkpt><trkpt lat="44.28801736781406" lon="9.669813351023205"><ele>222.8</ele><time>2026-04-26T08:01:07.999Z</time></trkpt><trkpt lat="44.2881232069718" lon="9.669908810726646"><ele>223.0</ele><time>2026-04-26T08:01:08.999Z</time></trkpt><trkpt lat="44.28822808826154" lon="9.670027306165009"><ele>223.5</ele><time>2026-04-26T08:01:09.999Z</time></trkpt><trkpt lat="44.28832691958043" lon="9.670138373511376"><ele>224.0</ele><time>2026-04-26T08:01:10.999Z</time></trkpt><trkpt lat="44.288428662047984" lon="9.670237606578361"><ele>224.5</ele><time>2026-04-26T08:01:11.999Z</time></trkpt><trkpt lat="44.28853291922685" lon="9.670336158207538"><ele>225.0</ele><time>2026-04-26T08:01:12.999Z</time></trkpt><trkpt lat="44.28863117366008" lon="9.670434240197986"><ele>225.0</ele><time>2026-04-26T08:01:13.999Z</time></trkpt><trkpt lat="44.2887267616111" lon="9.670546283020009"><ele>225.0</ele><time>2026-04-26T08:01:14.999Z</time></trkpt><trkpt lat="44.28882871292974" lon="9.670650831639396"><ele>225.0</ele><time>2026-04-26T08:01:15.999Z</time></trkpt><trkpt lat="44.28892929940028" lon="9.670749606584007"><ele>225.0</ele><time>2026-04-26T08:01:16.999Z</time></trkpt><trkpt lat="44.289027166738954" lon="9.670848831176725"><ele>225.75</ele><time>2026-04-26T08:01:17.999Z</time></trkpt><trkpt lat="44.28912644691049" lon="9.670948407042337"><ele>226.5</ele><time>2026-04-26T08:01:18.999Z</time></trkpt><trkpt lat="44.289219243277174" lon="9.671044911596166"><ele>227.25</ele><time>2026-04-26T08:01:19.999Z</time></trkpt><trkpt lat="44.28931459353928" lon="9.671141648302429"><ele>228.0</ele><time>2026-04-26T08:01:20.999Z</time></trkpt><trkpt lat="44.28941176515036" lon="9.671242941571046"><ele>228.0</ele><time>2026-04-26T08:01:21.999Z</time></trkpt><trkpt lat="44.28951374790024" lon="9.671343267977019"><ele>228.0</ele><time>2026-04-26T08:01:22.999Z</time></trkpt><trkpt lat="44.289612150267175" lon="9.671438360836218"><ele>228.0</ele><time>2026-04-26T08:01:23.999Z</time></trkpt><trkpt lat="44.28971320736325" lon="9.671540026297375"><ele>228.0</ele><time>2026-04-26T08:01:24.999Z</time></trkpt><trkpt lat="44.2898127442998" lon="9.671643143827309"><ele>228.25</ele><time>2026-04-26T08:01:25.999Z</time></trkpt><trkpt lat="44.289915107744925" lon="9.671744742778476"><ele>228.5</ele><time>2026-04-26T08:01:26.999Z</time></trkpt><trkpt lat="44.290007978537844" lon="9.671844407703446"><ele>228.75</ele><time>2026-04-26T08:01:27.999Z</time></trkpt><trkpt lat="44.29010880845797" lon="9.671948812643226"><ele>229.0</ele><time>2026-04-26T08:01:28.999Z</time></trkpt><trkpt lat="44.29021396294351" lon="9.672054241969208"><ele>229.0</ele><time>2026-04-26T08:01:29.999Z</time></trkpt><trkpt lat="44.29031445747646" lon="9.672159319883368"><ele>229.0</ele><time>2026-04-26T08:01:30.999Z</time></trkpt><trkpt lat="44.290412229578244" lon="9.672261142160197"><ele>229.0</ele><time>2026-04-26T08:01:31.999Z</time></trkpt><trkpt lat="44.2905073946113" lon="9.67236675272674"><ele>229.0</ele><time>2026-04-26T08:01:32.999Z</time></trkpt><trkpt lat="44.290609756999814" lon="9.672473540047957"><ele>229.75</ele><time>2026-04-26T08:01:33.999Z</time></trkpt><trkpt lat="44.29071155749382" lon="9.672573933556722"><ele>230.5</ele><time>2026-04-26T08:01:34.999Z</time></trkpt><trkpt lat="44.290817632254765" lon="9.672671567279549"><ele>231.25</ele><time>2026-04-26T08:01:35.999Z</time></trkpt><trkpt lat="44.290918979634796" lon="9.672771516826767"><ele>232.0</ele><time>2026-04-26T08:01:36.999Z</time></trkpt><trkpt lat="44.29101841991504" lon="9.672868884993438"><ele>232.0</ele><time>2026-04-26T08:01:37.999Z</time></trkpt><trkpt lat="44.29111869814418" lon="9.67297115706737"><ele>232.0</ele><time>2026-04-26T08:01:38.999Z</time></trkpt><trkpt lat="44.29121578405695" lon="9.673070141445773"><ele>232.0</ele><time>2026-04-26T08:01:39.999Z</time></trkpt><trkpt lat="44.29131009840137" lon="9.673162980831881"><ele>232.0</ele><time>2026-04-26T08:01:40.999Z</time></trkpt><trkpt lat="44.29139904244218" lon="9.673251943658693"><ele>233.39999999999998</ele><time>2026-04-26T08:01:41.999Z</time></trkpt><trkpt lat="44.291488818530205" lon="9.67333856844169"><ele>234.79999999999998</ele><time>2026-04-26T08:01:42.999Z</time></trkpt><trkpt lat="44.29157505166904" lon="9.673432402650425"><ele>236.2</ele><time>2026-04-26T08:01:43.999Z</time></trkpt><trkpt lat="44.29166223143424" lon="9.673516575127124"><ele>237.6</ele><time>2026-04-26T08:01:44.999Z</time></trkpt><trkpt lat="44.29173583391371" lon="9.673597724928806"><ele>239.0</ele><time>2026-04-26T08:01:45.999Z</time></trkpt><trkpt lat="44.2918090585982" lon="9.673681420001143"><ele>239.0</ele><time>2026-04-26T08:01:46.999Z</time></trkpt><trkpt lat="44.29189070282987" lon="9.673762855387398"><ele>238.99999999999997</ele><time>2026-04-26T08:01:47.999Z</time></trkpt><trkpt lat="44.2919823402603" lon="9.673847648672265"><ele>238.99999999999997</ele><time>2026-04-26T08:01:48.999Z</time></trkpt><trkpt lat="44.29208285612983" lon="9.673928186904039"><ele>239.0</ele><time>2026-04-26T08:01:49.999Z</time></trkpt><trkpt lat="44.29218175363216" lon="9.674006305655393"><ele>239.0</ele><time>2026-04-26T08:01:50.999Z</time></trkpt><trkpt lat="44.292282866385214" lon="9.674087826994"><ele>240.6</ele><time>2026-04-26T08:01:51.999Z</time></trkpt><trkpt lat="44.29237164932505" lon="9.67415836786752"><ele>242.2</ele><time>2026-04-26T08:01:52.999Z</time></trkpt><trkpt lat="44.29246404754799" lon="9.67422670262272"><ele>243.79999999999998</ele><time>2026-04-26T08:01:53.999Z</time></trkpt><trkpt lat="44.29255246918326" lon="9.674294310485557"><ele>245.39999999999998</ele><time>2026-04-26T08:01:54.999Z</time></trkpt><trkpt lat="44.292642275356194" lon="9.674374729289795"><ele>247.0</ele><time>2026-04-26T08:01:55.999Z</time></trkpt><trkpt lat="44.29273344975669" lon="9.674441327895652"><ele>247.2</ele><time>2026-04-26T08:01:56.999Z</time></trkpt><trkpt lat="44.29281524273089" lon="9.674514078522924"><ele>247.39999999999998</ele><time>2026-04-26T08:01:58Z</time></trkpt><trkpt lat="44.29290247363216" lon="9.67458563054632"><ele>247.60000000000002</ele><time>2026-04-26T08:01:59Z</time></trkpt><trkpt lat="44.29298789823267" lon="9.674661190334813"><ele>247.8</ele><time>2026-04-26T08:02:00Z</time></trkpt><trkpt lat="44.29308010757213" lon="9.674737536273003"><ele>248.0</ele><time>2026-04-26T08:02:01Z</time></trkpt><trkpt lat="44.29317403378859" lon="9.674806880544802"><ele>248.60000000000002</ele><time>2026-04-26T08:02:02Z</time></trkpt><trkpt lat="44.293263477794696" lon="9.674878182110067"><ele>249.20000000000002</ele><time>2026-04-26T08:02:03Z</time></trkpt><trkpt lat="44.29335144296946" lon="9.67495112717142"><ele>249.8</ele><time>2026-04-26T08:02:04Z</time></trkpt><trkpt lat="44.29342612432942" lon="9.675014067917845"><ele>250.4</ele><time>2026-04-26T08:02:05Z</time></trkpt><trkpt lat="44.293488808119974" lon="9.675065912714079"><ele>251.0</ele><time>2026-04-26T08:02:06Z</time></trkpt><trkpt lat="44.29357693664973" lon="9.675147613583727"><ele>251.00000000000003</ele><time>2026-04-26T08:02:08Z</time></trkpt><trkpt lat="44.293666124677294" lon="9.675252621456032"><ele>251.0</ele><time>2026-04-26T08:02:10Z</time></trkpt><trkpt lat="44.29371043451442" lon="9.67531782763389"><ele>251.0</ele><time>2026-04-26T08:02:11Z</time></trkpt><trkpt lat="44.29376081084234" lon="9.67538260386562"><ele>251.0</ele><time>2026-04-26T08:02:12Z</time></trkpt><trkpt lat="44.293823226287515" lon="9.675411414459113"><ele>251.00000000000003</ele><time>2026-04-26T08:02:13Z</time></trkpt><trkpt lat="44.293890144120375" lon="9.6754246984109"><ele>251.0</ele><time>2026-04-26T08:02:14Z</time></trkpt><trkpt lat="44.2939586288938" lon="9.675446993339733"><ele>251.50000000000003</ele><time>2026-04-26T08:02:15Z</time></trkpt><trkpt lat="44.29402354884065" lon="9.675480668682923"><ele>252.0</ele><time>2026-04-26T08:02:16Z</time></trkpt><trkpt lat="44.2940871780155" lon="9.675529681349209"><ele>252.5</ele><time>2026-04-26T08:02:17Z</time></trkpt><trkpt lat="44.29414781542903" lon="9.675599161645582"><ele>253.0</ele><time>2026-04-26T08:02:18Z</time></trkpt><trkpt lat="44.294224231570524" lon="9.675657712973129"><ele>253.50000000000003</ele><time>2026-04-26T08:02:19Z</time></trkpt><trkpt lat="44.294294150539265" lon="9.67571122525136"><ele>254.0</ele><time>2026-04-26T08:02:20Z</time></trkpt><trkpt lat="44.29437771231181" lon="9.675751432175275"><ele>254.0</ele><time>2026-04-26T08:02:21Z</time></trkpt><trkpt lat="44.29445051734701" lon="9.675811652604848"><ele>253.99999999999997</ele><time>2026-04-26T08:02:22Z</time></trkpt><trkpt lat="44.29453127547061" lon="9.675876664525086"><ele>253.99999999999997</ele><time>2026-04-26T08:02:23Z</time></trkpt><trkpt lat="44.29461078264056" lon="9.675944964720587"><ele>254.0</ele><time>2026-04-26T08:02:24Z</time></trkpt><trkpt lat="44.29468654178124" lon="9.676007258618839"><ele>254.0</ele><time>2026-04-26T08:02:25Z</time></trkpt><trkpt lat="44.294771201688874" lon="9.676074165085844"><ele>254.75</ele><time>2026-04-26T08:02:26Z</time></trkpt><trkpt lat="44.29486458073979" lon="9.676153976736655"><ele>255.5</ele><time>2026-04-26T08:02:27Z</time></trkpt><trkpt lat="44.29496565419875" lon="9.676236766981015"><ele>256.25</ele><time>2026-04-26T08:02:28Z</time></trkpt><trkpt lat="44.29506453484613" lon="9.676315438107991"><ele>257.0</ele><time>2026-04-26T08:02:29Z</time></trkpt><trkpt lat="44.29516638778907" lon="9.676392034646994"><ele>257.0</ele><time>2026-04-26T08:02:30Z</time></trkpt><trkpt lat="44.29526741601963" lon="9.676468371256657"><ele>257.0</ele><time>2026-04-26T08:02:31Z</time></trkpt><trkpt lat="44.29536839193628" lon="9.676545861632771"><ele>257.0</ele><time>2026-04-26T08:02:32Z</time></trkpt><trkpt lat="44.29547371894273" lon="9.676624654230828"><ele>257.0</ele><time>2026-04-26T08:02:33Z</time></trkpt><trkpt lat="44.29557846372883" lon="9.676702508769822"><ele>256.75</ele><time>2026-04-26T08:02:34Z</time></trkpt><trkpt lat="44.29568231852424" lon="9.676788330225138"><ele>256.5</ele><time>2026-04-26T08:02:35Z</time></trkpt><trkpt lat="44.295787754614004" lon="9.676873964954092"><ele>256.25</ele><time>2026-04-26T08:02:36Z</time></trkpt><trkpt lat="44.29589339666392" lon="9.676957979637578"><ele>256.0</ele><time>2026-04-26T08:02:37Z</time></trkpt><trkpt lat="44.29600432861636" lon="9.677042473950017"><ele>256.0</ele><time>2026-04-26T08:02:38Z</time></trkpt><trkpt lat="44.29611902509827" lon="9.677130870009135"><ele>256.0</ele><time>2026-04-26T08:02:39Z</time></trkpt><trkpt lat="44.296229400249274" lon="9.677228011170135"><ele>256.0</ele><time>2026-04-26T08:02:40Z</time></trkpt><trkpt lat="44.296334841914344" lon="9.677311873007856"><ele>256.0</ele><time>2026-04-26T08:02:41Z</time></trkpt><trkpt lat="44.29643993704336" lon="9.677393487997362"><ele>256.75</ele><time>2026-04-26T08:02:42Z</time></trkpt><trkpt lat="44.29654847385293" lon="9.677479026063045"><ele>257.5</ele><time>2026-04-26T08:02:43Z</time></trkpt><trkpt lat="44.29666015999398" lon="9.677565561359577"><ele>258.25</ele><time>2026-04-26T08:02:44Z</time></trkpt><trkpt lat="44.296767049938815" lon="9.677644378090784"><ele>259.0</ele><time>2026-04-26T08:02:45Z</time></trkpt><trkpt lat="44.29686247070785" lon="9.67771098017169"><ele>259.8</ele><time>2026-04-26T08:02:46Z</time></trkpt><trkpt lat="44.2969464589009" lon="9.677774973827608"><ele>260.59999999999997</ele><time>2026-04-26T08:02:47Z</time></trkpt><trkpt lat="44.29701267738993" lon="9.677814506936064"><ele>261.4</ele><time>2026-04-26T08:02:48Z</time></trkpt><trkpt lat="44.29715614322921" lon="9.67791278685607"><ele>262.2</ele><time>2026-04-26T08:02:50Z</time></trkpt><trkpt lat="44.29725957541077" lon="9.677982608170897"><ele>263.0</ele><time>2026-04-26T08:02:51Z</time></trkpt><trkpt lat="44.29736270068672" lon="9.67805498424367"><ele>263.0</ele><time>2026-04-26T08:02:52Z</time></trkpt><trkpt lat="44.297468529238984" lon="9.678126781210649"><ele>263.0</ele><time>2026-04-26T08:02:53Z</time></trkpt><trkpt lat="44.297569001728014" lon="9.678190694859184"><ele>263.0</ele><time>2026-04-26T08:02:53.999Z</time></trkpt><trkpt lat="44.29766173912845" lon="9.678247566866782"><ele>263.0</ele><time>2026-04-26T08:02:54.999Z</time></trkpt><trkpt lat="44.29775596502281" lon="9.678314719433711"><ele>263.0</ele><time>2026-04-26T08:02:55.999Z</time></trkpt><trkpt lat="44.29785770191828" lon="9.678384624272002"><ele>263.0</ele><time>2026-04-26T08:02:56.999Z</time></trkpt><trkpt lat="44.29795572040288" lon="9.678440964567246"><ele>263.0</ele><time>2026-04-26T08:02:57.999Z</time></trkpt><trkpt lat="44.298044591412015" lon="9.678496074812625"><ele>263.0</ele><time>2026-04-26T08:02:58.999Z</time></trkpt><trkpt lat="44.29811987897721" lon="9.678550233143444"><ele>263.0</ele><time>2026-04-26T08:02:59.999Z</time></trkpt><trkpt lat="44.298181771016715" lon="9.678605649416472"><ele>263.0</ele><time>2026-04-26T08:03:00.999Z</time></trkpt><trkpt lat="44.29823417757178" lon="9.67866933415485"><ele>263.0</ele><time>2026-04-26T08:03:01.999Z</time></trkpt><trkpt lat="44.29830354956935" lon="9.67878298979696"><ele>264.4</ele><time>2026-04-26T08:03:03.999Z</time></trkpt><trkpt lat="44.298299475942095" lon="9.678977244932083"><ele>265.8</ele><time>2026-04-26T08:03:05.999Z</time></trkpt><trkpt lat="44.298298482011496" lon="9.67907876859378"><ele>267.2</ele><time>2026-04-26T08:03:06.999Z</time></trkpt><trkpt lat="44.298307929360284" lon="9.67920721572451"><ele>268.6</ele><time>2026-04-26T08:03:07.999Z</time></trkpt><trkpt lat="44.29831651275027" lon="9.679331089172347"><ele>270.0</ele><time>2026-04-26T08:03:08.999Z</time></trkpt><trkpt lat="44.2983332568746" lon="9.679460163028331"><ele>270.4</ele><time>2026-04-26T08:03:09.999Z</time></trkpt><trkpt lat="44.29834045687245" lon="9.67957773999368"><ele>270.8</ele><time>2026-04-26T08:03:10.999Z</time></trkpt><trkpt lat="44.298297117736354" lon="9.679690500671283"><ele>271.2</ele><time>2026-04-26T08:03:11.999Z</time></trkpt><trkpt lat="44.29824052412123" lon="9.679784031403319"><ele>271.6</ele><time>2026-04-26T08:03:12.999Z</time></trkpt><trkpt lat="44.298148489657954" lon="9.679833175368861"><ele>272.0</ele><time>2026-04-26T08:03:13.999Z</time></trkpt><trkpt lat="44.298060712342505" lon="9.679912708928102"><ele>273.4</ele><time>2026-04-26T08:03:14.999Z</time></trkpt><trkpt lat="44.297965913388374" lon="9.679975755817308"><ele>274.79999999999995</ele><time>2026-04-26T08:03:15.999Z</time></trkpt><trkpt lat="44.29788511795762" lon="9.680045690887848"><ele>276.2</ele><time>2026-04-26T08:03:16.999Z</time></trkpt><trkpt lat="44.297811335791636" lon="9.680105474717763"><ele>277.59999999999997</ele><time>2026-04-26T08:03:17.999Z</time></trkpt><trkpt lat="44.29772640518974" lon="9.680121307014858"><ele>279.0</ele><time>2026-04-26T08:03:18.999Z</time></trkpt><trkpt lat="44.29763632895428" lon="9.680044835379285"><ele>279.0</ele><time>2026-04-26T08:03:19.999Z</time></trkpt><trkpt lat="44.29754047448122" lon="9.679981324912129"><ele>279.0</ele><time>2026-04-26T08:03:20.999Z</time></trkpt><trkpt lat="44.2974443581826" lon="9.679922233476889"><ele>279.0</ele><time>2026-04-26T08:03:21.999Z</time></trkpt><trkpt lat="44.29734966060155" lon="9.679916780596388"><ele>279.0</ele><time>2026-04-26T08:03:22.999Z</time></trkpt><trkpt lat="44.29725460997371" lon="9.679944489013462"><ele>279.0</ele><time>2026-04-26T08:03:23.999Z</time></trkpt><trkpt lat="44.29717079581638" lon="9.679976071590087"><ele>280.6666666666667</ele><time>2026-04-26T08:03:24.999Z</time></trkpt><trkpt lat="44.297092101251486" lon="9.6800018567326"><ele>282.3333333333333</ele><time>2026-04-26T08:03:25.999Z</time></trkpt><trkpt lat="44.29701508689616" lon="9.680025177350105"><ele>284.0</ele><time>2026-04-26T08:03:26.999Z</time></trkpt><trkpt lat="44.296934903738205" lon="9.680038565423823"><ele>285.66666666666663</ele><time>2026-04-26T08:03:27.999Z</time></trkpt><trkpt lat="44.296844524228675" lon="9.6800495798894"><ele>287.3333333333333</ele><time>2026-04-26T08:03:28.999Z</time></trkpt><trkpt lat="44.29674623847027" lon="9.680054776571932"><ele>289.0</ele><time>2026-04-26T08:03:29.999Z</time></trkpt><trkpt lat="44.29664207029215" lon="9.680027487993897"><ele>289.0</ele><time>2026-04-26T08:03:30.999Z</time></trkpt><trkpt lat="44.296532020155" lon="9.679977007097852"><ele>289.0</ele><time>2026-04-26T08:03:31.999Z</time></trkpt><trkpt lat="44.296425387618505" lon="9.679898868627724"><ele>289.0</ele><time>2026-04-26T08:03:32.999Z</time></trkpt><trkpt lat="44.29631354044512" lon="9.679812869716526"><ele>289.0</ele><time>2026-04-26T08:03:33.999Z</time></trkpt><trkpt lat="44.29619925293797" lon="9.679757305266072"><ele>290.8</ele><time>2026-04-26T08:03:34.999Z</time></trkpt><trkpt lat="44.296089932670526" lon="9.679733579799914"><ele>292.59999999999997</ele><time>2026-04-26T08:03:35.999Z</time></trkpt><trkpt lat="44.29598490773467" lon="9.679733354571484"><ele>294.4</ele><time>2026-04-26T08:03:36.999Z</time></trkpt><trkpt lat="44.29588981845059" lon="9.679774234488955"><ele>296.2</ele><time>2026-04-26T08:03:37.999Z</time></trkpt><trkpt lat="44.295798595842825" lon="9.679874135577379"><ele>298.0</ele><time>2026-04-26T08:03:38.999Z</time></trkpt><trkpt lat="44.29571332913275" lon="9.68001072552177"><ele>298.0</ele><time>2026-04-26T08:03:39.999Z</time></trkpt><trkpt lat="44.29560823533844" lon="9.680102397328184"><ele>298.0</ele><time>2026-04-26T08:03:40.999Z</time></trkpt><trkpt lat="44.29547682031444" lon="9.680138359149595"><ele>298.0</ele><time>2026-04-26T08:03:41.999Z</time></trkpt><trkpt lat="44.295327944948035" lon="9.680146532435888"><ele>298.0</ele><time>2026-04-26T08:03:42.999Z</time></trkpt><trkpt lat="44.29519648157004" lon="9.680161311600978"><ele>296.5</ele><time>2026-04-26T08:03:43.999Z</time></trkpt><trkpt lat="44.29507750999412" lon="9.680177911438415"><ele>295.0</ele><time>2026-04-26T08:03:44.999Z</time></trkpt><trkpt lat="44.29495210073159" lon="9.680209917491045"><ele>293.5</ele><time>2026-04-26T08:03:45.999Z</time></trkpt><trkpt lat="44.294847387905236" lon="9.680269719316136"><ele>292.0</ele><time>2026-04-26T08:03:46.999Z</time></trkpt><trkpt lat="44.29473984200436" lon="9.680351660300673"><ele>301.25</ele><time>2026-04-26T08:03:47.999Z</time></trkpt><trkpt lat="44.29462004560419" lon="9.680387720955311"><ele>310.5</ele><time>2026-04-26T08:03:48.999Z</time></trkpt><trkpt lat="44.29449312181954" lon="9.680391049625305"><ele>319.75</ele><time>2026-04-26T08:03:49.999Z</time></trkpt><trkpt lat="44.294364765980134" lon="9.68039036055817"><ele>329.0</ele><time>2026-04-26T08:03:50.999Z</time></trkpt><trkpt lat="44.294234928969374" lon="9.680441248869787"><ele>329.0</ele><time>2026-04-26T08:03:51.999Z</time></trkpt><trkpt lat="44.29410646728928" lon="9.680478359185027"><ele>329.0</ele><time>2026-04-26T08:03:52.999Z</time></trkpt><trkpt lat="44.29396977391435" lon="9.680477865784395"><ele>329.0</ele><time>2026-04-26T08:03:53.999Z</time></trkpt><trkpt lat="44.293833602700815" lon="9.680459017597354"><ele>329.0</ele><time>2026-04-26T08:03:54.999Z</time></trkpt><trkpt lat="44.293707067099916" lon="9.680440689212796"><ele>329.5</ele><time>2026-04-26T08:03:55.999Z</time></trkpt><trkpt lat="44.29357785997529" lon="9.680394170090958"><ele>330.0</ele><time>2026-04-26T08:03:56.999Z</time></trkpt><trkpt lat="44.29345172827942" lon="9.680343722467551"><ele>330.5</ele><time>2026-04-26T08:03:57.999Z</time></trkpt><trkpt lat="44.293340748183894" lon="9.680280451082124"><ele>331.0</ele><time>2026-04-26T08:03:58.999Z</time></trkpt><trkpt lat="44.29322990458339" lon="9.680236647384788"><ele>329.5</ele><time>2026-04-26T08:03:59.999Z</time></trkpt><trkpt lat="44.293123827679" lon="9.68022841987116"><ele>328.0</ele><time>2026-04-26T08:04:00.999Z</time></trkpt><trkpt lat="44.29301491963626" lon="9.680257679448927"><ele>326.5</ele><time>2026-04-26T08:04:01.999Z</time></trkpt><trkpt lat="44.29290872654505" lon="9.680334264100866"><ele>325.0</ele><time>2026-04-26T08:04:02.999Z</time></trkpt><trkpt lat="44.29281393074174" lon="9.680475281381481"><ele>325.0</ele><time>2026-04-26T08:04:04Z</time></trkpt><trkpt lat="44.29274480467924" lon="9.680631207174255"><ele>325.0</ele><time>2026-04-26T08:04:05Z</time></trkpt><trkpt lat="44.29268648143618" lon="9.680774111647729"><ele>325.0</ele><time>2026-04-26T08:04:06Z</time></trkpt><trkpt lat="44.29260865407256" lon="9.680873673469707"><ele>325.0</ele><time>2026-04-26T08:04:07Z</time></trkpt><trkpt lat="44.29252365208759" lon="9.680946630514585"><ele>325.0</ele><time>2026-04-26T08:04:08Z</time></trkpt><trkpt lat="44.292446517937414" lon="9.681000165776206"><ele>325.0</ele><time>2026-04-26T08:04:09Z</time></trkpt><trkpt lat="44.29236258369316" lon="9.681002079014396"><ele>325.0</ele><time>2026-04-26T08:04:10Z</time></trkpt><trkpt lat="44.29225816175828" lon="9.680883855884291"><ele>325.0</ele><time>2026-04-26T08:04:11Z</time></trkpt><trkpt lat="44.2921694357897" lon="9.680820514696503"><ele>325.0</ele><time>2026-04-26T08:04:12Z</time></trkpt><trkpt lat="44.29205954110029" lon="9.680780106059508"><ele>325.25</ele><time>2026-04-26T08:04:13Z</time></trkpt><trkpt lat="44.2919434575602" lon="9.680806405361722"><ele>325.5</ele><time>2026-04-26T08:04:14Z</time></trkpt><trkpt lat="44.29181925120786" lon="9.68087253821837"><ele>325.75</ele><time>2026-04-26T08:04:15Z</time></trkpt><trkpt lat="44.29169980098127" lon="9.68093867218355"><ele>326.0</ele><time>2026-04-26T08:04:16Z</time></trkpt><trkpt lat="44.291587772335745" lon="9.680986034845658"><ele>326.0</ele><time>2026-04-26T08:04:17Z</time></trkpt><trkpt lat="44.29148073011192" lon="9.681018848490615"><ele>326.0</ele><time>2026-04-26T08:04:18Z</time></trkpt><trkpt lat="44.29138570608197" lon="9.68102979862702"><ele>326.0</ele><time>2026-04-26T08:04:19Z</time></trkpt><trkpt lat="44.29129802554672" lon="9.680991743646407"><ele>326.0</ele><time>2026-04-26T08:04:20Z</time></trkpt><trkpt lat="44.29122861904658" lon="9.680904952806507"><ele>326.0</ele><time>2026-04-26T08:04:21Z</time></trkpt><trkpt lat="44.29118282611171" lon="9.68076568844288"><ele>327.6</ele><time>2026-04-26T08:04:22Z</time></trkpt><trkpt lat="44.291131695689124" lon="9.680643393227518"><ele>329.20000000000005</ele><time>2026-04-26T08:04:23Z</time></trkpt><trkpt lat="44.291065029373755" lon="9.680575804645065"><ele>330.79999999999995</ele><time>2026-04-26T08:04:24Z</time></trkpt><trkpt lat="44.29096067914001" lon="9.680582518791583"><ele>332.4</ele><time>2026-04-26T08:04:25Z</time></trkpt><trkpt lat="44.29086042651797" lon="9.680643367011863"><ele>334.0</ele><time>2026-04-26T08:04:26Z</time></trkpt><trkpt lat="44.29076183073744" lon="9.680685189459592"><ele>334.0</ele><time>2026-04-26T08:04:27Z</time></trkpt><trkpt lat="44.290673394046195" lon="9.68066304314124"><ele>334.0</ele><time>2026-04-26T08:04:28Z</time></trkpt><trkpt lat="44.2905844814247" lon="9.680572402508538"><ele>334.0</ele><time>2026-04-26T08:04:29Z</time></trkpt><trkpt lat="44.29051643700012" lon="9.680436696178461"><ele>334.0</ele><time>2026-04-26T08:04:30Z</time></trkpt><trkpt lat="44.29043095602576" lon="9.68034015405441"><ele>334.0</ele><time>2026-04-26T08:04:31Z</time></trkpt><trkpt lat="44.290324482560735" lon="9.680300373706295"><ele>334.0</ele><time>2026-04-26T08:04:32Z</time></trkpt><trkpt lat="44.29019787853266" lon="9.68029408949758"><ele>334.0</ele><time>2026-04-26T08:04:33Z</time></trkpt><trkpt lat="44.290077473362594" lon="9.68025539664653"><ele>334.0</ele><time>2026-04-26T08:04:34Z</time></trkpt><trkpt lat="44.289959368316694" lon="9.68021264338549"><ele>334.0</ele><time>2026-04-26T08:04:35Z</time></trkpt><trkpt lat="44.28985770970629" lon="9.68018511976629"><ele>334.0</ele><time>2026-04-26T08:04:36Z</time></trkpt><trkpt lat="44.289770271924525" lon="9.680186183412179"><ele>334.0</ele><time>2026-04-26T08:04:37Z</time></trkpt><trkpt lat="44.28968204177283" lon="9.680246041918515"><ele>334.0</ele><time>2026-04-26T08:04:38Z</time></trkpt><trkpt lat="44.28961822241569" lon="9.6803771658866"><ele>334.0</ele><time>2026-04-26T08:04:39Z</time></trkpt><trkpt lat="44.289562056690556" lon="9.6805335952806"><ele>334.0</ele><time>2026-04-26T08:04:40Z</time></trkpt><trkpt lat="44.28951535703266" lon="9.68071279360954"><ele>336.75</ele><time>2026-04-26T08:04:41Z</time></trkpt><trkpt lat="44.28944992092089" lon="9.68087242877967"><ele>339.5</ele><time>2026-04-26T08:04:42Z</time></trkpt><trkpt lat="44.28940402069548" lon="9.681035567546974"><ele>342.25</ele><time>2026-04-26T08:04:43Z</time></trkpt><trkpt lat="44.28934945246563" lon="9.681180248692595"><ele>345.0</ele><time>2026-04-26T08:04:44Z</time></trkpt><trkpt lat="44.28929384942798" lon="9.681298866542502"><ele>346.2</ele><time>2026-04-26T08:04:45Z</time></trkpt><trkpt lat="44.28922583681072" lon="9.681397650434517"><ele>347.4</ele><time>2026-04-26T08:04:46Z</time></trkpt><trkpt lat="44.28912733599914" lon="9.681473339660972"><ele>348.6</ele><time>2026-04-26T08:04:47Z</time></trkpt><trkpt lat="44.28901634280263" lon="9.681458891477135"><ele>349.8</ele><time>2026-04-26T08:04:48Z</time></trkpt><trkpt lat="44.288910109331816" lon="9.681443979589336"><ele>351.0</ele><time>2026-04-26T08:04:49Z</time></trkpt><trkpt lat="44.28881618372881" lon="9.681438737238686"><ele>351.0</ele><time>2026-04-26T08:04:50Z</time></trkpt><trkpt lat="44.288752952401055" lon="9.68149857907459"><ele>351.0</ele><time>2026-04-26T08:04:51Z</time></trkpt><trkpt lat="44.28871989871088" lon="9.681628256804105"><ele>351.0</ele><time>2026-04-26T08:04:52Z</time></trkpt><trkpt lat="44.28874772257117" lon="9.681761236337271"><ele>351.0</ele><time>2026-04-26T08:04:53Z</time></trkpt><trkpt lat="44.288813729311116" lon="9.681862410262227"><ele>351.0</ele><time>2026-04-26T08:04:54Z</time></trkpt><trkpt lat="44.28890942944418" lon="9.68190366666583"><ele>354.5</ele><time>2026-04-26T08:04:55Z</time></trkpt><trkpt lat="44.28902480785814" lon="9.681873683066136"><ele>358.0</ele><time>2026-04-26T08:04:56Z</time></trkpt><trkpt lat="44.289141426596636" lon="9.681818138811078"><ele>361.5</ele><time>2026-04-26T08:04:57Z</time></trkpt><trkpt lat="44.28926934784082" lon="9.68177765439554"><ele>365.0</ele><time>2026-04-26T08:04:58Z</time></trkpt><trkpt lat="44.289367185153836" lon="9.681755073931058"><ele>365.0</ele><time>2026-04-26T08:04:59Z</time></trkpt><trkpt lat="44.28951914539744" lon="9.681730475731399"><ele>365.0</ele><time>2026-04-26T08:05:00Z</time></trkpt><trkpt lat="44.28964810556193" lon="9.681719239392566"><ele>365.0</ele><time>2026-04-26T08:05:01Z</time></trkpt><trkpt lat="44.289733409789264" lon="9.681722148243646"><ele>365.0</ele><time>2026-04-26T08:05:01.999Z</time></trkpt><trkpt lat="44.289800720885296" lon="9.681761795755513"><ele>365.0</ele><time>2026-04-26T08:05:02.999Z</time></trkpt><trkpt lat="44.2898680598907" lon="9.681836901140246"><ele>367.8</ele><time>2026-04-26T08:05:03.999Z</time></trkpt><trkpt lat="44.289877111496104" lon="9.681968179268258"><ele>370.6</ele><time>2026-04-26T08:05:04.999Z</time></trkpt><trkpt lat="44.289829596533735" lon="9.682093578894582"><ele>373.4</ele><time>2026-04-26T08:05:05.999Z</time></trkpt><trkpt lat="44.28974581358615" lon="9.682181003764342"><ele>376.2</ele><time>2026-04-26T08:05:06.999Z</time></trkpt><trkpt lat="44.28962271666851" lon="9.682204149789886"><ele>379.0</ele><time>2026-04-26T08:05:07.999Z</time></trkpt><trkpt lat="44.289501618167655" lon="9.682186816471416"><ele>380.5</ele><time>2026-04-26T08:05:08.999Z</time></trkpt><trkpt lat="44.28937853526325" lon="9.682128705715133"><ele>382.0</ele><time>2026-04-26T08:05:09.999Z</time></trkpt><trkpt lat="44.28927318892334" lon="9.682088592169665"><ele>383.5</ele><time>2026-04-26T08:05:10.999Z</time></trkpt><trkpt lat="44.28917115156777" lon="9.682107291121381"><ele>385.0</ele><time>2026-04-26T08:05:11.999Z</time></trkpt><trkpt lat="44.28907628405416" lon="9.68219825969865"><ele>385.0</ele><time>2026-04-26T08:05:12.999Z</time></trkpt><trkpt lat="44.288967533445735" lon="9.682268407308138"><ele>385.0</ele><time>2026-04-26T08:05:13.999Z</time></trkpt><trkpt lat="44.288881674097695" lon="9.682359293920543"><ele>385.0</ele><time>2026-04-26T08:05:14.999Z</time></trkpt><trkpt lat="44.288822506319605" lon="9.68248271097715"><ele>385.0</ele><time>2026-04-26T08:05:15.999Z</time></trkpt><trkpt lat="44.28878702980366" lon="9.682636539370597"><ele>386.25</ele><time>2026-04-26T08:05:16.999Z</time></trkpt><trkpt lat="44.288758000709414" lon="9.682807823030554"><ele>387.5</ele><time>2026-04-26T08:05:17.999Z</time></trkpt><trkpt lat="44.288757215309225" lon="9.68298385034756"><ele>388.75</ele><time>2026-04-26T08:05:18.999Z</time></trkpt><trkpt lat="44.288742977772834" lon="9.68317290049606"><ele>390.0</ele><time>2026-04-26T08:05:19.999Z</time></trkpt><trkpt lat="44.28873021037361" lon="9.683343860034949"><ele>390.0</ele><time>2026-04-26T08:05:20.999Z</time></trkpt><trkpt lat="44.288721706773025" lon="9.683497011335314"><ele>390.0</ele><time>2026-04-26T08:05:21.999Z</time></trkpt><trkpt lat="44.28870705182303" lon="9.683641209993787"><ele>390.0</ele><time>2026-04-26T08:05:22.999Z</time></trkpt><trkpt lat="44.28870580034112" lon="9.683761928082443"><ele>390.0</ele><time>2026-04-26T08:05:23.999Z</time></trkpt><trkpt lat="44.28867418713873" lon="9.683856969740754"><ele>390.0</ele><time>2026-04-26T08:05:24.999Z</time></trkpt><trkpt lat="44.28862793064853" lon="9.683937031214759"><ele>390.0</ele><time>2026-04-26T08:05:25.999Z</time></trkpt><trkpt lat="44.28853731174335" lon="9.683943064557088"><ele>391.4</ele><time>2026-04-26T08:05:26.999Z</time></trkpt><trkpt lat="44.288445083334665" lon="9.683847546965685"><ele>392.8</ele><time>2026-04-26T08:05:27.999Z</time></trkpt><trkpt lat="44.28834843857404" lon="9.683776633367849"><ele>394.20000000000005</ele><time>2026-04-26T08:05:28.999Z</time></trkpt><trkpt lat="44.28826887675081" lon="9.683761587121626"><ele>395.6</ele><time>2026-04-26T08:05:29.999Z</time></trkpt><trkpt lat="44.28820347190207" lon="9.683842198348843"><ele>397.0</ele><time>2026-04-26T08:05:30.999Z</time></trkpt><trkpt lat="44.2881734900777" lon="9.683970881973345"><ele>397.0</ele><time>2026-04-26T08:05:31.999Z</time></trkpt><trkpt lat="44.28819563476481" lon="9.684108795326908"><ele>397.0</ele><time>2026-04-26T08:05:32.999Z</time></trkpt><trkpt lat="44.28825632408509" lon="9.684213732066244"><ele>397.0</ele><time>2026-04-26T08:05:33.999Z</time></trkpt><trkpt lat="44.288338067196094" lon="9.684271571119197"><ele>397.0</ele><time>2026-04-26T08:05:34.999Z</time></trkpt><trkpt lat="44.288454523838574" lon="9.684206902477069"><ele>397.0</ele><time>2026-04-26T08:05:35.999Z</time></trkpt><trkpt lat="44.28854916072309" lon="9.684188244966238"><ele>397.0</ele><time>2026-04-26T08:05:36.999Z</time></trkpt><trkpt lat="44.288643726903246" lon="9.684232561531909"><ele>397.0</ele><time>2026-04-26T08:05:37.999Z</time></trkpt><trkpt lat="44.288753020249715" lon="9.684299916131858"><ele>397.0</ele><time>2026-04-26T08:05:38.999Z</time></trkpt><trkpt lat="44.28886911854181" lon="9.684376206449633"><ele>397.0</ele><time>2026-04-26T08:05:39.999Z</time></trkpt><trkpt lat="44.28895852940157" lon="9.684426735352496"><ele>397.0</ele><time>2026-04-26T08:05:40.999Z</time></trkpt><trkpt lat="44.289049062334264" lon="9.684409838255368"><ele>403.0</ele><time>2026-04-26T08:05:41.999Z</time></trkpt><trkpt lat="44.2891344334555" lon="9.684365131992235"><ele>409.0</ele><time>2026-04-26T08:05:42.999Z</time></trkpt><trkpt lat="44.28917555175963" lon="9.684206646701451"><ele>415.00000000000006</ele><time>2026-04-26T08:05:43.999Z</time></trkpt><trkpt lat="44.28917681556253" lon="9.684034016246946"><ele>421.0</ele><time>2026-04-26T08:05:44.999Z</time></trkpt><trkpt lat="44.28914315067741" lon="9.683886185150946"><ele>427.0</ele><time>2026-04-26T08:05:45.999Z</time></trkpt><trkpt lat="44.28912010884064" lon="9.68376469522432"><ele>427.0</ele><time>2026-04-26T08:05:46.999Z</time></trkpt><trkpt lat="44.289158295417195" lon="9.68363207223541"><ele>427.00000000000006</ele><time>2026-04-26T08:05:47.999Z</time></trkpt><trkpt lat="44.28922765163498" lon="9.683523736158845"><ele>427.00000000000006</ele><time>2026-04-26T08:05:48.999Z</time></trkpt><trkpt lat="44.289306604049" lon="9.683417779196882"><ele>427.0</ele><time>2026-04-26T08:05:49.999Z</time></trkpt><trkpt lat="44.289375361806584" lon="9.683358519152266"><ele>427.0</ele><time>2026-04-26T08:05:50.999Z</time></trkpt><trkpt lat="44.28944367556286" lon="9.683337400157322"><ele>427.0</ele><time>2026-04-26T08:05:51.999Z</time></trkpt><trkpt lat="44.289513943496516" lon="9.683364299697667"><ele>427.00000000000006</ele><time>2026-04-26T08:05:52.999Z</time></trkpt><trkpt lat="44.289554301305806" lon="9.683482311201486"><ele>427.00000000000006</ele><time>2026-04-26T08:05:53.999Z</time></trkpt><trkpt lat="44.28953112372788" lon="9.68360130451124"><ele>427.0</ele><time>2026-04-26T08:05:54.999Z</time></trkpt><trkpt lat="44.289464840902134" lon="9.683693695586339"><ele>427.0</ele><time>2026-04-26T08:05:55.999Z</time></trkpt><trkpt lat="44.28938204366996" lon="9.683791723925799"><ele>427.0</ele><time>2026-04-26T08:05:56.999Z</time></trkpt><trkpt lat="44.28932537776994" lon="9.683895104164355"><ele>427.00000000000006</ele><time>2026-04-26T08:05:57.999Z</time></trkpt><trkpt lat="44.289335110439204" lon="9.684020357903632"><ele>427.00000000000006</ele><time>2026-04-26T08:05:58.999Z</time></trkpt><trkpt lat="44.28938654313264" lon="9.684158220256759"><ele>427.0</ele><time>2026-04-26T08:05:59.999Z</time></trkpt><trkpt lat="44.28940132048309" lon="9.684329630993693"><ele>427.0</ele><time>2026-04-26T08:06:00.999Z</time></trkpt><trkpt lat="44.28933693357832" lon="9.68449962303448"><ele>432.0</ele><time>2026-04-26T08:06:01.999Z</time></trkpt><trkpt lat="44.28930947745189" lon="9.68465399458614"><ele>437.0</ele><time>2026-04-26T08:06:02.999Z</time></trkpt><trkpt lat="44.28924566801948" lon="9.684782991112687"><ele>442.0</ele><time>2026-04-26T08:06:03.999Z</time></trkpt><trkpt lat="44.28914631690764" lon="9.684883078990747"><ele>447.0</ele><time>2026-04-26T08:06:04.999Z</time></trkpt><trkpt lat="44.28903175464117" lon="9.684946699820596"><ele>447.0</ele><time>2026-04-26T08:06:05.999Z</time></trkpt><trkpt lat="44.288927135798104" lon="9.684965837946407"><ele>447.0</ele><time>2026-04-26T08:06:06.999Z</time></trkpt><trkpt lat="44.28882829671762" lon="9.684974156439756"><ele>447.0</ele><time>2026-04-26T08:06:07.999Z</time></trkpt><trkpt lat="44.2887680693226" lon="9.685036787549745"><ele>447.0</ele><time>2026-04-26T08:06:08.999Z</time></trkpt><trkpt lat="44.288750430737096" lon="9.685145955513848"><ele>447.0</ele><time>2026-04-26T08:06:10Z</time></trkpt><trkpt lat="44.28876333174722" lon="9.685253536707885"><ele>447.0</ele><time>2026-04-26T08:06:11Z</time></trkpt><trkpt lat="44.28884164690083" lon="9.685345955340944"><ele>447.0</ele><time>2026-04-26T08:06:12Z</time></trkpt><trkpt lat="44.28895121790978" lon="9.685358361354247"><ele>447.00000000000006</ele><time>2026-04-26T08:06:13Z</time></trkpt><trkpt lat="44.289052025548536" lon="9.685273703386345"><ele>447.00000000000006</ele><time>2026-04-26T08:06:14Z</time></trkpt><trkpt lat="44.289134088163735" lon="9.68518123978842"><ele>447.0</ele><time>2026-04-26T08:06:15Z</time></trkpt><trkpt lat="44.289223649521865" lon="9.68510417556823"><ele>447.0</ele><time>2026-04-26T08:06:16Z</time></trkpt><trkpt lat="44.28932815621077" lon="9.685030421289573"><ele>447.0</ele><time>2026-04-26T08:06:17Z</time></trkpt><trkpt lat="44.28941952057888" lon="9.684965957559081"><ele>447.00000000000006</ele><time>2026-04-26T08:06:18Z</time></trkpt><trkpt lat="44.28950176057716" lon="9.684901374380834"><ele>447.00000000000006</ele><time>2026-04-26T08:06:19Z</time></trkpt><trkpt lat="44.289571976306284" lon="9.684790591460333"><ele>447.0</ele><time>2026-04-26T08:06:20Z</time></trkpt><trkpt lat="44.28961651596309" lon="9.684661094761728"><ele>447.0</ele><time>2026-04-26T08:06:21Z</time></trkpt><trkpt lat="44.289662571463396" lon="9.684543671337078"><ele>447.0</ele><time>2026-04-26T08:06:22Z</time></trkpt><trkpt lat="44.289714088871406" lon="9.6844692264159"><ele>447.00000000000006</ele><time>2026-04-26T08:06:23Z</time></trkpt><trkpt lat="44.289795731527676" lon="9.684470595745035"><ele>447.00000000000006</ele><time>2026-04-26T08:06:24Z</time></trkpt><trkpt lat="44.289866928465315" lon="9.68454949407909"><ele>447.0</ele><time>2026-04-26T08:06:25Z</time></trkpt><trkpt lat="44.28986127066523" lon="9.684707253614308"><ele>447.0</ele><time>2026-04-26T08:06:26Z</time></trkpt><trkpt lat="44.289889789726274" lon="9.684857886296191"><ele>448.6</ele><time>2026-04-26T08:06:27Z</time></trkpt><trkpt lat="44.2899178160534" lon="9.685012402918344"><ele>450.20000000000005</ele><time>2026-04-26T08:06:28Z</time></trkpt><trkpt lat="44.28995656920573" lon="9.685149090553217"><ele>451.8</ele><time>2026-04-26T08:06:29Z</time></trkpt><trkpt lat="44.2899553436288" lon="9.685283504440385"><ele>453.4</ele><time>2026-04-26T08:06:30Z</time></trkpt><trkpt lat="44.28992910522985" lon="9.685432711642955"><ele>455.0</ele><time>2026-04-26T08:06:31Z</time></trkpt><trkpt lat="44.28983654899133" lon="9.685551320821343"><ele>457.5</ele><time>2026-04-26T08:06:32Z</time></trkpt><trkpt lat="44.28981132764513" lon="9.685674486838195"><ele>460.0</ele><time>2026-04-26T08:06:33Z</time></trkpt><trkpt lat="44.289822171286254" lon="9.685853748005615"><ele>462.5</ele><time>2026-04-26T08:06:34Z</time></trkpt><trkpt lat="44.289841196531974" lon="9.686025375030283"><ele>465.0</ele><time>2026-04-26T08:06:35Z</time></trkpt><trkpt lat="44.28983208194921" lon="9.686190805214416"><ele>466.25</ele><time>2026-04-26T08:06:36Z</time></trkpt><trkpt lat="44.289846431734205" lon="9.686368969185702"><ele>467.5</ele><time>2026-04-26T08:06:37Z</time></trkpt><trkpt lat="44.28987461935465" lon="9.686529914809647"><ele>468.75</ele><time>2026-04-26T08:06:38Z</time></trkpt><trkpt lat="44.289882377624295" lon="9.68668156388149"><ele>470.0</ele><time>2026-04-26T08:06:39Z</time></trkpt><trkpt lat="44.28990371674884" lon="9.686822623327881"><ele>470.66666666666663</ele><time>2026-04-26T08:06:40Z</time></trkpt><trkpt lat="44.28992617264864" lon="9.686944581786266"><ele>471.3333333333333</ele><time>2026-04-26T08:06:41Z</time></trkpt><trkpt lat="44.28994479538107" lon="9.687048913437046"><ele>472.0</ele><time>2026-04-26T08:06:42Z</time></trkpt><trkpt lat="44.28996553507689" lon="9.687144402618463"><ele>472.66666666666663</ele><time>2026-04-26T08:06:43Z</time></trkpt><trkpt lat="44.28996567586939" lon="9.68724042663577"><ele>473.3333333333333</ele><time>2026-04-26T08:06:44Z</time></trkpt><trkpt lat="44.289876712338234" lon="9.687323828744026"><ele>474.0</ele><time>2026-04-26T08:06:45Z</time></trkpt><trkpt lat="44.28983502071166" lon="9.6874600144215"><ele>474.0</ele><time>2026-04-26T08:06:46Z</time></trkpt><trkpt lat="44.28981197072541" lon="9.687601534867166"><ele>474.0</ele><time>2026-04-26T08:06:47Z</time></trkpt><trkpt lat="44.28983470110011" lon="9.687778904133237"><ele>474.0</ele><time>2026-04-26T08:06:48Z</time></trkpt><trkpt lat="44.28984289522156" lon="9.687979729999762"><ele>474.0</ele><time>2026-04-26T08:06:49Z</time></trkpt><trkpt lat="44.28981796632419" lon="9.688149503287915"><ele>476.5</ele><time>2026-04-26T08:06:50Z</time></trkpt><trkpt lat="44.28979046533156" lon="9.688297501890318"><ele>479.0</ele><time>2026-04-26T08:06:51Z</time></trkpt><trkpt lat="44.289790917106046" lon="9.688453233940468"><ele>481.5</ele><time>2026-04-26T08:06:52Z</time></trkpt><trkpt lat="44.28982440718332" lon="9.688615364449925"><ele>484.0</ele><time>2026-04-26T08:06:53Z</time></trkpt><trkpt lat="44.28984409475357" lon="9.688790479575403"><ele>486.5</ele><time>2026-04-26T08:06:54Z</time></trkpt><trkpt lat="44.28987114196586" lon="9.688955374480432"><ele>489.0</ele><time>2026-04-26T08:06:55Z</time></trkpt><trkpt lat="44.28988697249141" lon="9.689119194301917"><ele>491.5</ele><time>2026-04-26T08:06:56Z</time></trkpt><trkpt lat="44.289904952474934" lon="9.689284123936321"><ele>494.0</ele><time>2026-04-26T08:06:57Z</time></trkpt><trkpt lat="44.28990866108597" lon="9.689440647203577"><ele>497.0</ele><time>2026-04-26T08:06:58Z</time></trkpt><trkpt lat="44.28988183563024" lon="9.689599332505802"><ele>500.0</ele><time>2026-04-26T08:06:59Z</time></trkpt><trkpt lat="44.28981744889905" lon="9.689763439461649"><ele>503.0</ele><time>2026-04-26T08:07:00Z</time></trkpt><trkpt lat="44.28975711488925" lon="9.689911047109563"><ele>506.0</ele><time>2026-04-26T08:07:01Z</time></trkpt><trkpt lat="44.289710847506385" lon="9.690052997738379"><ele>503.25</ele><time>2026-04-26T08:07:02Z</time></trkpt><trkpt lat="44.289703766815606" lon="9.69019728431639"><ele>500.5</ele><time>2026-04-26T08:07:03Z</time></trkpt><trkpt lat="44.28973156201812" lon="9.690352695103211"><ele>497.75</ele><time>2026-04-26T08:07:04Z</time></trkpt><trkpt lat="44.28977652738887" lon="9.690503905349109"><ele>495.0</ele><time>2026-04-26T08:07:05Z</time></trkpt><trkpt lat="44.2898512712304" lon="9.69063285035204"><ele>495.0</ele><time>2026-04-26T08:07:06Z</time></trkpt><trkpt lat="44.28995007966746" lon="9.690740520170298"><ele>495.0</ele><time>2026-04-26T08:07:07Z</time></trkpt><trkpt lat="44.290059197474065" lon="9.69082238040255"><ele>495.0</ele><time>2026-04-26T08:07:08Z</time></trkpt><trkpt lat="44.29017465000791" lon="9.690868644776737"><ele>495.0</ele><time>2026-04-26T08:07:09Z</time></trkpt><trkpt lat="44.29028256183955" lon="9.690922503738353"><ele>495.0</ele><time>2026-04-26T08:07:10Z</time></trkpt><trkpt lat="44.29036816359895" lon="9.690963020781659"><ele>495.0</ele><time>2026-04-26T08:07:11Z</time></trkpt><trkpt lat="44.29043528365849" lon="9.69101627093092"><ele>495.0</ele><time>2026-04-26T08:07:12Z</time></trkpt><trkpt lat="44.29047954466442" lon="9.691100846406984"><ele>495.0</ele><time>2026-04-26T08:07:13Z</time></trkpt><trkpt lat="44.290454438548174" lon="9.691251780050292"><ele>495.0</ele><time>2026-04-26T08:07:14Z</time></trkpt><trkpt lat="44.2904815010465" lon="9.691396638555469"><ele>498.4</ele><time>2026-04-26T08:07:15Z</time></trkpt><trkpt lat="44.29050911901005" lon="9.691530434009596"><ele>501.8</ele><time>2026-04-26T08:07:16Z</time></trkpt><trkpt lat="44.29058667599144" lon="9.691643021608787"><ele>505.20000000000005</ele><time>2026-04-26T08:07:17Z</time></trkpt><trkpt lat="44.29068806104379" lon="9.691709914045342"><ele>508.6</ele><time>2026-04-26T08:07:18Z</time></trkpt><trkpt lat="44.290792517876476" lon="9.691743177867789"><ele>512.0</ele><time>2026-04-26T08:07:19Z</time></trkpt><trkpt lat="44.29090438129526" lon="9.691742837302938"><ele>512.0</ele><time>2026-04-26T08:07:20Z</time></trkpt><trkpt lat="44.291016003174306" lon="9.691737387346182"><ele>512.0</ele><time>2026-04-26T08:07:21Z</time></trkpt><trkpt lat="44.291109623850524" lon="9.69176061317665"><ele>512.0</ele><time>2026-04-26T08:07:22Z</time></trkpt><trkpt lat="44.29118806933481" lon="9.691776984626653"><ele>512.0</ele><time>2026-04-26T08:07:23Z</time></trkpt><trkpt lat="44.291249425686175" lon="9.691873016798734"><ele>512.0</ele><time>2026-04-26T08:07:24Z</time></trkpt><trkpt lat="44.291276283068534" lon="9.69200303170034"><ele>513.0</ele><time>2026-04-26T08:07:24.999Z</time></trkpt><trkpt lat="44.291349410444425" lon="9.692099750211366"><ele>514.0</ele><time>2026-04-26T08:07:25.999Z</time></trkpt><trkpt lat="44.29144062602306" lon="9.692176647882953"><ele>515.0</ele><time>2026-04-26T08:07:26.999Z</time></trkpt><trkpt lat="44.29155980130091" lon="9.692207174414833"><ele>516.0</ele><time>2026-04-26T08:07:27.999Z</time></trkpt><trkpt lat="44.29166840171246" lon="9.69227707515503"><ele>517.0</ele><time>2026-04-26T08:07:28.999Z</time></trkpt><trkpt lat="44.2917295507469" lon="9.692430052379816"><ele>517.0</ele><time>2026-04-26T08:07:29.999Z</time></trkpt><trkpt lat="44.29182198489986" lon="9.692544949573593"><ele>517.0</ele><time>2026-04-26T08:07:30.999Z</time></trkpt><trkpt lat="44.291923182228764" lon="9.692643753775462"><ele>517.0</ele><time>2026-04-26T08:07:31.999Z</time></trkpt><trkpt lat="44.29204762994294" lon="9.692709788046223"><ele>517.0</ele><time>2026-04-26T08:07:32.999Z</time></trkpt><trkpt lat="44.29216136037083" lon="9.692756756217562"><ele>521.4</ele><time>2026-04-26T08:07:33.999Z</time></trkpt><trkpt lat="44.29226225673113" lon="9.692820426487035"><ele>525.8000000000001</ele><time>2026-04-26T08:07:34.999Z</time></trkpt><trkpt lat="44.29234850109936" lon="9.69287592004923"><ele>530.2</ele><time>2026-04-26T08:07:35.999Z</time></trkpt><trkpt lat="44.29242180933718" lon="9.692928912716484"><ele>534.6</ele><time>2026-04-26T08:07:36.999Z</time></trkpt><trkpt lat="44.292436299855915" lon="9.693051402840055"><ele>539.0</ele><time>2026-04-26T08:07:37.999Z</time></trkpt><trkpt lat="44.292377374601614" lon="9.69319087003187"><ele>539.0</ele><time>2026-04-26T08:07:38.999Z</time></trkpt><trkpt lat="44.29234769970013" lon="9.693341116779727"><ele>539.0</ele><time>2026-04-26T08:07:39.999Z</time></trkpt><trkpt lat="44.29233324914978" lon="9.693494834984692"><ele>539.0</ele><time>2026-04-26T08:07:40.999Z</time></trkpt><trkpt lat="44.29232476468035" lon="9.693627480624182"><ele>539.0</ele><time>2026-04-26T08:07:41.999Z</time></trkpt><trkpt lat="44.29235001275922" lon="9.69376388037814"><ele>539.0</ele><time>2026-04-26T08:07:42.999Z</time></trkpt><trkpt lat="44.292418533289904" lon="9.693894125620814"><ele>537.25</ele><time>2026-04-26T08:07:43.999Z</time></trkpt><trkpt lat="44.29250942455869" lon="9.694009534957168"><ele>535.5</ele><time>2026-04-26T08:07:44.999Z</time></trkpt><trkpt lat="44.292572566855334" lon="9.694146204087646"><ele>533.75</ele><time>2026-04-26T08:07:45.999Z</time></trkpt><trkpt lat="44.29262564523016" lon="9.694290746959053"><ele>532.0</ele><time>2026-04-26T08:07:46.999Z</time></trkpt><trkpt lat="44.292636217086496" lon="9.69444380660528"><ele>532.0</ele><time>2026-04-26T08:07:47.999Z</time></trkpt><trkpt lat="44.29262080059632" lon="9.694602650110232"><ele>532.0</ele><time>2026-04-26T08:07:48.999Z</time></trkpt><trkpt lat="44.29262359677995" lon="9.694768534067881"><ele>532.0</ele><time>2026-04-26T08:07:49.999Z</time></trkpt><trkpt lat="44.2926094538338" lon="9.694927248023172"><ele>532.0</ele><time>2026-04-26T08:07:50.999Z</time></trkpt><trkpt lat="44.29261652545542" lon="9.695074570219834"><ele>532.0</ele><time>2026-04-26T08:07:51.999Z</time></trkpt><trkpt lat="44.29266293463965" lon="9.695213151910755"><ele>532.0</ele><time>2026-04-26T08:07:52.999Z</time></trkpt><trkpt lat="44.29273121175868" lon="9.69531440317478"><ele>532.0</ele><time>2026-04-26T08:07:53.999Z</time></trkpt><trkpt lat="44.29277462758466" lon="9.695428822473671"><ele>532.0</ele><time>2026-04-26T08:07:54.999Z</time></trkpt><trkpt lat="44.29274735245289" lon="9.695576279357292"><ele>532.0</ele><time>2026-04-26T08:07:55.999Z</time></trkpt><trkpt lat="44.29270193069263" lon="9.695723219754369"><ele>533.6</ele><time>2026-04-26T08:07:56.999Z</time></trkpt><trkpt lat="44.29269646410973" lon="9.695886077856864"><ele>535.2</ele><time>2026-04-26T08:07:57.999Z</time></trkpt><trkpt lat="44.29271260036844" lon="9.696051153206275"><ele>536.8</ele><time>2026-04-26T08:07:58.999Z</time></trkpt><trkpt lat="44.292714242930636" lon="9.696203170392003"><ele>538.4</ele><time>2026-04-26T08:07:59.999Z</time></trkpt><trkpt lat="44.29272272909554" lon="9.696330301953827"><ele>540.0</ele><time>2026-04-26T08:08:00.999Z</time></trkpt><trkpt lat="44.292715128061886" lon="9.696428409927387"><ele>540.3333333333334</ele><time>2026-04-26T08:08:01.999Z</time></trkpt><trkpt lat="44.292677126115116" lon="9.696510379910597"><ele>540.6666666666666</ele><time>2026-04-26T08:08:02.999Z</time></trkpt><trkpt lat="44.292599792574514" lon="9.69651648029669"><ele>541.0</ele><time>2026-04-26T08:08:03.999Z</time></trkpt><trkpt lat="44.2925138544327" lon="9.696479051909078"><ele>541.3333333333333</ele><time>2026-04-26T08:08:04.999Z</time></trkpt><trkpt lat="44.29241970652539" lon="9.696473631121856"><ele>541.6666666666666</ele><time>2026-04-26T08:08:05.999Z</time></trkpt><trkpt lat="44.29232569502993" lon="9.696531369044171"><ele>542.0</ele><time>2026-04-26T08:08:06.999Z</time></trkpt><trkpt lat="44.29223409957668" lon="9.696642816641395"><ele>542.0</ele><time>2026-04-26T08:08:07.999Z</time></trkpt><trkpt lat="44.29216606210941" lon="9.69677291432352"><ele>542.0</ele><time>2026-04-26T08:08:08.999Z</time></trkpt><trkpt lat="44.292077419558275" lon="9.696885532876776"><ele>542.0</ele><time>2026-04-26T08:08:09.999Z</time></trkpt><trkpt lat="44.29195279995652" lon="9.696977488050473"><ele>542.0</ele><time>2026-04-26T08:08:10.999Z</time></trkpt><trkpt lat="44.29179757309247" lon="9.69708082319285"><ele>543.5</ele><time>2026-04-26T08:08:11.999Z</time></trkpt><trkpt lat="44.29163440727229" lon="9.697150784122194"><ele>545.0</ele><time>2026-04-26T08:08:12.999Z</time></trkpt><trkpt lat="44.291491875858206" lon="9.697203949635387"><ele>546.5</ele><time>2026-04-26T08:08:13.999Z</time></trkpt><trkpt lat="44.291375008702026" lon="9.697270888765159"><ele>548.0</ele><time>2026-04-26T08:08:14.999Z</time></trkpt><trkpt lat="44.29125455956472" lon="9.697316691963072"><ele>548.0</ele><time>2026-04-26T08:08:16Z</time></trkpt><trkpt lat="44.29116233137559" lon="9.697404830269596"><ele>548.0</ele><time>2026-04-26T08:08:17Z</time></trkpt><trkpt lat="44.2910957170028" lon="9.697538176530578"><ele>548.0</ele><time>2026-04-26T08:08:18Z</time></trkpt><trkpt lat="44.29103239079684" lon="9.697693003146227"><ele>548.0</ele><time>2026-04-26T08:08:19Z</time></trkpt><trkpt lat="44.29095507371133" lon="9.697806300720561"><ele>551.0</ele><time>2026-04-26T08:08:20Z</time></trkpt><trkpt lat="44.290892673150175" lon="9.697916427237375"><ele>554.0</ele><time>2026-04-26T08:08:21Z</time></trkpt><trkpt lat="44.29082595464809" lon="9.698006675839945"><ele>557.0</ele><time>2026-04-26T08:08:22Z</time></trkpt><trkpt lat="44.290743838982905" lon="9.698074201821361"><ele>560.0</ele><time>2026-04-26T08:08:23Z</time></trkpt><trkpt lat="44.29064907310756" lon="9.698026556908923"><ele>563.0</ele><time>2026-04-26T08:08:24Z</time></trkpt><trkpt lat="44.29055364368105" lon="9.697957820964593"><ele>564.5</ele><time>2026-04-26T08:08:25Z</time></trkpt><trkpt lat="44.29044225335198" lon="9.69788203479409"><ele>566.0</ele><time>2026-04-26T08:08:26Z</time></trkpt><trkpt lat="44.29032614476267" lon="9.697798306525687"><ele>567.5</ele><time>2026-04-26T08:08:27Z</time></trkpt><trkpt lat="44.29020151702907" lon="9.697724880430727"><ele>569.0</ele><time>2026-04-26T08:08:28Z</time></trkpt><trkpt lat="44.29007807917157" lon="9.697649576353077"><ele>568.5</ele><time>2026-04-26T08:08:29Z</time></trkpt><trkpt lat="44.289956426640096" lon="9.697572450701395"><ele>568.0</ele><time>2026-04-26T08:08:30Z</time></trkpt><trkpt lat="44.28984237636529" lon="9.69749503478652"><ele>567.5</ele><time>2026-04-26T08:08:31Z</time></trkpt><trkpt lat="44.28972876610507" lon="9.6974171974645"><ele>567.0</ele><time>2026-04-26T08:08:32Z</time></trkpt><trkpt lat="44.28961559474619" lon="9.697350202323078"><ele>567.0</ele><time>2026-04-26T08:08:33Z</time></trkpt><trkpt lat="44.28950197750193" lon="9.697301121279171"><ele>567.0</ele><time>2026-04-26T08:08:34Z</time></trkpt><trkpt lat="44.28939454956995" lon="9.697211881882035"><ele>567.0</ele><time>2026-04-26T08:08:35Z</time></trkpt><trkpt lat="44.28928292928159" lon="9.697155945953924"><ele>567.0</ele><time>2026-04-26T08:08:36Z</time></trkpt><trkpt lat="44.28918661537126" lon="9.697062810409612"><ele>567.0</ele><time>2026-04-26T08:08:37Z</time></trkpt><trkpt lat="44.28908519200051" lon="9.696995274295311"><ele>567.0</ele><time>2026-04-26T08:08:38Z</time></trkpt><trkpt lat="44.28897898811651" lon="9.696980762432602"><ele>567.0</ele><time>2026-04-26T08:08:39Z</time></trkpt><trkpt lat="44.28889228954934" lon="9.697029818289629"><ele>567.0</ele><time>2026-04-26T08:08:40Z</time></trkpt><trkpt lat="44.28882982083325" lon="9.697118926305032"><ele>567.0</ele><time>2026-04-26T08:08:41Z</time></trkpt><trkpt lat="44.28878785077731" lon="9.69722981102635"><ele>567.0</ele><time>2026-04-26T08:08:42Z</time></trkpt><trkpt lat="44.288811746777625" lon="9.69739166243948"><ele>567.0</ele><time>2026-04-26T08:08:43Z</time></trkpt><trkpt lat="44.288903097029554" lon="9.697506644679757"><ele>567.0</ele><time>2026-04-26T08:08:44Z</time></trkpt><trkpt lat="44.28900409559698" lon="9.69757739495432"><ele>567.0</ele><time>2026-04-26T08:08:45Z</time></trkpt><trkpt lat="44.28909245760278" lon="9.697669377967573"><ele>570.2</ele><time>2026-04-26T08:08:46Z</time></trkpt><trkpt lat="44.28916932566872" lon="9.697765436934604"><ele>573.4000000000001</ele><time>2026-04-26T08:08:47Z</time></trkpt><trkpt lat="44.28921179053199" lon="9.69787974028153"><ele>576.5999999999999</ele><time>2026-04-26T08:08:48Z</time></trkpt><trkpt lat="44.289222594323476" lon="9.698029137227783"><ele>579.8</ele><time>2026-04-26T08:08:49Z</time></trkpt><trkpt lat="44.28924993863017" lon="9.698214274515804"><ele>583.0</ele><time>2026-04-26T08:08:50Z</time></trkpt><trkpt lat="44.28930661497478" lon="9.698365134383332"><ele>583.0</ele><time>2026-04-26T08:08:51Z</time></trkpt><trkpt lat="44.289389412142725" lon="9.698503578635536"><ele>583.0</ele><time>2026-04-26T08:08:52Z</time></trkpt><trkpt lat="44.28950973492992" lon="9.698624692045968"><ele>583.0</ele><time>2026-04-26T08:08:53Z</time></trkpt><trkpt lat="44.28960805314483" lon="9.698758461649398"><ele>583.0</ele><time>2026-04-26T08:08:54Z</time></trkpt><trkpt lat="44.28973936382251" lon="9.698883093173626"><ele>585.25</ele><time>2026-04-26T08:08:55Z</time></trkpt><trkpt lat="44.28985691796564" lon="9.699021999744254"><ele>587.5</ele><time>2026-04-26T08:08:56Z</time></trkpt><trkpt lat="44.28997572531859" lon="9.699130643426713"><ele>589.75</ele><time>2026-04-26T08:08:57Z</time></trkpt><trkpt lat="44.2900812673418" lon="9.699242542487736"><ele>592.0</ele><time>2026-04-26T08:08:58Z</time></trkpt><trkpt lat="44.29017410560998" lon="9.69934562685849"><ele>596.4</ele><time>2026-04-26T08:08:59Z</time></trkpt><trkpt lat="44.290282962740086" lon="9.699424147459785"><ele>600.8000000000001</ele><time>2026-04-26T08:09:00Z</time></trkpt><trkpt lat="44.29038370692726" lon="9.699467565008556"><ele>605.2</ele><time>2026-04-26T08:09:01Z</time></trkpt><trkpt lat="44.29048471137988" lon="9.699470640598438"><ele>609.6</ele><time>2026-04-26T08:09:02Z</time></trkpt><trkpt lat="44.290567919659864" lon="9.699468924416784"><ele>614.0</ele><time>2026-04-26T08:09:03Z</time></trkpt><trkpt lat="44.29063314914399" lon="9.69949445307837"><ele>614.0</ele><time>2026-04-26T08:09:04Z</time></trkpt><trkpt lat="44.29066410166593" lon="9.699573503475575"><ele>614.0</ele><time>2026-04-26T08:09:05Z</time></trkpt><trkpt lat="44.29064856579016" lon="9.699674221781972"><ele>614.0</ele><time>2026-04-26T08:09:06Z</time></trkpt><trkpt lat="44.29059416475147" lon="9.69975169676335"><ele>614.0</ele><time>2026-04-26T08:09:07Z</time></trkpt><trkpt lat="44.290500647626104" lon="9.699738282386472"><ele>614.0</ele><time>2026-04-26T08:09:08Z</time></trkpt><trkpt lat="44.290401358689856" lon="9.699696081569787"><ele>614.0</ele><time>2026-04-26T08:09:09Z</time></trkpt><trkpt lat="44.29029327313496" lon="9.699671342352081"><ele>614.0</ele><time>2026-04-26T08:09:10Z</time></trkpt><trkpt lat="44.29017790069797" lon="9.699650547303909"><ele>614.0</ele><time>2026-04-26T08:09:11Z</time></trkpt><trkpt lat="44.29006666674145" lon="9.69964239010258"><ele>614.0</ele><time>2026-04-26T08:09:12Z</time></trkpt><trkpt lat="44.289950888053845" lon="9.699626222057747"><ele>614.0</ele><time>2026-04-26T08:09:13Z</time></trkpt><trkpt lat="44.28983761449472" lon="9.699599909507507"><ele>614.6</ele><time>2026-04-26T08:09:14Z</time></trkpt><trkpt lat="44.28972067546737" lon="9.69954226749418"><ele>615.2</ele><time>2026-04-26T08:09:15Z</time></trkpt><trkpt lat="44.28961546909989" lon="9.699446205143213"><ele>615.8000000000001</ele><time>2026-04-26T08:09:16Z</time></trkpt><trkpt lat="44.2895405066637" lon="9.699342923368219"><ele>616.4</ele><time>2026-04-26T08:09:17Z</time></trkpt><trkpt lat="44.289460951738015" lon="9.699273660852128"><ele>617.0</ele><time>2026-04-26T08:09:18Z</time></trkpt><trkpt lat="44.28936396471162" lon="9.699285106583176"><ele>617.0</ele><time>2026-04-26T08:09:19Z</time></trkpt><trkpt lat="44.28927702801505" lon="9.699379385961109"><ele>617.0</ele><time>2026-04-26T08:09:20Z</time></trkpt><trkpt lat="44.289198354837005" lon="9.699510805187993"><ele>617.0</ele><time>2026-04-26T08:09:21Z</time></trkpt><trkpt lat="44.28913227383373" lon="9.699673251134577"><ele>617.0</ele><time>2026-04-26T08:09:22Z</time></trkpt><trkpt lat="44.28908064660983" lon="9.69983765091053"><ele>617.0</ele><time>2026-04-26T08:09:23Z</time></trkpt><trkpt lat="44.28902057774997" lon="9.699978042778273"><ele>617.0</ele><time>2026-04-26T08:09:24Z</time></trkpt><trkpt lat="44.28893083816171" lon="9.700083260408373"><ele>617.0</ele><time>2026-04-26T08:09:25Z</time></trkpt><trkpt lat="44.288822671430246" lon="9.700140505069985"><ele>617.0</ele><time>2026-04-26T08:09:26Z</time></trkpt><trkpt lat="44.28870250770306" lon="9.700159672039124"><ele>619.0</ele><time>2026-04-26T08:09:27Z</time></trkpt><trkpt lat="44.28858504761436" lon="9.700123283490957"><ele>621.0</ele><time>2026-04-26T08:09:28Z</time></trkpt><trkpt lat="44.288478054848014" lon="9.700002980844168"><ele>623.0</ele><time>2026-04-26T08:09:29Z</time></trkpt><trkpt lat="44.2883363630575" lon="9.699892333574828"><ele>625.0</ele><time>2026-04-26T08:09:30Z</time></trkpt><trkpt lat="44.28820133183951" lon="9.699792766956117"><ele>625.75</ele><time>2026-04-26T08:09:31Z</time></trkpt><trkpt lat="44.28807109389823" lon="9.699726790038563"><ele>626.5</ele><time>2026-04-26T08:09:32Z</time></trkpt><trkpt lat="44.28795211674523" lon="9.69966129940623"><ele>627.25</ele><time>2026-04-26T08:09:33Z</time></trkpt><trkpt lat="44.287837356793865" lon="9.69958113457703"><ele>628.0</ele><time>2026-04-26T08:09:34Z</time></trkpt><trkpt lat="44.28773295674301" lon="9.699489435723136"><ele>628.0</ele><time>2026-04-26T08:09:35Z</time></trkpt><trkpt lat="44.287638917641566" lon="9.69935515482715"><ele>628.0</ele><time>2026-04-26T08:09:36Z</time></trkpt><trkpt lat="44.28756437624334" lon="9.699200803349289"><ele>628.0</ele><time>2026-04-26T08:09:37Z</time></trkpt><trkpt lat="44.287488862948486" lon="9.699070878773028"><ele>628.0</ele><time>2026-04-26T08:09:38Z</time></trkpt><trkpt lat="44.28740645052872" lon="9.698981345260849"><ele>628.0</ele><time>2026-04-26T08:09:39Z</time></trkpt><trkpt lat="44.287315472311825" lon="9.69893053494964"><ele>628.0</ele><time>2026-04-26T08:09:40Z</time></trkpt><trkpt lat="44.28721977169422" lon="9.698923432466904"><ele>628.0</ele><time>2026-04-26T08:09:41Z</time></trkpt><trkpt lat="44.28714370476008" lon="9.698945664084299"><ele>628.0</ele><time>2026-04-26T08:09:42Z</time></trkpt><trkpt lat="44.28708910886704" lon="9.699011633353296"><ele>628.0</ele><time>2026-04-26T08:09:44Z</time></trkpt><trkpt lat="44.2870933850232" lon="9.69918239104701"><ele>628.0</ele><time>2026-04-26T08:09:53.999Z</time></trkpt><trkpt lat="44.287211522071466" lon="9.699290346304602"><ele>628.0</ele><time>2026-04-26T08:09:54.999Z</time></trkpt><trkpt lat="44.28728931412635" lon="9.699372671150412"><ele>628.0</ele><time>2026-04-26T08:09:55.999Z</time></trkpt><trkpt lat="44.28737491545171" lon="9.699477993740626"><ele>628.0</ele><time>2026-04-26T08:09:56.999Z</time></trkpt><trkpt lat="44.28744690190213" lon="9.699588832080682"><ele>628.0</ele><time>2026-04-26T08:09:57.999Z</time></trkpt><trkpt lat="44.28751333796539" lon="9.699734768194347"><ele>628.0</ele><time>2026-04-26T08:09:58.999Z</time></trkpt><trkpt lat="44.287569458525944" lon="9.699897757689191"><ele>628.0</ele><time>2026-04-26T08:09:59.999Z</time></trkpt><trkpt lat="44.28762500708915" lon="9.700090698080212"><ele>628.0</ele><time>2026-04-26T08:10:00.999Z</time></trkpt><trkpt lat="44.287681210030314" lon="9.700289457423832"><ele>627.25</ele><time>2026-04-26T08:10:01.999Z</time></trkpt><trkpt lat="44.28774757267506" lon="9.700479010776952"><ele>626.5</ele><time>2026-04-26T08:10:02.999Z</time></trkpt><trkpt lat="44.28780288532702" lon="9.700661431320578"><ele>625.75</ele><time>2026-04-26T08:10:03.999Z</time></trkpt><trkpt lat="44.28783494535916" lon="9.700842693513321"><ele>625.0</ele><time>2026-04-26T08:10:04.999Z</time></trkpt><trkpt lat="44.287867939374294" lon="9.701007390041093"><ele>624.2</ele><time>2026-04-26T08:10:05.999Z</time></trkpt><trkpt lat="44.287891095104165" lon="9.701163292831769"><ele>623.4</ele><time>2026-04-26T08:10:06.999Z</time></trkpt><trkpt lat="44.287916149192235" lon="9.701307102467132"><ele>622.6</ele><time>2026-04-26T08:10:07.999Z</time></trkpt><trkpt lat="44.287932675693725" lon="9.70144038830907"><ele>621.8</ele><time>2026-04-26T08:10:08.999Z</time></trkpt><trkpt lat="44.2879842927645" lon="9.701532868668117"><ele>621.0</ele><time>2026-04-26T08:10:09.999Z</time></trkpt><trkpt lat="44.288074363156014" lon="9.701599561098785"><ele>625.25</ele><time>2026-04-26T08:10:10.999Z</time></trkpt><trkpt lat="44.28818841230955" lon="9.70160575607402"><ele>629.5</ele><time>2026-04-26T08:10:11.999Z</time></trkpt><trkpt lat="44.288316181232304" lon="9.701563200784907"><ele>633.75</ele><time>2026-04-26T08:10:12.999Z</time></trkpt><trkpt lat="44.28844067661496" lon="9.701483136906406"><ele>638.0</ele><time>2026-04-26T08:10:13.999Z</time></trkpt><trkpt lat="44.28857658580583" lon="9.701408646880598"><ele>638.0</ele><time>2026-04-26T08:10:14.999Z</time></trkpt><trkpt lat="44.28870533222442" lon="9.701339795982443"><ele>638.0</ele><time>2026-04-26T08:10:15.999Z</time></trkpt><trkpt lat="44.28882199610723" lon="9.701284905091423"><ele>638.0</ele><time>2026-04-26T08:10:16.999Z</time></trkpt><trkpt lat="44.288929826918014" lon="9.701235839647786"><ele>638.0</ele><time>2026-04-26T08:10:17.999Z</time></trkpt><trkpt lat="44.289036181124274" lon="9.701177054872979"><ele>639.4</ele><time>2026-04-26T08:10:18.999Z</time></trkpt><trkpt lat="44.289140992951275" lon="9.701144421018446"><ele>640.8</ele><time>2026-04-26T08:10:19.999Z</time></trkpt><trkpt lat="44.28923271979134" lon="9.701110644487374"><ele>642.2</ele><time>2026-04-26T08:10:20.999Z</time></trkpt><trkpt lat="44.289321384960544" lon="9.701115875443945"><ele>643.6</ele><time>2026-04-26T08:10:22Z</time></trkpt><trkpt lat="44.28939896508176" lon="9.701163645755635"><ele>645.0</ele><time>2026-04-26T08:10:23Z</time></trkpt><trkpt lat="44.28945765337126" lon="9.701283444446494"><ele>645.0</ele><time>2026-04-26T08:10:24Z</time></trkpt><trkpt lat="44.289535418703075" lon="9.701421502100796"><ele>645.0</ele><time>2026-04-26T08:10:25Z</time></trkpt><trkpt lat="44.28962068705035" lon="9.701568101911173"><ele>645.0</ele><time>2026-04-26T08:10:26Z</time></trkpt><trkpt lat="44.28971803146637" lon="9.701693128871286"><ele>645.0</ele><time>2026-04-26T08:10:27Z</time></trkpt><trkpt lat="44.289820488333774" lon="9.701802014143977"><ele>645.25</ele><time>2026-04-26T08:10:28Z</time></trkpt><trkpt lat="44.28994129248852" lon="9.701874856763567"><ele>645.5</ele><time>2026-04-26T08:10:29Z</time></trkpt><trkpt lat="44.29006603543736" lon="9.701929630874876"><ele>645.75</ele><time>2026-04-26T08:10:30Z</time></trkpt><trkpt lat="44.2901765324734" lon="9.702008739901682"><ele>646.0</ele><time>2026-04-26T08:10:31Z</time></trkpt><trkpt lat="44.290286139237004" lon="9.702070715874697"><ele>645.0</ele><time>2026-04-26T08:10:32Z</time></trkpt><trkpt lat="44.29039079820496" lon="9.70211016495957"><ele>644.0</ele><time>2026-04-26T08:10:33Z</time></trkpt><trkpt lat="44.29045534372736" lon="9.702250295863848"><ele>643.0</ele><time>2026-04-26T08:10:34Z</time></trkpt><trkpt lat="44.290534064069696" lon="9.702390341042642"><ele>642.0</ele><time>2026-04-26T08:10:35Z</time></trkpt><trkpt lat="44.2906195791432" lon="9.702556282228944"><ele>645.0</ele><time>2026-04-26T08:10:36Z</time></trkpt><trkpt lat="44.29070860685697" lon="9.702711054004657"><ele>648.0</ele><time>2026-04-26T08:10:37Z</time></trkpt><trkpt lat="44.29078813174671" lon="9.70287476330722"><ele>651.0</ele><time>2026-04-26T08:10:38Z</time></trkpt><trkpt lat="44.290856243858904" lon="9.703027047936853"><ele>654.0</ele><time>2026-04-26T08:10:39Z</time></trkpt><trkpt lat="44.29092761505142" lon="9.70317018162641"><ele>654.0</ele><time>2026-04-26T08:10:40Z</time></trkpt><trkpt lat="44.29101784781664" lon="9.703264459521376"><ele>654.0</ele><time>2026-04-26T08:10:41Z</time></trkpt><trkpt lat="44.29114464237" lon="9.703310589455597"><ele>654.0</ele><time>2026-04-26T08:10:42Z</time></trkpt><trkpt lat="44.29128266109494" lon="9.703348090945374"><ele>654.0</ele><time>2026-04-26T08:10:43Z</time></trkpt><trkpt lat="44.29138641574891" lon="9.703471515524905"><ele>658.25</ele><time>2026-04-26T08:10:44Z</time></trkpt><trkpt lat="44.291500664770815" lon="9.70359012065771"><ele>662.5</ele><time>2026-04-26T08:10:45Z</time></trkpt><trkpt lat="44.29158424282852" lon="9.703720021938055"><ele>666.75</ele><time>2026-04-26T08:10:46Z</time></trkpt><trkpt lat="44.291621600047286" lon="9.703871845530141"><ele>671.0</ele><time>2026-04-26T08:10:47Z</time></trkpt><trkpt lat="44.29166075599886" lon="9.70401602201637"><ele>671.0</ele><time>2026-04-26T08:10:48Z</time></trkpt><trkpt lat="44.29171786046393" lon="9.704148245429355"><ele>671.0</ele><time>2026-04-26T08:10:49Z</time></trkpt><trkpt lat="44.29182637756432" lon="9.704235937565791"><ele>671.0</ele><time>2026-04-26T08:10:50Z</time></trkpt><trkpt lat="44.29194222642061" lon="9.704289045617378"><ele>671.0</ele><time>2026-04-26T08:10:51Z</time></trkpt><trkpt lat="44.29205537683668" lon="9.704284823219105"><ele>671.0</ele><time>2026-04-26T08:10:52Z</time></trkpt><trkpt lat="44.29215600972781" lon="9.704246374750523"><ele>671.0</ele><time>2026-04-26T08:10:53Z</time></trkpt><trkpt lat="44.292251560498165" lon="9.704266680497817"><ele>671.0</ele><time>2026-04-26T08:10:54Z</time></trkpt><trkpt lat="44.292352905510775" lon="9.704334848025047"><ele>671.0</ele><time>2026-04-26T08:10:55Z</time></trkpt><trkpt lat="44.292477953611105" lon="9.704409258702203"><ele>671.0</ele><time>2026-04-26T08:10:56Z</time></trkpt><trkpt lat="44.29260650697397" lon="9.704439265367368"><ele>670.1999999999999</ele><time>2026-04-26T08:10:57Z</time></trkpt><trkpt lat="44.292730513132426" lon="9.704442710733"><ele>669.4</ele><time>2026-04-26T08:10:58Z</time></trkpt><trkpt lat="44.29284101688006" lon="9.704434523224824"><ele>668.6</ele><time>2026-04-26T08:10:59Z</time></trkpt><trkpt lat="44.29293665635947" lon="9.704397604372296"><ele>667.8</ele><time>2026-04-26T08:11:00Z</time></trkpt><trkpt lat="44.29302815268831" lon="9.70431388212186"><ele>667.0</ele><time>2026-04-26T08:11:01Z</time></trkpt><trkpt lat="44.29310829747582" lon="9.704182671299993"><ele>672.0</ele><time>2026-04-26T08:11:02Z</time></trkpt><trkpt lat="44.29315227845726" lon="9.704017424791457"><ele>677.0</ele><time>2026-04-26T08:11:03Z</time></trkpt><trkpt lat="44.29320374603186" lon="9.703890418282734"><ele>682.0</ele><time>2026-04-26T08:11:04Z</time></trkpt><trkpt lat="44.29330979406452" lon="9.70384124095346"><ele>687.0</ele><time>2026-04-26T08:11:05Z</time></trkpt><trkpt lat="44.29343354393159" lon="9.703816258656438"><ele>687.0</ele><time>2026-04-26T08:11:06Z</time></trkpt><trkpt lat="44.29354736229247" lon="9.70373251933639"><ele>687.0</ele><time>2026-04-26T08:11:07Z</time></trkpt><trkpt lat="44.293643796801675" lon="9.703585823220122"><ele>687.0</ele><time>2026-04-26T08:11:08Z</time></trkpt><trkpt lat="44.293746796228966" lon="9.703439123790334"><ele>687.0</ele><time>2026-04-26T08:11:09Z</time></trkpt><trkpt lat="44.29386080025813" lon="9.703341391145651"><ele>690.75</ele><time>2026-04-26T08:11:10Z</time></trkpt><trkpt lat="44.2939750851124" lon="9.703267350680902"><ele>694.5</ele><time>2026-04-26T08:11:11Z</time></trkpt><trkpt lat="44.294091795584414" lon="9.703252734136871"><ele>698.25</ele><time>2026-04-26T08:11:12Z</time></trkpt><trkpt lat="44.29420275370877" lon="9.703272066653419"><ele>702.0</ele><time>2026-04-26T08:11:13Z</time></trkpt><trkpt lat="44.29433145679654" lon="9.703287878868895"><ele>702.0</ele><time>2026-04-26T08:11:14Z</time></trkpt><trkpt lat="44.294461729339886" lon="9.703318219862796"><ele>702.0</ele><time>2026-04-26T08:11:15Z</time></trkpt><trkpt lat="44.29458919014796" lon="9.703366448837082"><ele>702.0</ele><time>2026-04-26T08:11:16Z</time></trkpt><trkpt lat="44.294709872359505" lon="9.703422287697315"><ele>702.0</ele><time>2026-04-26T08:11:17Z</time></trkpt><trkpt lat="44.29483384417118" lon="9.703463165625235"><ele>704.0</ele><time>2026-04-26T08:11:18Z</time></trkpt><trkpt lat="44.29494978546636" lon="9.703523334781973"><ele>706.0</ele><time>2026-04-26T08:11:19Z</time></trkpt><trkpt lat="44.2950632467369" lon="9.703580151665005"><ele>708.0</ele><time>2026-04-26T08:11:20Z</time></trkpt><trkpt lat="44.29517455686399" lon="9.703634898817223"><ele>710.0</ele><time>2026-04-26T08:11:21Z</time></trkpt><trkpt lat="44.295294591028956" lon="9.703678358540218"><ele>711.0</ele><time>2026-04-26T08:11:22Z</time></trkpt><trkpt lat="44.29541304236147" lon="9.703682001722838"><ele>712.0</ele><time>2026-04-26T08:11:23Z</time></trkpt><trkpt lat="44.295522136992254" lon="9.703643296588888"><ele>713.0</ele><time>2026-04-26T08:11:24Z</time></trkpt><trkpt lat="44.29561732854055" lon="9.703578370194538"><ele>714.0</ele><time>2026-04-26T08:11:25Z</time></trkpt><trkpt lat="44.29570979195459" lon="9.703536560196554"><ele>715.0</ele><time>2026-04-26T08:11:26Z</time></trkpt><trkpt lat="44.29579456516626" lon="9.703617443973982"><ele>711.5</ele><time>2026-04-26T08:11:27Z</time></trkpt><trkpt lat="44.29588226322673" lon="9.703707285711829"><ele>708.0</ele><time>2026-04-26T08:11:28Z</time></trkpt><trkpt lat="44.295985438250206" lon="9.703792760311105"><ele>704.5</ele><time>2026-04-26T08:11:29Z</time></trkpt><trkpt lat="44.296086028916505" lon="9.703886582941943"><ele>701.0</ele><time>2026-04-26T08:11:30Z</time></trkpt><trkpt lat="44.29617721897359" lon="9.703993057956508"><ele>701.0</ele><time>2026-04-26T08:11:30.999Z</time></trkpt><trkpt lat="44.29626224053389" lon="9.70411238505754"><ele>701.0</ele><time>2026-04-26T08:11:31.999Z</time></trkpt><trkpt lat="44.2963554788869" lon="9.704223819894793"><ele>701.0</ele><time>2026-04-26T08:11:32.999Z</time></trkpt><trkpt lat="44.296442694628" lon="9.70434974022607"><ele>701.0</ele><time>2026-04-26T08:11:33.999Z</time></trkpt><trkpt lat="44.29652715618211" lon="9.704485371903004"><ele>702.0</ele><time>2026-04-26T08:11:34.999Z</time></trkpt><trkpt lat="44.296618915941714" lon="9.704593296798045"><ele>703.0</ele><time>2026-04-26T08:11:35.999Z</time></trkpt><trkpt lat="44.29670657437088" lon="9.704696713177299"><ele>704.0</ele><time>2026-04-26T08:11:36.999Z</time></trkpt><trkpt lat="44.29679658867928" lon="9.704796960132422"><ele>705.0</ele><time>2026-04-26T08:11:37.999Z</time></trkpt><trkpt lat="44.29688199559983" lon="9.704901003177833"><ele>705.0</ele><time>2026-04-26T08:11:38.999Z</time></trkpt><trkpt lat="44.29696552745024" lon="9.705009555695375"><ele>705.0</ele><time>2026-04-26T08:11:39.999Z</time></trkpt><trkpt lat="44.29704817121878" lon="9.705125319580798"><ele>705.0</ele><time>2026-04-26T08:11:40.999Z</time></trkpt><trkpt lat="44.29712259129216" lon="9.705251136286076"><ele>705.0</ele><time>2026-04-26T08:11:41.999Z</time></trkpt><trkpt lat="44.2971624012749" lon="9.705402428666773"><ele>707.75</ele><time>2026-04-26T08:11:42.999Z</time></trkpt><trkpt lat="44.29720370983031" lon="9.705557564229236"><ele>710.5</ele><time>2026-04-26T08:11:43.999Z</time></trkpt><trkpt lat="44.29725260866042" lon="9.705719456553936"><ele>713.25</ele><time>2026-04-26T08:11:44.999Z</time></trkpt><trkpt lat="44.297297656942746" lon="9.705888741749126"><ele>716.0</ele><time>2026-04-26T08:11:45.999Z</time></trkpt><trkpt lat="44.297353050672605" lon="9.70604654690232"><ele>714.0</ele><time>2026-04-26T08:11:46.999Z</time></trkpt><trkpt lat="44.29740603718571" lon="9.706196113301106"><ele>712.0</ele><time>2026-04-26T08:11:47.999Z</time></trkpt><trkpt lat="44.29745423564408" lon="9.706335207782084"><ele>710.0</ele><time>2026-04-26T08:11:48.999Z</time></trkpt><trkpt lat="44.297517477444636" lon="9.706461523349818"><ele>708.0</ele><time>2026-04-26T08:11:49.999Z</time></trkpt><trkpt lat="44.297610631786355" lon="9.70656452062738"><ele>708.0</ele><time>2026-04-26T08:11:50.999Z</time></trkpt><trkpt lat="44.297720401233775" lon="9.706646758516989"><ele>708.0</ele><time>2026-04-26T08:11:51.999Z</time></trkpt><trkpt lat="44.297829434428095" lon="9.706730338235085"><ele>708.0</ele><time>2026-04-26T08:11:52.999Z</time></trkpt><trkpt lat="44.29792798299146" lon="9.706809263482263"><ele>708.0</ele><time>2026-04-26T08:11:53.999Z</time></trkpt><trkpt lat="44.298024086914936" lon="9.706862221689944"><ele>711.4</ele><time>2026-04-26T08:11:54.999Z</time></trkpt><trkpt lat="44.29811524985967" lon="9.70688336231166"><ele>714.8</ele><time>2026-04-26T08:11:55.999Z</time></trkpt><trkpt lat="44.298195895685986" lon="9.706917310233235"><ele>718.2</ele><time>2026-04-26T08:11:56.999Z</time></trkpt><trkpt lat="44.298273985457854" lon="9.707007395698843"><ele>721.6</ele><time>2026-04-26T08:11:57.999Z</time></trkpt><trkpt lat="44.298298451107605" lon="9.707162355621701"><ele>725.0</ele><time>2026-04-26T08:11:58.999Z</time></trkpt><trkpt lat="44.298336007972814" lon="9.707309956385696"><ele>725.0</ele><time>2026-04-26T08:11:59.999Z</time></trkpt><trkpt lat="44.29838891197589" lon="9.707456280365728"><ele>725.0</ele><time>2026-04-26T08:12:00.999Z</time></trkpt><trkpt lat="44.298418750307896" lon="9.707621917829872"><ele>725.0</ele><time>2026-04-26T08:12:01.999Z</time></trkpt><trkpt lat="44.29845940307621" lon="9.707781135856852"><ele>725.0</ele><time>2026-04-26T08:12:02.999Z</time></trkpt><trkpt lat="44.29850004844014" lon="9.70793860325855"><ele>724.6</ele><time>2026-04-26T08:12:03.999Z</time></trkpt><trkpt lat="44.29854050251783" lon="9.70808233867151"><ele>724.2</ele><time>2026-04-26T08:12:04.999Z</time></trkpt><trkpt lat="44.298600311053114" lon="9.70820591603173"><ele>723.8</ele><time>2026-04-26T08:12:05.999Z</time></trkpt><trkpt lat="44.29868716033015" lon="9.708299570963577"><ele>723.4</ele><time>2026-04-26T08:12:06.999Z</time></trkpt><trkpt lat="44.298781881268305" lon="9.708376733646066"><ele>723.0</ele><time>2026-04-26T08:12:07.999Z</time></trkpt><trkpt lat="44.298854820656025" lon="9.708484542419649"><ele>726.5</ele><time>2026-04-26T08:12:08.999Z</time></trkpt><trkpt lat="44.298932117828066" lon="9.708598308125804"><ele>730.0</ele><time>2026-04-26T08:12:09.999Z</time></trkpt><trkpt lat="44.29901128774514" lon="9.708716313344075"><ele>733.5</ele><time>2026-04-26T08:12:10.999Z</time></trkpt><trkpt lat="44.299091060531765" lon="9.70883305503821"><ele>737.0</ele><time>2026-04-26T08:12:11.999Z</time></trkpt><trkpt lat="44.29917669216503" lon="9.708942888080704"><ele>737.0</ele><time>2026-04-26T08:12:12.999Z</time></trkpt><trkpt lat="44.29922892303459" lon="9.709084433697658"><ele>737.0</ele><time>2026-04-26T08:12:13.999Z</time></trkpt><trkpt lat="44.29925465282525" lon="9.709239823289607"><ele>737.0</ele><time>2026-04-26T08:12:14.999Z</time></trkpt><trkpt lat="44.29926830505714" lon="9.709398817544624"><ele>737.0</ele><time>2026-04-26T08:12:15.999Z</time></trkpt><trkpt lat="44.29929450113524" lon="9.709564867395187"><ele>735.75</ele><time>2026-04-26T08:12:16.999Z</time></trkpt><trkpt lat="44.299330713561105" lon="9.709715119555355"><ele>734.5</ele><time>2026-04-26T08:12:17.999Z</time></trkpt><trkpt lat="44.29938935894073" lon="9.709854578288667"><ele>733.25</ele><time>2026-04-26T08:12:18.999Z</time></trkpt><trkpt lat="44.29946327196253" lon="9.70998615927219"><ele>732.0</ele><time>2026-04-26T08:12:19.999Z</time></trkpt><trkpt lat="44.29955028990124" lon="9.710113810034624"><ele>732.0</ele><time>2026-04-26T08:12:20.999Z</time></trkpt><trkpt lat="44.29963496017506" lon="9.71023198634511"><ele>732.0</ele><time>2026-04-26T08:12:21.999Z</time></trkpt><trkpt lat="44.29970860830374" lon="9.710334691769628"><ele>732.0</ele><time>2026-04-26T08:12:22.999Z</time></trkpt><trkpt lat="44.29974664103211" lon="9.710455255213336"><ele>732.0</ele><time>2026-04-26T08:12:23.999Z</time></trkpt><trkpt lat="44.29978250629256" lon="9.710569496419437"><ele>732.0</ele><time>2026-04-26T08:12:24.999Z</time></trkpt><trkpt lat="44.29980329366783" lon="9.710696831865885"><ele>734.8</ele><time>2026-04-26T08:12:25.999Z</time></trkpt><trkpt lat="44.29979631574564" lon="9.710829615908848"><ele>737.6</ele><time>2026-04-26T08:12:26.999Z</time></trkpt><trkpt lat="44.29978362925401" lon="9.7109596492028"><ele>740.4</ele><time>2026-04-26T08:12:28Z</time></trkpt><trkpt lat="44.2997637689965" lon="9.711089684780346"><ele>743.1999999999999</ele><time>2026-04-26T08:12:29Z</time></trkpt><trkpt lat="44.29978662981422" lon="9.711230731705841"><ele>746.0</ele><time>2026-04-26T08:12:30Z</time></trkpt><trkpt lat="44.29984063441505" lon="9.711351946419652"><ele>746.0</ele><time>2026-04-26T08:12:31Z</time></trkpt><trkpt lat="44.29989919324315" lon="9.71144144356703"><ele>746.0</ele><time>2026-04-26T08:12:32Z</time></trkpt><trkpt lat="44.29994066375855" lon="9.711514894403663"><ele>746.0</ele><time>2026-04-26T08:12:33Z</time></trkpt><trkpt lat="44.299983449297585" lon="9.71162179497597"><ele>746.0</ele><time>2026-04-26T08:12:35Z</time></trkpt><trkpt lat="44.30000699860682" lon="9.711710515522359"><ele>746.0</ele><time>2026-04-26T08:12:38Z</time></trkpt></trkseg><trkseg><trkpt lat="44.30007101528936" lon="9.71177016795718"><ele>746.0</ele><time>2026-04-26T08:33:26Z</time></trkpt><trkpt lat="44.30012698465563" lon="9.71183540469969"><ele>746.0</ele><time>2026-04-26T08:33:28Z</time></trkpt><trkpt lat="44.300207507839936" lon="9.711981536452749"><ele>746.0</ele><time>2026-04-26T08:33:30Z</time></trkpt><trkpt lat="44.30026203936511" lon="9.712065093337662"><ele>746.0</ele><time>2026-04-26T08:33:31Z</time></trkpt><trkpt lat="44.30032132443628" lon="9.712144614262781"><ele>746.0</ele><time>2026-04-26T08:33:32Z</time></trkpt><trkpt lat="44.30038044778698" lon="9.712236916065565"><ele>745.1666666666666</ele><time>2026-04-26T08:33:33Z</time></trkpt><trkpt lat="44.30044052555861" lon="9.712326618715247"><ele>744.3333333333333</ele><time>2026-04-26T08:33:34Z</time></trkpt><trkpt lat="44.30050426300581" lon="9.712414559713594"><ele>743.5</ele><time>2026-04-26T08:33:35Z</time></trkpt><trkpt lat="44.30056887502227" lon="9.712504668493573"><ele>742.6666666666666</ele><time>2026-04-26T08:33:36Z</time></trkpt><trkpt lat="44.300621198653154" lon="9.71259108388719"><ele>741.8333333333334</ele><time>2026-04-26T08:33:37Z</time></trkpt><trkpt lat="44.30066236944869" lon="9.712684100561887"><ele>741.0</ele><time>2026-04-26T08:33:38Z</time></trkpt><trkpt lat="44.300691564424376" lon="9.712803236179496"><ele>743.6666666666666</ele><time>2026-04-26T08:33:39Z</time></trkpt><trkpt lat="44.300689732802326" lon="9.712925712277363"><ele>746.3333333333334</ele><time>2026-04-26T08:33:40Z</time></trkpt><trkpt lat="44.300670053376926" lon="9.713039157505628"><ele>749.0</ele><time>2026-04-26T08:33:41Z</time></trkpt><trkpt lat="44.30067037644839" lon="9.713151299122336"><ele>751.6666666666667</ele><time>2026-04-26T08:33:42Z</time></trkpt><trkpt lat="44.30070782478017" lon="9.71326464347052"><ele>754.3333333333334</ele><time>2026-04-26T08:33:43Z</time></trkpt><trkpt lat="44.30077377770639" lon="9.71336305580683"><ele>757.0</ele><time>2026-04-26T08:33:44Z</time></trkpt><trkpt lat="44.30085705304486" lon="9.713430351892736"><ele>757.0</ele><time>2026-04-26T08:33:45Z</time></trkpt><trkpt lat="44.300945574307846" lon="9.713473572647404"><ele>757.0</ele><time>2026-04-26T08:33:46Z</time></trkpt><trkpt lat="44.301038530657905" lon="9.713498581227379"><ele>757.0</ele><time>2026-04-26T08:33:47Z</time></trkpt><trkpt lat="44.301128002459116" lon="9.713514102857634"><ele>757.0</ele><time>2026-04-26T08:33:48Z</time></trkpt><trkpt lat="44.30121944372945" lon="9.713536650396696"><ele>757.0</ele><time>2026-04-26T08:33:49Z</time></trkpt><trkpt lat="44.30130609696925" lon="9.713574172036187"><ele>757.0</ele><time>2026-04-26T08:33:50Z</time></trkpt><trkpt lat="44.301382634097045" lon="9.713630017935113"><ele>757.0</ele><time>2026-04-26T08:33:51Z</time></trkpt><trkpt lat="44.30145254783249" lon="9.713695392183102"><ele>757.0</ele><time>2026-04-26T08:33:52Z</time></trkpt><trkpt lat="44.30152100269528" lon="9.713778822529841"><ele>757.0</ele><time>2026-04-26T08:33:53Z</time></trkpt><trkpt lat="44.30160153663125" lon="9.713865883385171"><ele>757.0</ele><time>2026-04-26T08:33:54Z</time></trkpt><trkpt lat="44.301701819075916" lon="9.713925448376946"><ele>757.0</ele><time>2026-04-26T08:33:55Z</time></trkpt><trkpt lat="44.30181709464669" lon="9.713956057433796"><ele>757.0</ele><time>2026-04-26T08:33:56Z</time></trkpt><trkpt lat="44.30192251972754" lon="9.713989455225141"><ele>757.0</ele><time>2026-04-26T08:33:57Z</time></trkpt><trkpt lat="44.302024822118575" lon="9.714043544736331"><ele>757.0</ele><time>2026-04-26T08:33:58.001Z</time></trkpt><trkpt lat="44.30210554939978" lon="9.714155691302508"><ele>757.0</ele><time>2026-04-26T08:33:59.001Z</time></trkpt><trkpt lat="44.302199458735174" lon="9.714240399576441"><ele>760.75</ele><time>2026-04-26T08:34:00.001Z</time></trkpt><trkpt lat="44.30229292392639" lon="9.714316280661668"><ele>764.5</ele><time>2026-04-26T08:34:01.001Z</time></trkpt><trkpt lat="44.30240599146333" lon="9.714335792747026"><ele>768.25</ele><time>2026-04-26T08:34:02.001Z</time></trkpt><trkpt lat="44.30253314555496" lon="9.714323339486436"><ele>772.0</ele><time>2026-04-26T08:34:03.001Z</time></trkpt><trkpt lat="44.30266127179915" lon="9.714316902613296"><ele>772.0</ele><time>2026-04-26T08:34:04.001Z</time></trkpt><trkpt lat="44.30279391554769" lon="9.714329362302399"><ele>772.0</ele><time>2026-04-26T08:34:05.001Z</time></trkpt><trkpt lat="44.30292612609844" lon="9.714340060927164"><ele>772.0</ele><time>2026-04-26T08:34:06.001Z</time></trkpt><trkpt lat="44.30305716473239" lon="9.714344308296905"><ele>772.0</ele><time>2026-04-26T08:34:07.001Z</time></trkpt><trkpt lat="44.30318028522497" lon="9.714345170182904"><ele>773.6</ele><time>2026-04-26T08:34:08.001Z</time></trkpt><trkpt lat="44.30328802768954" lon="9.714340935208009"><ele>775.2</ele><time>2026-04-26T08:34:09.001Z</time></trkpt><trkpt lat="44.303396416484304" lon="9.71431601847502"><ele>776.8</ele><time>2026-04-26T08:34:10.001Z</time></trkpt><trkpt lat="44.30350353261291" lon="9.7142730736899"><ele>778.4</ele><time>2026-04-26T08:34:11.001Z</time></trkpt><trkpt lat="44.303615281488455" lon="9.714248213457902"><ele>780.0</ele><time>2026-04-26T08:34:12.001Z</time></trkpt><trkpt lat="44.30372537247553" lon="9.714307154179352"><ele>780.0</ele><time>2026-04-26T08:34:13.001Z</time></trkpt><trkpt lat="44.30385146617917" lon="9.714357685143714"><ele>780.0</ele><time>2026-04-26T08:34:14.001Z</time></trkpt><trkpt lat="44.303968979484026" lon="9.714405703751794"><ele>780.0</ele><time>2026-04-26T08:34:15.001Z</time></trkpt><trkpt lat="44.304092016360336" lon="9.714391604173397"><ele>780.0</ele><time>2026-04-26T08:34:16.001Z</time></trkpt><trkpt lat="44.30421472367567" lon="9.714353013052706"><ele>779.6</ele><time>2026-04-26T08:34:17.001Z</time></trkpt><trkpt lat="44.30433221430492" lon="9.714348186407301"><ele>779.2</ele><time>2026-04-26T08:34:18.001Z</time></trkpt><trkpt lat="44.30442910930774" lon="9.714411020638867"><ele>778.8</ele><time>2026-04-26T08:34:19.001Z</time></trkpt><trkpt lat="44.304519326935655" lon="9.714517032896536"><ele>778.4</ele><time>2026-04-26T08:34:20.001Z</time></trkpt><trkpt lat="44.304607823677806" lon="9.714587363476683"><ele>778.0</ele><time>2026-04-26T08:34:21.001Z</time></trkpt><trkpt lat="44.30470572539585" lon="9.71461326248281"><ele>777.4</ele><time>2026-04-26T08:34:22.001Z</time></trkpt><trkpt lat="44.30480923413909" lon="9.714570535924928"><ele>776.8</ele><time>2026-04-26T08:34:23.001Z</time></trkpt><trkpt lat="44.30489707658976" lon="9.714473166684925"><ele>776.2</ele><time>2026-04-26T08:34:24.001Z</time></trkpt><trkpt lat="44.30497659718329" lon="9.714372829796721"><ele>775.6</ele><time>2026-04-26T08:34:25.001Z</time></trkpt><trkpt lat="44.30506730805369" lon="9.714330593157758"><ele>775.0</ele><time>2026-04-26T08:34:26.001Z</time></trkpt><trkpt lat="44.30518093055408" lon="9.714390874438058"><ele>775.0</ele><time>2026-04-26T08:34:27.001Z</time></trkpt><trkpt lat="44.305302454943714" lon="9.714475612081412"><ele>775.0</ele><time>2026-04-26T08:34:28.001Z</time></trkpt><trkpt lat="44.305408670866825" lon="9.714538613780649"><ele>775.0</ele><time>2026-04-26T08:34:29.001Z</time></trkpt><trkpt lat="44.30551693190764" lon="9.714592182374885"><ele>775.0</ele><time>2026-04-26T08:34:30.001Z</time></trkpt><trkpt lat="44.30561470230117" lon="9.714589706711658"><ele>777.5</ele><time>2026-04-26T08:34:31.001Z</time></trkpt><trkpt lat="44.30570037717847" lon="9.714525471010159"><ele>780.0</ele><time>2026-04-26T08:34:32Z</time></trkpt><trkpt lat="44.30577890336102" lon="9.714406488242753"><ele>782.5</ele><time>2026-04-26T08:34:33Z</time></trkpt><trkpt lat="44.30586029612759" lon="9.71427091379041"><ele>785.0</ele><time>2026-04-26T08:34:34Z</time></trkpt><trkpt lat="44.30595514216743" lon="9.714174778495414"><ele>788.25</ele><time>2026-04-26T08:34:35Z</time></trkpt><trkpt lat="44.30606009813677" lon="9.714072523316108"><ele>791.5</ele><time>2026-04-26T08:34:36Z</time></trkpt><trkpt lat="44.30618827462899" lon="9.714008012403141"><ele>794.75</ele><time>2026-04-26T08:34:37Z</time></trkpt><trkpt lat="44.30631383768259" lon="9.71393845032023"><ele>798.0</ele><time>2026-04-26T08:34:38Z</time></trkpt><trkpt lat="44.306451676301805" lon="9.713880281153807"><ele>800.25</ele><time>2026-04-26T08:34:39Z</time></trkpt><trkpt lat="44.30657544370891" lon="9.713829205605595"><ele>802.5</ele><time>2026-04-26T08:34:40Z</time></trkpt><trkpt lat="44.30669305213565" lon="9.713795622332634"><ele>804.75</ele><time>2026-04-26T08:34:41Z</time></trkpt><trkpt lat="44.306822002595936" lon="9.713822085182953"><ele>807.0</ele><time>2026-04-26T08:34:42Z</time></trkpt><trkpt lat="44.30696330178489" lon="9.713820539121674"><ele>807.0</ele><time>2026-04-26T08:34:43Z</time></trkpt><trkpt lat="44.30711942534656" lon="9.713852655687857"><ele>807.0</ele><time>2026-04-26T08:34:44Z</time></trkpt><trkpt lat="44.30728037411327" lon="9.713880853790059"><ele>807.0</ele><time>2026-04-26T08:34:45Z</time></trkpt><trkpt lat="44.307423859818904" lon="9.713879985566495"><ele>805.6</ele><time>2026-04-26T08:34:46Z</time></trkpt><trkpt lat="44.307553081277135" lon="9.7139006855486"><ele>804.2</ele><time>2026-04-26T08:34:47Z</time></trkpt><trkpt lat="44.307672791649544" lon="9.713926538860806"><ele>802.8</ele><time>2026-04-26T08:34:48Z</time></trkpt><trkpt lat="44.30776058144287" lon="9.713992425090781"><ele>801.4</ele><time>2026-04-26T08:34:49Z</time></trkpt><trkpt lat="44.30779642677187" lon="9.714105962615596"><ele>800.0</ele><time>2026-04-26T08:34:50Z</time></trkpt><trkpt lat="44.30782179611122" lon="9.714216372138148"><ele>800.0</ele><time>2026-04-26T08:34:51Z</time></trkpt><trkpt lat="44.30783824036551" lon="9.714364564618469"><ele>800.0</ele><time>2026-04-26T08:34:52Z</time></trkpt><trkpt lat="44.30785201860778" lon="9.714533087373072"><ele>800.0</ele><time>2026-04-26T08:34:53Z</time></trkpt><trkpt lat="44.30780165127851" lon="9.714686483361866"><ele>800.0</ele><time>2026-04-26T08:34:54Z</time></trkpt><trkpt lat="44.30776398176211" lon="9.714820426387758"><ele>798.6</ele><time>2026-04-26T08:34:55Z</time></trkpt><trkpt lat="44.30772680502514" lon="9.714922197068278"><ele>797.2</ele><time>2026-04-26T08:34:56Z</time></trkpt><trkpt lat="44.30771693184129" lon="9.71504087318623"><ele>795.8</ele><time>2026-04-26T08:34:57Z</time></trkpt><trkpt lat="44.30776138004592" lon="9.715142988237607"><ele>794.4</ele><time>2026-04-26T08:34:58Z</time></trkpt><trkpt lat="44.30784864765147" lon="9.715199670930003"><ele>793.0</ele><time>2026-04-26T08:34:59Z</time></trkpt><trkpt lat="44.30796519263934" lon="9.715226549319059"><ele>792.0</ele><time>2026-04-26T08:35:00Z</time></trkpt><trkpt lat="44.30809540125191" lon="9.715247534633189"><ele>791.0</ele><time>2026-04-26T08:35:01Z</time></trkpt><trkpt lat="44.30822015643859" lon="9.715302318623484"><ele>790.0</ele><time>2026-04-26T08:35:02Z</time></trkpt><trkpt lat="44.3083485527434" lon="9.71538204761517"><ele>789.0</ele><time>2026-04-26T08:35:03Z</time></trkpt><trkpt lat="44.308485058773215" lon="9.715473715478213"><ele>789.0</ele><time>2026-04-26T08:35:04Z</time></trkpt><trkpt lat="44.308625948047386" lon="9.71555960886304"><ele>789.0</ele><time>2026-04-26T08:35:05Z</time></trkpt><trkpt lat="44.30876763877526" lon="9.715648251781843"><ele>789.0</ele><time>2026-04-26T08:35:06Z</time></trkpt><trkpt lat="44.30890067960879" lon="9.715747099862297"><ele>788.0</ele><time>2026-04-26T08:35:07.001Z</time></trkpt><trkpt lat="44.30903108505946" lon="9.715821656893171"><ele>787.0</ele><time>2026-04-26T08:35:08.001Z</time></trkpt><trkpt lat="44.3091533240074" lon="9.715907965730707"><ele>786.0</ele><time>2026-04-26T08:35:09.001Z</time></trkpt><trkpt lat="44.309247098845745" lon="9.716035517379598"><ele>785.0</ele><time>2026-04-26T08:35:10.001Z</time></trkpt><trkpt lat="44.30934150641062" lon="9.716127203922087"><ele>785.0</ele><time>2026-04-26T08:35:11.001Z</time></trkpt><trkpt lat="44.30944584618319" lon="9.716196465085064"><ele>785.0</ele><time>2026-04-26T08:35:12.001Z</time></trkpt><trkpt lat="44.30957339352693" lon="9.716200389576375"><ele>785.0</ele><time>2026-04-26T08:35:13.001Z</time></trkpt><trkpt lat="44.30969662317128" lon="9.716201973099514"><ele>785.0</ele><time>2026-04-26T08:35:14.001Z</time></trkpt><trkpt lat="44.30982026385715" lon="9.716257397981334"><ele>790.75</ele><time>2026-04-26T08:35:15.001Z</time></trkpt><trkpt lat="44.309922229419705" lon="9.716372899968334"><ele>796.5</ele><time>2026-04-26T08:35:16.001Z</time></trkpt><trkpt lat="44.30999468401186" lon="9.716516424717447"><ele>802.25</ele><time>2026-04-26T08:35:17.001Z</time></trkpt><trkpt lat="44.31005735298791" lon="9.71666437732396"><ele>808.0</ele><time>2026-04-26T08:35:18.001Z</time></trkpt><trkpt lat="44.31014329115429" lon="9.716784257280352"><ele>808.0</ele><time>2026-04-26T08:35:19.001Z</time></trkpt><trkpt lat="44.3102591388063" lon="9.716859211858608"><ele>808.0</ele><time>2026-04-26T08:35:20.001Z</time></trkpt><trkpt lat="44.31039873923347" lon="9.716898037603283"><ele>808.0</ele><time>2026-04-26T08:35:21.001Z</time></trkpt><trkpt lat="44.310551606775235" lon="9.716936805041266"><ele>808.0</ele><time>2026-04-26T08:35:22.001Z</time></trkpt><trkpt lat="44.310691031786085" lon="9.716974958035113"><ele>806.25</ele><time>2026-04-26T08:35:23.001Z</time></trkpt><trkpt lat="44.31082554964112" lon="9.717013737033415"><ele>804.5</ele><time>2026-04-26T08:35:24.001Z</time></trkpt><trkpt lat="44.31095887552303" lon="9.717069940263906"><ele>802.75</ele><time>2026-04-26T08:35:25.001Z</time></trkpt><trkpt lat="44.31108837816084" lon="9.717120293333188"><ele>801.0</ele><time>2026-04-26T08:35:26.001Z</time></trkpt><trkpt lat="44.311214630907585" lon="9.717178305295585"><ele>801.0</ele><time>2026-04-26T08:35:27.001Z</time></trkpt><trkpt lat="44.31134063222002" lon="9.717260992076401"><ele>801.0</ele><time>2026-04-26T08:35:28.001Z</time></trkpt><trkpt lat="44.311452658980585" lon="9.717386101491682"><ele>801.0</ele><time>2026-04-26T08:35:29.001Z</time></trkpt><trkpt lat="44.31156284738398" lon="9.717498354235675"><ele>801.0</ele><time>2026-04-26T08:35:30.001Z</time></trkpt><trkpt lat="44.311700229537266" lon="9.717555484897694"><ele>803.25</ele><time>2026-04-26T08:35:31.001Z</time></trkpt><trkpt lat="44.31183626243328" lon="9.71756556552836"><ele>805.5</ele><time>2026-04-26T08:35:32.001Z</time></trkpt><trkpt lat="44.31196227657812" lon="9.717581727005923"><ele>807.75</ele><time>2026-04-26T08:35:33.001Z</time></trkpt><trkpt lat="44.312079060611765" lon="9.717593680521325"><ele>810.0</ele><time>2026-04-26T08:35:34.001Z</time></trkpt><trkpt lat="44.31218356261755" lon="9.71762485746647"><ele>810.4</ele><time>2026-04-26T08:35:35.001Z</time></trkpt><trkpt lat="44.3122626299072" lon="9.717705732921365"><ele>810.8</ele><time>2026-04-26T08:35:36.001Z</time></trkpt><trkpt lat="44.31231014504259" lon="9.717832492740419"><ele>811.2</ele><time>2026-04-26T08:35:37.001Z</time></trkpt><trkpt lat="44.31232611842575" lon="9.717996572101816"><ele>811.6</ele><time>2026-04-26T08:35:38.001Z</time></trkpt><trkpt lat="44.31237055955714" lon="9.718159035933475"><ele>812.0</ele><time>2026-04-26T08:35:39.001Z</time></trkpt><trkpt lat="44.31240261602807" lon="9.718318934932102"><ele>812.0</ele><time>2026-04-26T08:35:40.001Z</time></trkpt><trkpt lat="44.31243557329186" lon="9.718471014506653"><ele>812.0</ele><time>2026-04-26T08:35:41.001Z</time></trkpt><trkpt lat="44.312471327429975" lon="9.718623904459477"><ele>812.0</ele><time>2026-04-26T08:35:42.001Z</time></trkpt><trkpt lat="44.3125083205365" lon="9.71877982266379"><ele>812.0</ele><time>2026-04-26T08:35:43.001Z</time></trkpt><trkpt lat="44.31254901953475" lon="9.718940570284813"><ele>812.0</ele><time>2026-04-26T08:35:44.001Z</time></trkpt><trkpt lat="44.31258456252874" lon="9.719103980293852"><ele>812.0</ele><time>2026-04-26T08:35:45.001Z</time></trkpt><trkpt lat="44.31261199741896" lon="9.71927880852889"><ele>812.0</ele><time>2026-04-26T08:35:46.001Z</time></trkpt><trkpt lat="44.312650961982506" lon="9.719448596760403"><ele>812.0</ele><time>2026-04-26T08:35:47.001Z</time></trkpt><trkpt lat="44.31268623819847" lon="9.71960727778641"><ele>810.5</ele><time>2026-04-26T08:35:48.001Z</time></trkpt><trkpt lat="44.312727030345" lon="9.719752036866465"><ele>809.0</ele><time>2026-04-26T08:35:49.001Z</time></trkpt><trkpt lat="44.31279707867646" lon="9.719870941239156"><ele>807.5</ele><time>2026-04-26T08:35:50.001Z</time></trkpt><trkpt lat="44.31290074265091" lon="9.719945800816982"><ele>806.0</ele><time>2026-04-26T08:35:51.001Z</time></trkpt><trkpt lat="44.313020924220986" lon="9.719999506764852"><ele>811.0</ele><time>2026-04-26T08:35:52.001Z</time></trkpt><trkpt lat="44.31314512235969" lon="9.720072295879348"><ele>816.0</ele><time>2026-04-26T08:35:53.001Z</time></trkpt><trkpt lat="44.313251460807706" lon="9.72016023872945"><ele>821.0</ele><time>2026-04-26T08:35:54.001Z</time></trkpt><trkpt lat="44.313358270889836" lon="9.720225794243262"><ele>826.0</ele><time>2026-04-26T08:35:55.001Z</time></trkpt><trkpt lat="44.31348295609361" lon="9.720223031477172"><ele>826.0</ele><time>2026-04-26T08:35:56.001Z</time></trkpt><trkpt lat="44.31360481433484" lon="9.720178341024694"><ele>826.0</ele><time>2026-04-26T08:35:57.001Z</time></trkpt><trkpt lat="44.31372432833643" lon="9.720200002036714"><ele>826.0</ele><time>2026-04-26T08:35:58.001Z</time></trkpt><trkpt lat="44.31384412691894" lon="9.720236659544614"><ele>826.0</ele><time>2026-04-26T08:35:59.001Z</time></trkpt><trkpt lat="44.31396293182465" lon="9.720272960497509"><ele>825.5</ele><time>2026-04-26T08:36:00.001Z</time></trkpt><trkpt lat="44.314070022545444" lon="9.720343370904137"><ele>825.0</ele><time>2026-04-26T08:36:01.001Z</time></trkpt><trkpt lat="44.314174256104366" lon="9.720445505941973"><ele>824.5</ele><time>2026-04-26T08:36:02.001Z</time></trkpt><trkpt lat="44.3142880460239" lon="9.720561171837224"><ele>824.0</ele><time>2026-04-26T08:36:03.001Z</time></trkpt><trkpt lat="44.31438567294424" lon="9.720649443410737"><ele>824.0</ele><time>2026-04-26T08:36:04.001Z</time></trkpt><trkpt lat="44.31446668461152" lon="9.720769554478338"><ele>824.0</ele><time>2026-04-26T08:36:05.001Z</time></trkpt><trkpt lat="44.31453187392812" lon="9.720920660307938"><ele>824.0</ele><time>2026-04-26T08:36:06.001Z</time></trkpt><trkpt lat="44.31460109789293" lon="9.721073895933117"><ele>824.0</ele><time>2026-04-26T08:36:07.001Z</time></trkpt><trkpt lat="44.31468996732044" lon="9.7212009393096"><ele>823.75</ele><time>2026-04-26T08:36:08.001Z</time></trkpt><trkpt lat="44.31480685636189" lon="9.72130152728958"><ele>823.5</ele><time>2026-04-26T08:36:09.001Z</time></trkpt><trkpt lat="44.31493617487124" lon="9.721385778881672"><ele>823.25</ele><time>2026-04-26T08:36:10.001Z</time></trkpt><trkpt lat="44.31505601922074" lon="9.721481535216766"><ele>823.0</ele><time>2026-04-26T08:36:11.001Z</time></trkpt><trkpt lat="44.31518088663095" lon="9.721581011269992"><ele>823.0</ele><time>2026-04-26T08:36:12.001Z</time></trkpt><trkpt lat="44.3153097924568" lon="9.72167097370803"><ele>823.0</ele><time>2026-04-26T08:36:13.002Z</time></trkpt><trkpt lat="44.31545078244278" lon="9.721738870009824"><ele>823.0</ele><time>2026-04-26T08:36:14.002Z</time></trkpt><trkpt lat="44.31559970640488" lon="9.72178291420816"><ele>823.0</ele><time>2026-04-26T08:36:15.002Z</time></trkpt><trkpt lat="44.31575535320026" lon="9.721811827733392"><ele>827.3333333333333</ele><time>2026-04-26T08:36:16.002Z</time></trkpt><trkpt lat="44.31591311638651" lon="9.721863048645549"><ele>831.6666666666667</ele><time>2026-04-26T08:36:17.002Z</time></trkpt><trkpt lat="44.31606798242898" lon="9.721877288918666"><ele>836.0</ele><time>2026-04-26T08:36:18.002Z</time></trkpt><trkpt lat="44.31621306869375" lon="9.721920994061705"><ele>840.0</ele><time>2026-04-26T08:36:19.002Z</time></trkpt><trkpt lat="44.316358887213305" lon="9.721963327241236"><ele>844.0</ele><time>2026-04-26T08:36:20.002Z</time></trkpt><trkpt lat="44.31649500903952" lon="9.722004849219443"><ele>848.0</ele><time>2026-04-26T08:36:21.002Z</time></trkpt><trkpt lat="44.316610363660125" lon="9.722049649134181"><ele>852.0</ele><time>2026-04-26T08:36:22.002Z</time></trkpt><trkpt lat="44.316733221913545" lon="9.72206954559833"><ele>851.0</ele><time>2026-04-26T08:36:23.002Z</time></trkpt><trkpt lat="44.316848720025426" lon="9.722011926230284"><ele>850.0</ele><time>2026-04-26T08:36:24.002Z</time></trkpt><trkpt lat="44.316951984687115" lon="9.721911770437062"><ele>849.0</ele><time>2026-04-26T08:36:25.002Z</time></trkpt><trkpt lat="44.31702101998453" lon="9.721788651661445"><ele>848.0</ele><time>2026-04-26T08:36:26.002Z</time></trkpt><trkpt lat="44.31705987065124" lon="9.721644385209862"><ele>848.0</ele><time>2026-04-26T08:36:27.002Z</time></trkpt><trkpt lat="44.3170909631728" lon="9.721495976612934"><ele>848.0</ele><time>2026-04-26T08:36:28.002Z</time></trkpt><trkpt lat="44.31715478934953" lon="9.72139473394796"><ele>848.0</ele><time>2026-04-26T08:36:29.002Z</time></trkpt><trkpt lat="44.31721651214478" lon="9.721293520037326"><ele>848.0</ele><time>2026-04-26T08:36:30.002Z</time></trkpt><trkpt lat="44.31732068976599" lon="9.721304323748692"><ele>848.0</ele><time>2026-04-26T08:36:31.002Z</time></trkpt><trkpt lat="44.3174274287241" lon="9.72132416769536"><ele>851.5</ele><time>2026-04-26T08:36:32.002Z</time></trkpt><trkpt lat="44.3175233533866" lon="9.721411001703387"><ele>855.0</ele><time>2026-04-26T08:36:33.002Z</time></trkpt><trkpt lat="44.31763826646133" lon="9.721526901575443"><ele>858.5</ele><time>2026-04-26T08:36:34.002Z</time></trkpt><trkpt lat="44.31775044156619" lon="9.721634958638386"><ele>862.0</ele><time>2026-04-26T08:36:35.002Z</time></trkpt><trkpt lat="44.31784901648647" lon="9.721747580267174"><ele>862.0</ele><time>2026-04-26T08:36:36.002Z</time></trkpt><trkpt lat="44.317940224987794" lon="9.721837700540162"><ele>862.0</ele><time>2026-04-26T08:36:37.002Z</time></trkpt><trkpt lat="44.31805651948563" lon="9.721891514842271"><ele>862.0</ele><time>2026-04-26T08:36:38.001Z</time></trkpt><trkpt lat="44.31819255878284" lon="9.72189232547433"><ele>862.0</ele><time>2026-04-26T08:36:39.001Z</time></trkpt><trkpt lat="44.318327379005275" lon="9.721857621390336"><ele>863.3333333333333</ele><time>2026-04-26T08:36:40.001Z</time></trkpt><trkpt lat="44.318477592976606" lon="9.72184055846729"><ele>864.6666666666667</ele><time>2026-04-26T08:36:41.001Z</time></trkpt><trkpt lat="44.31862826969459" lon="9.721795517020952"><ele>866.0</ele><time>2026-04-26T08:36:42.001Z</time></trkpt><trkpt lat="44.31878643347477" lon="9.721766810847368"><ele>868.6666666666667</ele><time>2026-04-26T08:36:43.001Z</time></trkpt><trkpt lat="44.3189453323039" lon="9.721699612935367"><ele>871.3333333333333</ele><time>2026-04-26T08:36:44.001Z</time></trkpt><trkpt lat="44.319097281600605" lon="9.721610890675652"><ele>874.0</ele><time>2026-04-26T08:36:45.001Z</time></trkpt><trkpt lat="44.319240352673546" lon="9.721519346360726"><ele>874.0</ele><time>2026-04-26T08:36:46.001Z</time></trkpt><trkpt lat="44.3193811527867" lon="9.72145017458194"><ele>874.0</ele><time>2026-04-26T08:36:47.001Z</time></trkpt><trkpt lat="44.31950700954438" lon="9.721354418279166"><ele>874.0</ele><time>2026-04-26T08:36:48.001Z</time></trkpt><trkpt lat="44.31963229640444" lon="9.721292178938997"><ele>874.0</ele><time>2026-04-26T08:36:49.001Z</time></trkpt><trkpt lat="44.31975406591749" lon="9.721265415319797"><ele>877.4000000000001</ele><time>2026-04-26T08:36:50.001Z</time></trkpt><trkpt lat="44.31988080792076" lon="9.721282043837638"><ele>880.8000000000001</ele><time>2026-04-26T08:36:51.001Z</time></trkpt><trkpt lat="44.319998605033206" lon="9.721342724894141"><ele>884.1999999999999</ele><time>2026-04-26T08:36:52.001Z</time></trkpt><trkpt lat="44.32008919849337" lon="9.721358894027532"><ele>887.5999999999999</ele><time>2026-04-26T08:36:53.001Z</time></trkpt><trkpt lat="44.32018000967836" lon="9.721318029743864"><ele>891.0</ele><time>2026-04-26T08:36:54.001Z</time></trkpt><trkpt lat="44.32024790835749" lon="9.721229527471724"><ele>891.0</ele><time>2026-04-26T08:36:55.001Z</time></trkpt><trkpt lat="44.32028719987776" lon="9.72110214341085"><ele>890.9999999999999</ele><time>2026-04-26T08:36:56.001Z</time></trkpt><trkpt lat="44.32028914643136" lon="9.720942234482434"><ele>890.9999999999999</ele><time>2026-04-26T08:36:57.001Z</time></trkpt><trkpt lat="44.32025245871478" lon="9.720774598480412"><ele>891.0</ele><time>2026-04-26T08:36:58.001Z</time></trkpt><trkpt lat="44.3202329732198" lon="9.72063688758754"><ele>891.0</ele><time>2026-04-26T08:36:59.001Z</time></trkpt><trkpt lat="44.32023163668309" lon="9.720525731107895"><ele>891.0</ele><time>2026-04-26T08:37:00.001Z</time></trkpt><trkpt lat="44.32026995688272" lon="9.720431981164298"><ele>890.9999999999999</ele><time>2026-04-26T08:37:01.001Z</time></trkpt><trkpt lat="44.32032878600689" lon="9.720371190151331"><ele>890.9999999999999</ele><time>2026-04-26T08:37:02.001Z</time></trkpt><trkpt lat="44.3204328870343" lon="9.720414086064258"><ele>891.0</ele><time>2026-04-26T08:37:03.001Z</time></trkpt><trkpt lat="44.320542266505846" lon="9.720441371112162"><ele>891.0</ele><time>2026-04-26T08:37:04.001Z</time></trkpt><trkpt lat="44.32066333167586" lon="9.720446445164683"><ele>891.0</ele><time>2026-04-26T08:37:05.001Z</time></trkpt><trkpt lat="44.32075993542083" lon="9.720472518360218"><ele>890.9999999999999</ele><time>2026-04-26T08:37:06.001Z</time></trkpt><trkpt lat="44.32085374625209" lon="9.720527789748031"><ele>890.9999999999999</ele><time>2026-04-26T08:37:07.001Z</time></trkpt><trkpt lat="44.32091193556078" lon="9.720656312791593"><ele>891.0</ele><time>2026-04-26T08:37:08.001Z</time></trkpt><trkpt lat="44.32094749057097" lon="9.72074568431464"><ele>891.0</ele><time>2026-04-26T08:37:09.001Z</time></trkpt><trkpt lat="44.32096390171574" lon="9.72083810633892"><ele>891.0</ele><time>2026-04-26T08:37:10.001Z</time></trkpt><trkpt lat="44.32097118575187" lon="9.720967258913136"><ele>890.9999999999999</ele><time>2026-04-26T08:37:11.001Z</time></trkpt><trkpt lat="44.32094109825496" lon="9.72109610282592"><ele>890.9999999999999</ele><time>2026-04-26T08:37:12.001Z</time></trkpt><trkpt lat="44.320879827759626" lon="9.721234807890156"><ele>891.0</ele><time>2026-04-26T08:37:13.001Z</time></trkpt><trkpt lat="44.32078571433629" lon="9.72134060756739"><ele>891.0</ele><time>2026-04-26T08:37:14.001Z</time></trkpt><trkpt lat="44.32067030711459" lon="9.721416098856734"><ele>891.0</ele><time>2026-04-26T08:37:15.001Z</time></trkpt><trkpt lat="44.32055837167469" lon="9.721460685547974"><ele>891.0</ele><time>2026-04-26T08:37:16.001Z</time></trkpt><trkpt lat="44.32046252014725" lon="9.721540805478499"><ele>891.0</ele><time>2026-04-26T08:37:17.001Z</time></trkpt><trkpt lat="44.320401807874326" lon="9.721686389662878"><ele>891.0</ele><time>2026-04-26T08:37:18.001Z</time></trkpt><trkpt lat="44.32034159906653" lon="9.721852492548852"><ele>895.75</ele><time>2026-04-26T08:37:19.001Z</time></trkpt><trkpt lat="44.32023910930314" lon="9.72194970642945"><ele>900.5</ele><time>2026-04-26T08:37:20.001Z</time></trkpt><trkpt lat="44.32011459237569" lon="9.72203451424252"><ele>905.25</ele><time>2026-04-26T08:37:21.001Z</time></trkpt><trkpt lat="44.319998463948934" lon="9.722112667155002"><ele>910.0</ele><time>2026-04-26T08:37:22.001Z</time></trkpt><trkpt lat="44.319909672715845" lon="9.722235396637096"><ele>910.0</ele><time>2026-04-26T08:37:23.001Z</time></trkpt><trkpt lat="44.31984541684001" lon="9.722404588446485"><ele>910.0</ele><time>2026-04-26T08:37:24.001Z</time></trkpt><trkpt lat="44.31981003084525" lon="9.722598773022556"><ele>910.0</ele><time>2026-04-26T08:37:25.001Z</time></trkpt><trkpt lat="44.31977945302884" lon="9.722783558023323"><ele>910.0</ele><time>2026-04-26T08:37:26.001Z</time></trkpt><trkpt lat="44.31971231187579" lon="9.722932153581768"><ele>910.25</ele><time>2026-04-26T08:37:27.001Z</time></trkpt><trkpt lat="44.31960630212273" lon="9.723041805416987"><ele>910.5</ele><time>2026-04-26T08:37:28.001Z</time></trkpt><trkpt lat="44.31947506682987" lon="9.723113942169464"><ele>910.75</ele><time>2026-04-26T08:37:29.001Z</time></trkpt><trkpt lat="44.319342106951495" lon="9.72317159553862"><ele>911.0</ele><time>2026-04-26T08:37:30.001Z</time></trkpt><trkpt lat="44.31922970484839" lon="9.723246436871971"><ele>911.0</ele><time>2026-04-26T08:37:31.001Z</time></trkpt><trkpt lat="44.3191443133638" lon="9.723386398619036"><ele>911.0</ele><time>2026-04-26T08:37:32.001Z</time></trkpt><trkpt lat="44.31905769787552" lon="9.72353355228012"><ele>911.0</ele><time>2026-04-26T08:37:33.001Z</time></trkpt><trkpt lat="44.31893372058348" lon="9.72363077943026"><ele>911.0</ele><time>2026-04-26T08:37:34.001Z</time></trkpt><trkpt lat="44.318787058010834" lon="9.72368172822082"><ele>913.75</ele><time>2026-04-26T08:37:35.001Z</time></trkpt><trkpt lat="44.318640539931685" lon="9.723739465896763"><ele>916.5</ele><time>2026-04-26T08:37:36.001Z</time></trkpt><trkpt lat="44.31851250882432" lon="9.723824918523292"><ele>919.25</ele><time>2026-04-26T08:37:37.001Z</time></trkpt><trkpt lat="44.318409613856154" lon="9.723908424166787"><ele>922.0</ele><time>2026-04-26T08:37:38.001Z</time></trkpt><trkpt lat="44.318313597239076" lon="9.723976737325856"><ele>922.0</ele><time>2026-04-26T08:37:39.001Z</time></trkpt><trkpt lat="44.31822708340325" lon="9.724049691900865"><ele>922.0</ele><time>2026-04-26T08:37:40.001Z</time></trkpt><trkpt lat="44.318156506783126" lon="9.7241480067577"><ele>922.0</ele><time>2026-04-26T08:37:41.001Z</time></trkpt><trkpt lat="44.31811828758623" lon="9.7242776206717"><ele>922.0</ele><time>2026-04-26T08:37:42.001Z</time></trkpt><trkpt lat="44.318124192358106" lon="9.724430591801935"><ele>922.0</ele><time>2026-04-26T08:37:43.001Z</time></trkpt><trkpt lat="44.31817278830101" lon="9.724600027382717"><ele>922.25</ele><time>2026-04-26T08:37:44.001Z</time></trkpt><trkpt lat="44.318245807149225" lon="9.724748245242438"><ele>922.5</ele><time>2026-04-26T08:37:45.001Z</time></trkpt><trkpt lat="44.31832282576739" lon="9.724906128860598"><ele>922.75</ele><time>2026-04-26T08:37:46.001Z</time></trkpt><trkpt lat="44.3184050976917" lon="9.725065623702164"><ele>923.0</ele><time>2026-04-26T08:37:47.001Z</time></trkpt><trkpt lat="44.318506232524996" lon="9.725197957199722"><ele>925.25</ele><time>2026-04-26T08:37:48.001Z</time></trkpt><trkpt lat="44.31860299455055" lon="9.725310819252487"><ele>927.5</ele><time>2026-04-26T08:37:49.001Z</time></trkpt><trkpt lat="44.318700105485824" lon="9.725405627124125"><ele>929.75</ele><time>2026-04-26T08:37:50.001Z</time></trkpt><trkpt lat="44.31881668301229" lon="9.725471032185458"><ele>932.0</ele><time>2026-04-26T08:37:51.001Z</time></trkpt><trkpt lat="44.31895337828466" lon="9.725503617742767"><ele>932.0</ele><time>2026-04-26T08:37:52.001Z</time></trkpt><trkpt lat="44.319087075520635" lon="9.725518094002664"><ele>932.0</ele><time>2026-04-26T08:37:53.001Z</time></trkpt><trkpt lat="44.31921161561963" lon="9.725571633604275"><ele>932.0</ele><time>2026-04-26T08:37:54.001Z</time></trkpt><trkpt lat="44.31931794564103" lon="9.725614013249476"><ele>932.0</ele><time>2026-04-26T08:37:55.001Z</time></trkpt><trkpt lat="44.3193981555457" lon="9.725685932844273"><ele>932.0</ele><time>2026-04-26T08:37:56.001Z</time></trkpt><trkpt lat="44.3194405931266" lon="9.72579359638396"><ele>932.0</ele><time>2026-04-26T08:37:57.001Z</time></trkpt><trkpt lat="44.319439365626806" lon="9.72593059415002"><ele>932.0</ele><time>2026-04-26T08:37:58.001Z</time></trkpt><trkpt lat="44.319467006833904" lon="9.726098297158527"><ele>932.0</ele><time>2026-04-26T08:37:59.001Z</time></trkpt><trkpt lat="44.31950091325156" lon="9.726251289000537"><ele>932.0</ele><time>2026-04-26T08:38:00.001Z</time></trkpt><trkpt lat="44.3195769835339" lon="9.726369306347758"><ele>935.5</ele><time>2026-04-26T08:38:01.001Z</time></trkpt><trkpt lat="44.319695619378436" lon="9.72643223484586"><ele>939.0</ele><time>2026-04-26T08:38:02.001Z</time></trkpt><trkpt lat="44.319825521357025" lon="9.726466564319558"><ele>942.5</ele><time>2026-04-26T08:38:03.001Z</time></trkpt><trkpt lat="44.31993669742018" lon="9.72656916023014"><ele>946.0</ele><time>2026-04-26T08:38:04.001Z</time></trkpt><trkpt lat="44.32002257127547" lon="9.726729477239132"><ele>946.0</ele><time>2026-04-26T08:38:05.001Z</time></trkpt><trkpt lat="44.320127524571106" lon="9.72684673184355"><ele>945.9999999999999</ele><time>2026-04-26T08:38:06.001Z</time></trkpt><trkpt lat="44.320212756920625" lon="9.726951471872184"><ele>945.9999999999999</ele><time>2026-04-26T08:38:07.001Z</time></trkpt><trkpt lat="44.320252793475646" lon="9.727070088313592"><ele>946.0</ele><time>2026-04-26T08:38:08.001Z</time></trkpt><trkpt lat="44.32027895369777" lon="9.727181975407714"><ele>946.0</ele><time>2026-04-26T08:38:09.001Z</time></trkpt><trkpt lat="44.32023366620664" lon="9.727342411920207"><ele>945.0</ele><time>2026-04-26T08:38:10.001Z</time></trkpt><trkpt lat="44.320190011833404" lon="9.727517184759767"><ele>944.0</ele><time>2026-04-26T08:38:11.002Z</time></trkpt><trkpt lat="44.32020689505084" lon="9.727689345537959"><ele>943.0</ele><time>2026-04-26T08:38:12.002Z</time></trkpt><trkpt lat="44.320279216277235" lon="9.72782619641731"><ele>942.0</ele><time>2026-04-26T08:38:13.002Z</time></trkpt><trkpt lat="44.320386158689615" lon="9.727936076546362"><ele>941.75</ele><time>2026-04-26T08:38:14.002Z</time></trkpt><trkpt lat="44.32050642445485" lon="9.72802345297953"><ele>941.5</ele><time>2026-04-26T08:38:15.002Z</time></trkpt><trkpt lat="44.32058590136544" lon="9.72816938709686"><ele>941.25</ele><time>2026-04-26T08:38:16.002Z</time></trkpt><trkpt lat="44.320610129810866" lon="9.72836141295309"><ele>941.0</ele><time>2026-04-26T08:38:17.002Z</time></trkpt><trkpt lat="44.3206550258939" lon="9.728577834480353"><ele>945.5</ele><time>2026-04-26T08:38:18.002Z</time></trkpt><trkpt lat="44.3206685831579" lon="9.728773679478326"><ele>950.0</ele><time>2026-04-26T08:38:19.002Z</time></trkpt><trkpt lat="44.32069309471874" lon="9.728933563538451"><ele>954.5</ele><time>2026-04-26T08:38:20.002Z</time></trkpt><trkpt lat="44.320734892092766" lon="9.729067910678987"><ele>959.0</ele><time>2026-04-26T08:38:21.002Z</time></trkpt><trkpt lat="44.32081307215107" lon="9.72916596495301"><ele>959.0</ele><time>2026-04-26T08:38:22.002Z</time></trkpt><trkpt lat="44.320926960700405" lon="9.729207133816166"><ele>959.0</ele><time>2026-04-26T08:38:23.002Z</time></trkpt><trkpt lat="44.32106027937253" lon="9.72918572348515"><ele>959.0</ele><time>2026-04-26T08:38:24.002Z</time></trkpt><trkpt lat="44.32119793611123" lon="9.729125278959145"><ele>959.0</ele><time>2026-04-26T08:38:25.002Z</time></trkpt><trkpt lat="44.32133239551933" lon="9.729049707451184"><ele>960.75</ele><time>2026-04-26T08:38:26.002Z</time></trkpt><trkpt lat="44.3214471371192" lon="9.72895050019483"><ele>962.5</ele><time>2026-04-26T08:38:27.002Z</time></trkpt><trkpt lat="44.32155906092105" lon="9.72885542907658"><ele>964.25</ele><time>2026-04-26T08:38:28.002Z</time></trkpt><trkpt lat="44.32169431761135" lon="9.728816750274289"><ele>966.0</ele><time>2026-04-26T08:38:29.002Z</time></trkpt><trkpt lat="44.32184117652074" lon="9.728880183005923"><ele>966.0</ele><time>2026-04-26T08:38:30.002Z</time></trkpt><trkpt lat="44.32200762983628" lon="9.728912269392888"><ele>966.0</ele><time>2026-04-26T08:38:31.002Z</time></trkpt><trkpt lat="44.32216537283782" lon="9.728963799157395"><ele>966.0</ele><time>2026-04-26T08:38:32.002Z</time></trkpt><trkpt lat="44.32230680210896" lon="9.729017484960492"><ele>969.25</ele><time>2026-04-26T08:38:33.002Z</time></trkpt><trkpt lat="44.32243149524041" lon="9.72912829318058"><ele>972.5</ele><time>2026-04-26T08:38:34.002Z</time></trkpt><trkpt lat="44.32255070384715" lon="9.729179204035603"><ele>975.75</ele><time>2026-04-26T08:38:35.002Z</time></trkpt><trkpt lat="44.322665300691696" lon="9.729177443786725"><ele>979.0</ele><time>2026-04-26T08:38:36.002Z</time></trkpt><trkpt lat="44.32276229414859" lon="9.729192088313006"><ele>979.0</ele><time>2026-04-26T08:38:37.002Z</time></trkpt><trkpt lat="44.322814182719114" lon="9.729314185085654"><ele>979.0000000000001</ele><time>2026-04-26T08:38:38.002Z</time></trkpt><trkpt lat="44.32282837281556" lon="9.729483997435592"><ele>979.0000000000001</ele><time>2026-04-26T08:38:39.002Z</time></trkpt><trkpt lat="44.322873639776084" lon="9.729627146728518"><ele>979.0</ele><time>2026-04-26T08:38:40.002Z</time></trkpt><trkpt lat="44.322934080503885" lon="9.729729849128594"><ele>979.0</ele><time>2026-04-26T08:38:41.002Z</time></trkpt><trkpt lat="44.32304704016983" lon="9.729764261128759"><ele>980.25</ele><time>2026-04-26T08:38:42.002Z</time></trkpt><trkpt lat="44.32317427337011" lon="9.72973756012933"><ele>981.5</ele><time>2026-04-26T08:38:43.002Z</time></trkpt><trkpt lat="44.32329661771144" lon="9.729680048653966"><ele>982.75</ele><time>2026-04-26T08:38:44.002Z</time></trkpt><trkpt lat="44.323406988942125" lon="9.729706346073154"><ele>984.0</ele><time>2026-04-26T08:38:45.002Z</time></trkpt><trkpt lat="44.32350426213789" lon="9.729771471135754"><ele>984.0</ele><time>2026-04-26T08:38:46.002Z</time></trkpt><trkpt lat="44.32355113603297" lon="9.729941724577492"><ele>984.0</ele><time>2026-04-26T08:38:47.002Z</time></trkpt><trkpt lat="44.32358585742715" lon="9.730116606933892"><ele>984.0</ele><time>2026-04-26T08:38:48.002Z</time></trkpt><trkpt lat="44.32363242070757" lon="9.730270156115202"><ele>984.0</ele><time>2026-04-26T08:38:49.002Z</time></trkpt><trkpt lat="44.3236956001128" lon="9.730379028811436"><ele>983.75</ele><time>2026-04-26T08:38:50.002Z</time></trkpt><trkpt lat="44.323802405522166" lon="9.730446715959918"><ele>983.5</ele><time>2026-04-26T08:38:51.002Z</time></trkpt><trkpt lat="44.32392248524441" lon="9.730503147904223"><ele>983.25</ele><time>2026-04-26T08:38:52.002Z</time></trkpt><trkpt lat="44.32403812811808" lon="9.730558353412132"><ele>983.0</ele><time>2026-04-26T08:38:53.002Z</time></trkpt><trkpt lat="44.32414599129217" lon="9.730619277241075"><ele>983.0</ele><time>2026-04-26T08:38:54.002Z</time></trkpt><trkpt lat="44.32425248585106" lon="9.730654121645713"><ele>983.0</ele><time>2026-04-26T08:38:55.002Z</time></trkpt><trkpt lat="44.324370618371994" lon="9.730612780577891"><ele>983.0</ele><time>2026-04-26T08:38:56.002Z</time></trkpt><trkpt lat="44.32447701298542" lon="9.730503646285708"><ele>983.0</ele><time>2026-04-26T08:38:57.002Z</time></trkpt><trkpt lat="44.324564903387696" lon="9.730397707050955"><ele>983.0</ele><time>2026-04-26T08:38:58.002Z</time></trkpt><trkpt lat="44.32464535326404" lon="9.73035537128231"><ele>983.0</ele><time>2026-04-26T08:38:59.002Z</time></trkpt><trkpt lat="44.32473390332404" lon="9.730376372030676"><ele>983.0</ele><time>2026-04-26T08:39:00.002Z</time></trkpt><trkpt lat="44.32479787784192" lon="9.730462075559599"><ele>983.0</ele><time>2026-04-26T08:39:01.002Z</time></trkpt><trkpt lat="44.32485090745665" lon="9.730577175936533"><ele>983.0</ele><time>2026-04-26T08:39:02.002Z</time></trkpt><trkpt lat="44.32489381198387" lon="9.730719723829589"><ele>986.2</ele><time>2026-04-26T08:39:03.002Z</time></trkpt><trkpt lat="44.32494090465765" lon="9.730849865230072"><ele>989.4</ele><time>2026-04-26T08:39:04.001Z</time></trkpt><trkpt lat="44.325008853212154" lon="9.730945636598165"><ele>992.6000000000001</ele><time>2026-04-26T08:39:05.001Z</time></trkpt><trkpt lat="44.32511616658283" lon="9.730995798685349"><ele>995.8000000000001</ele><time>2026-04-26T08:39:06.001Z</time></trkpt><trkpt lat="44.325235595604035" lon="9.730973380291013"><ele>999.0</ele><time>2026-04-26T08:39:07.001Z</time></trkpt><trkpt lat="44.32533966872236" lon="9.730880741908557"><ele>999.0</ele><time>2026-04-26T08:39:08.001Z</time></trkpt><trkpt lat="44.32541387057958" lon="9.730731793322358"><ele>999.0</ele><time>2026-04-26T08:39:09.001Z</time></trkpt><trkpt lat="44.32547348510683" lon="9.73057243064287"><ele>999.0</ele><time>2026-04-26T08:39:10.001Z</time></trkpt><trkpt lat="44.325562541764306" lon="9.730470654975488"><ele>999.0</ele><time>2026-04-26T08:39:11.001Z</time></trkpt><trkpt lat="44.32566946407792" lon="9.730414043225146"><ele>998.75</ele><time>2026-04-26T08:39:12.001Z</time></trkpt><trkpt lat="44.32579177601189" lon="9.7303530197981"><ele>998.5</ele><time>2026-04-26T08:39:13.001Z</time></trkpt><trkpt lat="44.325926370601124" lon="9.730342595472452"><ele>998.25</ele><time>2026-04-26T08:39:14.001Z</time></trkpt><trkpt lat="44.3260494886465" lon="9.730313178812734"><ele>998.0</ele><time>2026-04-26T08:39:15.001Z</time></trkpt><trkpt lat="44.32614617731887" lon="9.730209729421865"><ele>1003.5999999999999</ele><time>2026-04-26T08:39:16.001Z</time></trkpt><trkpt lat="44.32622437103301" lon="9.730084821983755"><ele>1009.1999999999999</ele><time>2026-04-26T08:39:17.001Z</time></trkpt><trkpt lat="44.3263043423667" lon="9.730015523535249"><ele>1014.8</ele><time>2026-04-26T08:39:18.001Z</time></trkpt><trkpt lat="44.32637818158154" lon="9.729939560824473"><ele>1020.4</ele><time>2026-04-26T08:39:19.001Z</time></trkpt><trkpt lat="44.32646934180998" lon="9.729971706176311"><ele>1026.0</ele><time>2026-04-26T08:39:20.001Z</time></trkpt><trkpt lat="44.32653781814247" lon="9.730067658115804"><ele>1026.2</ele><time>2026-04-26T08:39:21.001Z</time></trkpt><trkpt lat="44.32656982405551" lon="9.730212721582285"><ele>1026.3999999999999</ele><time>2026-04-26T08:39:22.001Z</time></trkpt><trkpt lat="44.32653459210703" lon="9.730384868252642"><ele>1026.6</ele><time>2026-04-26T08:39:23.001Z</time></trkpt><trkpt lat="44.32654666172945" lon="9.730535959069595"><ele>1026.8</ele><time>2026-04-26T08:39:24.001Z</time></trkpt><trkpt lat="44.32657306350291" lon="9.73065395051984"><ele>1027.0</ele><time>2026-04-26T08:39:25.001Z</time></trkpt><trkpt lat="44.326654051748164" lon="9.730732581043148"><ele>1023.25</ele><time>2026-04-26T08:39:26.001Z</time></trkpt><trkpt lat="44.32677067789048" lon="9.730772491871999"><ele>1019.5</ele><time>2026-04-26T08:39:27.001Z</time></trkpt><trkpt lat="44.32689473596022" lon="9.73080198067943"><ele>1015.75</ele><time>2026-04-26T08:39:28.001Z</time></trkpt><trkpt lat="44.32697464429371" lon="9.730881517781771"><ele>1012.0</ele><time>2026-04-26T08:39:29.001Z</time></trkpt><trkpt lat="44.32701997327384" lon="9.731033969508431"><ele>1011.6</ele><time>2026-04-26T08:39:30.001Z</time></trkpt><trkpt lat="44.32702376718464" lon="9.73117340376201"><ele>1011.2</ele><time>2026-04-26T08:39:31.001Z</time></trkpt><trkpt lat="44.32700381686962" lon="9.731328131493903"><ele>1010.8</ele><time>2026-04-26T08:39:32.001Z</time></trkpt><trkpt lat="44.326943189072544" lon="9.731465040302387"><ele>1010.4</ele><time>2026-04-26T08:39:33.001Z</time></trkpt><trkpt lat="44.32690003874288" lon="9.731600306911064"><ele>1010.0</ele><time>2026-04-26T08:39:34.001Z</time></trkpt><trkpt lat="44.32687913005671" lon="9.731722175832852"><ele>1010.0</ele><time>2026-04-26T08:39:35.001Z</time></trkpt><trkpt lat="44.32690588447701" lon="9.731851884689943"><ele>1010.0</ele><time>2026-04-26T08:39:36.001Z</time></trkpt><trkpt lat="44.32695916280541" lon="9.731994266980553"><ele>1010.0</ele><time>2026-04-26T08:39:37.001Z</time></trkpt><trkpt lat="44.327016373973514" lon="9.732147323833598"><ele>1010.0</ele><time>2026-04-26T08:39:38.001Z</time></trkpt><trkpt lat="44.32705318426023" lon="9.732325251756912"><ele>1010.0</ele><time>2026-04-26T08:39:39.001Z</time></trkpt><trkpt lat="44.327082574263784" lon="9.732507248873187"><ele>1010.0</ele><time>2026-04-26T08:39:40.001Z</time></trkpt><trkpt lat="44.327133902994696" lon="9.732667820637934"><ele>1010.0</ele><time>2026-04-26T08:39:41.001Z</time></trkpt><trkpt lat="44.3271932981945" lon="9.732800699694982"><ele>1010.0</ele><time>2026-04-26T08:39:42.001Z</time></trkpt><trkpt lat="44.32719110952658" lon="9.732954795370071"><ele>1008.8</ele><time>2026-04-26T08:39:43.001Z</time></trkpt><trkpt lat="44.32719439395752" lon="9.733102047226364"><ele>1007.6</ele><time>2026-04-26T08:39:44.001Z</time></trkpt><trkpt lat="44.32720826682595" lon="9.733229034216256"><ele>1006.4000000000001</ele><time>2026-04-26T08:39:45.001Z</time></trkpt><trkpt lat="44.32728003836423" lon="9.73332088231278"><ele>1005.2</ele><time>2026-04-26T08:39:46.001Z</time></trkpt><trkpt lat="44.327392944639186" lon="9.733367645696065"><ele>1004.0</ele><time>2026-04-26T08:39:47.001Z</time></trkpt><trkpt lat="44.327519906407666" lon="9.73337640903383"><ele>1011.0</ele><time>2026-04-26T08:39:48.001Z</time></trkpt><trkpt lat="44.32764364785041" lon="9.733387577454637"><ele>1018.0</ele><time>2026-04-26T08:39:49.001Z</time></trkpt><trkpt lat="44.32776141882502" lon="9.733399676660472"><ele>1025.0</ele><time>2026-04-26T08:39:50.001Z</time></trkpt><trkpt lat="44.32787066100069" lon="9.73342181020835"><ele>1032.0</ele><time>2026-04-26T08:39:51.001Z</time></trkpt><trkpt lat="44.32797662986021" lon="9.73346811922169"><ele>1033.6</ele><time>2026-04-26T08:39:52.001Z</time></trkpt><trkpt lat="44.32808053745639" lon="9.733531443176977"><ele>1035.2</ele><time>2026-04-26T08:39:53.001Z</time></trkpt><trkpt lat="44.32817964087736" lon="9.733582013960884"><ele>1036.8</ele><time>2026-04-26T08:39:54.001Z</time></trkpt><trkpt lat="44.32827760918969" lon="9.733608772827402"><ele>1038.4</ele><time>2026-04-26T08:39:55.001Z</time></trkpt><trkpt lat="44.32836553041473" lon="9.733612305699404"><ele>1040.0</ele><time>2026-04-26T08:39:56.001Z</time></trkpt><trkpt lat="44.32845778762631" lon="9.733617856629262"><ele>1040.0</ele><time>2026-04-26T08:39:57.001Z</time></trkpt><trkpt lat="44.328546219733894" lon="9.733615152994437"><ele>1040.0</ele><time>2026-04-26T08:39:58.001Z</time></trkpt><trkpt lat="44.32862353996253" lon="9.733573236377245"><ele>1040.0</ele><time>2026-04-26T08:39:59.001Z</time></trkpt><trkpt lat="44.32869102525952" lon="9.733497603077069"><ele>1040.0</ele><time>2026-04-26T08:40:00.001Z</time></trkpt><trkpt lat="44.32874518916907" lon="9.733400947313408"><ele>1040.0</ele><time>2026-04-26T08:40:01.001Z</time></trkpt><trkpt lat="44.32878523101793" lon="9.733275727727262"><ele>1040.0</ele><time>2026-04-26T08:40:02.001Z</time></trkpt><trkpt lat="44.328842681750054" lon="9.733140215980807"><ele>1040.4</ele><time>2026-04-26T08:40:03.001Z</time></trkpt><trkpt lat="44.32890884068649" lon="9.733006680700116"><ele>1040.8</ele><time>2026-04-26T08:40:04.001Z</time></trkpt><trkpt lat="44.32897099406583" lon="9.732879197277255"><ele>1041.2</ele><time>2026-04-26T08:40:05.001Z</time></trkpt><trkpt lat="44.32903245061325" lon="9.73275376891212"><ele>1041.6</ele><time>2026-04-26T08:40:06.001Z</time></trkpt><trkpt lat="44.329094263873856" lon="9.732634047758205"><ele>1042.0</ele><time>2026-04-26T08:40:07.001Z</time></trkpt><trkpt lat="44.32913567577292" lon="9.732514876839018"><ele>1041.2</ele><time>2026-04-26T08:40:08.001Z</time></trkpt><trkpt lat="44.32914766697386" lon="9.732383017248008"><ele>1040.4</ele><time>2026-04-26T08:40:09.001Z</time></trkpt><trkpt lat="44.329117731150966" lon="9.732254340666456"><ele>1039.6</ele><time>2026-04-26T08:40:10.001Z</time></trkpt><trkpt lat="44.329054471287535" lon="9.732127805313969"><ele>1038.8</ele><time>2026-04-26T08:40:11.001Z</time></trkpt><trkpt lat="44.32901691077392" lon="9.731988752000866"><ele>1038.0</ele><time>2026-04-26T08:40:12.001Z</time></trkpt><trkpt lat="44.329023954310415" lon="9.731836111056015"><ele>1036.5</ele><time>2026-04-26T08:40:13.001Z</time></trkpt><trkpt lat="44.32906156981955" lon="9.731689722958741"><ele>1035.0</ele><time>2026-04-26T08:40:14.001Z</time></trkpt><trkpt lat="44.329130447088694" lon="9.731536203450553"><ele>1033.5</ele><time>2026-04-26T08:40:15.001Z</time></trkpt><trkpt lat="44.32918285301159" lon="9.731380445572983"><ele>1032.0</ele><time>2026-04-26T08:40:16.002Z</time></trkpt><trkpt lat="44.329225715920444" lon="9.731246791619283"><ele>1032.0</ele><time>2026-04-26T08:40:17.002Z</time></trkpt><trkpt lat="44.329231022887235" lon="9.731109246248149"><ele>1032.0</ele><time>2026-04-26T08:40:18.002Z</time></trkpt><trkpt lat="44.32920938496901" lon="9.730957302240174"><ele>1032.0</ele><time>2026-04-26T08:40:19.002Z</time></trkpt><trkpt lat="44.32918976414401" lon="9.73081225668387"><ele>1032.0</ele><time>2026-04-26T08:40:20.002Z</time></trkpt><trkpt lat="44.32920218410198" lon="9.730680627238405"><ele>1032.0</ele><time>2026-04-26T08:40:21.002Z</time></trkpt><trkpt lat="44.329267633766385" lon="9.730560100190349"><ele>1032.6</ele><time>2026-04-26T08:40:22.002Z</time></trkpt><trkpt lat="44.329380677951754" lon="9.730472905161319"><ele>1033.2</ele><time>2026-04-26T08:40:23.002Z</time></trkpt><trkpt lat="44.32945996657461" lon="9.730395874057027"><ele>1033.8</ele><time>2026-04-26T08:40:24.002Z</time></trkpt><trkpt lat="44.32948250761073" lon="9.73029295978905"><ele>1034.4</ele><time>2026-04-26T08:40:25.002Z</time></trkpt><trkpt lat="44.329463862425946" lon="9.73015572662868"><ele>1035.0</ele><time>2026-04-26T08:40:26.002Z</time></trkpt><trkpt lat="44.32945436208452" lon="9.72999643016585"><ele>1035.4</ele><time>2026-04-26T08:40:27.002Z</time></trkpt><trkpt lat="44.32947649983627" lon="9.729879240907433"><ele>1035.8</ele><time>2026-04-26T08:40:28.002Z</time></trkpt><trkpt lat="44.32955178556168" lon="9.72980330736881"><ele>1036.2</ele><time>2026-04-26T08:40:29.002Z</time></trkpt><trkpt lat="44.32963871410147" lon="9.729742719949481"><ele>1036.6</ele><time>2026-04-26T08:40:30.002Z</time></trkpt><trkpt lat="44.32974033289528" lon="9.729650145398585"><ele>1037.0</ele><time>2026-04-26T08:40:31.002Z</time></trkpt><trkpt lat="44.329831428426715" lon="9.72956842459096"><ele>1031.8</ele><time>2026-04-26T08:40:32.002Z</time></trkpt><trkpt lat="44.32990959496134" lon="9.72946845750007"><ele>1026.6</ele><time>2026-04-26T08:40:33.002Z</time></trkpt><trkpt lat="44.32995889314959" lon="9.729349290361771"><ele>1021.3999999999999</ele><time>2026-04-26T08:40:34.002Z</time></trkpt><trkpt lat="44.32998074651797" lon="9.729191844846433"><ele>1016.1999999999999</ele><time>2026-04-26T08:40:35.002Z</time></trkpt><trkpt lat="44.33000267151584" lon="9.72901327562885"><ele>1011.0</ele><time>2026-04-26T08:40:36.002Z</time></trkpt><trkpt lat="44.3300194024306" lon="9.728827559389"><ele>1011.0</ele><time>2026-04-26T08:40:37.002Z</time></trkpt><trkpt lat="44.33004232675924" lon="9.72866944090468"><ele>1010.9999999999999</ele><time>2026-04-26T08:40:38.002Z</time></trkpt><trkpt lat="44.33005600528418" lon="9.72855036669281"><ele>1010.9999999999999</ele><time>2026-04-26T08:40:39.002Z</time></trkpt><trkpt lat="44.33010964125238" lon="9.728428719891104"><ele>1011.0</ele><time>2026-04-26T08:40:41.002Z</time></trkpt><trkpt lat="44.33022134341362" lon="9.728373436019897"><ele>1011.0</ele><time>2026-04-26T08:40:43.002Z</time></trkpt><trkpt lat="44.33028624851449" lon="9.72840907137203"><ele>1011.0</ele><time>2026-04-26T08:40:44.002Z</time></trkpt><trkpt lat="44.3303346970197" lon="9.728484997810792"><ele>1010.9999999999999</ele><time>2026-04-26T08:40:45.002Z</time></trkpt><trkpt lat="44.3303237849239" lon="9.728603378069337"><ele>1010.9999999999999</ele><time>2026-04-26T08:40:46.002Z</time></trkpt><trkpt lat="44.33028108127913" lon="9.728710901065915"><ele>1011.0</ele><time>2026-04-26T08:40:47.002Z</time></trkpt><trkpt lat="44.330239211233184" lon="9.728838586576412"><ele>1011.0</ele><time>2026-04-26T08:40:48.002Z</time></trkpt><trkpt lat="44.33019560469956" lon="9.72900160451703"><ele>1011.0</ele><time>2026-04-26T08:40:49.002Z</time></trkpt><trkpt lat="44.33016405040859" lon="9.729184441683902"><ele>1011.0</ele><time>2026-04-26T08:40:50.002Z</time></trkpt><trkpt lat="44.33016414047461" lon="9.729388320173667"><ele>1011.0</ele><time>2026-04-26T08:40:51.002Z</time></trkpt><trkpt lat="44.330177771096295" lon="9.729602857551958"><ele>1011.0</ele><time>2026-04-26T08:40:52.002Z</time></trkpt><trkpt lat="44.33015323545458" lon="9.729826972637285"><ele>1010.0</ele><time>2026-04-26T08:40:53.002Z</time></trkpt><trkpt lat="44.330136099066216" lon="9.73003312500848"><ele>1009.0</ele><time>2026-04-26T08:40:54.002Z</time></trkpt><trkpt lat="44.330106026528775" lon="9.730232880569979"><ele>1008.0</ele><time>2026-04-26T08:40:55.002Z</time></trkpt><trkpt lat="44.330076468663336" lon="9.730430239890772"><ele>1007.0</ele><time>2026-04-26T08:40:56.002Z</time></trkpt><trkpt lat="44.33005566361779" lon="9.73058485841325"><ele>1006.8</ele><time>2026-04-26T08:40:57.002Z</time></trkpt><trkpt lat="44.33004323609245" lon="9.730712118348022"><ele>1006.6</ele><time>2026-04-26T08:40:58.002Z</time></trkpt><trkpt lat="44.330054832399234" lon="9.730824706234065"><ele>1006.3999999999999</ele><time>2026-04-26T08:40:59.002Z</time></trkpt><trkpt lat="44.330106645279386" lon="9.730919839124619"><ele>1006.1999999999999</ele><time>2026-04-26T08:41:00.002Z</time></trkpt><trkpt lat="44.33019687561358" lon="9.73096880363937"><ele>1006.0</ele><time>2026-04-26T08:41:01.002Z</time></trkpt><trkpt lat="44.33029628506187" lon="9.730962092451733"><ele>1006.0</ele><time>2026-04-26T08:41:02.002Z</time></trkpt><trkpt lat="44.330400986643575" lon="9.730899651576426"><ele>1006.0</ele><time>2026-04-26T08:41:03.002Z</time></trkpt><trkpt lat="44.33051213659409" lon="9.730804650678131"><ele>1006.0</ele><time>2026-04-26T08:41:04.002Z</time></trkpt><trkpt lat="44.33062919817961" lon="9.730740438777163"><ele>1006.0</ele><time>2026-04-26T08:41:05.002Z</time></trkpt><trkpt lat="44.330741914592316" lon="9.73066609820201"><ele>1004.1999999999999</ele><time>2026-04-26T08:41:06.002Z</time></trkpt><trkpt lat="44.33083483109486" lon="9.730618567173336"><ele>1002.3999999999999</ele><time>2026-04-26T08:41:07.002Z</time></trkpt><trkpt lat="44.33093211019508" lon="9.730589383570381"><ele>1000.6</ele><time>2026-04-26T08:41:08.001Z</time></trkpt><trkpt lat="44.33103636283833" lon="9.730648659491433"><ele>998.8</ele><time>2026-04-26T08:41:09.001Z</time></trkpt><trkpt lat="44.33115486112978" lon="9.730675207545415"><ele>997.0</ele><time>2026-04-26T08:41:10.001Z</time></trkpt><trkpt lat="44.3312743496292" lon="9.730701977482285"><ele>997.0</ele><time>2026-04-26T08:41:11.001Z</time></trkpt><trkpt lat="44.33139002152896" lon="9.730729570965329"><ele>997.0</ele><time>2026-04-26T08:41:12.001Z</time></trkpt><trkpt lat="44.331516655461684" lon="9.73075542413786"><ele>997.0</ele><time>2026-04-26T08:41:13.001Z</time></trkpt><trkpt lat="44.33164385814666" lon="9.730801302669326"><ele>997.0</ele><time>2026-04-26T08:41:14.001Z</time></trkpt><trkpt lat="44.331762836782225" lon="9.730870388036433"><ele>994.75</ele><time>2026-04-26T08:41:15.001Z</time></trkpt><trkpt lat="44.33188040980518" lon="9.730965926415074"><ele>992.5</ele><time>2026-04-26T08:41:16.001Z</time></trkpt><trkpt lat="44.33200514950325" lon="9.731020537523632"><ele>990.25</ele><time>2026-04-26T08:41:17.001Z</time></trkpt><trkpt lat="44.3321209760068" lon="9.731075557552321"><ele>988.0</ele><time>2026-04-26T08:41:18.001Z</time></trkpt><trkpt lat="44.33219349711853" lon="9.73126071093407"><ele>989.25</ele><time>2026-04-26T08:41:19.001Z</time></trkpt><trkpt lat="44.332298267024676" lon="9.731275496874478"><ele>990.5</ele><time>2026-04-26T08:41:20.001Z</time></trkpt><trkpt lat="44.332426732279565" lon="9.73123392203032"><ele>991.75</ele><time>2026-04-26T08:41:21.001Z</time></trkpt><trkpt lat="44.33254947251489" lon="9.731191145884052"><ele>993.0</ele><time>2026-04-26T08:41:22.001Z</time></trkpt><trkpt lat="44.33266281577455" lon="9.731169878346021"><ele>993.0</ele><time>2026-04-26T08:41:23.001Z</time></trkpt><trkpt lat="44.332773051122736" lon="9.731207895887612"><ele>993.0</ele><time>2026-04-26T08:41:24.001Z</time></trkpt><trkpt lat="44.33287568588776" lon="9.731289040436382"><ele>993.0</ele><time>2026-04-26T08:41:25.001Z</time></trkpt><trkpt lat="44.332970979105305" lon="9.731383725260594"><ele>993.0</ele><time>2026-04-26T08:41:26.001Z</time></trkpt><trkpt lat="44.333056654538225" lon="9.731505549323323"><ele>992.75</ele><time>2026-04-26T08:41:27.001Z</time></trkpt><trkpt lat="44.33314199365718" lon="9.731663995440837"><ele>992.5</ele><time>2026-04-26T08:41:28.001Z</time></trkpt><trkpt lat="44.33322288152906" lon="9.731815915163763"><ele>992.25</ele><time>2026-04-26T08:41:29.001Z</time></trkpt><trkpt lat="44.33329648794899" lon="9.731937693143038"><ele>992.0</ele><time>2026-04-26T08:41:30.001Z</time></trkpt><trkpt lat="44.333366351831735" lon="9.732001748501789"><ele>992.0</ele><time>2026-04-26T08:41:31.001Z</time></trkpt><trkpt lat="44.33346381849831" lon="9.732002771401966"><ele>992.0</ele><time>2026-04-26T08:41:32.001Z</time></trkpt><trkpt lat="44.333575746159994" lon="9.731946258932332"><ele>992.0</ele><time>2026-04-26T08:41:33.001Z</time></trkpt><trkpt lat="44.333710477898094" lon="9.731900282218392"><ele>992.0</ele><time>2026-04-26T08:41:34.001Z</time></trkpt><trkpt lat="44.33383967314535" lon="9.731863451652861"><ele>983.5</ele><time>2026-04-26T08:41:35.001Z</time></trkpt><trkpt lat="44.333961427728624" lon="9.731819622663908"><ele>975.0</ele><time>2026-04-26T08:41:36.001Z</time></trkpt><trkpt lat="44.33408639848397" lon="9.731788461165173"><ele>966.5</ele><time>2026-04-26T08:41:37.001Z</time></trkpt><trkpt lat="44.334200580443046" lon="9.73176264926499"><ele>958.0</ele><time>2026-04-26T08:41:38.001Z</time></trkpt><trkpt lat="44.33432232545789" lon="9.73178787504166"><ele>958.0</ele><time>2026-04-26T08:41:39.001Z</time></trkpt><trkpt lat="44.33446305691996" lon="9.731811495641308"><ele>958.0</ele><time>2026-04-26T08:41:40.001Z</time></trkpt><trkpt lat="44.33457952400491" lon="9.731853934519307"><ele>958.0</ele><time>2026-04-26T08:41:41.001Z</time></trkpt><trkpt lat="44.33470824465324" lon="9.731873920598563"><ele>958.0</ele><time>2026-04-26T08:41:42.001Z</time></trkpt><trkpt lat="44.33481701335782" lon="9.731906448666264"><ele>957.8</ele><time>2026-04-26T08:41:43.001Z</time></trkpt><trkpt lat="44.33492992468957" lon="9.731965473237935"><ele>957.5999999999999</ele><time>2026-04-26T08:41:44.001Z</time></trkpt><trkpt lat="44.335037116457535" lon="9.732034143364123"><ele>957.4000000000001</ele><time>2026-04-26T08:41:45.001Z</time></trkpt><trkpt lat="44.33511914783848" lon="9.732111727338483"><ele>957.2</ele><time>2026-04-26T08:41:46.001Z</time></trkpt><trkpt lat="44.33517322903341" lon="9.732221911349281"><ele>957.0</ele><time>2026-04-26T08:41:47.001Z</time></trkpt><trkpt lat="44.335181271370814" lon="9.732394458900316"><ele>957.0</ele><time>2026-04-26T08:41:48.001Z</time></trkpt><trkpt lat="44.33517616605718" lon="9.732554851330745"><ele>957.0</ele><time>2026-04-26T08:41:49.001Z</time></trkpt><trkpt lat="44.335145107552066" lon="9.73270554272032"><ele>957.0</ele><time>2026-04-26T08:41:50.001Z</time></trkpt><trkpt lat="44.33511841097273" lon="9.732851358896568"><ele>957.0</ele><time>2026-04-26T08:41:51.001Z</time></trkpt><trkpt lat="44.335123805734646" lon="9.733000791494286"><ele>957.0</ele><time>2026-04-26T08:41:52.001Z</time></trkpt><trkpt lat="44.3351855826207" lon="9.73317233496946"><ele>957.6</ele><time>2026-04-26T08:41:53.001Z</time></trkpt><trkpt lat="44.33526776924974" lon="9.73332195484699"><ele>958.2</ele><time>2026-04-26T08:41:54.001Z</time></trkpt><trkpt lat="44.33530855544349" lon="9.733419041833717"><ele>958.8</ele><time>2026-04-26T08:41:55.001Z</time></trkpt><trkpt lat="44.33533497661641" lon="9.73354085750656"><ele>959.4</ele><time>2026-04-26T08:41:56.001Z</time></trkpt><trkpt lat="44.3353670283063" lon="9.733668581102602"><ele>960.0</ele><time>2026-04-26T08:41:57.001Z</time></trkpt><trkpt lat="44.33535379649964" lon="9.733785404509762"><ele>955.0</ele><time>2026-04-26T08:41:58.001Z</time></trkpt><trkpt lat="44.33529166646452" lon="9.733907585999745"><ele>950.0</ele><time>2026-04-26T08:41:59.001Z</time></trkpt><trkpt lat="44.33518500325617" lon="9.734010073856169"><ele>945.0</ele><time>2026-04-26T08:42:00.001Z</time></trkpt><trkpt lat="44.335067089229874" lon="9.734128899906029"><ele>940.0</ele><time>2026-04-26T08:42:01.001Z</time></trkpt><trkpt lat="44.33497343781579" lon="9.734244973031917"><ele>940.0</ele><time>2026-04-26T08:42:02.001Z</time></trkpt><trkpt lat="44.3348558476565" lon="9.734344439875423"><ele>940.0</ele><time>2026-04-26T08:42:03.001Z</time></trkpt><trkpt lat="44.33472482788853" lon="9.734446315699918"><ele>940.0</ele><time>2026-04-26T08:42:04.001Z</time></trkpt><trkpt lat="44.334590686469035" lon="9.734545281384959"><ele>940.0</ele><time>2026-04-26T08:42:05.001Z</time></trkpt><trkpt lat="44.3344631253764" lon="9.734628498984844"><ele>941.2</ele><time>2026-04-26T08:42:06.001Z</time></trkpt><trkpt lat="44.3343654799151" lon="9.73473670668728"><ele>942.4</ele><time>2026-04-26T08:42:07.001Z</time></trkpt><trkpt lat="44.33427651563288" lon="9.734808262154866"><ele>943.5999999999999</ele><time>2026-04-26T08:42:08.001Z</time></trkpt><trkpt lat="44.334208355246815" lon="9.734863409546644"><ele>944.8</ele><time>2026-04-26T08:42:09.001Z</time></trkpt><trkpt lat="44.334157399291804" lon="9.734955392892052"><ele>946.0</ele><time>2026-04-26T08:42:10.001Z</time></trkpt><trkpt lat="44.334144708330264" lon="9.735086180536282"><ele>945.25</ele><time>2026-04-26T08:42:11.001Z</time></trkpt><trkpt lat="44.334172477182" lon="9.735226688348462"><ele>944.5</ele><time>2026-04-26T08:42:12.001Z</time></trkpt><trkpt lat="44.33422295736777" lon="9.735379550789792"><ele>943.75</ele><time>2026-04-26T08:42:13.001Z</time></trkpt><trkpt lat="44.334279564632745" lon="9.735531915710482"><ele>943.0</ele><time>2026-04-26T08:42:14.001Z</time></trkpt><trkpt lat="44.33434480025043" lon="9.735678213141188"><ele>943.0</ele><time>2026-04-26T08:42:15.001Z</time></trkpt><trkpt lat="44.33443948119584" lon="9.735801075784865"><ele>943.0</ele><time>2026-04-26T08:42:16.001Z</time></trkpt><trkpt lat="44.33456222927373" lon="9.735897582078694"><ele>943.0</ele><time>2026-04-26T08:42:17.001Z</time></trkpt><trkpt lat="44.33467680554191" lon="9.735975242025779"><ele>943.0</ele><time>2026-04-26T08:42:18.001Z</time></trkpt><trkpt lat="44.33476022943187" lon="9.736061043398678"><ele>940.8</ele><time>2026-04-26T08:42:19.001Z</time></trkpt><trkpt lat="44.33481171776494" lon="9.736170791936816"><ele>938.5999999999999</ele><time>2026-04-26T08:42:20.001Z</time></trkpt><trkpt lat="44.334837198126124" lon="9.73630007010847"><ele>936.4000000000001</ele><time>2026-04-26T08:42:21.001Z</time></trkpt><trkpt lat="44.33482370313493" lon="9.736432970321886"><ele>934.2</ele><time>2026-04-26T08:42:22.001Z</time></trkpt><trkpt lat="44.33477709611739" lon="9.73653706627493"><ele>932.0</ele><time>2026-04-26T08:42:23.001Z</time></trkpt><trkpt lat="44.33470009228654" lon="9.736591271996819"><ele>932.0</ele><time>2026-04-26T08:42:24.001Z</time></trkpt><trkpt lat="44.33455300896711" lon="9.736600598663031"><ele>932.0</ele><time>2026-04-26T08:42:25.001Z</time></trkpt><trkpt lat="44.33444699664263" lon="9.736589442824195"><ele>932.0</ele><time>2026-04-26T08:42:26.001Z</time></trkpt><trkpt lat="44.33435064733009" lon="9.736617366470183"><ele>932.0</ele><time>2026-04-26T08:42:27.001Z</time></trkpt><trkpt lat="44.334299285225676" lon="9.736733688127037"><ele>926.4000000000001</ele><time>2026-04-26T08:42:28.001Z</time></trkpt><trkpt lat="44.33428870841293" lon="9.73689062762231"><ele>920.8000000000001</ele><time>2026-04-26T08:42:29.001Z</time></trkpt><trkpt lat="44.33428973795492" lon="9.737049536586696"><ele>915.2</ele><time>2026-04-26T08:42:30.001Z</time></trkpt><trkpt lat="44.33428622632939" lon="9.737191750263422"><ele>909.6</ele><time>2026-04-26T08:42:31.001Z</time></trkpt><trkpt lat="44.33426385375976" lon="9.737310427333682"><ele>904.0</ele><time>2026-04-26T08:42:32.001Z</time></trkpt><trkpt lat="44.33421097606444" lon="9.737367583068975"><ele>904.0</ele><time>2026-04-26T08:42:33.001Z</time></trkpt><trkpt lat="44.33414221975153" lon="9.73743919567373"><ele>904.0000000000001</ele><time>2026-04-26T08:42:34.001Z</time></trkpt><trkpt lat="44.33405004400031" lon="9.737463348890191"><ele>904.0000000000001</ele><time>2026-04-26T08:42:35.001Z</time></trkpt><trkpt lat="44.333941381312734" lon="9.737528148040495"><ele>904.0</ele><time>2026-04-26T08:42:36.001Z</time></trkpt><trkpt lat="44.33380374197372" lon="9.737546323562746"><ele>904.0</ele><time>2026-04-26T08:42:37.001Z</time></trkpt><trkpt lat="44.33370399651497" lon="9.737590325381438"><ele>903.2</ele><time>2026-04-26T08:42:38.001Z</time></trkpt><trkpt lat="44.333588679680105" lon="9.737604413884545"><ele>902.4000000000001</ele><time>2026-04-26T08:42:39.001Z</time></trkpt><trkpt lat="44.33350170689978" lon="9.73765774028233"><ele>901.6</ele><time>2026-04-26T08:42:40.001Z</time></trkpt><trkpt lat="44.33344451099645" lon="9.737771526446332"><ele>900.8</ele><time>2026-04-26T08:42:41.001Z</time></trkpt><trkpt lat="44.33344478775543" lon="9.737915059438732"><ele>900.0</ele><time>2026-04-26T08:42:42.001Z</time></trkpt><trkpt lat="44.333477695856125" lon="9.73805973741923"><ele>900.0</ele><time>2026-04-26T08:42:43.001Z</time></trkpt><trkpt lat="44.33348841351231" lon="9.738178107257381"><ele>900.0</ele><time>2026-04-26T08:42:44.001Z</time></trkpt><trkpt lat="44.333446144434035" lon="9.73829967445085"><ele>900.0</ele><time>2026-04-26T08:42:45.001Z</time></trkpt><trkpt lat="44.3333445404468" lon="9.738358255887283"><ele>900.0</ele><time>2026-04-26T08:42:46.001Z</time></trkpt><trkpt lat="44.33322383653591" lon="9.738410765622644"><ele>900.0</ele><time>2026-04-26T08:42:47.001Z</time></trkpt><trkpt lat="44.333080701053525" lon="9.738435292655819"><ele>899.0</ele><time>2026-04-26T08:42:48.001Z</time></trkpt><trkpt lat="44.33294017303658" lon="9.738478161471797"><ele>898.0</ele><time>2026-04-26T08:42:49.001Z</time></trkpt><trkpt lat="44.3328129608472" lon="9.738559190904391"><ele>897.0</ele><time>2026-04-26T08:42:50.001Z</time></trkpt><trkpt lat="44.33269923346662" lon="9.738669610314595"><ele>896.0</ele><time>2026-04-26T08:42:51.001Z</time></trkpt><trkpt lat="44.33258983672559" lon="9.73877710304812"><ele>896.0</ele><time>2026-04-26T08:42:52.001Z</time></trkpt><trkpt lat="44.33248774422002" lon="9.738882248895116"><ele>895.9999999999999</ele><time>2026-04-26T08:42:53.001Z</time></trkpt><trkpt lat="44.33241635605615" lon="9.738961349757943"><ele>895.9999999999999</ele><time>2026-04-26T08:42:54.001Z</time></trkpt><trkpt lat="44.33237704818698" lon="9.739060296636229"><ele>896.0</ele><time>2026-04-26T08:42:55.001Z</time></trkpt><trkpt lat="44.33237061579862" lon="9.739183294987368"><ele>896.0</ele><time>2026-04-26T08:42:56.002Z</time></trkpt><trkpt lat="44.33240475625472" lon="9.739318959916115"><ele>895.8</ele><time>2026-04-26T08:42:57.002Z</time></trkpt><trkpt lat="44.332476929963434" lon="9.739425488093838"><ele>895.5999999999999</ele><time>2026-04-26T08:42:58.002Z</time></trkpt><trkpt lat="44.332571663281826" lon="9.739478818934339"><ele>895.4</ele><time>2026-04-26T08:42:59.002Z</time></trkpt><trkpt lat="44.332679586181484" lon="9.739478462836052"><ele>895.2</ele><time>2026-04-26T08:43:00.002Z</time></trkpt><trkpt lat="44.3327839304243" lon="9.739414756613808"><ele>895.0</ele><time>2026-04-26T08:43:01.002Z</time></trkpt><trkpt lat="44.33288332054346" lon="9.739390167059575"><ele>895.2</ele><time>2026-04-26T08:43:02.002Z</time></trkpt><trkpt lat="44.33298089700967" lon="9.739366209313202"><ele>895.4</ele><time>2026-04-26T08:43:03.002Z</time></trkpt><trkpt lat="44.333066932890546" lon="9.739381137047033"><ele>895.5999999999999</ele><time>2026-04-26T08:43:04.002Z</time></trkpt><trkpt lat="44.33313698950463" lon="9.739462624492123"><ele>895.8</ele><time>2026-04-26T08:43:05.002Z</time></trkpt><trkpt lat="44.33323725163739" lon="9.739532640378854"><ele>896.0</ele><time>2026-04-26T08:43:06.002Z</time></trkpt><trkpt lat="44.33333372009112" lon="9.739605361775368"><ele>893.0000000000001</ele><time>2026-04-26T08:43:07.001Z</time></trkpt><trkpt lat="44.3334006329689" lon="9.739669908567594"><ele>890.0</ele><time>2026-04-26T08:43:08.001Z</time></trkpt><trkpt lat="44.33344156234543" lon="9.739770151241325"><ele>887.0</ele><time>2026-04-26T08:43:09.001Z</time></trkpt><trkpt lat="44.333442139370895" lon="9.739879460771965"><ele>884.0</ele><time>2026-04-26T08:43:10.001Z</time></trkpt><trkpt lat="44.333410611140366" lon="9.740001138614856"><ele>881.0000000000001</ele><time>2026-04-26T08:43:11.001Z</time></trkpt><trkpt lat="44.33336061759314" lon="9.740129055275611"><ele>878.0</ele><time>2026-04-26T08:43:12.001Z</time></trkpt><trkpt lat="44.333335638377896" lon="9.740258385280535"><ele>878.0</ele><time>2026-04-26T08:43:13.001Z</time></trkpt><trkpt lat="44.33338327810138" lon="9.740406877143952"><ele>878.0</ele><time>2026-04-26T08:43:14.001Z</time></trkpt><trkpt lat="44.33346239090914" lon="9.740509118770758"><ele>878.0</ele><time>2026-04-26T08:43:15.001Z</time></trkpt><trkpt lat="44.333563796023874" lon="9.740562510838787"><ele>878.0</ele><time>2026-04-26T08:43:16.001Z</time></trkpt><trkpt lat="44.333659154560415" lon="9.740606627216126"><ele>878.0</ele><time>2026-04-26T08:43:17.001Z</time></trkpt><trkpt lat="44.33373242475175" lon="9.740674079855937"><ele>878.0000000000001</ele><time>2026-04-26T08:43:18.001Z</time></trkpt><trkpt lat="44.33379620931336" lon="9.740726593372658"><ele>878.0</ele><time>2026-04-26T08:43:19.001Z</time></trkpt><trkpt lat="44.33386417997925" lon="9.74077546688178"><ele>878.0</ele><time>2026-04-26T08:43:20.001Z</time></trkpt><trkpt lat="44.333862891296576" lon="9.740891257375594"><ele>878.0</ele><time>2026-04-26T08:43:21.001Z</time></trkpt><trkpt lat="44.333900220735295" lon="9.74098286823505"><ele>878.0000000000001</ele><time>2026-04-26T08:43:22.001Z</time></trkpt><trkpt lat="44.33392166867805" lon="9.74107064203671"><ele>878.0</ele><time>2026-04-26T08:43:23.001Z</time></trkpt><trkpt lat="44.33404703431444" lon="9.741117551355488"><ele>877.8</ele><time>2026-04-26T08:43:25.001Z</time></trkpt><trkpt lat="44.334134405906816" lon="9.741089837575354"><ele>877.5999999999999</ele><time>2026-04-26T08:43:26.001Z</time></trkpt><trkpt lat="44.33423570465137" lon="9.741066487806785"><ele>877.4000000000001</ele><time>2026-04-26T08:43:27.001Z</time></trkpt><trkpt lat="44.3343485747207" lon="9.741041047286638"><ele>877.2</ele><time>2026-04-26T08:43:28.001Z</time></trkpt><trkpt lat="44.334472612898246" lon="9.741028093402562"><ele>877.0</ele><time>2026-04-26T08:43:29.001Z</time></trkpt><trkpt lat="44.33460095331498" lon="9.741025315746427"><ele>877.0</ele><time>2026-04-26T08:43:30.001Z</time></trkpt><trkpt lat="44.33472024895516" lon="9.74100208316009"><ele>877.0</ele><time>2026-04-26T08:43:31.001Z</time></trkpt><trkpt lat="44.334835218859375" lon="9.741035980094344"><ele>877.0</ele><time>2026-04-26T08:43:32.001Z</time></trkpt><trkpt lat="44.33495398186281" lon="9.741072692349313"><ele>877.0</ele><time>2026-04-26T08:43:33.001Z</time></trkpt><trkpt lat="44.335081559628215" lon="9.741121581596927"><ele>877.0</ele><time>2026-04-26T08:43:34.001Z</time></trkpt><trkpt lat="44.33520490059435" lon="9.741163138949045"><ele>877.0</ele><time>2026-04-26T08:43:35.001Z</time></trkpt><trkpt lat="44.33532783560584" lon="9.741194513683253"><ele>877.0</ele><time>2026-04-26T08:43:36.001Z</time></trkpt><trkpt lat="44.33544936786016" lon="9.741198927800781"><ele>877.0</ele><time>2026-04-26T08:43:37.001Z</time></trkpt><trkpt lat="44.33558272906679" lon="9.741144237628388"><ele>868.0</ele><time>2026-04-26T08:43:38.001Z</time></trkpt><trkpt lat="44.33572956203228" lon="9.741041798671645"><ele>859.0</ele><time>2026-04-26T08:43:39.001Z</time></trkpt><trkpt lat="44.3358734627984" lon="9.740958340719562"><ele>850.0</ele><time>2026-04-26T08:43:40.001Z</time></trkpt><trkpt lat="44.336004327500326" lon="9.74089010112804"><ele>850.0</ele><time>2026-04-26T08:43:41.001Z</time></trkpt><trkpt lat="44.33614693788139" lon="9.74084139399756"><ele>850.0</ele><time>2026-04-26T08:43:42.001Z</time></trkpt><trkpt lat="44.336291915364065" lon="9.740797182139987"><ele>850.0</ele><time>2026-04-26T08:43:43.001Z</time></trkpt><trkpt lat="44.33642627912696" lon="9.740754945776972"><ele>850.0</ele><time>2026-04-26T08:43:44.001Z</time></trkpt><trkpt lat="44.33652755953873" lon="9.740723572406495"><ele>849.4999999999999</ele><time>2026-04-26T08:43:45.001Z</time></trkpt><trkpt lat="44.33659889308934" lon="9.74072359213722"><ele>849.0</ele><time>2026-04-26T08:43:46.001Z</time></trkpt><trkpt lat="44.33667100957938" lon="9.740745796896414"><ele>848.5</ele><time>2026-04-26T08:43:47.001Z</time></trkpt><trkpt lat="44.336706923379744" lon="9.740833079205363"><ele>848.0</ele><time>2026-04-26T08:43:48.001Z</time></trkpt><trkpt lat="44.33670029523993" lon="9.74097717841727"><ele>847.4999999999999</ele><time>2026-04-26T08:43:49.001Z</time></trkpt><trkpt lat="44.3366798802089" lon="9.741123599476266"><ele>847.0</ele><time>2026-04-26T08:43:50.001Z</time></trkpt><trkpt lat="44.33668841418971" lon="9.741276220657054"><ele>847.0</ele><time>2026-04-26T08:43:51.001Z</time></trkpt><trkpt lat="44.33674609867994" lon="9.741399152955339"><ele>847.0</ele><time>2026-04-26T08:43:52.001Z</time></trkpt><trkpt lat="44.33684574034046" lon="9.741492069674665"><ele>847.0</ele><time>2026-04-26T08:43:53.001Z</time></trkpt><trkpt lat="44.33692712968263" lon="9.741580605130787"><ele>847.0</ele><time>2026-04-26T08:43:54.001Z</time></trkpt><trkpt lat="44.336984543494864" lon="9.741674132868162"><ele>847.0</ele><time>2026-04-26T08:43:55.001Z</time></trkpt><trkpt lat="44.33697678091592" lon="9.74180243945351"><ele>847.75</ele><time>2026-04-26T08:43:56.001Z</time></trkpt><trkpt lat="44.336964624182265" lon="9.741950517303211"><ele>848.5</ele><time>2026-04-26T08:43:57.001Z</time></trkpt><trkpt lat="44.336929610224566" lon="9.742122772493953"><ele>849.25</ele><time>2026-04-26T08:43:58.001Z</time></trkpt><trkpt lat="44.336907969942835" lon="9.742299775374937"><ele>850.0</ele><time>2026-04-26T08:43:59.001Z</time></trkpt><trkpt lat="44.33688902642061" lon="9.742438820968367"><ele>850.0</ele><time>2026-04-26T08:44:00.001Z</time></trkpt><trkpt lat="44.33688042826011" lon="9.742564027664974"><ele>850.0</ele><time>2026-04-26T08:44:01.001Z</time></trkpt><trkpt lat="44.336905883622954" lon="9.742670764439728"><ele>850.0</ele><time>2026-04-26T08:44:02.001Z</time></trkpt><trkpt lat="44.336988385240204" lon="9.742755093747816"><ele>850.0</ele><time>2026-04-26T08:44:03.001Z</time></trkpt><trkpt lat="44.33712901348178" lon="9.742753514491469"><ele>850.0</ele><time>2026-04-26T08:44:04.001Z</time></trkpt><trkpt lat="44.3372551421423" lon="9.742813131453872"><ele>846.5</ele><time>2026-04-26T08:44:05.001Z</time></trkpt><trkpt lat="44.33739113953781" lon="9.742853226115907"><ele>843.0</ele><time>2026-04-26T08:44:06.001Z</time></trkpt><trkpt lat="44.33752928507703" lon="9.74288756961391"><ele>839.5</ele><time>2026-04-26T08:44:07.001Z</time></trkpt><trkpt lat="44.33765669126171" lon="9.742889198200963"><ele>836.0</ele><time>2026-04-26T08:44:08.001Z</time></trkpt><trkpt lat="44.337782566404705" lon="9.742892352825185"><ele>836.0</ele><time>2026-04-26T08:44:09.001Z</time></trkpt><trkpt lat="44.337894258418906" lon="9.742881358198842"><ele>836.0</ele><time>2026-04-26T08:44:10.001Z</time></trkpt><trkpt lat="44.33801224973757" lon="9.742826515480552"><ele>836.0</ele><time>2026-04-26T08:44:11.001Z</time></trkpt><trkpt lat="44.33811531184775" lon="9.74276624597336"><ele>836.0</ele><time>2026-04-26T08:44:12.001Z</time></trkpt><trkpt lat="44.338237447767476" lon="9.742696519632378"><ele>834.6666666666667</ele><time>2026-04-26T08:44:13.001Z</time></trkpt><trkpt lat="44.33834041635817" lon="9.742645369279876"><ele>833.3333333333334</ele><time>2026-04-26T08:44:14.001Z</time></trkpt><trkpt lat="44.338426114779736" lon="9.742620165845855"><ele>832.0</ele><time>2026-04-26T08:44:15.001Z</time></trkpt><trkpt lat="44.33849131507494" lon="9.74262666196594"><ele>830.6666666666667</ele><time>2026-04-26T08:44:16.001Z</time></trkpt><trkpt lat="44.33855784244171" lon="9.742637095979015"><ele>829.3333333333334</ele><time>2026-04-26T08:44:17.001Z</time></trkpt><trkpt lat="44.33860873242383" lon="9.742698497763513"><ele>828.0</ele><time>2026-04-26T08:44:18.001Z</time></trkpt><trkpt lat="44.33867476726508" lon="9.742779749090726"><ele>828.0</ele><time>2026-04-26T08:44:19.001Z</time></trkpt><trkpt lat="44.33876458770442" lon="9.742832517964805"><ele>828.0</ele><time>2026-04-26T08:44:20.001Z</time></trkpt><trkpt lat="44.33884634118869" lon="9.742856576125268"><ele>828.0</ele><time>2026-04-26T08:44:21.001Z</time></trkpt><trkpt lat="44.33893906742673" lon="9.742828032854687"><ele>828.0</ele><time>2026-04-26T08:44:22.001Z</time></trkpt><trkpt lat="44.33902735475456" lon="9.742695572112039"><ele>828.0</ele><time>2026-04-26T08:44:23.001Z</time></trkpt><trkpt lat="44.33912272076317" lon="9.742556660292033"><ele>824.5</ele><time>2026-04-26T08:44:24.001Z</time></trkpt><trkpt lat="44.339228806150636" lon="9.742432901795066"><ele>821.0</ele><time>2026-04-26T08:44:25.001Z</time></trkpt><trkpt lat="44.3393248762285" lon="9.742301330495152"><ele>817.5</ele><time>2026-04-26T08:44:26.001Z</time></trkpt><trkpt lat="44.33941916019825" lon="9.742174552638064"><ele>814.0</ele><time>2026-04-26T08:44:27.001Z</time></trkpt><trkpt lat="44.3395116019219" lon="9.7420543003291"><ele>814.0</ele><time>2026-04-26T08:44:28.001Z</time></trkpt><trkpt lat="44.33961816656407" lon="9.741957179746846"><ele>814.0</ele><time>2026-04-26T08:44:29.001Z</time></trkpt><trkpt lat="44.33973962129301" lon="9.741886218019888"><ele>814.0</ele><time>2026-04-26T08:44:30.001Z</time></trkpt><trkpt lat="44.33984089275789" lon="9.741779764523901"><ele>814.0</ele><time>2026-04-26T08:44:31.001Z</time></trkpt><trkpt lat="44.33992657081737" lon="9.741672885918538"><ele>812.8000000000001</ele><time>2026-04-26T08:44:32.001Z</time></trkpt><trkpt lat="44.3399926636499" lon="9.74152689861609"><ele>811.6</ele><time>2026-04-26T08:44:33Z</time></trkpt><trkpt lat="44.34006307689145" lon="9.741418182708994"><ele>810.4</ele><time>2026-04-26T08:44:34Z</time></trkpt><trkpt lat="44.340120221313796" lon="9.741321105682852"><ele>809.2</ele><time>2026-04-26T08:44:35Z</time></trkpt><trkpt lat="44.34019748792559" lon="9.74130017122324"><ele>808.0</ele><time>2026-04-26T08:44:36Z</time></trkpt><trkpt lat="44.3402991495694" lon="9.741325734652511"><ele>808.0</ele><time>2026-04-26T08:44:37Z</time></trkpt><trkpt lat="44.34039300726533" lon="9.741435735048151"><ele>808.0</ele><time>2026-04-26T08:44:38Z</time></trkpt><trkpt lat="44.34050443493529" lon="9.741550140366178"><ele>808.0</ele><time>2026-04-26T08:44:39Z</time></trkpt><trkpt lat="44.34063267645474" lon="9.74164623574883"><ele>808.0</ele><time>2026-04-26T08:44:40Z</time></trkpt><trkpt lat="44.34074359449742" lon="9.741770073681032"><ele>805.5</ele><time>2026-04-26T08:44:41Z</time></trkpt><trkpt lat="44.34085166694599" lon="9.74187500765278"><ele>803.0</ele><time>2026-04-26T08:44:42Z</time></trkpt><trkpt lat="44.34093147916725" lon="9.741984085787466"><ele>800.5</ele><time>2026-04-26T08:44:43Z</time></trkpt><trkpt lat="44.340981852803985" lon="9.742118310140699"><ele>798.0</ele><time>2026-04-26T08:44:44Z</time></trkpt><trkpt lat="44.34096486870256" lon="9.742266435298962"><ele>798.0</ele><time>2026-04-26T08:44:45Z</time></trkpt><trkpt lat="44.3409328691463" lon="9.742394598410954"><ele>798.0</ele><time>2026-04-26T08:44:46Z</time></trkpt><trkpt lat="44.34090631750813" lon="9.742553319360901"><ele>798.0</ele><time>2026-04-26T08:44:47Z</time></trkpt><trkpt lat="44.340875247942776" lon="9.74273646583153"><ele>798.0</ele><time>2026-04-26T08:44:48Z</time></trkpt><trkpt lat="44.34084360781503" lon="9.742909142626248"><ele>797.8</ele><time>2026-04-26T08:44:49Z</time></trkpt><trkpt lat="44.34083842651907" lon="9.74304714720452"><ele>797.5999999999999</ele><time>2026-04-26T08:44:50Z</time></trkpt><trkpt lat="44.34083788018663" lon="9.743161739738316"><ele>797.4000000000001</ele><time>2026-04-26T08:44:51Z</time></trkpt><trkpt lat="44.34088327037652" lon="9.743269332011687"><ele>797.2</ele><time>2026-04-26T08:44:52Z</time></trkpt><trkpt lat="44.34097444509525" lon="9.743366792838302"><ele>797.0</ele><time>2026-04-26T08:44:53Z</time></trkpt><trkpt lat="44.341076838647055" lon="9.743453537900294"><ele>797.75</ele><time>2026-04-26T08:44:54Z</time></trkpt><trkpt lat="44.34116772742761" lon="9.743557567626198"><ele>798.5</ele><time>2026-04-26T08:44:55Z</time></trkpt><trkpt lat="44.34124703848292" lon="9.743690297303793"><ele>799.25</ele><time>2026-04-26T08:44:56Z</time></trkpt><trkpt lat="44.34131225789554" lon="9.743826898987987"><ele>800.0</ele><time>2026-04-26T08:44:57Z</time></trkpt><trkpt lat="44.34138406594651" lon="9.743930991101566"><ele>797.2</ele><time>2026-04-26T08:44:58Z</time></trkpt><trkpt lat="44.3414596890121" lon="9.743996206650655"><ele>794.4</ele><time>2026-04-26T08:44:59Z</time></trkpt><trkpt lat="44.3415347561938" lon="9.744020695016017"><ele>791.5999999999999</ele><time>2026-04-26T08:45:00Z</time></trkpt><trkpt lat="44.34164047350186" lon="9.744016422398667"><ele>788.8</ele><time>2026-04-26T08:45:01Z</time></trkpt><trkpt lat="44.341752800113" lon="9.743980478942655"><ele>786.0</ele><time>2026-04-26T08:45:02.001Z</time></trkpt><trkpt lat="44.341861396426886" lon="9.74394818762544"><ele>786.0</ele><time>2026-04-26T08:45:03.001Z</time></trkpt><trkpt lat="44.341947195929116" lon="9.743839448414958"><ele>786.0</ele><time>2026-04-26T08:45:04.001Z</time></trkpt><trkpt lat="44.34202377850907" lon="9.743693661106168"><ele>786.0</ele><time>2026-04-26T08:45:05.001Z</time></trkpt><trkpt lat="44.342090961106436" lon="9.743527903673408"><ele>786.0</ele><time>2026-04-26T08:45:06.001Z</time></trkpt><trkpt lat="44.342175440716524" lon="9.743398623937873"><ele>783.1999999999999</ele><time>2026-04-26T08:45:07.001Z</time></trkpt><trkpt lat="44.34223919289652" lon="9.74327532785378"><ele>780.4</ele><time>2026-04-26T08:45:08.001Z</time></trkpt><trkpt lat="44.34231120507533" lon="9.74315094698155"><ele>777.6</ele><time>2026-04-26T08:45:09.001Z</time></trkpt><trkpt lat="44.34238277842304" lon="9.743063196217571"><ele>774.8</ele><time>2026-04-26T08:45:10.001Z</time></trkpt><trkpt lat="44.342447612441774" lon="9.742991734327427"><ele>772.0</ele><time>2026-04-26T08:45:11.001Z</time></trkpt><trkpt lat="44.34253834091751" lon="9.743044833668653"><ele>772.0</ele><time>2026-04-26T08:45:12.001Z</time></trkpt><trkpt lat="44.34262602752551" lon="9.743103269010852"><ele>772.0</ele><time>2026-04-26T08:45:13.001Z</time></trkpt><trkpt lat="44.342731880802084" lon="9.743143890794473"><ele>772.0</ele><time>2026-04-26T08:45:14.001Z</time></trkpt><trkpt lat="44.342830323536795" lon="9.74319787548103"><ele>772.0</ele><time>2026-04-26T08:45:15.001Z</time></trkpt><trkpt lat="44.34293916840201" lon="9.743233088913389"><ele>772.0</ele><time>2026-04-26T08:45:16.001Z</time></trkpt><trkpt lat="44.3430346846436" lon="9.743230380912905"><ele>770.75</ele><time>2026-04-26T08:45:17.001Z</time></trkpt><trkpt lat="44.343132781598854" lon="9.743203099469456"><ele>769.5</ele><time>2026-04-26T08:45:18.001Z</time></trkpt><trkpt lat="44.343203846796776" lon="9.743066507574373"><ele>768.25</ele><time>2026-04-26T08:45:19.001Z</time></trkpt><trkpt lat="44.34328675568485" lon="9.742954493688572"><ele>767.0</ele><time>2026-04-26T08:45:20.001Z</time></trkpt><trkpt lat="44.34336795082117" lon="9.742814954115852"><ele>766.0</ele><time>2026-04-26T08:45:21.001Z</time></trkpt><trkpt lat="44.34344689771501" lon="9.742676731482897"><ele>765.0</ele><time>2026-04-26T08:45:22.001Z</time></trkpt><trkpt lat="44.34352230565915" lon="9.74254431581931"><ele>764.0</ele><time>2026-04-26T08:45:23.001Z</time></trkpt><trkpt lat="44.34359525037669" lon="9.7424240446057"><ele>763.0</ele><time>2026-04-26T08:45:24.001Z</time></trkpt><trkpt lat="44.34365254983907" lon="9.74231240098503"><ele>763.0</ele><time>2026-04-26T08:45:25.001Z</time></trkpt><trkpt lat="44.34372883870954" lon="9.74224894753511"><ele>763.0</ele><time>2026-04-26T08:45:26.001Z</time></trkpt><trkpt lat="44.343834803407354" lon="9.742258275391404"><ele>763.0</ele><time>2026-04-26T08:45:27.001Z</time></trkpt><trkpt lat="44.343953762909635" lon="9.742263407927211"><ele>763.0</ele><time>2026-04-26T08:45:28.001Z</time></trkpt><trkpt lat="44.34407727898391" lon="9.742283397785092"><ele>763.0</ele><time>2026-04-26T08:45:29.001Z</time></trkpt><trkpt lat="44.3442023420476" lon="9.742304125282663"><ele>761.75</ele><time>2026-04-26T08:45:30.001Z</time></trkpt><trkpt lat="44.344318399819564" lon="9.742341347922114"><ele>760.5</ele><time>2026-04-26T08:45:31.001Z</time></trkpt><trkpt lat="44.344412578991836" lon="9.742422569997013"><ele>759.25</ele><time>2026-04-26T08:45:32.001Z</time></trkpt><trkpt lat="44.34446644933701" lon="9.742564242093376"><ele>758.0</ele><time>2026-04-26T08:45:33.001Z</time></trkpt><trkpt lat="44.344507753316265" lon="9.742721912561146"><ele>757.75</ele><time>2026-04-26T08:45:34.001Z</time></trkpt><trkpt lat="44.344554551548526" lon="9.74289947010929"><ele>757.5</ele><time>2026-04-26T08:45:35Z</time></trkpt><trkpt lat="44.34459351670753" lon="9.743078037569854"><ele>757.25</ele><time>2026-04-26T08:45:36Z</time></trkpt><trkpt lat="44.34465300329681" lon="9.743231360743346"><ele>757.0</ele><time>2026-04-26T08:45:37Z</time></trkpt><trkpt lat="44.344739303248744" lon="9.743369463133673"><ele>754.8</ele><time>2026-04-26T08:45:38Z</time></trkpt><trkpt lat="44.34483648743498" lon="9.743480425676164"><ele>752.6</ele><time>2026-04-26T08:45:39Z</time></trkpt><trkpt lat="44.344922667421045" lon="9.743564288420226"><ele>750.4</ele><time>2026-04-26T08:45:40Z</time></trkpt><trkpt lat="44.344973380280955" lon="9.74365551183444"><ele>748.1999999999999</ele><time>2026-04-26T08:45:41Z</time></trkpt><trkpt lat="44.3450120546319" lon="9.743759608566563"><ele>746.0</ele><time>2026-04-26T08:45:42Z</time></trkpt><trkpt lat="44.34500445515067" lon="9.743873282329528"><ele>744.75</ele><time>2026-04-26T08:45:43Z</time></trkpt><trkpt lat="44.344950866800694" lon="9.743986517984746"><ele>743.5</ele><time>2026-04-26T08:45:44Z</time></trkpt><trkpt lat="44.34486873375496" lon="9.744073179760635"><ele>742.25</ele><time>2026-04-26T08:45:45Z</time></trkpt><trkpt lat="44.34476318144464" lon="9.744131018093723"><ele>741.0</ele><time>2026-04-26T08:45:46Z</time></trkpt><trkpt lat="44.34463765165288" lon="9.744233034283985"><ele>744.1999999999999</ele><time>2026-04-26T08:45:47Z</time></trkpt><trkpt lat="44.34451956180196" lon="9.744302541596127"><ele>747.4</ele><time>2026-04-26T08:45:48Z</time></trkpt><trkpt lat="44.34443572339129" lon="9.744362556819501"><ele>750.6</ele><time>2026-04-26T08:45:49Z</time></trkpt><trkpt lat="44.34439464206542" lon="9.744473476333518"><ele>753.8</ele><time>2026-04-26T08:45:50Z</time></trkpt><trkpt lat="44.34440441825792" lon="9.744644150193833"><ele>757.0</ele><time>2026-04-26T08:45:51Z</time></trkpt><trkpt lat="44.34445980800285" lon="9.744812185781333"><ele>757.0</ele><time>2026-04-26T08:45:52Z</time></trkpt><trkpt lat="44.34451923660694" lon="9.74498555406288"><ele>757.0</ele><time>2026-04-26T08:45:53Z</time></trkpt><trkpt lat="44.34456096609323" lon="9.745193847519344"><ele>757.0</ele><time>2026-04-26T08:45:54Z</time></trkpt><trkpt lat="44.34462067879165" lon="9.745425100757624"><ele>756.0</ele><time>2026-04-26T08:45:55Z</time></trkpt><trkpt lat="44.34469320304398" lon="9.745649346530863"><ele>755.0</ele><time>2026-04-26T08:45:56Z</time></trkpt><trkpt lat="44.34475040029932" lon="9.745861958424856"><ele>754.0</ele><time>2026-04-26T08:45:57Z</time></trkpt><trkpt lat="44.34479831830826" lon="9.746062255157266"><ele>749.0</ele><time>2026-04-26T08:45:58Z</time></trkpt><trkpt lat="44.34484955397736" lon="9.746252823791632"><ele>744.0</ele><time>2026-04-26T08:45:59Z</time></trkpt><trkpt lat="44.34489338674064" lon="9.746437610134015"><ele>739.0</ele><time>2026-04-26T08:46:00Z</time></trkpt><trkpt lat="44.34494154401857" lon="9.746622145395321"><ele>734.0</ele><time>2026-04-26T08:46:01Z</time></trkpt><trkpt lat="44.344984794382896" lon="9.74680445820551"><ele>733.75</ele><time>2026-04-26T08:46:02Z</time></trkpt><trkpt lat="44.345025927619105" lon="9.746975551296094"><ele>733.5</ele><time>2026-04-26T08:46:03Z</time></trkpt><trkpt lat="44.34506474009717" lon="9.747136693098959"><ele>733.25</ele><time>2026-04-26T08:46:04Z</time></trkpt><trkpt lat="44.34507856201768" lon="9.747297183184996"><ele>733.0</ele><time>2026-04-26T08:46:05Z</time></trkpt><trkpt lat="44.345073829316874" lon="9.747461947899167"><ele>733.0</ele><time>2026-04-26T08:46:06Z</time></trkpt><trkpt lat="44.34508999887515" lon="9.747614845339946"><ele>733.0</ele><time>2026-04-26T08:46:07Z</time></trkpt><trkpt lat="44.3451569692551" lon="9.747769122404048"><ele>733.0</ele><time>2026-04-26T08:46:08Z</time></trkpt><trkpt lat="44.34524243854224" lon="9.747905058072451"><ele>733.0</ele><time>2026-04-26T08:46:09Z</time></trkpt><trkpt lat="44.34532520185148" lon="9.748031078178528"><ele>733.0</ele><time>2026-04-26T08:46:10Z</time></trkpt><trkpt lat="44.3453957258523" lon="9.748152269239311"><ele>733.0</ele><time>2026-04-26T08:46:11Z</time></trkpt><trkpt lat="44.34545628975313" lon="9.748272285231698"><ele>733.0</ele><time>2026-04-26T08:46:12Z</time></trkpt><trkpt lat="44.34548639356166" lon="9.748403484519956"><ele>733.0</ele><time>2026-04-26T08:46:13Z</time></trkpt><trkpt lat="44.345468913088496" lon="9.748526676335743"><ele>733.0</ele><time>2026-04-26T08:46:14Z</time></trkpt><trkpt lat="44.34541178892135" lon="9.748626309898244"><ele>733.8</ele><time>2026-04-26T08:46:15Z</time></trkpt><trkpt lat="44.34533905070347" lon="9.748726478620748"><ele>734.5999999999999</ele><time>2026-04-26T08:46:16Z</time></trkpt><trkpt lat="44.34527716914436" lon="9.748862255844974"><ele>735.4000000000001</ele><time>2026-04-26T08:46:17Z</time></trkpt><trkpt lat="44.34524162634565" lon="9.749014951235662"><ele>736.2</ele><time>2026-04-26T08:46:18Z</time></trkpt><trkpt lat="44.34524309366881" lon="9.749166526210212"><ele>737.0</ele><time>2026-04-26T08:46:19Z</time></trkpt><trkpt lat="44.34527576780233" lon="9.749330811920693"><ele>736.5</ele><time>2026-04-26T08:46:20Z</time></trkpt><trkpt lat="44.345335889397816" lon="9.749476225384775"><ele>736.0</ele><time>2026-04-26T08:46:21Z</time></trkpt><trkpt lat="44.34538561851923" lon="9.749627244164333"><ele>735.5</ele><time>2026-04-26T08:46:22Z</time></trkpt><trkpt lat="44.34542124728906" lon="9.74978216693946"><ele>735.0</ele><time>2026-04-26T08:46:23Z</time></trkpt><trkpt lat="44.34545991882065" lon="9.749935955389972"><ele>735.0</ele><time>2026-04-26T08:46:24Z</time></trkpt><trkpt lat="44.34550127153874" lon="9.750079166845358"><ele>735.0</ele><time>2026-04-26T08:46:25Z</time></trkpt><trkpt lat="44.34553712401324" lon="9.750224318257379"><ele>735.0</ele><time>2026-04-26T08:46:26Z</time></trkpt><trkpt lat="44.34557473364193" lon="9.750367127502681"><ele>735.0</ele><time>2026-04-26T08:46:27Z</time></trkpt><trkpt lat="44.345609272996654" lon="9.75050780107354"><ele>735.0</ele><time>2026-04-26T08:46:28Z</time></trkpt><trkpt lat="44.34563016452954" lon="9.750648174880983"><ele>733.6</ele><time>2026-04-26T08:46:29Z</time></trkpt><trkpt lat="44.34564387394484" lon="9.750789496500184"><ele>732.2</ele><time>2026-04-26T08:46:30Z</time></trkpt><trkpt lat="44.34565549906862" lon="9.75092713961394"><ele>730.8</ele><time>2026-04-26T08:46:31Z</time></trkpt><trkpt lat="44.345665635878966" lon="9.75106429541316"><ele>729.4</ele><time>2026-04-26T08:46:32Z</time></trkpt><trkpt lat="44.34565764334624" lon="9.75119157212885"><ele>728.0</ele><time>2026-04-26T08:46:33Z</time></trkpt><trkpt lat="44.345630641337564" lon="9.751318270010634"><ele>728.0</ele><time>2026-04-26T08:46:34Z</time></trkpt><trkpt lat="44.34560374200411" lon="9.751435300390392"><ele>728.0</ele><time>2026-04-26T08:46:35Z</time></trkpt><trkpt lat="44.345571025001036" lon="9.751537569167924"><ele>728.0</ele><time>2026-04-26T08:46:36Z</time></trkpt><trkpt lat="44.345531532238546" lon="9.751634245225794"><ele>728.0</ele><time>2026-04-26T08:46:37Z</time></trkpt><trkpt lat="44.3454734697701" lon="9.751703349765737"><ele>728.0</ele><time>2026-04-26T08:46:38Z</time></trkpt><trkpt lat="44.34538980352567" lon="9.751702821672465"><ele>728.0</ele><time>2026-04-26T08:46:39Z</time></trkpt><trkpt lat="44.3453000143924" lon="9.751723243911918"><ele>727.8</ele><time>2026-04-26T08:46:40Z</time></trkpt><trkpt lat="44.34520049629951" lon="9.751704560705257"><ele>727.5999999999999</ele><time>2026-04-26T08:46:41Z</time></trkpt><trkpt lat="44.34509537606555" lon="9.751698932499083"><ele>727.4000000000001</ele><time>2026-04-26T08:46:42Z</time></trkpt><trkpt lat="44.34499710533503" lon="9.751701408416986"><ele>727.2</ele><time>2026-04-26T08:46:43Z</time></trkpt><trkpt lat="44.34491194044862" lon="9.751709903129107"><ele>727.0</ele><time>2026-04-26T08:46:44Z</time></trkpt><trkpt lat="44.34483609092052" lon="9.751728170721721"><ele>727.0</ele><time>2026-04-26T08:46:45Z</time></trkpt><trkpt lat="44.3447732878179" lon="9.751804857687269"><ele>727.0</ele><time>2026-04-26T08:46:46Z</time></trkpt><trkpt lat="44.344731227029385" lon="9.75192130623192"><ele>727.0</ele><time>2026-04-26T08:46:47Z</time></trkpt><trkpt lat="44.34471247770027" lon="9.752066300237589"><ele>727.0</ele><time>2026-04-26T08:46:48Z</time></trkpt><trkpt lat="44.3447233918789" lon="9.752216942155407"><ele>727.0</ele><time>2026-04-26T08:46:49Z</time></trkpt><trkpt lat="44.34472056644794" lon="9.752335473035966"><ele>725.25</ele><time>2026-04-26T08:46:50Z</time></trkpt><trkpt lat="44.34467847741196" lon="9.752460746582214"><ele>723.5</ele><time>2026-04-26T08:46:51Z</time></trkpt><trkpt lat="44.344612978311254" lon="9.75257254065521"><ele>721.75</ele><time>2026-04-26T08:46:52Z</time></trkpt><trkpt lat="44.34453900487888" lon="9.752700531476364"><ele>720.0</ele><time>2026-04-26T08:46:53Z</time></trkpt><trkpt lat="44.34444120013648" lon="9.752845583608497"><ele>720.0</ele><time>2026-04-26T08:46:54Z</time></trkpt><trkpt lat="44.3443518309413" lon="9.75300575251519"><ele>720.0</ele><time>2026-04-26T08:46:55Z</time></trkpt><trkpt lat="44.34425256960611" lon="9.753149008954122"><ele>720.0</ele><time>2026-04-26T08:46:56Z</time></trkpt><trkpt lat="44.344155463028365" lon="9.753302716984198"><ele>720.0</ele><time>2026-04-26T08:46:57Z</time></trkpt><trkpt lat="44.344078544986985" lon="9.753449655391377"><ele>717.0</ele><time>2026-04-26T08:46:58Z</time></trkpt><trkpt lat="44.34398125403605" lon="9.753578346475368"><ele>714.0</ele><time>2026-04-26T08:46:59Z</time></trkpt><trkpt lat="44.34388866933865" lon="9.753706840121277"><ele>711.0</ele><time>2026-04-26T08:47:00Z</time></trkpt><trkpt lat="44.343808532315" lon="9.753813241842677"><ele>708.0</ele><time>2026-04-26T08:47:01Z</time></trkpt><trkpt lat="44.343744528860135" lon="9.753926076832009"><ele>708.0</ele><time>2026-04-26T08:47:02Z</time></trkpt><trkpt lat="44.3436576674669" lon="9.754007881333827"><ele>708.0</ele><time>2026-04-26T08:47:03Z</time></trkpt><trkpt lat="44.34358146600205" lon="9.75410485202963"><ele>708.0</ele><time>2026-04-26T08:47:04Z</time></trkpt><trkpt lat="44.343479499797766" lon="9.7541490130239"><ele>708.0</ele><time>2026-04-26T08:47:05Z</time></trkpt><trkpt lat="44.34336031977544" lon="9.754163485293217"><ele>708.0</ele><time>2026-04-26T08:47:06Z</time></trkpt><trkpt lat="44.343243663494384" lon="9.754124489766829"><ele>708.0</ele><time>2026-04-26T08:47:07Z</time></trkpt><trkpt lat="44.343127047924014" lon="9.754087375156237"><ele>708.0</ele><time>2026-04-26T08:47:08.001Z</time></trkpt><trkpt lat="44.343009027258624" lon="9.754059144412901"><ele>708.0</ele><time>2026-04-26T08:47:09.001Z</time></trkpt><trkpt lat="44.34290458902228" lon="9.754018532252331"><ele>708.0</ele><time>2026-04-26T08:47:10.001Z</time></trkpt><trkpt lat="44.34282154670321" lon="9.753994523210404"><ele>708.0</ele><time>2026-04-26T08:47:11.001Z</time></trkpt><trkpt lat="44.34273837278635" lon="9.753994212476167"><ele>707.4285714285714</ele><time>2026-04-26T08:47:12.001Z</time></trkpt><trkpt lat="44.342665503629696" lon="9.754023910425293"><ele>706.8571428571428</ele><time>2026-04-26T08:47:13.001Z</time></trkpt><trkpt lat="44.342606011429375" lon="9.75406611649107"><ele>706.2857142857142</ele><time>2026-04-26T08:47:14.001Z</time></trkpt><trkpt lat="44.34256713377373" lon="9.754144224550314"><ele>705.7142857142858</ele><time>2026-04-26T08:47:15.001Z</time></trkpt><trkpt lat="44.342564965481955" lon="9.754243568814427"><ele>705.1428571428571</ele><time>2026-04-26T08:47:16.001Z</time></trkpt><trkpt lat="44.34259806300131" lon="9.754352128189499"><ele>704.5714285714286</ele><time>2026-04-26T08:47:17.001Z</time></trkpt><trkpt lat="44.342643214941916" lon="9.754449326443593"><ele>704.0</ele><time>2026-04-26T08:47:18.001Z</time></trkpt><trkpt lat="44.342687256061446" lon="9.754567609052689"><ele>704.0</ele><time>2026-04-26T08:47:19Z</time></trkpt><trkpt lat="44.34272167396029" lon="9.754696013248186"><ele>704.0</ele><time>2026-04-26T08:47:20Z</time></trkpt><trkpt lat="44.34273377632009" lon="9.754828786587888"><ele>704.0</ele><time>2026-04-26T08:47:21Z</time></trkpt><trkpt lat="44.34273297714569" lon="9.754960310568368"><ele>704.0</ele><time>2026-04-26T08:47:22Z</time></trkpt><trkpt lat="44.34274006394866" lon="9.755089232862144"><ele>704.0</ele><time>2026-04-26T08:47:23Z</time></trkpt><trkpt lat="44.34275577503025" lon="9.755216139105306"><ele>702.0</ele><time>2026-04-26T08:47:24Z</time></trkpt><trkpt lat="44.34276823628318" lon="9.7553455165752"><ele>700.0</ele><time>2026-04-26T08:47:25Z</time></trkpt><trkpt lat="44.34276698185195" lon="9.755472888418607"><ele>698.0</ele><time>2026-04-26T08:47:26Z</time></trkpt><trkpt lat="44.34275127616961" lon="9.755594894545164"><ele>696.0</ele><time>2026-04-26T08:47:27Z</time></trkpt><trkpt lat="44.34270921095096" lon="9.755713193127551"><ele>694.0</ele><time>2026-04-26T08:47:28Z</time></trkpt><trkpt lat="44.34264485182474" lon="9.755835591156407"><ele>694.0</ele><time>2026-04-26T08:47:29Z</time></trkpt><trkpt lat="44.34256357117457" lon="9.755968702077357"><ele>694.0</ele><time>2026-04-26T08:47:30Z</time></trkpt><trkpt lat="44.34249749404983" lon="9.756091150146583"><ele>694.0</ele><time>2026-04-26T08:47:31Z</time></trkpt><trkpt lat="44.34243061724625" lon="9.75621823061797"><ele>694.0</ele><time>2026-04-26T08:47:32Z</time></trkpt><trkpt lat="44.342383426601515" lon="9.75634525014636"><ele>693.0</ele><time>2026-04-26T08:47:33Z</time></trkpt><trkpt lat="44.342324521897126" lon="9.756473380723884"><ele>692.0</ele><time>2026-04-26T08:47:34Z</time></trkpt><trkpt lat="44.342280793430135" lon="9.756598099652898"><ele>691.0</ele><time>2026-04-26T08:47:35Z</time></trkpt><trkpt lat="44.342230183398186" lon="9.756718118873243"><ele>690.0</ele><time>2026-04-26T08:47:36Z</time></trkpt><trkpt lat="44.34216519964908" lon="9.75681705009415"><ele>689.0</ele><time>2026-04-26T08:47:37Z</time></trkpt><trkpt lat="44.34209379807856" lon="9.756904149039782"><ele>689.0</ele><time>2026-04-26T08:47:38Z</time></trkpt><trkpt lat="44.342021773380864" lon="9.756992737091611"><ele>689.0</ele><time>2026-04-26T08:47:39Z</time></trkpt><trkpt lat="44.341961889357876" lon="9.757083117183937"><ele>689.0</ele><time>2026-04-26T08:47:40Z</time></trkpt><trkpt lat="44.34190935801378" lon="9.757177839480956"><ele>689.0</ele><time>2026-04-26T08:47:41Z</time></trkpt><trkpt lat="44.34186189153444" lon="9.757277583861539"><ele>689.0</ele><time>2026-04-26T08:47:42Z</time></trkpt><trkpt lat="44.34181751143342" lon="9.757383579907213"><ele>689.0</ele><time>2026-04-26T08:47:43Z</time></trkpt><trkpt lat="44.34177508082575" lon="9.757491358722486"><ele>689.0</ele><time>2026-04-26T08:47:44Z</time></trkpt><trkpt lat="44.34173101961917" lon="9.757594794557232"><ele>689.0</ele><time>2026-04-26T08:47:45Z</time></trkpt><trkpt lat="44.34170340119646" lon="9.757709286747284"><ele>689.0</ele><time>2026-04-26T08:47:46Z</time></trkpt><trkpt lat="44.34168493477934" lon="9.757831101866126"><ele>689.0</ele><time>2026-04-26T08:47:47Z</time></trkpt><trkpt lat="44.34165883430887" lon="9.75795055648554"><ele>689.0</ele><time>2026-04-26T08:47:48Z</time></trkpt><trkpt lat="44.34162445499439" lon="9.758067473554126"><ele>689.0</ele><time>2026-04-26T08:47:49Z</time></trkpt><trkpt lat="44.34158304406439" lon="9.758189176268148"><ele>688.2</ele><time>2026-04-26T08:47:50Z</time></trkpt><trkpt lat="44.34153084646125" lon="9.75828743776431"><ele>687.4000000000001</ele><time>2026-04-26T08:47:51Z</time></trkpt><trkpt lat="44.341460613046316" lon="9.758381551213342"><ele>686.6</ele><time>2026-04-26T08:47:52Z</time></trkpt><trkpt lat="44.34138771959496" lon="9.758483359138609"><ele>685.8</ele><time>2026-04-26T08:47:53Z</time></trkpt><trkpt lat="44.34132459308297" lon="9.758596411793453"><ele>685.0</ele><time>2026-04-26T08:47:54Z</time></trkpt><trkpt lat="44.341270176229436" lon="9.758714477969443"><ele>685.0</ele><time>2026-04-26T08:47:55Z</time></trkpt><trkpt lat="44.341233795552135" lon="9.75883256777799"><ele>685.0</ele><time>2026-04-26T08:47:56Z</time></trkpt><trkpt lat="44.34120914957318" lon="9.758928046083216"><ele>685.0</ele><time>2026-04-26T08:47:57Z</time></trkpt><trkpt lat="44.3411880777203" lon="9.759029842814078"><ele>685.0</ele><time>2026-04-26T08:47:59Z</time></trkpt><trkpt lat="44.34115146440416" lon="9.759159036109711"><ele>685.0</ele><time>2026-04-26T08:48:08Z</time></trkpt><trkpt lat="44.3411114048902" lon="9.759302169961247"><ele>684.1666666666667</ele><time>2026-04-26T08:48:10Z</time></trkpt><trkpt lat="44.34108696542088" lon="9.759445706222516"><ele>683.3333333333334</ele><time>2026-04-26T08:48:12Z</time></trkpt><trkpt lat="44.341054240638236" lon="9.759569558673261"><ele>682.5</ele><time>2026-04-26T08:48:14Z</time></trkpt><trkpt lat="44.341016570235176" lon="9.75971061872863"><ele>681.6666666666666</ele><time>2026-04-26T08:48:16Z</time></trkpt><trkpt lat="44.34099323924338" lon="9.759793441019392"><ele>680.8333333333333</ele><time>2026-04-26T08:48:17Z</time></trkpt><trkpt lat="44.34096423824984" lon="9.759874061863329"><ele>680.0</ele><time>2026-04-26T08:48:18Z</time></trkpt><trkpt lat="44.340935669969774" lon="9.75995918970405"><ele>680.0</ele><time>2026-04-26T08:48:19Z</time></trkpt><trkpt lat="44.34090752123434" lon="9.760050302192457"><ele>680.0</ele><time>2026-04-26T08:48:20Z</time></trkpt><trkpt lat="44.34087946816779" lon="9.760142332067362"><ele>680.0</ele><time>2026-04-26T08:48:21Z</time></trkpt><trkpt lat="44.34084478628084" lon="9.76023282971839"><ele>680.0</ele><time>2026-04-26T08:48:22Z</time></trkpt><trkpt lat="44.34081271466261" lon="9.760312378783517"><ele>680.0</ele><time>2026-04-26T08:48:23Z</time></trkpt><trkpt lat="44.34078125187316" lon="9.76039095820078"><ele>680.0</ele><time>2026-04-26T08:48:24Z</time></trkpt><trkpt lat="44.34075656632312" lon="9.760553749136841"><ele>680.0</ele><time>2026-04-26T08:48:26Z</time></trkpt><trkpt lat="44.34076900955396" lon="9.760640553988033"><ele>680.0</ele><time>2026-04-26T08:48:27Z</time></trkpt><trkpt lat="44.340789444659904" lon="9.760726636666949"><ele>680.0</ele><time>2026-04-26T08:48:28Z</time></trkpt><trkpt lat="44.3408160007866" lon="9.760809601231738"><ele>680.0</ele><time>2026-04-26T08:48:29Z</time></trkpt><trkpt lat="44.34084624160326" lon="9.760891029162108"><ele>680.0</ele><time>2026-04-26T08:48:30Z</time></trkpt><trkpt lat="44.34089647833462" lon="9.761035510468753"><ele>680.0</ele><time>2026-04-26T08:48:32Z</time></trkpt><trkpt lat="44.340930847423145" lon="9.761179604021272"><ele>679.6666666666666</ele><time>2026-04-26T08:48:34Z</time></trkpt><trkpt lat="44.34098330580796" lon="9.76131070150363"><ele>679.3333333333333</ele><time>2026-04-26T08:48:36Z</time></trkpt><trkpt lat="44.34105031132984" lon="9.761400594547823"><ele>679.0</ele><time>2026-04-26T08:48:38Z</time></trkpt><trkpt lat="44.341107529180654" lon="9.76144302450788"><ele>678.6666666666666</ele><time>2026-04-26T08:48:40Z</time></trkpt><trkpt lat="44.34116593753657" lon="9.761489023485764"><ele>678.3333333333334</ele><time>2026-04-26T08:48:46Z</time></trkpt><trkpt lat="44.34124565185568" lon="9.76139732308154"><ele>678.0</ele><time>2026-04-26T08:59:37Z</time></trkpt><trkpt lat="44.34130723632223" lon="9.761261814572155"><ele>678.0</ele><time>2026-04-26T08:59:39Z</time></trkpt><trkpt lat="44.3413779064175" lon="9.761141989394764"><ele>678.0</ele><time>2026-04-26T08:59:41Z</time></trkpt><trkpt lat="44.34147083162427" lon="9.761043133210944"><ele>678.0</ele><time>2026-04-26T08:59:43Z</time></trkpt><trkpt lat="44.341549363256085" lon="9.7609183035898"><ele>678.0</ele><time>2026-04-26T08:59:44.999Z</time></trkpt><trkpt lat="44.34156780084109" lon="9.76075081877658"><ele>676.6666666666666</ele><time>2026-04-26T08:59:46.999Z</time></trkpt><trkpt lat="44.34156060902705" lon="9.760584028559476"><ele>675.3333333333334</ele><time>2026-04-26T08:59:48.999Z</time></trkpt><trkpt lat="44.341581167951475" lon="9.760500370150396"><ele>674.0</ele><time>2026-04-26T08:59:49.999Z</time></trkpt><trkpt lat="44.34157126500949" lon="9.76040848890726"><ele>672.6666666666667</ele><time>2026-04-26T08:59:50.999Z</time></trkpt><trkpt lat="44.341582905947284" lon="9.760313713898347"><ele>671.3333333333334</ele><time>2026-04-26T08:59:51.999Z</time></trkpt><trkpt lat="44.34159823608797" lon="9.760223820523075"><ele>670.0</ele><time>2026-04-26T08:59:52.999Z</time></trkpt><trkpt lat="44.34159323274084" lon="9.760119911694884"><ele>670.0</ele><time>2026-04-26T08:59:53.999Z</time></trkpt><trkpt lat="44.34160344139645" lon="9.760019422340392"><ele>670.0</ele><time>2026-04-26T08:59:54.999Z</time></trkpt><trkpt lat="44.341617939362756" lon="9.759924604332275"><ele>670.0</ele><time>2026-04-26T08:59:55.999Z</time></trkpt><trkpt lat="44.34165263888755" lon="9.759841781969465"><ele>670.0</ele><time>2026-04-26T08:59:56.999Z</time></trkpt><trkpt lat="44.34166237697773" lon="9.759753643919337"><ele>670.0</ele><time>2026-04-26T08:59:57.999Z</time></trkpt><trkpt lat="44.34173565527568" lon="9.759613047000641"><ele>670.0</ele><time>2026-04-26T08:59:59.999Z</time></trkpt><trkpt lat="44.34179941401249" lon="9.759451469931122"><ele>670.0</ele><time>2026-04-26T09:00:01.999Z</time></trkpt><trkpt lat="44.34184391716556" lon="9.75938421369125"><ele>670.0</ele><time>2026-04-26T09:00:02.999Z</time></trkpt><trkpt lat="44.34190397705842" lon="9.759308523185409"><ele>670.0</ele><time>2026-04-26T09:00:03.999Z</time></trkpt><trkpt lat="44.341985407248394" lon="9.759259743058125"><ele>670.0</ele><time>2026-04-26T09:00:04.999Z</time></trkpt><trkpt lat="44.34207209400628" lon="9.759181802833083"><ele>670.0</ele><time>2026-04-26T09:00:05.999Z</time></trkpt><trkpt lat="44.342166076846446" lon="9.759107199031781"><ele>670.0</ele><time>2026-04-26T09:00:06.999Z</time></trkpt><trkpt lat="44.342261420274355" lon="9.759028357618583"><ele>668.8</ele><time>2026-04-26T09:00:08Z</time></trkpt><trkpt lat="44.34234798143453" lon="9.758948211044732"><ele>667.6</ele><time>2026-04-26T09:00:09Z</time></trkpt><trkpt lat="44.34242598511656" lon="9.758862462418232"><ele>666.4000000000001</ele><time>2026-04-26T09:00:10Z</time></trkpt><trkpt lat="44.3425113639309" lon="9.758779042738007"><ele>665.2</ele><time>2026-04-26T09:00:11Z</time></trkpt><trkpt lat="44.34259858709867" lon="9.758709831336015"><ele>664.0</ele><time>2026-04-26T09:00:12Z</time></trkpt><trkpt lat="44.34267922960577" lon="9.758637177599104"><ele>664.0</ele><time>2026-04-26T09:00:13Z</time></trkpt><trkpt lat="44.3427568501588" lon="9.758567507634492"><ele>664.0</ele><time>2026-04-26T09:00:14Z</time></trkpt><trkpt lat="44.34283427862521" lon="9.758496851451202"><ele>664.0</ele><time>2026-04-26T09:00:15Z</time></trkpt><trkpt lat="44.34290692268069" lon="9.758433972979834"><ele>664.0</ele><time>2026-04-26T09:00:16Z</time></trkpt><trkpt lat="44.342977556328265" lon="9.758374153489882"><ele>664.0</ele><time>2026-04-26T09:00:17Z</time></trkpt><trkpt lat="44.34305470422943" lon="9.758330103004052"><ele>664.0</ele><time>2026-04-26T09:00:18Z</time></trkpt><trkpt lat="44.34312535291827" lon="9.758269633132619"><ele>663.5</ele><time>2026-04-26T09:00:19Z</time></trkpt><trkpt lat="44.34318985706699" lon="9.758214422365716"><ele>663.0</ele><time>2026-04-26T09:00:20Z</time></trkpt><trkpt lat="44.343247372183924" lon="9.758142638336489"><ele>662.5</ele><time>2026-04-26T09:00:21Z</time></trkpt><trkpt lat="44.34330935519559" lon="9.758097197901888"><ele>662.0</ele><time>2026-04-26T09:00:22Z</time></trkpt><trkpt lat="44.34336774855309" lon="9.758037675840884"><ele>661.5</ele><time>2026-04-26T09:00:23Z</time></trkpt><trkpt lat="44.34342257698867" lon="9.757989148942643"><ele>661.0</ele><time>2026-04-26T09:00:24Z</time></trkpt><trkpt lat="44.34352473129572" lon="9.757936176211166"><ele>661.0</ele><time>2026-04-26T09:00:26Z</time></trkpt><trkpt lat="44.34358425842931" lon="9.757863309762087"><ele>661.0</ele><time>2026-04-26T09:00:29Z</time></trkpt><trkpt lat="44.34366843050569" lon="9.757851041057924"><ele>661.0</ele><time>2026-04-26T09:04:10.001Z</time></trkpt><trkpt lat="44.343682683907765" lon="9.757763802366242"><ele>661.0</ele><time>2026-04-26T09:04:12.001Z</time></trkpt><trkpt lat="44.34369898656018" lon="9.757651980576862"><ele>661.0</ele><time>2026-04-26T09:04:15.001Z</time></trkpt><trkpt lat="44.34377034879578" lon="9.757562160236374"><ele>661.0</ele><time>2026-04-26T09:04:18.001Z</time></trkpt><trkpt lat="44.34382030410276" lon="9.757470724706225"><ele>660.5</ele><time>2026-04-26T09:04:20.001Z</time></trkpt><trkpt lat="44.34386706913543" lon="9.757394389125842"><ele>660.0</ele><time>2026-04-26T09:04:21.001Z</time></trkpt><trkpt lat="44.34392588630881" lon="9.757310595253028"><ele>659.5</ele><time>2026-04-26T09:04:22.001Z</time></trkpt><trkpt lat="44.34398121082152" lon="9.757227437203841"><ele>659.0</ele><time>2026-04-26T09:04:23.001Z</time></trkpt><trkpt lat="44.34404000945725" lon="9.757156191650582"><ele>658.5</ele><time>2026-04-26T09:04:24.001Z</time></trkpt><trkpt lat="44.344117124400526" lon="9.757099290747538"><ele>658.0</ele><time>2026-04-26T09:04:25.001Z</time></trkpt><trkpt lat="44.34421274100537" lon="9.757097029768488"><ele>658.0</ele><time>2026-04-26T09:04:26.001Z</time></trkpt><trkpt lat="44.344310145191486" lon="9.757071718718061"><ele>658.0</ele><time>2026-04-26T09:04:27.001Z</time></trkpt><trkpt lat="44.3444151961689" lon="9.757075469975337"><ele>658.0</ele><time>2026-04-26T09:04:28.001Z</time></trkpt><trkpt lat="44.34451656908407" lon="9.757050584312328"><ele>658.0</ele><time>2026-04-26T09:04:29.001Z</time></trkpt><trkpt lat="44.344615904640065" lon="9.757011638785407"><ele>658.0</ele><time>2026-04-26T09:04:30.001Z</time></trkpt><trkpt lat="44.34471968154999" lon="9.756957004321736"><ele>657.5999999999999</ele><time>2026-04-26T09:04:31.001Z</time></trkpt><trkpt lat="44.344812389451505" lon="9.75688896925859"><ele>657.1999999999999</ele><time>2026-04-26T09:04:32.001Z</time></trkpt><trkpt lat="44.34490553950835" lon="9.756814460989766"><ele>656.8</ele><time>2026-04-26T09:04:33.001Z</time></trkpt><trkpt lat="44.34499750221467" lon="9.756732180031728"><ele>656.4</ele><time>2026-04-26T09:04:34.001Z</time></trkpt><trkpt lat="44.34508620260024" lon="9.756632044053154"><ele>656.0</ele><time>2026-04-26T09:04:35.001Z</time></trkpt><trkpt lat="44.34517857216652" lon="9.75652776297962"><ele>656.0</ele><time>2026-04-26T09:04:36.001Z</time></trkpt><trkpt lat="44.345265571526966" lon="9.756443494695576"><ele>656.0</ele><time>2026-04-26T09:04:37.001Z</time></trkpt><trkpt lat="44.34534792239565" lon="9.756391172707987"><ele>656.0</ele><time>2026-04-26T09:04:38.001Z</time></trkpt><trkpt lat="44.34544580478024" lon="9.756390083954141"><ele>656.0</ele><time>2026-04-26T09:04:39.001Z</time></trkpt><trkpt lat="44.34555437877998" lon="9.756449752959169"><ele>656.0</ele><time>2026-04-26T09:04:40.001Z</time></trkpt><trkpt lat="44.34568061270463" lon="9.756499933723802"><ele>655.5</ele><time>2026-04-26T09:04:41.001Z</time></trkpt><trkpt lat="44.34579813763603" lon="9.756585425861463"><ele>655.0</ele><time>2026-04-26T09:04:42.001Z</time></trkpt><trkpt lat="44.34591136448478" lon="9.756668545491594"><ele>654.5</ele><time>2026-04-26T09:04:43.001Z</time></trkpt><trkpt lat="44.346024275995724" lon="9.756740356228867"><ele>654.0</ele><time>2026-04-26T09:04:44.001Z</time></trkpt><trkpt lat="44.34612649133366" lon="9.756811597498649"><ele>650.4000000000001</ele><time>2026-04-26T09:04:45.001Z</time></trkpt><trkpt lat="44.3462343663943" lon="9.756881601355442"><ele>646.8000000000001</ele><time>2026-04-26T09:04:46.001Z</time></trkpt><trkpt lat="44.34633512596912" lon="9.7569339864274"><ele>643.2</ele><time>2026-04-26T09:04:47.001Z</time></trkpt><trkpt lat="44.346439583336974" lon="9.75695321488099"><ele>639.6</ele><time>2026-04-26T09:04:48.001Z</time></trkpt><trkpt lat="44.34653803930505" lon="9.756942209019783"><ele>636.0</ele><time>2026-04-26T09:04:49.001Z</time></trkpt><trkpt lat="44.346635795545325" lon="9.756935818104637"><ele>636.0</ele><time>2026-04-26T09:04:50.001Z</time></trkpt><trkpt lat="44.346742331002886" lon="9.756937705030168"><ele>636.0</ele><time>2026-04-26T09:04:51.001Z</time></trkpt><trkpt lat="44.34683478522679" lon="9.756986236861204"><ele>636.0</ele><time>2026-04-26T09:04:52.001Z</time></trkpt><trkpt lat="44.34693836699062" lon="9.757011269758397"><ele>636.0</ele><time>2026-04-26T09:04:53.001Z</time></trkpt><trkpt lat="44.34703279751144" lon="9.757048240512464"><ele>636.0</ele><time>2026-04-26T09:04:54.001Z</time></trkpt><trkpt lat="44.347123302264286" lon="9.757012698110803"><ele>636.0</ele><time>2026-04-26T09:04:55.001Z</time></trkpt><trkpt lat="44.34720666640372" lon="9.756933384064466"><ele>636.0</ele><time>2026-04-26T09:04:56.001Z</time></trkpt><trkpt lat="44.34725876489577" lon="9.75677896680596"><ele>636.0</ele><time>2026-04-26T09:04:57.001Z</time></trkpt><trkpt lat="44.347240271901846" lon="9.756581174192782"><ele>636.0</ele><time>2026-04-26T09:04:58.001Z</time></trkpt><trkpt lat="44.34722773454752" lon="9.756393097624594"><ele>638.6</ele><time>2026-04-26T09:04:59.001Z</time></trkpt><trkpt lat="44.347240549969925" lon="9.75622330696249"><ele>641.2</ele><time>2026-04-26T09:05:00.001Z</time></trkpt><trkpt lat="44.34727764885929" lon="9.756096655651112"><ele>643.8000000000001</ele><time>2026-04-26T09:05:01.001Z</time></trkpt><trkpt lat="44.34734922437108" lon="9.755997658163697"><ele>646.4000000000001</ele><time>2026-04-26T09:05:02.001Z</time></trkpt><trkpt lat="44.347439097063436" lon="9.755904957187443"><ele>649.0</ele><time>2026-04-26T09:05:03.001Z</time></trkpt><trkpt lat="44.34754095150106" lon="9.755812037441457"><ele>652.0</ele><time>2026-04-26T09:05:04.001Z</time></trkpt><trkpt lat="44.347674549832675" lon="9.755784724691958"><ele>655.0</ele><time>2026-04-26T09:05:05.001Z</time></trkpt><trkpt lat="44.347798795040624" lon="9.755764721724674"><ele>658.0</ele><time>2026-04-26T09:05:06.001Z</time></trkpt><trkpt lat="44.34790591594612" lon="9.755706903775126"><ele>661.0</ele><time>2026-04-26T09:05:07.001Z</time></trkpt><trkpt lat="44.34798898072913" lon="9.755575127055042"><ele>661.0</ele><time>2026-04-26T09:05:08.001Z</time></trkpt><trkpt lat="44.34803790869838" lon="9.755427258416825"><ele>661.0</ele><time>2026-04-26T09:05:09.001Z</time></trkpt><trkpt lat="44.34809864714464" lon="9.755323965014885"><ele>661.0</ele><time>2026-04-26T09:05:10.001Z</time></trkpt><trkpt lat="44.348140379446896" lon="9.75523463386817"><ele>661.0</ele><time>2026-04-26T09:05:11.001Z</time></trkpt><trkpt lat="44.34823305996373" lon="9.755258326658698"><ele>661.0</ele><time>2026-04-26T09:05:12.001Z</time></trkpt><trkpt lat="44.34829257080725" lon="9.755317946661629"><ele>659.8</ele><time>2026-04-26T09:05:13.001Z</time></trkpt><trkpt lat="44.34834527265149" lon="9.755406456556967"><ele>658.5999999999999</ele><time>2026-04-26T09:05:14.001Z</time></trkpt><trkpt lat="44.34836775371261" lon="9.755555630327306"><ele>657.4</ele><time>2026-04-26T09:05:15.001Z</time></trkpt><trkpt lat="44.34834445231303" lon="9.7557069514267"><ele>656.2</ele><time>2026-04-26T09:05:16.001Z</time></trkpt><trkpt lat="44.34832813323355" lon="9.755845819474475"><ele>655.0</ele><time>2026-04-26T09:05:17.001Z</time></trkpt><trkpt lat="44.34829981210796" lon="9.755991832308844"><ele>656.2</ele><time>2026-04-26T09:05:18.001Z</time></trkpt><trkpt lat="44.34828007617943" lon="9.756128174472614"><ele>657.4</ele><time>2026-04-26T09:05:19.001Z</time></trkpt><trkpt lat="44.348274783964904" lon="9.756263155473542"><ele>658.5999999999999</ele><time>2026-04-26T09:05:20.001Z</time></trkpt><trkpt lat="44.348271466510695" lon="9.75640913944401"><ele>659.8</ele><time>2026-04-26T09:05:21.001Z</time></trkpt><trkpt lat="44.34826720717273" lon="9.756552368993342"><ele>661.0</ele><time>2026-04-26T09:05:22.001Z</time></trkpt><trkpt lat="44.34826037855398" lon="9.75670410326453"><ele>661.0</ele><time>2026-04-26T09:05:23.001Z</time></trkpt><trkpt lat="44.34824264829301" lon="9.756849036085125"><ele>661.0</ele><time>2026-04-26T09:05:24.001Z</time></trkpt><trkpt lat="44.3482167859677" lon="9.756988423447519"><ele>661.0</ele><time>2026-04-26T09:05:25.001Z</time></trkpt><trkpt lat="44.348179850420024" lon="9.757128999284303"><ele>661.0</ele><time>2026-04-26T09:05:26.001Z</time></trkpt><trkpt lat="44.34811969804381" lon="9.75726903102789"><ele>661.0</ele><time>2026-04-26T09:05:27.001Z</time></trkpt><trkpt lat="44.34804568425471" lon="9.75739810948963"><ele>656.5</ele><time>2026-04-26T09:05:28.001Z</time></trkpt><trkpt lat="44.34798733412712" lon="9.75753680530773"><ele>652.0</ele><time>2026-04-26T09:05:29.001Z</time></trkpt><trkpt lat="44.3479573927584" lon="9.757708126992835"><ele>647.5</ele><time>2026-04-26T09:05:30.001Z</time></trkpt><trkpt lat="44.347949976060995" lon="9.75788519248335"><ele>643.0</ele><time>2026-04-26T09:05:31.001Z</time></trkpt><trkpt lat="44.34793277537211" lon="9.758052775214207"><ele>643.0</ele><time>2026-04-26T09:05:32.001Z</time></trkpt><trkpt lat="44.347911844461926" lon="9.75822056332591"><ele>643.0</ele><time>2026-04-26T09:05:33.001Z</time></trkpt><trkpt lat="44.34789482984369" lon="9.758383528754514"><ele>643.0</ele><time>2026-04-26T09:05:34.001Z</time></trkpt><trkpt lat="44.347885297025016" lon="9.75853251201225"><ele>643.0</ele><time>2026-04-26T09:05:35.001Z</time></trkpt><trkpt lat="44.34786802898199" lon="9.75867716163012"><ele>644.4</ele><time>2026-04-26T09:05:36.001Z</time></trkpt><trkpt lat="44.347860505647105" lon="9.75880931459598"><ele>645.8</ele><time>2026-04-26T09:05:37.001Z</time></trkpt><trkpt lat="44.34788231928629" lon="9.758933542658415"><ele>647.2</ele><time>2026-04-26T09:05:38.001Z</time></trkpt><trkpt lat="44.34794261150003" lon="9.759042176448897"><ele>648.6</ele><time>2026-04-26T09:05:39.001Z</time></trkpt><trkpt lat="44.34803775067117" lon="9.759136011424733"><ele>650.0</ele><time>2026-04-26T09:05:40.001Z</time></trkpt><trkpt lat="44.34816582937181" lon="9.759222293615549"><ele>656.0</ele><time>2026-04-26T09:05:41.001Z</time></trkpt><trkpt lat="44.34829289728402" lon="9.75932721075866"><ele>662.0</ele><time>2026-04-26T09:05:42.001Z</time></trkpt><trkpt lat="44.348421502647795" lon="9.759435430882743"><ele>668.0</ele><time>2026-04-26T09:05:43.001Z</time></trkpt><trkpt lat="44.348558225273116" lon="9.759536101538252"><ele>668.0</ele><time>2026-04-26T09:05:44.001Z</time></trkpt><trkpt lat="44.34870264857358" lon="9.759621828034053"><ele>668.0</ele><time>2026-04-26T09:05:45.001Z</time></trkpt><trkpt lat="44.3488265068506" lon="9.759698867883207"><ele>668.0</ele><time>2026-04-26T09:05:46.001Z</time></trkpt><trkpt lat="44.34891344968506" lon="9.75980858228664"><ele>668.0</ele><time>2026-04-26T09:05:47.001Z</time></trkpt><trkpt lat="44.348985782642536" lon="9.759915790997555"><ele>671.25</ele><time>2026-04-26T09:05:48.001Z</time></trkpt><trkpt lat="44.34896501732278" lon="9.760082929310325"><ele>674.5</ele><time>2026-04-26T09:05:49.001Z</time></trkpt><trkpt lat="44.34895681622966" lon="9.760266191528451"><ele>677.75</ele><time>2026-04-26T09:05:50.001Z</time></trkpt><trkpt lat="44.34895307729907" lon="9.760446341108839"><ele>681.0</ele><time>2026-04-26T09:05:51.001Z</time></trkpt><trkpt lat="44.348951145542266" lon="9.760629151634378"><ele>681.0</ele><time>2026-04-26T09:05:52.001Z</time></trkpt><trkpt lat="44.34895691766827" lon="9.76082500874962"><ele>681.0</ele><time>2026-04-26T09:05:53.001Z</time></trkpt><trkpt lat="44.34896467156365" lon="9.761001347438228"><ele>681.0</ele><time>2026-04-26T09:05:54.001Z</time></trkpt><trkpt lat="44.348981240936034" lon="9.76115627394917"><ele>681.0</ele><time>2026-04-26T09:05:55.001Z</time></trkpt><trkpt lat="44.34901744491059" lon="9.761314781742726"><ele>679.5</ele><time>2026-04-26T09:05:56.001Z</time></trkpt><trkpt lat="44.34907518566386" lon="9.761477407536425"><ele>678.0</ele><time>2026-04-26T09:05:57.001Z</time></trkpt><trkpt lat="44.34911404903852" lon="9.761651401860345"><ele>676.5</ele><time>2026-04-26T09:05:58.001Z</time></trkpt><trkpt lat="44.349175283614834" lon="9.761812761675527"><ele>675.0</ele><time>2026-04-26T09:05:59.001Z</time></trkpt><trkpt lat="44.34920648506348" lon="9.76198911259713"><ele>675.0</ele><time>2026-04-26T09:06:00.001Z</time></trkpt><trkpt lat="44.3492248334536" lon="9.762162137330769"><ele>675.0</ele><time>2026-04-26T09:06:01.001Z</time></trkpt><trkpt lat="44.349219982302614" lon="9.762327374105269"><ele>675.0</ele><time>2026-04-26T09:06:02.001Z</time></trkpt><trkpt lat="44.34919490414816" lon="9.762458776943264"><ele>675.0</ele><time>2026-04-26T09:06:03.001Z</time></trkpt><trkpt lat="44.34915350944698" lon="9.762562744676538"><ele>675.0</ele><time>2026-04-26T09:06:04.001Z</time></trkpt><trkpt lat="44.34908079043563" lon="9.762666080128993"><ele>674.75</ele><time>2026-04-26T09:06:05.001Z</time></trkpt><trkpt lat="44.34902011835007" lon="9.762795269459692"><ele>674.5</ele><time>2026-04-26T09:06:06.001Z</time></trkpt><trkpt lat="44.34892554293221" lon="9.762895649742624"><ele>674.25</ele><time>2026-04-26T09:06:07.001Z</time></trkpt><trkpt lat="44.348800547857444" lon="9.762980161528432"><ele>674.0</ele><time>2026-04-26T09:06:08.001Z</time></trkpt><trkpt lat="44.34866094159886" lon="9.763065154241248"><ele>674.0</ele><time>2026-04-26T09:06:09.001Z</time></trkpt><trkpt lat="44.3485384650803" lon="9.763165459312702"><ele>674.0</ele><time>2026-04-26T09:06:10.001Z</time></trkpt><trkpt lat="44.3484571023343" lon="9.763256583844374"><ele>674.0</ele><time>2026-04-26T09:06:11.001Z</time></trkpt><trkpt lat="44.34836743357924" lon="9.763342622860538"><ele>674.0</ele><time>2026-04-26T09:06:12.001Z</time></trkpt><trkpt lat="44.34827679709157" lon="9.763437574826343"><ele>675.25</ele><time>2026-04-26T09:06:13.001Z</time></trkpt><trkpt lat="44.34818396858806" lon="9.763531853988622"><ele>676.5</ele><time>2026-04-26T09:06:14.001Z</time></trkpt><trkpt lat="44.34809298245412" lon="9.76362917123528"><ele>677.75</ele><time>2026-04-26T09:06:15.001Z</time></trkpt><trkpt lat="44.34801414060173" lon="9.76375679679704"><ele>679.0</ele><time>2026-04-26T09:06:16.001Z</time></trkpt><trkpt lat="44.347953375052086" lon="9.763902089042972"><ele>675.0</ele><time>2026-04-26T09:06:17.001Z</time></trkpt><trkpt lat="44.34791060400198" lon="9.764036497893072"><ele>671.0</ele><time>2026-04-26T09:06:18.001Z</time></trkpt><trkpt lat="44.34788822004875" lon="9.764172843137587"><ele>667.0</ele><time>2026-04-26T09:06:19.001Z</time></trkpt><trkpt lat="44.34789201008582" lon="9.764342570058455"><ele>663.0</ele><time>2026-04-26T09:06:20.001Z</time></trkpt><trkpt lat="44.34790770106457" lon="9.76454233723268"><ele>662.5</ele><time>2026-04-26T09:06:21.001Z</time></trkpt><trkpt lat="44.34791486669081" lon="9.764746240719472"><ele>662.0</ele><time>2026-04-26T09:06:22.001Z</time></trkpt><trkpt lat="44.34791672672921" lon="9.764954847153613"><ele>661.5</ele><time>2026-04-26T09:06:23.001Z</time></trkpt><trkpt lat="44.34794319493182" lon="9.765147238509591"><ele>661.0</ele><time>2026-04-26T09:06:24.001Z</time></trkpt><trkpt lat="44.347963489795724" lon="9.765308826570978"><ele>659.5999999999999</ele><time>2026-04-26T09:06:25.001Z</time></trkpt><trkpt lat="44.34798464308738" lon="9.76546005067726"><ele>658.2</ele><time>2026-04-26T09:06:26.001Z</time></trkpt><trkpt lat="44.347989010268414" lon="9.765606962334926"><ele>656.8</ele><time>2026-04-26T09:06:27.001Z</time></trkpt><trkpt lat="44.34799266782274" lon="9.765747475551766"><ele>655.4000000000001</ele><time>2026-04-26T09:06:28.001Z</time></trkpt><trkpt lat="44.34799492270467" lon="9.765884358087613"><ele>654.0</ele><time>2026-04-26T09:06:29.001Z</time></trkpt><trkpt lat="44.34798959129051" lon="9.766014280917188"><ele>652.8000000000001</ele><time>2026-04-26T09:06:30.001Z</time></trkpt><trkpt lat="44.34797774874774" lon="9.7661459753758"><ele>651.6</ele><time>2026-04-26T09:06:31.001Z</time></trkpt><trkpt lat="44.34796107455054" lon="9.76627858552314"><ele>650.4</ele><time>2026-04-26T09:06:32.001Z</time></trkpt><trkpt lat="44.34794401584586" lon="9.76641311885788"><ele>649.2</ele><time>2026-04-26T09:06:33.001Z</time></trkpt><trkpt lat="44.34793387752846" lon="9.76656505507128"><ele>648.0</ele><time>2026-04-26T09:06:34.001Z</time></trkpt><trkpt lat="44.34793290828341" lon="9.766711380139945"><ele>648.0</ele><time>2026-04-26T09:06:35.001Z</time></trkpt><trkpt lat="44.34794024984491" lon="9.76685858130813"><ele>648.0</ele><time>2026-04-26T09:06:36.001Z</time></trkpt><trkpt lat="44.3479584779956" lon="9.767004514272982"><ele>648.0</ele><time>2026-04-26T09:06:37.001Z</time></trkpt><trkpt lat="44.34800069329723" lon="9.767146067622658"><ele>648.0</ele><time>2026-04-26T09:06:38.001Z</time></trkpt><trkpt lat="44.34806572544612" lon="9.767271084940388"><ele>648.0</ele><time>2026-04-26T09:06:39.001Z</time></trkpt><trkpt lat="44.34814511461649" lon="9.767379392504571"><ele>649.75</ele><time>2026-04-26T09:06:40.001Z</time></trkpt><trkpt lat="44.34824363151233" lon="9.767468317466905"><ele>651.5</ele><time>2026-04-26T09:06:41.001Z</time></trkpt><trkpt lat="44.34835726692975" lon="9.767538799283948"><ele>653.25</ele><time>2026-04-26T09:06:42.001Z</time></trkpt><trkpt lat="44.348492055759664" lon="9.767585582530371"><ele>655.0</ele><time>2026-04-26T09:06:43.001Z</time></trkpt><trkpt lat="44.34863161162404" lon="9.7676126089248"><ele>655.0</ele><time>2026-04-26T09:06:44.001Z</time></trkpt><trkpt lat="44.34875885600194" lon="9.767631246677299"><ele>655.0</ele><time>2026-04-26T09:06:45.001Z</time></trkpt><trkpt lat="44.348885756313656" lon="9.767647068211046"><ele>655.0</ele><time>2026-04-26T09:06:46.001Z</time></trkpt><trkpt lat="44.34898858970081" lon="9.767676595863888"><ele>655.0</ele><time>2026-04-26T09:06:47.001Z</time></trkpt><trkpt lat="44.34909786385052" lon="9.767735124243487"><ele>653.4</ele><time>2026-04-26T09:06:48.001Z</time></trkpt><trkpt lat="44.34920361454245" lon="9.767767273185834"><ele>651.8</ele><time>2026-04-26T09:06:49.001Z</time></trkpt><trkpt lat="44.349298878635466" lon="9.767760772714968"><ele>650.2</ele><time>2026-04-26T09:06:50.001Z</time></trkpt><trkpt lat="44.34939242290101" lon="9.767753758052521"><ele>648.6</ele><time>2026-04-26T09:06:51.001Z</time></trkpt><trkpt lat="44.34947102291221" lon="9.767746826355134"><ele>647.0</ele><time>2026-04-26T09:06:52.001Z</time></trkpt><trkpt lat="44.34955196012829" lon="9.767756302181214"><ele>647.0</ele><time>2026-04-26T09:06:53.001Z</time></trkpt><trkpt lat="44.34962091972127" lon="9.76779324525283"><ele>647.0</ele><time>2026-04-26T09:06:54.001Z</time></trkpt><trkpt lat="44.34968754471495" lon="9.767800865270514"><ele>647.0</ele><time>2026-04-26T09:06:55.001Z</time></trkpt><trkpt lat="44.349768928794596" lon="9.767898202773331"><ele>647.0</ele><time>2026-04-26T09:06:57.001Z</time></trkpt><trkpt lat="44.34977536064481" lon="9.767986666953988"><ele>647.0</ele><time>2026-04-26T09:06:58.001Z</time></trkpt><trkpt lat="44.349776263171236" lon="9.768103628019873"><ele>647.0</ele><time>2026-04-26T09:06:59.001Z</time></trkpt><trkpt lat="44.34977901648714" lon="9.768226412909588"><ele>648.4000000000001</ele><time>2026-04-26T09:07:00.001Z</time></trkpt><trkpt lat="44.34981784898118" lon="9.768345925968395"><ele>649.8000000000001</ele><time>2026-04-26T09:07:01.001Z</time></trkpt><trkpt lat="44.34988418608188" lon="9.768468238773579"><ele>651.2</ele><time>2026-04-26T09:07:02.001Z</time></trkpt><trkpt lat="44.34992957577015" lon="9.768587621245544"><ele>652.6</ele><time>2026-04-26T09:07:03.001Z</time></trkpt><trkpt lat="44.349942454840296" lon="9.768728160009184"><ele>654.0</ele><time>2026-04-26T09:07:04.001Z</time></trkpt><trkpt lat="44.349919402794534" lon="9.768867996131204"><ele>654.2</ele><time>2026-04-26T09:07:05.001Z</time></trkpt><trkpt lat="44.34985864917418" lon="9.76898143215577"><ele>654.4000000000001</ele><time>2026-04-26T09:07:06.001Z</time></trkpt><trkpt lat="44.34976927294785" lon="9.769062704274283"><ele>654.6</ele><time>2026-04-26T09:07:07.001Z</time></trkpt><trkpt lat="44.34968370236804" lon="9.769138733290351"><ele>654.8</ele><time>2026-04-26T09:07:08.001Z</time></trkpt><trkpt lat="44.349615464584666" lon="9.769251519787321"><ele>655.0</ele><time>2026-04-26T09:07:09.001Z</time></trkpt><trkpt lat="44.349560538325" lon="9.769395086492311"><ele>651.25</ele><time>2026-04-26T09:07:10.001Z</time></trkpt><trkpt lat="44.34951094303963" lon="9.769540622157937"><ele>647.5</ele><time>2026-04-26T09:07:11.001Z</time></trkpt><trkpt lat="44.34945552320004" lon="9.769700438203161"><ele>643.75</ele><time>2026-04-26T09:07:12.001Z</time></trkpt><trkpt lat="44.34940076404642" lon="9.769856060188548"><ele>640.0</ele><time>2026-04-26T09:07:13.001Z</time></trkpt><trkpt lat="44.34935113381012" lon="9.769996328471011"><ele>640.0</ele><time>2026-04-26T09:07:14.001Z</time></trkpt><trkpt lat="44.349303494617956" lon="9.770127676846478"><ele>640.0</ele><time>2026-04-26T09:07:15.001Z</time></trkpt><trkpt lat="44.349258233521525" lon="9.770248585992496"><ele>640.0</ele><time>2026-04-26T09:07:16.001Z</time></trkpt><trkpt lat="44.349208276744264" lon="9.770362982243329"><ele>640.0</ele><time>2026-04-26T09:07:17.001Z</time></trkpt><trkpt lat="44.34915101715317" lon="9.770467773522418"><ele>640.0</ele><time>2026-04-26T09:07:18.001Z</time></trkpt><trkpt lat="44.34906143251463" lon="9.77053737390477"><ele>641.4</ele><time>2026-04-26T09:07:19.001Z</time></trkpt><trkpt lat="44.34899399074246" lon="9.770629684219644"><ele>642.8</ele><time>2026-04-26T09:07:20.001Z</time></trkpt><trkpt lat="44.34892178361921" lon="9.770699651756953"><ele>644.2</ele><time>2026-04-26T09:07:21.001Z</time></trkpt><trkpt lat="44.34884918208565" lon="9.77077513942283"><ele>645.6</ele><time>2026-04-26T09:07:22.001Z</time></trkpt><trkpt lat="44.34878545277399" lon="9.770863586458066"><ele>647.0</ele><time>2026-04-26T09:07:23.001Z</time></trkpt><trkpt lat="44.34873484323938" lon="9.770979868516225"><ele>645.0</ele><time>2026-04-26T09:07:24.001Z</time></trkpt><trkpt lat="44.348709378645495" lon="9.77110006219708"><ele>643.0</ele><time>2026-04-26T09:07:25.001Z</time></trkpt><trkpt lat="44.34870736762553" lon="9.77121472612189"><ele>641.0</ele><time>2026-04-26T09:07:26.001Z</time></trkpt><trkpt lat="44.34873009968452" lon="9.77132158555102"><ele>639.0</ele><time>2026-04-26T09:07:27.001Z</time></trkpt><trkpt lat="44.34878932533646" lon="9.771387830763093"><ele>637.0</ele><time>2026-04-26T09:07:28.001Z</time></trkpt><trkpt lat="44.348872362660636" lon="9.771424504667195"><ele>635.0</ele><time>2026-04-26T09:07:29.001Z</time></trkpt><trkpt lat="44.34896257014637" lon="9.771415995677717"><ele>635.0</ele><time>2026-04-26T09:07:30.001Z</time></trkpt><trkpt lat="44.34906014551323" lon="9.771355559256195"><ele>635.0</ele><time>2026-04-26T09:07:31.001Z</time></trkpt><trkpt lat="44.34915898595707" lon="9.771276665309616"><ele>635.0</ele><time>2026-04-26T09:07:32.001Z</time></trkpt><trkpt lat="44.349262142500464" lon="9.771275944784275"><ele>635.0</ele><time>2026-04-26T09:07:33.001Z</time></trkpt><trkpt lat="44.349367973899724" lon="9.771287065091757"><ele>635.0</ele><time>2026-04-26T09:07:34.001Z</time></trkpt><trkpt lat="44.34948471855016" lon="9.77128236846268"><ele>635.0</ele><time>2026-04-26T09:07:35.001Z</time></trkpt><trkpt lat="44.34960182629719" lon="9.771305389895934"><ele>635.0</ele><time>2026-04-26T09:07:36.001Z</time></trkpt><trkpt lat="44.34971078593612" lon="9.771325392167078"><ele>635.0</ele><time>2026-04-26T09:07:37.001Z</time></trkpt><trkpt lat="44.34982334985921" lon="9.77134695381453"><ele>635.0</ele><time>2026-04-26T09:07:38.001Z</time></trkpt><trkpt lat="44.349939632850514" lon="9.771323651439525"><ele>634.0</ele><time>2026-04-26T09:07:39.001Z</time></trkpt><trkpt lat="44.350049504324545" lon="9.771292705056421"><ele>633.0</ele><time>2026-04-26T09:07:40.001Z</time></trkpt><trkpt lat="44.35017181454654" lon="9.771259082638002"><ele>632.0</ele><time>2026-04-26T09:07:41.001Z</time></trkpt><trkpt lat="44.350287463499534" lon="9.771221603649789"><ele>631.0</ele><time>2026-04-26T09:07:42.001Z</time></trkpt><trkpt lat="44.35041160312443" lon="9.771175617575174"><ele>631.0</ele><time>2026-04-26T09:07:43.001Z</time></trkpt><trkpt lat="44.35053068402913" lon="9.771117242973041"><ele>631.0</ele><time>2026-04-26T09:07:44.001Z</time></trkpt><trkpt lat="44.35063396309671" lon="9.771032958847972"><ele>631.0</ele><time>2026-04-26T09:07:45.001Z</time></trkpt><trkpt lat="44.35073679957503" lon="9.77096400839508"><ele>631.0</ele><time>2026-04-26T09:07:46.001Z</time></trkpt><trkpt lat="44.35086145835433" lon="9.770928733308745"><ele>634.0</ele><time>2026-04-26T09:07:47.001Z</time></trkpt><trkpt lat="44.35098589849369" lon="9.77094294104166"><ele>637.0</ele><time>2026-04-26T09:07:48.001Z</time></trkpt><trkpt lat="44.35110189820061" lon="9.770960283387168"><ele>640.0</ele><time>2026-04-26T09:07:49.001Z</time></trkpt><trkpt lat="44.35121163478788" lon="9.770938102123568"><ele>643.0</ele><time>2026-04-26T09:07:50.001Z</time></trkpt><trkpt lat="44.35131688891858" lon="9.770867281818083"><ele>638.0</ele><time>2026-04-26T09:07:51.001Z</time></trkpt><trkpt lat="44.35142503465676" lon="9.770763423407773"><ele>633.0</ele><time>2026-04-26T09:07:52.001Z</time></trkpt><trkpt lat="44.35151841768625" lon="9.770633159399628"><ele>628.0</ele><time>2026-04-26T09:07:53.001Z</time></trkpt><trkpt lat="44.35159977015773" lon="9.770508637783612"><ele>623.0</ele><time>2026-04-26T09:07:54.001Z</time></trkpt><trkpt lat="44.35167308278623" lon="9.770430411928539"><ele>623.0</ele><time>2026-04-26T09:07:55.001Z</time></trkpt><trkpt lat="44.35174144221132" lon="9.7703836312206"><ele>623.0</ele><time>2026-04-26T09:07:56.001Z</time></trkpt><trkpt lat="44.35182547648248" lon="9.770401019579742"><ele>623.0</ele><time>2026-04-26T09:07:57.001Z</time></trkpt><trkpt lat="44.351904173069606" lon="9.770480182455925"><ele>623.0</ele><time>2026-04-26T09:07:58.001Z</time></trkpt><trkpt lat="44.351942017097535" lon="9.770634328467374"><ele>623.0</ele><time>2026-04-26T09:07:59.001Z</time></trkpt><trkpt lat="44.352003385799414" lon="9.770772940552694"><ele>623.0</ele><time>2026-04-26T09:08:00.001Z</time></trkpt><trkpt lat="44.352074275940694" lon="9.770910303873002"><ele>623.0</ele><time>2026-04-26T09:08:01.001Z</time></trkpt><trkpt lat="44.35211111183555" lon="9.771078253087135"><ele>623.0</ele><time>2026-04-26T09:08:02.001Z</time></trkpt><trkpt lat="44.3520843123267" lon="9.77127758600573"><ele>623.0</ele><time>2026-04-26T09:08:03.001Z</time></trkpt><trkpt lat="44.35209446919933" lon="9.771473925723832"><ele>623.0</ele><time>2026-04-26T09:08:04.001Z</time></trkpt><trkpt lat="44.35208893205408" lon="9.7716555982189"><ele>623.0</ele><time>2026-04-26T09:08:05.001Z</time></trkpt><trkpt lat="44.35209625976349" lon="9.771830910427225"><ele>623.0</ele><time>2026-04-26T09:08:06.001Z</time></trkpt><trkpt lat="44.352106300818484" lon="9.772011899012574"><ele>623.0</ele><time>2026-04-26T09:08:07Z</time></trkpt><trkpt lat="44.3520925778245" lon="9.772197680840028"><ele>623.0</ele><time>2026-04-26T09:08:08Z</time></trkpt><trkpt lat="44.352065367567064" lon="9.772369870282175"><ele>623.0</ele><time>2026-04-26T09:08:09Z</time></trkpt><trkpt lat="44.35199926808796" lon="9.772514610360838"><ele>623.0</ele><time>2026-04-26T09:08:10Z</time></trkpt><trkpt lat="44.351944201561885" lon="9.772685672528334"><ele>623.0</ele><time>2026-04-26T09:08:11Z</time></trkpt><trkpt lat="44.351876811678814" lon="9.772838502299331"><ele>627.2</ele><time>2026-04-26T09:08:12Z</time></trkpt><trkpt lat="44.35179707063374" lon="9.772975113264135"><ele>631.4</ele><time>2026-04-26T09:08:13Z</time></trkpt><trkpt lat="44.35173304271278" lon="9.77310318905987"><ele>635.6</ele><time>2026-04-26T09:08:14Z</time></trkpt><trkpt lat="44.35165471848809" lon="9.773185503799711"><ele>639.8000000000001</ele><time>2026-04-26T09:08:15Z</time></trkpt><trkpt lat="44.35155468163551" lon="9.773202429369457"><ele>644.0</ele><time>2026-04-26T09:08:16Z</time></trkpt><trkpt lat="44.35143810871915" lon="9.7732062389259"><ele>642.4000000000001</ele><time>2026-04-26T09:08:17Z</time></trkpt><trkpt lat="44.35132247095759" lon="9.773248605319191"><ele>640.8000000000001</ele><time>2026-04-26T09:08:18Z</time></trkpt><trkpt lat="44.35121641275576" lon="9.773292140795826"><ele>639.2</ele><time>2026-04-26T09:08:19Z</time></trkpt><trkpt lat="44.351136096529714" lon="9.773374808720767"><ele>637.6</ele><time>2026-04-26T09:08:20Z</time></trkpt><trkpt lat="44.35108943390268" lon="9.77348832468701"><ele>636.0</ele><time>2026-04-26T09:08:21Z</time></trkpt><trkpt lat="44.35108420623758" lon="9.773631600123347"><ele>636.0</ele><time>2026-04-26T09:08:22Z</time></trkpt><trkpt lat="44.3511266073838" lon="9.77378757431172"><ele>636.0</ele><time>2026-04-26T09:08:23Z</time></trkpt><trkpt lat="44.35118960860267" lon="9.773935371073692"><ele>636.0</ele><time>2026-04-26T09:08:24Z</time></trkpt><trkpt lat="44.35120232385472" lon="9.774078507037933"><ele>636.0</ele><time>2026-04-26T09:08:25Z</time></trkpt><trkpt lat="44.35120185288078" lon="9.774202980471673"><ele>636.0</ele><time>2026-04-26T09:08:26Z</time></trkpt><trkpt lat="44.35118704078721" lon="9.774315222378473"><ele>644.25</ele><time>2026-04-26T09:08:27Z</time></trkpt><trkpt lat="44.35113866893888" lon="9.77441516282271"><ele>652.5</ele><time>2026-04-26T09:08:28Z</time></trkpt><trkpt lat="44.35105166637896" lon="9.774486757327276"><ele>660.75</ele><time>2026-04-26T09:08:29Z</time></trkpt><trkpt lat="44.35092056032569" lon="9.774493904698454"><ele>669.0</ele><time>2026-04-26T09:08:30Z</time></trkpt><trkpt lat="44.350789839379495" lon="9.774553367252322"><ele>669.0</ele><time>2026-04-26T09:08:31Z</time></trkpt><trkpt lat="44.350665771180154" lon="9.774579370562357"><ele>669.0</ele><time>2026-04-26T09:08:32Z</time></trkpt><trkpt lat="44.35056268615134" lon="9.774617538965792"><ele>669.0</ele><time>2026-04-26T09:08:33Z</time></trkpt><trkpt lat="44.35046035867543" lon="9.774684062343969"><ele>669.0</ele><time>2026-04-26T09:08:34Z</time></trkpt><trkpt lat="44.35037626554637" lon="9.774809205444967"><ele>672.0</ele><time>2026-04-26T09:08:35Z</time></trkpt><trkpt lat="44.3502967549844" lon="9.77496361148821"><ele>675.0</ele><time>2026-04-26T09:08:36Z</time></trkpt><trkpt lat="44.350198443240174" lon="9.775084267480654"><ele>678.0</ele><time>2026-04-26T09:08:37Z</time></trkpt><trkpt lat="44.35010410249186" lon="9.775217942084819"><ele>681.0</ele><time>2026-04-26T09:08:38Z</time></trkpt><trkpt lat="44.34997092495515" lon="9.775287482892626"><ele>681.0</ele><time>2026-04-26T09:08:39Z</time></trkpt><trkpt lat="44.34985354967654" lon="9.775394189650141"><ele>681.0</ele><time>2026-04-26T09:08:40Z</time></trkpt><trkpt lat="44.34974042972762" lon="9.775500106773308"><ele>681.0</ele><time>2026-04-26T09:08:41Z</time></trkpt><trkpt lat="44.349633307823396" lon="9.775627282573124"><ele>681.0</ele><time>2026-04-26T09:08:42Z</time></trkpt><trkpt lat="44.34952005442006" lon="9.77573845259815"><ele>682.25</ele><time>2026-04-26T09:08:43Z</time></trkpt><trkpt lat="44.34941844057374" lon="9.775852347990766"><ele>683.5</ele><time>2026-04-26T09:08:44Z</time></trkpt><trkpt lat="44.34930908369417" lon="9.775935384294542"><ele>684.75</ele><time>2026-04-26T09:08:45Z</time></trkpt><trkpt lat="44.349179572623186" lon="9.775986283055579"><ele>686.0</ele><time>2026-04-26T09:08:46Z</time></trkpt><trkpt lat="44.34903509265212" lon="9.776032023106888"><ele>686.0</ele><time>2026-04-26T09:08:47Z</time></trkpt><trkpt lat="44.34890055967397" lon="9.776095697682544"><ele>686.0</ele><time>2026-04-26T09:08:48Z</time></trkpt><trkpt lat="44.34878995571968" lon="9.776157862052775"><ele>686.0</ele><time>2026-04-26T09:08:49Z</time></trkpt><trkpt lat="44.34868965789877" lon="9.776231459464432"><ele>686.0</ele><time>2026-04-26T09:08:50Z</time></trkpt><trkpt lat="44.348590719278434" lon="9.776300207557073"><ele>676.0</ele><time>2026-04-26T09:08:51Z</time></trkpt><trkpt lat="44.34850941606262" lon="9.776388497997358"><ele>666.0</ele><time>2026-04-26T09:08:52Z</time></trkpt><trkpt lat="44.348461778899974" lon="9.776524134857722"><ele>656.0</ele><time>2026-04-26T09:08:53Z</time></trkpt><trkpt lat="44.3484582610575" lon="9.77669660393299"><ele>646.0</ele><time>2026-04-26T09:08:54Z</time></trkpt><trkpt lat="44.34848522672818" lon="9.776872703686932"><ele>646.0</ele><time>2026-04-26T09:08:55Z</time></trkpt><trkpt lat="44.348509468609215" lon="9.777047429839376"><ele>646.0</ele><time>2026-04-26T09:08:56Z</time></trkpt><trkpt lat="44.348516717886746" lon="9.777211806686816"><ele>646.0</ele><time>2026-04-26T09:08:57Z</time></trkpt><trkpt lat="44.348534207101785" lon="9.777383175345944"><ele>646.0</ele><time>2026-04-26T09:08:58Z</time></trkpt><trkpt lat="44.34856866081081" lon="9.777526840655955"><ele>643.1999999999999</ele><time>2026-04-26T09:08:59Z</time></trkpt><trkpt lat="44.34856430419674" lon="9.777690668340613"><ele>640.4</ele><time>2026-04-26T09:09:00Z</time></trkpt><trkpt lat="44.34857686726386" lon="9.777848530954154"><ele>637.6</ele><time>2026-04-26T09:09:01Z</time></trkpt><trkpt lat="44.34857402380131" lon="9.777994756978723"><ele>634.8</ele><time>2026-04-26T09:09:02Z</time></trkpt><trkpt lat="44.348616467398536" lon="9.77812541200281"><ele>632.0</ele><time>2026-04-26T09:09:03Z</time></trkpt><trkpt lat="44.34870784736228" lon="9.778247057471678"><ele>632.0</ele><time>2026-04-26T09:09:04Z</time></trkpt><trkpt lat="44.34878548659834" lon="9.778373387043128"><ele>632.0</ele><time>2026-04-26T09:09:05Z</time></trkpt><trkpt lat="44.348855791477234" lon="9.778519098328733"><ele>632.0</ele><time>2026-04-26T09:09:06Z</time></trkpt><trkpt lat="44.348933491490236" lon="9.778661683523442"><ele>632.0</ele><time>2026-04-26T09:09:07Z</time></trkpt><trkpt lat="44.349015432517554" lon="9.778801170547519"><ele>641.5</ele><time>2026-04-26T09:09:08Z</time></trkpt><trkpt lat="44.34909874902683" lon="9.778930372238086"><ele>651.0</ele><time>2026-04-26T09:09:09Z</time></trkpt><trkpt lat="44.34919541394083" lon="9.779023045335892"><ele>660.5</ele><time>2026-04-26T09:09:10Z</time></trkpt><trkpt lat="44.349238900655315" lon="9.779163768148114"><ele>670.0</ele><time>2026-04-26T09:09:11Z</time></trkpt><trkpt lat="44.349258627516775" lon="9.779322709678906"><ele>665.5</ele><time>2026-04-26T09:09:12Z</time></trkpt><trkpt lat="44.34925259386622" lon="9.779492511670862"><ele>661.0</ele><time>2026-04-26T09:09:13Z</time></trkpt><trkpt lat="44.34925108380845" lon="9.779651422347364"><ele>656.5</ele><time>2026-04-26T09:09:14Z</time></trkpt><trkpt lat="44.34922283409717" lon="9.779807647564216"><ele>652.0</ele><time>2026-04-26T09:09:15Z</time></trkpt><trkpt lat="44.34920920316501" lon="9.779949661626835"><ele>652.0</ele><time>2026-04-26T09:09:16Z</time></trkpt><trkpt lat="44.34922568333162" lon="9.780081515418821"><ele>652.0</ele><time>2026-04-26T09:09:17Z</time></trkpt><trkpt lat="44.3492854840902" lon="9.780182336699363"><ele>652.0</ele><time>2026-04-26T09:09:18Z</time></trkpt><trkpt lat="44.34937053259568" lon="9.780239035089178"><ele>652.0</ele><time>2026-04-26T09:09:19Z</time></trkpt><trkpt lat="44.349466326780686" lon="9.780258370003388"><ele>652.0</ele><time>2026-04-26T09:09:20Z</time></trkpt><trkpt lat="44.34956473418591" lon="9.780241100283945"><ele>648.8000000000001</ele><time>2026-04-26T09:09:21Z</time></trkpt><trkpt lat="44.34963468790583" lon="9.780255000161578"><ele>645.6</ele><time>2026-04-26T09:09:22Z</time></trkpt><trkpt lat="44.34970902937429" lon="9.780323842721105"><ele>642.4000000000001</ele><time>2026-04-26T09:09:23Z</time></trkpt><trkpt lat="44.34975677211389" lon="9.780445471766667"><ele>639.2</ele><time>2026-04-26T09:09:24Z</time></trkpt><trkpt lat="44.349724071286445" lon="9.78059454668893"><ele>636.0</ele><time>2026-04-26T09:09:25Z</time></trkpt><trkpt lat="44.349719653976564" lon="9.780755734385613"><ele>636.0</ele><time>2026-04-26T09:09:26Z</time></trkpt><trkpt lat="44.34969556570374" lon="9.780888710839328"><ele>636.0</ele><time>2026-04-26T09:09:27Z</time></trkpt><trkpt lat="44.34970412511898" lon="9.781015954715278"><ele>636.0</ele><time>2026-04-26T09:09:28Z</time></trkpt><trkpt lat="44.34976547602738" lon="9.781138427389324"><ele>636.0</ele><time>2026-04-26T09:09:29Z</time></trkpt><trkpt lat="44.34985493515513" lon="9.781206100967038"><ele>636.0</ele><time>2026-04-26T09:09:30Z</time></trkpt><trkpt lat="44.349934565396254" lon="9.78125978330854"><ele>643.0</ele><time>2026-04-26T09:09:31Z</time></trkpt><trkpt lat="44.34997891361361" lon="9.781388767546742"><ele>650.0</ele><time>2026-04-26T09:09:32Z</time></trkpt><trkpt lat="44.350004098493095" lon="9.78154205259982"><ele>657.0</ele><time>2026-04-26T09:09:33Z</time></trkpt><trkpt lat="44.35001100991629" lon="9.781711712893625"><ele>664.0</ele><time>2026-04-26T09:09:34Z</time></trkpt><trkpt lat="44.35001309328633" lon="9.781858108601615"><ele>671.0</ele><time>2026-04-26T09:09:35Z</time></trkpt><trkpt lat="44.34998790487639" lon="9.7820015060537"><ele>672.1999999999999</ele><time>2026-04-26T09:09:36Z</time></trkpt><trkpt lat="44.34993933216545" lon="9.782132315362656"><ele>673.4</ele><time>2026-04-26T09:09:37Z</time></trkpt><trkpt lat="44.34988600648231" lon="9.782273740590327"><ele>674.6</ele><time>2026-04-26T09:09:38Z</time></trkpt><trkpt lat="44.34983860507506" lon="9.782405460779902"><ele>675.8</ele><time>2026-04-26T09:09:39Z</time></trkpt><trkpt lat="44.349808150793386" lon="9.782541499150694"><ele>677.0</ele><time>2026-04-26T09:09:40Z</time></trkpt><trkpt lat="44.3497997371632" lon="9.782698580319197"><ele>680.0</ele><time>2026-04-26T09:09:41Z</time></trkpt><trkpt lat="44.349826379970516" lon="9.7828506910697"><ele>683.0</ele><time>2026-04-26T09:09:42Z</time></trkpt><trkpt lat="44.349879237709324" lon="9.7829838452428"><ele>686.0</ele><time>2026-04-26T09:09:43Z</time></trkpt><trkpt lat="44.34989637030262" lon="9.783116269526289"><ele>689.0</ele><time>2026-04-26T09:09:44Z</time></trkpt><trkpt lat="44.3499016742907" lon="9.783246764953558"><ele>692.0</ele><time>2026-04-26T09:09:45Z</time></trkpt><trkpt lat="44.349839963411455" lon="9.78336709557906"><ele>692.0</ele><time>2026-04-26T09:09:46Z</time></trkpt><trkpt lat="44.34974439831975" lon="9.783430100195842"><ele>692.0</ele><time>2026-04-26T09:09:47Z</time></trkpt><trkpt lat="44.34965760061682" lon="9.783488592526446"><ele>692.0</ele><time>2026-04-26T09:09:48Z</time></trkpt><trkpt lat="44.34957823868552" lon="9.78355795578366"><ele>692.0</ele><time>2026-04-26T09:09:49Z</time></trkpt><trkpt lat="44.349510582000256" lon="9.783648619207813"><ele>692.0</ele><time>2026-04-26T09:09:50Z</time></trkpt><trkpt lat="44.34945923625629" lon="9.7837632859978"><ele>683.3333333333333</ele><time>2026-04-26T09:09:51Z</time></trkpt><trkpt lat="44.3494455229119" lon="9.783898011921883"><ele>674.6666666666666</ele><time>2026-04-26T09:09:52Z</time></trkpt><trkpt lat="44.349462068998456" lon="9.78401506112465"><ele>666.0</ele><time>2026-04-26T09:09:53Z</time></trkpt><trkpt lat="44.349487402901026" lon="9.784123508560677"><ele>657.3333333333334</ele><time>2026-04-26T09:09:54Z</time></trkpt><trkpt lat="44.34946710577605" lon="9.784219457688637"><ele>648.6666666666667</ele><time>2026-04-26T09:09:55Z</time></trkpt><trkpt lat="44.349465108639706" lon="9.784326086718508"><ele>640.0</ele><time>2026-04-26T09:09:56Z</time></trkpt><trkpt lat="44.34945081387263" lon="9.78443082903211"><ele>637.4</ele><time>2026-04-26T09:09:57Z</time></trkpt><trkpt lat="44.3494893800101" lon="9.784537062871404"><ele>634.8</ele><time>2026-04-26T09:09:58Z</time></trkpt><trkpt lat="44.34956604865421" lon="9.784610192750106"><ele>632.2</ele><time>2026-04-26T09:09:59Z</time></trkpt><trkpt lat="44.349654226337435" lon="9.784656218908975"><ele>629.6</ele><time>2026-04-26T09:10:00Z</time></trkpt><trkpt lat="44.34973723146805" lon="9.784715215537142"><ele>627.0</ele><time>2026-04-26T09:10:01Z</time></trkpt><trkpt lat="44.349798243235774" lon="9.784800564662348"><ele>635.6</ele><time>2026-04-26T09:10:02Z</time></trkpt><trkpt lat="44.34988144334352" lon="9.784888610715281"><ele>644.2</ele><time>2026-04-26T09:10:03Z</time></trkpt><trkpt lat="44.34997450892117" lon="9.784964548494553"><ele>652.8</ele><time>2026-04-26T09:10:04Z</time></trkpt><trkpt lat="44.35006629763596" lon="9.785016031550553"><ele>661.4</ele><time>2026-04-26T09:10:05Z</time></trkpt><trkpt lat="44.35011986270983" lon="9.785099263146737"><ele>670.0</ele><time>2026-04-26T09:10:06Z</time></trkpt><trkpt lat="44.350166562472765" lon="9.785171818663349"><ele>667.6</ele><time>2026-04-26T09:10:07Z</time></trkpt><trkpt lat="44.35015492911018" lon="9.78529002299265"><ele>665.2</ele><time>2026-04-26T09:10:08Z</time></trkpt><trkpt lat="44.350104568186566" lon="9.785395444056594"><ele>662.8</ele><time>2026-04-26T09:10:09Z</time></trkpt><trkpt lat="44.35006160724202" lon="9.785509156440867"><ele>660.4</ele><time>2026-04-26T09:10:10Z</time></trkpt><trkpt lat="44.35005140682691" lon="9.785651145536557"><ele>658.0</ele><time>2026-04-26T09:10:11Z</time></trkpt><trkpt lat="44.35006646920159" lon="9.785786324741977"><ele>658.0</ele><time>2026-04-26T09:10:12Z</time></trkpt><trkpt lat="44.35005805535258" lon="9.785915283296331"><ele>658.0</ele><time>2026-04-26T09:10:13Z</time></trkpt><trkpt lat="44.350000890591296" lon="9.78601817850311"><ele>658.0</ele><time>2026-04-26T09:10:14Z</time></trkpt><trkpt lat="44.349968584934224" lon="9.786145664281936"><ele>658.0</ele><time>2026-04-26T09:10:15Z</time></trkpt><trkpt lat="44.34991775937874" lon="9.786244911881179"><ele>658.0</ele><time>2026-04-26T09:10:16Z</time></trkpt><trkpt lat="44.34987157019531" lon="9.786350469009014"><ele>657.8</ele><time>2026-04-26T09:10:17Z</time></trkpt><trkpt lat="44.349861452378896" lon="9.78647588187018"><ele>657.5999999999999</ele><time>2026-04-26T09:10:18Z</time></trkpt><trkpt lat="44.34988426498581" lon="9.786596484767363"><ele>657.4000000000001</ele><time>2026-04-26T09:10:19Z</time></trkpt><trkpt lat="44.3499365234649" lon="9.78672004204582"><ele>657.2</ele><time>2026-04-26T09:10:20Z</time></trkpt><trkpt lat="44.35000757922998" lon="9.78681606579087"><ele>657.0</ele><time>2026-04-26T09:10:21Z</time></trkpt><trkpt lat="44.350079443574124" lon="9.786922016627123"><ele>653.5</ele><time>2026-04-26T09:10:22Z</time></trkpt><trkpt lat="44.35013216425022" lon="9.787068775805128"><ele>650.0</ele><time>2026-04-26T09:10:23Z</time></trkpt><trkpt lat="44.35019113126311" lon="9.787207833017538"><ele>646.5</ele><time>2026-04-26T09:10:24Z</time></trkpt><trkpt lat="44.35021863275341" lon="9.78737204280761"><ele>643.0</ele><time>2026-04-26T09:10:25Z</time></trkpt><trkpt lat="44.35022914079783" lon="9.787539125569577"><ele>639.75</ele><time>2026-04-26T09:10:26Z</time></trkpt><trkpt lat="44.35022028017133" lon="9.787693168877526"><ele>636.5</ele><time>2026-04-26T09:10:27Z</time></trkpt><trkpt lat="44.3502220284376" lon="9.78785581554665"><ele>633.25</ele><time>2026-04-26T09:10:28Z</time></trkpt><trkpt lat="44.350252044542316" lon="9.788013860407222"><ele>630.0</ele><time>2026-04-26T09:10:29Z</time></trkpt><trkpt lat="44.350297827493314" lon="9.788160276018184"><ele>630.0</ele><time>2026-04-26T09:10:30Z</time></trkpt><trkpt lat="44.350341815863544" lon="9.78830293682926"><ele>630.0</ele><time>2026-04-26T09:10:31Z</time></trkpt><trkpt lat="44.35039264117804" lon="9.788439701627603"><ele>630.0</ele><time>2026-04-26T09:10:32Z</time></trkpt><trkpt lat="44.3504263991091" lon="9.788603877367374"><ele>630.0</ele><time>2026-04-26T09:10:33Z</time></trkpt><trkpt lat="44.350467389398496" lon="9.788770451838463"><ele>631.75</ele><time>2026-04-26T09:10:34Z</time></trkpt><trkpt lat="44.35050219443043" lon="9.788936766360417"><ele>633.5</ele><time>2026-04-26T09:10:35Z</time></trkpt><trkpt lat="44.350514267050755" lon="9.78909438757911"><ele>635.25</ele><time>2026-04-26T09:10:36Z</time></trkpt><trkpt lat="44.350533730836105" lon="9.789251448823753"><ele>637.0</ele><time>2026-04-26T09:10:37Z</time></trkpt><trkpt lat="44.35058129725835" lon="9.789408547898601"><ele>637.0</ele><time>2026-04-26T09:10:38Z</time></trkpt><trkpt lat="44.3506560013853" lon="9.789560557619527"><ele>637.0</ele><time>2026-04-26T09:10:39Z</time></trkpt><trkpt lat="44.35071745120546" lon="9.78969710622372"><ele>637.0</ele><time>2026-04-26T09:10:40Z</time></trkpt><trkpt lat="44.35076314617686" lon="9.789815949709146"><ele>637.0</ele><time>2026-04-26T09:10:41Z</time></trkpt><trkpt lat="44.35083337140087" lon="9.789899460877958"><ele>637.0</ele><time>2026-04-26T09:10:42Z</time></trkpt><trkpt lat="44.350937956209165" lon="9.789921583880606"><ele>637.0</ele><time>2026-04-26T09:10:43Z</time></trkpt><trkpt lat="44.351055142681396" lon="9.789901385737556"><ele>637.0</ele><time>2026-04-26T09:10:44Z</time></trkpt><trkpt lat="44.35116783478272" lon="9.78985925527872"><ele>637.0</ele><time>2026-04-26T09:10:45Z</time></trkpt><trkpt lat="44.35125084766338" lon="9.789747789306528"><ele>637.0</ele><time>2026-04-26T09:10:46Z</time></trkpt><trkpt lat="44.351305881169125" lon="9.789591495225533"><ele>637.0</ele><time>2026-04-26T09:10:47Z</time></trkpt><trkpt lat="44.351360372163526" lon="9.789452316156895"><ele>637.0</ele><time>2026-04-26T09:10:48Z</time></trkpt><trkpt lat="44.351424439314485" lon="9.789340937112268"><ele>637.0</ele><time>2026-04-26T09:10:49Z</time></trkpt><trkpt lat="44.35152981757923" lon="9.78928707326772"><ele>637.0</ele><time>2026-04-26T09:10:50Z</time></trkpt><trkpt lat="44.351656980190974" lon="9.789218053502411"><ele>641.5</ele><time>2026-04-26T09:10:51Z</time></trkpt><trkpt lat="44.35178755433048" lon="9.78920655746032"><ele>646.0</ele><time>2026-04-26T09:10:52Z</time></trkpt><trkpt lat="44.35192661948976" lon="9.789187455321526"><ele>650.5</ele><time>2026-04-26T09:10:53Z</time></trkpt><trkpt lat="44.35206573800008" lon="9.789173983203986"><ele>655.0</ele><time>2026-04-26T09:10:54Z</time></trkpt><trkpt lat="44.35220228384114" lon="9.789157890566148"><ele>650.25</ele><time>2026-04-26T09:10:55Z</time></trkpt><trkpt lat="44.352333125222934" lon="9.789166676613418"><ele>645.5</ele><time>2026-04-26T09:10:56Z</time></trkpt><trkpt lat="44.35245903594415" lon="9.789210325851666"><ele>640.75</ele><time>2026-04-26T09:10:57Z</time></trkpt><trkpt lat="44.35258302834328" lon="9.789242181454863"><ele>636.0</ele><time>2026-04-26T09:10:58Z</time></trkpt><trkpt lat="44.352702761920675" lon="9.789252088609718"><ele>636.0</ele><time>2026-04-26T09:10:59Z</time></trkpt><trkpt lat="44.3528207227053" lon="9.789238025869583"><ele>636.0</ele><time>2026-04-26T09:11:00Z</time></trkpt><trkpt lat="44.35294242049771" lon="9.789198459101069"><ele>636.0</ele><time>2026-04-26T09:11:01Z</time></trkpt><trkpt lat="44.35306194846938" lon="9.78915238844702"><ele>636.0</ele><time>2026-04-26T09:11:02Z</time></trkpt><trkpt lat="44.35317820317907" lon="9.789116878932681"><ele>633.6</ele><time>2026-04-26T09:11:03Z</time></trkpt><trkpt lat="44.35328162900385" lon="9.789060394927118"><ele>631.2</ele><time>2026-04-26T09:11:04Z</time></trkpt><trkpt lat="44.35338966187784" lon="9.789031314430499"><ele>628.8</ele><time>2026-04-26T09:11:05Z</time></trkpt><trkpt lat="44.353473587144364" lon="9.789020785347681"><ele>626.4</ele><time>2026-04-26T09:11:06Z</time></trkpt><trkpt lat="44.35356497314208" lon="9.788991779306732"><ele>624.0</ele><time>2026-04-26T09:11:07Z</time></trkpt><trkpt lat="44.353663431481486" lon="9.789020604720834"><ele>624.0</ele><time>2026-04-26T09:11:08Z</time></trkpt><trkpt lat="44.35373128198664" lon="9.789137369663697"><ele>624.0</ele><time>2026-04-26T09:11:09Z</time></trkpt><trkpt lat="44.35373101052886" lon="9.789345353285286"><ele>624.0</ele><time>2026-04-26T09:11:10Z</time></trkpt><trkpt lat="44.35373319764905" lon="9.789506278260385"><ele>624.0</ele><time>2026-04-26T09:11:11Z</time></trkpt><trkpt lat="44.35371009735551" lon="9.78962700475403"><ele>624.75</ele><time>2026-04-26T09:11:12Z</time></trkpt><trkpt lat="44.35361030040137" lon="9.789670328925512"><ele>625.5</ele><time>2026-04-26T09:11:13Z</time></trkpt><trkpt lat="44.35350880780137" lon="9.78968303797149"><ele>626.25</ele><time>2026-04-26T09:11:14Z</time></trkpt><trkpt lat="44.35339341027785" lon="9.789762531540878"><ele>627.0</ele><time>2026-04-26T09:11:15Z</time></trkpt><trkpt lat="44.35327217455403" lon="9.789833955392663"><ele>627.0</ele><time>2026-04-26T09:11:16Z</time></trkpt><trkpt lat="44.3531717820421" lon="9.789944535063483"><ele>627.0</ele><time>2026-04-26T09:11:17Z</time></trkpt><trkpt lat="44.3530767902406" lon="9.790078055600365"><ele>627.0</ele><time>2026-04-26T09:11:18Z</time></trkpt><trkpt lat="44.35297407919594" lon="9.790176446738414"><ele>627.0</ele><time>2026-04-26T09:11:19Z</time></trkpt><trkpt lat="44.35288353699915" lon="9.790276440956209"><ele>624.5</ele><time>2026-04-26T09:11:20Z</time></trkpt><trkpt lat="44.3527782335369" lon="9.7903784698049"><ele>622.0</ele><time>2026-04-26T09:11:21Z</time></trkpt><trkpt lat="44.352667296748415" lon="9.79046541019751"><ele>619.5</ele><time>2026-04-26T09:11:22Z</time></trkpt><trkpt lat="44.3525557094971" lon="9.790544498664552"><ele>617.0</ele><time>2026-04-26T09:11:23Z</time></trkpt><trkpt lat="44.3524502305823" lon="9.79064201901459"><ele>617.0</ele><time>2026-04-26T09:11:24Z</time></trkpt><trkpt lat="44.3523521409037" lon="9.790742098151535"><ele>617.0</ele><time>2026-04-26T09:11:25Z</time></trkpt><trkpt lat="44.35226618476121" lon="9.790847060329542"><ele>617.0</ele><time>2026-04-26T09:11:26Z</time></trkpt><trkpt lat="44.35220793628841" lon="9.790980120993803"><ele>617.0</ele><time>2026-04-26T09:11:27Z</time></trkpt><trkpt lat="44.35219231773486" lon="9.791146445398082"><ele>609.5</ele><time>2026-04-26T09:11:28Z</time></trkpt><trkpt lat="44.35220597398733" lon="9.791331187041418"><ele>602.0</ele><time>2026-04-26T09:11:29Z</time></trkpt><trkpt lat="44.352196534286726" lon="9.79153591264722"><ele>594.5</ele><time>2026-04-26T09:11:30Z</time></trkpt><trkpt lat="44.352189967931544" lon="9.791768833934189"><ele>587.0</ele><time>2026-04-26T09:11:31Z</time></trkpt><trkpt lat="44.35220508534223" lon="9.791991849984123"><ele>585.0</ele><time>2026-04-26T09:11:32Z</time></trkpt><trkpt lat="44.3522125548512" lon="9.792162270527678"><ele>583.0</ele><time>2026-04-26T09:11:33Z</time></trkpt><trkpt lat="44.3521762392304" lon="9.79232541884111"><ele>581.0</ele><time>2026-04-26T09:11:34Z</time></trkpt><trkpt lat="44.352091484131506" lon="9.792495439091448"><ele>579.0</ele><time>2026-04-26T09:11:35Z</time></trkpt><trkpt lat="44.35201715538976" lon="9.792645300740713"><ele>578.0</ele><time>2026-04-26T09:11:36Z</time></trkpt><trkpt lat="44.35197099559242" lon="9.792790151370108"><ele>577.0</ele><time>2026-04-26T09:11:37Z</time></trkpt><trkpt lat="44.35196342673925" lon="9.792922220955912"><ele>576.0</ele><time>2026-04-26T09:11:38Z</time></trkpt><trkpt lat="44.351984962360284" lon="9.793055353466114"><ele>575.0</ele><time>2026-04-26T09:11:39Z</time></trkpt><trkpt lat="44.352043822336576" lon="9.79319541496459"><ele>574.0</ele><time>2026-04-26T09:11:40Z</time></trkpt><trkpt lat="44.35212664408257" lon="9.79334772591959"><ele>588.25</ele><time>2026-04-26T09:11:41Z</time></trkpt><trkpt lat="44.35221426503906" lon="9.793495142296948"><ele>602.5</ele><time>2026-04-26T09:11:42Z</time></trkpt><trkpt lat="44.35229764454567" lon="9.793625000326427"><ele>616.75</ele><time>2026-04-26T09:11:43Z</time></trkpt><trkpt lat="44.35233602597436" lon="9.79375498435544"><ele>631.0</ele><time>2026-04-26T09:11:44Z</time></trkpt><trkpt lat="44.35236737936164" lon="9.793877041040766"><ele>631.0</ele><time>2026-04-26T09:11:45Z</time></trkpt><trkpt lat="44.3523376767082" lon="9.794034659722767"><ele>631.0</ele><time>2026-04-26T09:11:46Z</time></trkpt><trkpt lat="44.3522512137999" lon="9.794151183207786"><ele>631.0</ele><time>2026-04-26T09:11:47Z</time></trkpt><trkpt lat="44.35213833216794" lon="9.794272472562543"><ele>631.0</ele><time>2026-04-26T09:11:48Z</time></trkpt><trkpt lat="44.352035797259255" lon="9.79438654320598"><ele>618.75</ele><time>2026-04-26T09:11:49Z</time></trkpt><trkpt lat="44.35193056825611" lon="9.79447660176369"><ele>606.5</ele><time>2026-04-26T09:11:50Z</time></trkpt><trkpt lat="44.351853287681834" lon="9.794594185698909"><ele>594.25</ele><time>2026-04-26T09:11:51Z</time></trkpt><trkpt lat="44.35179908825625" lon="9.794740607634779"><ele>582.0</ele><time>2026-04-26T09:11:52Z</time></trkpt><trkpt lat="44.35179139028295" lon="9.794928977910688"><ele>582.0</ele><time>2026-04-26T09:11:53Z</time></trkpt><trkpt lat="44.351809940611616" lon="9.795123709326264"><ele>582.0</ele><time>2026-04-26T09:11:54Z</time></trkpt><trkpt lat="44.351835667011194" lon="9.795307146303946"><ele>582.0</ele><time>2026-04-26T09:11:55Z</time></trkpt><trkpt lat="44.35184332830672" lon="9.795485095631925"><ele>582.0</ele><time>2026-04-26T09:11:56Z</time></trkpt><trkpt lat="44.35180992419408" lon="9.795650071712629"><ele>583.0</ele><time>2026-04-26T09:11:57Z</time></trkpt><trkpt lat="44.351789610317134" lon="9.79580395574515"><ele>584.0</ele><time>2026-04-26T09:11:58Z</time></trkpt><trkpt lat="44.351824091935114" lon="9.795960600429458"><ele>585.0</ele><time>2026-04-26T09:11:59Z</time></trkpt><trkpt lat="44.35191442504845" lon="9.796094742138834"><ele>586.0</ele><time>2026-04-26T09:12:00Z</time></trkpt><trkpt lat="44.35200047228561" lon="9.796217316280549"><ele>586.8</ele><time>2026-04-26T09:12:01Z</time></trkpt><trkpt lat="44.352014933021465" lon="9.796355159171089"><ele>587.6</ele><time>2026-04-26T09:12:02Z</time></trkpt><trkpt lat="44.352003930992275" lon="9.796499058310792"><ele>588.4</ele><time>2026-04-26T09:12:03Z</time></trkpt><trkpt lat="44.351955575759895" lon="9.796629141313021"><ele>589.2</ele><time>2026-04-26T09:12:04Z</time></trkpt><trkpt lat="44.35185915835453" lon="9.796733406103616"><ele>590.0</ele><time>2026-04-26T09:12:05Z</time></trkpt><trkpt lat="44.35175598146261" lon="9.79686332806076"><ele>594.0</ele><time>2026-04-26T09:12:06Z</time></trkpt><trkpt lat="44.351642286244434" lon="9.796927840886468"><ele>598.0</ele><time>2026-04-26T09:12:07Z</time></trkpt><trkpt lat="44.35156804306934" lon="9.797071960613998"><ele>602.0</ele><time>2026-04-26T09:12:08Z</time></trkpt><trkpt lat="44.35152219769964" lon="9.79726092002174"><ele>606.0</ele><time>2026-04-26T09:12:09Z</time></trkpt><trkpt lat="44.351464626761256" lon="9.797456200279262"><ele>608.25</ele><time>2026-04-26T09:12:10Z</time></trkpt><trkpt lat="44.35140411716116" lon="9.797669019808147"><ele>610.5</ele><time>2026-04-26T09:12:11Z</time></trkpt><trkpt lat="44.35134856543293" lon="9.79786318749233"><ele>612.75</ele><time>2026-04-26T09:12:12Z</time></trkpt><trkpt lat="44.351313857845994" lon="9.79802967296831"><ele>615.0</ele><time>2026-04-26T09:12:13Z</time></trkpt><trkpt lat="44.35128887101683" lon="9.798211720493146"><ele>611.75</ele><time>2026-04-26T09:12:14Z</time></trkpt><trkpt lat="44.3513017995794" lon="9.79839585555502"><ele>608.5</ele><time>2026-04-26T09:12:15Z</time></trkpt><trkpt lat="44.35136317511716" lon="9.798567439707071"><ele>605.25</ele><time>2026-04-26T09:12:16Z</time></trkpt><trkpt lat="44.35140915760375" lon="9.798725243353193"><ele>602.0</ele><time>2026-04-26T09:12:17Z</time></trkpt><trkpt lat="44.351376343759554" lon="9.798901745921482"><ele>599.25</ele><time>2026-04-26T09:12:18Z</time></trkpt><trkpt lat="44.35135220122558" lon="9.79907585373406"><ele>596.5</ele><time>2026-04-26T09:12:18.999Z</time></trkpt><trkpt lat="44.3513657677138" lon="9.799242712336968"><ele>593.75</ele><time>2026-04-26T09:12:19.999Z</time></trkpt><trkpt lat="44.35142847083221" lon="9.79936909900914"><ele>591.0</ele><time>2026-04-26T09:12:20.999Z</time></trkpt><trkpt lat="44.35153086895225" lon="9.799491713379387"><ele>591.0</ele><time>2026-04-26T09:12:21.999Z</time></trkpt><trkpt lat="44.35164862884376" lon="9.79957505099851"><ele>591.0</ele><time>2026-04-26T09:12:22.999Z</time></trkpt><trkpt lat="44.351743875734684" lon="9.79965718055363"><ele>591.0</ele><time>2026-04-26T09:12:23.999Z</time></trkpt><trkpt lat="44.35181109668972" lon="9.799728218431731"><ele>591.0</ele><time>2026-04-26T09:12:24.999Z</time></trkpt><trkpt lat="44.3518379000718" lon="9.799838586340272"><ele>591.0</ele><time>2026-04-26T09:12:25.999Z</time></trkpt><trkpt lat="44.351827152741286" lon="9.799979180213244"><ele>591.0</ele><time>2026-04-26T09:12:26.999Z</time></trkpt><trkpt lat="44.35177732989223" lon="9.800117118242515"><ele>591.0</ele><time>2026-04-26T09:12:27.999Z</time></trkpt><trkpt lat="44.3517087088149" lon="9.80025517538345"><ele>591.0</ele><time>2026-04-26T09:12:28.999Z</time></trkpt><trkpt lat="44.35169294309771" lon="9.800441990324272"><ele>591.0</ele><time>2026-04-26T09:12:29.999Z</time></trkpt><trkpt lat="44.35171613020676" lon="9.800627753015625"><ele>587.75</ele><time>2026-04-26T09:12:30.999Z</time></trkpt><trkpt lat="44.351772951467" lon="9.800813117946133"><ele>584.5</ele><time>2026-04-26T09:12:31.999Z</time></trkpt><trkpt lat="44.35184015548894" lon="9.800996107927409"><ele>581.25</ele><time>2026-04-26T09:12:32.999Z</time></trkpt><trkpt lat="44.35194360323708" lon="9.801147920264379"><ele>578.0</ele><time>2026-04-26T09:12:33.999Z</time></trkpt><trkpt lat="44.35206699892977" lon="9.801252032314014"><ele>580.25</ele><time>2026-04-26T09:12:34.999Z</time></trkpt><trkpt lat="44.352210387191654" lon="9.801325449181933"><ele>582.5</ele><time>2026-04-26T09:12:35.999Z</time></trkpt><trkpt lat="44.3523521351624" lon="9.801412776137763"><ele>584.75</ele><time>2026-04-26T09:12:36.999Z</time></trkpt><trkpt lat="44.352468254975456" lon="9.801499843399188"><ele>587.0</ele><time>2026-04-26T09:12:37.999Z</time></trkpt><trkpt lat="44.35257088597988" lon="9.801594054471458"><ele>587.0</ele><time>2026-04-26T09:12:38.999Z</time></trkpt><trkpt lat="44.3526400097358" lon="9.80172798003752"><ele>587.0</ele><time>2026-04-26T09:12:39.999Z</time></trkpt><trkpt lat="44.35267082701645" lon="9.801897425644958"><ele>587.0</ele><time>2026-04-26T09:12:40.999Z</time></trkpt><trkpt lat="44.35266360348471" lon="9.80208392611251"><ele>587.0</ele><time>2026-04-26T09:12:41.999Z</time></trkpt><trkpt lat="44.35264398277622" lon="9.802269498048597"><ele>582.75</ele><time>2026-04-26T09:12:42.999Z</time></trkpt><trkpt lat="44.352642982000965" lon="9.802451361256832"><ele>578.5</ele><time>2026-04-26T09:12:43.999Z</time></trkpt><trkpt lat="44.35267565936647" lon="9.802614356046856"><ele>574.25</ele><time>2026-04-26T09:12:44.999Z</time></trkpt><trkpt lat="44.352731668308266" lon="9.802790413495899"><ele>570.0</ele><time>2026-04-26T09:12:45.999Z</time></trkpt><trkpt lat="44.35280787870604" lon="9.802942055098931"><ele>571.6</ele><time>2026-04-26T09:12:46.999Z</time></trkpt><trkpt lat="44.352860342633186" lon="9.803089207006098"><ele>573.2</ele><time>2026-04-26T09:12:47.999Z</time></trkpt><trkpt lat="44.35287348925256" lon="9.803228498229272"><ele>574.8</ele><time>2026-04-26T09:12:48.999Z</time></trkpt><trkpt lat="44.35289952846323" lon="9.803356300338164"><ele>576.4</ele><time>2026-04-26T09:12:49.999Z</time></trkpt><trkpt lat="44.35297851049071" lon="9.803437085209138"><ele>578.0</ele><time>2026-04-26T09:12:50.999Z</time></trkpt><trkpt lat="44.353085697300585" lon="9.803461486208867"><ele>578.0</ele><time>2026-04-26T09:12:52Z</time></trkpt><trkpt lat="44.353193956527186" lon="9.803398258730052"><ele>578.0</ele><time>2026-04-26T09:12:53Z</time></trkpt><trkpt lat="44.353282379942904" lon="9.803285587726203"><ele>578.0</ele><time>2026-04-26T09:12:54Z</time></trkpt><trkpt lat="44.35339174655656" lon="9.803185824985533"><ele>578.0</ele><time>2026-04-26T09:12:55Z</time></trkpt><trkpt lat="44.353463250443156" lon="9.803153046266306"><ele>578.0</ele><time>2026-04-26T09:12:56Z</time></trkpt><trkpt lat="44.35354565256536" lon="9.80315044143553"><ele>578.0</ele><time>2026-04-26T09:12:57Z</time></trkpt><trkpt lat="44.35366258989383" lon="9.803261757749302"><ele>578.0</ele><time>2026-04-26T09:12:58Z</time></trkpt><trkpt lat="44.353798576585895" lon="9.803387043384442"><ele>578.0</ele><time>2026-04-26T09:12:59Z</time></trkpt><trkpt lat="44.353938886032445" lon="9.803509840133602"><ele>569.6666666666666</ele><time>2026-04-26T09:13:00Z</time></trkpt><trkpt lat="44.35408348311048" lon="9.803663362094712"><ele>561.3333333333334</ele><time>2026-04-26T09:13:01Z</time></trkpt><trkpt lat="44.3542245306252" lon="9.803828836541921"><ele>553.0</ele><time>2026-04-26T09:13:02Z</time></trkpt><trkpt lat="44.354353887285164" lon="9.803968765201985"><ele>553.0</ele><time>2026-04-26T09:13:03Z</time></trkpt><trkpt lat="44.354499043548046" lon="9.80407755821976"><ele>553.0</ele><time>2026-04-26T09:13:04Z</time></trkpt><trkpt lat="44.354677274440355" lon="9.804151979165624"><ele>553.0</ele><time>2026-04-26T09:13:05Z</time></trkpt><trkpt lat="44.35483554643989" lon="9.804193153699332"><ele>550.5</ele><time>2026-04-26T09:13:06Z</time></trkpt><trkpt lat="44.35495717791249" lon="9.804265602856278"><ele>548.0</ele><time>2026-04-26T09:13:07Z</time></trkpt><trkpt lat="44.35504016929873" lon="9.804421172135282"><ele>545.5</ele><time>2026-04-26T09:13:08Z</time></trkpt><trkpt lat="44.35512524212012" lon="9.804568077412965"><ele>543.0</ele><time>2026-04-26T09:13:09Z</time></trkpt><trkpt lat="44.35519752496258" lon="9.804680767340342"><ele>543.0</ele><time>2026-04-26T09:13:10Z</time></trkpt><trkpt lat="44.355295225977265" lon="9.804777630862008"><ele>543.0</ele><time>2026-04-26T09:13:11Z</time></trkpt><trkpt lat="44.35543435579428" lon="9.804822580113537"><ele>543.0</ele><time>2026-04-26T09:13:12Z</time></trkpt><trkpt lat="44.355561415281066" lon="9.804833725831426"><ele>543.0</ele><time>2026-04-26T09:13:13Z</time></trkpt><trkpt lat="44.35565906394013" lon="9.804842580314517"><ele>545.5</ele><time>2026-04-26T09:13:14Z</time></trkpt><trkpt lat="44.355738447878224" lon="9.804801588398798"><ele>548.0</ele><time>2026-04-26T09:13:15Z</time></trkpt><trkpt lat="44.355800558574984" lon="9.80467850848936"><ele>550.5</ele><time>2026-04-26T09:13:16Z</time></trkpt><trkpt lat="44.355838156370844" lon="9.804498719926716"><ele>553.0</ele><time>2026-04-26T09:13:17Z</time></trkpt><trkpt lat="44.35590694603247" lon="9.80434272161607"><ele>558.5</ele><time>2026-04-26T09:13:18Z</time></trkpt><trkpt lat="44.355975185841665" lon="9.80419061021487"><ele>564.0</ele><time>2026-04-26T09:13:19Z</time></trkpt><trkpt lat="44.356069944345506" lon="9.804053223302285"><ele>569.5</ele><time>2026-04-26T09:13:20Z</time></trkpt><trkpt lat="44.35618258444884" lon="9.80392201663174"><ele>575.0</ele><time>2026-04-26T09:13:21Z</time></trkpt><trkpt lat="44.35630003968972" lon="9.803769437581506"><ele>575.3333333333333</ele><time>2026-04-26T09:13:22Z</time></trkpt><trkpt lat="44.356449901372635" lon="9.803661062845503"><ele>575.6666666666666</ele><time>2026-04-26T09:13:23Z</time></trkpt><trkpt lat="44.356595889297324" lon="9.803554675843872"><ele>576.0</ele><time>2026-04-26T09:13:24Z</time></trkpt><trkpt lat="44.3567218821887" lon="9.80347345188716"><ele>576.0</ele><time>2026-04-26T09:13:25Z</time></trkpt><trkpt lat="44.3568378861531" lon="9.803431713417737"><ele>576.0</ele><time>2026-04-26T09:13:26Z</time></trkpt><trkpt lat="44.356936254441486" lon="9.80340338785057"><ele>576.0</ele><time>2026-04-26T09:13:27Z</time></trkpt><trkpt lat="44.35702546141399" lon="9.803412246904834"><ele>576.0</ele><time>2026-04-26T09:13:28Z</time></trkpt><trkpt lat="44.35710634655584" lon="9.803540759646035"><ele>576.0</ele><time>2026-04-26T09:13:29Z</time></trkpt><trkpt lat="44.35720340433766" lon="9.803634885004223"><ele>574.5</ele><time>2026-04-26T09:13:30Z</time></trkpt><trkpt lat="44.35725461174769" lon="9.80376544151183"><ele>573.0</ele><time>2026-04-26T09:13:31Z</time></trkpt><trkpt lat="44.35722384431264" lon="9.803950079171104"><ele>571.5</ele><time>2026-04-26T09:13:32Z</time></trkpt><trkpt lat="44.35723674177222" lon="9.804106566724371"><ele>570.0</ele><time>2026-04-26T09:13:33Z</time></trkpt><trkpt lat="44.35725884887248" lon="9.804235703082783"><ele>566.5</ele><time>2026-04-26T09:13:34Z</time></trkpt><trkpt lat="44.3573252910706" lon="9.804335455383015"><ele>563.0</ele><time>2026-04-26T09:13:35Z</time></trkpt><trkpt lat="44.35744739266412" lon="9.804349440708252"><ele>559.5</ele><time>2026-04-26T09:13:36Z</time></trkpt><trkpt lat="44.35760305354213" lon="9.804379837110531"><ele>556.0</ele><time>2026-04-26T09:13:37Z</time></trkpt><trkpt lat="44.35773849568968" lon="9.80440106066023"><ele>556.0</ele><time>2026-04-26T09:13:38Z</time></trkpt><trkpt lat="44.357845096119476" lon="9.804477736800099"><ele>556.0</ele><time>2026-04-26T09:13:39Z</time></trkpt><trkpt lat="44.3579176578815" lon="9.804580066060346"><ele>556.0</ele><time>2026-04-26T09:13:40Z</time></trkpt><trkpt lat="44.357957754709126" lon="9.804710831506544"><ele>556.0</ele><time>2026-04-26T09:13:41Z</time></trkpt><trkpt lat="44.35794417107321" lon="9.804860391555792"><ele>556.0</ele><time>2026-04-26T09:13:42Z</time></trkpt><trkpt lat="44.3578787223145" lon="9.804995711420945"><ele>556.0</ele><time>2026-04-26T09:13:43Z</time></trkpt><trkpt lat="44.35776018865642" lon="9.80511084052607"><ele>556.0</ele><time>2026-04-26T09:13:44Z</time></trkpt><trkpt lat="44.35766932013832" lon="9.805272966129913"><ele>556.0</ele><time>2026-04-26T09:13:45Z</time></trkpt><trkpt lat="44.35761094031596" lon="9.805469094481714"><ele>556.0</ele><time>2026-04-26T09:13:46Z</time></trkpt><trkpt lat="44.35756574569159" lon="9.805663859347122"><ele>555.5</ele><time>2026-04-26T09:13:47Z</time></trkpt><trkpt lat="44.35750774043406" lon="9.805821448236232"><ele>555.0</ele><time>2026-04-26T09:13:48Z</time></trkpt><trkpt lat="44.3574523593572" lon="9.805986031345945"><ele>554.5</ele><time>2026-04-26T09:13:49Z</time></trkpt><trkpt lat="44.357410664929446" lon="9.806156049472557"><ele>554.0</ele><time>2026-04-26T09:13:50Z</time></trkpt><trkpt lat="44.35741256006149" lon="9.806331111896617"><ele>553.5</ele><time>2026-04-26T09:13:51Z</time></trkpt><trkpt lat="44.35744232570814" lon="9.806477797160781"><ele>553.0</ele><time>2026-04-26T09:13:52Z</time></trkpt><trkpt lat="44.357526153180544" lon="9.806599916236959"><ele>552.5</ele><time>2026-04-26T09:13:53Z</time></trkpt><trkpt lat="44.35760613395368" lon="9.806749353683776"><ele>552.0</ele><time>2026-04-26T09:13:54Z</time></trkpt><trkpt lat="44.357628544803624" lon="9.806901743112498"><ele>546.0</ele><time>2026-04-26T09:13:55Z</time></trkpt><trkpt lat="44.3576713196512" lon="9.807054467615519"><ele>540.0</ele><time>2026-04-26T09:13:56Z</time></trkpt><trkpt lat="44.35771876047339" lon="9.807187886300635"><ele>534.0</ele><time>2026-04-26T09:13:57Z</time></trkpt><trkpt lat="44.35782932523386" lon="9.807273182139216"><ele>528.0</ele><time>2026-04-26T09:13:58Z</time></trkpt><trkpt lat="44.357964679498366" lon="9.807345390713087"><ele>536.5</ele><time>2026-04-26T09:13:59Z</time></trkpt><trkpt lat="44.35803955845295" lon="9.807496024571691"><ele>545.0</ele><time>2026-04-26T09:14:00Z</time></trkpt><trkpt lat="44.35809181140309" lon="9.807662609131222"><ele>553.5</ele><time>2026-04-26T09:14:01Z</time></trkpt><trkpt lat="44.358141876881184" lon="9.807847176030313"><ele>562.0</ele><time>2026-04-26T09:14:02Z</time></trkpt><trkpt lat="44.35819752228064" lon="9.807995118426943"><ele>562.0</ele><time>2026-04-26T09:14:03Z</time></trkpt><trkpt lat="44.35829850028633" lon="9.808099543062626"><ele>562.0</ele><time>2026-04-26T09:14:04Z</time></trkpt><trkpt lat="44.35838687762682" lon="9.808177701851177"><ele>562.0</ele><time>2026-04-26T09:14:05Z</time></trkpt><trkpt lat="44.35844222833734" lon="9.808305644318592"><ele>562.0</ele><time>2026-04-26T09:14:06Z</time></trkpt><trkpt lat="44.358441527187345" lon="9.8084466914305"><ele>562.0</ele><time>2026-04-26T09:14:07Z</time></trkpt><trkpt lat="44.35837945624227" lon="9.808581989884548"><ele>559.75</ele><time>2026-04-26T09:14:08Z</time></trkpt><trkpt lat="44.35831105382226" lon="9.808726829100362"><ele>557.5</ele><time>2026-04-26T09:14:09Z</time></trkpt><trkpt lat="44.35824681674417" lon="9.808872900940907"><ele>555.25</ele><time>2026-04-26T09:14:10Z</time></trkpt><trkpt lat="44.358201956669895" lon="9.80901582689449"><ele>553.0</ele><time>2026-04-26T09:14:11Z</time></trkpt><trkpt lat="44.35819160314094" lon="9.809169744724619"><ele>553.0</ele><time>2026-04-26T09:14:12Z</time></trkpt><trkpt lat="44.35824289297328" lon="9.809303182210371"><ele>553.0</ele><time>2026-04-26T09:14:13Z</time></trkpt><trkpt lat="44.35833220062174" lon="9.809399376206384"><ele>553.0</ele><time>2026-04-26T09:14:14Z</time></trkpt><trkpt lat="44.35847241430075" lon="9.80945129987287"><ele>553.0</ele><time>2026-04-26T09:14:15Z</time></trkpt><trkpt lat="44.358594895106116" lon="9.809544065814766"><ele>550.4</ele><time>2026-04-26T09:14:16Z</time></trkpt><trkpt lat="44.3587249989345" lon="9.809648613677838"><ele>547.8</ele><time>2026-04-26T09:14:17Z</time></trkpt><trkpt lat="44.358813432288784" lon="9.809717613087422"><ele>545.2</ele><time>2026-04-26T09:14:18Z</time></trkpt><trkpt lat="44.35888109052766" lon="9.809769691934232"><ele>542.6</ele><time>2026-04-26T09:14:19Z</time></trkpt><trkpt lat="44.35891866049045" lon="9.809873905146084"><ele>540.0</ele><time>2026-04-26T09:14:20Z</time></trkpt><trkpt lat="44.35890418284443" lon="9.810011491627973"><ele>540.0</ele><time>2026-04-26T09:14:21Z</time></trkpt><trkpt lat="44.35882745638643" lon="9.810123307482263"><ele>540.0</ele><time>2026-04-26T09:14:22Z</time></trkpt><trkpt lat="44.35875382733718" lon="9.8102621544111"><ele>540.0</ele><time>2026-04-26T09:14:23Z</time></trkpt><trkpt lat="44.358646585718745" lon="9.810387537709135"><ele>540.0</ele><time>2026-04-26T09:14:24Z</time></trkpt><trkpt lat="44.35857736543695" lon="9.81052169859249"><ele>539.0</ele><time>2026-04-26T09:14:25Z</time></trkpt><trkpt lat="44.3585212944679" lon="9.81065031658068"><ele>538.0</ele><time>2026-04-26T09:14:26Z</time></trkpt><trkpt lat="44.358496307737965" lon="9.81079187372517"><ele>537.0</ele><time>2026-04-26T09:14:27Z</time></trkpt><trkpt lat="44.358505925365336" lon="9.810963871998474"><ele>536.0</ele><time>2026-04-26T09:14:28Z</time></trkpt><trkpt lat="44.35855504806673" lon="9.811120767845138"><ele>532.3333333333333</ele><time>2026-04-26T09:14:29Z</time></trkpt><trkpt lat="44.35865089221553" lon="9.811277191893979"><ele>528.6666666666666</ele><time>2026-04-26T09:14:30Z</time></trkpt><trkpt lat="44.3587438981195" lon="9.81144347095602"><ele>525.0</ele><time>2026-04-26T09:14:31Z</time></trkpt><trkpt lat="44.35879299139861" lon="9.811673922694832"><ele>523.3333333333334</ele><time>2026-04-26T09:14:32Z</time></trkpt><trkpt lat="44.358862457503925" lon="9.811928691969245"><ele>521.6666666666667</ele><time>2026-04-26T09:14:33Z</time></trkpt><trkpt lat="44.35891650741127" lon="9.812162816616691"><ele>520.0</ele><time>2026-04-26T09:14:34Z</time></trkpt><trkpt lat="44.35895879845059" lon="9.812365742388367"><ele>523.0</ele><time>2026-04-26T09:14:35Z</time></trkpt><trkpt lat="44.358979360233334" lon="9.812571554581599"><ele>526.0</ele><time>2026-04-26T09:14:36Z</time></trkpt><trkpt lat="44.35893906719817" lon="9.812738642392775"><ele>529.0</ele><time>2026-04-26T09:14:37Z</time></trkpt><trkpt lat="44.35888525534711" lon="9.81290069342852"><ele>532.0</ele><time>2026-04-26T09:14:38Z</time></trkpt><trkpt lat="44.35882722933254" lon="9.813072838671324"><ele>532.0</ele><time>2026-04-26T09:14:39Z</time></trkpt><trkpt lat="44.35875526132637" lon="9.813236531566723"><ele>532.0</ele><time>2026-04-26T09:14:40Z</time></trkpt><trkpt lat="44.35870490882534" lon="9.813376105019197"><ele>532.0</ele><time>2026-04-26T09:14:41Z</time></trkpt><trkpt lat="44.35866192931727" lon="9.813502623243926"><ele>532.0</ele><time>2026-04-26T09:14:42Z</time></trkpt><trkpt lat="44.35863054838944" lon="9.81361465723444"><ele>532.0</ele><time>2026-04-26T09:14:43Z</time></trkpt><trkpt lat="44.35865904340366" lon="9.8137656428992"><ele>528.0</ele><time>2026-04-26T09:14:44Z</time></trkpt><trkpt lat="44.358745668868934" lon="9.813903361057767"><ele>524.0</ele><time>2026-04-26T09:14:45Z</time></trkpt><trkpt lat="44.35885229169475" lon="9.814053529301523"><ele>520.0</ele><time>2026-04-26T09:14:46Z</time></trkpt><trkpt lat="44.35895969756484" lon="9.814202274526082"><ele>516.0</ele><time>2026-04-26T09:14:47Z</time></trkpt><trkpt lat="44.35904571132554" lon="9.814347592406497"><ele>516.0</ele><time>2026-04-26T09:14:48Z</time></trkpt><trkpt lat="44.35914481971424" lon="9.81444903955453"><ele>516.0</ele><time>2026-04-26T09:14:49Z</time></trkpt><trkpt lat="44.359262389689746" lon="9.814514065870291"><ele>516.0</ele><time>2026-04-26T09:14:50Z</time></trkpt><trkpt lat="44.35939961446573" lon="9.814549009461889"><ele>516.0</ele><time>2026-04-26T09:14:51Z</time></trkpt><trkpt lat="44.35953725559223" lon="9.814582722709334"><ele>516.0</ele><time>2026-04-26T09:14:52Z</time></trkpt><trkpt lat="44.35967799731101" lon="9.81461095677983"><ele>516.0</ele><time>2026-04-26T09:14:53Z</time></trkpt><trkpt lat="44.35981456541264" lon="9.814611929834625"><ele>516.0</ele><time>2026-04-26T09:14:54Z</time></trkpt><trkpt lat="44.359944397373745" lon="9.81459167776336"><ele>516.0</ele><time>2026-04-26T09:14:55Z</time></trkpt><trkpt lat="44.360062917745225" lon="9.814608443513075"><ele>525.0</ele><time>2026-04-26T09:14:56Z</time></trkpt><trkpt lat="44.36017133679321" lon="9.81464569034856"><ele>534.0</ele><time>2026-04-26T09:14:57Z</time></trkpt><trkpt lat="44.36024888588894" lon="9.814741698496526"><ele>543.0</ele><time>2026-04-26T09:14:58Z</time></trkpt><trkpt lat="44.36031603863798" lon="9.814884268534245"><ele>552.0</ele><time>2026-04-26T09:14:59Z</time></trkpt><trkpt lat="44.360341324818755" lon="9.8150624919712"><ele>548.75</ele><time>2026-04-26T09:15:00Z</time></trkpt><trkpt lat="44.360381053658664" lon="9.815195093811965"><ele>545.5</ele><time>2026-04-26T09:15:01Z</time></trkpt><trkpt lat="44.36045138155603" lon="9.815291299607397"><ele>542.25</ele><time>2026-04-26T09:15:02Z</time></trkpt><trkpt lat="44.36057293131535" lon="9.81534717515395"><ele>539.0</ele><time>2026-04-26T09:15:03Z</time></trkpt><trkpt lat="44.36071402938972" lon="9.815396982215427"><ele>539.0</ele><time>2026-04-26T09:15:04Z</time></trkpt><trkpt lat="44.36083661703247" lon="9.81548778344045"><ele>539.0</ele><time>2026-04-26T09:15:05Z</time></trkpt><trkpt lat="44.36096414815651" lon="9.815589493935427"><ele>539.0</ele><time>2026-04-26T09:15:06Z</time></trkpt><trkpt lat="44.36109109485631" lon="9.815724477742732"><ele>539.0</ele><time>2026-04-26T09:15:07Z</time></trkpt><trkpt lat="44.361210354410154" lon="9.815846197671986"><ele>539.0</ele><time>2026-04-26T09:15:08Z</time></trkpt><trkpt lat="44.361321804483495" lon="9.815960005144051"><ele>539.0</ele><time>2026-04-26T09:15:09Z</time></trkpt><trkpt lat="44.361424826791726" lon="9.81606499070952"><ele>539.0</ele><time>2026-04-26T09:15:10Z</time></trkpt><trkpt lat="44.36152184325026" lon="9.816148874951434"><ele>539.0</ele><time>2026-04-26T09:15:11Z</time></trkpt><trkpt lat="44.361638000310236" lon="9.816140929424549"><ele>534.25</ele><time>2026-04-26T09:15:12Z</time></trkpt><trkpt lat="44.361756771155264" lon="9.816085418967853"><ele>529.5</ele><time>2026-04-26T09:15:13Z</time></trkpt><trkpt lat="44.361886698979376" lon="9.816012255882935"><ele>524.75</ele><time>2026-04-26T09:15:14Z</time></trkpt><trkpt lat="44.362002345408435" lon="9.815896729960636"><ele>520.0</ele><time>2026-04-26T09:15:15Z</time></trkpt><trkpt lat="44.362100230730974" lon="9.815729687292633"><ele>522.5</ele><time>2026-04-26T09:15:16Z</time></trkpt><trkpt lat="44.36216401330306" lon="9.815535251317256"><ele>525.0</ele><time>2026-04-26T09:15:17Z</time></trkpt><trkpt lat="44.36222120133713" lon="9.815346748741607"><ele>527.5</ele><time>2026-04-26T09:15:18Z</time></trkpt><trkpt lat="44.3623028774139" lon="9.815218614389531"><ele>530.0</ele><time>2026-04-26T09:15:19Z</time></trkpt><trkpt lat="44.3623901567989" lon="9.815093631358696"><ele>538.0</ele><time>2026-04-26T09:15:20Z</time></trkpt><trkpt lat="44.36250186447547" lon="9.814980513490886"><ele>546.0</ele><time>2026-04-26T09:15:21Z</time></trkpt><trkpt lat="44.362621668389586" lon="9.814851601971695"><ele>554.0</ele><time>2026-04-26T09:15:22Z</time></trkpt><trkpt lat="44.36275693349198" lon="9.814740101419403"><ele>562.0</ele><time>2026-04-26T09:15:23Z</time></trkpt><trkpt lat="44.36289681740426" lon="9.814615573913704"><ele>564.0</ele><time>2026-04-26T09:15:24Z</time></trkpt><trkpt lat="44.36303928785338" lon="9.81449494842864"><ele>566.0</ele><time>2026-04-26T09:15:25Z</time></trkpt><trkpt lat="44.363172520734956" lon="9.814381070396157"><ele>568.0</ele><time>2026-04-26T09:15:26Z</time></trkpt><trkpt lat="44.363295991500756" lon="9.81427916630245"><ele>568.0</ele><time>2026-04-26T09:15:27Z</time></trkpt><trkpt lat="44.36342546760867" lon="9.814188540409964"><ele>568.0</ele><time>2026-04-26T09:15:28Z</time></trkpt><trkpt lat="44.363572784438254" lon="9.814130979522519"><ele>568.0</ele><time>2026-04-26T09:15:29Z</time></trkpt><trkpt lat="44.36372214474044" lon="9.814085283291938"><ele>568.0</ele><time>2026-04-26T09:15:30Z</time></trkpt><trkpt lat="44.36384272851339" lon="9.814040780028053"><ele>568.0</ele><time>2026-04-26T09:15:31Z</time></trkpt><trkpt lat="44.363960064076025" lon="9.813980372549846"><ele>568.0</ele><time>2026-04-26T09:15:32Z</time></trkpt><trkpt lat="44.36406942703184" lon="9.81389780870951"><ele>568.0</ele><time>2026-04-26T09:15:33Z</time></trkpt><trkpt lat="44.36417264134617" lon="9.813778321086804"><ele>569.5</ele><time>2026-04-26T09:15:34Z</time></trkpt><trkpt lat="44.3642501568608" lon="9.813601093212212"><ele>571.0</ele><time>2026-04-26T09:15:35Z</time></trkpt><trkpt lat="44.364310800283995" lon="9.813417014438569"><ele>572.5</ele><time>2026-04-26T09:15:36Z</time></trkpt><trkpt lat="44.364348057498766" lon="9.81323304617269"><ele>574.0</ele><time>2026-04-26T09:15:37Z</time></trkpt><trkpt lat="44.36440213703322" lon="9.813064507198725"><ele>574.0</ele><time>2026-04-26T09:15:38Z</time></trkpt><trkpt lat="44.364502736479146" lon="9.81291463334714"><ele>574.0</ele><time>2026-04-26T09:15:39Z</time></trkpt><trkpt lat="44.36461463224214" lon="9.812780742373214"><ele>574.0</ele><time>2026-04-26T09:15:40Z</time></trkpt><trkpt lat="44.364701859215145" lon="9.81264600836424"><ele>574.0</ele><time>2026-04-26T09:15:41Z</time></trkpt><trkpt lat="44.364768415927436" lon="9.812544803897422"><ele>571.0</ele><time>2026-04-26T09:15:42Z</time></trkpt><trkpt lat="44.36484120448259" lon="9.812500500399132"><ele>568.0</ele><time>2026-04-26T09:15:43Z</time></trkpt><trkpt lat="44.36492781756566" lon="9.812507243692455"><ele>565.0</ele><time>2026-04-26T09:15:44Z</time></trkpt><trkpt lat="44.3650061547432" lon="9.812631211478307"><ele>562.0</ele><time>2026-04-26T09:15:45Z</time></trkpt><trkpt lat="44.36509738150849" lon="9.812705234994459"><ele>559.0</ele><time>2026-04-26T09:15:46Z</time></trkpt><trkpt lat="44.36516068710795" lon="9.812781909236577"><ele>557.0</ele><time>2026-04-26T09:15:47Z</time></trkpt><trkpt lat="44.365178086185345" lon="9.812889851244636"><ele>555.0</ele><time>2026-04-26T09:15:48Z</time></trkpt><trkpt lat="44.365116134777445" lon="9.813003900701847"><ele>553.0</ele><time>2026-04-26T09:15:49Z</time></trkpt><trkpt lat="44.365068742514886" lon="9.8131805134719"><ele>551.0</ele><time>2026-04-26T09:15:50Z</time></trkpt><trkpt lat="44.36501800170569" lon="9.81336633465246"><ele>552.75</ele><time>2026-04-26T09:15:51Z</time></trkpt><trkpt lat="44.36497943505312" lon="9.813551153947095"><ele>554.5</ele><time>2026-04-26T09:15:52Z</time></trkpt><trkpt lat="44.36493165250241" lon="9.813728087353594"><ele>556.25</ele><time>2026-04-26T09:15:53.001Z</time></trkpt><trkpt lat="44.36488890477401" lon="9.813903373919544"><ele>558.0</ele><time>2026-04-26T09:15:54.001Z</time></trkpt><trkpt lat="44.36484339724565" lon="9.814077515450233"><ele>558.0</ele><time>2026-04-26T09:15:55.001Z</time></trkpt><trkpt lat="44.36481842839575" lon="9.814253667218935"><ele>558.0</ele><time>2026-04-26T09:15:56.001Z</time></trkpt><trkpt lat="44.36481686361162" lon="9.81443773106061"><ele>558.0</ele><time>2026-04-26T09:15:57.001Z</time></trkpt><trkpt lat="44.36483927317266" lon="9.81462191425458"><ele>558.0</ele><time>2026-04-26T09:15:58.001Z</time></trkpt><trkpt lat="44.3648492836404" lon="9.81482369837025"><ele>558.0</ele><time>2026-04-26T09:15:59.001Z</time></trkpt><trkpt lat="44.364888740941275" lon="9.814998626600289"><ele>558.0</ele><time>2026-04-26T09:16:00.001Z</time></trkpt><trkpt lat="44.364931844929096" lon="9.815177888981468"><ele>558.0</ele><time>2026-04-26T09:16:01.001Z</time></trkpt><trkpt lat="44.36495373261013" lon="9.815369086252513"><ele>558.0</ele><time>2026-04-26T09:16:02.001Z</time></trkpt><trkpt lat="44.36494836500218" lon="9.815561158724952"><ele>558.0</ele><time>2026-04-26T09:16:03.001Z</time></trkpt><trkpt lat="44.36491367859934" lon="9.81574399064519"><ele>558.0</ele><time>2026-04-26T09:16:04.001Z</time></trkpt><trkpt lat="44.36486534235154" lon="9.81593441904377"><ele>558.0</ele><time>2026-04-26T09:16:05.001Z</time></trkpt><trkpt lat="44.36478343044997" lon="9.816103432852282"><ele>558.0</ele><time>2026-04-26T09:16:06.001Z</time></trkpt><trkpt lat="44.364696476212416" lon="9.81626032537408"><ele>560.75</ele><time>2026-04-26T09:16:07.001Z</time></trkpt><trkpt lat="44.36464113913695" lon="9.81642731710212"><ele>563.5</ele><time>2026-04-26T09:16:08.001Z</time></trkpt><trkpt lat="44.364636902461015" lon="9.816617987753965"><ele>566.25</ele><time>2026-04-26T09:16:09.001Z</time></trkpt><trkpt lat="44.36468071043483" lon="9.816801011818667"><ele>569.0</ele><time>2026-04-26T09:16:10.001Z</time></trkpt><trkpt lat="44.36471248439189" lon="9.816984288111815"><ele>569.0</ele><time>2026-04-26T09:16:11.001Z</time></trkpt><trkpt lat="44.36472737344437" lon="9.81717989507034"><ele>569.0</ele><time>2026-04-26T09:16:12.001Z</time></trkpt><trkpt lat="44.36473690969051" lon="9.817388453575642"><ele>569.0</ele><time>2026-04-26T09:16:13.001Z</time></trkpt><trkpt lat="44.36473956304211" lon="9.817591784769675"><ele>569.0</ele><time>2026-04-26T09:16:14.001Z</time></trkpt><trkpt lat="44.36474235299027" lon="9.817788981308816"><ele>567.75</ele><time>2026-04-26T09:16:15.001Z</time></trkpt><trkpt lat="44.3647655179022" lon="9.817994932650484"><ele>566.5</ele><time>2026-04-26T09:16:16.001Z</time></trkpt><trkpt lat="44.364813690371165" lon="9.8181724062095"><ele>565.25</ele><time>2026-04-26T09:16:17.001Z</time></trkpt><trkpt lat="44.36487556414512" lon="9.818317825758095"><ele>564.0</ele><time>2026-04-26T09:16:18.001Z</time></trkpt><trkpt lat="44.3649148470105" lon="9.818482432521025"><ele>561.75</ele><time>2026-04-26T09:16:19.001Z</time></trkpt><trkpt lat="44.36492147845143" lon="9.818668689246035"><ele>559.5</ele><time>2026-04-26T09:16:20.001Z</time></trkpt><trkpt lat="44.364922737388774" lon="9.81886446962703"><ele>557.25</ele><time>2026-04-26T09:16:21.001Z</time></trkpt><trkpt lat="44.364940763706876" lon="9.81904397115628"><ele>555.0</ele><time>2026-04-26T09:16:22.001Z</time></trkpt><trkpt lat="44.36496298522561" lon="9.819213449912038"><ele>553.4</ele><time>2026-04-26T09:16:23.001Z</time></trkpt><trkpt lat="44.36497720243669" lon="9.819378684891833"><ele>551.8</ele><time>2026-04-26T09:16:24.001Z</time></trkpt><trkpt lat="44.36495303619301" lon="9.819531673757822"><ele>550.2</ele><time>2026-04-26T09:16:25.001Z</time></trkpt><trkpt lat="44.3649086136541" lon="9.819668183105842"><ele>548.6</ele><time>2026-04-26T09:16:26.001Z</time></trkpt><trkpt lat="44.364877211663185" lon="9.81979583610411"><ele>547.0</ele><time>2026-04-26T09:16:27.001Z</time></trkpt><trkpt lat="44.3648793467684" lon="9.819923358704992"><ele>547.0</ele><time>2026-04-26T09:16:28.001Z</time></trkpt><trkpt lat="44.36492072788995" lon="9.820044880007096"><ele>547.0</ele><time>2026-04-26T09:16:29.001Z</time></trkpt><trkpt lat="44.36500269026262" lon="9.820127635375853"><ele>547.0</ele><time>2026-04-26T09:16:30.001Z</time></trkpt><trkpt lat="44.36511349024468" lon="9.820158606807174"><ele>547.0</ele><time>2026-04-26T09:16:31.001Z</time></trkpt><trkpt lat="44.3652373370892" lon="9.820134057912918"><ele>547.0</ele><time>2026-04-26T09:16:32.001Z</time></trkpt><trkpt lat="44.36534776198743" lon="9.820127845890541"><ele>547.0</ele><time>2026-04-26T09:16:33.001Z</time></trkpt><trkpt lat="44.36545503718512" lon="9.820109842172903"><ele>547.0</ele><time>2026-04-26T09:16:34.001Z</time></trkpt><trkpt lat="44.36556671539329" lon="9.820168846498955"><ele>547.0</ele><time>2026-04-26T09:16:35.001Z</time></trkpt><trkpt lat="44.365665135593694" lon="9.820231818039044"><ele>547.0</ele><time>2026-04-26T09:16:36.001Z</time></trkpt><trkpt lat="44.36576886915151" lon="9.820270050301382"><ele>547.0</ele><time>2026-04-26T09:16:37.001Z</time></trkpt><trkpt lat="44.36580633858811" lon="9.82065448707349"><ele>546.0</ele><time>2026-04-26T09:16:38.001Z</time></trkpt><trkpt lat="44.365874630357126" lon="9.820808331635993"><ele>545.0</ele><time>2026-04-26T09:16:39.001Z</time></trkpt><trkpt lat="44.36596063836485" lon="9.820940097000955"><ele>544.0</ele><time>2026-04-26T09:16:40.001Z</time></trkpt><trkpt lat="44.36606725839225" lon="9.821045084043142"><ele>543.0</ele><time>2026-04-26T09:16:41.001Z</time></trkpt><trkpt lat="44.36620385153799" lon="9.821103959289125"><ele>539.3333333333334</ele><time>2026-04-26T09:16:42.001Z</time></trkpt><trkpt lat="44.36635930298034" lon="9.8211099647143"><ele>535.6666666666667</ele><time>2026-04-26T09:16:43.001Z</time></trkpt><trkpt lat="44.366507364554685" lon="9.821144284662351"><ele>532.0</ele><time>2026-04-26T09:16:44.001Z</time></trkpt><trkpt lat="44.36665439225499" lon="9.82121804164168"><ele>532.0</ele><time>2026-04-26T09:16:45.001Z</time></trkpt><trkpt lat="44.36679134296165" lon="9.821310345589081"><ele>532.0</ele><time>2026-04-26T09:16:46.001Z</time></trkpt><trkpt lat="44.36689799864956" lon="9.821405693580623"><ele>532.0</ele><time>2026-04-26T09:16:47.001Z</time></trkpt><trkpt lat="44.36699606336165" lon="9.821488703773978"><ele>532.0</ele><time>2026-04-26T09:16:48.001Z</time></trkpt><trkpt lat="44.3671077078175" lon="9.821524647174787"><ele>534.75</ele><time>2026-04-26T09:16:49.001Z</time></trkpt><trkpt lat="44.36723758144094" lon="9.821509065799495"><ele>537.5</ele><time>2026-04-26T09:16:50.001Z</time></trkpt><trkpt lat="44.36737081423346" lon="9.82144127102223"><ele>540.25</ele><time>2026-04-26T09:16:51.001Z</time></trkpt><trkpt lat="44.36749729854513" lon="9.821375583490862"><ele>543.0</ele><time>2026-04-26T09:16:52.001Z</time></trkpt><trkpt lat="44.36759475200762" lon="9.821332058011828"><ele>543.0</ele><time>2026-04-26T09:16:53.001Z</time></trkpt><trkpt lat="44.36767724352193" lon="9.821337099451197"><ele>543.0</ele><time>2026-04-26T09:16:54.001Z</time></trkpt><trkpt lat="44.367753858718324" lon="9.821423804243521"><ele>543.0</ele><time>2026-04-26T09:16:55.001Z</time></trkpt><trkpt lat="44.36780304062121" lon="9.821557721009773"><ele>543.0</ele><time>2026-04-26T09:16:56.001Z</time></trkpt><trkpt lat="44.367801989121006" lon="9.8217134132564"><ele>543.0</ele><time>2026-04-26T09:16:57.001Z</time></trkpt><trkpt lat="44.36774940063986" lon="9.821865595038174"><ele>543.0</ele><time>2026-04-26T09:16:58.001Z</time></trkpt><trkpt lat="44.367658484401844" lon="9.822009170681145"><ele>543.0</ele><time>2026-04-26T09:16:59.001Z</time></trkpt><trkpt lat="44.367586415101336" lon="9.822168501462796"><ele>543.0</ele><time>2026-04-26T09:17:00.001Z</time></trkpt><trkpt lat="44.367571057153796" lon="9.82233627002792"><ele>543.0</ele><time>2026-04-26T09:17:01.001Z</time></trkpt><trkpt lat="44.367551761615374" lon="9.822463762820393"><ele>543.0</ele><time>2026-04-26T09:17:02.001Z</time></trkpt><trkpt lat="44.36749312741539" lon="9.822560147348597"><ele>543.0</ele><time>2026-04-26T09:17:03.001Z</time></trkpt><trkpt lat="44.36739336000277" lon="9.822614935698015"><ele>543.0</ele><time>2026-04-26T09:17:04.001Z</time></trkpt><trkpt lat="44.367263210407756" lon="9.82262877013099"><ele>543.0</ele><time>2026-04-26T09:17:05.001Z</time></trkpt><trkpt lat="44.367128957124315" lon="9.822697219182185"><ele>539.0</ele><time>2026-04-26T09:17:06.001Z</time></trkpt><trkpt lat="44.367009194589954" lon="9.822812797223616"><ele>535.0</ele><time>2026-04-26T09:17:07.001Z</time></trkpt><trkpt lat="44.36690040525234" lon="9.822950058089464"><ele>531.0</ele><time>2026-04-26T09:17:08.001Z</time></trkpt><trkpt lat="44.366802168072994" lon="9.82307253833266"><ele>527.0</ele><time>2026-04-26T09:17:09.001Z</time></trkpt><trkpt lat="44.366716688938546" lon="9.823209993370275"><ele>527.0</ele><time>2026-04-26T09:17:10.001Z</time></trkpt><trkpt lat="44.3666617101311" lon="9.823387237437231"><ele>527.0</ele><time>2026-04-26T09:17:11.001Z</time></trkpt><trkpt lat="44.36663022381559" lon="9.823584985438007"><ele>527.0</ele><time>2026-04-26T09:17:12.001Z</time></trkpt><trkpt lat="44.36661068336944" lon="9.823790279145516"><ele>527.0</ele><time>2026-04-26T09:17:13.001Z</time></trkpt><trkpt lat="44.36661510397697" lon="9.824012920698813"><ele>526.3333333333333</ele><time>2026-04-26T09:17:14.001Z</time></trkpt><trkpt lat="44.36663676200604" lon="9.82425446335231"><ele>525.6666666666666</ele><time>2026-04-26T09:17:15.001Z</time></trkpt><trkpt lat="44.366655997301294" lon="9.82448368286514"><ele>525.0</ele><time>2026-04-26T09:17:16.001Z</time></trkpt><trkpt lat="44.36666312737728" lon="9.824690950950584"><ele>525.0</ele><time>2026-04-26T09:17:17.001Z</time></trkpt><trkpt lat="44.36667400663563" lon="9.82489584096147"><ele>525.0</ele><time>2026-04-26T09:17:18.001Z</time></trkpt><trkpt lat="44.36671512933626" lon="9.825080060764712"><ele>525.0</ele><time>2026-04-26T09:17:19.001Z</time></trkpt><trkpt lat="44.366795241275945" lon="9.825242651475367"><ele>525.0</ele><time>2026-04-26T09:17:20.001Z</time></trkpt><trkpt lat="44.36689637629698" lon="9.825368833757619"><ele>519.25</ele><time>2026-04-26T09:17:21.001Z</time></trkpt><trkpt lat="44.36700252819817" lon="9.825475336881345"><ele>513.5</ele><time>2026-04-26T09:17:22.001Z</time></trkpt><trkpt lat="44.36707296992579" lon="9.825602561076712"><ele>507.75</ele><time>2026-04-26T09:17:23.001Z</time></trkpt><trkpt lat="44.36710031844026" lon="9.825768016579955"><ele>502.0</ele><time>2026-04-26T09:17:24.001Z</time></trkpt><trkpt lat="44.36708185538281" lon="9.825978388282993"><ele>499.0</ele><time>2026-04-26T09:17:25.001Z</time></trkpt><trkpt lat="44.36709965835412" lon="9.826179966202954"><ele>496.0</ele><time>2026-04-26T09:17:26.001Z</time></trkpt><trkpt lat="44.36709562211663" lon="9.826363838225781"><ele>493.0</ele><time>2026-04-26T09:17:27.001Z</time></trkpt><trkpt lat="44.367028083968606" lon="9.82651094985728"><ele>490.0</ele><time>2026-04-26T09:17:28.001Z</time></trkpt><trkpt lat="44.36699914981467" lon="9.82665706885862"><ele>490.0</ele><time>2026-04-26T09:17:29.001Z</time></trkpt><trkpt lat="44.36698070198372" lon="9.826779030403038"><ele>490.0</ele><time>2026-04-26T09:17:30.001Z</time></trkpt><trkpt lat="44.36702159725523" lon="9.826907761760355"><ele>490.0</ele><time>2026-04-26T09:17:31.001Z</time></trkpt><trkpt lat="44.36711209340761" lon="9.827025109767188"><ele>490.0</ele><time>2026-04-26T09:17:32.001Z</time></trkpt><trkpt lat="44.36723550745929" lon="9.827116119255967"><ele>497.75</ele><time>2026-04-26T09:17:33.001Z</time></trkpt><trkpt lat="44.367364997535574" lon="9.827199458616773"><ele>505.5</ele><time>2026-04-26T09:17:34.001Z</time></trkpt><trkpt lat="44.36749349253818" lon="9.827283404911098"><ele>513.25</ele><time>2026-04-26T09:17:35.001Z</time></trkpt><trkpt lat="44.36762133242123" lon="9.827380516265283"><ele>521.0</ele><time>2026-04-26T09:17:36.001Z</time></trkpt><trkpt lat="44.36773986512455" lon="9.827494819429548"><ele>518.5</ele><time>2026-04-26T09:17:37.001Z</time></trkpt><trkpt lat="44.36783164263044" lon="9.827646779654934"><ele>516.0</ele><time>2026-04-26T09:17:38.001Z</time></trkpt><trkpt lat="44.36793518981538" lon="9.827788621084595"><ele>513.5</ele><time>2026-04-26T09:17:39.001Z</time></trkpt><trkpt lat="44.36801088668121" lon="9.827943403083447"><ele>511.0</ele><time>2026-04-26T09:17:40.001Z</time></trkpt><trkpt lat="44.36809120524494" lon="9.8280801432392"><ele>511.0</ele><time>2026-04-26T09:17:41.001Z</time></trkpt><trkpt lat="44.36819038606418" lon="9.828182796944805"><ele>511.0</ele><time>2026-04-26T09:17:42.001Z</time></trkpt><trkpt lat="44.36830109344288" lon="9.82825765424812"><ele>511.0</ele><time>2026-04-26T09:17:43.001Z</time></trkpt><trkpt lat="44.368434233258384" lon="9.828298755330575"><ele>511.0</ele><time>2026-04-26T09:17:44.001Z</time></trkpt><trkpt lat="44.36855977546264" lon="9.828309624052817"><ele>511.0</ele><time>2026-04-26T09:17:45.001Z</time></trkpt><trkpt lat="44.36866908912065" lon="9.828353215567441"><ele>511.0</ele><time>2026-04-26T09:17:46.001Z</time></trkpt><trkpt lat="44.36877920515603" lon="9.828389646991837"><ele>511.0</ele><time>2026-04-26T09:17:47.001Z</time></trkpt><trkpt lat="44.368852829147066" lon="9.828525231753362"><ele>511.0</ele><time>2026-04-26T09:17:48.001Z</time></trkpt><trkpt lat="44.368937324180095" lon="9.828662485569065"><ele>512.2</ele><time>2026-04-26T09:17:49.001Z</time></trkpt><trkpt lat="44.36894985869609" lon="9.828838693953452"><ele>513.4000000000001</ele><time>2026-04-26T09:17:50.001Z</time></trkpt><trkpt lat="44.36896805257671" lon="9.829000283958695"><ele>514.6</ele><time>2026-04-26T09:17:51.001Z</time></trkpt><trkpt lat="44.36898992208683" lon="9.829138484810345"><ele>515.8000000000001</ele><time>2026-04-26T09:17:52.001Z</time></trkpt><trkpt lat="44.369059959072736" lon="9.829221794812614"><ele>517.0</ele><time>2026-04-26T09:17:53.001Z</time></trkpt><trkpt lat="44.36916476201944" lon="9.829246309357325"><ele>517.0</ele><time>2026-04-26T09:17:54.001Z</time></trkpt><trkpt lat="44.36926544728096" lon="9.829222893527538"><ele>517.0</ele><time>2026-04-26T09:17:55.001Z</time></trkpt><trkpt lat="44.36936870365272" lon="9.829193103202224"><ele>517.0</ele><time>2026-04-26T09:17:56.001Z</time></trkpt><trkpt lat="44.369475929766864" lon="9.829215395944278"><ele>517.0</ele><time>2026-04-26T09:17:57.001Z</time></trkpt><trkpt lat="44.369571154301504" lon="9.829297891587562"><ele>517.0</ele><time>2026-04-26T09:17:58.001Z</time></trkpt><trkpt lat="44.369633906650336" lon="9.829421379671277"><ele>512.6</ele><time>2026-04-26T09:17:59.001Z</time></trkpt><trkpt lat="44.369655619280095" lon="9.829553192002574"><ele>508.20000000000005</ele><time>2026-04-26T09:18:00.001Z</time></trkpt><trkpt lat="44.36958445984807" lon="9.829680665965368"><ele>503.8</ele><time>2026-04-26T09:18:01.001Z</time></trkpt><trkpt lat="44.36956316868442" lon="9.829815357198116"><ele>499.4</ele><time>2026-04-26T09:18:02.001Z</time></trkpt><trkpt lat="44.36954899137043" lon="9.829950904531955"><ele>495.0</ele><time>2026-04-26T09:18:03.001Z</time></trkpt><trkpt lat="44.3695870042381" lon="9.830093346311045"><ele>501.5</ele><time>2026-04-26T09:18:04.001Z</time></trkpt><trkpt lat="44.36966510147301" lon="9.83020391792182"><ele>508.0</ele><time>2026-04-26T09:18:05.001Z</time></trkpt><trkpt lat="44.36977109943835" lon="9.830280983963423"><ele>514.5</ele><time>2026-04-26T09:18:06.001Z</time></trkpt><trkpt lat="44.369870878306415" lon="9.830349437525713"><ele>521.0</ele><time>2026-04-26T09:18:07.001Z</time></trkpt><trkpt lat="44.36992512281446" lon="9.830480470553375"><ele>521.0</ele><time>2026-04-26T09:18:08.001Z</time></trkpt><trkpt lat="44.369948670197346" lon="9.830616710955686"><ele>521.0</ele><time>2026-04-26T09:18:09.001Z</time></trkpt><trkpt lat="44.36992149974089" lon="9.830788587728899"><ele>521.0</ele><time>2026-04-26T09:18:10.001Z</time></trkpt><trkpt lat="44.36991675426964" lon="9.830965840466733"><ele>521.0</ele><time>2026-04-26T09:18:11.001Z</time></trkpt><trkpt lat="44.36988956467744" lon="9.831130806804964"><ele>515.5</ele><time>2026-04-26T09:18:12.001Z</time></trkpt><trkpt lat="44.36987952284156" lon="9.831283479289105"><ele>510.0</ele><time>2026-04-26T09:18:13.001Z</time></trkpt><trkpt lat="44.36988887449295" lon="9.831458339549192"><ele>504.5</ele><time>2026-04-26T09:18:14.001Z</time></trkpt><trkpt lat="44.36993560615931" lon="9.831619571099985"><ele>499.0</ele><time>2026-04-26T09:18:15.001Z</time></trkpt><trkpt lat="44.37001115886725" lon="9.831748504273083"><ele>491.25</ele><time>2026-04-26T09:18:16.001Z</time></trkpt><trkpt lat="44.37009376003582" lon="9.831894482799518"><ele>483.5</ele><time>2026-04-26T09:18:17.001Z</time></trkpt><trkpt lat="44.370215821339464" lon="9.832030268992238"><ele>475.75</ele><time>2026-04-26T09:18:18.001Z</time></trkpt><trkpt lat="44.3703220235918" lon="9.832160459924758"><ele>468.0</ele><time>2026-04-26T09:18:19.001Z</time></trkpt><trkpt lat="44.37042145031755" lon="9.83228825759948"><ele>468.0</ele><time>2026-04-26T09:18:20.001Z</time></trkpt><trkpt lat="44.37051156482862" lon="9.832416105718924"><ele>468.0</ele><time>2026-04-26T09:18:21.001Z</time></trkpt><trkpt lat="44.370619125985534" lon="9.832523039286174"><ele>468.0</ele><time>2026-04-26T09:18:22.001Z</time></trkpt><trkpt lat="44.37074061202525" lon="9.832592307248236"><ele>468.0</ele><time>2026-04-26T09:18:23.001Z</time></trkpt><trkpt lat="44.37086043166694" lon="9.832652716424112"><ele>470.25</ele><time>2026-04-26T09:18:24.001Z</time></trkpt><trkpt lat="44.37095638121085" lon="9.832746206339744"><ele>472.5</ele><time>2026-04-26T09:18:25.001Z</time></trkpt><trkpt lat="44.37102367786307" lon="9.832888077701206"><ele>474.75</ele><time>2026-04-26T09:18:26.001Z</time></trkpt><trkpt lat="44.37105169453485" lon="9.833051030636824"><ele>477.0</ele><time>2026-04-26T09:18:27.001Z</time></trkpt><trkpt lat="44.37106016633019" lon="9.83320161372536"><ele>477.0</ele><time>2026-04-26T09:18:28.001Z</time></trkpt><trkpt lat="44.371107043651726" lon="9.833333537985014"><ele>477.0</ele><time>2026-04-26T09:18:29.001Z</time></trkpt><trkpt lat="44.3712155274864" lon="9.833383924936058"><ele>477.0</ele><time>2026-04-26T09:18:30.001Z</time></trkpt><trkpt lat="44.37135305347159" lon="9.833440765158425"><ele>477.0</ele><time>2026-04-26T09:18:31.001Z</time></trkpt><trkpt lat="44.371509301564984" lon="9.833493291097094"><ele>476.5</ele><time>2026-04-26T09:18:32.001Z</time></trkpt><trkpt lat="44.37165439090926" lon="9.833590245748278"><ele>476.0</ele><time>2026-04-26T09:18:33.001Z</time></trkpt><trkpt lat="44.371793834577254" lon="9.833680147400708"><ele>475.5</ele><time>2026-04-26T09:18:34.001Z</time></trkpt><trkpt lat="44.371917387417845" lon="9.833751436672303"><ele>475.0</ele><time>2026-04-26T09:18:35.001Z</time></trkpt><trkpt lat="44.37203073219532" lon="9.833832696860235"><ele>475.0</ele><time>2026-04-26T09:18:36.001Z</time></trkpt><trkpt lat="44.372142663255524" lon="9.833879885003924"><ele>475.0</ele><time>2026-04-26T09:18:37.001Z</time></trkpt><trkpt lat="44.372237023649234" lon="9.833980276071804"><ele>475.0</ele><time>2026-04-26T09:18:38.001Z</time></trkpt><trkpt lat="44.37230007372053" lon="9.83413328715946"><ele>475.0</ele><time>2026-04-26T09:18:39.001Z</time></trkpt><trkpt lat="44.372337587662344" lon="9.834322037998668"><ele>483.6666666666667</ele><time>2026-04-26T09:18:40.001Z</time></trkpt><trkpt lat="44.372358293900824" lon="9.834537747216968"><ele>492.33333333333337</ele><time>2026-04-26T09:18:41.001Z</time></trkpt><trkpt lat="44.37238272733842" lon="9.834754707411083"><ele>501.0</ele><time>2026-04-26T09:18:42.001Z</time></trkpt><trkpt lat="44.37241576125439" lon="9.834975736781455"><ele>501.0</ele><time>2026-04-26T09:18:43.001Z</time></trkpt><trkpt lat="44.3724431581907" lon="9.83518600004345"><ele>501.0</ele><time>2026-04-26T09:18:44.001Z</time></trkpt><trkpt lat="44.37247436545995" lon="9.835387008543883"><ele>501.0</ele><time>2026-04-26T09:18:45.001Z</time></trkpt><trkpt lat="44.37249591035836" lon="9.83557544044857"><ele>501.0</ele><time>2026-04-26T09:18:46.001Z</time></trkpt><trkpt lat="44.3724826441062" lon="9.835760172239514"><ele>501.0</ele><time>2026-04-26T09:18:47.001Z</time></trkpt><trkpt lat="44.37241077066873" lon="9.83591917722793"><ele>501.0</ele><time>2026-04-26T09:18:48.001Z</time></trkpt><trkpt lat="44.37236096765028" lon="9.836069093337"><ele>501.0</ele><time>2026-04-26T09:18:49.001Z</time></trkpt><trkpt lat="44.372326727263946" lon="9.836210060203364"><ele>501.0</ele><time>2026-04-26T09:18:50.001Z</time></trkpt><trkpt lat="44.372333578932036" lon="9.836370997229798"><ele>500.5</ele><time>2026-04-26T09:18:51.001Z</time></trkpt><trkpt lat="44.37237024118822" lon="9.836532767731859"><ele>500.0</ele><time>2026-04-26T09:18:52.001Z</time></trkpt><trkpt lat="44.37243171953893" lon="9.836675106414546"><ele>499.5</ele><time>2026-04-26T09:18:53.001Z</time></trkpt><trkpt lat="44.37250435718469" lon="9.836822498734064"><ele>499.0</ele><time>2026-04-26T09:18:54.001Z</time></trkpt><trkpt lat="44.37257074369541" lon="9.836968006660769"><ele>498.79999999999995</ele><time>2026-04-26T09:18:55.001Z</time></trkpt><trkpt lat="44.37264023140593" lon="9.837085753530332"><ele>498.59999999999997</ele><time>2026-04-26T09:18:56.001Z</time></trkpt><trkpt lat="44.37268509317568" lon="9.837210021367529"><ele>498.4</ele><time>2026-04-26T09:18:57.001Z</time></trkpt><trkpt lat="44.37267558114065" lon="9.83734973354191"><ele>498.2</ele><time>2026-04-26T09:18:58.001Z</time></trkpt><trkpt lat="44.372597468542004" lon="9.837488136735447"><ele>498.0</ele><time>2026-04-26T09:18:59.001Z</time></trkpt><trkpt lat="44.37250904967058" lon="9.837641274594679"><ele>504.66666666666663</ele><time>2026-04-26T09:19:00.001Z</time></trkpt><trkpt lat="44.37238784905331" lon="9.837790356289183"><ele>511.3333333333333</ele><time>2026-04-26T09:19:01.001Z</time></trkpt><trkpt lat="44.37228998567793" lon="9.837953201856593"><ele>518.0</ele><time>2026-04-26T09:19:02.001Z</time></trkpt><trkpt lat="44.37220169643796" lon="9.838123178445095"><ele>512.75</ele><time>2026-04-26T09:19:03.001Z</time></trkpt><trkpt lat="44.372123738581905" lon="9.838297200349515"><ele>507.5</ele><time>2026-04-26T09:19:04.001Z</time></trkpt><trkpt lat="44.37206253648701" lon="9.83846896316579"><ele>502.25</ele><time>2026-04-26T09:19:05.001Z</time></trkpt><trkpt lat="44.3720051928651" lon="9.838620993505549"><ele>497.0</ele><time>2026-04-26T09:19:06.001Z</time></trkpt><trkpt lat="44.371916402923304" lon="9.838729902964895"><ele>497.0</ele><time>2026-04-26T09:19:07.001Z</time></trkpt><trkpt lat="44.371779376270204" lon="9.838782842359617"><ele>497.0</ele><time>2026-04-26T09:19:08.001Z</time></trkpt><trkpt lat="44.37166167683531" lon="9.83887816015816"><ele>497.0</ele><time>2026-04-26T09:19:09.001Z</time></trkpt><trkpt lat="44.371552243897234" lon="9.83899678769125"><ele>497.0</ele><time>2026-04-26T09:19:10.001Z</time></trkpt><trkpt lat="44.37145280337775" lon="9.839112737812734"><ele>489.75</ele><time>2026-04-26T09:19:11.001Z</time></trkpt><trkpt lat="44.37135152681682" lon="9.839210548370815"><ele>482.5</ele><time>2026-04-26T09:19:12.001Z</time></trkpt><trkpt lat="44.37125685249313" lon="9.83930979431198"><ele>475.25</ele><time>2026-04-26T09:19:13.001Z</time></trkpt><trkpt lat="44.37117372669054" lon="9.839407264596268"><ele>468.0</ele><time>2026-04-26T09:19:14.001Z</time></trkpt><trkpt lat="44.371147984046004" lon="9.83955203983255"><ele>467.0</ele><time>2026-04-26T09:19:15.001Z</time></trkpt><trkpt lat="44.37117780283437" lon="9.839712691901548"><ele>466.0</ele><time>2026-04-26T09:19:16.001Z</time></trkpt><trkpt lat="44.371262182787824" lon="9.839860812272407"><ele>465.0</ele><time>2026-04-26T09:19:17.001Z</time></trkpt><trkpt lat="44.37136423186701" lon="9.840001996904341"><ele>464.0</ele><time>2026-04-26T09:19:18.001Z</time></trkpt><trkpt lat="44.37145391654677" lon="9.840146329275195"><ele>470.66666666666663</ele><time>2026-04-26T09:19:19.001Z</time></trkpt><trkpt lat="44.371534882850845" lon="9.840312564389762"><ele>477.33333333333337</ele><time>2026-04-26T09:19:20.001Z</time></trkpt><trkpt lat="44.37160220561236" lon="9.840503896293685"><ele>484.0</ele><time>2026-04-26T09:19:21.001Z</time></trkpt><trkpt lat="44.371660367792025" lon="9.840704427395021"><ele>484.0</ele><time>2026-04-26T09:19:22.001Z</time></trkpt><trkpt lat="44.371709406648044" lon="9.8408911064842"><ele>484.0</ele><time>2026-04-26T09:19:23.001Z</time></trkpt><trkpt lat="44.37176252400796" lon="9.84105491086279"><ele>484.0</ele><time>2026-04-26T09:19:24.001Z</time></trkpt><trkpt lat="44.37184811733345" lon="9.84119216495661"><ele>484.0</ele><time>2026-04-26T09:19:25.001Z</time></trkpt><trkpt lat="44.37194065920672" lon="9.841301219009338"><ele>485.75</ele><time>2026-04-26T09:19:26.001Z</time></trkpt><trkpt lat="44.372039401069586" lon="9.84139130990522"><ele>487.5</ele><time>2026-04-26T09:19:27.001Z</time></trkpt><trkpt lat="44.37213969774466" lon="9.841480929254612"><ele>489.25</ele><time>2026-04-26T09:19:28.001Z</time></trkpt><trkpt lat="44.372237288345644" lon="9.84157304989433"><ele>491.0</ele><time>2026-04-26T09:19:29.001Z</time></trkpt><trkpt lat="44.37231141915045" lon="9.841675059026432"><ele>491.0</ele><time>2026-04-26T09:19:30.001Z</time></trkpt><trkpt lat="44.372385632358416" lon="9.841771874937143"><ele>491.0</ele><time>2026-04-26T09:19:31.001Z</time></trkpt><trkpt lat="44.37244665659139" lon="9.84187335557615"><ele>491.0</ele><time>2026-04-26T09:19:32.001Z</time></trkpt><trkpt lat="44.37250835222462" lon="9.841968036828172"><ele>491.0</ele><time>2026-04-26T09:19:33.001Z</time></trkpt><trkpt lat="44.37257699060772" lon="9.842051163096428"><ele>491.0</ele><time>2026-04-26T09:19:34.001Z</time></trkpt><trkpt lat="44.372660973559235" lon="9.842121472126259"><ele>492.20000000000005</ele><time>2026-04-26T09:19:35.001Z</time></trkpt><trkpt lat="44.37275657747782" lon="9.842190023419468"><ele>493.40000000000003</ele><time>2026-04-26T09:19:36.001Z</time></trkpt><trkpt lat="44.372843585220714" lon="9.84226171023642"><ele>494.6</ele><time>2026-04-26T09:19:37.001Z</time></trkpt><trkpt lat="44.372932886538145" lon="9.842333111068493"><ele>495.8</ele><time>2026-04-26T09:19:38.001Z</time></trkpt><trkpt lat="44.37301657886145" lon="9.842397530841785"><ele>497.0</ele><time>2026-04-26T09:19:39.001Z</time></trkpt><trkpt lat="44.37308736904191" lon="9.842462068681591"><ele>497.0</ele><time>2026-04-26T09:19:40.001Z</time></trkpt><trkpt lat="44.37314688661574" lon="9.84251135008036"><ele>497.00000000000006</ele><time>2026-04-26T09:19:41.001Z</time></trkpt><trkpt lat="44.373199853268616" lon="9.842564987948693"><ele>497.00000000000006</ele><time>2026-04-26T09:19:42.001Z</time></trkpt><trkpt lat="44.373267380945094" lon="9.84267471691299"><ele>497.0</ele><time>2026-04-26T09:19:44.001Z</time></trkpt><trkpt lat="44.37325796214294" lon="9.842855144685682"><ele>497.0</ele><time>2026-04-26T09:19:46.001Z</time></trkpt><trkpt lat="44.37319580524322" lon="9.842938201249426"><ele>496.49999999999994</ele><time>2026-04-26T09:19:47.001Z</time></trkpt><trkpt lat="44.37314700568677" lon="9.8430395292907"><ele>496.0</ele><time>2026-04-26T09:19:48.001Z</time></trkpt><trkpt lat="44.37308178426001" lon="9.843140111617119"><ele>495.5</ele><time>2026-04-26T09:19:49.001Z</time></trkpt><trkpt lat="44.37302061941274" lon="9.843246532269456"><ele>495.0</ele><time>2026-04-26T09:19:50.001Z</time></trkpt><trkpt lat="44.37296789456738" lon="9.843340632277405"><ele>494.49999999999994</ele><time>2026-04-26T09:19:51.001Z</time></trkpt><trkpt lat="44.37292257923361" lon="9.843420407098572"><ele>494.0</ele><time>2026-04-26T09:19:52.001Z</time></trkpt><trkpt lat="44.37288462734177" lon="9.843499252604886"><ele>486.0</ele><time>2026-04-26T09:19:53.001Z</time></trkpt><trkpt lat="44.372881423853535" lon="9.84366750607285"><ele>478.0</ele><time>2026-04-26T09:19:55.001Z</time></trkpt><trkpt lat="44.37292003613145" lon="9.843840593025877"><ele>470.0</ele><time>2026-04-26T09:19:57.001Z</time></trkpt><trkpt lat="44.37294815403699" lon="9.8439511502626"><ele>462.0</ele><time>2026-04-26T09:19:59.001Z</time></trkpt><trkpt lat="44.37296428685635" lon="9.844093008253013"><ele>454.0</ele><time>2026-04-26T09:20:02.001Z</time></trkpt><trkpt lat="44.37296959185751" lon="9.844198170725916"><ele>460.2</ele><time>2026-04-26T09:20:03.001Z</time></trkpt><trkpt lat="44.372946224807976" lon="9.844311040267367"><ele>466.4</ele><time>2026-04-26T09:20:04.001Z</time></trkpt><trkpt lat="44.37290034082294" lon="9.84440195146029"><ele>472.6</ele><time>2026-04-26T09:20:05.001Z</time></trkpt><trkpt lat="44.372818098849976" lon="9.844489374194023"><ele>478.8</ele><time>2026-04-26T09:20:06.001Z</time></trkpt><trkpt lat="44.37271353057563" lon="9.844563173505376"><ele>485.0</ele><time>2026-04-26T09:20:07.001Z</time></trkpt><trkpt lat="44.37260826015273" lon="9.844652716572213"><ele>485.0</ele><time>2026-04-26T09:20:08.001Z</time></trkpt><trkpt lat="44.37250395910766" lon="9.844720546934179"><ele>485.0</ele><time>2026-04-26T09:20:09.001Z</time></trkpt><trkpt lat="44.37239509634625" lon="9.844806608031698"><ele>485.0</ele><time>2026-04-26T09:20:10.001Z</time></trkpt><trkpt lat="44.372275886662045" lon="9.844900319686305"><ele>485.0</ele><time>2026-04-26T09:20:11.001Z</time></trkpt><trkpt lat="44.37216084814667" lon="9.844999689853557"><ele>477.75</ele><time>2026-04-26T09:20:12.001Z</time></trkpt><trkpt lat="44.37204925753903" lon="9.845091648735417"><ele>470.5</ele><time>2026-04-26T09:20:13.001Z</time></trkpt><trkpt lat="44.37194878607714" lon="9.845188770691053"><ele>463.25</ele><time>2026-04-26T09:20:14.001Z</time></trkpt><trkpt lat="44.37186713956854" lon="9.845289546095476"><ele>456.0</ele><time>2026-04-26T09:20:15.001Z</time></trkpt><trkpt lat="44.37180602262267" lon="9.84540986567265"><ele>456.0</ele><time>2026-04-26T09:20:16.001Z</time></trkpt><trkpt lat="44.371797888566014" lon="9.845570609195716"><ele>456.0</ele><time>2026-04-26T09:20:17.001Z</time></trkpt><trkpt lat="44.3718656886823" lon="9.845754634199487"><ele>456.0</ele><time>2026-04-26T09:20:18.001Z</time></trkpt><trkpt lat="44.37194339023416" lon="9.845915049048848"><ele>456.0</ele><time>2026-04-26T09:20:19.001Z</time></trkpt><trkpt lat="44.372009961198025" lon="9.846053768812682"><ele>457.0</ele><time>2026-04-26T09:20:20.001Z</time></trkpt><trkpt lat="44.37204564894054" lon="9.846204479521697"><ele>458.0</ele><time>2026-04-26T09:20:21.001Z</time></trkpt><trkpt lat="44.37203855837496" lon="9.846348790388191"><ele>459.0</ele><time>2026-04-26T09:20:22.001Z</time></trkpt><trkpt lat="44.37197871078803" lon="9.846468478998583"><ele>460.0</ele><time>2026-04-26T09:20:23.001Z</time></trkpt><trkpt lat="44.37187289336538" lon="9.846555471262718"><ele>461.0</ele><time>2026-04-26T09:20:24.001Z</time></trkpt><trkpt lat="44.37174690597243" lon="9.846665051384235"><ele>461.0</ele><time>2026-04-26T09:20:25.001Z</time></trkpt><trkpt lat="44.371644499472545" lon="9.84677565443157"><ele>461.0</ele><time>2026-04-26T09:20:26.001Z</time></trkpt><trkpt lat="44.37154973759166" lon="9.846889766631035"><ele>461.0</ele><time>2026-04-26T09:20:27.001Z</time></trkpt><trkpt lat="44.37146007309445" lon="9.846988390145317"><ele>461.0</ele><time>2026-04-26T09:20:28.001Z</time></trkpt><trkpt lat="44.37138728014011" lon="9.84708112599618"><ele>462.0</ele><time>2026-04-26T09:20:29.001Z</time></trkpt><trkpt lat="44.371351308548185" lon="9.847184214910076"><ele>463.0</ele><time>2026-04-26T09:20:30.001Z</time></trkpt><trkpt lat="44.37134081545694" lon="9.847309180973483"><ele>464.0</ele><time>2026-04-26T09:20:31.001Z</time></trkpt><trkpt lat="44.37139624650215" lon="9.84743698629214"><ele>465.0</ele><time>2026-04-26T09:20:32.001Z</time></trkpt><trkpt lat="44.371494006293396" lon="9.847511190482393"><ele>466.0</ele><time>2026-04-26T09:20:33.001Z</time></trkpt><trkpt lat="44.37160752004941" lon="9.847532318025484"><ele>466.0</ele><time>2026-04-26T09:20:34.001Z</time></trkpt><trkpt lat="44.371726749003244" lon="9.847543272421738"><ele>466.0</ele><time>2026-04-26T09:20:35.001Z</time></trkpt><trkpt lat="44.371835603246076" lon="9.847568668465735"><ele>466.0</ele><time>2026-04-26T09:20:36.001Z</time></trkpt><trkpt lat="44.37192339299046" lon="9.847633898977506"><ele>466.0</ele><time>2026-04-26T09:20:37.001Z</time></trkpt><trkpt lat="44.37199068900378" lon="9.847756919652678"><ele>466.0</ele><time>2026-04-26T09:20:38.001Z</time></trkpt><trkpt lat="44.37200844145881" lon="9.847931001875319"><ele>466.75</ele><time>2026-04-26T09:20:39.001Z</time></trkpt><trkpt lat="44.37205912567697" lon="9.848085610654342"><ele>467.5</ele><time>2026-04-26T09:20:40.001Z</time></trkpt><trkpt lat="44.37211483774866" lon="9.848244192453615"><ele>468.25</ele><time>2026-04-26T09:20:41.001Z</time></trkpt><trkpt lat="44.3722173457108" lon="9.848368151801699"><ele>469.0</ele><time>2026-04-26T09:20:42.001Z</time></trkpt><trkpt lat="44.372334845745584" lon="9.848454136167854"><ele>463.79999999999995</ele><time>2026-04-26T09:20:43.001Z</time></trkpt><trkpt lat="44.37245811383507" lon="9.848520489469992"><ele>458.59999999999997</ele><time>2026-04-26T09:20:44.001Z</time></trkpt><trkpt lat="44.372571779313596" lon="9.848552298254397"><ele>453.4</ele><time>2026-04-26T09:20:45.001Z</time></trkpt><trkpt lat="44.37266382683357" lon="9.848570849582265"><ele>448.2</ele><time>2026-04-26T09:20:46.001Z</time></trkpt><trkpt lat="44.372726988782574" lon="9.84862605661768"><ele>443.0</ele><time>2026-04-26T09:20:47.001Z</time></trkpt><trkpt lat="44.37280257552931" lon="9.848774270471424"><ele>443.0</ele><time>2026-04-26T09:20:48.001Z</time></trkpt><trkpt lat="44.3728810039945" lon="9.848914967989224"><ele>443.0</ele><time>2026-04-26T09:20:49.001Z</time></trkpt><trkpt lat="44.37297497847668" lon="9.849025602605321"><ele>443.0</ele><time>2026-04-26T09:20:50.001Z</time></trkpt><trkpt lat="44.37308303460237" lon="9.849093643904146"><ele>443.0</ele><time>2026-04-26T09:20:51.001Z</time></trkpt><trkpt lat="44.37316898490321" lon="9.84916538387556"><ele>449.2</ele><time>2026-04-26T09:20:52.001Z</time></trkpt><trkpt lat="44.373231971471796" lon="9.849252235088095"><ele>455.4</ele><time>2026-04-26T09:20:53.001Z</time></trkpt><trkpt lat="44.37325452605153" lon="9.84936046396825"><ele>461.59999999999997</ele><time>2026-04-26T09:20:54.001Z</time></trkpt><trkpt lat="44.3732333168497" lon="9.849486982877899"><ele>467.79999999999995</ele><time>2026-04-26T09:20:55.001Z</time></trkpt><trkpt lat="44.373172743675894" lon="9.849603405997371"><ele>474.0</ele><time>2026-04-26T09:20:56.001Z</time></trkpt><trkpt lat="44.373085073453765" lon="9.849682186082672"><ele>466.5</ele><time>2026-04-26T09:20:57.001Z</time></trkpt><trkpt lat="44.37296320499888" lon="9.849738911136344"><ele>459.0</ele><time>2026-04-26T09:20:58.001Z</time></trkpt><trkpt lat="44.372848031879265" lon="9.849786965395133"><ele>451.5</ele><time>2026-04-26T09:20:59.001Z</time></trkpt><trkpt lat="44.37275483575641" lon="9.849850303997828"><ele>444.0</ele><time>2026-04-26T09:21:00.001Z</time></trkpt><trkpt lat="44.372697929049544" lon="9.849973276475897"><ele>444.0</ele><time>2026-04-26T09:21:01.001Z</time></trkpt><trkpt lat="44.37263912183283" lon="9.85011805787678"><ele>444.0</ele><time>2026-04-26T09:21:02Z</time></trkpt><trkpt lat="44.37255362943869" lon="9.850283868526251"><ele>444.0</ele><time>2026-04-26T09:21:03Z</time></trkpt><trkpt lat="44.37247138093005" lon="9.850466151990508"><ele>444.0</ele><time>2026-04-26T09:21:04Z</time></trkpt><trkpt lat="44.37238285585351" lon="9.85063084553188"><ele>443.25</ele><time>2026-04-26T09:21:05Z</time></trkpt><trkpt lat="44.372300505128266" lon="9.850799823148877"><ele>442.5</ele><time>2026-04-26T09:21:06Z</time></trkpt><trkpt lat="44.37222306366217" lon="9.850967911958469"><ele>441.75</ele><time>2026-04-26T09:21:07Z</time></trkpt><trkpt lat="44.37212705331525" lon="9.85114535901676"><ele>441.0</ele><time>2026-04-26T09:21:08Z</time></trkpt><trkpt lat="44.37203599391794" lon="9.851314594657865"><ele>441.0</ele><time>2026-04-26T09:21:09Z</time></trkpt><trkpt lat="44.3719495213735" lon="9.851463710309202"><ele>441.0</ele><time>2026-04-26T09:21:10Z</time></trkpt><trkpt lat="44.37187259702347" lon="9.851619517608054"><ele>441.0</ele><time>2026-04-26T09:21:11Z</time></trkpt><trkpt lat="44.3718105368997" lon="9.851753036232193"><ele>441.0</ele><time>2026-04-26T09:21:12Z</time></trkpt><trkpt lat="44.37177536767819" lon="9.851898245835688"><ele>441.5</ele><time>2026-04-26T09:21:13Z</time></trkpt><trkpt lat="44.37177746822044" lon="9.852062181268417"><ele>442.0</ele><time>2026-04-26T09:21:14Z</time></trkpt><trkpt lat="44.37183169075895" lon="9.852233735556455"><ele>442.5</ele><time>2026-04-26T09:21:15Z</time></trkpt><trkpt lat="44.371923885405806" lon="9.85241434807899"><ele>443.0</ele><time>2026-04-26T09:21:16Z</time></trkpt><trkpt lat="44.372015063189956" lon="9.852598273603169"><ele>445.3333333333333</ele><time>2026-04-26T09:21:17Z</time></trkpt><trkpt lat="44.372100996119485" lon="9.852799729365682"><ele>447.66666666666663</ele><time>2026-04-26T09:21:18Z</time></trkpt><trkpt lat="44.37218014654865" lon="9.85300116831324"><ele>450.0</ele><time>2026-04-26T09:21:19Z</time></trkpt><trkpt lat="44.372259634657446" lon="9.853187884006653"><ele>450.0</ele><time>2026-04-26T09:21:20Z</time></trkpt><trkpt lat="44.37233382863516" lon="9.85336592447669"><ele>450.0</ele><time>2026-04-26T09:21:21Z</time></trkpt><trkpt lat="44.372382911811705" lon="9.85354474953071"><ele>450.0</ele><time>2026-04-26T09:21:22Z</time></trkpt><trkpt lat="44.37240856754605" lon="9.853705416259249"><ele>450.0</ele><time>2026-04-26T09:21:23Z</time></trkpt><trkpt lat="44.372411987121694" lon="9.853841404589915"><ele>449.25</ele><time>2026-04-26T09:21:24Z</time></trkpt><trkpt lat="44.37237781872928" lon="9.853990221777812"><ele>448.5</ele><time>2026-04-26T09:21:25Z</time></trkpt><trkpt lat="44.37230983130353" lon="9.854133897639034"><ele>447.75</ele><time>2026-04-26T09:21:26Z</time></trkpt><trkpt lat="44.37220650204762" lon="9.854248094753164"><ele>447.0</ele><time>2026-04-26T09:21:27Z</time></trkpt><trkpt lat="44.37207390156947" lon="9.854373939438025"><ele>447.0</ele><time>2026-04-26T09:21:28Z</time></trkpt><trkpt lat="44.371892433678134" lon="9.854453756835618"><ele>447.0</ele><time>2026-04-26T09:21:29Z</time></trkpt><trkpt lat="44.37171859930762" lon="9.854550684450313"><ele>447.0</ele><time>2026-04-26T09:21:30Z</time></trkpt><trkpt lat="44.37157380880181" lon="9.854643067614239"><ele>447.0</ele><time>2026-04-26T09:21:31Z</time></trkpt><trkpt lat="44.37144241895074" lon="9.854727754432442"><ele>447.0</ele><time>2026-04-26T09:21:32Z</time></trkpt><trkpt lat="44.37133343107646" lon="9.854805205683732"><ele>447.0</ele><time>2026-04-26T09:21:33Z</time></trkpt><trkpt lat="44.37124219071056" lon="9.854902057761352"><ele>447.0</ele><time>2026-04-26T09:21:34Z</time></trkpt><trkpt lat="44.37116459095326" lon="9.855035272366933"><ele>441.25</ele><time>2026-04-26T09:21:35Z</time></trkpt><trkpt lat="44.371106292036025" lon="9.855199528591672"><ele>435.5</ele><time>2026-04-26T09:21:36Z</time></trkpt><trkpt lat="44.37106781901627" lon="9.855397089697439"><ele>429.75</ele><time>2026-04-26T09:21:37Z</time></trkpt><trkpt lat="44.37103401786715" lon="9.855617349811858"><ele>424.0</ele><time>2026-04-26T09:21:38Z</time></trkpt><trkpt lat="44.37100336441811" lon="9.855852568207407"><ele>425.33333333333337</ele><time>2026-04-26T09:21:39Z</time></trkpt><trkpt lat="44.37096605386776" lon="9.85607213673383"><ele>426.66666666666663</ele><time>2026-04-26T09:21:40Z</time></trkpt><trkpt lat="44.37091922099587" lon="9.856271094950182"><ele>428.0</ele><time>2026-04-26T09:21:41Z</time></trkpt><trkpt lat="44.37085823131134" lon="9.856453758439004"><ele>428.0</ele><time>2026-04-26T09:21:42Z</time></trkpt><trkpt lat="44.37077928598102" lon="9.856617077876264"><ele>428.0</ele><time>2026-04-26T09:21:43Z</time></trkpt><trkpt lat="44.37068186331551" lon="9.856760373904583"><ele>428.0</ele><time>2026-04-26T09:21:44Z</time></trkpt><trkpt lat="44.37057859215114" lon="9.85689075208108"><ele>428.0</ele><time>2026-04-26T09:21:45Z</time></trkpt><trkpt lat="44.37048065224761" lon="9.857033729603675"><ele>426.5</ele><time>2026-04-26T09:21:46Z</time></trkpt><trkpt lat="44.370392490399794" lon="9.857192513354777"><ele>425.0</ele><time>2026-04-26T09:21:47Z</time></trkpt><trkpt lat="44.370293811484366" lon="9.857340093345966"><ele>423.5</ele><time>2026-04-26T09:21:48Z</time></trkpt><trkpt lat="44.37018450720537" lon="9.85748132780882"><ele>422.0</ele><time>2026-04-26T09:21:49Z</time></trkpt><trkpt lat="44.37007920092677" lon="9.857630607249781"><ele>422.0</ele><time>2026-04-26T09:21:50Z</time></trkpt><trkpt lat="44.36997905320134" lon="9.857781237124149"><ele>422.0</ele><time>2026-04-26T09:21:51Z</time></trkpt><trkpt lat="44.36988909235912" lon="9.857943654463655"><ele>422.0</ele><time>2026-04-26T09:21:52Z</time></trkpt><trkpt lat="44.369810015750524" lon="9.858109733567236"><ele>422.0</ele><time>2026-04-26T09:21:53Z</time></trkpt><trkpt lat="44.36973758224722" lon="9.85826788071977"><ele>418.75</ele><time>2026-04-26T09:21:54Z</time></trkpt><trkpt lat="44.36963147518494" lon="9.858387357070098"><ele>415.5</ele><time>2026-04-26T09:21:55Z</time></trkpt><trkpt lat="44.36952070449631" lon="9.858500073714504"><ele>412.25</ele><time>2026-04-26T09:21:56Z</time></trkpt><trkpt lat="44.36941223892783" lon="9.85863700672291"><ele>409.0</ele><time>2026-04-26T09:21:57Z</time></trkpt><trkpt lat="44.36929204180528" lon="9.858750218228693"><ele>409.0</ele><time>2026-04-26T09:21:58Z</time></trkpt><trkpt lat="44.36918176804007" lon="9.858864297399235"><ele>409.0</ele><time>2026-04-26T09:21:59Z</time></trkpt><trkpt lat="44.36907941684058" lon="9.858980666082987"><ele>409.0</ele><time>2026-04-26T09:22:00Z</time></trkpt><trkpt lat="44.36898392608932" lon="9.859118669570844"><ele>409.0</ele><time>2026-04-26T09:22:01Z</time></trkpt><trkpt lat="44.36890003006791" lon="9.859278152776893"><ele>403.33333333333337</ele><time>2026-04-26T09:22:02Z</time></trkpt><trkpt lat="44.36882770738839" lon="9.859473312000102"><ele>397.66666666666663</ele><time>2026-04-26T09:22:03Z</time></trkpt><trkpt lat="44.36876553465214" lon="9.859673655903046"><ele>392.0</ele><time>2026-04-26T09:22:04Z</time></trkpt><trkpt lat="44.368716624176095" lon="9.859886356400768"><ele>392.0</ele><time>2026-04-26T09:22:05Z</time></trkpt><trkpt lat="44.3686733726918" lon="9.860114188287108"><ele>392.0</ele><time>2026-04-26T09:22:06Z</time></trkpt><trkpt lat="44.36862875470191" lon="9.860338823967956"><ele>392.0</ele><time>2026-04-26T09:22:07Z</time></trkpt><trkpt lat="44.368566117605134" lon="9.860546761268031"><ele>393.0</ele><time>2026-04-26T09:22:08Z</time></trkpt><trkpt lat="44.36853483141638" lon="9.86075486584055"><ele>394.0</ele><time>2026-04-26T09:22:09Z</time></trkpt><trkpt lat="44.36847257391062" lon="9.860955164765125"><ele>395.0</ele><time>2026-04-26T09:22:10Z</time></trkpt><trkpt lat="44.36844195042586" lon="9.861155352976894"><ele>395.0</ele><time>2026-04-26T09:22:11Z</time></trkpt><trkpt lat="44.3683895687466" lon="9.8613383964651"><ele>395.0</ele><time>2026-04-26T09:22:12Z</time></trkpt><trkpt lat="44.368338394352584" lon="9.861510113881824"><ele>395.0</ele><time>2026-04-26T09:22:13Z</time></trkpt><trkpt lat="44.368283491385625" lon="9.861675166673434"><ele>395.0</ele><time>2026-04-26T09:22:14Z</time></trkpt><trkpt lat="44.368210204647966" lon="9.861832917753967"><ele>394.25</ele><time>2026-04-26T09:22:15Z</time></trkpt><trkpt lat="44.368125938755895" lon="9.861989948614506"><ele>393.5</ele><time>2026-04-26T09:22:16Z</time></trkpt><trkpt lat="44.36804948780878" lon="9.862151298980093"><ele>392.75</ele><time>2026-04-26T09:22:17Z</time></trkpt><trkpt lat="44.367958170358015" lon="9.862297669711976"><ele>392.0</ele><time>2026-04-26T09:22:18Z</time></trkpt><trkpt lat="44.36787161311298" lon="9.862435594567925"><ele>392.0</ele><time>2026-04-26T09:22:19Z</time></trkpt><trkpt lat="44.36779227584237" lon="9.86255346556588"><ele>392.0</ele><time>2026-04-26T09:22:20Z</time></trkpt><trkpt lat="44.367734651310194" lon="9.862656498456143"><ele>392.0</ele><time>2026-04-26T09:22:21Z</time></trkpt><trkpt lat="44.36770129864649" lon="9.862760775055044"><ele>392.0</ele><time>2026-04-26T09:22:22Z</time></trkpt><trkpt lat="44.3677101678105" lon="9.862863504991047"><ele>392.0</ele><time>2026-04-26T09:22:23Z</time></trkpt><trkpt lat="44.36777637339449" lon="9.862944574543496"><ele>392.0</ele><time>2026-04-26T09:22:24Z</time></trkpt><trkpt lat="44.36787054190427" lon="9.862942397652153"><ele>392.0</ele><time>2026-04-26T09:22:25Z</time></trkpt><trkpt lat="44.36795398794426" lon="9.862857964114804"><ele>392.0</ele><time>2026-04-26T09:22:26Z</time></trkpt><trkpt lat="44.36799616980164" lon="9.862696455178906"><ele>392.0</ele><time>2026-04-26T09:22:27Z</time></trkpt><trkpt lat="44.36801624436329" lon="9.86253137702567"><ele>392.0</ele><time>2026-04-26T09:22:28Z</time></trkpt><trkpt lat="44.36807636133457" lon="9.86237757491413"><ele>390.75</ele><time>2026-04-26T09:22:29Z</time></trkpt><trkpt lat="44.36820027621877" lon="9.862264339634955"><ele>389.5</ele><time>2026-04-26T09:22:30Z</time></trkpt><trkpt lat="44.36832246447747" lon="9.862148711063682"><ele>388.25</ele><time>2026-04-26T09:22:31Z</time></trkpt><trkpt lat="44.36843866499399" lon="9.862027670383865"><ele>387.0</ele><time>2026-04-26T09:22:32Z</time></trkpt><trkpt lat="44.36855730746601" lon="9.861920396448426"><ele>387.0</ele><time>2026-04-26T09:22:33Z</time></trkpt><trkpt lat="44.368670169860614" lon="9.861807259686888"><ele>387.0</ele><time>2026-04-26T09:22:34Z</time></trkpt><trkpt lat="44.368793151329356" lon="9.861692518433989"><ele>387.0</ele><time>2026-04-26T09:22:35Z</time></trkpt><trkpt lat="44.36890982544268" lon="9.861570510995886"><ele>387.0</ele><time>2026-04-26T09:22:36Z</time></trkpt><trkpt lat="44.36902267447181" lon="9.861457579936138"><ele>386.0</ele><time>2026-04-26T09:22:37Z</time></trkpt><trkpt lat="44.369133765945705" lon="9.861359858646162"><ele>385.0</ele><time>2026-04-26T09:22:38Z</time></trkpt><trkpt lat="44.36924835262888" lon="9.861298898562165"><ele>384.0</ele><time>2026-04-26T09:22:39Z</time></trkpt><trkpt lat="44.369361801145196" lon="9.861243889049124"><ele>383.0</ele><time>2026-04-26T09:22:40Z</time></trkpt><trkpt lat="44.369467894051425" lon="9.86122181769855"><ele>383.0</ele><time>2026-04-26T09:22:41Z</time></trkpt><trkpt lat="44.369575077356394" lon="9.861238804629243"><ele>383.0</ele><time>2026-04-26T09:22:42Z</time></trkpt><trkpt lat="44.36967784863473" lon="9.86127410019464"><ele>383.0</ele><time>2026-04-26T09:22:43Z</time></trkpt><trkpt lat="44.36977039105554" lon="9.861344468226529"><ele>383.0</ele><time>2026-04-26T09:22:44Z</time></trkpt><trkpt lat="44.36986112585827" lon="9.861431342344487"><ele>383.0</ele><time>2026-04-26T09:22:45Z</time></trkpt><trkpt lat="44.36994136433453" lon="9.861545559387384"><ele>382.5</ele><time>2026-04-26T09:22:46Z</time></trkpt><trkpt lat="44.370012747412794" lon="9.861688204461327"><ele>382.0</ele><time>2026-04-26T09:22:47Z</time></trkpt><trkpt lat="44.37007370537587" lon="9.86184617666137"><ele>381.5</ele><time>2026-04-26T09:22:48Z</time></trkpt><trkpt lat="44.370090245302016" lon="9.862035273412182"><ele>381.0</ele><time>2026-04-26T09:22:49Z</time></trkpt><trkpt lat="44.370129690028655" lon="9.862225145925676"><ele>378.75</ele><time>2026-04-26T09:22:50Z</time></trkpt><trkpt lat="44.37014456654586" lon="9.862425765728567"><ele>376.5</ele><time>2026-04-26T09:22:51Z</time></trkpt><trkpt lat="44.370153021086516" lon="9.862607932861463"><ele>374.25</ele><time>2026-04-26T09:22:52Z</time></trkpt><trkpt lat="44.3701544254026" lon="9.862764291222732"><ele>372.0</ele><time>2026-04-26T09:22:53Z</time></trkpt><trkpt lat="44.3701754919774" lon="9.862901971951054"><ele>371.0</ele><time>2026-04-26T09:22:54Z</time></trkpt><trkpt lat="44.37019291034429" lon="9.863016368644553"><ele>370.0</ele><time>2026-04-26T09:22:55Z</time></trkpt><trkpt lat="44.370206350781565" lon="9.863125051891155"><ele>369.0</ele><time>2026-04-26T09:22:56Z</time></trkpt><trkpt lat="44.37021169897188" lon="9.863229452848783"><ele>368.0</ele><time>2026-04-26T09:22:57Z</time></trkpt><trkpt lat="44.37020996490314" lon="9.863327328862303"><ele>367.0</ele><time>2026-04-26T09:22:58Z</time></trkpt><trkpt lat="44.370185740287916" lon="9.863477584371974"><ele>366.0</ele><time>2026-04-26T09:23:00Z</time></trkpt><trkpt lat="44.370188791829186" lon="9.863615651014966"><ele>364.3333333333333</ele><time>2026-04-26T09:23:02Z</time></trkpt><trkpt lat="44.37027313276165" lon="9.863726203444562"><ele>362.6666666666667</ele><time>2026-04-26T09:23:04Z</time></trkpt><trkpt lat="44.37033042521052" lon="9.863767854178544"><ele>361.0</ele><time>2026-04-26T09:23:05Z</time></trkpt><trkpt lat="44.37038744233522" lon="9.863831842303133"><ele>359.33333333333337</ele><time>2026-04-26T09:23:06Z</time></trkpt><trkpt lat="44.370424896336104" lon="9.863926268586564"><ele>357.6666666666667</ele><time>2026-04-26T09:23:07Z</time></trkpt><trkpt lat="44.37043853677039" lon="9.864030620793955"><ele>356.0</ele><time>2026-04-26T09:23:08Z</time></trkpt><trkpt lat="44.370432094849214" lon="9.864139707082836"><ele>355.99999999999994</ele><time>2026-04-26T09:23:09Z</time></trkpt><trkpt lat="44.37041150660401" lon="9.864228098041067"><ele>356.0</ele><time>2026-04-26T09:23:10Z</time></trkpt><trkpt lat="44.3703819425107" lon="9.864311046678612"><ele>356.0</ele><time>2026-04-26T09:23:11Z</time></trkpt><trkpt lat="44.37035803392074" lon="9.86440760639493"><ele>356.0</ele><time>2026-04-26T09:23:12Z</time></trkpt><trkpt lat="44.37035301546407" lon="9.864510627577532"><ele>356.0</ele><time>2026-04-26T09:23:13Z</time></trkpt><trkpt lat="44.37037451561908" lon="9.86461362093948"><ele>355.99999999999994</ele><time>2026-04-26T09:23:14Z</time></trkpt><trkpt lat="44.37041281325268" lon="9.864711550185875"><ele>356.0</ele><time>2026-04-26T09:23:15Z</time></trkpt><trkpt lat="44.37045323061259" lon="9.864814413451425"><ele>355.0</ele><time>2026-04-26T09:23:16Z</time></trkpt><trkpt lat="44.37049623004498" lon="9.864916874157405"><ele>354.0</ele><time>2026-04-26T09:23:17Z</time></trkpt><trkpt lat="44.37054837136238" lon="9.865019752819029"><ele>353.0</ele><time>2026-04-26T09:23:18Z</time></trkpt><trkpt lat="44.37060181500735" lon="9.86510243728988"><ele>352.0</ele><time>2026-04-26T09:23:19Z</time></trkpt><trkpt lat="44.37065582759658" lon="9.865175876023073"><ele>351.0</ele><time>2026-04-26T09:23:20Z</time></trkpt><trkpt lat="44.3707250588674" lon="9.86524685323582"><ele>350.0</ele><time>2026-04-26T09:23:21Z</time></trkpt><trkpt lat="44.37079136449946" lon="9.865309529121715"><ele>350.0</ele><time>2026-04-26T09:23:22Z</time></trkpt><trkpt lat="44.3708669113267" lon="9.865348856104777"><ele>350.0</ele><time>2026-04-26T09:23:23Z</time></trkpt><trkpt lat="44.370939560201585" lon="9.86536213533377"><ele>350.0</ele><time>2026-04-26T09:23:24Z</time></trkpt><trkpt lat="44.37101870260165" lon="9.865362136220005"><ele>350.0</ele><time>2026-04-26T09:23:25Z</time></trkpt><trkpt lat="44.37109930718248" lon="9.865274702407623"><ele>350.0</ele><time>2026-04-26T09:23:26Z</time></trkpt><trkpt lat="44.37115800246399" lon="9.865185908470327"><ele>350.0</ele><time>2026-04-26T09:23:27Z</time></trkpt><trkpt lat="44.37121391919669" lon="9.86510196368903"><ele>352.2</ele><time>2026-04-26T09:23:28Z</time></trkpt><trkpt lat="44.371281150109205" lon="9.865004393715324"><ele>354.4</ele><time>2026-04-26T09:23:29Z</time></trkpt><trkpt lat="44.37134614311188" lon="9.864919373852109"><ele>356.6</ele><time>2026-04-26T09:23:30Z</time></trkpt><trkpt lat="44.371408480302655" lon="9.864856004363343"><ele>358.8</ele><time>2026-04-26T09:23:31Z</time></trkpt><trkpt lat="44.37152874982777" lon="9.864798578630747"><ele>361.0</ele><time>2026-04-26T09:23:33Z</time></trkpt><trkpt lat="44.37160541979833" lon="9.864833096284961"><ele>361.0</ele><time>2026-04-26T09:23:34Z</time></trkpt><trkpt lat="44.37167591784209" lon="9.864901953514881"><ele>361.0</ele><time>2026-04-26T09:23:35Z</time></trkpt><trkpt lat="44.37172009161336" lon="9.865038229064362"><ele>361.0</ele><time>2026-04-26T09:23:36Z</time></trkpt><trkpt lat="44.37176681932232" lon="9.865188592905"><ele>361.0</ele><time>2026-04-26T09:23:37Z</time></trkpt><trkpt lat="44.37181732176329" lon="9.865355266559371"><ele>361.0</ele><time>2026-04-26T09:23:38Z</time></trkpt><trkpt lat="44.37187315992534" lon="9.865530624727864"><ele>357.75</ele><time>2026-04-26T09:23:39Z</time></trkpt><trkpt lat="44.37194004836813" lon="9.865723079186038"><ele>354.5</ele><time>2026-04-26T09:23:40Z</time></trkpt><trkpt lat="44.37200629319097" lon="9.865904908995121"><ele>351.25</ele><time>2026-04-26T09:23:41Z</time></trkpt><trkpt lat="44.372074844453785" lon="9.866086292921324"><ele>348.0</ele><time>2026-04-26T09:23:42Z</time></trkpt><trkpt lat="44.37216575546073" lon="9.866253277073582"><ele>345.0</ele><time>2026-04-26T09:23:43Z</time></trkpt><trkpt lat="44.372272610139916" lon="9.866349371499226"><ele>342.0</ele><time>2026-04-26T09:23:44Z</time></trkpt><trkpt lat="44.37243791084554" lon="9.866392032903734"><ele>339.0</ele><time>2026-04-26T09:23:46Z</time></trkpt><trkpt lat="44.37255806831243" lon="9.866397280422813"><ele>336.0</ele><time>2026-04-26T09:23:47Z</time></trkpt><trkpt lat="44.37268038663427" lon="9.866383873739986"><ele>336.0</ele><time>2026-04-26T09:23:48Z</time></trkpt><trkpt lat="44.3727865594251" lon="9.866324080553193"><ele>336.0</ele><time>2026-04-26T09:23:49Z</time></trkpt><trkpt lat="44.37287844914833" lon="9.866207495023879"><ele>336.0</ele><time>2026-04-26T09:23:50Z</time></trkpt><trkpt lat="44.37288719611447" lon="9.866004316515037"><ele>336.0</ele><time>2026-04-26T09:23:51Z</time></trkpt><trkpt lat="44.37292631860397" lon="9.865802894005009"><ele>334.5</ele><time>2026-04-26T09:23:52Z</time></trkpt><trkpt lat="44.37296645704726" lon="9.865605515675817"><ele>333.0</ele><time>2026-04-26T09:23:53Z</time></trkpt><trkpt lat="44.372993962911785" lon="9.865398340272318"><ele>331.5</ele><time>2026-04-26T09:23:54Z</time></trkpt><trkpt lat="44.37301983989449" lon="9.865216712262816"><ele>330.0</ele><time>2026-04-26T09:23:55Z</time></trkpt><trkpt lat="44.37304982831805" lon="9.865056293490051"><ele>330.0</ele><time>2026-04-26T09:23:56Z</time></trkpt><trkpt lat="44.37310103068337" lon="9.86492608161109"><ele>330.0</ele><time>2026-04-26T09:23:57Z</time></trkpt><trkpt lat="44.3732084513954" lon="9.864908251587075"><ele>330.0</ele><time>2026-04-26T09:23:58Z</time></trkpt><trkpt lat="44.37330567682026" lon="9.86489053035491"><ele>330.0</ele><time>2026-04-26T09:23:59Z</time></trkpt><trkpt lat="44.373379911733245" lon="9.864970936092726"><ele>330.0</ele><time>2026-04-26T09:24:00Z</time></trkpt><trkpt lat="44.37344429928647" lon="9.865056353573815"><ele>330.75</ele><time>2026-04-26T09:24:01Z</time></trkpt><trkpt lat="44.37346743852406" lon="9.865182215187147"><ele>331.5</ele><time>2026-04-26T09:24:02Z</time></trkpt><trkpt lat="44.37349192539876" lon="9.865361347367859"><ele>332.25</ele><time>2026-04-26T09:24:03Z</time></trkpt><trkpt lat="44.37351753560528" lon="9.865572677558772"><ele>333.0</ele><time>2026-04-26T09:24:04Z</time></trkpt><trkpt lat="44.373558479101035" lon="9.865772185082573"><ele>333.2</ele><time>2026-04-26T09:24:05Z</time></trkpt><trkpt lat="44.37357900903859" lon="9.865955483028612"><ele>333.4</ele><time>2026-04-26T09:24:06Z</time></trkpt><trkpt lat="44.373603997566065" lon="9.866120136178392"><ele>333.59999999999997</ele><time>2026-04-26T09:24:07Z</time></trkpt><trkpt lat="44.373645729212555" lon="9.866242703347528"><ele>333.79999999999995</ele><time>2026-04-26T09:24:08Z</time></trkpt><trkpt lat="44.37372423739795" lon="9.866317747121215"><ele>334.0</ele><time>2026-04-26T09:24:09Z</time></trkpt><trkpt lat="44.37381926950582" lon="9.866317256257819"><ele>331.5</ele><time>2026-04-26T09:24:10Z</time></trkpt><trkpt lat="44.3739058883784" lon="9.866234151927511"><ele>329.0</ele><time>2026-04-26T09:24:11Z</time></trkpt><trkpt lat="44.37395639999905" lon="9.866092990654344"><ele>326.5</ele><time>2026-04-26T09:24:12Z</time></trkpt><trkpt lat="44.37393869580719" lon="9.865925883157646"><ele>324.0</ele><time>2026-04-26T09:24:13Z</time></trkpt><trkpt lat="44.37392431919637" lon="9.865748084651715"><ele>324.0</ele><time>2026-04-26T09:24:14Z</time></trkpt><trkpt lat="44.37387513558526" lon="9.865560354552004"><ele>324.0</ele><time>2026-04-26T09:24:15Z</time></trkpt><trkpt lat="44.37383536706318" lon="9.86537217450918"><ele>324.0</ele><time>2026-04-26T09:24:16Z</time></trkpt><trkpt lat="44.3738023000524" lon="9.865184544419611"><ele>324.0</ele><time>2026-04-26T09:24:17Z</time></trkpt><trkpt lat="44.37377204511229" lon="9.865012972164592"><ele>323.79999999999995</ele><time>2026-04-26T09:24:18Z</time></trkpt><trkpt lat="44.37376270911537" lon="9.864851109387846"><ele>323.59999999999997</ele><time>2026-04-26T09:24:19Z</time></trkpt><trkpt lat="44.373755360902585" lon="9.864702780048441"><ele>323.4</ele><time>2026-04-26T09:24:20Z</time></trkpt><trkpt lat="44.37378047063173" lon="9.864582627958969"><ele>323.2</ele><time>2026-04-26T09:24:21Z</time></trkpt><trkpt lat="44.37384185169187" lon="9.864497826494151"><ele>323.0</ele><time>2026-04-26T09:24:22Z</time></trkpt><trkpt lat="44.373942818585945" lon="9.864477137794546"><ele>323.0</ele><time>2026-04-26T09:24:23Z</time></trkpt><trkpt lat="44.37404525700912" lon="9.86444666628196"><ele>323.0</ele><time>2026-04-26T09:24:24Z</time></trkpt><trkpt lat="44.37415547729635" lon="9.864473314799847"><ele>323.0</ele><time>2026-04-26T09:24:25Z</time></trkpt><trkpt lat="44.37423768886476" lon="9.864561672857123"><ele>323.0</ele><time>2026-04-26T09:24:26Z</time></trkpt><trkpt lat="44.37430925937529" lon="9.864704726352448"><ele>323.0</ele><time>2026-04-26T09:24:27Z</time></trkpt><trkpt lat="44.37439241322623" lon="9.864845337319407"><ele>323.0</ele><time>2026-04-26T09:24:28Z</time></trkpt><trkpt lat="44.37444456543794" lon="9.86500575100064"><ele>323.0</ele><time>2026-04-26T09:24:29Z</time></trkpt><trkpt lat="44.37451130498823" lon="9.8651551690766"><ele>323.0</ele><time>2026-04-26T09:24:30Z</time></trkpt><trkpt lat="44.374579614191774" lon="9.865308101257087"><ele>323.0</ele><time>2026-04-26T09:24:31Z</time></trkpt><trkpt lat="44.37466171627535" lon="9.86546014747162"><ele>322.5</ele><time>2026-04-26T09:24:32Z</time></trkpt><trkpt lat="44.374716156165114" lon="9.865625450802028"><ele>322.0</ele><time>2026-04-26T09:24:33Z</time></trkpt><trkpt lat="44.374787688302554" lon="9.865780434721172"><ele>321.5</ele><time>2026-04-26T09:24:34Z</time></trkpt><trkpt lat="44.3748474838913" lon="9.865945976144099"><ele>321.0</ele><time>2026-04-26T09:24:35Z</time></trkpt><trkpt lat="44.3748713401027" lon="9.866135027562782"><ele>319.3333333333333</ele><time>2026-04-26T09:24:36Z</time></trkpt><trkpt lat="44.374874123399" lon="9.866341026030948"><ele>317.66666666666663</ele><time>2026-04-26T09:24:37Z</time></trkpt><trkpt lat="44.37482638090453" lon="9.866563257108542"><ele>316.0</ele><time>2026-04-26T09:24:38Z</time></trkpt><trkpt lat="44.37476101448098" lon="9.866818306113032"><ele>313.5</ele><time>2026-04-26T09:24:39Z</time></trkpt><trkpt lat="44.3746544691801" lon="9.867095753705028"><ele>311.0</ele><time>2026-04-26T09:24:40Z</time></trkpt><trkpt lat="44.374556483567616" lon="9.867382452768421"><ele>308.0</ele><time>2026-04-26T09:24:41Z</time></trkpt><trkpt lat="44.37447033731284" lon="9.867661937872203"><ele>305.0</ele><time>2026-04-26T09:24:42Z</time></trkpt><trkpt lat="44.37438383607677" lon="9.867918515346256"><ele>302.0</ele><time>2026-04-26T09:24:43Z</time></trkpt><trkpt lat="44.37430448105526" lon="9.86817476682193"><ele>302.0</ele><time>2026-04-26T09:24:44Z</time></trkpt><trkpt lat="44.37422777199317" lon="9.868425850281557"><ele>302.0</ele><time>2026-04-26T09:24:45Z</time></trkpt><trkpt lat="44.37414374635441" lon="9.868656372348035"><ele>302.0</ele><time>2026-04-26T09:24:46Z</time></trkpt><trkpt lat="44.37407374741523" lon="9.868878360561435"><ele>302.6666666666667</ele><time>2026-04-26T09:24:47Z</time></trkpt><trkpt lat="44.37400412265525" lon="9.869095512552274"><ele>303.3333333333333</ele><time>2026-04-26T09:24:48Z</time></trkpt><trkpt lat="44.37393675293775" lon="9.869302679289236"><ele>304.0</ele><time>2026-04-26T09:24:49Z</time></trkpt><trkpt lat="44.373867089101864" lon="9.86950557042569"><ele>303.0</ele><time>2026-04-26T09:24:50Z</time></trkpt><trkpt lat="44.373803447412605" lon="9.869701034505107"><ele>302.0</ele><time>2026-04-26T09:24:51Z</time></trkpt><trkpt lat="44.37374446597279" lon="9.869882085504106"><ele>301.0</ele><time>2026-04-26T09:24:52Z</time></trkpt><trkpt lat="44.373707677226726" lon="9.870075508782142"><ele>300.0</ele><time>2026-04-26T09:24:53Z</time></trkpt><trkpt lat="44.37369082621588" lon="9.87028115375494"><ele>297.6666666666667</ele><time>2026-04-26T09:24:54Z</time></trkpt><trkpt lat="44.37369360394499" lon="9.870501051453235"><ele>295.33333333333337</ele><time>2026-04-26T09:24:55Z</time></trkpt><trkpt lat="44.37370182651339" lon="9.870729625162019"><ele>293.0</ele><time>2026-04-26T09:24:56Z</time></trkpt><trkpt lat="44.37371715693677" lon="9.870987918104062"><ele>291.0</ele><time>2026-04-26T09:24:57Z</time></trkpt><trkpt lat="44.373725788448844" lon="9.871258568737554"><ele>289.0</ele><time>2026-04-26T09:24:58Z</time></trkpt><trkpt lat="44.373732947946706" lon="9.87154455682017"><ele>287.0</ele><time>2026-04-26T09:24:59Z</time></trkpt><trkpt lat="44.37373654651056" lon="9.87181132869668"><ele>284.33333333333337</ele><time>2026-04-26T09:25:00Z</time></trkpt><trkpt lat="44.373740929045766" lon="9.872067827562963"><ele>281.6666666666667</ele><time>2026-04-26T09:25:01Z</time></trkpt><trkpt lat="44.37372170793882" lon="9.872316659725909"><ele>279.0</ele><time>2026-04-26T09:25:02Z</time></trkpt><trkpt lat="44.373681034083596" lon="9.872537432165926"><ele>275.6666666666667</ele><time>2026-04-26T09:25:03Z</time></trkpt><trkpt lat="44.37360771021106" lon="9.872754384775861"><ele>272.33333333333337</ele><time>2026-04-26T09:25:04Z</time></trkpt><trkpt lat="44.37351252981167" lon="9.872990070060485"><ele>269.0</ele><time>2026-04-26T09:25:05Z</time></trkpt><trkpt lat="44.373431713358855" lon="9.873218039647833"><ele>269.0</ele><time>2026-04-26T09:25:06Z</time></trkpt><trkpt lat="44.37334902632537" lon="9.87341501614989"><ele>269.0</ele><time>2026-04-26T09:25:07Z</time></trkpt><trkpt lat="44.37327899663437" lon="9.873591056878228"><ele>269.0</ele><time>2026-04-26T09:25:08Z</time></trkpt><trkpt lat="44.3732249766218" lon="9.873742528384259"><ele>269.0</ele><time>2026-04-26T09:25:09Z</time></trkpt><trkpt lat="44.373187057171" lon="9.873872310426465"><ele>267.8</ele><time>2026-04-26T09:25:10Z</time></trkpt><trkpt lat="44.37321800014234" lon="9.873993045093611"><ele>266.59999999999997</ele><time>2026-04-26T09:25:11Z</time></trkpt><trkpt lat="44.37329595262902" lon="9.874080498951495"><ele>265.4</ele><time>2026-04-26T09:25:12Z</time></trkpt><trkpt lat="44.37339940942283" lon="9.874100276491067"><ele>264.2</ele><time>2026-04-26T09:25:13Z</time></trkpt><trkpt lat="44.37348608605469" lon="9.874063430252436"><ele>263.0</ele><time>2026-04-26T09:25:14Z</time></trkpt><trkpt lat="44.37356538062715" lon="9.873940965473704"><ele>263.0</ele><time>2026-04-26T09:25:15Z</time></trkpt><trkpt lat="44.37364083978863" lon="9.87379745134389"><ele>263.0</ele><time>2026-04-26T09:25:16Z</time></trkpt><trkpt lat="44.37374969146562" lon="9.873674183005122"><ele>263.0</ele><time>2026-04-26T09:25:17Z</time></trkpt><trkpt lat="44.37385444417223" lon="9.873537722003743"><ele>263.0</ele><time>2026-04-26T09:25:18Z</time></trkpt><trkpt lat="44.37395959093757" lon="9.873388215295686"><ele>262.2</ele><time>2026-04-26T09:25:19Z</time></trkpt><trkpt lat="44.37405613058522" lon="9.873271465807827"><ele>261.4</ele><time>2026-04-26T09:25:20Z</time></trkpt><trkpt lat="44.37414463423806" lon="9.873189001164036"><ele>260.59999999999997</ele><time>2026-04-26T09:25:21Z</time></trkpt><trkpt lat="44.374247249388276" lon="9.873160108381315"><ele>259.8</ele><time>2026-04-26T09:25:22Z</time></trkpt><trkpt lat="44.374353187768484" lon="9.873196545782214"><ele>259.0</ele><time>2026-04-26T09:25:23Z</time></trkpt><trkpt lat="44.37445370102463" lon="9.873287200125372"><ele>259.0</ele><time>2026-04-26T09:25:24Z</time></trkpt><trkpt lat="44.374532380573704" lon="9.873418543777882"><ele>259.0</ele><time>2026-04-26T09:25:25Z</time></trkpt><trkpt lat="44.37460324194965" lon="9.87355056871961"><ele>259.0</ele><time>2026-04-26T09:25:26Z</time></trkpt><trkpt lat="44.37467299744575" lon="9.873658717809436"><ele>259.0</ele><time>2026-04-26T09:25:27Z</time></trkpt><trkpt lat="44.374735824134305" lon="9.87373486952053"><ele>259.0</ele><time>2026-04-26T09:25:28Z</time></trkpt><trkpt lat="44.37478828550202" lon="9.873813560763857"><ele>258.3333333333333</ele><time>2026-04-26T09:25:30Z</time></trkpt><trkpt lat="44.37479988389308" lon="9.873912882981099"><ele>257.66666666666663</ele><time>2026-04-26T09:25:33Z</time></trkpt><trkpt lat="44.374834426409876" lon="9.874048110627633"><ele>257.0</ele><time>2026-04-26T09:25:35Z</time></trkpt><trkpt lat="44.37491569984983" lon="9.87406949408045"><ele>256.3333333333333</ele><time>2026-04-26T09:25:37Z</time></trkpt><trkpt lat="44.374979512352326" lon="9.874068488249208"><ele>255.66666666666666</ele><time>2026-04-26T09:25:38Z</time></trkpt><trkpt lat="44.375058917567884" lon="9.87408445282378"><ele>255.0</ele><time>2026-04-26T09:25:39Z</time></trkpt><trkpt lat="44.37513710194372" lon="9.874151772019218"><ele>255.0</ele><time>2026-04-26T09:25:40Z</time></trkpt><trkpt lat="44.37520217516337" lon="9.874258907993989"><ele>255.0</ele><time>2026-04-26T09:25:41Z</time></trkpt><trkpt lat="44.375239734435596" lon="9.874349102278215"><ele>255.0</ele><time>2026-04-26T09:25:42Z</time></trkpt><trkpt lat="44.375309500794245" lon="9.874452519937547"><ele>255.0</ele><time>2026-04-26T09:25:44Z</time></trkpt><trkpt lat="44.37537093902443" lon="9.87449187962237"><ele>255.0</ele><time>2026-04-26T09:25:52Z</time></trkpt><trkpt lat="44.375433255296294" lon="9.874513314803641"><ele>255.0</ele><time>2026-04-26T09:25:54Z</time></trkpt><trkpt lat="44.37549378450969" lon="9.874445613867984"><ele>254.6</ele><time>2026-04-26T09:25:55Z</time></trkpt><trkpt lat="44.37555313152233" lon="9.874348314621788"><ele>254.2</ele><time>2026-04-26T09:25:56Z</time></trkpt><trkpt lat="44.37562813495481" lon="9.874256757743"><ele>253.8</ele><time>2026-04-26T09:25:57Z</time></trkpt><trkpt lat="44.375730062610614" lon="9.874227594899914"><ele>253.4</ele><time>2026-04-26T09:25:58Z</time></trkpt><trkpt lat="44.3758240325356" lon="9.874167809468812"><ele>253.0</ele><time>2026-04-26T09:25:59Z</time></trkpt><trkpt lat="44.37591968374215" lon="9.874129050918404"><ele>253.0</ele><time>2026-04-26T09:26:00Z</time></trkpt><trkpt lat="44.37600939382055" lon="9.87408923681957"><ele>253.0</ele><time>2026-04-26T09:26:01Z</time></trkpt><trkpt lat="44.376087769527174" lon="9.874049517468977"><ele>253.0</ele><time>2026-04-26T09:26:02Z</time></trkpt><trkpt lat="44.37615782101935" lon="9.874016932880203"><ele>253.0</ele><time>2026-04-26T09:26:03Z</time></trkpt><trkpt lat="44.37627683457411" lon="9.87396996039298"><ele>253.0</ele><time>2026-04-26T09:26:05Z</time></trkpt><trkpt lat="44.376380460818766" lon="9.873944751544267"><ele>253.16666666666666</ele><time>2026-04-26T09:26:07Z</time></trkpt><trkpt lat="44.37647221357898" lon="9.873938403255712"><ele>253.33333333333331</ele><time>2026-04-26T09:26:09Z</time></trkpt><trkpt lat="44.37654999437769" lon="9.873918019854587"><ele>253.5</ele><time>2026-04-26T09:26:11Z</time></trkpt><trkpt lat="44.37666706505763" lon="9.873905296922734"><ele>253.66666666666669</ele><time>2026-04-26T09:26:13Z</time></trkpt><trkpt lat="44.37673692938414" lon="9.873895494155564"><ele>253.83333333333334</ele><time>2026-04-26T09:26:14Z</time></trkpt><trkpt lat="44.37680127163909" lon="9.873888290636978"><ele>254.0</ele><time>2026-04-26T09:26:15Z</time></trkpt><trkpt lat="44.376881068718525" lon="9.87387031924308"><ele>254.0</ele><time>2026-04-26T09:26:17Z</time></trkpt><trkpt lat="44.37694718523451" lon="9.873879476891553"><ele>253.99999999999997</ele><time>2026-04-26T09:26:20Z</time></trkpt><trkpt lat="44.376803282834516" lon="9.873830917725511"><ele>253.99999999999997</ele><time>2026-04-26T09:26:32Z</time></trkpt><trkpt lat="44.376726933213696" lon="9.873838080030122"><ele>254.0</ele><time>2026-04-26T09:26:33Z</time></trkpt><trkpt lat="44.376631802008205" lon="9.873837223698107"><ele>254.0</ele><time>2026-04-26T09:26:34Z</time></trkpt><trkpt lat="44.37655335962878" lon="9.873852116209633"><ele>254.00000000000003</ele><time>2026-04-26T09:26:35Z</time></trkpt><trkpt lat="44.37648820951601" lon="9.873867122878883"><ele>254.0</ele><time>2026-04-26T09:26:36Z</time></trkpt><trkpt lat="44.37641640233282" lon="9.873884319871124"><ele>254.0</ele><time>2026-04-26T09:26:37Z</time></trkpt><trkpt lat="44.37633473962154" lon="9.873910772372616"><ele>254.0</ele><time>2026-04-26T09:26:38Z</time></trkpt><trkpt lat="44.37625215647466" lon="9.873934235805972"><ele>254.00000000000003</ele><time>2026-04-26T09:26:39Z</time></trkpt><trkpt lat="44.376175083743114" lon="9.873962729924752"><ele>254.0</ele><time>2026-04-26T09:26:40Z</time></trkpt><trkpt lat="44.37609649917873" lon="9.873993773720043"><ele>253.83333333333334</ele><time>2026-04-26T09:26:41Z</time></trkpt><trkpt lat="44.376019176556426" lon="9.874026339799988"><ele>253.66666666666669</ele><time>2026-04-26T09:26:42Z</time></trkpt><trkpt lat="44.37594457068496" lon="9.874056903574491"><ele>253.5</ele><time>2026-04-26T09:26:43Z</time></trkpt><trkpt lat="44.37587455923032" lon="9.874088597650946"><ele>253.33333333333331</ele><time>2026-04-26T09:26:44Z</time></trkpt><trkpt lat="44.37580657520021" lon="9.87412585661151"><ele>253.16666666666666</ele><time>2026-04-26T09:26:45Z</time></trkpt><trkpt lat="44.375689825260864" lon="9.874186424144648"><ele>253.0</ele><time>2026-04-26T09:26:47Z</time></trkpt><trkpt lat="44.375588720069985" lon="9.874240250254704"><ele>252.99999999999997</ele><time>2026-04-26T09:26:49Z</time></trkpt><trkpt lat="44.375522629704385" lon="9.87439279204746"><ele>253.0</ele><time>2026-04-26T09:26:52Z</time></trkpt><trkpt lat="44.37551814298949" lon="9.87427922893549"><ele>253.0</ele><time>2026-04-26T09:26:53Z</time></trkpt><trkpt lat="44.37545567355595" lon="9.874372558464325"><ele>253.0</ele><time>2026-04-26T09:28:09Z</time></trkpt><trkpt lat="44.37539519637282" lon="9.874405953876042"><ele>252.99999999999997</ele><time>2026-04-26T09:28:12Z</time></trkpt><trkpt lat="44.37532317225574" lon="9.874347794562603"><ele>253.0</ele><time>2026-04-26T09:28:14Z</time></trkpt><trkpt lat="44.37526302944216" lon="9.874239517321064"><ele>253.4</ele><time>2026-04-26T09:28:16Z</time></trkpt><trkpt lat="44.37519416918756" lon="9.874148808453803"><ele>253.8</ele><time>2026-04-26T09:28:18Z</time></trkpt><trkpt lat="44.37510984560322" lon="9.874060667520313"><ele>254.2</ele><time>2026-04-26T09:28:20Z</time></trkpt><trkpt lat="44.375019544414215" lon="9.873955363379933"><ele>254.6</ele><time>2026-04-26T09:28:22Z</time></trkpt><trkpt lat="44.374941241527495" lon="9.87387232804636"><ele>255.0</ele><time>2026-04-26T09:28:24Z</time></trkpt><trkpt lat="44.374872759505216" lon="9.8738601638854"><ele>255.0</ele><time>2026-04-26T09:28:26Z</time></trkpt><trkpt lat="44.37481189206588" lon="9.873956968165075"><ele>255.0</ele><time>2026-04-26T09:28:29Z</time></trkpt><trkpt lat="44.374834674658516" lon="9.874054699324663"><ele>255.0</ele><time>2026-04-26T09:28:31Z</time></trkpt><trkpt lat="44.37489481853074" lon="9.87414614629941"><ele>255.0</ele><time>2026-04-26T09:28:33Z</time></trkpt><trkpt lat="44.37488265591162" lon="9.874251782474092"><ele>255.0</ele><time>2026-04-26T09:28:34Z</time></trkpt><trkpt lat="44.37489103155399" lon="9.87437742404629"><ele>255.0</ele><time>2026-04-26T09:28:36Z</time></trkpt><trkpt lat="44.374904078442924" lon="9.874492950643665"><ele>254.5</ele><time>2026-04-26T09:28:38Z</time></trkpt><trkpt lat="44.37491837142311" lon="9.87459304847611"><ele>254.0</ele><time>2026-04-26T09:28:47Z</time></trkpt><trkpt lat="44.37494219591496" lon="9.874696303340109"><ele>253.5</ele><time>2026-04-26T09:28:49Z</time></trkpt><trkpt lat="44.374966558151876" lon="9.874794373093659"><ele>253.0</ele><time>2026-04-26T09:28:50Z</time></trkpt><trkpt lat="44.37498366719471" lon="9.87491716346363"><ele>252.5</ele><time>2026-04-26T09:28:51Z</time></trkpt><trkpt lat="44.3750013863538" lon="9.875043994248234"><ele>252.0</ele><time>2026-04-26T09:28:52Z</time></trkpt><trkpt lat="44.37502303344413" lon="9.875182787291267"><ele>251.66666666666666</ele><time>2026-04-26T09:28:53Z</time></trkpt><trkpt lat="44.375046245109836" lon="9.875313983267938"><ele>251.33333333333331</ele><time>2026-04-26T09:28:54Z</time></trkpt><trkpt lat="44.37507185450639" lon="9.87544208441701"><ele>251.0</ele><time>2026-04-26T09:28:55Z</time></trkpt><trkpt lat="44.375089270764015" lon="9.875560821466292"><ele>250.66666666666666</ele><time>2026-04-26T09:28:56Z</time></trkpt><trkpt lat="44.375112387522115" lon="9.875667739788037"><ele>250.33333333333331</ele><time>2026-04-26T09:28:57Z</time></trkpt><trkpt lat="44.37513428811365" lon="9.87578484438977"><ele>250.0</ele><time>2026-04-26T09:28:58Z</time></trkpt><trkpt lat="44.37515102835322" lon="9.875910156591669"><ele>249.6</ele><time>2026-04-26T09:28:59Z</time></trkpt><trkpt lat="44.37517766795223" lon="9.876038604498614"><ele>249.2</ele><time>2026-04-26T09:29:00Z</time></trkpt><trkpt lat="44.37520026025317" lon="9.876177566167794"><ele>248.8</ele><time>2026-04-26T09:29:01Z</time></trkpt><trkpt lat="44.37522272207761" lon="9.876308846847001"><ele>248.4</ele><time>2026-04-26T09:29:02Z</time></trkpt><trkpt lat="44.375241523591235" lon="9.876441441503395"><ele>248.0</ele><time>2026-04-26T09:29:03Z</time></trkpt><trkpt lat="44.375250687460216" lon="9.876564153600263"><ele>248.00000000000003</ele><time>2026-04-26T09:29:04Z</time></trkpt><trkpt lat="44.375275770608596" lon="9.876674021548014"><ele>248.0</ele><time>2026-04-26T09:29:05Z</time></trkpt><trkpt lat="44.375293697176915" lon="9.876777556879198"><ele>248.0</ele><time>2026-04-26T09:29:06Z</time></trkpt><trkpt lat="44.37530563063316" lon="9.876875151071085"><ele>248.0</ele><time>2026-04-26T09:29:07Z</time></trkpt><trkpt lat="44.375326100126124" lon="9.876982494351223"><ele>248.00000000000003</ele><time>2026-04-26T09:29:08Z</time></trkpt><trkpt lat="44.37534220989084" lon="9.877091005643114"><ele>248.0</ele><time>2026-04-26T09:29:09Z</time></trkpt><trkpt lat="44.37536053202661" lon="9.87720869804526"><ele>248.0</ele><time>2026-04-26T09:29:10Z</time></trkpt><trkpt lat="44.37537776434881" lon="9.87733315886915"><ele>248.0</ele><time>2026-04-26T09:29:11Z</time></trkpt><trkpt lat="44.37539332814646" lon="9.87745280549049"><ele>248.0</ele><time>2026-04-26T09:29:12Z</time></trkpt><trkpt lat="44.3754157069131" lon="9.877580904244144"><ele>248.0</ele><time>2026-04-26T09:29:13Z</time></trkpt><trkpt lat="44.37543831105647" lon="9.877704836044558"><ele>248.0</ele><time>2026-04-26T09:29:14Z</time></trkpt><trkpt lat="44.37546004634921" lon="9.87782455194477"><ele>248.00000000000003</ele><time>2026-04-26T09:29:15Z</time></trkpt><trkpt lat="44.37548114112698" lon="9.877939340221056"><ele>248.0</ele><time>2026-04-26T09:29:16Z</time></trkpt><trkpt lat="44.37549908817331" lon="9.878035862834258"><ele>248.0</ele><time>2026-04-26T09:29:17Z</time></trkpt><trkpt lat="44.37552505996764" lon="9.878162794112528"><ele>248.0</ele><time>2026-04-26T09:29:19Z</time></trkpt><trkpt lat="44.37554102175594" lon="9.878287851972521"><ele>248.00000000000003</ele><time>2026-04-26T09:29:21Z</time></trkpt><trkpt lat="44.375558567839086" lon="9.878390485656588"><ele>248.0</ele><time>2026-04-26T09:29:24Z</time></trkpt><trkpt lat="44.37558202950868" lon="9.878478501781993"><ele>247.83333333333334</ele><time>2026-04-26T09:29:27Z</time></trkpt><trkpt lat="44.375583580898535" lon="9.878593743103172"><ele>247.66666666666669</ele><time>2026-04-26T09:29:30Z</time></trkpt><trkpt lat="44.37560896235006" lon="9.878691868080603"><ele>247.5</ele><time>2026-04-26T09:29:32Z</time></trkpt><trkpt lat="44.375623089336806" lon="9.878779192087993"><ele>247.33333333333331</ele><time>2026-04-26T09:29:39Z</time></trkpt><trkpt lat="44.37563964432613" lon="9.878886387502243"><ele>247.16666666666666</ele><time>2026-04-26T09:29:41Z</time></trkpt><trkpt lat="44.37565410228821" lon="9.878981207713053"><ele>247.0</ele><time>2026-04-26T09:29:43Z</time></trkpt><trkpt lat="44.37567605591637" lon="9.879111977472515"><ele>247.0</ele><time>2026-04-26T09:29:45Z</time></trkpt><trkpt lat="44.37569961313465" lon="9.879260657974884"><ele>247.0</ele><time>2026-04-26T09:29:47Z</time></trkpt><trkpt lat="44.37572150297108" lon="9.879378141289864"><ele>247.0</ele><time>2026-04-26T09:29:49Z</time></trkpt><trkpt lat="44.37573667940464" lon="9.879479618813335"><ele>247.0</ele><time>2026-04-26T09:29:51Z</time></trkpt><trkpt lat="44.3757557129135" lon="9.879576814427121"><ele>247.0</ele><time>2026-04-26T09:29:53Z</time></trkpt><trkpt lat="44.37576619538177" lon="9.879732923033671"><ele>246.99999999999997</ele><time>2026-04-26T09:29:56Z</time></trkpt><trkpt lat="44.3757820683524" lon="9.879831945078456"><ele>247.0</ele><time>2026-04-26T09:29:57Z</time></trkpt><trkpt lat="44.3758107836248" lon="9.879932967909246"><ele>247.0</ele><time>2026-04-26T09:29:58Z</time></trkpt><trkpt lat="44.375828176004944" lon="9.880034761692349"><ele>247.0</ele><time>2026-04-26T09:29:59Z</time></trkpt><trkpt lat="44.37584746490651" lon="9.880137839727958"><ele>246.99999999999997</ele><time>2026-04-26T09:30:00Z</time></trkpt><trkpt lat="44.375865659610895" lon="9.880243496956556"><ele>247.0</ele><time>2026-04-26T09:30:01Z</time></trkpt><trkpt lat="44.37588309553369" lon="9.880353250249875"><ele>246.99999999999997</ele><time>2026-04-26T09:30:02Z</time></trkpt><trkpt lat="44.375894646736576" lon="9.880463231175394"><ele>247.0</ele><time>2026-04-26T09:30:03Z</time></trkpt><trkpt lat="44.375907454789164" lon="9.880564208790336"><ele>247.0</ele><time>2026-04-26T09:30:04Z</time></trkpt><trkpt lat="44.375924746458146" lon="9.880666190423096"><ele>247.0</ele><time>2026-04-26T09:30:05Z</time></trkpt><trkpt lat="44.37593864451827" lon="9.880768262833893"><ele>246.99999999999997</ele><time>2026-04-26T09:30:06Z</time></trkpt><trkpt lat="44.37595348596708" lon="9.880868026778764"><ele>247.0</ele><time>2026-04-26T09:30:07Z</time></trkpt><trkpt lat="44.3759792312079" lon="9.8809771009739"><ele>246.49999999999997</ele><time>2026-04-26T09:30:08Z</time></trkpt><trkpt lat="44.37599998102389" lon="9.881081103614918"><ele>246.0</ele><time>2026-04-26T09:30:09Z</time></trkpt><trkpt lat="44.37601408068383" lon="9.88117447429596"><ele>245.5</ele><time>2026-04-26T09:30:10Z</time></trkpt><trkpt lat="44.37603216415013" lon="9.881324432091127"><ele>245.0</ele><time>2026-04-26T09:30:12Z</time></trkpt><trkpt lat="44.376050387604494" lon="9.881438505395739"><ele>244.49999999999997</ele><time>2026-04-26T09:30:16Z</time></trkpt><trkpt lat="44.37606586507542" lon="9.881538587937767"><ele>244.0</ele><time>2026-04-26T09:30:19Z</time></trkpt><trkpt lat="44.37608066659851" lon="9.881666705359917"><ele>244.0</ele><time>2026-04-26T09:30:22Z</time></trkpt><trkpt lat="44.376097416036636" lon="9.88175795508497"><ele>243.99999999999997</ele><time>2026-04-26T09:30:25Z</time></trkpt><trkpt lat="44.37611661263905" lon="9.881872557920929"><ele>243.99999999999997</ele><time>2026-04-26T09:30:27Z</time></trkpt><trkpt lat="44.37614513481067" lon="9.88202210942844"><ele>244.0</ele><time>2026-04-26T09:30:29Z</time></trkpt><trkpt lat="44.376164073665336" lon="9.882155957015316"><ele>244.0</ele><time>2026-04-26T09:30:31Z</time></trkpt><trkpt lat="44.37618777821448" lon="9.882308502249238"><ele>242.79999999999998</ele><time>2026-04-26T09:30:33Z</time></trkpt><trkpt lat="44.37621361152192" lon="9.882468297822262"><ele>241.59999999999997</ele><time>2026-04-26T09:30:35Z</time></trkpt><trkpt lat="44.37623732485224" lon="9.882637983775973"><ele>240.4</ele><time>2026-04-26T09:30:37Z</time></trkpt><trkpt lat="44.37625157335042" lon="9.882727458575564"><ele>239.2</ele><time>2026-04-26T09:30:38Z</time></trkpt><trkpt lat="44.37626721271583" lon="9.8828145395065"><ele>238.0</ele><time>2026-04-26T09:30:39Z</time></trkpt><trkpt lat="44.37629849292101" lon="9.882985040548443"><ele>238.0</ele><time>2026-04-26T09:30:41Z</time></trkpt><trkpt lat="44.37632323393969" lon="9.883134501905259"><ele>238.0</ele><time>2026-04-26T09:30:43Z</time></trkpt><trkpt lat="44.37632535625994" lon="9.883248775478764"><ele>238.0</ele><time>2026-04-26T09:30:45Z</time></trkpt><trkpt lat="44.37635479879722" lon="9.88338778928467"><ele>238.0</ele><time>2026-04-26T09:30:47Z</time></trkpt><trkpt lat="44.376367117568684" lon="9.883515610628194"><ele>238.0</ele><time>2026-04-26T09:30:49Z</time></trkpt><trkpt lat="44.37638092122849" lon="9.883604216307264"><ele>238.2</ele><time>2026-04-26T09:30:51Z</time></trkpt><trkpt lat="44.37640342031725" lon="9.883748641004319"><ele>238.4</ele><time>2026-04-26T09:30:53Z</time></trkpt><trkpt lat="44.376431791166155" lon="9.88391959069043"><ele>238.59999999999997</ele><time>2026-04-26T09:30:55Z</time></trkpt><trkpt lat="44.37644572658505" lon="9.88400655347011"><ele>238.79999999999998</ele><time>2026-04-26T09:30:56Z</time></trkpt><trkpt lat="44.3764690630214" lon="9.884149917357885"><ele>239.0</ele><time>2026-04-26T09:30:58Z</time></trkpt><trkpt lat="44.37649607969245" lon="9.88431174079546"><ele>239.00000000000003</ele><time>2026-04-26T09:31:00Z</time></trkpt><trkpt lat="44.37651895993357" lon="9.88439798105839"><ele>239.0</ele><time>2026-04-26T09:31:01Z</time></trkpt><trkpt lat="44.376532266632" lon="9.884491528721798"><ele>239.0</ele><time>2026-04-26T09:31:02Z</time></trkpt><trkpt lat="44.37655446776861" lon="9.884637020777259"><ele>239.0</ele><time>2026-04-26T09:31:04Z</time></trkpt><trkpt lat="44.37658153386469" lon="9.884756900523954"><ele>239.00000000000003</ele><time>2026-04-26T09:31:06Z</time></trkpt><trkpt lat="44.376589302446135" lon="9.884866196079992"><ele>239.0</ele><time>2026-04-26T09:31:08Z</time></trkpt><trkpt lat="44.37657778173539" lon="9.884954751572856"><ele>239.00000000000003</ele><time>2026-04-26T09:31:10Z</time></trkpt><trkpt lat="44.376610315988415" lon="9.885031852968861"><ele>239.0</ele><time>2026-04-26T09:31:47Z</time></trkpt><trkpt lat="44.37662907883826" lon="9.885137520415686"><ele>239.0</ele><time>2026-04-26T09:31:51Z</time></trkpt><trkpt lat="44.3766803499939" lon="9.885211665284121"><ele>239.0</ele><time>2026-04-26T09:31:53Z</time></trkpt><trkpt lat="44.37679964271459" lon="9.885192324699927"><ele>239.00000000000003</ele><time>2026-04-26T09:31:55Z</time></trkpt><trkpt lat="44.376890792979154" lon="9.885164861308233"><ele>239.0</ele><time>2026-04-26T09:31:57Z</time></trkpt><trkpt lat="44.3769733368771" lon="9.885166768636063"><ele>239.83333333333334</ele><time>2026-04-26T09:32:00Z</time></trkpt><trkpt lat="44.37706556194785" lon="9.88514159605557"><ele>240.66666666666669</ele><time>2026-04-26T09:32:46Z</time></trkpt><trkpt lat="44.37713384065392" lon="9.885106511412395"><ele>241.5</ele><time>2026-04-26T09:32:47Z</time></trkpt><trkpt lat="44.377222456346374" lon="9.885069250220349"><ele>242.33333333333331</ele><time>2026-04-26T09:32:48Z</time></trkpt><trkpt lat="44.37731416469054" lon="9.885042802137336"><ele>243.16666666666666</ele><time>2026-04-26T09:32:49Z</time></trkpt><trkpt lat="44.37739586498819" lon="9.885027255280871"><ele>244.0</ele><time>2026-04-26T09:32:50Z</time></trkpt><trkpt lat="44.377496894675694" lon="9.884984110273148"><ele>244.0</ele><time>2026-04-26T09:32:51Z</time></trkpt><trkpt lat="44.377620815026525" lon="9.884937801699722"><ele>244.0</ele><time>2026-04-26T09:32:52Z</time></trkpt><trkpt lat="44.37774704777993" lon="9.884890248144531"><ele>244.0</ele><time>2026-04-26T09:32:53Z</time></trkpt><trkpt lat="44.37786986404143" lon="9.884845287322209"><ele>244.0</ele><time>2026-04-26T09:32:54Z</time></trkpt><trkpt lat="44.37799317725051" lon="9.884797931891534"><ele>245.0</ele><time>2026-04-26T09:32:55Z</time></trkpt><trkpt lat="44.37810891819086" lon="9.884752212111149"><ele>246.0</ele><time>2026-04-26T09:32:56Z</time></trkpt><trkpt lat="44.37822561954507" lon="9.884708130144576"><ele>247.0</ele><time>2026-04-26T09:32:57Z</time></trkpt><trkpt lat="44.37833278238076" lon="9.884663440119255"><ele>248.0</ele><time>2026-04-26T09:32:58Z</time></trkpt><trkpt lat="44.37844487557336" lon="9.884615695520232"><ele>248.0</ele><time>2026-04-26T09:32:59Z</time></trkpt><trkpt lat="44.37855516900439" lon="9.884572261876581"><ele>248.0</ele><time>2026-04-26T09:33:00Z</time></trkpt><trkpt lat="44.378656621186735" lon="9.884530272648087"><ele>248.0</ele><time>2026-04-26T09:33:01Z</time></trkpt><trkpt lat="44.37876326956504" lon="9.884484512475854"><ele>248.0</ele><time>2026-04-26T09:33:02Z</time></trkpt><trkpt lat="44.37886494292061" lon="9.884432891852384"><ele>248.0</ele><time>2026-04-26T09:33:03Z</time></trkpt><trkpt lat="44.378970187343626" lon="9.884380607254837"><ele>249.25</ele><time>2026-04-26T09:33:04Z</time></trkpt><trkpt lat="44.37907136161845" lon="9.884320927667343"><ele>250.5</ele><time>2026-04-26T09:33:05Z</time></trkpt><trkpt lat="44.379180268539535" lon="9.88426365105182"><ele>251.75</ele><time>2026-04-26T09:33:06Z</time></trkpt><trkpt lat="44.37929457079588" lon="9.884203565848964"><ele>253.0</ele><time>2026-04-26T09:33:07Z</time></trkpt><trkpt lat="44.37941423214008" lon="9.884145010034608"><ele>252.0</ele><time>2026-04-26T09:33:08Z</time></trkpt><trkpt lat="44.37954120379662" lon="9.88409844207251"><ele>251.0</ele><time>2026-04-26T09:33:09Z</time></trkpt><trkpt lat="44.379675285351155" lon="9.88406399289079"><ele>250.0</ele><time>2026-04-26T09:33:10Z</time></trkpt><trkpt lat="44.37981622047872" lon="9.8840524350011"><ele>249.0</ele><time>2026-04-26T09:33:11Z</time></trkpt><trkpt lat="44.379960408016686" lon="9.88407143549735"><ele>249.0</ele><time>2026-04-26T09:33:12Z</time></trkpt><trkpt lat="44.38011333209092" lon="9.884125941366849"><ele>249.0</ele><time>2026-04-26T09:33:13.019Z</time></trkpt><trkpt lat="44.380278846074646" lon="9.884222832367017"><ele>249.0</ele><time>2026-04-26T09:33:14.023Z</time></trkpt><trkpt lat="44.38042144689712" lon="9.884343278756582"><ele>252.75</ele><time>2026-04-26T09:33:15.017Z</time></trkpt><trkpt lat="44.38053107184171" lon="9.884469050616264"><ele>256.5</ele><time>2026-04-26T09:33:16.014Z</time></trkpt><trkpt lat="44.3806664502967" lon="9.884450180395035"><ele>260.25</ele><time>2026-04-26T09:33:17.013Z</time></trkpt><trkpt lat="44.380760133690174" lon="9.884508457153842"><ele>264.0</ele><time>2026-04-26T09:33:18.021Z</time></trkpt><trkpt lat="44.38084414649511" lon="9.884560718152484"><ele>260.0</ele><time>2026-04-26T09:33:19.019Z</time></trkpt><trkpt lat="44.381778524298575" lon="9.88466751762655"><ele>260.0</ele><time>2026-04-26T09:33:25Z</time></trkpt><trkpt lat="44.38189989477057" lon="9.884645588927784"><ele>260.0</ele><time>2026-04-26T09:33:26Z</time></trkpt><trkpt lat="44.38199734810424" lon="9.884601701795045"><ele>260.0</ele><time>2026-04-26T09:33:27Z</time></trkpt><trkpt lat="44.38209467360426" lon="9.88450182321882"><ele>260.0</ele><time>2026-04-26T09:33:28Z</time></trkpt><trkpt lat="44.3822126302223" lon="9.884405699747365"><ele>258.5</ele><time>2026-04-26T09:33:29Z</time></trkpt><trkpt lat="44.38232497154677" lon="9.884290239771312"><ele>257.0</ele><time>2026-04-26T09:33:30Z</time></trkpt><trkpt lat="44.382427669159135" lon="9.884213661952257"><ele>255.5</ele><time>2026-04-26T09:33:30.999Z</time></trkpt><trkpt lat="44.38253723730129" lon="9.884107183976473"><ele>254.0</ele><time>2026-04-26T09:33:31.999Z</time></trkpt><trkpt lat="44.38264226763026" lon="9.883997633525999"><ele>252.75</ele><time>2026-04-26T09:33:32.999Z</time></trkpt><trkpt lat="44.3827461014204" lon="9.883893045136572"><ele>251.5</ele><time>2026-04-26T09:33:33.999Z</time></trkpt><trkpt lat="44.38286939348526" lon="9.883828998212547"><ele>250.25</ele><time>2026-04-26T09:33:34.999Z</time></trkpt><trkpt lat="44.383000777673814" lon="9.883832826279344"><ele>249.0</ele><time>2026-04-26T09:33:35.999Z</time></trkpt><trkpt lat="44.38313518043373" lon="9.883818717959395"><ele>249.0</ele><time>2026-04-26T09:33:36.999Z</time></trkpt><trkpt lat="44.3832723149583" lon="9.883777554601947"><ele>249.0</ele><time>2026-04-26T09:33:37.999Z</time></trkpt><trkpt lat="44.38340896172289" lon="9.883775009428266"><ele>249.0</ele><time>2026-04-26T09:33:38.999Z</time></trkpt><trkpt lat="44.38354371621954" lon="9.883754401343607"><ele>249.0</ele><time>2026-04-26T09:33:39.999Z</time></trkpt><trkpt lat="44.38367893893704" lon="9.883740886785136"><ele>249.0</ele><time>2026-04-26T09:33:40.999Z</time></trkpt><trkpt lat="44.38382976086944" lon="9.883729723960403"><ele>249.0</ele><time>2026-04-26T09:33:41.999Z</time></trkpt><trkpt lat="44.38398273096489" lon="9.883717279057091"><ele>249.0</ele><time>2026-04-26T09:33:42.999Z</time></trkpt><trkpt lat="44.384135952363295" lon="9.883705191790387"><ele>250.33333333333331</ele><time>2026-04-26T09:33:43.999Z</time></trkpt><trkpt lat="44.38429100787046" lon="9.883720856164736"><ele>251.66666666666666</ele><time>2026-04-26T09:33:45Z</time></trkpt><trkpt lat="44.384444912302854" lon="9.883743994005322"><ele>253.0</ele><time>2026-04-26T09:33:46Z</time></trkpt><trkpt lat="44.38459094611652" lon="9.883762111872278"><ele>253.75</ele><time>2026-04-26T09:33:47Z</time></trkpt><trkpt lat="44.38473962537591" lon="9.883775690929935"><ele>254.5</ele><time>2026-04-26T09:33:48Z</time></trkpt><trkpt lat="44.38488152294363" lon="9.883794682883094"><ele>255.25</ele><time>2026-04-26T09:33:49Z</time></trkpt><trkpt lat="44.38501685573247" lon="9.883816644812947"><ele>256.0</ele><time>2026-04-26T09:33:50Z</time></trkpt><trkpt lat="44.38515013672632" lon="9.883838662939942"><ele>256.0</ele><time>2026-04-26T09:33:51Z</time></trkpt><trkpt lat="44.385283512076995" lon="9.883862927247378"><ele>256.0</ele><time>2026-04-26T09:33:52Z</time></trkpt><trkpt lat="44.38541623842922" lon="9.883884766977058"><ele>256.0</ele><time>2026-04-26T09:33:53Z</time></trkpt><trkpt lat="44.3855447162009" lon="9.883905011855145"><ele>256.0</ele><time>2026-04-26T09:33:54Z</time></trkpt><trkpt lat="44.38565699468058" lon="9.883911100971885"><ele>256.5</ele><time>2026-04-26T09:33:55Z</time></trkpt><trkpt lat="44.38579861463536" lon="9.88393689923014"><ele>257.0</ele><time>2026-04-26T09:33:56Z</time></trkpt><trkpt lat="44.385943277688554" lon="9.88396146917074"><ele>257.5</ele><time>2026-04-26T09:33:57Z</time></trkpt><trkpt lat="44.38607867886014" lon="9.883982920757242"><ele>258.0</ele><time>2026-04-26T09:33:58Z</time></trkpt><trkpt lat="44.38621217606249" lon="9.883999236167917"><ele>258.75</ele><time>2026-04-26T09:33:59Z</time></trkpt><trkpt lat="44.386346546955" lon="9.884010899087764"><ele>259.5</ele><time>2026-04-26T09:34:00Z</time></trkpt><trkpt lat="44.3864849445633" lon="9.884026371378955"><ele>260.25</ele><time>2026-04-26T09:34:01Z</time></trkpt><trkpt lat="44.38662186331469" lon="9.884049016324232"><ele>261.0</ele><time>2026-04-26T09:34:02Z</time></trkpt><trkpt lat="44.38675546511006" lon="9.884084453542892"><ele>261.0</ele><time>2026-04-26T09:34:03Z</time></trkpt><trkpt lat="44.38689240036023" lon="9.884110680639056"><ele>261.0</ele><time>2026-04-26T09:34:04Z</time></trkpt><trkpt lat="44.38702919208716" lon="9.884129850020154"><ele>261.0</ele><time>2026-04-26T09:34:05Z</time></trkpt><trkpt lat="44.38716544477855" lon="9.884141464747797"><ele>261.0</ele><time>2026-04-26T09:34:06Z</time></trkpt><trkpt lat="44.38730179530411" lon="9.884152515842759"><ele>262.0</ele><time>2026-04-26T09:34:07Z</time></trkpt><trkpt lat="44.38743846155698" lon="9.884172959790977"><ele>263.0</ele><time>2026-04-26T09:34:08Z</time></trkpt><trkpt lat="44.38757484360334" lon="9.884196944007703"><ele>264.0</ele><time>2026-04-26T09:34:09Z</time></trkpt><trkpt lat="44.38771234843146" lon="9.884218207667645"><ele>265.0</ele><time>2026-04-26T09:34:10Z</time></trkpt><trkpt lat="44.387851211788366" lon="9.884240544722473"><ele>265.0</ele><time>2026-04-26T09:34:11Z</time></trkpt><trkpt lat="44.38798964899037" lon="9.884267919785096"><ele>265.0</ele><time>2026-04-26T09:34:12Z</time></trkpt><trkpt lat="44.388127192203456" lon="9.88428252874401"><ele>265.0</ele><time>2026-04-26T09:34:13Z</time></trkpt><trkpt lat="44.38826585334399" lon="9.884301105238944"><ele>265.0</ele><time>2026-04-26T09:34:14Z</time></trkpt><trkpt lat="44.388401915699625" lon="9.884323242573936"><ele>265.0</ele><time>2026-04-26T09:34:15Z</time></trkpt><trkpt lat="44.38853456871674" lon="9.884339600845362"><ele>265.0</ele><time>2026-04-26T09:34:16Z</time></trkpt><trkpt lat="44.388670516293594" lon="9.884368741644256"><ele>265.0</ele><time>2026-04-26T09:34:17Z</time></trkpt><trkpt lat="44.38881843899362" lon="9.884389808175317"><ele>265.0</ele><time>2026-04-26T09:34:18Z</time></trkpt><trkpt lat="44.38895274786105" lon="9.884395839835374"><ele>265.0</ele><time>2026-04-26T09:34:19Z</time></trkpt><trkpt lat="44.3890947536024" lon="9.884417721439009"><ele>265.0</ele><time>2026-04-26T09:34:20Z</time></trkpt><trkpt lat="44.38924225720459" lon="9.884424939054425"><ele>265.0</ele><time>2026-04-26T09:34:21Z</time></trkpt><trkpt lat="44.389389064516564" lon="9.88441872268876"><ele>265.0</ele><time>2026-04-26T09:34:22Z</time></trkpt><trkpt lat="44.389536168765815" lon="9.884407756794364"><ele>265.75</ele><time>2026-04-26T09:34:23Z</time></trkpt><trkpt lat="44.389679878458175" lon="9.884392063616636"><ele>266.5</ele><time>2026-04-26T09:34:24Z</time></trkpt><trkpt lat="44.389826375895844" lon="9.884356209485157"><ele>267.25</ele><time>2026-04-26T09:34:25Z</time></trkpt><trkpt lat="44.389973214641124" lon="9.884315836491371"><ele>268.0</ele><time>2026-04-26T09:34:26Z</time></trkpt><trkpt lat="44.39011458450845" lon="9.884265458257133"><ele>270.25</ele><time>2026-04-26T09:34:27Z</time></trkpt><trkpt lat="44.39025086117833" lon="9.884214140445602"><ele>272.5</ele><time>2026-04-26T09:34:28Z</time></trkpt><trkpt lat="44.390381613223724" lon="9.884132879324326"><ele>274.75</ele><time>2026-04-26T09:34:29Z</time></trkpt><trkpt lat="44.39051711772223" lon="9.884045127884526"><ele>277.0</ele><time>2026-04-26T09:34:30Z</time></trkpt><trkpt lat="44.39063985339039" lon="9.883961782664834"><ele>277.0</ele><time>2026-04-26T09:34:31Z</time></trkpt><trkpt lat="44.39074221379209" lon="9.88387889770453"><ele>277.0</ele><time>2026-04-26T09:34:32Z</time></trkpt><trkpt lat="44.390839703849224" lon="9.88379627408522"><ele>277.0</ele><time>2026-04-26T09:34:33Z</time></trkpt><trkpt lat="44.390931359660485" lon="9.883712437270637"><ele>277.0</ele><time>2026-04-26T09:34:34Z</time></trkpt><trkpt lat="44.39101114789524" lon="9.883622547681277"><ele>277.0</ele><time>2026-04-26T09:34:35Z</time></trkpt><trkpt lat="44.39109783249839" lon="9.883538357272164"><ele>277.0</ele><time>2026-04-26T09:34:36Z</time></trkpt><trkpt lat="44.3911804775708" lon="9.883449771678276"><ele>277.0</ele><time>2026-04-26T09:34:37Z</time></trkpt><trkpt lat="44.39126468823598" lon="9.88335752728754"><ele>277.0</ele><time>2026-04-26T09:34:38Z</time></trkpt><trkpt lat="44.39135319629518" lon="9.883269881322517"><ele>277.0</ele><time>2026-04-26T09:34:39Z</time></trkpt><trkpt lat="44.3914455574076" lon="9.883178447861358"><ele>277.0</ele><time>2026-04-26T09:34:40Z</time></trkpt><trkpt lat="44.39154924862023" lon="9.883077739756414"><ele>278.25</ele><time>2026-04-26T09:34:41Z</time></trkpt><trkpt lat="44.391655403463034" lon="9.882975624097881"><ele>279.5</ele><time>2026-04-26T09:34:42Z</time></trkpt><trkpt lat="44.391756542331834" lon="9.882864231819182"><ele>280.75</ele><time>2026-04-26T09:34:43Z</time></trkpt><trkpt lat="44.39186110126406" lon="9.882753483648006"><ele>282.0</ele><time>2026-04-26T09:34:44Z</time></trkpt><trkpt lat="44.39196329051668" lon="9.882648513006403"><ele>283.5</ele><time>2026-04-26T09:34:45Z</time></trkpt><trkpt lat="44.39207181743092" lon="9.882538422030544"><ele>285.0</ele><time>2026-04-26T09:34:46Z</time></trkpt><trkpt lat="44.39218121700512" lon="9.8824269174329"><ele>286.5</ele><time>2026-04-26T09:34:47Z</time></trkpt><trkpt lat="44.39229997196544" lon="9.882336806425485"><ele>288.0</ele><time>2026-04-26T09:34:48Z</time></trkpt><trkpt lat="44.39241036337491" lon="9.882226654076785"><ele>288.0</ele><time>2026-04-26T09:34:49Z</time></trkpt><trkpt lat="44.392530411397665" lon="9.88210686603026"><ele>288.0</ele><time>2026-04-26T09:34:50Z</time></trkpt><trkpt lat="44.39264596051195" lon="9.88197511334731"><ele>288.0</ele><time>2026-04-26T09:34:51Z</time></trkpt><trkpt lat="44.39276590482975" lon="9.881853900257436"><ele>288.0</ele><time>2026-04-26T09:34:52Z</time></trkpt><trkpt lat="44.39289133640404" lon="9.881736514686693"><ele>287.0</ele><time>2026-04-26T09:34:53Z</time></trkpt><trkpt lat="44.39300958026249" lon="9.881621666041408"><ele>286.0</ele><time>2026-04-26T09:34:54Z</time></trkpt><trkpt lat="44.39311513931889" lon="9.881507982203884"><ele>285.0</ele><time>2026-04-26T09:34:55Z</time></trkpt><trkpt lat="44.39321871227336" lon="9.881401685690577"><ele>284.0</ele><time>2026-04-26T09:34:56Z</time></trkpt><trkpt lat="44.39331527915639" lon="9.881313087117608"><ele>284.0</ele><time>2026-04-26T09:34:57Z</time></trkpt><trkpt lat="44.393420962388845" lon="9.881272653061039"><ele>284.0</ele><time>2026-04-26T09:34:58Z</time></trkpt><trkpt lat="44.39353817772453" lon="9.881282410795151"><ele>284.0</ele><time>2026-04-26T09:34:59Z</time></trkpt><trkpt lat="44.39364753942638" lon="9.88136420928754"><ele>284.0</ele><time>2026-04-26T09:35:00Z</time></trkpt><trkpt lat="44.393727181129215" lon="9.881540494577425"><ele>284.33333333333337</ele><time>2026-04-26T09:35:01Z</time></trkpt><trkpt lat="44.39384103343331" lon="9.881711001660491"><ele>284.6666666666667</ele><time>2026-04-26T09:35:02Z</time></trkpt><trkpt lat="44.39394014791627" lon="9.88189708295071"><ele>285.0</ele><time>2026-04-26T09:35:03Z</time></trkpt><trkpt lat="44.394042597433" lon="9.882057609016117"><ele>285.0</ele><time>2026-04-26T09:35:04Z</time></trkpt><trkpt lat="44.39414031451393" lon="9.88220634484911"><ele>285.0</ele><time>2026-04-26T09:35:05Z</time></trkpt><trkpt lat="44.39423503828785" lon="9.882352758010136"><ele>285.0</ele><time>2026-04-26T09:35:06Z</time></trkpt><trkpt lat="44.394342623937" lon="9.882479402426954"><ele>285.0</ele><time>2026-04-26T09:35:07Z</time></trkpt><trkpt lat="44.3944772972299" lon="9.88257347992836"><ele>280.6666666666667</ele><time>2026-04-26T09:35:08Z</time></trkpt><trkpt lat="44.39463852144171" lon="9.882606904418083"><ele>276.33333333333337</ele><time>2026-04-26T09:35:09Z</time></trkpt><trkpt lat="44.39482187328966" lon="9.882584889443455"><ele>272.0</ele><time>2026-04-26T09:35:10Z</time></trkpt><trkpt lat="44.39499837990396" lon="9.882554245607302"><ele>275.33333333333337</ele><time>2026-04-26T09:35:11Z</time></trkpt><trkpt lat="44.395164545366455" lon="9.882547258541646"><ele>278.6666666666667</ele><time>2026-04-26T09:35:12Z</time></trkpt><trkpt lat="44.39532181987386" lon="9.88261180088611"><ele>282.0</ele><time>2026-04-26T09:35:13Z</time></trkpt><trkpt lat="44.39549385763508" lon="9.882648880714006"><ele>286.6666666666667</ele><time>2026-04-26T09:35:14Z</time></trkpt><trkpt lat="44.395651309543425" lon="9.882718924025298"><ele>291.33333333333337</ele><time>2026-04-26T09:35:15Z</time></trkpt><trkpt lat="44.39580885944445" lon="9.882776419498526"><ele>296.0</ele><time>2026-04-26T09:35:16Z</time></trkpt><trkpt lat="44.39596369626223" lon="9.882828694101327"><ele>296.0</ele><time>2026-04-26T09:35:17Z</time></trkpt><trkpt lat="44.39611353996461" lon="9.882874959719018"><ele>296.0</ele><time>2026-04-26T09:35:18Z</time></trkpt><trkpt lat="44.396253546284306" lon="9.882920770275376"><ele>296.0</ele><time>2026-04-26T09:35:19Z</time></trkpt><trkpt lat="44.39638602062763" lon="9.882981768429591"><ele>296.0</ele><time>2026-04-26T09:35:20Z</time></trkpt><trkpt lat="44.396500869471964" lon="9.88307392051342"><ele>299.0</ele><time>2026-04-26T09:35:21Z</time></trkpt><trkpt lat="44.39660047116219" lon="9.88319459677894"><ele>302.0</ele><time>2026-04-26T09:35:22Z</time></trkpt><trkpt lat="44.39669187521998" lon="9.883345141599085"><ele>305.0</ele><time>2026-04-26T09:35:23.001Z</time></trkpt><trkpt lat="44.396736208005535" lon="9.883546574370099"><ele>308.0</ele><time>2026-04-26T09:35:24.001Z</time></trkpt><trkpt lat="44.396813608575606" lon="9.883761095126749"><ele>308.0</ele><time>2026-04-26T09:35:25.001Z</time></trkpt><trkpt lat="44.3968556272859" lon="9.883920764233022"><ele>308.0</ele><time>2026-04-26T09:35:26.001Z</time></trkpt><trkpt lat="44.39687953599527" lon="9.884012904673773"><ele>308.0</ele><time>2026-04-26T09:35:27.001Z</time></trkpt><trkpt lat="44.39692218050156" lon="9.884096536495093"><ele>308.0</ele><time>2026-04-26T09:35:30.001Z</time></trkpt><trkpt lat="44.3969691728769" lon="9.884189152128323"><ele>308.0</ele><time>2026-04-26T09:39:06.001Z</time></trkpt><trkpt lat="44.397003744169716" lon="9.884263478992644"><ele>308.0</ele><time>2026-04-26T09:39:07.001Z</time></trkpt><trkpt lat="44.39704662002114" lon="9.88434449066619"><ele>306.2</ele><time>2026-04-26T09:39:08.001Z</time></trkpt><trkpt lat="44.39709818734135" lon="9.88444192455489"><ele>304.4</ele><time>2026-04-26T09:39:09.001Z</time></trkpt><trkpt lat="44.39715416662751" lon="9.884547694589774"><ele>302.59999999999997</ele><time>2026-04-26T09:39:10.001Z</time></trkpt><trkpt lat="44.397216985960966" lon="9.884666855628709"><ele>300.8</ele><time>2026-04-26T09:39:11.001Z</time></trkpt><trkpt lat="44.39727020266305" lon="9.884768365410054"><ele>299.0</ele><time>2026-04-26T09:39:12.001Z</time></trkpt><trkpt lat="44.39732198870168" lon="9.88489789122705"><ele>303.6666666666667</ele><time>2026-04-26T09:39:14.001Z</time></trkpt><trkpt lat="44.39734632768922" lon="9.885042865636564"><ele>308.3333333333333</ele><time>2026-04-26T09:39:16.001Z</time></trkpt><trkpt lat="44.397408343602166" lon="9.885150565080018"><ele>313.0</ele><time>2026-04-26T09:39:17.001Z</time></trkpt><trkpt lat="44.397669408202425" lon="9.885436394835548"><ele>313.0</ele><time>2026-04-26T09:39:19.001Z</time></trkpt><trkpt lat="44.3977650132081" lon="9.885553949531243"><ele>313.0</ele><time>2026-04-26T09:39:20.001Z</time></trkpt><trkpt lat="44.397875910393694" lon="9.885659276782876"><ele>313.0</ele><time>2026-04-26T09:39:21.001Z</time></trkpt><trkpt lat="44.39810083698075" lon="9.885650683775077"><ele>316.75</ele><time>2026-04-26T09:39:22.001Z</time></trkpt><trkpt lat="44.39822744336931" lon="9.885589845633048"><ele>320.5</ele><time>2026-04-26T09:39:23.001Z</time></trkpt><trkpt lat="44.398331384296554" lon="9.885566875764237"><ele>324.25</ele><time>2026-04-26T09:39:24.001Z</time></trkpt><trkpt lat="44.39844241704859" lon="9.885595928366191"><ele>328.0</ele><time>2026-04-26T09:39:25.001Z</time></trkpt><trkpt lat="44.39857561999063" lon="9.885676223528064"><ele>328.0</ele><time>2026-04-26T09:39:26.001Z</time></trkpt><trkpt lat="44.39872684303205" lon="9.885696898068502"><ele>328.0</ele><time>2026-04-26T09:39:27.001Z</time></trkpt><trkpt lat="44.398845750364366" lon="9.885692535022008"><ele>328.0</ele><time>2026-04-26T09:39:28.001Z</time></trkpt><trkpt lat="44.39894289224693" lon="9.885736742108296"><ele>328.0</ele><time>2026-04-26T09:39:29.001Z</time></trkpt><trkpt lat="44.399029408333405" lon="9.885843159234"><ele>324.0</ele><time>2026-04-26T09:39:30.001Z</time></trkpt><trkpt lat="44.399121542970256" lon="9.885990502350007"><ele>320.0</ele><time>2026-04-26T09:39:31.001Z</time></trkpt><trkpt lat="44.39924434502708" lon="9.886077071415073"><ele>316.0</ele><time>2026-04-26T09:39:32.001Z</time></trkpt><trkpt lat="44.39940021942054" lon="9.886097736227654"><ele>312.0</ele><time>2026-04-26T09:39:33.001Z</time></trkpt><trkpt lat="44.3995527309462" lon="9.886141551422481"><ele>320.5</ele><time>2026-04-26T09:39:34.001Z</time></trkpt><trkpt lat="44.39969777786044" lon="9.886173826503976"><ele>329.0</ele><time>2026-04-26T09:39:35.001Z</time></trkpt><trkpt lat="44.399832887399846" lon="9.886225486407758"><ele>337.5</ele><time>2026-04-26T09:39:36.001Z</time></trkpt><trkpt lat="44.399942916997766" lon="9.886296761194187"><ele>346.0</ele><time>2026-04-26T09:39:37.001Z</time></trkpt><trkpt lat="44.40002898299804" lon="9.886423647721973"><ele>346.0</ele><time>2026-04-26T09:39:38.001Z</time></trkpt><trkpt lat="44.400088538498274" lon="9.886591309139007"><ele>346.0</ele><time>2026-04-26T09:39:39.001Z</time></trkpt><trkpt lat="44.400143420025955" lon="9.886771432365897"><ele>346.0</ele><time>2026-04-26T09:39:40.001Z</time></trkpt><trkpt lat="44.40018230860341" lon="9.886968692256673"><ele>346.0</ele><time>2026-04-26T09:39:41.001Z</time></trkpt><trkpt lat="44.40020775065583" lon="9.887155304056732"><ele>341.66666666666663</ele><time>2026-04-26T09:39:42.001Z</time></trkpt><trkpt lat="44.40026531233107" lon="9.887350132822371"><ele>337.3333333333333</ele><time>2026-04-26T09:39:43.001Z</time></trkpt><trkpt lat="44.40035708175841" lon="9.887518490647409"><ele>333.0</ele><time>2026-04-26T09:39:44.001Z</time></trkpt><trkpt lat="44.40048538940131" lon="9.887649534028135"><ele>337.6666666666667</ele><time>2026-04-26T09:39:45.001Z</time></trkpt><trkpt lat="44.40064132999608" lon="9.887759155788286"><ele>342.33333333333337</ele><time>2026-04-26T09:39:46.001Z</time></trkpt><trkpt lat="44.40078332609365" lon="9.887903324494157"><ele>347.0</ele><time>2026-04-26T09:39:47.001Z</time></trkpt><trkpt lat="44.400929766616855" lon="9.888042243867755"><ele>347.0</ele><time>2026-04-26T09:39:48.001Z</time></trkpt><trkpt lat="44.401068856484954" lon="9.888149136776047"><ele>347.0</ele><time>2026-04-26T09:39:49.002Z</time></trkpt><trkpt lat="44.40117559226924" lon="9.888251092138788"><ele>347.0</ele><time>2026-04-26T09:39:50.002Z</time></trkpt><trkpt lat="44.401255017290346" lon="9.888311244587909"><ele>347.0</ele><time>2026-04-26T09:39:51.002Z</time></trkpt><trkpt lat="44.401321935861446" lon="9.888305101887475"><ele>347.0</ele><time>2026-04-26T09:39:52.002Z</time></trkpt><trkpt lat="44.40138567025113" lon="9.888270534478602"><ele>347.0</ele><time>2026-04-26T09:39:53.002Z</time></trkpt><trkpt lat="44.401427207161355" lon="9.888185658671542"><ele>347.0</ele><time>2026-04-26T09:39:54.002Z</time></trkpt><trkpt lat="44.40133756148914" lon="9.888018311557715"><ele>347.0</ele><time>2026-04-26T09:39:55.002Z</time></trkpt><trkpt lat="44.40125804858577" lon="9.887940975739776"><ele>347.0</ele><time>2026-04-26T09:39:56.001Z</time></trkpt><trkpt lat="44.40116111512311" lon="9.887877613500372"><ele>347.0</ele><time>2026-04-26T09:39:57.001Z</time></trkpt><trkpt lat="44.401080391000825" lon="9.887780929998476"><ele>347.0</ele><time>2026-04-26T09:39:58.001Z</time></trkpt><trkpt lat="44.40100028005224" lon="9.887681650210062"><ele>347.0</ele><time>2026-04-26T09:39:59.001Z</time></trkpt><trkpt lat="44.40089307880269" lon="9.887559599038257"><ele>347.0</ele><time>2026-04-26T09:40:00.001Z</time></trkpt><trkpt lat="44.40080534217297" lon="9.887466587464484"><ele>347.0</ele><time>2026-04-26T09:40:01.001Z</time></trkpt><trkpt lat="44.40074297116598" lon="9.887349183948135"><ele>351.75</ele><time>2026-04-26T09:40:02.001Z</time></trkpt><trkpt lat="44.40068145674299" lon="9.88721217776442"><ele>356.5</ele><time>2026-04-26T09:40:03.001Z</time></trkpt><trkpt lat="44.400679777170446" lon="9.887039539925826"><ele>361.25</ele><time>2026-04-26T09:40:04.001Z</time></trkpt><trkpt lat="44.400667658232535" lon="9.886836477411432"><ele>366.0</ele><time>2026-04-26T09:40:05.001Z</time></trkpt><trkpt lat="44.400652886872706" lon="9.88662872812067"><ele>370.6666666666667</ele><time>2026-04-26T09:40:06.001Z</time></trkpt><trkpt lat="44.40061829454047" lon="9.886441875663834"><ele>375.33333333333337</ele><time>2026-04-26T09:40:07.001Z</time></trkpt><trkpt lat="44.40053375268658" lon="9.886226351613695"><ele>380.0</ele><time>2026-04-26T09:40:08.001Z</time></trkpt><trkpt lat="44.4004372598956" lon="9.886033311710149"><ele>378.25</ele><time>2026-04-26T09:40:09.001Z</time></trkpt><trkpt lat="44.400352653403516" lon="9.885872102211698"><ele>376.5</ele><time>2026-04-26T09:40:10.001Z</time></trkpt><trkpt lat="44.40026083204626" lon="9.885707060338836"><ele>374.75</ele><time>2026-04-26T09:40:11.001Z</time></trkpt><trkpt lat="44.40013176642798" lon="9.885594405840388"><ele>373.0</ele><time>2026-04-26T09:40:12.001Z</time></trkpt><trkpt lat="44.40000364878082" lon="9.885501979241422"><ele>373.0</ele><time>2026-04-26T09:40:13.001Z</time></trkpt><trkpt lat="44.399880800982196" lon="9.885439609543077"><ele>373.0</ele><time>2026-04-26T09:40:14.001Z</time></trkpt><trkpt lat="44.39976292198988" lon="9.8853668747904"><ele>373.0</ele><time>2026-04-26T09:40:15.001Z</time></trkpt><trkpt lat="44.39965252126176" lon="9.885304023380016"><ele>373.0</ele><time>2026-04-26T09:40:16.001Z</time></trkpt><trkpt lat="44.39956753211819" lon="9.885190914569495"><ele>374.25</ele><time>2026-04-26T09:40:17.001Z</time></trkpt><trkpt lat="44.399504037570075" lon="9.885045698039566"><ele>375.5</ele><time>2026-04-26T09:40:18.001Z</time></trkpt><trkpt lat="44.39942478654518" lon="9.884872403371487"><ele>376.75</ele><time>2026-04-26T09:40:19.001Z</time></trkpt><trkpt lat="44.39934717103087" lon="9.884702170776723"><ele>378.0</ele><time>2026-04-26T09:40:20.001Z</time></trkpt><trkpt lat="44.399266170366765" lon="9.88453323624487"><ele>378.0</ele><time>2026-04-26T09:40:21.001Z</time></trkpt><trkpt lat="44.3991895682421" lon="9.884381638028762"><ele>378.0</ele><time>2026-04-26T09:40:22.001Z</time></trkpt><trkpt lat="44.399087840675904" lon="9.884225657464611"><ele>378.0</ele><time>2026-04-26T09:40:23.001Z</time></trkpt><trkpt lat="44.39900378515313" lon="9.884105539955405"><ele>378.0</ele><time>2026-04-26T09:40:24.001Z</time></trkpt><trkpt lat="44.39890549848535" lon="9.883947763212383"><ele>378.5</ele><time>2026-04-26T09:40:25.001Z</time></trkpt><trkpt lat="44.398837669249545" lon="9.883797909008317"><ele>379.0</ele><time>2026-04-26T09:40:26.001Z</time></trkpt><trkpt lat="44.398795933034975" lon="9.883646753735915"><ele>379.5</ele><time>2026-04-26T09:40:27.001Z</time></trkpt><trkpt lat="44.39877619643154" lon="9.883467878905272"><ele>380.0</ele><time>2026-04-26T09:40:28.001Z</time></trkpt><trkpt lat="44.398771266804836" lon="9.883290638940137"><ele>380.0</ele><time>2026-04-26T09:40:29.001Z</time></trkpt><trkpt lat="44.39879373718172" lon="9.883152566028777"><ele>380.0</ele><time>2026-04-26T09:40:30.001Z</time></trkpt><trkpt lat="44.398841717095614" lon="9.883085735388631"><ele>380.0</ele><time>2026-04-26T09:40:32.001Z</time></trkpt><trkpt lat="44.39867560966887" lon="9.882550363133381"><ele>382.75</ele><time>2026-04-26T09:40:33.001Z</time></trkpt><trkpt lat="44.398609385242004" lon="9.882406607088923"><ele>385.5</ele><time>2026-04-26T09:40:34.001Z</time></trkpt><trkpt lat="44.398534087039366" lon="9.882268481488204"><ele>388.25</ele><time>2026-04-26T09:40:35.001Z</time></trkpt><trkpt lat="44.398469897776536" lon="9.882156862941136"><ele>391.0</ele><time>2026-04-26T09:40:36.001Z</time></trkpt><trkpt lat="44.39842066864177" lon="9.881993237608642"><ele>391.00000000000006</ele><time>2026-04-26T09:40:37.001Z</time></trkpt><trkpt lat="44.39838307713157" lon="9.88183367968405"><ele>391.0</ele><time>2026-04-26T09:40:38.001Z</time></trkpt><trkpt lat="44.39835665115105" lon="9.881725310806555"><ele>391.0</ele><time>2026-04-26T09:40:39.001Z</time></trkpt><trkpt lat="44.398390535711506" lon="9.881647876821509"><ele>391.0</ele><time>2026-04-26T09:40:40.001Z</time></trkpt><trkpt lat="44.39846464594946" lon="9.881632133570944"><ele>391.00000000000006</ele><time>2026-04-26T09:40:41.001Z</time></trkpt><trkpt lat="44.39853003479845" lon="9.881694151322023"><ele>391.0</ele><time>2026-04-26T09:40:42.001Z</time></trkpt><trkpt lat="44.39854731403442" lon="9.881824638583403"><ele>391.0</ele><time>2026-04-26T09:40:43.001Z</time></trkpt><trkpt lat="44.39859662026829" lon="9.881959334411766"><ele>391.0</ele><time>2026-04-26T09:40:44.001Z</time></trkpt><trkpt lat="44.3986555069384" lon="9.882117535843818"><ele>391.0</ele><time>2026-04-26T09:40:45.001Z</time></trkpt><trkpt lat="44.398708554382004" lon="9.882276830376632"><ele>391.0</ele><time>2026-04-26T09:40:46.001Z</time></trkpt><trkpt lat="44.39879680726816" lon="9.882398865864197"><ele>396.25</ele><time>2026-04-26T09:40:47.001Z</time></trkpt><trkpt lat="44.398933610586425" lon="9.882471055613417"><ele>401.5</ele><time>2026-04-26T09:40:48.001Z</time></trkpt><trkpt lat="44.399057514900704" lon="9.882534279384274"><ele>406.75</ele><time>2026-04-26T09:40:49.001Z</time></trkpt><trkpt lat="44.399181737766256" lon="9.882584477831845"><ele>412.0</ele><time>2026-04-26T09:40:50.001Z</time></trkpt><trkpt lat="44.39928723944784" lon="9.882669218788486"><ele>412.0</ele><time>2026-04-26T09:40:51.001Z</time></trkpt><trkpt lat="44.399360038804794" lon="9.882804606555645"><ele>412.0</ele><time>2026-04-26T09:40:52.001Z</time></trkpt><trkpt lat="44.39936928048577" lon="9.882993196992544"><ele>412.0</ele><time>2026-04-26T09:40:53.001Z</time></trkpt><trkpt lat="44.39934112046222" lon="9.883186712261386"><ele>412.0</ele><time>2026-04-26T09:40:54.001Z</time></trkpt><trkpt lat="44.39937833192421" lon="9.883359150723741"><ele>415.0</ele><time>2026-04-26T09:40:55.001Z</time></trkpt><trkpt lat="44.3994285343143" lon="9.88353656155371"><ele>418.0</ele><time>2026-04-26T09:40:56.001Z</time></trkpt><trkpt lat="44.39955913343169" lon="9.883646114974368"><ele>421.0</ele><time>2026-04-26T09:40:57.001Z</time></trkpt><trkpt lat="44.399682690233796" lon="9.883745900768993"><ele>424.0</ele><time>2026-04-26T09:40:58.001Z</time></trkpt><trkpt lat="44.39979842097251" lon="9.883873714174438"><ele>424.0</ele><time>2026-04-26T09:40:59.001Z</time></trkpt><trkpt lat="44.399924698419895" lon="9.884014630623046"><ele>424.0</ele><time>2026-04-26T09:41:00.001Z</time></trkpt><trkpt lat="44.40003887905318" lon="9.8841341928242"><ele>424.0</ele><time>2026-04-26T09:41:01.001Z</time></trkpt><trkpt lat="44.400156036358204" lon="9.884242433637093"><ele>424.0</ele><time>2026-04-26T09:41:02.001Z</time></trkpt><trkpt lat="44.40029282066155" lon="9.884328626965512"><ele>423.75</ele><time>2026-04-26T09:41:03.001Z</time></trkpt><trkpt lat="44.40044682856109" lon="9.884379741125183"><ele>423.5</ele><time>2026-04-26T09:41:04.001Z</time></trkpt><trkpt lat="44.40059193001333" lon="9.884451329343626"><ele>423.25</ele><time>2026-04-26T09:41:05.001Z</time></trkpt><trkpt lat="44.40068836532523" lon="9.884587411077883"><ele>423.0</ele><time>2026-04-26T09:41:06.001Z</time></trkpt><trkpt lat="44.40079610375661" lon="9.884727625940581"><ele>423.0</ele><time>2026-04-26T09:41:07.001Z</time></trkpt><trkpt lat="44.40093166768767" lon="9.88484691639875"><ele>423.0</ele><time>2026-04-26T09:41:08.001Z</time></trkpt><trkpt lat="44.40108147048277" lon="9.884924065938485"><ele>423.0</ele><time>2026-04-26T09:41:09.001Z</time></trkpt><trkpt lat="44.401239433562964" lon="9.884971329457292"><ele>423.33333333333337</ele><time>2026-04-26T09:41:10.001Z</time></trkpt><trkpt lat="44.40139741526463" lon="9.885028699771286"><ele>423.6666666666667</ele><time>2026-04-26T09:41:11.001Z</time></trkpt><trkpt lat="44.40156342477373" lon="9.885104173809415"><ele>424.0</ele><time>2026-04-26T09:41:12.001Z</time></trkpt><trkpt lat="44.401723855815774" lon="9.885172256655434"><ele>424.0</ele><time>2026-04-26T09:41:13.001Z</time></trkpt><trkpt lat="44.401891709483735" lon="9.885207417111408"><ele>424.0</ele><time>2026-04-26T09:41:14.001Z</time></trkpt><trkpt lat="44.40206336324757" lon="9.885218185605316"><ele>424.0</ele><time>2026-04-26T09:41:15.001Z</time></trkpt><trkpt lat="44.402238525780035" lon="9.885249458772039"><ele>430.6666666666667</ele><time>2026-04-26T09:41:16.001Z</time></trkpt><trkpt lat="44.402411616505574" lon="9.885284155174551"><ele>437.33333333333337</ele><time>2026-04-26T09:41:17.001Z</time></trkpt><trkpt lat="44.40259329793988" lon="9.885321776951212"><ele>444.0</ele><time>2026-04-26T09:41:18.001Z</time></trkpt><trkpt lat="44.40275201917045" lon="9.885375890366737"><ele>444.0</ele><time>2026-04-26T09:41:19.001Z</time></trkpt><trkpt lat="44.40289046449486" lon="9.885464497420553"><ele>444.0</ele><time>2026-04-26T09:41:20.001Z</time></trkpt><trkpt lat="44.40300348604562" lon="9.885622789790169"><ele>444.0</ele><time>2026-04-26T09:41:21.001Z</time></trkpt><trkpt lat="44.403117627826816" lon="9.885780304650911"><ele>444.0</ele><time>2026-04-26T09:41:22.001Z</time></trkpt><trkpt lat="44.40322515039271" lon="9.885956528093216"><ele>444.0</ele><time>2026-04-26T09:41:23.001Z</time></trkpt><trkpt lat="44.40335649896337" lon="9.886093097120868"><ele>444.0</ele><time>2026-04-26T09:41:24.001Z</time></trkpt><trkpt lat="44.4035134670979" lon="9.886197983108262"><ele>444.0</ele><time>2026-04-26T09:41:25.001Z</time></trkpt><trkpt lat="44.403676171140404" lon="9.886297979484201"><ele>444.0</ele><time>2026-04-26T09:41:26.001Z</time></trkpt><trkpt lat="44.40382269073051" lon="9.886407573207615"><ele>444.0</ele><time>2026-04-26T09:41:27.001Z</time></trkpt><trkpt lat="44.40395856035469" lon="9.88651327921433"><ele>447.0</ele><time>2026-04-26T09:41:28.001Z</time></trkpt><trkpt lat="44.40406990422047" lon="9.886622038743093"><ele>450.0</ele><time>2026-04-26T09:41:29.001Z</time></trkpt><trkpt lat="44.40416259235175" lon="9.88669468187838"><ele>453.0</ele><time>2026-04-26T09:41:30.001Z</time></trkpt><trkpt lat="44.404248972590544" lon="9.886709817176834"><ele>456.0</ele><time>2026-04-26T09:41:31.001Z</time></trkpt><trkpt lat="44.404313878786375" lon="9.88667293594193"><ele>459.0</ele><time>2026-04-26T09:41:32.001Z</time></trkpt><trkpt lat="44.40435185870592" lon="9.886551990343753"><ele>459.0</ele><time>2026-04-26T09:41:33.001Z</time></trkpt><trkpt lat="44.40432919621853" lon="9.886412878105588"><ele>459.0</ele><time>2026-04-26T09:41:34.001Z</time></trkpt><trkpt lat="44.404241773715036" lon="9.88632790331921"><ele>459.0</ele><time>2026-04-26T09:41:35.001Z</time></trkpt><trkpt lat="44.40412029740452" lon="9.88627962281577"><ele>459.0</ele><time>2026-04-26T09:41:36.001Z</time></trkpt><trkpt lat="44.403988286201795" lon="9.886228220336754"><ele>459.0</ele><time>2026-04-26T09:41:37.001Z</time></trkpt><trkpt lat="44.40385343850306" lon="9.88613394820108"><ele>459.0</ele><time>2026-04-26T09:41:38.001Z</time></trkpt><trkpt lat="44.40373532520959" lon="9.886029517119606"><ele>459.0</ele><time>2026-04-26T09:41:39.001Z</time></trkpt><trkpt lat="44.403617604855235" lon="9.885923308475563"><ele>459.0</ele><time>2026-04-26T09:41:40.001Z</time></trkpt><trkpt lat="44.40351905171915" lon="9.885771078641907"><ele>459.66666666666663</ele><time>2026-04-26T09:41:41.001Z</time></trkpt><trkpt lat="44.40344755043088" lon="9.885590766734172"><ele>460.3333333333333</ele><time>2026-04-26T09:41:42.001Z</time></trkpt><trkpt lat="44.40337257432218" lon="9.88538671311866"><ele>461.0</ele><time>2026-04-26T09:41:43.001Z</time></trkpt><trkpt lat="44.40329669661187" lon="9.885177247225077"><ele>461.66666666666663</ele><time>2026-04-26T09:41:44.001Z</time></trkpt><trkpt lat="44.40317305529381" lon="9.885034447644768"><ele>462.33333333333337</ele><time>2026-04-26T09:41:45.001Z</time></trkpt><trkpt lat="44.403013494026446" lon="9.884925929292109"><ele>463.0</ele><time>2026-04-26T09:41:46.001Z</time></trkpt><trkpt lat="44.40284725030449" lon="9.884824188602439"><ele>463.0</ele><time>2026-04-26T09:41:47.001Z</time></trkpt><trkpt lat="44.40269787232233" lon="9.884718599305018"><ele>463.0</ele><time>2026-04-26T09:41:48.001Z</time></trkpt><trkpt lat="44.40255589838702" lon="9.884619400500053"><ele>463.0</ele><time>2026-04-26T09:41:49.001Z</time></trkpt><trkpt lat="44.40240498490834" lon="9.884548786580172"><ele>463.0</ele><time>2026-04-26T09:41:50.001Z</time></trkpt><trkpt lat="44.40225142924715" lon="9.88447832008488"><ele>463.0</ele><time>2026-04-26T09:41:51.001Z</time></trkpt><trkpt lat="44.40211289304043" lon="9.884385389587498"><ele>463.0</ele><time>2026-04-26T09:41:52.001Z</time></trkpt><trkpt lat="44.40199876787199" lon="9.88426659929528"><ele>464.6666666666667</ele><time>2026-04-26T09:41:53.001Z</time></trkpt><trkpt lat="44.40188521680472" lon="9.88415588587804"><ele>466.33333333333337</ele><time>2026-04-26T09:41:54.001Z</time></trkpt><trkpt lat="44.40182077852158" lon="9.883971290136344"><ele>468.0</ele><time>2026-04-26T09:41:55Z</time></trkpt><trkpt lat="44.40172512971583" lon="9.883776219897712"><ele>468.0</ele><time>2026-04-26T09:41:56Z</time></trkpt><trkpt lat="44.40166056395566" lon="9.883555588396487"><ele>468.0</ele><time>2026-04-26T09:41:57Z</time></trkpt><trkpt lat="44.40158167534312" lon="9.883354787553499"><ele>468.0</ele><time>2026-04-26T09:41:58Z</time></trkpt><trkpt lat="44.40151211260017" lon="9.883196050251922"><ele>470.4</ele><time>2026-04-26T09:41:59Z</time></trkpt><trkpt lat="44.401444885790184" lon="9.883044515994449"><ele>472.79999999999995</ele><time>2026-04-26T09:42:00Z</time></trkpt><trkpt lat="44.40137156522956" lon="9.88294510083366"><ele>475.2</ele><time>2026-04-26T09:42:01Z</time></trkpt><trkpt lat="44.40132594371971" lon="9.882864723958976"><ele>477.6</ele><time>2026-04-26T09:42:02Z</time></trkpt><trkpt lat="44.40132449049047" lon="9.882774529340058"><ele>480.0</ele><time>2026-04-26T09:42:03Z</time></trkpt><trkpt lat="44.40138257022468" lon="9.88268903207127"><ele>480.0</ele><time>2026-04-26T09:42:04Z</time></trkpt><trkpt lat="44.401480324661634" lon="9.88267018539114"><ele>480.0</ele><time>2026-04-26T09:42:05Z</time></trkpt><trkpt lat="44.40156478582459" lon="9.882739176103511"><ele>480.0</ele><time>2026-04-26T09:42:06Z</time></trkpt><trkpt lat="44.40157526241184" lon="9.882902174335452"><ele>480.0</ele><time>2026-04-26T09:42:07Z</time></trkpt><trkpt lat="44.40164581880846" lon="9.883053668571634"><ele>480.0</ele><time>2026-04-26T09:42:08Z</time></trkpt><trkpt lat="44.40170812334047" lon="9.883234839712"><ele>480.0</ele><time>2026-04-26T09:42:09Z</time></trkpt><trkpt lat="44.40178967812958" lon="9.883391191069123"><ele>480.0</ele><time>2026-04-26T09:42:10Z</time></trkpt><trkpt lat="44.401884570752564" lon="9.883526427844025"><ele>480.0</ele><time>2026-04-26T09:42:11Z</time></trkpt><trkpt lat="44.40200283538866" lon="9.883680122998586"><ele>480.0</ele><time>2026-04-26T09:42:12Z</time></trkpt><trkpt lat="44.402147271726314" lon="9.883791677067936"><ele>480.66666666666663</ele><time>2026-04-26T09:42:13Z</time></trkpt><trkpt lat="44.40230880101965" lon="9.883853342256335"><ele>481.3333333333333</ele><time>2026-04-26T09:42:14Z</time></trkpt><trkpt lat="44.40247815559297" lon="9.883849460389964"><ele>482.0</ele><time>2026-04-26T09:42:15Z</time></trkpt><trkpt lat="44.40264231202118" lon="9.883822893843867"><ele>482.0</ele><time>2026-04-26T09:42:16Z</time></trkpt><trkpt lat="44.40279099384784" lon="9.883801728575929"><ele>482.0</ele><time>2026-04-26T09:42:17Z</time></trkpt><trkpt lat="44.40294342050304" lon="9.883834115623559"><ele>482.0</ele><time>2026-04-26T09:42:18Z</time></trkpt><trkpt lat="44.403093467966215" lon="9.883921577560754"><ele>486.3333333333333</ele><time>2026-04-26T09:42:19Z</time></trkpt><trkpt lat="44.40323834236065" lon="9.884015895601207"><ele>490.66666666666663</ele><time>2026-04-26T09:42:20Z</time></trkpt><trkpt lat="44.40339346044196" lon="9.884068012699434"><ele>495.0</ele><time>2026-04-26T09:42:21Z</time></trkpt><trkpt lat="44.40354182553456" lon="9.884105453974037"><ele>495.0</ele><time>2026-04-26T09:42:22Z</time></trkpt><trkpt lat="44.4036832026952" lon="9.884163828730927"><ele>495.0</ele><time>2026-04-26T09:42:23Z</time></trkpt><trkpt lat="44.40380942248669" lon="9.884275493291424"><ele>495.0</ele><time>2026-04-26T09:42:24Z</time></trkpt><trkpt lat="44.40392297945752" lon="9.88444326543019"><ele>495.0</ele><time>2026-04-26T09:42:25Z</time></trkpt><trkpt lat="44.404049373557854" lon="9.884589493103432"><ele>495.0</ele><time>2026-04-26T09:42:26Z</time></trkpt><trkpt lat="44.40418096414796" lon="9.884699233693608"><ele>495.0</ele><time>2026-04-26T09:42:27Z</time></trkpt><trkpt lat="44.40430269307732" lon="9.884788608142157"><ele>495.0</ele><time>2026-04-26T09:42:28Z</time></trkpt><trkpt lat="44.404421728733965" lon="9.884872349689228"><ele>495.0</ele><time>2026-04-26T09:42:29Z</time></trkpt><trkpt lat="44.40452548262492" lon="9.884969790271949"><ele>495.0</ele><time>2026-04-26T09:42:30Z</time></trkpt><trkpt lat="44.40461448029671" lon="9.885075352854896"><ele>495.0</ele><time>2026-04-26T09:42:31Z</time></trkpt><trkpt lat="44.40469483750092" lon="9.885157763405635"><ele>495.2</ele><time>2026-04-26T09:42:32Z</time></trkpt><trkpt lat="44.404772610355714" lon="9.885195374037703"><ele>495.4</ele><time>2026-04-26T09:42:33Z</time></trkpt><trkpt lat="44.404863641781574" lon="9.885156628542566"><ele>495.6</ele><time>2026-04-26T09:42:34Z</time></trkpt><trkpt lat="44.4049264123836" lon="9.885028895448345"><ele>495.8</ele><time>2026-04-26T09:42:35Z</time></trkpt><trkpt lat="44.40492294936565" lon="9.884880223696818"><ele>496.0</ele><time>2026-04-26T09:42:36Z</time></trkpt><trkpt lat="44.404858141527384" lon="9.884743105251847"><ele>495.75</ele><time>2026-04-26T09:42:37Z</time></trkpt><trkpt lat="44.40474749364318" lon="9.884638679806915"><ele>495.5</ele><time>2026-04-26T09:42:38Z</time></trkpt><trkpt lat="44.404634663925656" lon="9.884535477093426"><ele>495.25</ele><time>2026-04-26T09:42:39Z</time></trkpt><trkpt lat="44.40454465151442" lon="9.8843719371843"><ele>495.0</ele><time>2026-04-26T09:42:40Z</time></trkpt><trkpt lat="44.40445110185994" lon="9.884229709981803"><ele>498.5</ele><time>2026-04-26T09:42:41Z</time></trkpt><trkpt lat="44.404356990676916" lon="9.884078134091885"><ele>502.0</ele><time>2026-04-26T09:42:42Z</time></trkpt><trkpt lat="44.40424683072999" lon="9.883917687114971"><ele>505.5</ele><time>2026-04-26T09:42:43Z</time></trkpt><trkpt lat="44.404137755680466" lon="9.883781446603502"><ele>509.0</ele><time>2026-04-26T09:42:44Z</time></trkpt><trkpt lat="44.40401566717065" lon="9.883671512534962"><ele>509.0</ele><time>2026-04-26T09:42:45Z</time></trkpt><trkpt lat="44.40389609767104" lon="9.883589416327219"><ele>509.0</ele><time>2026-04-26T09:42:46Z</time></trkpt><trkpt lat="44.403783565522176" lon="9.883522035440079"><ele>509.0</ele><time>2026-04-26T09:42:47Z</time></trkpt><trkpt lat="44.403700628422975" lon="9.883448995294739"><ele>509.0</ele><time>2026-04-26T09:42:48Z</time></trkpt><trkpt lat="44.40367160715445" lon="9.883359615576559"><ele>509.0</ele><time>2026-04-26T09:42:49Z</time></trkpt><trkpt lat="44.40370626310196" lon="9.883265749341572"><ele>509.0</ele><time>2026-04-26T09:42:50Z</time></trkpt><trkpt lat="44.403789339529666" lon="9.88322358994235"><ele>509.0</ele><time>2026-04-26T09:42:51Z</time></trkpt><trkpt lat="44.40388540805989" lon="9.88328677941958"><ele>509.0</ele><time>2026-04-26T09:42:52Z</time></trkpt><trkpt lat="44.40398823801771" lon="9.883351902627403"><ele>509.0</ele><time>2026-04-26T09:42:53Z</time></trkpt><trkpt lat="44.404112240107324" lon="9.883440813265826"><ele>509.0</ele><time>2026-04-26T09:42:54Z</time></trkpt><trkpt lat="44.40424810317459" lon="9.883515340437992"><ele>509.0</ele><time>2026-04-26T09:42:55Z</time></trkpt><trkpt lat="44.4043869896183" lon="9.883582623233693"><ele>509.0</ele><time>2026-04-26T09:42:56Z</time></trkpt><trkpt lat="44.40453226146809" lon="9.88365514974651"><ele>509.0</ele><time>2026-04-26T09:42:57Z</time></trkpt><trkpt lat="44.40470135527666" lon="9.883730365997387"><ele>514.3333333333333</ele><time>2026-04-26T09:42:58Z</time></trkpt><trkpt lat="44.40485950686565" lon="9.883822253074177"><ele>519.6666666666666</ele><time>2026-04-26T09:42:59Z</time></trkpt><trkpt lat="44.40500659944515" lon="9.883965364513436"><ele>525.0</ele><time>2026-04-26T09:43:00Z</time></trkpt><trkpt lat="44.40515369777864" lon="9.884105411067988"><ele>525.0</ele><time>2026-04-26T09:43:01Z</time></trkpt><trkpt lat="44.405302924677066" lon="9.884242053640543"><ele>525.0</ele><time>2026-04-26T09:43:02Z</time></trkpt><trkpt lat="44.405435451131076" lon="9.884388692370404"><ele>525.0</ele><time>2026-04-26T09:43:03Z</time></trkpt><trkpt lat="44.40556637142451" lon="9.884541471156224"><ele>527.6666666666666</ele><time>2026-04-26T09:43:04Z</time></trkpt><trkpt lat="44.405662173128526" lon="9.884732064226945"><ele>530.3333333333333</ele><time>2026-04-26T09:43:05Z</time></trkpt><trkpt lat="44.405768747263906" lon="9.884905442037837"><ele>533.0</ele><time>2026-04-26T09:43:06Z</time></trkpt><trkpt lat="44.40584213857719" lon="9.885092553805594"><ele>526.6666666666666</ele><time>2026-04-26T09:43:07Z</time></trkpt><trkpt lat="44.405936485294205" lon="9.885260458212775"><ele>520.3333333333334</ele><time>2026-04-26T09:43:08Z</time></trkpt><trkpt lat="44.40606912573058" lon="9.885388691696246"><ele>514.0</ele><time>2026-04-26T09:43:09Z</time></trkpt><trkpt lat="44.40621057194013" lon="9.885515088334836"><ele>522.6666666666667</ele><time>2026-04-26T09:43:10Z</time></trkpt><trkpt lat="44.40635664117865" lon="9.88564686283344"><ele>531.3333333333334</ele><time>2026-04-26T09:43:11Z</time></trkpt><trkpt lat="44.40650560964191" lon="9.885774196764162"><ele>540.0</ele><time>2026-04-26T09:43:12Z</time></trkpt><trkpt lat="44.40666633248297" lon="9.885878426756534"><ele>537.6666666666666</ele><time>2026-04-26T09:43:13Z</time></trkpt><trkpt lat="44.40683106283539" lon="9.885957109679728"><ele>535.3333333333333</ele><time>2026-04-26T09:43:14Z</time></trkpt><trkpt lat="44.407000884061326" lon="9.886029139432939"><ele>533.0</ele><time>2026-04-26T09:43:15Z</time></trkpt><trkpt lat="44.40717015755115" lon="9.886098753766833"><ele>533.0</ele><time>2026-04-26T09:43:16Z</time></trkpt><trkpt lat="44.40733871434631" lon="9.886168691027063"><ele>533.0</ele><time>2026-04-26T09:43:17Z</time></trkpt><trkpt lat="44.407503116457065" lon="9.886247678933486"><ele>533.0</ele><time>2026-04-26T09:43:18Z</time></trkpt><trkpt lat="44.40765525217663" lon="9.886350191795545"><ele>533.0</ele><time>2026-04-26T09:43:19Z</time></trkpt><trkpt lat="44.4078008743871" lon="9.886478604581237"><ele>533.0</ele><time>2026-04-26T09:43:20Z</time></trkpt><trkpt lat="44.40793587808249" lon="9.886628523707548"><ele>533.0</ele><time>2026-04-26T09:43:21Z</time></trkpt><trkpt lat="44.40806064856522" lon="9.886790132530678"><ele>535.3333333333333</ele><time>2026-04-26T09:43:22Z</time></trkpt><trkpt lat="44.408186952968364" lon="9.886964965149927"><ele>537.6666666666666</ele><time>2026-04-26T09:43:23Z</time></trkpt><trkpt lat="44.4083157997821" lon="9.887138147142386"><ele>540.0</ele><time>2026-04-26T09:43:24Z</time></trkpt><trkpt lat="44.408449910526784" lon="9.887280791099615"><ele>540.0</ele><time>2026-04-26T09:43:25Z</time></trkpt><trkpt lat="44.4085950489206" lon="9.887404389422915"><ele>540.0</ele><time>2026-04-26T09:43:26Z</time></trkpt><trkpt lat="44.408737852134884" lon="9.88751217018957"><ele>540.0</ele><time>2026-04-26T09:43:27Z</time></trkpt><trkpt lat="44.408878257422174" lon="9.887619766421244"><ele>544.5</ele><time>2026-04-26T09:43:28Z</time></trkpt><trkpt lat="44.40899771810191" lon="9.887740537150044"><ele>549.0</ele><time>2026-04-26T09:43:29Z</time></trkpt><trkpt lat="44.40909404201601" lon="9.887877696961516"><ele>553.5</ele><time>2026-04-26T09:43:30Z</time></trkpt><trkpt lat="44.40919153723157" lon="9.888036768759418"><ele>558.0</ele><time>2026-04-26T09:43:31Z</time></trkpt><trkpt lat="44.40927951271027" lon="9.888176882356321"><ele>558.0</ele><time>2026-04-26T09:43:32Z</time></trkpt><trkpt lat="44.409347262599745" lon="9.88829062919165"><ele>558.0</ele><time>2026-04-26T09:43:33Z</time></trkpt><trkpt lat="44.409370481229374" lon="9.88839743382428"><ele>558.0</ele><time>2026-04-26T09:43:34Z</time></trkpt><trkpt lat="44.409366807307634" lon="9.888555699333645"><ele>558.0</ele><time>2026-04-26T09:43:35Z</time></trkpt><trkpt lat="44.409342547864945" lon="9.888705027214147"><ele>558.0</ele><time>2026-04-26T09:43:36Z</time></trkpt><trkpt lat="44.40925116748979" lon="9.888836264537659"><ele>560.6666666666666</ele><time>2026-04-26T09:43:37Z</time></trkpt><trkpt lat="44.40914756457028" lon="9.889005320972641"><ele>563.3333333333333</ele><time>2026-04-26T09:43:38Z</time></trkpt><trkpt lat="44.40904965744886" lon="9.889183643867261"><ele>566.0</ele><time>2026-04-26T09:43:39Z</time></trkpt><trkpt lat="44.40896618017103" lon="9.889355705184322"><ele>568.0</ele><time>2026-04-26T09:43:40Z</time></trkpt><trkpt lat="44.40888659850563" lon="9.889506443758956"><ele>570.0</ele><time>2026-04-26T09:43:41Z</time></trkpt><trkpt lat="44.40882740662856" lon="9.889677352890143"><ele>572.0</ele><time>2026-04-26T09:43:42Z</time></trkpt><trkpt lat="44.40881061550499" lon="9.889875344163364"><ele>574.0</ele><time>2026-04-26T09:43:43Z</time></trkpt><trkpt lat="44.40882362045013" lon="9.890090673532251"><ele>570.0</ele><time>2026-04-26T09:43:44Z</time></trkpt><trkpt lat="44.40887927050358" lon="9.890297484338166"><ele>566.0</ele><time>2026-04-26T09:43:45Z</time></trkpt><trkpt lat="44.40897265133832" lon="9.890485291045103"><ele>562.0</ele><time>2026-04-26T09:43:46Z</time></trkpt><trkpt lat="44.40908068120285" lon="9.890663165092771"><ele>562.0</ele><time>2026-04-26T09:43:47Z</time></trkpt><trkpt lat="44.409191605914586" lon="9.89083036579565"><ele>562.0</ele><time>2026-04-26T09:43:48Z</time></trkpt><trkpt lat="44.40929829529593" lon="9.890991085036719"><ele>562.0</ele><time>2026-04-26T09:43:49Z</time></trkpt><trkpt lat="44.409439324585335" lon="9.891095175749015"><ele>566.3333333333334</ele><time>2026-04-26T09:43:50Z</time></trkpt><trkpt lat="44.409599325108694" lon="9.891174437836966"><ele>570.6666666666666</ele><time>2026-04-26T09:43:51Z</time></trkpt><trkpt lat="44.40975343807391" lon="9.891264565214387"><ele>575.0</ele><time>2026-04-26T09:43:52Z</time></trkpt><trkpt lat="44.409911115899945" lon="9.89135827917216"><ele>575.0</ele><time>2026-04-26T09:43:53Z</time></trkpt><trkpt lat="44.41006643802634" lon="9.891443977845986"><ele>575.0</ele><time>2026-04-26T09:43:54Z</time></trkpt><trkpt lat="44.41021717607409" lon="9.89153403695815"><ele>575.0</ele><time>2026-04-26T09:43:55Z</time></trkpt><trkpt lat="44.41037224163047" lon="9.89162269107485"><ele>577.0</ele><time>2026-04-26T09:43:56Z</time></trkpt><trkpt lat="44.410528898593675" lon="9.891717242858407"><ele>579.0</ele><time>2026-04-26T09:43:57Z</time></trkpt><trkpt lat="44.41068392942682" lon="9.891806047809615"><ele>581.0</ele><time>2026-04-26T09:43:58Z</time></trkpt><trkpt lat="44.41083798584092" lon="9.891895813130503"><ele>584.3333333333333</ele><time>2026-04-26T09:43:59Z</time></trkpt><trkpt lat="44.410990848944905" lon="9.89198331212528"><ele>587.6666666666666</ele><time>2026-04-26T09:44:00Z</time></trkpt><trkpt lat="44.41114361010975" lon="9.892071542902828"><ele>591.0</ele><time>2026-04-26T09:44:01Z</time></trkpt><trkpt lat="44.411295574683606" lon="9.892147262720108"><ele>592.0</ele><time>2026-04-26T09:44:02Z</time></trkpt><trkpt lat="44.41144236380604" lon="9.892245714673093"><ele>593.0</ele><time>2026-04-26T09:44:03Z</time></trkpt><trkpt lat="44.41159134871325" lon="9.89237460222709"><ele>594.0</ele><time>2026-04-26T09:44:04Z</time></trkpt><trkpt lat="44.41173020371035" lon="9.892531707644165"><ele>599.0</ele><time>2026-04-26T09:44:05Z</time></trkpt><trkpt lat="44.411859778007305" lon="9.892689704661935"><ele>604.0</ele><time>2026-04-26T09:44:06Z</time></trkpt><trkpt lat="44.4119675455512" lon="9.892858795269428"><ele>609.0</ele><time>2026-04-26T09:44:07Z</time></trkpt><trkpt lat="44.4120591854718" lon="9.893050832388136"><ele>609.0</ele><time>2026-04-26T09:44:08Z</time></trkpt><trkpt lat="44.41213351341302" lon="9.89324916811804"><ele>609.0</ele><time>2026-04-26T09:44:09Z</time></trkpt><trkpt lat="44.41222166463651" lon="9.893444531481958"><ele>609.0</ele><time>2026-04-26T09:44:10Z</time></trkpt><trkpt lat="44.41232626020549" lon="9.893628859759103"><ele>610.3333333333334</ele><time>2026-04-26T09:44:11Z</time></trkpt><trkpt lat="44.41243613653542" lon="9.893807301245868"><ele>611.6666666666667</ele><time>2026-04-26T09:44:12Z</time></trkpt><trkpt lat="44.41255703958821" lon="9.893968052036712"><ele>613.0</ele><time>2026-04-26T09:44:13Z</time></trkpt><trkpt lat="44.41268172556004" lon="9.894108021835821"><ele>613.0</ele><time>2026-04-26T09:44:14Z</time></trkpt><trkpt lat="44.41278733324893" lon="9.894243078944154"><ele>613.0</ele><time>2026-04-26T09:44:15Z</time></trkpt><trkpt lat="44.412906800650205" lon="9.894395447889693"><ele>613.0</ele><time>2026-04-26T09:44:16Z</time></trkpt><trkpt lat="44.41299079468664" lon="9.894595422442809"><ele>614.3333333333334</ele><time>2026-04-26T09:44:17Z</time></trkpt><trkpt lat="44.413034358791734" lon="9.894827690884917"><ele>615.6666666666666</ele><time>2026-04-26T09:44:18Z</time></trkpt><trkpt lat="44.413067764400246" lon="9.895071110511598"><ele>617.0</ele><time>2026-04-26T09:44:19Z</time></trkpt><trkpt lat="44.41309533772844" lon="9.895280512314327"><ele>617.0</ele><time>2026-04-26T09:44:20Z</time></trkpt><trkpt lat="44.41311581909514" lon="9.895442581106828"><ele>617.0</ele><time>2026-04-26T09:44:21Z</time></trkpt><trkpt lat="44.41315140157948" lon="9.895654812420288"><ele>617.0</ele><time>2026-04-26T09:44:22Z</time></trkpt><trkpt lat="44.41317222183057" lon="9.895868750499226"><ele>617.0</ele><time>2026-04-26T09:44:23Z</time></trkpt><trkpt lat="44.41318942267422" lon="9.896095091252644"><ele>615.3333333333333</ele><time>2026-04-26T09:44:24Z</time></trkpt><trkpt lat="44.41321728008367" lon="9.89631194936755"><ele>613.6666666666666</ele><time>2026-04-26T09:44:25Z</time></trkpt><trkpt lat="44.413252245559626" lon="9.896522846118613"><ele>612.0</ele><time>2026-04-26T09:44:26Z</time></trkpt><trkpt lat="44.41329862367074" lon="9.896716250033093"><ele>607.25</ele><time>2026-04-26T09:44:27Z</time></trkpt><trkpt lat="44.4133524193064" lon="9.89689522607258"><ele>602.5</ele><time>2026-04-26T09:44:28Z</time></trkpt><trkpt lat="44.41342549947131" lon="9.897044486765783"><ele>597.75</ele><time>2026-04-26T09:44:29Z</time></trkpt><trkpt lat="44.41352569872189" lon="9.897164767839255"><ele>593.0</ele><time>2026-04-26T09:44:30Z</time></trkpt><trkpt lat="44.41366897666286" lon="9.897255890097904"><ele>593.0</ele><time>2026-04-26T09:44:31Z</time></trkpt><trkpt lat="44.413807602445246" lon="9.897320707861889"><ele>593.0</ele><time>2026-04-26T09:44:32Z</time></trkpt><trkpt lat="44.413945769109255" lon="9.897397670892786"><ele>593.0</ele><time>2026-04-26T09:44:33Z</time></trkpt><trkpt lat="44.41406083203586" lon="9.897523632580652"><ele>593.0</ele><time>2026-04-26T09:44:34Z</time></trkpt><trkpt lat="44.414158770740556" lon="9.897698046237307"><ele>597.6666666666666</ele><time>2026-04-26T09:44:35Z</time></trkpt><trkpt lat="44.4142236454149" lon="9.897913531709323"><ele>602.3333333333334</ele><time>2026-04-26T09:44:36Z</time></trkpt><trkpt lat="44.4142556273042" lon="9.898151341138986"><ele>607.0</ele><time>2026-04-26T09:44:37Z</time></trkpt><trkpt lat="44.414275162786524" lon="9.89839338615011"><ele>603.3333333333334</ele><time>2026-04-26T09:44:38Z</time></trkpt><trkpt lat="44.414334464474" lon="9.898610774110303"><ele>599.6666666666666</ele><time>2026-04-26T09:44:39Z</time></trkpt><trkpt lat="44.41440501587662" lon="9.898854204632011"><ele>596.0</ele><time>2026-04-26T09:44:40Z</time></trkpt><trkpt lat="44.41443065647584" lon="9.899081565010498"><ele>593.0</ele><time>2026-04-26T09:44:41Z</time></trkpt><trkpt lat="44.414449673280345" lon="9.899294775684941"><ele>590.0</ele><time>2026-04-26T09:44:42Z</time></trkpt><trkpt lat="44.41447693520191" lon="9.899505406569528"><ele>587.0</ele><time>2026-04-26T09:44:43Z</time></trkpt><trkpt lat="44.41452992748154" lon="9.899704315991691"><ele>587.0</ele><time>2026-04-26T09:44:44Z</time></trkpt><trkpt lat="44.41462027890395" lon="9.899887834099285"><ele>587.0</ele><time>2026-04-26T09:44:45Z</time></trkpt><trkpt lat="44.41473381314204" lon="9.900055905030822"><ele>587.0</ele><time>2026-04-26T09:44:46Z</time></trkpt><trkpt lat="44.41483844819616" lon="9.900220440957375"><ele>593.6666666666666</ele><time>2026-04-26T09:44:47Z</time></trkpt><trkpt lat="44.41489748159429" lon="9.900426970348486"><ele>600.3333333333334</ele><time>2026-04-26T09:44:48Z</time></trkpt><trkpt lat="44.41498203819951" lon="9.900629559537872"><ele>607.0</ele><time>2026-04-26T09:44:49Z</time></trkpt><trkpt lat="44.415093769820785" lon="9.900803244519622"><ele>600.0</ele><time>2026-04-26T09:44:50Z</time></trkpt><trkpt lat="44.41521453656259" lon="9.90095681789518"><ele>593.0</ele><time>2026-04-26T09:44:51Z</time></trkpt><trkpt lat="44.41531816474404" lon="9.9011234983837"><ele>586.0</ele><time>2026-04-26T09:44:52Z</time></trkpt><trkpt lat="44.41539566963273" lon="9.901317992410899"><ele>586.0</ele><time>2026-04-26T09:44:53Z</time></trkpt><trkpt lat="44.415450243348474" lon="9.901520499178126"><ele>586.0</ele><time>2026-04-26T09:44:54Z</time></trkpt><trkpt lat="44.41549712438226" lon="9.901713392593436"><ele>586.0</ele><time>2026-04-26T09:44:55Z</time></trkpt><trkpt lat="44.415559911736764" lon="9.901894903608914"><ele>586.0</ele><time>2026-04-26T09:44:56Z</time></trkpt><trkpt lat="44.41564681504478" lon="9.902038776369482"><ele>590.3333333333334</ele><time>2026-04-26T09:44:57Z</time></trkpt><trkpt lat="44.41576806176888" lon="9.902147696810818"><ele>594.6666666666666</ele><time>2026-04-26T09:44:58Z</time></trkpt><trkpt lat="44.41591747427184" lon="9.902192448116892"><ele>599.0</ele><time>2026-04-26T09:44:59Z</time></trkpt><trkpt lat="44.41608774875749" lon="9.902242123514812"><ele>599.0</ele><time>2026-04-26T09:45:00Z</time></trkpt><trkpt lat="44.416265785542535" lon="9.902277661065328"><ele>599.0</ele><time>2026-04-26T09:45:01Z</time></trkpt><trkpt lat="44.41643186843251" lon="9.902287483721286"><ele>599.0</ele><time>2026-04-26T09:45:02Z</time></trkpt><trkpt lat="44.4165978559233" lon="9.902318972378266"><ele>600.25</ele><time>2026-04-26T09:45:03Z</time></trkpt><trkpt lat="44.41675316906645" lon="9.90235121318827"><ele>601.5</ele><time>2026-04-26T09:45:04Z</time></trkpt><trkpt lat="44.41689831886803" lon="9.902376221157574"><ele>602.75</ele><time>2026-04-26T09:45:05Z</time></trkpt><trkpt lat="44.41702797886992" lon="9.902426157872688"><ele>604.0</ele><time>2026-04-26T09:45:06Z</time></trkpt><trkpt lat="44.417151061326294" lon="9.902462520716655"><ele>601.5</ele><time>2026-04-26T09:45:07Z</time></trkpt><trkpt lat="44.41725429840742" lon="9.902576375747241"><ele>599.0</ele><time>2026-04-26T09:45:08Z</time></trkpt><trkpt lat="44.41733381951613" lon="9.902741559444017"><ele>596.5</ele><time>2026-04-26T09:45:09Z</time></trkpt><trkpt lat="44.417403549752166" lon="9.902927838359235"><ele>594.0</ele><time>2026-04-26T09:45:10Z</time></trkpt><trkpt lat="44.4175140225597" lon="9.9030595917548"><ele>594.0</ele><time>2026-04-26T09:45:11Z</time></trkpt><trkpt lat="44.41765718712414" lon="9.903162487304092"><ele>594.0</ele><time>2026-04-26T09:45:12Z</time></trkpt><trkpt lat="44.41783761056303" lon="9.90323670849041"><ele>594.0</ele><time>2026-04-26T09:45:13Z</time></trkpt><trkpt lat="44.418001094034935" lon="9.903294922776105"><ele>595.0</ele><time>2026-04-26T09:45:14Z</time></trkpt><trkpt lat="44.41814899108237" lon="9.903331406210278"><ele>596.0</ele><time>2026-04-26T09:45:15Z</time></trkpt><trkpt lat="44.418293845257445" lon="9.903339955156126"><ele>597.0</ele><time>2026-04-26T09:45:16Z</time></trkpt><trkpt lat="44.41843849366375" lon="9.903343196255328"><ele>598.0</ele><time>2026-04-26T09:45:17Z</time></trkpt><trkpt lat="44.41858222822575" lon="9.90329313906255"><ele>598.0</ele><time>2026-04-26T09:45:18Z</time></trkpt><trkpt lat="44.4187146229213" lon="9.90324794002794"><ele>598.0</ele><time>2026-04-26T09:45:19Z</time></trkpt><trkpt lat="44.418839787029164" lon="9.903205570288604"><ele>598.0</ele><time>2026-04-26T09:45:20Z</time></trkpt><trkpt lat="44.41896398256722" lon="9.903190924432097"><ele>598.0</ele><time>2026-04-26T09:45:21Z</time></trkpt><trkpt lat="44.4191000277709" lon="9.903224712926306"><ele>599.3333333333334</ele><time>2026-04-26T09:45:22Z</time></trkpt><trkpt lat="44.41922351859389" lon="9.903354661343297"><ele>600.6666666666666</ele><time>2026-04-26T09:45:23Z</time></trkpt><trkpt lat="44.41934409071964" lon="9.90351021072303"><ele>602.0</ele><time>2026-04-26T09:45:24Z</time></trkpt><trkpt lat="44.41946213945823" lon="9.903628435145075"><ele>602.0</ele><time>2026-04-26T09:45:25Z</time></trkpt><trkpt lat="44.41958239282271" lon="9.903732687604192"><ele>602.0</ele><time>2026-04-26T09:45:26Z</time></trkpt><trkpt lat="44.41971625110293" lon="9.903820582496884"><ele>602.0</ele><time>2026-04-26T09:45:27Z</time></trkpt><trkpt lat="44.419843386398654" lon="9.903894266354618"><ele>602.0</ele><time>2026-04-26T09:45:28Z</time></trkpt><trkpt lat="44.41997125198011" lon="9.904011758403989"><ele>605.0</ele><time>2026-04-26T09:45:29Z</time></trkpt><trkpt lat="44.42007692719676" lon="9.904158671465929"><ele>608.0</ele><time>2026-04-26T09:45:30Z</time></trkpt><trkpt lat="44.4201656465707" lon="9.904339700325004"><ele>611.0</ele><time>2026-04-26T09:45:31Z</time></trkpt><trkpt lat="44.42025654289116" lon="9.904511438967443"><ele>611.0</ele><time>2026-04-26T09:45:32Z</time></trkpt><trkpt lat="44.420362166891245" lon="9.904661970507481"><ele>611.0</ele><time>2026-04-26T09:45:33Z</time></trkpt><trkpt lat="44.42048743865195" lon="9.904786149683845"><ele>611.0</ele><time>2026-04-26T09:45:34Z</time></trkpt><trkpt lat="44.42062276547168" lon="9.904886837865721"><ele>612.3333333333333</ele><time>2026-04-26T09:45:35Z</time></trkpt><trkpt lat="44.42077053846182" lon="9.904939138683053"><ele>613.6666666666666</ele><time>2026-04-26T09:45:36Z</time></trkpt><trkpt lat="44.42092763462962" lon="9.904951482852026"><ele>615.0</ele><time>2026-04-26T09:45:37Z</time></trkpt><trkpt lat="44.42108739966588" lon="9.904907135246857"><ele>615.0</ele><time>2026-04-26T09:45:38Z</time></trkpt><trkpt lat="44.42125104343869" lon="9.904886746297583"><ele>615.0</ele><time>2026-04-26T09:45:39Z</time></trkpt><trkpt lat="44.42141054843884" lon="9.904843693560958"><ele>615.0</ele><time>2026-04-26T09:45:40Z</time></trkpt><trkpt lat="44.42156218191365" lon="9.904808125159459"><ele>618.6666666666666</ele><time>2026-04-26T09:45:41Z</time></trkpt><trkpt lat="44.42171944399919" lon="9.9047671665137"><ele>622.3333333333333</ele><time>2026-04-26T09:45:42Z</time></trkpt><trkpt lat="44.42187596452205" lon="9.904764192078419"><ele>626.0</ele><time>2026-04-26T09:45:43Z</time></trkpt><trkpt lat="44.42202443167143" lon="9.904752777594828"><ele>627.25</ele><time>2026-04-26T09:45:44Z</time></trkpt><trkpt lat="44.42215997115937" lon="9.904700180665316"><ele>628.5</ele><time>2026-04-26T09:45:45Z</time></trkpt><trkpt lat="44.42228306030577" lon="9.90464634703462"><ele>629.75</ele><time>2026-04-26T09:45:46Z</time></trkpt><trkpt lat="44.4223945548945" lon="9.904551711842089"><ele>631.0</ele><time>2026-04-26T09:45:47Z</time></trkpt><trkpt lat="44.42248123664548" lon="9.90445691582419"><ele>631.0</ele><time>2026-04-26T09:45:48Z</time></trkpt><trkpt lat="44.42256068475544" lon="9.904363104027745"><ele>631.0</ele><time>2026-04-26T09:45:49Z</time></trkpt><trkpt lat="44.42263610801514" lon="9.904282906390964"><ele>631.0</ele><time>2026-04-26T09:45:50Z</time></trkpt><trkpt lat="44.42273217171356" lon="9.9042057889956"><ele>631.0</ele><time>2026-04-26T09:45:51Z</time></trkpt><trkpt lat="44.422884305782" lon="9.90417521220219"><ele>632.3333333333334</ele><time>2026-04-26T09:45:52Z</time></trkpt><trkpt lat="44.423048162748735" lon="9.904161093099955"><ele>633.6666666666666</ele><time>2026-04-26T09:45:53Z</time></trkpt><trkpt lat="44.423240445113265" lon="9.904149075089045"><ele>635.0</ele><time>2026-04-26T09:45:54Z</time></trkpt><trkpt lat="44.42344378537455" lon="9.904189604955313"><ele>636.6666666666666</ele><time>2026-04-26T09:45:55Z</time></trkpt><trkpt lat="44.42363286892089" lon="9.904265575840252"><ele>638.3333333333334</ele><time>2026-04-26T09:45:56Z</time></trkpt><trkpt lat="44.423809185588325" lon="9.904302100341642"><ele>640.0</ele><time>2026-04-26T09:45:57Z</time></trkpt><trkpt lat="44.423953679408996" lon="9.904391891913699"><ele>640.0</ele><time>2026-04-26T09:45:58Z</time></trkpt><trkpt lat="44.424074410269554" lon="9.904502994354173"><ele>640.0</ele><time>2026-04-26T09:45:59Z</time></trkpt><trkpt lat="44.42415292701927" lon="9.904669013520017"><ele>640.0</ele><time>2026-04-26T09:46:00Z</time></trkpt><trkpt lat="44.42418718260914" lon="9.904864158047237"><ele>640.0</ele><time>2026-04-26T09:46:01Z</time></trkpt><trkpt lat="44.42421854238665" lon="9.905077984324327"><ele>635.6666666666667</ele><time>2026-04-26T09:46:02Z</time></trkpt><trkpt lat="44.424289240450314" lon="9.905272795917627"><ele>631.3333333333334</ele><time>2026-04-26T09:46:03Z</time></trkpt><trkpt lat="44.42437548263784" lon="9.905446009069928"><ele>627.0</ele><time>2026-04-26T09:46:04Z</time></trkpt><trkpt lat="44.42446940532971" lon="9.905607295125089"><ele>627.0</ele><time>2026-04-26T09:46:05Z</time></trkpt><trkpt lat="44.42457675533822" lon="9.905757465028588"><ele>627.0</ele><time>2026-04-26T09:46:06Z</time></trkpt><trkpt lat="44.42470298393231" lon="9.905893368915685"><ele>627.0</ele><time>2026-04-26T09:46:07Z</time></trkpt><trkpt lat="44.424850625163096" lon="9.906007991101713"><ele>629.3333333333334</ele><time>2026-04-26T09:46:08Z</time></trkpt><trkpt lat="44.42500511734256" lon="9.906094516298758"><ele>631.6666666666667</ele><time>2026-04-26T09:46:09Z</time></trkpt><trkpt lat="44.42515778146824" lon="9.906191106050244"><ele>634.0</ele><time>2026-04-26T09:46:10Z</time></trkpt><trkpt lat="44.425298152178584" lon="9.906330096410935"><ele>634.0</ele><time>2026-04-26T09:46:11Z</time></trkpt><trkpt lat="44.425415141399164" lon="9.90650834997207"><ele>634.0</ele><time>2026-04-26T09:46:12Z</time></trkpt><trkpt lat="44.42551285516684" lon="9.906681668593398"><ele>634.0</ele><time>2026-04-26T09:46:13Z</time></trkpt><trkpt lat="44.425617675742934" lon="9.906851675119404"><ele>637.5</ele><time>2026-04-26T09:46:14Z</time></trkpt><trkpt lat="44.425712961374366" lon="9.907016530928495"><ele>641.0</ele><time>2026-04-26T09:46:15Z</time></trkpt><trkpt lat="44.4257824405117" lon="9.907188920643678"><ele>644.5</ele><time>2026-04-26T09:46:16Z</time></trkpt><trkpt lat="44.42583663010677" lon="9.907369845491127"><ele>648.0</ele><time>2026-04-26T09:46:17Z</time></trkpt><trkpt lat="44.42590181008983" lon="9.907546463214564"><ele>644.75</ele><time>2026-04-26T09:46:18Z</time></trkpt><trkpt lat="44.42597645617188" lon="9.907691448077438"><ele>641.5</ele><time>2026-04-26T09:46:19Z</time></trkpt><trkpt lat="44.42606190884787" lon="9.9077980972041"><ele>638.25</ele><time>2026-04-26T09:46:20Z</time></trkpt><trkpt lat="44.4261741427317" lon="9.907837521424172"><ele>635.0</ele><time>2026-04-26T09:46:21Z</time></trkpt><trkpt lat="44.42630547145422" lon="9.907794056183432"><ele>637.75</ele><time>2026-04-26T09:46:22Z</time></trkpt><trkpt lat="44.42645851623522" lon="9.90772582360585"><ele>640.5</ele><time>2026-04-26T09:46:23Z</time></trkpt><trkpt lat="44.42659552016263" lon="9.907663562803315"><ele>643.25</ele><time>2026-04-26T09:46:24Z</time></trkpt><trkpt lat="44.426739143402564" lon="9.907650486993795"><ele>646.0</ele><time>2026-04-26T09:46:25Z</time></trkpt><trkpt lat="44.426881998342985" lon="9.907692522165814"><ele>646.0</ele><time>2026-04-26T09:46:26Z</time></trkpt><trkpt lat="44.42704066781263" lon="9.907764779994844"><ele>646.0</ele><time>2026-04-26T09:46:27Z</time></trkpt><trkpt lat="44.42720347615736" lon="9.907830523232654"><ele>646.0</ele><time>2026-04-26T09:46:28Z</time></trkpt><trkpt lat="44.42734414173179" lon="9.907902585506811"><ele>648.5</ele><time>2026-04-26T09:46:29Z</time></trkpt><trkpt lat="44.42746767849838" lon="9.907961707639847"><ele>651.0</ele><time>2026-04-26T09:46:30Z</time></trkpt><trkpt lat="44.427589498371894" lon="9.90802001400328"><ele>653.5</ele><time>2026-04-26T09:46:31Z</time></trkpt><trkpt lat="44.42773215317617" lon="9.908081514697367"><ele>656.0</ele><time>2026-04-26T09:46:32Z</time></trkpt><trkpt lat="44.42787761707282" lon="9.90812576884247"><ele>660.0</ele><time>2026-04-26T09:46:33Z</time></trkpt><trkpt lat="44.428032550979204" lon="9.908155810796208"><ele>664.0</ele><time>2026-04-26T09:46:34Z</time></trkpt><trkpt lat="44.42816798419247" lon="9.908247138533259"><ele>668.0</ele><time>2026-04-26T09:46:35Z</time></trkpt><trkpt lat="44.42830256599556" lon="9.908318048715191"><ele>665.5</ele><time>2026-04-26T09:46:36Z</time></trkpt><trkpt lat="44.428412263855165" lon="9.908414211728852"><ele>663.0</ele><time>2026-04-26T09:46:37Z</time></trkpt><trkpt lat="44.4285499467783" lon="9.908474967881252"><ele>660.5</ele><time>2026-04-26T09:46:38Z</time></trkpt><trkpt lat="44.428699013595605" lon="9.90851533733006"><ele>658.0</ele><time>2026-04-26T09:46:39Z</time></trkpt><trkpt lat="44.42886024382016" lon="9.908524090026381"><ele>658.0</ele><time>2026-04-26T09:46:40Z</time></trkpt><trkpt lat="44.42902791372615" lon="9.908488060033626"><ele>658.0</ele><time>2026-04-26T09:46:41Z</time></trkpt><trkpt lat="44.42918930691607" lon="9.908433727616531"><ele>658.0</ele><time>2026-04-26T09:46:42Z</time></trkpt><trkpt lat="44.429341965394116" lon="9.908378008848878"><ele>658.0</ele><time>2026-04-26T09:46:43Z</time></trkpt><trkpt lat="44.4294806613136" lon="9.908363676059984"><ele>658.0</ele><time>2026-04-26T09:46:44Z</time></trkpt><trkpt lat="44.42960346636395" lon="9.908454646499312"><ele>658.0</ele><time>2026-04-26T09:46:45Z</time></trkpt><trkpt lat="44.42970104901637" lon="9.908573856692861"><ele>658.0</ele><time>2026-04-26T09:46:46Z</time></trkpt><trkpt lat="44.42979075325871" lon="9.908687141953212"><ele>659.0</ele><time>2026-04-26T09:46:47Z</time></trkpt><trkpt lat="44.429919598027396" lon="9.90873853217075"><ele>660.0</ele><time>2026-04-26T09:46:48Z</time></trkpt><trkpt lat="44.430062713591376" lon="9.908723042702794"><ele>661.0</ele><time>2026-04-26T09:46:49Z</time></trkpt><trkpt lat="44.430188310462114" lon="9.908690876549153"><ele>662.0</ele><time>2026-04-26T09:46:50Z</time></trkpt><trkpt lat="44.4303296083824" lon="9.908592899969607"><ele>662.0</ele><time>2026-04-26T09:46:51Z</time></trkpt><trkpt lat="44.43047454425119" lon="9.908457822324669"><ele>662.0</ele><time>2026-04-26T09:46:52Z</time></trkpt><trkpt lat="44.430632656699295" lon="9.90834953393898"><ele>662.0</ele><time>2026-04-26T09:46:53Z</time></trkpt><trkpt lat="44.43077157983182" lon="9.908236578140462"><ele>665.25</ele><time>2026-04-26T09:46:54Z</time></trkpt><trkpt lat="44.43090671433979" lon="9.90813484730162"><ele>668.5</ele><time>2026-04-26T09:46:55Z</time></trkpt><trkpt lat="44.43104256235426" lon="9.908065730243937"><ele>671.75</ele><time>2026-04-26T09:46:56Z</time></trkpt><trkpt lat="44.43116627848987" lon="9.908047752804073"><ele>675.0</ele><time>2026-04-26T09:46:57Z</time></trkpt><trkpt lat="44.43130475786497" lon="9.90802166951443"><ele>674.0</ele><time>2026-04-26T09:46:58Z</time></trkpt><trkpt lat="44.431449506656726" lon="9.908028753670523"><ele>673.0</ele><time>2026-04-26T09:46:59Z</time></trkpt><trkpt lat="44.431591681551375" lon="9.90804010544261"><ele>672.0</ele><time>2026-04-26T09:47:00Z</time></trkpt><trkpt lat="44.4317444684703" lon="9.908041642864463"><ele>671.0</ele><time>2026-04-26T09:47:01Z</time></trkpt><trkpt lat="44.43189931281694" lon="9.908044787508091"><ele>671.0</ele><time>2026-04-26T09:47:02Z</time></trkpt><trkpt lat="44.432052305990254" lon="9.908052308532953"><ele>671.0</ele><time>2026-04-26T09:47:03Z</time></trkpt><trkpt lat="44.43220094995882" lon="9.908068803801116"><ele>671.0</ele><time>2026-04-26T09:47:04Z</time></trkpt><trkpt lat="44.432355209905765" lon="9.908122357639785"><ele>672.75</ele><time>2026-04-26T09:47:05Z</time></trkpt><trkpt lat="44.43249415318243" lon="9.908204755566473"><ele>674.5</ele><time>2026-04-26T09:47:06Z</time></trkpt><trkpt lat="44.432629026630146" lon="9.908288275051412"><ele>676.25</ele><time>2026-04-26T09:47:07Z</time></trkpt><trkpt lat="44.43275766546005" lon="9.908376163429866"><ele>678.0</ele><time>2026-04-26T09:47:08Z</time></trkpt><trkpt lat="44.432894507334325" lon="9.9084235126814"><ele>679.5</ele><time>2026-04-26T09:47:09Z</time></trkpt><trkpt lat="44.43302794901043" lon="9.908386493053454"><ele>681.0</ele><time>2026-04-26T09:47:10Z</time></trkpt><trkpt lat="44.43314904462502" lon="9.908296542849975"><ele>682.5</ele><time>2026-04-26T09:47:11Z</time></trkpt><trkpt lat="44.43323989168036" lon="9.908175563621088"><ele>684.0</ele><time>2026-04-26T09:47:12Z</time></trkpt><trkpt lat="44.4333194099922" lon="9.908027346305685"><ele>684.0</ele><time>2026-04-26T09:47:13Z</time></trkpt><trkpt lat="44.43338984051963" lon="9.907911337355745"><ele>684.0</ele><time>2026-04-26T09:47:14Z</time></trkpt><trkpt lat="44.43348833367473" lon="9.907861856159645"><ele>684.0</ele><time>2026-04-26T09:47:15Z</time></trkpt><trkpt lat="44.43358024240017" lon="9.907875217034253"><ele>684.0</ele><time>2026-04-26T09:47:16Z</time></trkpt><trkpt lat="44.43365836364461" lon="9.907980247646067"><ele>684.0</ele><time>2026-04-26T09:47:17Z</time></trkpt><trkpt lat="44.43374907918735" lon="9.90811350303019"><ele>683.6666666666666</ele><time>2026-04-26T09:47:18Z</time></trkpt><trkpt lat="44.43383111509713" lon="9.908315742140072"><ele>683.3333333333333</ele><time>2026-04-26T09:47:19Z</time></trkpt><trkpt lat="44.43392208065763" lon="9.90850795200424"><ele>683.0</ele><time>2026-04-26T09:47:20Z</time></trkpt><trkpt lat="44.434022369921344" lon="9.90868744583381"><ele>685.0</ele><time>2026-04-26T09:47:21Z</time></trkpt><trkpt lat="44.43411701070291" lon="9.908837633328803"><ele>687.0</ele><time>2026-04-26T09:47:22Z</time></trkpt><trkpt lat="44.43422729058093" lon="9.908962400931085"><ele>689.0</ele><time>2026-04-26T09:47:23Z</time></trkpt><trkpt lat="44.43436813265569" lon="9.909023433138286"><ele>691.0</ele><time>2026-04-26T09:47:24Z</time></trkpt><trkpt lat="44.43451532241424" lon="9.90903851344236"><ele>690.75</ele><time>2026-04-26T09:47:25Z</time></trkpt><trkpt lat="44.434667889850374" lon="9.90904331522624"><ele>690.5</ele><time>2026-04-26T09:47:26Z</time></trkpt><trkpt lat="44.43480235965185" lon="9.909057071744185"><ele>690.25</ele><time>2026-04-26T09:47:27Z</time></trkpt><trkpt lat="44.43492910997046" lon="9.909145791444692"><ele>690.0</ele><time>2026-04-26T09:47:28Z</time></trkpt><trkpt lat="44.43501012336034" lon="9.90927769756458"><ele>693.3333333333334</ele><time>2026-04-26T09:47:29Z</time></trkpt><trkpt lat="44.43509383753028" lon="9.909466973648666"><ele>696.6666666666667</ele><time>2026-04-26T09:47:30Z</time></trkpt><trkpt lat="44.43518526494066" lon="9.909650744901287"><ele>700.0</ele><time>2026-04-26T09:47:31Z</time></trkpt><trkpt lat="44.43530983768969" lon="9.909779511695266"><ele>700.0</ele><time>2026-04-26T09:47:32Z</time></trkpt><trkpt lat="44.43546735576184" lon="9.909865893539077"><ele>700.0</ele><time>2026-04-26T09:47:33Z</time></trkpt><trkpt lat="44.43564554334439" lon="9.909943038809647"><ele>700.0</ele><time>2026-04-26T09:47:34Z</time></trkpt><trkpt lat="44.4358109533524" lon="9.910048136138094"><ele>703.6666666666667</ele><time>2026-04-26T09:47:35Z</time></trkpt><trkpt lat="44.4359774425206" lon="9.910152018922181"><ele>707.3333333333334</ele><time>2026-04-26T09:47:36Z</time></trkpt><trkpt lat="44.43614075631518" lon="9.910246519592265"><ele>711.0</ele><time>2026-04-26T09:47:37Z</time></trkpt><trkpt lat="44.43628204777896" lon="9.910332865564863"><ele>711.0</ele><time>2026-04-26T09:47:38Z</time></trkpt><trkpt lat="44.43643351117529" lon="9.910413933328215"><ele>711.0</ele><time>2026-04-26T09:47:39Z</time></trkpt><trkpt lat="44.43657922565524" lon="9.910476954938215"><ele>711.0</ele><time>2026-04-26T09:47:40Z</time></trkpt><trkpt lat="44.43672478021438" lon="9.910490311248166"><ele>711.0</ele><time>2026-04-26T09:47:41Z</time></trkpt><trkpt lat="44.436867140910095" lon="9.910450790468094"><ele>711.0</ele><time>2026-04-26T09:47:42Z</time></trkpt><trkpt lat="44.436996746237014" lon="9.910365031714099"><ele>711.0</ele><time>2026-04-26T09:47:43Z</time></trkpt><trkpt lat="44.437116725594095" lon="9.910228601890108"><ele>711.0</ele><time>2026-04-26T09:47:44Z</time></trkpt><trkpt lat="44.43721841511383" lon="9.910072459044624"><ele>710.25</ele><time>2026-04-26T09:47:45Z</time></trkpt><trkpt lat="44.43730987703388" lon="9.90991735807774"><ele>709.5</ele><time>2026-04-26T09:47:46Z</time></trkpt><trkpt lat="44.437410077390446" lon="9.909790502094053"><ele>708.75</ele><time>2026-04-26T09:47:47Z</time></trkpt><trkpt lat="44.43753229641802" lon="9.909708691386122"><ele>708.0</ele><time>2026-04-26T09:47:48Z</time></trkpt><trkpt lat="44.437673983241886" lon="9.909658516396995"><ele>708.0</ele><time>2026-04-26T09:47:49Z</time></trkpt><trkpt lat="44.43781875641192" lon="9.90969923753065"><ele>708.0</ele><time>2026-04-26T09:47:50Z</time></trkpt><trkpt lat="44.43797606190404" lon="9.909733473827043"><ele>708.0</ele><time>2026-04-26T09:47:51Z</time></trkpt><trkpt lat="44.4381419597689" lon="9.90974776108729"><ele>709.3333333333334</ele><time>2026-04-26T09:47:52Z</time></trkpt><trkpt lat="44.438301798731345" lon="9.909789497020052"><ele>710.6666666666667</ele><time>2026-04-26T09:47:53Z</time></trkpt><trkpt lat="44.438466613002205" lon="9.909819441714388"><ele>712.0</ele><time>2026-04-26T09:47:54Z</time></trkpt><trkpt lat="44.438637659103925" lon="9.90985141780525"><ele>711.6666666666667</ele><time>2026-04-26T09:47:55Z</time></trkpt><trkpt lat="44.4388025889823" lon="9.909855590100582"><ele>711.3333333333334</ele><time>2026-04-26T09:47:56Z</time></trkpt><trkpt lat="44.438960539019455" lon="9.90983699311356"><ele>711.0</ele><time>2026-04-26T09:47:57Z</time></trkpt><trkpt lat="44.43910229084625" lon="9.909878920158937"><ele>711.0</ele><time>2026-04-26T09:47:58Z</time></trkpt><trkpt lat="44.439228994513705" lon="9.90995258168424"><ele>711.0</ele><time>2026-04-26T09:47:59Z</time></trkpt><trkpt lat="44.43932094217383" lon="9.910071904434053"><ele>711.0</ele><time>2026-04-26T09:48:00Z</time></trkpt><trkpt lat="44.43936465373975" lon="9.910251571864851"><ele>711.0</ele><time>2026-04-26T09:48:01Z</time></trkpt><trkpt lat="44.43944166996645" lon="9.910410127342804"><ele>712.0</ele><time>2026-04-26T09:48:02Z</time></trkpt><trkpt lat="44.439545835510025" lon="9.910517526804492"><ele>713.0</ele><time>2026-04-26T09:48:03Z</time></trkpt><trkpt lat="44.43969109081947" lon="9.910559397326304"><ele>714.0</ele><time>2026-04-26T09:48:04Z</time></trkpt><trkpt lat="44.439835453173615" lon="9.910493687528767"><ele>715.0</ele><time>2026-04-26T09:48:05Z</time></trkpt><trkpt lat="44.43998946296282" lon="9.910463931998889"><ele>715.3333333333334</ele><time>2026-04-26T09:48:06Z</time></trkpt><trkpt lat="44.44014656954581" lon="9.910449489622703"><ele>715.6666666666666</ele><time>2026-04-26T09:48:07Z</time></trkpt><trkpt lat="44.44031110029166" lon="9.910431267228414"><ele>716.0</ele><time>2026-04-26T09:48:08Z</time></trkpt><trkpt lat="44.44047027015725" lon="9.910408415217262"><ele>720.3333333333333</ele><time>2026-04-26T09:48:09Z</time></trkpt><trkpt lat="44.44061690590681" lon="9.910371158225821"><ele>724.6666666666666</ele><time>2026-04-26T09:48:10Z</time></trkpt><trkpt lat="44.44076178514116" lon="9.91031075457736"><ele>729.0</ele><time>2026-04-26T09:48:11Z</time></trkpt><trkpt lat="44.440907789154714" lon="9.910251818770337"><ele>729.0</ele><time>2026-04-26T09:48:12Z</time></trkpt><trkpt lat="44.441052061136396" lon="9.910183024456108"><ele>729.0</ele><time>2026-04-26T09:48:13.001Z</time></trkpt><trkpt lat="44.44118599655291" lon="9.910093183741909"><ele>729.0</ele><time>2026-04-26T09:48:14.001Z</time></trkpt><trkpt lat="44.44130277927218" lon="9.909965009711971"><ele>729.0</ele><time>2026-04-26T09:48:15.001Z</time></trkpt><trkpt lat="44.44141257860701" lon="9.909823583278657"><ele>730.25</ele><time>2026-04-26T09:48:16.001Z</time></trkpt><trkpt lat="44.4415292296022" lon="9.909683389236497"><ele>731.5</ele><time>2026-04-26T09:48:17.001Z</time></trkpt><trkpt lat="44.441647608033755" lon="9.909549919863338"><ele>732.75</ele><time>2026-04-26T09:48:18.001Z</time></trkpt><trkpt lat="44.44175223888506" lon="9.909434830074964"><ele>734.0</ele><time>2026-04-26T09:48:19.001Z</time></trkpt><trkpt lat="44.441862176379246" lon="9.909368690597573"><ele>734.0</ele><time>2026-04-26T09:48:20.001Z</time></trkpt><trkpt lat="44.44196500887295" lon="9.909345754424795"><ele>734.0</ele><time>2026-04-26T09:48:21.001Z</time></trkpt><trkpt lat="44.44206896452293" lon="9.909422244847109"><ele>734.0</ele><time>2026-04-26T09:48:22.001Z</time></trkpt><trkpt lat="44.44213689043491" lon="9.909587771098046"><ele>734.0</ele><time>2026-04-26T09:48:23.001Z</time></trkpt><trkpt lat="44.442241700867704" lon="9.9097462192697"><ele>735.6666666666666</ele><time>2026-04-26T09:48:24.001Z</time></trkpt><trkpt lat="44.442344266208245" lon="9.909891258583599"><ele>737.3333333333334</ele><time>2026-04-26T09:48:25.001Z</time></trkpt><trkpt lat="44.44249139061952" lon="9.9099705616882"><ele>739.0</ele><time>2026-04-26T09:48:26.001Z</time></trkpt><trkpt lat="44.442662202871354" lon="9.909985546835044"><ele>739.0</ele><time>2026-04-26T09:48:27.001Z</time></trkpt><trkpt lat="44.44282288519732" lon="9.909948642111337"><ele>739.0</ele><time>2026-04-26T09:48:28.001Z</time></trkpt><trkpt lat="44.44298098288904" lon="9.90989331306777"><ele>739.0</ele><time>2026-04-26T09:48:29.001Z</time></trkpt><trkpt lat="44.44313019985955" lon="9.909827836192436"><ele>742.25</ele><time>2026-04-26T09:48:30.001Z</time></trkpt><trkpt lat="44.44327426040474" lon="9.909768259647299"><ele>745.5</ele><time>2026-04-26T09:48:31.001Z</time></trkpt><trkpt lat="44.44340410976891" lon="9.909702942369227"><ele>748.75</ele><time>2026-04-26T09:48:32.001Z</time></trkpt><trkpt lat="44.443524909187566" lon="9.909600686596937"><ele>752.0</ele><time>2026-04-26T09:48:33.001Z</time></trkpt><trkpt lat="44.443625302873166" lon="9.909453658235423"><ele>752.0</ele><time>2026-04-26T09:48:34Z</time></trkpt><trkpt lat="44.44370699648151" lon="9.909281079533582"><ele>752.0</ele><time>2026-04-26T09:48:35Z</time></trkpt><trkpt lat="44.443788021958504" lon="9.909101911939299"><ele>752.0</ele><time>2026-04-26T09:48:36Z</time></trkpt><trkpt lat="44.44385654781695" lon="9.908907111782378"><ele>755.3333333333333</ele><time>2026-04-26T09:48:37Z</time></trkpt><trkpt lat="44.44390240339665" lon="9.90869073940111"><ele>758.6666666666666</ele><time>2026-04-26T09:48:38Z</time></trkpt><trkpt lat="44.44391898360716" lon="9.908466986634801"><ele>762.0</ele><time>2026-04-26T09:48:39Z</time></trkpt><trkpt lat="44.4439583660677" lon="9.90825635219308"><ele>763.0</ele><time>2026-04-26T09:48:40Z</time></trkpt><trkpt lat="44.44403656887728" lon="9.908079917998448"><ele>764.0</ele><time>2026-04-26T09:48:41Z</time></trkpt><trkpt lat="44.44413916774249" lon="9.907931278053717"><ele>765.0</ele><time>2026-04-26T09:48:42Z</time></trkpt><trkpt lat="44.4442392886658" lon="9.907760399580587"><ele>765.0</ele><time>2026-04-26T09:48:43Z</time></trkpt><trkpt lat="44.444351631705544" lon="9.907621121283611"><ele>765.0</ele><time>2026-04-26T09:48:44Z</time></trkpt><trkpt lat="44.44444785227039" lon="9.90746828455105"><ele>765.0</ele><time>2026-04-26T09:48:45Z</time></trkpt><trkpt lat="44.44450812649911" lon="9.907296765675298"><ele>765.0</ele><time>2026-04-26T09:48:46Z</time></trkpt><trkpt lat="44.444543517234244" lon="9.907108322418406"><ele>762.75</ele><time>2026-04-26T09:48:47Z</time></trkpt><trkpt lat="44.444528756134716" lon="9.906903431374749"><ele>760.5</ele><time>2026-04-26T09:48:48Z</time></trkpt><trkpt lat="44.444471545276556" lon="9.906719252859322"><ele>758.25</ele><time>2026-04-26T09:48:49Z</time></trkpt><trkpt lat="44.44440119295422" lon="9.906553420203174"><ele>756.0</ele><time>2026-04-26T09:48:50Z</time></trkpt><trkpt lat="44.44437542882254" lon="9.906367678857874"><ele>755.75</ele><time>2026-04-26T09:48:51Z</time></trkpt><trkpt lat="44.44437484766306" lon="9.906179663709601"><ele>755.5</ele><time>2026-04-26T09:48:52Z</time></trkpt><trkpt lat="44.44444639557725" lon="9.905998400278518"><ele>755.25</ele><time>2026-04-26T09:48:53Z</time></trkpt><trkpt lat="44.44450905971645" lon="9.905828490111402"><ele>755.0</ele><time>2026-04-26T09:48:54Z</time></trkpt><trkpt lat="44.44460711672714" lon="9.905697024545857"><ele>759.75</ele><time>2026-04-26T09:48:55Z</time></trkpt><trkpt lat="44.44471814326356" lon="9.905634916046083"><ele>764.5</ele><time>2026-04-26T09:48:56Z</time></trkpt><trkpt lat="44.44481832570951" lon="9.905667148074329"><ele>769.25</ele><time>2026-04-26T09:48:57Z</time></trkpt><trkpt lat="44.44491668087541" lon="9.905735834188123"><ele>774.0</ele><time>2026-04-26T09:48:58Z</time></trkpt><trkpt lat="44.44505087750364" lon="9.905842495394175"><ele>777.3333333333333</ele><time>2026-04-26T09:48:59Z</time></trkpt><trkpt lat="44.445184049812475" lon="9.905952307790418"><ele>780.6666666666666</ele><time>2026-04-26T09:49:00Z</time></trkpt><trkpt lat="44.445340458228515" lon="9.906012345306147"><ele>784.0</ele><time>2026-04-26T09:49:01Z</time></trkpt><trkpt lat="44.4455097449334" lon="9.906053326921075"><ele>788.0</ele><time>2026-04-26T09:49:02Z</time></trkpt><trkpt lat="44.44567852775725" lon="9.906098135862486"><ele>792.0</ele><time>2026-04-26T09:49:03Z</time></trkpt><trkpt lat="44.445845210151134" lon="9.906155246563896"><ele>796.0</ele><time>2026-04-26T09:49:04Z</time></trkpt><trkpt lat="44.446013807763336" lon="9.906202768985155"><ele>796.0</ele><time>2026-04-26T09:49:05Z</time></trkpt><trkpt lat="44.44616500444376" lon="9.906238384095342"><ele>796.0</ele><time>2026-04-26T09:49:06Z</time></trkpt><trkpt lat="44.44630066411164" lon="9.906283560213836"><ele>796.0</ele><time>2026-04-26T09:49:07Z</time></trkpt><trkpt lat="44.44642728632488" lon="9.90631711440161"><ele>796.0</ele><time>2026-04-26T09:49:08Z</time></trkpt><trkpt lat="44.44654751628332" lon="9.906333629636284"><ele>796.1999999999999</ele><time>2026-04-26T09:49:09Z</time></trkpt><trkpt lat="44.446648331139194" lon="9.906355848739286"><ele>796.4</ele><time>2026-04-26T09:49:10Z</time></trkpt><trkpt lat="44.44671489807101" lon="9.906427690377852"><ele>796.6</ele><time>2026-04-26T09:49:11Z</time></trkpt><trkpt lat="44.44671913938151" lon="9.906539652534695"><ele>796.8</ele><time>2026-04-26T09:49:12Z</time></trkpt><trkpt lat="44.44668984305997" lon="9.906624659578048"><ele>797.0</ele><time>2026-04-26T09:49:13Z</time></trkpt><trkpt lat="44.446569446268285" lon="9.9066854290032"><ele>797.0</ele><time>2026-04-26T09:49:14Z</time></trkpt><trkpt lat="44.44645332208862" lon="9.906633316372114"><ele>797.0</ele><time>2026-04-26T09:49:15Z</time></trkpt><trkpt lat="44.44632162417916" lon="9.906623759723468"><ele>797.0</ele><time>2026-04-26T09:49:16Z</time></trkpt><trkpt lat="44.44618604902923" lon="9.9066058639389"><ele>797.0</ele><time>2026-04-26T09:49:17Z</time></trkpt><trkpt lat="44.44604588502203" lon="9.906599411837021"><ele>796.75</ele><time>2026-04-26T09:49:18Z</time></trkpt><trkpt lat="44.44591273002328" lon="9.90659529412523"><ele>796.5</ele><time>2026-04-26T09:49:19Z</time></trkpt><trkpt lat="44.445771880408884" lon="9.9065878840231"><ele>796.25</ele><time>2026-04-26T09:49:20Z</time></trkpt><trkpt lat="44.44563238159975" lon="9.906592269624586"><ele>796.0</ele><time>2026-04-26T09:49:21Z</time></trkpt><trkpt lat="44.44551172278302" lon="9.906638296836755"><ele>793.75</ele><time>2026-04-26T09:49:22Z</time></trkpt><trkpt lat="44.44543028828171" lon="9.906752433423367"><ele>791.5</ele><time>2026-04-26T09:49:23Z</time></trkpt><trkpt lat="44.44539040936938" lon="9.906928975126958"><ele>789.25</ele><time>2026-04-26T09:49:24Z</time></trkpt><trkpt lat="44.4453895219423" lon="9.907140819436481"><ele>787.0</ele><time>2026-04-26T09:49:25Z</time></trkpt><trkpt lat="44.44540523570717" lon="9.907372003677882"><ele>789.0</ele><time>2026-04-26T09:49:26Z</time></trkpt><trkpt lat="44.445405925826044" lon="9.907594330448566"><ele>791.0</ele><time>2026-04-26T09:49:27Z</time></trkpt><trkpt lat="44.445403879793254" lon="9.90780759676592"><ele>793.0</ele><time>2026-04-26T09:49:28Z</time></trkpt><trkpt lat="44.44540071485336" lon="9.908009235771623"><ele>793.0</ele><time>2026-04-26T09:49:29Z</time></trkpt><trkpt lat="44.44539724877429" lon="9.908200650601593"><ele>793.0</ele><time>2026-04-26T09:49:30Z</time></trkpt><trkpt lat="44.44539491583361" lon="9.90838887502382"><ele>793.0</ele><time>2026-04-26T09:49:31Z</time></trkpt><trkpt lat="44.44540024557067" lon="9.908568772631739"><ele>793.0</ele><time>2026-04-26T09:49:32Z</time></trkpt><trkpt lat="44.44543332629791" lon="9.908733410763526"><ele>796.0</ele><time>2026-04-26T09:49:33Z</time></trkpt><trkpt lat="44.445517895032204" lon="9.908850166329128"><ele>799.0</ele><time>2026-04-26T09:49:34Z</time></trkpt><trkpt lat="44.445644459297434" lon="9.908882814168468"><ele>802.0</ele><time>2026-04-26T09:49:35Z</time></trkpt><trkpt lat="44.44578927574245" lon="9.908886543091459"><ele>805.0</ele><time>2026-04-26T09:49:36Z</time></trkpt><trkpt lat="44.4459338946514" lon="9.908880611230831"><ele>805.0</ele><time>2026-04-26T09:49:37Z</time></trkpt><trkpt lat="44.44607582048184" lon="9.908858024591833"><ele>805.0</ele><time>2026-04-26T09:49:38Z</time></trkpt><trkpt lat="44.446187157654414" lon="9.908782225739044"><ele>805.0</ele><time>2026-04-26T09:49:39Z</time></trkpt><trkpt lat="44.44627902517391" lon="9.90867794545262"><ele>805.0</ele><time>2026-04-26T09:49:40Z</time></trkpt><trkpt lat="44.44639236292753" lon="9.908645929477172"><ele>807.0</ele><time>2026-04-26T09:49:41Z</time></trkpt><trkpt lat="44.446504693509674" lon="9.90864206450575"><ele>809.0</ele><time>2026-04-26T09:49:42Z</time></trkpt><trkpt lat="44.44662120899174" lon="9.908708342327019"><ele>811.0</ele><time>2026-04-26T09:49:43Z</time></trkpt><trkpt lat="44.44675050619415" lon="9.908750471915418"><ele>813.0</ele><time>2026-04-26T09:49:44Z</time></trkpt><trkpt lat="44.44686177186131" lon="9.90881717399293"><ele>813.0</ele><time>2026-04-26T09:49:45Z</time></trkpt><trkpt lat="44.44698239265813" lon="9.908832337668976"><ele>813.0</ele><time>2026-04-26T09:49:46Z</time></trkpt><trkpt lat="44.447105591896296" lon="9.908782838320924"><ele>813.0</ele><time>2026-04-26T09:49:47Z</time></trkpt><trkpt lat="44.447221233150884" lon="9.908699044886044"><ele>813.0</ele><time>2026-04-26T09:49:48Z</time></trkpt><trkpt lat="44.447337810195826" lon="9.908611771418977"><ele>815.0</ele><time>2026-04-26T09:49:49Z</time></trkpt><trkpt lat="44.447454799573826" lon="9.908528080649132"><ele>817.0</ele><time>2026-04-26T09:49:50Z</time></trkpt><trkpt lat="44.44756495742595" lon="9.908430508292394"><ele>819.0</ele><time>2026-04-26T09:49:51Z</time></trkpt><trkpt lat="44.4476713807475" lon="9.908329594282621"><ele>821.0</ele><time>2026-04-26T09:49:52Z</time></trkpt><trkpt lat="44.44777376072992" lon="9.908233359999118"><ele>823.25</ele><time>2026-04-26T09:49:53Z</time></trkpt><trkpt lat="44.44788309560875" lon="9.908163782957562"><ele>825.5</ele><time>2026-04-26T09:49:54Z</time></trkpt><trkpt lat="44.44798540697248" lon="9.908065317123425"><ele>827.75</ele><time>2026-04-26T09:49:55Z</time></trkpt><trkpt lat="44.44806725706666" lon="9.907932151992844"><ele>830.0</ele><time>2026-04-26T09:49:56Z</time></trkpt><trkpt lat="44.44813596790194" lon="9.907784513370983"><ele>832.5</ele><time>2026-04-26T09:49:57Z</time></trkpt><trkpt lat="44.44818174566938" lon="9.907614996231967"><ele>835.0</ele><time>2026-04-26T09:49:58Z</time></trkpt><trkpt lat="44.44823539023029" lon="9.907462479466785"><ele>837.5</ele><time>2026-04-26T09:49:59Z</time></trkpt><trkpt lat="44.44829658402038" lon="9.90731891363192"><ele>840.0</ele><time>2026-04-26T09:50:00Z</time></trkpt><trkpt lat="44.44838743843497" lon="9.907184580155704"><ele>840.0</ele><time>2026-04-26T09:50:01Z</time></trkpt><trkpt lat="44.44849985298968" lon="9.907055058774247"><ele>840.0</ele><time>2026-04-26T09:50:02Z</time></trkpt><trkpt lat="44.448596418048666" lon="9.906907224965748"><ele>840.0</ele><time>2026-04-26T09:50:03Z</time></trkpt><trkpt lat="44.4487093643764" lon="9.90679532629577"><ele>840.0</ele><time>2026-04-26T09:50:04Z</time></trkpt><trkpt lat="44.44883997718208" lon="9.906688811803745"><ele>842.3333333333333</ele><time>2026-04-26T09:50:05Z</time></trkpt><trkpt lat="44.44898239077057" lon="9.90662438821727"><ele>844.6666666666666</ele><time>2026-04-26T09:50:06Z</time></trkpt><trkpt lat="44.449126916038814" lon="9.906532625439157"><ele>847.0</ele><time>2026-04-26T09:50:07Z</time></trkpt><trkpt lat="44.449263665736936" lon="9.906447207831995"><ele>847.0</ele><time>2026-04-26T09:50:08Z</time></trkpt><trkpt lat="44.44938341200681" lon="9.906369825744767"><ele>847.0</ele><time>2026-04-26T09:50:09Z</time></trkpt><trkpt lat="44.44948211668503" lon="9.906305273402479"><ele>847.0</ele><time>2026-04-26T09:50:10Z</time></trkpt><trkpt lat="44.44956533127472" lon="9.906276712851533"><ele>847.0</ele><time>2026-04-26T09:50:11Z</time></trkpt><trkpt lat="44.44961562519434" lon="9.906333404953694"><ele>847.0</ele><time>2026-04-26T09:50:12Z</time></trkpt><trkpt lat="44.449627833323284" lon="9.90645347617479"><ele>847.0</ele><time>2026-04-26T09:50:13Z</time></trkpt><trkpt lat="44.44959421125143" lon="9.906567579980042"><ele>847.0</ele><time>2026-04-26T09:50:14Z</time></trkpt><trkpt lat="44.4494797930084" lon="9.906596009676775"><ele>847.0</ele><time>2026-04-26T09:50:15Z</time></trkpt><trkpt lat="44.44936059269549" lon="9.906655219813953"><ele>847.0</ele><time>2026-04-26T09:50:16Z</time></trkpt><trkpt lat="44.44922688991857" lon="9.90673065189832"><ele>850.0</ele><time>2026-04-26T09:50:17Z</time></trkpt><trkpt lat="44.449131772133214" lon="9.906827472283892"><ele>853.0</ele><time>2026-04-26T09:50:18Z</time></trkpt><trkpt lat="44.44902494441942" lon="9.90695729478217"><ele>856.0</ele><time>2026-04-26T09:50:19.001Z</time></trkpt><trkpt lat="44.44892716101234" lon="9.907101276949772"><ele>859.0</ele><time>2026-04-26T09:50:20.001Z</time></trkpt><trkpt lat="44.44885723577168" lon="9.907216148448633"><ele>858.9999999999999</ele><time>2026-04-26T09:50:21.001Z</time></trkpt><trkpt lat="44.448796229286145" lon="9.907310574761247"><ele>859.0</ele><time>2026-04-26T09:50:22.001Z</time></trkpt><trkpt lat="44.44879670478453" lon="9.907421286015154"><ele>859.0</ele><time>2026-04-26T09:50:23.001Z</time></trkpt><trkpt lat="44.448859939871525" lon="9.907523754489064"><ele>859.0</ele><time>2026-04-26T09:50:24.001Z</time></trkpt><trkpt lat="44.44894431747554" lon="9.907534062736728"><ele>858.9999999999999</ele><time>2026-04-26T09:50:25.001Z</time></trkpt><trkpt lat="44.44902030476249" lon="9.907479741539502"><ele>859.0</ele><time>2026-04-26T09:50:26.001Z</time></trkpt><trkpt lat="44.449103050636474" lon="9.907372060656716"><ele>859.0</ele><time>2026-04-26T09:50:27.001Z</time></trkpt><trkpt lat="44.44918458164825" lon="9.907260989352366"><ele>859.0000000000001</ele><time>2026-04-26T09:50:28.001Z</time></trkpt><trkpt lat="44.44927912740547" lon="9.907178996483685"><ele>859.0000000000001</ele><time>2026-04-26T09:50:29.001Z</time></trkpt><trkpt lat="44.44938769307861" lon="9.907133984078431"><ele>859.0</ele><time>2026-04-26T09:50:30.001Z</time></trkpt><trkpt lat="44.44948628043784" lon="9.907149485819026"><ele>859.0</ele><time>2026-04-26T09:50:31.001Z</time></trkpt><trkpt lat="44.449563437875916" lon="9.907242096548586"><ele>859.0</ele><time>2026-04-26T09:50:32.001Z</time></trkpt><trkpt lat="44.449595836961336" lon="9.90738682852836"><ele>859.0</ele><time>2026-04-26T09:50:33.001Z</time></trkpt><trkpt lat="44.44958382443396" lon="9.907551548020122"><ele>859.0</ele><time>2026-04-26T09:50:34.001Z</time></trkpt><trkpt lat="44.449567276206025" lon="9.9077274323038"><ele>859.0</ele><time>2026-04-26T09:50:35.001Z</time></trkpt><trkpt lat="44.44950031231721" lon="9.907884593094913"><ele>860.0</ele><time>2026-04-26T09:50:36.001Z</time></trkpt><trkpt lat="44.44945039666333" lon="9.907999113157333"><ele>861.0</ele><time>2026-04-26T09:50:37Z</time></trkpt><trkpt lat="44.44934986039036" lon="9.908098257575782"><ele>862.0</ele><time>2026-04-26T09:50:38Z</time></trkpt><trkpt lat="44.44923493831692" lon="9.908177932201905"><ele>863.0</ele><time>2026-04-26T09:50:39Z</time></trkpt><trkpt lat="44.44913600128424" lon="9.908288879382043"><ele>861.0</ele><time>2026-04-26T09:50:40Z</time></trkpt><trkpt lat="44.44908075770086" lon="9.908435136029698"><ele>859.0</ele><time>2026-04-26T09:50:41Z</time></trkpt><trkpt lat="44.449078252290846" lon="9.908620321442157"><ele>857.0</ele><time>2026-04-26T09:50:42Z</time></trkpt><trkpt lat="44.449123110381144" lon="9.908809562420071"><ele>855.0</ele><time>2026-04-26T09:50:43Z</time></trkpt><trkpt lat="44.44920140912666" lon="9.90894245924517"><ele>855.0</ele><time>2026-04-26T09:50:44Z</time></trkpt><trkpt lat="44.449300604812144" lon="9.909022289154017"><ele>855.0</ele><time>2026-04-26T09:50:45Z</time></trkpt><trkpt lat="44.44945356474957" lon="9.909045879539873"><ele>855.0</ele><time>2026-04-26T09:50:46Z</time></trkpt><trkpt lat="44.44962472597275" lon="9.909037095958736"><ele>855.0</ele><time>2026-04-26T09:50:47Z</time></trkpt><trkpt lat="44.44979136313096" lon="9.909066543754976"><ele>858.0</ele><time>2026-04-26T09:50:48Z</time></trkpt><trkpt lat="44.44995598011992" lon="9.909097866989981"><ele>861.0</ele><time>2026-04-26T09:50:49Z</time></trkpt><trkpt lat="44.45009446369349" lon="9.909117951765932"><ele>864.0</ele><time>2026-04-26T09:50:50Z</time></trkpt><trkpt lat="44.450222345211685" lon="9.909109503769265"><ele>867.0</ele><time>2026-04-26T09:50:51Z</time></trkpt><trkpt lat="44.45034086572058" lon="9.909030552133212"><ele>867.0</ele><time>2026-04-26T09:50:52Z</time></trkpt><trkpt lat="44.45044667953249" lon="9.908861483288016"><ele>867.0</ele><time>2026-04-26T09:50:53Z</time></trkpt><trkpt lat="44.45054025306573" lon="9.90864958147223"><ele>867.0</ele><time>2026-04-26T09:50:54Z</time></trkpt><trkpt lat="44.45065104123974" lon="9.90848079407939"><ele>873.3333333333333</ele><time>2026-04-26T09:50:55Z</time></trkpt><trkpt lat="44.45080149633209" lon="9.908370227513325"><ele>879.6666666666666</ele><time>2026-04-26T09:50:56Z</time></trkpt><trkpt lat="44.45096433032768" lon="9.90828454890928"><ele>886.0</ele><time>2026-04-26T09:50:57Z</time></trkpt><trkpt lat="44.45112244471639" lon="9.908189765612365"><ele>886.0</ele><time>2026-04-26T09:50:58Z</time></trkpt><trkpt lat="44.45127236223768" lon="9.908080768513257"><ele>886.0</ele><time>2026-04-26T09:50:59Z</time></trkpt><trkpt lat="44.45141346760654" lon="9.907982960755978"><ele>886.0</ele><time>2026-04-26T09:51:00Z</time></trkpt><trkpt lat="44.451551121852454" lon="9.907903375568752"><ele>887.25</ele><time>2026-04-26T09:51:01Z</time></trkpt><trkpt lat="44.451684762956134" lon="9.907861413701857"><ele>888.5</ele><time>2026-04-26T09:51:02Z</time></trkpt><trkpt lat="44.45181338701713" lon="9.907936040878393"><ele>889.75</ele><time>2026-04-26T09:51:03Z</time></trkpt><trkpt lat="44.45190267867775" lon="9.908051238248754"><ele>891.0</ele><time>2026-04-26T09:51:04Z</time></trkpt><trkpt lat="44.45199328255322" lon="9.90819721742112"><ele>887.3333333333333</ele><time>2026-04-26T09:51:05Z</time></trkpt><trkpt lat="44.45210653640923" lon="9.908441877056426"><ele>883.6666666666666</ele><time>2026-04-26T09:51:06Z</time></trkpt><trkpt lat="44.45220740268602" lon="9.908611855147116"><ele>880.0</ele><time>2026-04-26T09:51:07Z</time></trkpt><trkpt lat="44.452309169271224" lon="9.90877567200191"><ele>886.75</ele><time>2026-04-26T09:51:08Z</time></trkpt><trkpt lat="44.4524013176647" lon="9.90893470229859"><ele>893.5</ele><time>2026-04-26T09:51:09Z</time></trkpt><trkpt lat="44.452437145580035" lon="9.909131766846638"><ele>900.25</ele><time>2026-04-26T09:51:10Z</time></trkpt><trkpt lat="44.45241623143564" lon="9.909336744025172"><ele>907.0</ele><time>2026-04-26T09:51:11Z</time></trkpt><trkpt lat="44.45231549116349" lon="9.909498242476934"><ele>906.75</ele><time>2026-04-26T09:51:12Z</time></trkpt><trkpt lat="44.452249430873934" lon="9.909673139805237"><ele>906.5</ele><time>2026-04-26T09:51:13Z</time></trkpt><trkpt lat="44.452199928191035" lon="9.909839467404362"><ele>906.25</ele><time>2026-04-26T09:51:14Z</time></trkpt><trkpt lat="44.45222605208547" lon="9.9100075672352"><ele>906.0</ele><time>2026-04-26T09:51:15Z</time></trkpt><trkpt lat="44.452312498068295" lon="9.910164485518038"><ele>906.0</ele><time>2026-04-26T09:51:16Z</time></trkpt><trkpt lat="44.45243447399013" lon="9.91030756254619"><ele>906.0</ele><time>2026-04-26T09:51:17Z</time></trkpt><trkpt lat="44.452568073930316" lon="9.910451449502528"><ele>906.0</ele><time>2026-04-26T09:51:18Z</time></trkpt><trkpt lat="44.45269009856806" lon="9.910635687451517"><ele>906.0</ele><time>2026-04-26T09:51:19Z</time></trkpt><trkpt lat="44.45280005884694" lon="9.91083093037757"><ele>906.0</ele><time>2026-04-26T09:51:20Z</time></trkpt><trkpt lat="44.45289937362222" lon="9.911026583849074"><ele>906.0</ele><time>2026-04-26T09:51:21Z</time></trkpt><trkpt lat="44.452999600657286" lon="9.911213473537652"><ele>911.6666666666667</ele><time>2026-04-26T09:51:22Z</time></trkpt><trkpt lat="44.45308920216101" lon="9.911413146805305"><ele>917.3333333333334</ele><time>2026-04-26T09:51:23Z</time></trkpt><trkpt lat="44.45317335607563" lon="9.911628310143373"><ele>923.0</ele><time>2026-04-26T09:51:24Z</time></trkpt><trkpt lat="44.45324659456917" lon="9.91186467406451"><ele>923.0</ele><time>2026-04-26T09:51:25Z</time></trkpt><trkpt lat="44.453317238880935" lon="9.912092577298898"><ele>923.0</ele><time>2026-04-26T09:51:26Z</time></trkpt><trkpt lat="44.453387227343484" lon="9.912301037481523"><ele>923.0</ele><time>2026-04-26T09:51:27Z</time></trkpt><trkpt lat="44.45345192275738" lon="9.912487005513082"><ele>923.5</ele><time>2026-04-26T09:51:28Z</time></trkpt><trkpt lat="44.45350948739974" lon="9.91266130541456"><ele>924.0</ele><time>2026-04-26T09:51:29Z</time></trkpt><trkpt lat="44.453554898668955" lon="9.912831842591075"><ele>924.5</ele><time>2026-04-26T09:51:30Z</time></trkpt><trkpt lat="44.45355530531292" lon="9.913015202251696"><ele>925.0</ele><time>2026-04-26T09:51:31Z</time></trkpt><trkpt lat="44.45355351031942" lon="9.913137692190567"><ele>925.0</ele><time>2026-04-26T09:51:32Z</time></trkpt><trkpt lat="44.45355555384234" lon="9.91323766572558"><ele>925.0</ele><time>2026-04-26T09:51:34Z</time></trkpt><trkpt lat="44.45356005291583" lon="9.913336292493138"><ele>925.0</ele><time>2026-04-26T09:52:21Z</time></trkpt><trkpt lat="44.45354782410736" lon="9.913463826273572"><ele>925.0</ele><time>2026-04-26T09:52:22Z</time></trkpt><trkpt lat="44.453544518336756" lon="9.913644573807801"><ele>925.0</ele><time>2026-04-26T09:52:23Z</time></trkpt><trkpt lat="44.453557113699574" lon="9.91380585353864"><ele>926.5</ele><time>2026-04-26T09:52:24Z</time></trkpt><trkpt lat="44.45354872922783" lon="9.913983006511959"><ele>928.0</ele><time>2026-04-26T09:52:25.001Z</time></trkpt><trkpt lat="44.4535458858188" lon="9.914180689614529"><ele>929.5</ele><time>2026-04-26T09:52:26.001Z</time></trkpt><trkpt lat="44.45353521554797" lon="9.914412530527436"><ele>931.0</ele><time>2026-04-26T09:52:27.001Z</time></trkpt><trkpt lat="44.45347930264122" lon="9.914652662163158"><ele>933.5</ele><time>2026-04-26T09:52:28.001Z</time></trkpt><trkpt lat="44.45341911014588" lon="9.914871844685857"><ele>936.0</ele><time>2026-04-26T09:52:29.001Z</time></trkpt><trkpt lat="44.453339130720394" lon="9.915040455764816"><ele>938.5</ele><time>2026-04-26T09:52:30.001Z</time></trkpt><trkpt lat="44.453246631713846" lon="9.915181932825973"><ele>941.0</ele><time>2026-04-26T09:52:31.001Z</time></trkpt><trkpt lat="44.453161875345465" lon="9.915335735159873"><ele>940.25</ele><time>2026-04-26T09:52:32.001Z</time></trkpt><trkpt lat="44.45306294068237" lon="9.915475461954154"><ele>939.5</ele><time>2026-04-26T09:52:33.001Z</time></trkpt><trkpt lat="44.45297262814345" lon="9.915626971729749"><ele>938.75</ele><time>2026-04-26T09:52:34.001Z</time></trkpt><trkpt lat="44.452885444746066" lon="9.915785464041326"><ele>938.0</ele><time>2026-04-26T09:52:35.001Z</time></trkpt><trkpt lat="44.452786034113345" lon="9.915948159528147"><ele>942.0</ele><time>2026-04-26T09:52:36.001Z</time></trkpt><trkpt lat="44.45268255918942" lon="9.916115547307433"><ele>946.0</ele><time>2026-04-26T09:52:37.001Z</time></trkpt><trkpt lat="44.45257635822192" lon="9.916294714156548"><ele>950.0</ele><time>2026-04-26T09:52:38.001Z</time></trkpt><trkpt lat="44.452459965827174" lon="9.916485018598323"><ele>950.0</ele><time>2026-04-26T09:52:39.001Z</time></trkpt><trkpt lat="44.452339032264135" lon="9.916686961238009"><ele>950.0</ele><time>2026-04-26T09:52:40.001Z</time></trkpt><trkpt lat="44.45221802632089" lon="9.916878280429682"><ele>950.0</ele><time>2026-04-26T09:52:41.001Z</time></trkpt><trkpt lat="44.45210497987201" lon="9.91705983776384"><ele>948.6666666666667</ele><time>2026-04-26T09:52:42.001Z</time></trkpt><trkpt lat="44.452010396630904" lon="9.9172458104975"><ele>947.3333333333333</ele><time>2026-04-26T09:52:43.001Z</time></trkpt><trkpt lat="44.451960995469655" lon="9.917452413477475"><ele>946.0</ele><time>2026-04-26T09:52:44.001Z</time></trkpt><trkpt lat="44.45195764700138" lon="9.917656360753005"><ele>949.0</ele><time>2026-04-26T09:52:45.001Z</time></trkpt><trkpt lat="44.451955166221886" lon="9.917860499423247"><ele>952.0</ele><time>2026-04-26T09:52:46.001Z</time></trkpt><trkpt lat="44.451882574553856" lon="9.91805540884461"><ele>955.0</ele><time>2026-04-26T09:52:47.001Z</time></trkpt><trkpt lat="44.45180859142537" lon="9.918261190781443"><ele>960.6666666666666</ele><time>2026-04-26T09:52:48Z</time></trkpt><trkpt lat="44.45170590987162" lon="9.918441549653691"><ele>966.3333333333333</ele><time>2026-04-26T09:52:49Z</time></trkpt><trkpt lat="44.45158224458926" lon="9.918605359852872"><ele>972.0</ele><time>2026-04-26T09:52:50Z</time></trkpt><trkpt lat="44.45145006637265" lon="9.918743832691169"><ele>972.0</ele><time>2026-04-26T09:52:51Z</time></trkpt><trkpt lat="44.45133446577711" lon="9.918881091049581"><ele>972.0</ele><time>2026-04-26T09:52:52Z</time></trkpt><trkpt lat="44.45122497249746" lon="9.91901376282768"><ele>972.0</ele><time>2026-04-26T09:52:53Z</time></trkpt><trkpt lat="44.45111640981237" lon="9.919135423426304"><ele>972.0</ele><time>2026-04-26T09:52:54Z</time></trkpt><trkpt lat="44.45100668987685" lon="9.9192380242578"><ele>971.25</ele><time>2026-04-26T09:52:55Z</time></trkpt><trkpt lat="44.45090442475384" lon="9.919340241531247"><ele>970.5</ele><time>2026-04-26T09:52:56Z</time></trkpt><trkpt lat="44.45080757524629" lon="9.919439953317715"><ele>969.75</ele><time>2026-04-26T09:52:57Z</time></trkpt><trkpt lat="44.450732289755514" lon="9.919549408627567"><ele>969.0</ele><time>2026-04-26T09:52:58Z</time></trkpt><trkpt lat="44.45068870678712" lon="9.9196865475295"><ele>969.0</ele><time>2026-04-26T09:52:59Z</time></trkpt><trkpt lat="44.45072651139465" lon="9.919828398338625"><ele>969.0</ele><time>2026-04-26T09:53:00Z</time></trkpt><trkpt lat="44.45081668511481" lon="9.919928312585268"><ele>969.0</ele><time>2026-04-26T09:53:01Z</time></trkpt><trkpt lat="44.45092841716622" lon="9.919935944533716"><ele>969.0</ele><time>2026-04-26T09:53:02Z</time></trkpt><trkpt lat="44.45103261856018" lon="9.919823201780527"><ele>969.0</ele><time>2026-04-26T09:53:03Z</time></trkpt><trkpt lat="44.45112289367231" lon="9.919661935278945"><ele>969.0</ele><time>2026-04-26T09:53:04Z</time></trkpt><trkpt lat="44.45123733688379" lon="9.919505554482884"><ele>969.0</ele><time>2026-04-26T09:53:05Z</time></trkpt><trkpt lat="44.451354510583364" lon="9.919346999601723"><ele>970.0</ele><time>2026-04-26T09:53:06Z</time></trkpt><trkpt lat="44.45148305020841" lon="9.919208319823948"><ele>971.0</ele><time>2026-04-26T09:53:07Z</time></trkpt><trkpt lat="44.45162428770893" lon="9.919097437747471"><ele>972.0</ele><time>2026-04-26T09:53:08Z</time></trkpt><trkpt lat="44.4517713885051" lon="9.919009898480603"><ele>972.0</ele><time>2026-04-26T09:53:09Z</time></trkpt><trkpt lat="44.45192172880898" lon="9.918941217770007"><ele>972.0</ele><time>2026-04-26T09:53:10Z</time></trkpt><trkpt lat="44.452074298348016" lon="9.918918040491528"><ele>972.0</ele><time>2026-04-26T09:53:11Z</time></trkpt><trkpt lat="44.452234811812836" lon="9.918913267858361"><ele>972.3333333333333</ele><time>2026-04-26T09:53:12Z</time></trkpt><trkpt lat="44.45238869040059" lon="9.918893767317838"><ele>972.6666666666666</ele><time>2026-04-26T09:53:13Z</time></trkpt><trkpt lat="44.452529568181276" lon="9.918835670338376"><ele>973.0</ele><time>2026-04-26T09:53:14Z</time></trkpt><trkpt lat="44.45266697097389" lon="9.918722412852333"><ele>973.0</ele><time>2026-04-26T09:53:15Z</time></trkpt><trkpt lat="44.45279813266034" lon="9.918594215041521"><ele>973.0</ele><time>2026-04-26T09:53:16Z</time></trkpt><trkpt lat="44.45292516510912" lon="9.918458292195886"><ele>973.0</ele><time>2026-04-26T09:53:17Z</time></trkpt><trkpt lat="44.45302656171996" lon="9.9182976181091"><ele>974.3333333333333</ele><time>2026-04-26T09:53:18Z</time></trkpt><trkpt lat="44.4531326642259" lon="9.918159619875949"><ele>975.6666666666667</ele><time>2026-04-26T09:53:19Z</time></trkpt><trkpt lat="44.453246100697406" lon="9.918011045005418"><ele>977.0</ele><time>2026-04-26T09:53:20Z</time></trkpt><trkpt lat="44.45339142873364" lon="9.917909483450233"><ele>977.0</ele><time>2026-04-26T09:53:21Z</time></trkpt><trkpt lat="44.4535409100809" lon="9.917846969812594"><ele>977.0</ele><time>2026-04-26T09:53:22Z</time></trkpt><trkpt lat="44.45369056716711" lon="9.917791469473304"><ele>977.0</ele><time>2026-04-26T09:53:23Z</time></trkpt><trkpt lat="44.45385505532406" lon="9.91778464337584"><ele>975.0</ele><time>2026-04-26T09:53:24Z</time></trkpt><trkpt lat="44.45402164149171" lon="9.917797925346385"><ele>973.0</ele><time>2026-04-26T09:53:25Z</time></trkpt><trkpt lat="44.454189854249755" lon="9.917840573608572"><ele>971.0</ele><time>2026-04-26T09:53:26Z</time></trkpt><trkpt lat="44.45435626705846" lon="9.917932586035842"><ele>971.0</ele><time>2026-04-26T09:53:27Z</time></trkpt><trkpt lat="44.45452488285509" lon="9.918009896553452"><ele>971.0</ele><time>2026-04-26T09:53:28Z</time></trkpt><trkpt lat="44.454677310311176" lon="9.918116771024616"><ele>971.0</ele><time>2026-04-26T09:53:29Z</time></trkpt><trkpt lat="44.45482828894739" lon="9.918222128912468"><ele>969.6666666666667</ele><time>2026-04-26T09:53:30Z</time></trkpt><trkpt lat="44.45497362400998" lon="9.91834808527262"><ele>968.3333333333333</ele><time>2026-04-26T09:53:31Z</time></trkpt><trkpt lat="44.45509745248928" lon="9.918506529075586"><ele>967.0</ele><time>2026-04-26T09:53:32Z</time></trkpt><trkpt lat="44.455203372303906" lon="9.918698179411917"><ele>967.0</ele><time>2026-04-26T09:53:33Z</time></trkpt><trkpt lat="44.455300409023636" lon="9.918887477658982"><ele>967.0</ele><time>2026-04-26T09:53:34Z</time></trkpt><trkpt lat="44.455399377447485" lon="9.919049199184322"><ele>967.0</ele><time>2026-04-26T09:53:35Z</time></trkpt><trkpt lat="44.45550307215246" lon="9.919175477777202"><ele>963.25</ele><time>2026-04-26T09:53:36Z</time></trkpt><trkpt lat="44.4556118467995" lon="9.919248931890072"><ele>959.5</ele><time>2026-04-26T09:53:37Z</time></trkpt><trkpt lat="44.45573181085185" lon="9.919241427428949"><ele>955.75</ele><time>2026-04-26T09:53:38Z</time></trkpt><trkpt lat="44.45585680164767" lon="9.91917066447924"><ele>952.0</ele><time>2026-04-26T09:53:39Z</time></trkpt><trkpt lat="44.455984632404416" lon="9.919073903088453"><ele>962.3333333333333</ele><time>2026-04-26T09:53:40Z</time></trkpt><trkpt lat="44.4561436233855" lon="9.919019478929087"><ele>972.6666666666667</ele><time>2026-04-26T09:53:41Z</time></trkpt><trkpt lat="44.45632610379954" lon="9.9190039661114"><ele>983.0</ele><time>2026-04-26T09:53:42Z</time></trkpt><trkpt lat="44.45648805587589" lon="9.919034270498875"><ele>983.5</ele><time>2026-04-26T09:53:43Z</time></trkpt><trkpt lat="44.456626497883114" lon="9.919099667034343"><ele>984.0</ele><time>2026-04-26T09:53:44Z</time></trkpt><trkpt lat="44.45677352077929" lon="9.919164015131765"><ele>984.5</ele><time>2026-04-26T09:53:45Z</time></trkpt><trkpt lat="44.45691173723773" lon="9.919227778566919"><ele>985.0</ele><time>2026-04-26T09:53:46Z</time></trkpt><trkpt lat="44.45713907863747" lon="9.919207416708435"><ele>981.3333333333333</ele><time>2026-04-26T09:53:47Z</time></trkpt><trkpt lat="44.4572927960589" lon="9.919250849921596"><ele>977.6666666666667</ele><time>2026-04-26T09:53:48Z</time></trkpt><trkpt lat="44.45743801005712" lon="9.919326510277964"><ele>974.0</ele><time>2026-04-26T09:53:49Z</time></trkpt><trkpt lat="44.45756238758015" lon="9.919449170258176"><ele>974.0</ele><time>2026-04-26T09:53:50Z</time></trkpt><trkpt lat="44.45764864373965" lon="9.919621305333422"><ele>974.0</ele><time>2026-04-26T09:53:51Z</time></trkpt><trkpt lat="44.45774069585708" lon="9.9197820572905"><ele>974.0</ele><time>2026-04-26T09:53:52Z</time></trkpt><trkpt lat="44.45782890915369" lon="9.919908226905834"><ele>974.0</ele><time>2026-04-26T09:53:53Z</time></trkpt><trkpt lat="44.45792812780163" lon="9.919971006707899"><ele>976.5</ele><time>2026-04-26T09:53:54Z</time></trkpt><trkpt lat="44.45805995443742" lon="9.919954763888697"><ele>979.0</ele><time>2026-04-26T09:53:55Z</time></trkpt><trkpt lat="44.45819965464826" lon="9.91986188533049"><ele>981.5</ele><time>2026-04-26T09:53:56Z</time></trkpt><trkpt lat="44.458314185375706" lon="9.919739187434768"><ele>984.0</ele><time>2026-04-26T09:53:57Z</time></trkpt><trkpt lat="44.45842836449627" lon="9.919665139500678"><ele>984.0</ele><time>2026-04-26T09:53:58Z</time></trkpt><trkpt lat="44.45854151475655" lon="9.919707651675699"><ele>984.0</ele><time>2026-04-26T09:53:59Z</time></trkpt><trkpt lat="44.45862989091475" lon="9.919805788771212"><ele>984.0</ele><time>2026-04-26T09:54:00Z</time></trkpt><trkpt lat="44.45869952051133" lon="9.919969895585563"><ele>984.0</ele><time>2026-04-26T09:54:01Z</time></trkpt><trkpt lat="44.45881077162105" lon="9.92013282807187"><ele>985.6666666666667</ele><time>2026-04-26T09:54:02Z</time></trkpt><trkpt lat="44.45890739529256" lon="9.920316934203735"><ele>987.3333333333334</ele><time>2026-04-26T09:54:03Z</time></trkpt><trkpt lat="44.45900783473031" lon="9.920498254654671"><ele>989.0</ele><time>2026-04-26T09:54:04Z</time></trkpt><trkpt lat="44.45909520097549" lon="9.920677188480795"><ele>989.0</ele><time>2026-04-26T09:54:05Z</time></trkpt><trkpt lat="44.45917070674049" lon="9.92084883799037"><ele>989.0</ele><time>2026-04-26T09:54:06Z</time></trkpt><trkpt lat="44.45924095143917" lon="9.921010481315102"><ele>989.0</ele><time>2026-04-26T09:54:07Z</time></trkpt><trkpt lat="44.45932373722235" lon="9.921148811787704"><ele>989.0</ele><time>2026-04-26T09:54:08Z</time></trkpt><trkpt lat="44.459440222886684" lon="9.921229696668314"><ele>983.6666666666667</ele><time>2026-04-26T09:54:09Z</time></trkpt><trkpt lat="44.459585221220756" lon="9.921180981353855"><ele>978.3333333333333</ele><time>2026-04-26T09:54:10Z</time></trkpt><trkpt lat="44.459742985441814" lon="9.921098624792165"><ele>973.0</ele><time>2026-04-26T09:54:11Z</time></trkpt><trkpt lat="44.459890834488206" lon="9.920992677123103"><ele>979.5</ele><time>2026-04-26T09:54:12Z</time></trkpt><trkpt lat="44.460034545144254" lon="9.920890951697217"><ele>986.0</ele><time>2026-04-26T09:54:13Z</time></trkpt><trkpt lat="44.4601516468157" lon="9.920774442732677"><ele>992.5</ele><time>2026-04-26T09:54:14Z</time></trkpt><trkpt lat="44.46025489852038" lon="9.920661079671998"><ele>999.0</ele><time>2026-04-26T09:54:15Z</time></trkpt><trkpt lat="44.46038731202697" lon="9.920617571830357"><ele>997.0</ele><time>2026-04-26T09:54:16Z</time></trkpt><trkpt lat="44.46053933426194" lon="9.92063108564856"><ele>995.0</ele><time>2026-04-26T09:54:17Z</time></trkpt><trkpt lat="44.46071067837747" lon="9.920669844899326"><ele>993.0</ele><time>2026-04-26T09:54:18Z</time></trkpt><trkpt lat="44.46088323263708" lon="9.920695986389196"><ele>993.0</ele><time>2026-04-26T09:54:19Z</time></trkpt><trkpt lat="44.46104628198118" lon="9.920742485602513"><ele>993.0</ele><time>2026-04-26T09:54:20Z</time></trkpt><trkpt lat="44.46118938418118" lon="9.920843913752954"><ele>993.0</ele><time>2026-04-26T09:54:21Z</time></trkpt><trkpt lat="44.4613089780427" lon="9.92098179283942"><ele>990.0</ele><time>2026-04-26T09:54:22Z</time></trkpt><trkpt lat="44.46144955469382" lon="9.921124264672644"><ele>987.0</ele><time>2026-04-26T09:54:23Z</time></trkpt><trkpt lat="44.46157438785109" lon="9.92129639860491"><ele>984.0</ele><time>2026-04-26T09:54:24Z</time></trkpt><trkpt lat="44.46169589689333" lon="9.921422689330852"><ele>984.0</ele><time>2026-04-26T09:54:25Z</time></trkpt><trkpt lat="44.461824005146624" lon="9.921524918788668"><ele>984.0</ele><time>2026-04-26T09:54:26Z</time></trkpt><trkpt lat="44.46193571041154" lon="9.921608761587787"><ele>984.0</ele><time>2026-04-26T09:54:27Z</time></trkpt><trkpt lat="44.4620459027491" lon="9.921679571120407"><ele>984.0</ele><time>2026-04-26T09:54:28Z</time></trkpt><trkpt lat="44.4621551816791" lon="9.921696896888616"><ele>985.5</ele><time>2026-04-26T09:54:29Z</time></trkpt><trkpt lat="44.46226172969073" lon="9.921620009828384"><ele>987.0</ele><time>2026-04-26T09:54:30Z</time></trkpt><trkpt lat="44.46233627272322" lon="9.921467764504332"><ele>988.5</ele><time>2026-04-26T09:54:31.001Z</time></trkpt><trkpt lat="44.462378352580856" lon="9.921267758897693"><ele>990.0</ele><time>2026-04-26T09:54:32.001Z</time></trkpt><trkpt lat="44.46239439932076" lon="9.921038463626028"><ele>994.0</ele><time>2026-04-26T09:54:33.001Z</time></trkpt><trkpt lat="44.46240914421846" lon="9.920792220063767"><ele>998.0</ele><time>2026-04-26T09:54:34.001Z</time></trkpt><trkpt lat="44.46244696500758" lon="9.920550598501675"><ele>1002.0</ele><time>2026-04-26T09:54:35.001Z</time></trkpt><trkpt lat="44.462484560781064" lon="9.920298896050344"><ele>1005.3333333333333</ele><time>2026-04-26T09:54:36.001Z</time></trkpt><trkpt lat="44.462555211337985" lon="9.920038979613746"><ele>1008.6666666666666</ele><time>2026-04-26T09:54:37.001Z</time></trkpt><trkpt lat="44.46267169968032" lon="9.919811376926686"><ele>1012.0</ele><time>2026-04-26T09:54:38.001Z</time></trkpt><trkpt lat="44.46279068341416" lon="9.919614914245741"><ele>1012.0</ele><time>2026-04-26T09:54:39.001Z</time></trkpt><trkpt lat="44.46289007137428" lon="9.919447888260779"><ele>1012.0</ele><time>2026-04-26T09:54:40.001Z</time></trkpt><trkpt lat="44.46297212270999" lon="9.919309994430522"><ele>1012.0</ele><time>2026-04-26T09:54:41.001Z</time></trkpt><trkpt lat="44.463053981765725" lon="9.919203098690454"><ele>1012.0</ele><time>2026-04-26T09:54:42.001Z</time></trkpt><trkpt lat="44.463152173892375" lon="9.919150397153846"><ele>1012.0</ele><time>2026-04-26T09:54:43.001Z</time></trkpt><trkpt lat="44.46325809300621" lon="9.91912971878398"><ele>1012.0</ele><time>2026-04-26T09:54:44.001Z</time></trkpt><trkpt lat="44.46336355457921" lon="9.919223433675112"><ele>1012.0</ele><time>2026-04-26T09:54:45.001Z</time></trkpt><trkpt lat="44.46344651279313" lon="9.919378754750594"><ele>1012.0</ele><time>2026-04-26T09:54:46Z</time></trkpt><trkpt lat="44.46350973115324" lon="9.91954819692016"><ele>1011.25</ele><time>2026-04-26T09:54:47Z</time></trkpt><trkpt lat="44.463582964324026" lon="9.919695277590042"><ele>1010.5</ele><time>2026-04-26T09:54:48Z</time></trkpt><trkpt lat="44.46368979071091" lon="9.91979692555987"><ele>1009.75</ele><time>2026-04-26T09:54:49Z</time></trkpt><trkpt lat="44.46382455812061" lon="9.919866931418746"><ele>1009.0</ele><time>2026-04-26T09:54:50Z</time></trkpt><trkpt lat="44.463977972119054" lon="9.919931523206472"><ele>1009.0</ele><time>2026-04-26T09:54:51Z</time></trkpt><trkpt lat="44.46413720688605" lon="9.920007061194804"><ele>1009.0</ele><time>2026-04-26T09:54:52Z</time></trkpt><trkpt lat="44.46429563882223" lon="9.920098714150708"><ele>1009.0</ele><time>2026-04-26T09:54:53Z</time></trkpt><trkpt lat="44.46445559700062" lon="9.920217126794023"><ele>1006.3333333333333</ele><time>2026-04-26T09:54:54Z</time></trkpt><trkpt lat="44.46461181505349" lon="9.920355571388598"><ele>1003.6666666666667</ele><time>2026-04-26T09:54:55Z</time></trkpt><trkpt lat="44.46476204858702" lon="9.920496291616157"><ele>1001.0</ele><time>2026-04-26T09:54:56Z</time></trkpt><trkpt lat="44.464908818186146" lon="9.920621380705178"><ele>1001.0</ele><time>2026-04-26T09:54:57Z</time></trkpt><trkpt lat="44.46505818416188" lon="9.920711640977872"><ele>1001.0</ele><time>2026-04-26T09:54:58Z</time></trkpt><trkpt lat="44.465206030762516" lon="9.920733959617301"><ele>1001.0</ele><time>2026-04-26T09:54:59Z</time></trkpt><trkpt lat="44.465351479552695" lon="9.920694147703399"><ele>1002.0</ele><time>2026-04-26T09:55:00Z</time></trkpt><trkpt lat="44.465503669528104" lon="9.920602611750123"><ele>1003.0</ele><time>2026-04-26T09:55:01Z</time></trkpt><trkpt lat="44.46565335828094" lon="9.920509193026877"><ele>1004.0</ele><time>2026-04-26T09:55:02Z</time></trkpt><trkpt lat="44.46580449318384" lon="9.920426373521419"><ele>1004.0</ele><time>2026-04-26T09:55:03Z</time></trkpt><trkpt lat="44.465952967877364" lon="9.920359211598589"><ele>1004.0</ele><time>2026-04-26T09:55:04Z</time></trkpt><trkpt lat="44.46611007337987" lon="9.920298085539503"><ele>1004.0</ele><time>2026-04-26T09:55:05Z</time></trkpt><trkpt lat="44.46627110434666" lon="9.920284248298557"><ele>1003.6666666666667</ele><time>2026-04-26T09:55:06Z</time></trkpt><trkpt lat="44.46643880000159" lon="9.920282027618567"><ele>1003.3333333333333</ele><time>2026-04-26T09:55:07Z</time></trkpt><trkpt lat="44.466606976946714" lon="9.920277029471029"><ele>1003.0</ele><time>2026-04-26T09:55:08Z</time></trkpt><trkpt lat="44.466773591844635" lon="9.920299829934894"><ele>1003.0</ele><time>2026-04-26T09:55:09Z</time></trkpt><trkpt lat="44.466940993525554" lon="9.9203234892356"><ele>1003.0</ele><time>2026-04-26T09:55:10Z</time></trkpt><trkpt lat="44.46711277554813" lon="9.920343929420529"><ele>1003.0</ele><time>2026-04-26T09:55:11Z</time></trkpt><trkpt lat="44.46728050199882" lon="9.92036764773407"><ele>1005.6666666666666</ele><time>2026-04-26T09:55:12Z</time></trkpt><trkpt lat="44.467463499919724" lon="9.92039557431886"><ele>1008.3333333333333</ele><time>2026-04-26T09:55:13Z</time></trkpt><trkpt lat="44.467605549264036" lon="9.920450698663743"><ele>1011.0</ele><time>2026-04-26T09:55:14Z</time></trkpt><trkpt lat="44.46773682781392" lon="9.920579695906843"><ele>1011.0</ele><time>2026-04-26T09:55:15Z</time></trkpt><trkpt lat="44.46787047253594" lon="9.920726433915647"><ele>1011.0</ele><time>2026-04-26T09:55:16Z</time></trkpt><trkpt lat="44.46800765125226" lon="9.920878099496433"><ele>1011.0</ele><time>2026-04-26T09:55:17Z</time></trkpt><trkpt lat="44.468136754790756" lon="9.92104723868342"><ele>1012.3333333333333</ele><time>2026-04-26T09:55:18Z</time></trkpt><trkpt lat="44.46826541554273" lon="9.921210619609687"><ele>1013.6666666666666</ele><time>2026-04-26T09:55:19Z</time></trkpt><trkpt lat="44.468385860629326" lon="9.921388903174162"><ele>1015.0</ele><time>2026-04-26T09:55:20Z</time></trkpt><trkpt lat="44.46849473647603" lon="9.921585841321413"><ele>1016.3333333333333</ele><time>2026-04-26T09:55:21Z</time></trkpt><trkpt lat="44.46859407636869" lon="9.92179514335584"><ele>1017.6666666666667</ele><time>2026-04-26T09:55:22Z</time></trkpt><trkpt lat="44.46869358734077" lon="9.921993266820618"><ele>1019.0</ele><time>2026-04-26T09:55:23Z</time></trkpt><trkpt lat="44.46878767471185" lon="9.922166081008346"><ele>1019.0</ele><time>2026-04-26T09:55:24Z</time></trkpt><trkpt lat="44.4688811345589" lon="9.922327152586256"><ele>1019.0</ele><time>2026-04-26T09:55:25Z</time></trkpt><trkpt lat="44.468971456241746" lon="9.92247295506368"><ele>1019.0</ele><time>2026-04-26T09:55:26Z</time></trkpt><trkpt lat="44.46906840808658" lon="9.922593908187155"><ele>1019.0</ele><time>2026-04-26T09:55:27Z</time></trkpt><trkpt lat="44.46918706303026" lon="9.922652570828436"><ele>1019.0</ele><time>2026-04-26T09:55:28Z</time></trkpt><trkpt lat="44.469308598077625" lon="9.922624062678034"><ele>1019.0</ele><time>2026-04-26T09:55:29Z</time></trkpt><trkpt lat="44.46941170641176" lon="9.922520617189004"><ele>1019.0</ele><time>2026-04-26T09:55:30Z</time></trkpt><trkpt lat="44.469465916682594" lon="9.9223615591275"><ele>1019.0</ele><time>2026-04-26T09:55:31Z</time></trkpt><trkpt lat="44.46948200292804" lon="9.922149957808712"><ele>1019.0</ele><time>2026-04-26T09:55:32Z</time></trkpt><trkpt lat="44.46954256592302" lon="9.921950734931054"><ele>1019.0</ele><time>2026-04-26T09:55:33Z</time></trkpt><trkpt lat="44.46961666378474" lon="9.921749237067925"><ele>1019.0</ele><time>2026-04-26T09:55:34Z</time></trkpt><trkpt lat="44.46969187616443" lon="9.921550858126208"><ele>1018.5</ele><time>2026-04-26T09:55:35Z</time></trkpt><trkpt lat="44.46976538046377" lon="9.921357922222315"><ele>1018.0</ele><time>2026-04-26T09:55:36Z</time></trkpt><trkpt lat="44.46983673386256" lon="9.92117113654113"><ele>1017.5</ele><time>2026-04-26T09:55:37Z</time></trkpt><trkpt lat="44.4699009293703" lon="9.92099728014123"><ele>1017.0</ele><time>2026-04-26T09:55:38Z</time></trkpt><trkpt lat="44.46995852259271" lon="9.920844732614642"><ele>1020.2</ele><time>2026-04-26T09:55:39Z</time></trkpt><trkpt lat="44.47001349691169" lon="9.920725333672038"><ele>1023.4000000000001</ele><time>2026-04-26T09:55:40Z</time></trkpt><trkpt lat="44.470082475524045" lon="9.920623015494149"><ele>1026.6</ele><time>2026-04-26T09:55:41Z</time></trkpt><trkpt lat="44.47015440246874" lon="9.920543254714303"><ele>1029.8</ele><time>2026-04-26T09:55:42Z</time></trkpt><trkpt lat="44.470246115073586" lon="9.920560236481872"><ele>1033.0</ele><time>2026-04-26T09:55:43Z</time></trkpt><trkpt lat="44.470328899145834" lon="9.920612396840523"><ele>1033.0</ele><time>2026-04-26T09:55:44Z</time></trkpt><trkpt lat="44.470399326364" lon="9.920709238940336"><ele>1033.0</ele><time>2026-04-26T09:55:45Z</time></trkpt><trkpt lat="44.47046605756201" lon="9.92080300929686"><ele>1033.0</ele><time>2026-04-26T09:55:46Z</time></trkpt><trkpt lat="44.470534170362725" lon="9.920895099212927"><ele>1033.0</ele><time>2026-04-26T09:55:47Z</time></trkpt><trkpt lat="44.470607327827466" lon="9.920992874790581"><ele>1033.0</ele><time>2026-04-26T09:55:48Z</time></trkpt><trkpt lat="44.47068193030154" lon="9.921099537691148"><ele>1030.0</ele><time>2026-04-26T09:55:49Z</time></trkpt><trkpt lat="44.47075771057957" lon="9.921206542148859"><ele>1027.0</ele><time>2026-04-26T09:55:50Z</time></trkpt><trkpt lat="44.47083488782706" lon="9.921312509627633"><ele>1024.0</ele><time>2026-04-26T09:55:51Z</time></trkpt><trkpt lat="44.470920947777216" lon="9.921424137580225"><ele>1021.0</ele><time>2026-04-26T09:55:52Z</time></trkpt><trkpt lat="44.471008151452494" lon="9.921538830340273"><ele>1021.0</ele><time>2026-04-26T09:55:53Z</time></trkpt><trkpt lat="44.47108820241291" lon="9.921652353094899"><ele>1020.9999999999999</ele><time>2026-04-26T09:55:54Z</time></trkpt><trkpt lat="44.47116200193772" lon="9.921759271099821"><ele>1020.9999999999999</ele><time>2026-04-26T09:55:55Z</time></trkpt><trkpt lat="44.47121812959356" lon="9.921865995459065"><ele>1021.0</ele><time>2026-04-26T09:55:56Z</time></trkpt><trkpt lat="44.471247562907976" lon="9.921986175048088"><ele>1021.0</ele><time>2026-04-26T09:55:57Z</time></trkpt><trkpt lat="44.471252178786365" lon="9.922105632449474"><ele>1018.3333333333333</ele><time>2026-04-26T09:55:58Z</time></trkpt><trkpt lat="44.4712418179384" lon="9.922223431384912"><ele>1015.6666666666666</ele><time>2026-04-26T09:55:59Z</time></trkpt><trkpt lat="44.47122766247395" lon="9.922340579421949"><ele>1013.0</ele><time>2026-04-26T09:56:00Z</time></trkpt><trkpt lat="44.47121920306797" lon="9.922450471339245"><ele>1010.3333333333333</ele><time>2026-04-26T09:56:01Z</time></trkpt><trkpt lat="44.47122436544898" lon="9.922564168853773"><ele>1007.6666666666666</ele><time>2026-04-26T09:56:02Z</time></trkpt><trkpt lat="44.471236412365165" lon="9.922675024570992"><ele>1005.0</ele><time>2026-04-26T09:56:03Z</time></trkpt><trkpt lat="44.47127329773574" lon="9.922800462268572"><ele>1010.8</ele><time>2026-04-26T09:56:04Z</time></trkpt><trkpt lat="44.471320860961136" lon="9.922916477804026"><ele>1016.6</ele><time>2026-04-26T09:56:04.999Z</time></trkpt><trkpt lat="44.471372049265916" lon="9.923032121391923"><ele>1022.4000000000001</ele><time>2026-04-26T09:56:05.999Z</time></trkpt><trkpt lat="44.47143667724034" lon="9.923148042935013"><ele>1028.2</ele><time>2026-04-26T09:56:06.999Z</time></trkpt><trkpt lat="44.47150259283179" lon="9.923265815434846"><ele>1034.0</ele><time>2026-04-26T09:56:07.999Z</time></trkpt><trkpt lat="44.471563275854635" lon="9.923395452811677"><ele>1033.0</ele><time>2026-04-26T09:56:08.999Z</time></trkpt><trkpt lat="44.471609809757815" lon="9.923536044775387"><ele>1032.0</ele><time>2026-04-26T09:56:09.999Z</time></trkpt><trkpt lat="44.47165030554869" lon="9.923659135029599"><ele>1031.0</ele><time>2026-04-26T09:56:10.999Z</time></trkpt><trkpt lat="44.47169317550178" lon="9.923784276141363"><ele>1030.0</ele><time>2026-04-26T09:56:11.999Z</time></trkpt><trkpt lat="44.47174441206874" lon="9.923905707663335"><ele>1029.0</ele><time>2026-04-26T09:56:12.999Z</time></trkpt><trkpt lat="44.4717801173191" lon="9.92401167587037"><ele>1029.0</ele><time>2026-04-26T09:56:13.999Z</time></trkpt><trkpt lat="44.471795702641295" lon="9.924109368282224"><ele>1029.0</ele><time>2026-04-26T09:56:14.999Z</time></trkpt><trkpt lat="44.47178977238189" lon="9.92422703775472"><ele>1029.0</ele><time>2026-04-26T09:56:15.999Z</time></trkpt><trkpt lat="44.47177997122026" lon="9.924357993645442"><ele>1029.0</ele><time>2026-04-26T09:56:16.999Z</time></trkpt><trkpt lat="44.471763585541744" lon="9.924506802923815"><ele>1029.0</ele><time>2026-04-26T09:56:17.999Z</time></trkpt><trkpt lat="44.47172883863253" lon="9.924666966767873"><ele>1031.0</ele><time>2026-04-26T09:56:18.999Z</time></trkpt><trkpt lat="44.471673353462585" lon="9.924824333677497"><ele>1033.0</ele><time>2026-04-26T09:56:19.999Z</time></trkpt><trkpt lat="44.47161248455626" lon="9.924986375621723"><ele>1035.0</ele><time>2026-04-26T09:56:20.999Z</time></trkpt><trkpt lat="44.47156091060861" lon="9.925139539010813"><ele>1037.0</ele><time>2026-04-26T09:56:21.999Z</time></trkpt><trkpt lat="44.47151114811391" lon="9.925285200170148"><ele>1040.0</ele><time>2026-04-26T09:56:22.999Z</time></trkpt><trkpt lat="44.4714602800488" lon="9.92543362190421"><ele>1043.0</ele><time>2026-04-26T09:56:23.999Z</time></trkpt><trkpt lat="44.471408514599354" lon="9.925587010250453"><ele>1046.0</ele><time>2026-04-26T09:56:24.999Z</time></trkpt><trkpt lat="44.47136054131076" lon="9.925745054724285"><ele>1049.0</ele><time>2026-04-26T09:56:25.999Z</time></trkpt><trkpt lat="44.47132651472095" lon="9.925913247652057"><ele>1049.6666666666667</ele><time>2026-04-26T09:56:26.999Z</time></trkpt><trkpt lat="44.471316685392914" lon="9.926105995891698"><ele>1050.3333333333333</ele><time>2026-04-26T09:56:27.999Z</time></trkpt><trkpt lat="44.47130817750576" lon="9.926341132067792"><ele>1051.0</ele><time>2026-04-26T09:56:28.999Z</time></trkpt><trkpt lat="44.4713436292829" lon="9.926565786760012"><ele>1049.6</ele><time>2026-04-26T09:56:29.999Z</time></trkpt><trkpt lat="44.471353713789746" lon="9.926732862055744"><ele>1048.1999999999998</ele><time>2026-04-26T09:56:30.999Z</time></trkpt><trkpt lat="44.47136164777245" lon="9.926884469211835"><ele>1046.8000000000002</ele><time>2026-04-26T09:56:31.999Z</time></trkpt><trkpt lat="44.47136210867074" lon="9.927028684717476"><ele>1045.4</ele><time>2026-04-26T09:56:32.999Z</time></trkpt><trkpt lat="44.471350620965005" lon="9.927166745435823"><ele>1044.0</ele><time>2026-04-26T09:56:33.999Z</time></trkpt><trkpt lat="44.471329876036755" lon="9.927304776733921"><ele>1044.0</ele><time>2026-04-26T09:56:34.999Z</time></trkpt><trkpt lat="44.47131418544741" lon="9.927444014814728"><ele>1044.0</ele><time>2026-04-26T09:56:35.999Z</time></trkpt><trkpt lat="44.47130840203462" lon="9.927581992630763"><ele>1044.0</ele><time>2026-04-26T09:56:37Z</time></trkpt><trkpt lat="44.471314018762506" lon="9.927713239577947"><ele>1044.0</ele><time>2026-04-26T09:56:38Z</time></trkpt><trkpt lat="44.471334224806846" lon="9.927835049294952"><ele>1044.0</ele><time>2026-04-26T09:56:39Z</time></trkpt><trkpt lat="44.4713649568898" lon="9.927964996962443"><ele>1043.6666666666667</ele><time>2026-04-26T09:56:40Z</time></trkpt><trkpt lat="44.47140311638914" lon="9.928081265487819"><ele>1043.3333333333333</ele><time>2026-04-26T09:56:41Z</time></trkpt><trkpt lat="44.47144042918544" lon="9.928186172794302"><ele>1043.0</ele><time>2026-04-26T09:56:42Z</time></trkpt><trkpt lat="44.47147484456991" lon="9.928284733092102"><ele>1042.6666666666665</ele><time>2026-04-26T09:56:43Z</time></trkpt><trkpt lat="44.471511559562344" lon="9.928382523618426"><ele>1042.3333333333333</ele><time>2026-04-26T09:56:44Z</time></trkpt><trkpt lat="44.47154822418328" lon="9.928465983125676"><ele>1042.0</ele><time>2026-04-26T09:56:45Z</time></trkpt><trkpt lat="44.47158529910171" lon="9.928555063350416"><ele>1042.0</ele><time>2026-04-26T09:56:46Z</time></trkpt><trkpt lat="44.47162506332756" lon="9.928647874370206"><ele>1042.0</ele><time>2026-04-26T09:56:47Z</time></trkpt><trkpt lat="44.47166149846511" lon="9.928730906198071"><ele>1042.0</ele><time>2026-04-26T09:56:48Z</time></trkpt><trkpt lat="44.47169316508295" lon="9.928813856283996"><ele>1042.0</ele><time>2026-04-26T09:56:49Z</time></trkpt><trkpt lat="44.47176208060814" lon="9.928955401703044"><ele>1042.0</ele><time>2026-04-26T09:56:51Z</time></trkpt><trkpt lat="44.471820278245275" lon="9.929095412162651"><ele>1044.2</ele><time>2026-04-26T09:56:53Z</time></trkpt><trkpt lat="44.47188787243942" lon="9.929255026197923"><ele>1046.4</ele><time>2026-04-26T09:56:55Z</time></trkpt><trkpt lat="44.47192598926446" lon="9.929358619018316"><ele>1048.6</ele><time>2026-04-26T09:56:56Z</time></trkpt><trkpt lat="44.47196813922379" lon="9.929465785170073"><ele>1050.8</ele><time>2026-04-26T09:56:57Z</time></trkpt><trkpt lat="44.472009379597665" lon="9.929571066880058"><ele>1053.0</ele><time>2026-04-26T09:56:58Z</time></trkpt><trkpt lat="44.4720462209561" lon="9.929672666508454"><ele>1053.0</ele><time>2026-04-26T09:56:59Z</time></trkpt><trkpt lat="44.472081619069094" lon="9.929766817442841"><ele>1053.0</ele><time>2026-04-26T09:57:00Z</time></trkpt><trkpt lat="44.47211741622394" lon="9.92985718384685"><ele>1053.0</ele><time>2026-04-26T09:57:01Z</time></trkpt><trkpt lat="44.47217157070337" lon="9.929997649563301"><ele>1053.0</ele><time>2026-04-26T09:57:03Z</time></trkpt><trkpt lat="44.472213149678396" lon="9.930138702280473"><ele>1053.0</ele><time>2026-04-26T09:57:05Z</time></trkpt><trkpt lat="44.472253984445686" lon="9.930236780965037"><ele>1048.0</ele><time>2026-04-26T09:57:06Z</time></trkpt><trkpt lat="44.472313140952124" lon="9.930355824718216"><ele>1043.0</ele><time>2026-04-26T09:57:07Z</time></trkpt><trkpt lat="44.47236709583781" lon="9.930506040113553"><ele>1038.0</ele><time>2026-04-26T09:57:08Z</time></trkpt><trkpt lat="44.47240761814132" lon="9.930676686200808"><ele>1033.0</ele><time>2026-04-26T09:57:09Z</time></trkpt><trkpt lat="44.472441040829565" lon="9.930870123636279"><ele>1030.6666666666665</ele><time>2026-04-26T09:57:10Z</time></trkpt><trkpt lat="44.47246384131919" lon="9.931076026793132"><ele>1028.3333333333333</ele><time>2026-04-26T09:57:11Z</time></trkpt><trkpt lat="44.472455807293315" lon="9.93128769852162"><ele>1026.0</ele><time>2026-04-26T09:57:12Z</time></trkpt><trkpt lat="44.47243473717519" lon="9.931517204288477"><ele>1023.5</ele><time>2026-04-26T09:57:13Z</time></trkpt><trkpt lat="44.47238447646215" lon="9.931752029156545"><ele>1021.0</ele><time>2026-04-26T09:57:14Z</time></trkpt><trkpt lat="44.47236765879707" lon="9.931889947755835"><ele>1018.5</ele><time>2026-04-26T09:57:15Z</time></trkpt><trkpt lat="44.47231110390354" lon="9.9321057215595"><ele>1016.0</ele><time>2026-04-26T09:57:16Z</time></trkpt><trkpt lat="44.47225543346029" lon="9.932322705345525"><ele>1016.0</ele><time>2026-04-26T09:57:17Z</time></trkpt><trkpt lat="44.47220736174261" lon="9.932536253557885"><ele>1016.0</ele><time>2026-04-26T09:57:18Z</time></trkpt><trkpt lat="44.472155185928216" lon="9.932742946286403"><ele>1016.0</ele><time>2026-04-26T09:57:19Z</time></trkpt><trkpt lat="44.47209242534957" lon="9.932938894297411"><ele>1018.25</ele><time>2026-04-26T09:57:20Z</time></trkpt><trkpt lat="44.47201522311252" lon="9.933117181218277"><ele>1020.5</ele><time>2026-04-26T09:57:21Z</time></trkpt><trkpt lat="44.47193703314666" lon="9.933288696956703"><ele>1022.75</ele><time>2026-04-26T09:57:22Z</time></trkpt><trkpt lat="44.471863089797665" lon="9.933448716192668"><ele>1025.0</ele><time>2026-04-26T09:57:23Z</time></trkpt><trkpt lat="44.47178929342789" lon="9.933608702208078"><ele>1025.0</ele><time>2026-04-26T09:57:24Z</time></trkpt><trkpt lat="44.47171738009427" lon="9.933772378479373"><ele>1025.0</ele><time>2026-04-26T09:57:25Z</time></trkpt><trkpt lat="44.47165394636389" lon="9.933960341306305"><ele>1025.0</ele><time>2026-04-26T09:57:26Z</time></trkpt><trkpt lat="44.47158919100385" lon="9.934119199725764"><ele>1025.0</ele><time>2026-04-26T09:57:27Z</time></trkpt><trkpt lat="44.471521297075796" lon="9.934283642392247"><ele>1023.5</ele><time>2026-04-26T09:57:28Z</time></trkpt><trkpt lat="44.47145910735081" lon="9.93445637826768"><ele>1022.0</ele><time>2026-04-26T09:57:29Z</time></trkpt><trkpt lat="44.47141946958211" lon="9.934640551125726"><ele>1020.5</ele><time>2026-04-26T09:57:30Z</time></trkpt><trkpt lat="44.471394736167994" lon="9.934822400344464"><ele>1019.0</ele><time>2026-04-26T09:57:31Z</time></trkpt><trkpt lat="44.47138465073301" lon="9.934983926863064"><ele>1021.2</ele><time>2026-04-26T09:57:32Z</time></trkpt><trkpt lat="44.47140092971963" lon="9.935113482100894"><ele>1023.4000000000001</ele><time>2026-04-26T09:57:33Z</time></trkpt><trkpt lat="44.471444703125094" lon="9.935211839689796"><ele>1025.6</ele><time>2026-04-26T09:57:34Z</time></trkpt><trkpt lat="44.47151708655554" lon="9.935262058444767"><ele>1027.8</ele><time>2026-04-26T09:57:35Z</time></trkpt><trkpt lat="44.47161737418261" lon="9.935273214317824"><ele>1030.0</ele><time>2026-04-26T09:57:36Z</time></trkpt><trkpt lat="44.47172679420589" lon="9.935238279487963"><ele>1030.0</ele><time>2026-04-26T09:57:37Z</time></trkpt><trkpt lat="44.47188068422698" lon="9.935170307979027"><ele>1030.0</ele><time>2026-04-26T09:57:38Z</time></trkpt><trkpt lat="44.47199831914452" lon="9.935206045674464"><ele>1030.0</ele><time>2026-04-26T09:57:39Z</time></trkpt><trkpt lat="44.472113319660544" lon="9.935305903120579"><ele>1030.0</ele><time>2026-04-26T09:57:40Z</time></trkpt><trkpt lat="44.47222089440323" lon="9.93545671474123"><ele>1029.6666666666665</ele><time>2026-04-26T09:57:41Z</time></trkpt><trkpt lat="44.47232925474829" lon="9.935619582819825"><ele>1029.3333333333333</ele><time>2026-04-26T09:57:42Z</time></trkpt><trkpt lat="44.472455134995535" lon="9.935761218881094"><ele>1029.0</ele><time>2026-04-26T09:57:43Z</time></trkpt><trkpt lat="44.47257821428622" lon="9.935895098723995"><ele>1029.0</ele><time>2026-04-26T09:57:44Z</time></trkpt><trkpt lat="44.4726881082174" lon="9.9360274934206"><ele>1029.0</ele><time>2026-04-26T09:57:45Z</time></trkpt><trkpt lat="44.47277901999667" lon="9.936171018539836"><ele>1029.0</ele><time>2026-04-26T09:57:45.999Z</time></trkpt><trkpt lat="44.47283240264997" lon="9.936344739296297"><ele>1029.0</ele><time>2026-04-26T09:57:46.999Z</time></trkpt><trkpt lat="44.47284527600434" lon="9.936531303201663"><ele>1028.3333333333333</ele><time>2026-04-26T09:57:47.999Z</time></trkpt><trkpt lat="44.47281410258515" lon="9.936727764589422"><ele>1027.6666666666665</ele><time>2026-04-26T09:57:48.999Z</time></trkpt><trkpt lat="44.47274936848017" lon="9.936945066950935"><ele>1027.0</ele><time>2026-04-26T09:57:49.999Z</time></trkpt><trkpt lat="44.47267342703235" lon="9.937169137508791"><ele>1027.0</ele><time>2026-04-26T09:57:50.999Z</time></trkpt><trkpt lat="44.472634680839285" lon="9.937401348572223"><ele>1027.0</ele><time>2026-04-26T09:57:51.999Z</time></trkpt><trkpt lat="44.47262365854251" lon="9.937630789255385"><ele>1027.0</ele><time>2026-04-26T09:57:52.999Z</time></trkpt><trkpt lat="44.47260840227896" lon="9.937859392077417"><ele>1025.6666666666665</ele><time>2026-04-26T09:57:53.999Z</time></trkpt><trkpt lat="44.47258571137952" lon="9.93807904035563"><ele>1024.3333333333333</ele><time>2026-04-26T09:57:54.999Z</time></trkpt><trkpt lat="44.47256215964959" lon="9.938289925087389"><ele>1023.0</ele><time>2026-04-26T09:57:55.999Z</time></trkpt><trkpt lat="44.47253524253991" lon="9.938486386166664"><ele>1021.75</ele><time>2026-04-26T09:57:56.999Z</time></trkpt><trkpt lat="44.472496991420925" lon="9.938657249692035"><ele>1020.5</ele><time>2026-04-26T09:57:57.999Z</time></trkpt><trkpt lat="44.472413498977744" lon="9.938759940709511"><ele>1019.25</ele><time>2026-04-26T09:57:58.999Z</time></trkpt><trkpt lat="44.4723220540887" lon="9.938867861235359"><ele>1018.0</ele><time>2026-04-26T09:57:59.999Z</time></trkpt><trkpt lat="44.47221722739175" lon="9.938949686300395"><ele>1018.0</ele><time>2026-04-26T09:58:00.999Z</time></trkpt><trkpt lat="44.472140954924555" lon="9.939074227653235"><ele>1018.0</ele><time>2026-04-26T09:58:01.999Z</time></trkpt><trkpt lat="44.472115480267604" lon="9.939234839265607"><ele>1018.0</ele><time>2026-04-26T09:58:02.999Z</time></trkpt><trkpt lat="44.47213497787961" lon="9.939383707347734"><ele>1018.0</ele><time>2026-04-26T09:58:03.999Z</time></trkpt><trkpt lat="44.47217344152448" lon="9.939532480467298"><ele>1019.0</ele><time>2026-04-26T09:58:04.999Z</time></trkpt><trkpt lat="44.47222396244278" lon="9.939702352837259"><ele>1020.0</ele><time>2026-04-26T09:58:05.999Z</time></trkpt><trkpt lat="44.47226336422459" lon="9.939879055449374"><ele>1021.0</ele><time>2026-04-26T09:58:06.999Z</time></trkpt><trkpt lat="44.47231650232725" lon="9.940008978628525"><ele>1022.0</ele><time>2026-04-26T09:58:07.999Z</time></trkpt><trkpt lat="44.47242198415913" lon="9.940117745371227"><ele>1027.6666666666667</ele><time>2026-04-26T09:58:08.999Z</time></trkpt><trkpt lat="44.47256549073638" lon="9.94017829744666"><ele>1033.3333333333333</ele><time>2026-04-26T09:58:09.999Z</time></trkpt><trkpt lat="44.47272820419916" lon="9.940212913476142"><ele>1039.0</ele><time>2026-04-26T09:58:10.999Z</time></trkpt><trkpt lat="44.472900628421414" lon="9.940235273596423"><ele>1036.75</ele><time>2026-04-26T09:58:11.999Z</time></trkpt><trkpt lat="44.473062347301784" lon="9.940237583315481"><ele>1034.5</ele><time>2026-04-26T09:58:12.999Z</time></trkpt><trkpt lat="44.473205332102005" lon="9.940231908685416"><ele>1032.25</ele><time>2026-04-26T09:58:13.999Z</time></trkpt><trkpt lat="44.47334150929411" lon="9.940285915582077"><ele>1030.0</ele><time>2026-04-26T09:58:14.999Z</time></trkpt><trkpt lat="44.47347396037939" lon="9.940350172989305"><ele>1030.0</ele><time>2026-04-26T09:58:15.999Z</time></trkpt><trkpt lat="44.47357062101056" lon="9.940533270407148"><ele>1030.0</ele><time>2026-04-26T09:58:16.999Z</time></trkpt><trkpt lat="44.47368888640328" lon="9.940715671392097"><ele>1030.0</ele><time>2026-04-26T09:58:17.999Z</time></trkpt><trkpt lat="44.473775855933226" lon="9.94092263364629"><ele>1025.25</ele><time>2026-04-26T09:58:18.999Z</time></trkpt><trkpt lat="44.47386908570121" lon="9.94110633158105"><ele>1020.5</ele><time>2026-04-26T09:58:19.999Z</time></trkpt><trkpt lat="44.47398457200109" lon="9.94123752672018"><ele>1015.75</ele><time>2026-04-26T09:58:20.999Z</time></trkpt><trkpt lat="44.47411140130392" lon="9.941315394999604"><ele>1011.0</ele><time>2026-04-26T09:58:21.999Z</time></trkpt><trkpt lat="44.474214448320936" lon="9.941364651965563"><ele>1011.0</ele><time>2026-04-26T09:58:22.999Z</time></trkpt><trkpt lat="44.4742912098721" lon="9.941433536118398"><ele>1010.9999999999999</ele><time>2026-04-26T09:58:23.999Z</time></trkpt><trkpt lat="44.47430936248604" lon="9.941556796963791"><ele>1010.9999999999999</ele><time>2026-04-26T09:58:24.999Z</time></trkpt><trkpt lat="44.474263794379226" lon="9.941672302161239"><ele>1011.0</ele><time>2026-04-26T09:58:25.999Z</time></trkpt><trkpt lat="44.474172083393206" lon="9.941779851373655"><ele>1011.0</ele><time>2026-04-26T09:58:26.999Z</time></trkpt><trkpt lat="44.474057373084534" lon="9.94187681231146"><ele>1008.0</ele><time>2026-04-26T09:58:27.999Z</time></trkpt><trkpt lat="44.47394596505914" lon="9.941990235154746"><ele>1005.0</ele><time>2026-04-26T09:58:28.999Z</time></trkpt><trkpt lat="44.47383680853397" lon="9.942112877251326"><ele>1002.0</ele><time>2026-04-26T09:58:29.999Z</time></trkpt><trkpt lat="44.47372878426651" lon="9.94222824313202"><ele>999.0</ele><time>2026-04-26T09:58:30.999Z</time></trkpt><trkpt lat="44.4736324140838" lon="9.942348058597583"><ele>1004.25</ele><time>2026-04-26T09:58:31.999Z</time></trkpt><trkpt lat="44.47356101318882" lon="9.942514782509695"><ele>1009.5</ele><time>2026-04-26T09:58:32.999Z</time></trkpt><trkpt lat="44.473527873603445" lon="9.942720201742512"><ele>1014.75</ele><time>2026-04-26T09:58:33.999Z</time></trkpt><trkpt lat="44.47351664039276" lon="9.9429335083754"><ele>1020.0</ele><time>2026-04-26T09:58:34.999Z</time></trkpt><trkpt lat="44.47352053902245" lon="9.94313928612111"><ele>1020.0</ele><time>2026-04-26T09:58:35.999Z</time></trkpt><trkpt lat="44.47354923595885" lon="9.943325286062173"><ele>1020.0</ele><time>2026-04-26T09:58:36.999Z</time></trkpt><trkpt lat="44.47362082603264" lon="9.94350413878849"><ele>1020.0</ele><time>2026-04-26T09:58:37.999Z</time></trkpt><trkpt lat="44.47370949893022" lon="9.94368226228623"><ele>1020.0</ele><time>2026-04-26T09:58:38.999Z</time></trkpt><trkpt lat="44.47378605027212" lon="9.943869215997742"><ele>1015.3333333333333</ele><time>2026-04-26T09:58:39.999Z</time></trkpt><trkpt lat="44.47387353733553" lon="9.944049083285332"><ele>1010.6666666666666</ele><time>2026-04-26T09:58:40.999Z</time></trkpt><trkpt lat="44.473944724540004" lon="9.944244081593428"><ele>1006.0</ele><time>2026-04-26T09:58:41.999Z</time></trkpt><trkpt lat="44.474015210172716" lon="9.944435130717338"><ele>1006.0</ele><time>2026-04-26T09:58:43Z</time></trkpt><trkpt lat="44.47407777863663" lon="9.944647995345061"><ele>1006.0</ele><time>2026-04-26T09:58:44Z</time></trkpt><trkpt lat="44.474137708313904" lon="9.944873142466935"><ele>1006.0</ele><time>2026-04-26T09:58:45Z</time></trkpt><trkpt lat="44.47418537691167" lon="9.945110121966028"><ele>1007.0</ele><time>2026-04-26T09:58:46Z</time></trkpt><trkpt lat="44.47423028420557" lon="9.945350257651327"><ele>1008.0</ele><time>2026-04-26T09:58:47Z</time></trkpt><trkpt lat="44.4742639516836" lon="9.945568891724132"><ele>1009.0</ele><time>2026-04-26T09:58:48Z</time></trkpt><trkpt lat="44.474305504883354" lon="9.94578063020069"><ele>1010.75</ele><time>2026-04-26T09:58:49Z</time></trkpt><trkpt lat="44.474332945086736" lon="9.945963963652556"><ele>1012.5</ele><time>2026-04-26T09:58:50Z</time></trkpt><trkpt lat="44.47436774406685" lon="9.946106512936083"><ele>1014.25</ele><time>2026-04-26T09:58:51Z</time></trkpt><trkpt lat="44.4744569418418" lon="9.946238154624975"><ele>1016.0</ele><time>2026-04-26T09:58:52Z</time></trkpt><trkpt lat="44.4745921570239" lon="9.946327658830164"><ele>1012.0</ele><time>2026-04-26T09:58:53Z</time></trkpt><trkpt lat="44.47475014042276" lon="9.946386401758222"><ele>1008.0</ele><time>2026-04-26T09:58:54Z</time></trkpt><trkpt lat="44.47492307554909" lon="9.946441248737681"><ele>1004.0</ele><time>2026-04-26T09:58:55Z</time></trkpt><trkpt lat="44.475097520650195" lon="9.946489900882836"><ele>1004.0</ele><time>2026-04-26T09:58:56Z</time></trkpt><trkpt lat="44.47527331476245" lon="9.946524114530936"><ele>1004.0</ele><time>2026-04-26T09:58:57Z</time></trkpt><trkpt lat="44.47544840893988" lon="9.946534870092044"><ele>1004.0</ele><time>2026-04-26T09:58:58Z</time></trkpt><trkpt lat="44.47563053178741" lon="9.946598660540932"><ele>1006.0</ele><time>2026-04-26T09:58:59Z</time></trkpt><trkpt lat="44.47580321845362" lon="9.946697080686995"><ele>1008.0</ele><time>2026-04-26T09:59:00Z</time></trkpt><trkpt lat="44.47599873001252" lon="9.946810935749111"><ele>1010.0</ele><time>2026-04-26T09:59:01Z</time></trkpt><trkpt lat="44.47616291789882" lon="9.94690622099211"><ele>1005.75</ele><time>2026-04-26T09:59:02Z</time></trkpt><trkpt lat="44.4763036109705" lon="9.946986635725855"><ele>1001.5</ele><time>2026-04-26T09:59:03Z</time></trkpt><trkpt lat="44.47642023661773" lon="9.94707111384535"><ele>997.25</ele><time>2026-04-26T09:59:04Z</time></trkpt><trkpt lat="44.476517663363545" lon="9.947198311067098"><ele>993.0</ele><time>2026-04-26T09:59:05Z</time></trkpt><trkpt lat="44.47659061087022" lon="9.9473567106134"><ele>997.3333333333333</ele><time>2026-04-26T09:59:06Z</time></trkpt><trkpt lat="44.47667164172501" lon="9.947548382126898"><ele>1001.6666666666666</ele><time>2026-04-26T09:59:07Z</time></trkpt><trkpt lat="44.47675884637078" lon="9.947749305442015"><ele>1006.0</ele><time>2026-04-26T09:59:08Z</time></trkpt><trkpt lat="44.47687143350677" lon="9.947902004398902"><ele>1006.0</ele><time>2026-04-26T09:59:09Z</time></trkpt><trkpt lat="44.477006240990825" lon="9.94803233596738"><ele>1006.0</ele><time>2026-04-26T09:59:10Z</time></trkpt><trkpt lat="44.4771502423769" lon="9.948126535049072"><ele>1006.0</ele><time>2026-04-26T09:59:11Z</time></trkpt><trkpt lat="44.477299647851396" lon="9.948187787825331"><ele>1003.25</ele><time>2026-04-26T09:59:12Z</time></trkpt><trkpt lat="44.47742209829917" lon="9.948259727766985"><ele>1000.5</ele><time>2026-04-26T09:59:13Z</time></trkpt><trkpt lat="44.47751642948079" lon="9.94836018373878"><ele>997.75</ele><time>2026-04-26T09:59:14Z</time></trkpt><trkpt lat="44.47758965102296" lon="9.94849685037769"><ele>995.0</ele><time>2026-04-26T09:59:15Z</time></trkpt><trkpt lat="44.477650954522076" lon="9.948681925285516"><ele>995.0</ele><time>2026-04-26T09:59:16Z</time></trkpt><trkpt lat="44.47770299677748" lon="9.948877023956557"><ele>995.0</ele><time>2026-04-26T09:59:17Z</time></trkpt><trkpt lat="44.47771060934253" lon="9.949079594325784"><ele>995.0</ele><time>2026-04-26T09:59:18Z</time></trkpt><trkpt lat="44.4776999505317" lon="9.949269108025883"><ele>995.0</ele><time>2026-04-26T09:59:19Z</time></trkpt><trkpt lat="44.47768945255633" lon="9.94945116259922"><ele>996.25</ele><time>2026-04-26T09:59:20Z</time></trkpt><trkpt lat="44.47769123444739" lon="9.949624065152163"><ele>997.5</ele><time>2026-04-26T09:59:21Z</time></trkpt><trkpt lat="44.477739198790005" lon="9.949769416740244"><ele>998.75</ele><time>2026-04-26T09:59:22Z</time></trkpt><trkpt lat="44.477829428703764" lon="9.949874818078436"><ele>1000.0</ele><time>2026-04-26T09:59:23Z</time></trkpt><trkpt lat="44.47793598909414" lon="9.94996987988143"><ele>1000.75</ele><time>2026-04-26T09:59:24Z</time></trkpt><trkpt lat="44.47804548811839" lon="9.950041039373227"><ele>1001.5</ele><time>2026-04-26T09:59:25Z</time></trkpt><trkpt lat="44.47815744556727" lon="9.950090495464876"><ele>1002.25</ele><time>2026-04-26T09:59:26Z</time></trkpt><trkpt lat="44.478268640411635" lon="9.950134072014484"><ele>1003.0</ele><time>2026-04-26T09:59:27Z</time></trkpt><trkpt lat="44.478421773203905" lon="9.950087579374388"><ele>1003.0</ele><time>2026-04-26T09:59:28Z</time></trkpt><trkpt lat="44.478590343311375" lon="9.950081249733053"><ele>1003.0</ele><time>2026-04-26T09:59:29Z</time></trkpt><trkpt lat="44.47879834948151" lon="9.950047286534682"><ele>1003.0</ele><time>2026-04-26T09:59:30Z</time></trkpt><trkpt lat="44.47900293427562" lon="9.950014188342744"><ele>996.6666666666666</ele><time>2026-04-26T09:59:31Z</time></trkpt><trkpt lat="44.47920075260829" lon="9.949982184845814"><ele>990.3333333333333</ele><time>2026-04-26T09:59:32Z</time></trkpt><trkpt lat="44.47938871182602" lon="9.949951776397388"><ele>984.0</ele><time>2026-04-26T09:59:33Z</time></trkpt><trkpt lat="44.47953437289788" lon="9.949928474730031"><ele>984.0</ele><time>2026-04-26T09:59:34Z</time></trkpt><trkpt lat="44.479645566269255" lon="9.949910850877021"><ele>984.0</ele><time>2026-04-26T09:59:35Z</time></trkpt><trkpt lat="44.47975146691709" lon="9.94987977694086"><ele>984.0</ele><time>2026-04-26T09:59:36Z</time></trkpt><trkpt lat="44.479868876468615" lon="9.949876464421648"><ele>984.0</ele><time>2026-04-26T09:59:37Z</time></trkpt><trkpt lat="44.48000181671965" lon="9.949856383463953"><ele>984.0</ele><time>2026-04-26T09:59:38Z</time></trkpt><trkpt lat="44.48015417451568" lon="9.94983336943981"><ele>984.0</ele><time>2026-04-26T09:59:39Z</time></trkpt><trkpt lat="44.4803128001424" lon="9.949809408651094"><ele>984.0</ele><time>2026-04-26T09:59:40Z</time></trkpt><trkpt lat="44.480462662783054" lon="9.949784976246962"><ele>984.3333333333333</ele><time>2026-04-26T09:59:41Z</time></trkpt><trkpt lat="44.480600018924996" lon="9.949734390462012"><ele>984.6666666666666</ele><time>2026-04-26T09:59:42Z</time></trkpt><trkpt lat="44.480712209788045" lon="9.94957979811179"><ele>985.0</ele><time>2026-04-26T09:59:43Z</time></trkpt><trkpt lat="44.480813371762395" lon="9.949412437797141"><ele>985.0</ele><time>2026-04-26T09:59:44Z</time></trkpt><trkpt lat="44.48092733296925" lon="9.949273830918095"><ele>985.0</ele><time>2026-04-26T09:59:44.999Z</time></trkpt><trkpt lat="44.48103823955157" lon="9.949117466595869"><ele>985.0</ele><time>2026-04-26T09:59:45.999Z</time></trkpt><trkpt lat="44.481125028732556" lon="9.948935979263169"><ele>982.25</ele><time>2026-04-26T09:59:46.999Z</time></trkpt><trkpt lat="44.48123553738688" lon="9.948794488453121"><ele>979.5</ele><time>2026-04-26T09:59:47.999Z</time></trkpt><trkpt lat="44.48133673414547" lon="9.94865330986288"><ele>976.75</ele><time>2026-04-26T09:59:48.999Z</time></trkpt><trkpt lat="44.48142914340367" lon="9.948520753617649"><ele>974.0</ele><time>2026-04-26T09:59:49.999Z</time></trkpt><trkpt lat="44.481519738415564" lon="9.948418894938793"><ele>974.0</ele><time>2026-04-26T09:59:50.999Z</time></trkpt><trkpt lat="44.48162206941849" lon="9.948388374235098"><ele>974.0</ele><time>2026-04-26T09:59:51.999Z</time></trkpt><trkpt lat="44.481720670065364" lon="9.948445480740117"><ele>974.0</ele><time>2026-04-26T09:59:52.999Z</time></trkpt><trkpt lat="44.481786541400965" lon="9.948592353425465"><ele>974.0</ele><time>2026-04-26T09:59:53.999Z</time></trkpt><trkpt lat="44.48182873095732" lon="9.948790590605183"><ele>974.0</ele><time>2026-04-26T09:59:54.999Z</time></trkpt><trkpt lat="44.481867097510616" lon="9.949001808232328"><ele>974.0</ele><time>2026-04-26T09:59:55.999Z</time></trkpt><trkpt lat="44.48194183851881" lon="9.949177886135518"><ele>974.0</ele><time>2026-04-26T09:59:56.999Z</time></trkpt><trkpt lat="44.48209937500141" lon="9.949320648526191"><ele>973.3333333333334</ele><time>2026-04-26T09:59:57.999Z</time></trkpt><trkpt lat="44.4822826250885" lon="9.949483035487752"><ele>972.6666666666667</ele><time>2026-04-26T09:59:58.999Z</time></trkpt><trkpt lat="44.482455667665064" lon="9.949630184708807"><ele>972.0</ele><time>2026-04-26T09:59:59.999Z</time></trkpt><trkpt lat="44.48260849404413" lon="9.949771690224491"><ele>972.0</ele><time>2026-04-26T10:00:00.999Z</time></trkpt><trkpt lat="44.48275087969595" lon="9.949908561995496"><ele>972.0</ele><time>2026-04-26T10:00:01.999Z</time></trkpt><trkpt lat="44.482897763920796" lon="9.950002726443081"><ele>972.0</ele><time>2026-04-26T10:00:02.999Z</time></trkpt><trkpt lat="44.48305768135517" lon="9.950005211655421"><ele>966.3333333333333</ele><time>2026-04-26T10:00:03.999Z</time></trkpt><trkpt lat="44.483220370017314" lon="9.94995901572799"><ele>960.6666666666666</ele><time>2026-04-26T10:00:04.999Z</time></trkpt><trkpt lat="44.483383889798255" lon="9.949967490066795"><ele>955.0</ele><time>2026-04-26T10:00:05.999Z</time></trkpt><trkpt lat="44.48353948056895" lon="9.950014818706089"><ele>953.3333333333333</ele><time>2026-04-26T10:00:06.999Z</time></trkpt><trkpt lat="44.483690569479755" lon="9.950109766361523"><ele>951.6666666666667</ele><time>2026-04-26T10:00:07.999Z</time></trkpt><trkpt lat="44.4838175469517" lon="9.95023521669997"><ele>950.0</ele><time>2026-04-26T10:00:08.999Z</time></trkpt><trkpt lat="44.48393631322276" lon="9.950382127670883"><ele>950.0</ele><time>2026-04-26T10:00:09.999Z</time></trkpt><trkpt lat="44.48402530533542" lon="9.950583864096888"><ele>950.0</ele><time>2026-04-26T10:00:10.999Z</time></trkpt><trkpt lat="44.484083471435376" lon="9.950812468350833"><ele>950.0</ele><time>2026-04-26T10:00:11.999Z</time></trkpt><trkpt lat="44.484138238216225" lon="9.951061313132294"><ele>952.3333333333334</ele><time>2026-04-26T10:00:12.999Z</time></trkpt><trkpt lat="44.48419558788364" lon="9.951311673677246"><ele>954.6666666666667</ele><time>2026-04-26T10:00:13.999Z</time></trkpt><trkpt lat="44.484254950594284" lon="9.95155985070948"><ele>957.0</ele><time>2026-04-26T10:00:14.999Z</time></trkpt><trkpt lat="44.48433029604764" lon="9.95181440850241"><ele>959.3333333333333</ele><time>2026-04-26T10:00:15.999Z</time></trkpt><trkpt lat="44.484433309053685" lon="9.95204215945385"><ele>961.6666666666666</ele><time>2026-04-26T10:00:16.999Z</time></trkpt><trkpt lat="44.484565122680216" lon="9.952259710307217"><ele>964.0</ele><time>2026-04-26T10:00:17.999Z</time></trkpt><trkpt lat="44.484686660704696" lon="9.952483297892885"><ele>954.6666666666666</ele><time>2026-04-26T10:00:18.999Z</time></trkpt><trkpt lat="44.484772662208535" lon="9.95272199917721"><ele>945.3333333333333</ele><time>2026-04-26T10:00:19.999Z</time></trkpt><trkpt lat="44.4848493688043" lon="9.952966430200489"><ele>936.0</ele><time>2026-04-26T10:00:20.999Z</time></trkpt><trkpt lat="44.48492720905483" lon="9.953178534339902"><ele>935.6666666666667</ele><time>2026-04-26T10:00:21.999Z</time></trkpt><trkpt lat="44.48498313655352" lon="9.953397465630626"><ele>935.3333333333334</ele><time>2026-04-26T10:00:22.999Z</time></trkpt><trkpt lat="44.485002511146185" lon="9.953633980895358"><ele>935.0</ele><time>2026-04-26T10:00:23.999Z</time></trkpt><trkpt lat="44.48501330728385" lon="9.953873339397353"><ele>935.0</ele><time>2026-04-26T10:00:24.999Z</time></trkpt><trkpt lat="44.485009458855146" lon="9.954111622819834"><ele>935.0</ele><time>2026-04-26T10:00:25.999Z</time></trkpt><trkpt lat="44.484977214071804" lon="9.95435339738866"><ele>935.0</ele><time>2026-04-26T10:00:26.999Z</time></trkpt><trkpt lat="44.48491223834098" lon="9.954607653079483"><ele>932.6666666666667</ele><time>2026-04-26T10:00:27.999Z</time></trkpt><trkpt lat="44.48484896783877" lon="9.954873979986807"><ele>930.3333333333333</ele><time>2026-04-26T10:00:28.999Z</time></trkpt><trkpt lat="44.4847941718132" lon="9.955139576962933"><ele>928.0</ele><time>2026-04-26T10:00:29.999Z</time></trkpt><trkpt lat="44.484742376972534" lon="9.955399151864714"><ele>927.6666666666666</ele><time>2026-04-26T10:00:30.999Z</time></trkpt><trkpt lat="44.48468335399684" lon="9.955645414941669"><ele>927.3333333333333</ele><time>2026-04-26T10:00:31.999Z</time></trkpt><trkpt lat="44.48461173522619" lon="9.955880727211413"><ele>927.0</ele><time>2026-04-26T10:00:32.999Z</time></trkpt><trkpt lat="44.48454844310186" lon="9.95612708919751"><ele>927.0</ele><time>2026-04-26T10:00:33.999Z</time></trkpt><trkpt lat="44.48451327347147" lon="9.956389468226202"><ele>927.0</ele><time>2026-04-26T10:00:34.999Z</time></trkpt><trkpt lat="44.484496462413375" lon="9.95665793041896"><ele>927.0</ele><time>2026-04-26T10:00:35.999Z</time></trkpt><trkpt lat="44.48447912116415" lon="9.95691872104182"><ele>926.3333333333333</ele><time>2026-04-26T10:00:36.999Z</time></trkpt><trkpt lat="44.48445702996925" lon="9.957180404871176"><ele>925.6666666666666</ele><time>2026-04-26T10:00:37.999Z</time></trkpt><trkpt lat="44.48443202771112" lon="9.957443137641866"><ele>925.0</ele><time>2026-04-26T10:00:38.999Z</time></trkpt><trkpt lat="44.484408835487095" lon="9.957700802188922"><ele>925.0</ele><time>2026-04-26T10:00:39.999Z</time></trkpt><trkpt lat="44.48438984750871" lon="9.957954899100551"><ele>925.0</ele><time>2026-04-26T10:00:40.999Z</time></trkpt><trkpt lat="44.48436711206188" lon="9.958200174860133"><ele>925.0</ele><time>2026-04-26T10:00:41.999Z</time></trkpt><trkpt lat="44.4843635301649" lon="9.958411760605191"><ele>927.5</ele><time>2026-04-26T10:00:42.999Z</time></trkpt><trkpt lat="44.48439666434478" lon="9.958574886868416"><ele>930.0</ele><time>2026-04-26T10:00:43.999Z</time></trkpt><trkpt lat="44.4844822091134" lon="9.958688561497661"><ele>932.5</ele><time>2026-04-26T10:00:44.999Z</time></trkpt><trkpt lat="44.48461431307673" lon="9.958758805771026"><ele>935.0</ele><time>2026-04-26T10:00:45.999Z</time></trkpt><trkpt lat="44.4847797200394" lon="9.958769603266816"><ele>927.3333333333334</ele><time>2026-04-26T10:00:46.999Z</time></trkpt><trkpt lat="44.48493835337243" lon="9.958790187963885"><ele>919.6666666666667</ele><time>2026-04-26T10:00:47.999Z</time></trkpt><trkpt lat="44.48510539194603" lon="9.958807655213615"><ele>912.0</ele><time>2026-04-26T10:00:49Z</time></trkpt><trkpt lat="44.485249562729194" lon="9.958838530815399"><ele>912.0</ele><time>2026-04-26T10:00:50Z</time></trkpt><trkpt lat="44.485372482551604" lon="9.95888558944205"><ele>912.0</ele><time>2026-04-26T10:00:51Z</time></trkpt><trkpt lat="44.48548791074316" lon="9.958977313233289"><ele>912.0</ele><time>2026-04-26T10:00:52Z</time></trkpt><trkpt lat="44.485570531272046" lon="9.959112886386313"><ele>912.0</ele><time>2026-04-26T10:00:53Z</time></trkpt><trkpt lat="44.48561922487551" lon="9.959274267004503"><ele>905.0</ele><time>2026-04-26T10:00:54Z</time></trkpt><trkpt lat="44.4856093745391" lon="9.959466230231596"><ele>898.0</ele><time>2026-04-26T10:00:55Z</time></trkpt><trkpt lat="44.485620179314544" lon="9.9596792500048"><ele>891.0</ele><time>2026-04-26T10:00:56Z</time></trkpt><trkpt lat="44.48562148154156" lon="9.959908212487885"><ele>891.6666666666667</ele><time>2026-04-26T10:00:57Z</time></trkpt><trkpt lat="44.485633986858204" lon="9.960149071770655"><ele>892.3333333333334</ele><time>2026-04-26T10:00:58Z</time></trkpt><trkpt lat="44.48566608454532" lon="9.960401067464929"><ele>893.0</ele><time>2026-04-26T10:00:59Z</time></trkpt><trkpt lat="44.485702963692084" lon="9.960646358595863"><ele>892.6666666666667</ele><time>2026-04-26T10:01:00Z</time></trkpt><trkpt lat="44.48574810959146" lon="9.960909292046939"><ele>892.3333333333333</ele><time>2026-04-26T10:01:01Z</time></trkpt><trkpt lat="44.485787617974395" lon="9.961177144805859"><ele>892.0</ele><time>2026-04-26T10:01:02Z</time></trkpt><trkpt lat="44.485827855959734" lon="9.961453357488045"><ele>892.3333333333333</ele><time>2026-04-26T10:01:03Z</time></trkpt><trkpt lat="44.48587227666901" lon="9.961718580615665"><ele>892.6666666666667</ele><time>2026-04-26T10:01:04Z</time></trkpt><trkpt lat="44.48592019590318" lon="9.961967068571033"><ele>893.0</ele><time>2026-04-26T10:01:05Z</time></trkpt><trkpt lat="44.48596239101406" lon="9.962204575726135"><ele>893.0</ele><time>2026-04-26T10:01:06Z</time></trkpt><trkpt lat="44.4860007853259" lon="9.962437255643051"><ele>893.0</ele><time>2026-04-26T10:01:07Z</time></trkpt><trkpt lat="44.486030559795985" lon="9.962652802352057"><ele>893.0</ele><time>2026-04-26T10:01:08Z</time></trkpt><trkpt lat="44.486042481700984" lon="9.962859197684564"><ele>892.3333333333334</ele><time>2026-04-26T10:01:09Z</time></trkpt><trkpt lat="44.48601256561158" lon="9.963053782398251"><ele>891.6666666666667</ele><time>2026-04-26T10:01:10Z</time></trkpt><trkpt lat="44.48592877512521" lon="9.96322956177306"><ele>891.0</ele><time>2026-04-26T10:01:11Z</time></trkpt><trkpt lat="44.48585010908415" lon="9.963432459896326"><ele>890.5</ele><time>2026-04-26T10:01:12Z</time></trkpt><trkpt lat="44.485756475002276" lon="9.963598825074008"><ele>890.0</ele><time>2026-04-26T10:01:13Z</time></trkpt><trkpt lat="44.48567470042062" lon="9.963759689648723"><ele>889.5</ele><time>2026-04-26T10:01:14Z</time></trkpt><trkpt lat="44.48561766799497" lon="9.96393221266219"><ele>889.0</ele><time>2026-04-26T10:01:15Z</time></trkpt><trkpt lat="44.48557130430974" lon="9.964129062742444"><ele>889.6666666666666</ele><time>2026-04-26T10:01:16Z</time></trkpt><trkpt lat="44.48555780869914" lon="9.964353364286506"><ele>890.3333333333333</ele><time>2026-04-26T10:01:17Z</time></trkpt><trkpt lat="44.485580139093074" lon="9.964569629069176"><ele>891.0</ele><time>2026-04-26T10:01:18Z</time></trkpt><trkpt lat="44.485641707699834" lon="9.964747305046654"><ele>891.0</ele><time>2026-04-26T10:01:19Z</time></trkpt><trkpt lat="44.48573029664763" lon="9.9648819343218"><ele>891.0</ele><time>2026-04-26T10:01:20Z</time></trkpt><trkpt lat="44.48584306401924" lon="9.964963365101115"><ele>891.0</ele><time>2026-04-26T10:01:21Z</time></trkpt><trkpt lat="44.485969606734606" lon="9.964976329464465"><ele>891.0</ele><time>2026-04-26T10:01:22Z</time></trkpt><trkpt lat="44.48613221935222" lon="9.964918254816391"><ele>886.6666666666667</ele><time>2026-04-26T10:01:23Z</time></trkpt><trkpt lat="44.48627580782697" lon="9.96482985675"><ele>882.3333333333334</ele><time>2026-04-26T10:01:24Z</time></trkpt><trkpt lat="44.486435004710664" lon="9.964777914465598"><ele>878.0</ele><time>2026-04-26T10:01:25Z</time></trkpt><trkpt lat="44.4865727641767" lon="9.964689323481945"><ele>878.0</ele><time>2026-04-26T10:01:26Z</time></trkpt><trkpt lat="44.486710109757205" lon="9.964645077608687"><ele>878.0</ele><time>2026-04-26T10:01:27Z</time></trkpt><trkpt lat="44.48684608032488" lon="9.964662762129413"><ele>878.0</ele><time>2026-04-26T10:01:28Z</time></trkpt><trkpt lat="44.486988095975875" lon="9.964695172575718"><ele>878.0</ele><time>2026-04-26T10:01:29Z</time></trkpt><trkpt lat="44.487134081104664" lon="9.964807281335302"><ele>875.3333333333334</ele><time>2026-04-26T10:01:30Z</time></trkpt><trkpt lat="44.487249398043126" lon="9.96499517157162"><ele>872.6666666666667</ele><time>2026-04-26T10:01:31Z</time></trkpt><trkpt lat="44.487347177797844" lon="9.96520347603691"><ele>870.0</ele><time>2026-04-26T10:01:32Z</time></trkpt><trkpt lat="44.48746101295224" lon="9.965389878189482"><ele>870.0</ele><time>2026-04-26T10:01:33Z</time></trkpt><trkpt lat="44.487540903979614" lon="9.965602832744324"><ele>870.0</ele><time>2026-04-26T10:01:34Z</time></trkpt><trkpt lat="44.487633308686306" lon="9.96579093016933"><ele>870.0</ele><time>2026-04-26T10:01:35Z</time></trkpt><trkpt lat="44.487722309099624" lon="9.965973267549337"><ele>871.75</ele><time>2026-04-26T10:01:36Z</time></trkpt><trkpt lat="44.4878012634217" lon="9.966136753014771"><ele>873.5</ele><time>2026-04-26T10:01:37Z</time></trkpt><trkpt lat="44.48789212712905" lon="9.966248832955955"><ele>875.25</ele><time>2026-04-26T10:01:38Z</time></trkpt><trkpt lat="44.48801209788073" lon="9.966298918255584"><ele>877.0</ele><time>2026-04-26T10:01:39Z</time></trkpt><trkpt lat="44.488154274456136" lon="9.966270598607782"><ele>877.0</ele><time>2026-04-26T10:01:40Z</time></trkpt><trkpt lat="44.48829747966819" lon="9.966187619494892"><ele>877.0</ele><time>2026-04-26T10:01:41Z</time></trkpt><trkpt lat="44.48842868197566" lon="9.966083920221743"><ele>877.0</ele><time>2026-04-26T10:01:42Z</time></trkpt><trkpt lat="44.488562197084526" lon="9.966057916515714"><ele>877.0</ele><time>2026-04-26T10:01:43Z</time></trkpt><trkpt lat="44.48868862612941" lon="9.966084380735706"><ele>877.0</ele><time>2026-04-26T10:01:44Z</time></trkpt><trkpt lat="44.488807887267704" lon="9.966183379966644"><ele>877.0</ele><time>2026-04-26T10:01:45Z</time></trkpt><trkpt lat="44.488903685501576" lon="9.966339961140367"><ele>877.0</ele><time>2026-04-26T10:01:46Z</time></trkpt><trkpt lat="44.48901373565064" lon="9.966519267871313"><ele>880.5</ele><time>2026-04-26T10:01:47Z</time></trkpt><trkpt lat="44.48910811133466" lon="9.966694891979222"><ele>884.0</ele><time>2026-04-26T10:01:48Z</time></trkpt><trkpt lat="44.48922079627681" lon="9.9668137749425"><ele>887.5</ele><time>2026-04-26T10:01:49Z</time></trkpt><trkpt lat="44.48935185262335" lon="9.966854915430876"><ele>891.0</ele><time>2026-04-26T10:01:50Z</time></trkpt><trkpt lat="44.489484169879326" lon="9.966790664124849"><ele>886.3333333333333</ele><time>2026-04-26T10:01:51Z</time></trkpt><trkpt lat="44.489602671236604" lon="9.966679485284057"><ele>881.6666666666666</ele><time>2026-04-26T10:01:52Z</time></trkpt><trkpt lat="44.48971011957262" lon="9.966527224207516"><ele>877.0</ele><time>2026-04-26T10:01:53Z</time></trkpt><trkpt lat="44.48981070457619" lon="9.966359442878414"><ele>877.0</ele><time>2026-04-26T10:01:54Z</time></trkpt><trkpt lat="44.48993210230554" lon="9.966220188822186"><ele>877.0</ele><time>2026-04-26T10:01:55Z</time></trkpt><trkpt lat="44.490048675093696" lon="9.966089469898538"><ele>877.0</ele><time>2026-04-26T10:01:56Z</time></trkpt><trkpt lat="44.49017031995455" lon="9.965979571167574"><ele>877.0</ele><time>2026-04-26T10:01:57Z</time></trkpt><trkpt lat="44.49031679284508" lon="9.965916173751616"><ele>877.0</ele><time>2026-04-26T10:01:57.999Z</time></trkpt><trkpt lat="44.490476486691854" lon="9.965889842090816"><ele>877.0</ele><time>2026-04-26T10:01:58.999Z</time></trkpt><trkpt lat="44.490633212102274" lon="9.965895869543315"><ele>878.0</ele><time>2026-04-26T10:01:59.999Z</time></trkpt><trkpt lat="44.49079366000879" lon="9.965899173838094"><ele>879.0</ele><time>2026-04-26T10:02:00.999Z</time></trkpt><trkpt lat="44.49094180487162" lon="9.965921412999174"><ele>880.0</ele><time>2026-04-26T10:02:01.999Z</time></trkpt><trkpt lat="44.49108225941028" lon="9.965960658543231"><ele>880.0</ele><time>2026-04-26T10:02:02.999Z</time></trkpt><trkpt lat="44.491227678440204" lon="9.966011084820364"><ele>880.0</ele><time>2026-04-26T10:02:03.999Z</time></trkpt><trkpt lat="44.49136498895651" lon="9.966074915303695"><ele>880.0</ele><time>2026-04-26T10:02:04.999Z</time></trkpt><trkpt lat="44.491507944522155" lon="9.966151145863089"><ele>880.0</ele><time>2026-04-26T10:02:05.999Z</time></trkpt><trkpt lat="44.49164900343264" lon="9.966224169653296"><ele>877.3333333333333</ele><time>2026-04-26T10:02:06.999Z</time></trkpt><trkpt lat="44.49178814626398" lon="9.966292773536296"><ele>874.6666666666667</ele><time>2026-04-26T10:02:07.999Z</time></trkpt><trkpt lat="44.49192844385735" lon="9.966363573887405"><ele>872.0</ele><time>2026-04-26T10:02:08.999Z</time></trkpt><trkpt lat="44.49207227709177" lon="9.966443303522174"><ele>871.0</ele><time>2026-04-26T10:02:09.999Z</time></trkpt><trkpt lat="44.492213269309985" lon="9.966520465818046"><ele>870.0</ele><time>2026-04-26T10:02:10.999Z</time></trkpt><trkpt lat="44.49234948043244" lon="9.966598181912433"><ele>869.0</ele><time>2026-04-26T10:02:11.999Z</time></trkpt><trkpt lat="44.49246754327593" lon="9.966705232389582"><ele>868.0</ele><time>2026-04-26T10:02:12.999Z</time></trkpt><trkpt lat="44.492552226125824" lon="9.966853451832309"><ele>868.0</ele><time>2026-04-26T10:02:13.999Z</time></trkpt><trkpt lat="44.49259005527153" lon="9.967053834273667"><ele>868.0</ele><time>2026-04-26T10:02:14.999Z</time></trkpt><trkpt lat="44.49258284552908" lon="9.967262751190464"><ele>868.0</ele><time>2026-04-26T10:02:15.999Z</time></trkpt><trkpt lat="44.49260308160702" lon="9.96745624037277"><ele>868.0</ele><time>2026-04-26T10:02:16.999Z</time></trkpt><trkpt lat="44.49261564250014" lon="9.967644484675928"><ele>868.5</ele><time>2026-04-26T10:02:17.999Z</time></trkpt><trkpt lat="44.49264570534653" lon="9.967827332483688"><ele>869.0</ele><time>2026-04-26T10:02:18.999Z</time></trkpt><trkpt lat="44.492688785687" lon="9.968001937275824"><ele>869.5</ele><time>2026-04-26T10:02:19.999Z</time></trkpt><trkpt lat="44.492740409353935" lon="9.968159392504433"><ele>870.0</ele><time>2026-04-26T10:02:20.999Z</time></trkpt><trkpt lat="44.492789924273936" lon="9.968316537015257"><ele>870.25</ele><time>2026-04-26T10:02:21.999Z</time></trkpt><trkpt lat="44.49282722691013" lon="9.968469329165352"><ele>870.5</ele><time>2026-04-26T10:02:22.999Z</time></trkpt><trkpt lat="44.4928621004664" lon="9.968617235234223"><ele>870.75</ele><time>2026-04-26T10:02:23.999Z</time></trkpt><trkpt lat="44.49290140367679" lon="9.968763229331346"><ele>871.0</ele><time>2026-04-26T10:02:24.999Z</time></trkpt><trkpt lat="44.49294572624855" lon="9.968917969910757"><ele>870.5999999999999</ele><time>2026-04-26T10:02:25.999Z</time></trkpt><trkpt lat="44.4929930643956" lon="9.969063223835423"><ele>870.1999999999999</ele><time>2026-04-26T10:02:26.999Z</time></trkpt><trkpt lat="44.493035138000394" lon="9.969205438822556"><ele>869.8000000000001</ele><time>2026-04-26T10:02:27.999Z</time></trkpt><trkpt lat="44.49307699351641" lon="9.969344580485528"><ele>869.4000000000001</ele><time>2026-04-26T10:02:28.999Z</time></trkpt><trkpt lat="44.49311665339279" lon="9.96947886236192"><ele>869.0</ele><time>2026-04-26T10:02:29.999Z</time></trkpt><trkpt lat="44.49315832735134" lon="9.969609033166455"><ele>869.0</ele><time>2026-04-26T10:02:30.999Z</time></trkpt><trkpt lat="44.49320111146611" lon="9.969755311424763"><ele>869.0</ele><time>2026-04-26T10:02:31.999Z</time></trkpt><trkpt lat="44.49324400967274" lon="9.969909945551478"><ele>869.0</ele><time>2026-04-26T10:02:32.999Z</time></trkpt><trkpt lat="44.49329069760881" lon="9.97007205557385"><ele>869.0</ele><time>2026-04-26T10:02:33.999Z</time></trkpt><trkpt lat="44.49334151696138" lon="9.970239641076745"><ele>874.75</ele><time>2026-04-26T10:02:34.999Z</time></trkpt><trkpt lat="44.49340987493837" lon="9.97039613877934"><ele>880.5</ele><time>2026-04-26T10:02:35.999Z</time></trkpt><trkpt lat="44.49349381836661" lon="9.970535978956374"><ele>886.25</ele><time>2026-04-26T10:02:36.999Z</time></trkpt><trkpt lat="44.4935968677193" lon="9.970651512187318"><ele>892.0</ele><time>2026-04-26T10:02:37.999Z</time></trkpt><trkpt lat="44.49371734153948" lon="9.970740070126697"><ele>887.25</ele><time>2026-04-26T10:02:38.999Z</time></trkpt><trkpt lat="44.493844715511315" lon="9.970821746971883"><ele>882.5</ele><time>2026-04-26T10:02:39.999Z</time></trkpt><trkpt lat="44.49396613244425" lon="9.970912827405536"><ele>877.75</ele><time>2026-04-26T10:02:40.999Z</time></trkpt><trkpt lat="44.49406821667498" lon="9.971019422121392"><ele>873.0</ele><time>2026-04-26T10:02:41.999Z</time></trkpt><trkpt lat="44.494135184687366" lon="9.9711561769491"><ele>873.0</ele><time>2026-04-26T10:02:42.999Z</time></trkpt><trkpt lat="44.49415490478651" lon="9.971335190406064"><ele>873.0</ele><time>2026-04-26T10:02:43.999Z</time></trkpt><trkpt lat="44.49411900442929" lon="9.971521183149333"><ele>873.0</ele><time>2026-04-26T10:02:44.999Z</time></trkpt><trkpt lat="44.4940362339746" lon="9.971673734398498"><ele>873.0</ele><time>2026-04-26T10:02:45.999Z</time></trkpt><trkpt lat="44.493962383963236" lon="9.971806927578637"><ele>875.0</ele><time>2026-04-26T10:02:46.999Z</time></trkpt><trkpt lat="44.49392747098524" lon="9.971966780098413"><ele>877.0</ele><time>2026-04-26T10:02:47.999Z</time></trkpt><trkpt lat="44.49392535326257" lon="9.972137649827017"><ele>879.0</ele><time>2026-04-26T10:02:48.999Z</time></trkpt><trkpt lat="44.49397590865602" lon="9.972323064739246"><ele>881.0</ele><time>2026-04-26T10:02:49.999Z</time></trkpt><trkpt lat="44.49404196223114" lon="9.972496534117875"><ele>888.25</ele><time>2026-04-26T10:02:50.999Z</time></trkpt><trkpt lat="44.49414093304454" lon="9.972637458859468"><ele>895.5</ele><time>2026-04-26T10:02:51.999Z</time></trkpt><trkpt lat="44.49427172374505" lon="9.97274000992671"><ele>902.75</ele><time>2026-04-26T10:02:52.999Z</time></trkpt><trkpt lat="44.494417895943734" lon="9.972816529406483"><ele>910.0</ele><time>2026-04-26T10:02:53.999Z</time></trkpt><trkpt lat="44.494575350749194" lon="9.972903267319143"><ele>901.6666666666666</ele><time>2026-04-26T10:02:55Z</time></trkpt><trkpt lat="44.49472660695124" lon="9.973010350067842"><ele>893.3333333333333</ele><time>2026-04-26T10:02:56Z</time></trkpt><trkpt lat="44.49487886088189" lon="9.973113770320731"><ele>885.0</ele><time>2026-04-26T10:02:57Z</time></trkpt><trkpt lat="44.49504312791785" lon="9.973214040232005"><ele>885.0</ele><time>2026-04-26T10:02:58Z</time></trkpt><trkpt lat="44.49521977039869" lon="9.973325108286117"><ele>885.0</ele><time>2026-04-26T10:02:59Z</time></trkpt><trkpt lat="44.49539194304825" lon="9.973428236848548"><ele>885.0</ele><time>2026-04-26T10:03:00Z</time></trkpt><trkpt lat="44.495570189099595" lon="9.973506374829329"><ele>890.0</ele><time>2026-04-26T10:03:01Z</time></trkpt><trkpt lat="44.49573516939536" lon="9.973566656583145"><ele>895.0</ele><time>2026-04-26T10:03:02Z</time></trkpt><trkpt lat="44.49591605806422" lon="9.973624849800116"><ele>900.0</ele><time>2026-04-26T10:03:03Z</time></trkpt><trkpt lat="44.49611059714956" lon="9.973655972791114"><ele>895.3333333333333</ele><time>2026-04-26T10:03:04Z</time></trkpt><trkpt lat="44.49627292388621" lon="9.9736948778987"><ele>890.6666666666666</ele><time>2026-04-26T10:03:05Z</time></trkpt><trkpt lat="44.496432185115225" lon="9.9737450589362"><ele>886.0</ele><time>2026-04-26T10:03:06Z</time></trkpt><trkpt lat="44.49658920520501" lon="9.973829658824979"><ele>886.0</ele><time>2026-04-26T10:03:07Z</time></trkpt><trkpt lat="44.496744729044295" lon="9.973938682792165"><ele>886.0</ele><time>2026-04-26T10:03:08Z</time></trkpt><trkpt lat="44.49691224316154" lon="9.974031358430764"><ele>886.0</ele><time>2026-04-26T10:03:09Z</time></trkpt><trkpt lat="44.4970640122554" lon="9.974062088308987"><ele>890.3333333333333</ele><time>2026-04-26T10:03:10Z</time></trkpt><trkpt lat="44.49721115802481" lon="9.974065012756043"><ele>894.6666666666667</ele><time>2026-04-26T10:03:11Z</time></trkpt><trkpt lat="44.497349635187334" lon="9.974147591779738"><ele>899.0</ele><time>2026-04-26T10:03:12Z</time></trkpt><trkpt lat="44.497476773425696" lon="9.974264305074055"><ele>899.0</ele><time>2026-04-26T10:03:13Z</time></trkpt><trkpt lat="44.49758032517093" lon="9.974429572782437"><ele>899.0</ele><time>2026-04-26T10:03:14Z</time></trkpt><trkpt lat="44.497676634665055" lon="9.97459468597414"><ele>899.0</ele><time>2026-04-26T10:03:15Z</time></trkpt><trkpt lat="44.49779113606542" lon="9.97477085940464"><ele>899.0</ele><time>2026-04-26T10:03:16Z</time></trkpt><trkpt lat="44.49791717798161" lon="9.974902633845455"><ele>899.0</ele><time>2026-04-26T10:03:17Z</time></trkpt><trkpt lat="44.498069420447905" lon="9.97499899763427"><ele>899.0</ele><time>2026-04-26T10:03:18Z</time></trkpt><trkpt lat="44.49823959895953" lon="9.97507462255919"><ele>902.3333333333334</ele><time>2026-04-26T10:03:19Z</time></trkpt><trkpt lat="44.498407809576925" lon="9.975148495566147"><ele>905.6666666666667</ele><time>2026-04-26T10:03:20Z</time></trkpt><trkpt lat="44.49856747808647" lon="9.975222174987065"><ele>909.0</ele><time>2026-04-26T10:03:21Z</time></trkpt><trkpt lat="44.49871778588861" lon="9.97528797454163"><ele>902.25</ele><time>2026-04-26T10:03:22Z</time></trkpt><trkpt lat="44.498859917857295" lon="9.97533871778554"><ele>895.5</ele><time>2026-04-26T10:03:23Z</time></trkpt><trkpt lat="44.49899572285771" lon="9.975351446608743"><ele>888.75</ele><time>2026-04-26T10:03:24Z</time></trkpt><trkpt lat="44.49910813537136" lon="9.975354357858961"><ele>882.0</ele><time>2026-04-26T10:03:25Z</time></trkpt><trkpt lat="44.49920122713016" lon="9.97534265437523"><ele>882.0</ele><time>2026-04-26T10:03:26Z</time></trkpt><trkpt lat="44.499272796253074" lon="9.975442141178124"><ele>882.0</ele><time>2026-04-26T10:03:27Z</time></trkpt><trkpt lat="44.49933070431241" lon="9.975605124328649"><ele>882.0</ele><time>2026-04-26T10:03:28Z</time></trkpt><trkpt lat="44.49934482717123" lon="9.975809926190463"><ele>882.0</ele><time>2026-04-26T10:03:29Z</time></trkpt><trkpt lat="44.49934555796936" lon="9.976022354171667"><ele>886.75</ele><time>2026-04-26T10:03:30Z</time></trkpt><trkpt lat="44.49938615887758" lon="9.97618564008566"><ele>891.5</ele><time>2026-04-26T10:03:31Z</time></trkpt><trkpt lat="44.49943146131799" lon="9.976388317282115"><ele>896.25</ele><time>2026-04-26T10:03:32Z</time></trkpt><trkpt lat="44.49949978807902" lon="9.97659727494679"><ele>901.0</ele><time>2026-04-26T10:03:33Z</time></trkpt><trkpt lat="44.49957085600606" lon="9.976801978876772"><ele>887.3333333333333</ele><time>2026-04-26T10:03:34Z</time></trkpt><trkpt lat="44.499638986758505" lon="9.977001687844407"><ele>873.6666666666667</ele><time>2026-04-26T10:03:35Z</time></trkpt><trkpt lat="44.4996977776148" lon="9.977200976963376"><ele>860.0</ele><time>2026-04-26T10:03:36Z</time></trkpt><trkpt lat="44.49975081455479" lon="9.977413450747923"><ele>861.0</ele><time>2026-04-26T10:03:37Z</time></trkpt><trkpt lat="44.49977920992716" lon="9.977629808995781"><ele>862.0</ele><time>2026-04-26T10:03:38Z</time></trkpt><trkpt lat="44.49978083198611" lon="9.977835436141888"><ele>863.0</ele><time>2026-04-26T10:03:39Z</time></trkpt><trkpt lat="44.499755736125216" lon="9.978040175565136"><ele>863.0</ele><time>2026-04-26T10:03:40Z</time></trkpt><trkpt lat="44.499730514887304" lon="9.978249260308857"><ele>863.0</ele><time>2026-04-26T10:03:41Z</time></trkpt><trkpt lat="44.49971935939076" lon="9.978450959895785"><ele>863.0</ele><time>2026-04-26T10:03:42Z</time></trkpt><trkpt lat="44.499736117154775" lon="9.978659921436593"><ele>863.0</ele><time>2026-04-26T10:03:43Z</time></trkpt><trkpt lat="44.499780864925484" lon="9.978854780291455"><ele>863.25</ele><time>2026-04-26T10:03:44Z</time></trkpt><trkpt lat="44.4998421093636" lon="9.979029674248281"><ele>863.5</ele><time>2026-04-26T10:03:45Z</time></trkpt><trkpt lat="44.499900990819484" lon="9.97919341088788"><ele>863.75</ele><time>2026-04-26T10:03:46Z</time></trkpt><trkpt lat="44.49995736625003" lon="9.979348794443519"><ele>864.0</ele><time>2026-04-26T10:03:47Z</time></trkpt><trkpt lat="44.50000790566544" lon="9.979502740587586"><ele>864.75</ele><time>2026-04-26T10:03:48Z</time></trkpt><trkpt lat="44.5000530286343" lon="9.979656950741514"><ele>865.5</ele><time>2026-04-26T10:03:49Z</time></trkpt><trkpt lat="44.500074775999366" lon="9.979828527275341"><ele>866.25</ele><time>2026-04-26T10:03:50Z</time></trkpt><trkpt lat="44.50006813709318" lon="9.980022500185903"><ele>867.0</ele><time>2026-04-26T10:03:51Z</time></trkpt><trkpt lat="44.500046751438475" lon="9.980239103497954"><ele>867.6666666666667</ele><time>2026-04-26T10:03:52Z</time></trkpt><trkpt lat="44.500039046206226" lon="9.980463711283786"><ele>868.3333333333334</ele><time>2026-04-26T10:03:53Z</time></trkpt><trkpt lat="44.5000562377747" lon="9.980695595098183"><ele>869.0</ele><time>2026-04-26T10:03:54Z</time></trkpt><trkpt lat="44.500104958473884" lon="9.980934848682832"><ele>874.6666666666667</ele><time>2026-04-26T10:03:55Z</time></trkpt><trkpt lat="44.500194630509434" lon="9.981169802143885"><ele>880.3333333333333</ele><time>2026-04-26T10:03:56Z</time></trkpt><trkpt lat="44.50027291663314" lon="9.981291708223335"><ele>886.0</ele><time>2026-04-26T10:03:57Z</time></trkpt><trkpt lat="44.50039733153644" lon="9.98147599800615"><ele>882.6666666666666</ele><time>2026-04-26T10:03:58Z</time></trkpt><trkpt lat="44.50051921759084" lon="9.981636228043895"><ele>879.3333333333333</ele><time>2026-04-26T10:03:59Z</time></trkpt><trkpt lat="44.50064529136313" lon="9.981792330948386"><ele>876.0</ele><time>2026-04-26T10:03:59.999Z</time></trkpt><trkpt lat="44.5007681305693" lon="9.981936656522977"><ele>876.0</ele><time>2026-04-26T10:04:00.999Z</time></trkpt><trkpt lat="44.50088851546026" lon="9.98207170221632"><ele>876.0</ele><time>2026-04-26T10:04:01.999Z</time></trkpt><trkpt lat="44.501015187305136" lon="9.982188021648913"><ele>876.0</ele><time>2026-04-26T10:04:02.999Z</time></trkpt><trkpt lat="44.50115384504169" lon="9.982275367876216"><ele>873.25</ele><time>2026-04-26T10:04:03.999Z</time></trkpt><trkpt lat="44.50129030369272" lon="9.98234526544699"><ele>870.5</ele><time>2026-04-26T10:04:04.999Z</time></trkpt><trkpt lat="44.501420364654535" lon="9.982393641472916"><ele>867.75</ele><time>2026-04-26T10:04:05.999Z</time></trkpt><trkpt lat="44.50154104396872" lon="9.982441966758092"><ele>865.0</ele><time>2026-04-26T10:04:06.999Z</time></trkpt><trkpt lat="44.501653929479595" lon="9.982525442343858"><ele>865.0</ele><time>2026-04-26T10:04:07.999Z</time></trkpt><trkpt lat="44.501740431429845" lon="9.98266911511645"><ele>865.0</ele><time>2026-04-26T10:04:08.999Z</time></trkpt><trkpt lat="44.50176020030703" lon="9.982884812332582"><ele>865.0</ele><time>2026-04-26T10:04:09.999Z</time></trkpt><trkpt lat="44.501802394934664" lon="9.983088297739101"><ele>865.0</ele><time>2026-04-26T10:04:10.999Z</time></trkpt><trkpt lat="44.50185319613667" lon="9.983272186532204"><ele>865.0</ele><time>2026-04-26T10:04:11.999Z</time></trkpt><trkpt lat="44.50186270047384" lon="9.983456994578304"><ele>865.0</ele><time>2026-04-26T10:04:12.999Z</time></trkpt><trkpt lat="44.501857610568734" lon="9.983629314254268"><ele>865.0</ele><time>2026-04-26T10:04:13.999Z</time></trkpt><trkpt lat="44.50182377522396" lon="9.983806322928075"><ele>865.0</ele><time>2026-04-26T10:04:14.999Z</time></trkpt><trkpt lat="44.50177869259993" lon="9.984006429414716"><ele>863.25</ele><time>2026-04-26T10:04:15.999Z</time></trkpt><trkpt lat="44.501726601602904" lon="9.98419758631976"><ele>861.5</ele><time>2026-04-26T10:04:16.999Z</time></trkpt><trkpt lat="44.50165129314634" lon="9.984371917249318"><ele>859.75</ele><time>2026-04-26T10:04:17.999Z</time></trkpt><trkpt lat="44.5015656884342" lon="9.984541517849625"><ele>858.0</ele><time>2026-04-26T10:04:18.999Z</time></trkpt><trkpt lat="44.501471794666266" lon="9.984691323094967"><ele>858.0</ele><time>2026-04-26T10:04:19.999Z</time></trkpt><trkpt lat="44.50141397861739" lon="9.98487086923195"><ele>858.0</ele><time>2026-04-26T10:04:20.999Z</time></trkpt><trkpt lat="44.5013929051987" lon="9.985045964247238"><ele>858.0</ele><time>2026-04-26T10:04:21.999Z</time></trkpt><trkpt lat="44.50142921796811" lon="9.985220338191846"><ele>858.0</ele><time>2026-04-26T10:04:22.999Z</time></trkpt><trkpt lat="44.50152151468885" lon="9.985381705333024"><ele>858.5</ele><time>2026-04-26T10:04:23.999Z</time></trkpt><trkpt lat="44.50164278289599" lon="9.985521459436036"><ele>859.0</ele><time>2026-04-26T10:04:24.999Z</time></trkpt><trkpt lat="44.50177319570444" lon="9.9856210857909"><ele>859.5</ele><time>2026-04-26T10:04:25.999Z</time></trkpt><trkpt lat="44.50189067444966" lon="9.985711864619953"><ele>860.0</ele><time>2026-04-26T10:04:26.999Z</time></trkpt><trkpt lat="44.50198814849114" lon="9.985844358840366"><ele>860.25</ele><time>2026-04-26T10:04:27.999Z</time></trkpt><trkpt lat="44.502074435221715" lon="9.986018621806263"><ele>860.5</ele><time>2026-04-26T10:04:28.999Z</time></trkpt><trkpt lat="44.50214568790427" lon="9.986185763951687"><ele>860.75</ele><time>2026-04-26T10:04:29.999Z</time></trkpt><trkpt lat="44.502202753167275" lon="9.986347793370566"><ele>861.0</ele><time>2026-04-26T10:04:30.999Z</time></trkpt><trkpt lat="44.502228299625926" lon="9.986531719045264"><ele>861.75</ele><time>2026-04-26T10:04:31.999Z</time></trkpt><trkpt lat="44.50217425510954" lon="9.986715223573317"><ele>862.5</ele><time>2026-04-26T10:04:32.999Z</time></trkpt><trkpt lat="44.5021163206897" lon="9.986883474290837"><ele>863.25</ele><time>2026-04-26T10:04:33.999Z</time></trkpt><trkpt lat="44.502049179900794" lon="9.98703233447135"><ele>864.0</ele><time>2026-04-26T10:04:34.999Z</time></trkpt><trkpt lat="44.502026969166316" lon="9.987185981802597"><ele>864.0</ele><time>2026-04-26T10:04:35.999Z</time></trkpt><trkpt lat="44.50204898733146" lon="9.987337163992926"><ele>864.0</ele><time>2026-04-26T10:04:36.999Z</time></trkpt><trkpt lat="44.50210854139408" lon="9.98746403293396"><ele>864.0</ele><time>2026-04-26T10:04:37.999Z</time></trkpt><trkpt lat="44.502205882519114" lon="9.98754988468246"><ele>864.0</ele><time>2026-04-26T10:04:38.999Z</time></trkpt><trkpt lat="44.50232741221441" lon="9.98757489167906"><ele>864.5</ele><time>2026-04-26T10:04:39.999Z</time></trkpt><trkpt lat="44.50245713462966" lon="9.987550129256915"><ele>865.0</ele><time>2026-04-26T10:04:40.999Z</time></trkpt><trkpt lat="44.50258153466508" lon="9.98750846032876"><ele>865.5</ele><time>2026-04-26T10:04:41.999Z</time></trkpt><trkpt lat="44.50270381033903" lon="9.987470546581857"><ele>866.0</ele><time>2026-04-26T10:04:42.999Z</time></trkpt><trkpt lat="44.50281987499845" lon="9.987448481049514"><ele>863.5999999999999</ele><time>2026-04-26T10:04:43.999Z</time></trkpt><trkpt lat="44.50292654754499" lon="9.987439274938382"><ele>861.1999999999999</ele><time>2026-04-26T10:04:44.999Z</time></trkpt><trkpt lat="44.50301821042409" lon="9.987448953342849"><ele>858.8000000000001</ele><time>2026-04-26T10:04:45.999Z</time></trkpt><trkpt lat="44.503096721915334" lon="9.98751093347559"><ele>856.4000000000001</ele><time>2026-04-26T10:04:46.999Z</time></trkpt><trkpt lat="44.503171262890454" lon="9.987635613676941"><ele>854.0</ele><time>2026-04-26T10:04:47.999Z</time></trkpt><trkpt lat="44.503237275243606" lon="9.987788140443469"><ele>854.0</ele><time>2026-04-26T10:04:48.999Z</time></trkpt><trkpt lat="44.503301518598285" lon="9.987948403739429"><ele>854.0</ele><time>2026-04-26T10:04:49.999Z</time></trkpt><trkpt lat="44.50337404029091" lon="9.988103202482229"><ele>854.0</ele><time>2026-04-26T10:04:50.999Z</time></trkpt><trkpt lat="44.503446653655665" lon="9.988249289398992"><ele>854.0</ele><time>2026-04-26T10:04:51.999Z</time></trkpt><trkpt lat="44.503518978152826" lon="9.988382220525082"><ele>853.75</ele><time>2026-04-26T10:04:52.999Z</time></trkpt><trkpt lat="44.50360765001008" lon="9.988500208434697"><ele>853.5</ele><time>2026-04-26T10:04:53.999Z</time></trkpt><trkpt lat="44.50370702922072" lon="9.98859995216609"><ele>853.25</ele><time>2026-04-26T10:04:54.999Z</time></trkpt><trkpt lat="44.50380740779362" lon="9.98869237197462"><ele>853.0</ele><time>2026-04-26T10:04:55.999Z</time></trkpt><trkpt lat="44.503907599065734" lon="9.988783468445277"><ele>853.0</ele><time>2026-04-26T10:04:56.999Z</time></trkpt><trkpt lat="44.50401831808136" lon="9.988868066571637"><ele>853.0</ele><time>2026-04-26T10:04:57.999Z</time></trkpt><trkpt lat="44.504138631631875" lon="9.988935408349574"><ele>853.0</ele><time>2026-04-26T10:04:58.999Z</time></trkpt><trkpt lat="44.50425836040092" lon="9.988974081252636"><ele>853.0</ele><time>2026-04-26T10:04:59.999Z</time></trkpt><trkpt lat="44.50438630309737" lon="9.988993954488466"><ele>853.0</ele><time>2026-04-26T10:05:01Z</time></trkpt><trkpt lat="44.504509041888056" lon="9.988995465038768"><ele>853.0</ele><time>2026-04-26T10:05:02Z</time></trkpt><trkpt lat="44.504637870515644" lon="9.989008223314805"><ele>853.0</ele><time>2026-04-26T10:05:03Z</time></trkpt><trkpt lat="44.50476960861502" lon="9.989014707655823"><ele>853.0</ele><time>2026-04-26T10:05:04Z</time></trkpt><trkpt lat="44.5048952393905" lon="9.989022413000967"><ele>852.0</ele><time>2026-04-26T10:05:05Z</time></trkpt><trkpt lat="44.5050225219994" lon="9.989036757980372"><ele>851.0</ele><time>2026-04-26T10:05:06Z</time></trkpt><trkpt lat="44.505144129076925" lon="9.989079799868254"><ele>850.0</ele><time>2026-04-26T10:05:07Z</time></trkpt><trkpt lat="44.50526360708583" lon="9.98916311091459"><ele>849.0</ele><time>2026-04-26T10:05:08Z</time></trkpt><trkpt lat="44.5053707208453" lon="9.989282533905783"><ele>848.25</ele><time>2026-04-26T10:05:09Z</time></trkpt><trkpt lat="44.50547077429675" lon="9.989416788073221"><ele>847.5</ele><time>2026-04-26T10:05:10Z</time></trkpt><trkpt lat="44.505559570114215" lon="9.989529748147735"><ele>846.75</ele><time>2026-04-26T10:05:11Z</time></trkpt><trkpt lat="44.50566446392107" lon="9.9896407197548"><ele>846.0</ele><time>2026-04-26T10:05:12Z</time></trkpt><trkpt lat="44.50575702310567" lon="9.989741291284792"><ele>846.0</ele><time>2026-04-26T10:05:13Z</time></trkpt><trkpt lat="44.5058446518623" lon="9.989836778375363"><ele>846.0</ele><time>2026-04-26T10:05:14Z</time></trkpt><trkpt lat="44.50593046152328" lon="9.989928108414402"><ele>846.0</ele><time>2026-04-26T10:05:15Z</time></trkpt><trkpt lat="44.50601385941604" lon="9.990023142022219"><ele>846.0</ele><time>2026-04-26T10:05:16Z</time></trkpt><trkpt lat="44.50609623108188" lon="9.990117999906738"><ele>846.0</ele><time>2026-04-26T10:05:17Z</time></trkpt><trkpt lat="44.506167752540634" lon="9.990236036382884"><ele>846.0</ele><time>2026-04-26T10:05:18Z</time></trkpt><trkpt lat="44.50622222347788" lon="9.990368874767478"><ele>846.0</ele><time>2026-04-26T10:05:19Z</time></trkpt><trkpt lat="44.50626462026135" lon="9.99049951175781"><ele>846.0</ele><time>2026-04-26T10:05:20Z</time></trkpt><trkpt lat="44.506309710215575" lon="9.99066070161515"><ele>846.0</ele><time>2026-04-26T10:05:21Z</time></trkpt><trkpt lat="44.50636531633422" lon="9.990811831793208"><ele>845.4</ele><time>2026-04-26T10:05:22Z</time></trkpt><trkpt lat="44.5064373113354" lon="9.990944895874588"><ele>844.8</ele><time>2026-04-26T10:05:23Z</time></trkpt><trkpt lat="44.506513762638335" lon="9.991054061283984"><ele>844.1999999999999</ele><time>2026-04-26T10:05:24Z</time></trkpt><trkpt lat="44.506586922400516" lon="9.991141109898544"><ele>843.5999999999999</ele><time>2026-04-26T10:05:25Z</time></trkpt><trkpt lat="44.506653007490044" lon="9.991212847886624"><ele>843.0</ele><time>2026-04-26T10:05:26Z</time></trkpt><trkpt lat="44.5067085530703" lon="9.991280137827333"><ele>843.0</ele><time>2026-04-26T10:05:27Z</time></trkpt><trkpt lat="44.506800467643686" lon="9.991394648715472"><ele>843.0</ele><time>2026-04-26T10:05:29Z</time></trkpt><trkpt lat="44.50687934224899" lon="9.991493731512469"><ele>843.0</ele><time>2026-04-26T10:05:31Z</time></trkpt><trkpt lat="44.50693129413144" lon="9.991566051926279"><ele>843.0</ele><time>2026-04-26T10:05:33Z</time></trkpt><trkpt lat="44.50698618682013" lon="9.991650186080276"><ele>843.0</ele><time>2026-04-26T10:05:55Z</time></trkpt><trkpt lat="44.50703857642297" lon="9.991718383417235"><ele>843.0</ele><time>2026-04-26T10:05:56Z</time></trkpt><trkpt lat="44.50708716836685" lon="9.991788254166643"><ele>843.0</ele><time>2026-04-26T10:05:57Z</time></trkpt><trkpt lat="44.50724886485887" lon="9.991764363888596"><ele>843.0</ele><time>2026-04-26T10:05:58Z</time></trkpt><trkpt lat="44.50734338583334" lon="9.991830364278927"><ele>843.0</ele><time>2026-04-26T10:05:59Z</time></trkpt><trkpt lat="44.507434589130966" lon="9.991905192372425"><ele>843.0</ele><time>2026-04-26T10:06:00Z</time></trkpt><trkpt lat="44.507525522749205" lon="9.991949285763507"><ele>843.0</ele><time>2026-04-26T10:06:01Z</time></trkpt><trkpt lat="44.50762369903441" lon="9.992001470341927"><ele>843.0</ele><time>2026-04-26T10:06:01.999Z</time></trkpt><trkpt lat="44.50769733929323" lon="9.99203744895334"><ele>843.0</ele><time>2026-04-26T10:06:02.999Z</time></trkpt><trkpt lat="44.50780447607206" lon="9.99207463271309"><ele>843.0</ele><time>2026-04-26T10:06:03.999Z</time></trkpt><trkpt lat="44.50796749763298" lon="9.992120189044638"><ele>842.4</ele><time>2026-04-26T10:06:05.999Z</time></trkpt><trkpt lat="44.50806360667975" lon="9.992140720589905"><ele>841.8</ele><time>2026-04-26T10:06:06.999Z</time></trkpt><trkpt lat="44.50816761032086" lon="9.992141641500268"><ele>841.2</ele><time>2026-04-26T10:06:07.999Z</time></trkpt><trkpt lat="44.5082862614467" lon="9.992150783460687"><ele>840.6</ele><time>2026-04-26T10:06:08.999Z</time></trkpt><trkpt lat="44.508388839591504" lon="9.992138216250027"><ele>840.0</ele><time>2026-04-26T10:06:09.999Z</time></trkpt><trkpt lat="44.50849118655153" lon="9.9921295064643"><ele>840.0</ele><time>2026-04-26T10:06:10.999Z</time></trkpt><trkpt lat="44.50859257650818" lon="9.992116507555744"><ele>840.0</ele><time>2026-04-26T10:06:11.999Z</time></trkpt><trkpt lat="44.50870092018443" lon="9.992116821724148"><ele>840.0</ele><time>2026-04-26T10:06:12.999Z</time></trkpt><trkpt lat="44.50881286679753" lon="9.992091961933951"><ele>840.0</ele><time>2026-04-26T10:06:13.999Z</time></trkpt><trkpt lat="44.50891424090805" lon="9.992089799443319"><ele>840.0</ele><time>2026-04-26T10:06:14.999Z</time></trkpt><trkpt lat="44.50900518864912" lon="9.992089020274598"><ele>839.2</ele><time>2026-04-26T10:06:15.999Z</time></trkpt><trkpt lat="44.50908832675488" lon="9.992108374447206"><ele>838.4</ele><time>2026-04-26T10:06:16.999Z</time></trkpt><trkpt lat="44.50917605420037" lon="9.992151832350482"><ele>837.5999999999999</ele><time>2026-04-26T10:06:17.999Z</time></trkpt><trkpt lat="44.509257171103556" lon="9.992236582223367"><ele>836.8</ele><time>2026-04-26T10:06:18.999Z</time></trkpt><trkpt lat="44.50932906296206" lon="9.992339715187368"><ele>836.0</ele><time>2026-04-26T10:06:19.999Z</time></trkpt><trkpt lat="44.509399063413696" lon="9.99243538219171"><ele>836.4</ele><time>2026-04-26T10:06:20.999Z</time></trkpt><trkpt lat="44.50947438956717" lon="9.992524517865416"><ele>836.8</ele><time>2026-04-26T10:06:21.999Z</time></trkpt><trkpt lat="44.509563329388584" lon="9.992592096807753"><ele>837.1999999999999</ele><time>2026-04-26T10:06:22.999Z</time></trkpt><trkpt lat="44.509668010005164" lon="9.992617548970458"><ele>837.5999999999999</ele><time>2026-04-26T10:06:23.999Z</time></trkpt><trkpt lat="44.509770707263364" lon="9.992605723258368"><ele>838.0</ele><time>2026-04-26T10:06:24.999Z</time></trkpt><trkpt lat="44.50988360493951" lon="9.992582766089026"><ele>838.0</ele><time>2026-04-26T10:06:25.999Z</time></trkpt><trkpt lat="44.509992159163566" lon="9.992573833059662"><ele>838.0</ele><time>2026-04-26T10:06:26.999Z</time></trkpt><trkpt lat="44.5100943927254" lon="9.992572354480558"><ele>838.0</ele><time>2026-04-26T10:06:27.999Z</time></trkpt><trkpt lat="44.510191190618265" lon="9.992561726936687"><ele>838.0</ele><time>2026-04-26T10:06:28.999Z</time></trkpt><trkpt lat="44.51027997103831" lon="9.992549546178726"><ele>838.0</ele><time>2026-04-26T10:06:29.999Z</time></trkpt><trkpt lat="44.510367267979625" lon="9.992552684774378"><ele>839.2</ele><time>2026-04-26T10:06:30.999Z</time></trkpt><trkpt lat="44.51046379678303" lon="9.992539517232395"><ele>840.4</ele><time>2026-04-26T10:06:31.999Z</time></trkpt><trkpt lat="44.510549698981876" lon="9.99253533357173"><ele>841.6</ele><time>2026-04-26T10:06:32.999Z</time></trkpt><trkpt lat="44.510631396730716" lon="9.992473268654333"><ele>842.8000000000001</ele><time>2026-04-26T10:06:33.999Z</time></trkpt><trkpt lat="44.51069533570776" lon="9.992376887332018"><ele>844.0</ele><time>2026-04-26T10:06:34.999Z</time></trkpt><trkpt lat="44.51073174860608" lon="9.992245673985968"><ele>840.9999999999999</ele><time>2026-04-26T10:06:35.999Z</time></trkpt><trkpt lat="44.51076102208218" lon="9.99211984142383"><ele>838.0</ele><time>2026-04-26T10:06:36.999Z</time></trkpt><trkpt lat="44.510758548328305" lon="9.991999298613182"><ele>835.0</ele><time>2026-04-26T10:06:37.999Z</time></trkpt><trkpt lat="44.51074885411231" lon="9.991884740733006"><ele>832.0</ele><time>2026-04-26T10:06:38.999Z</time></trkpt><trkpt lat="44.51073852170717" lon="9.991779106536525"><ele>828.9999999999999</ele><time>2026-04-26T10:06:39.999Z</time></trkpt><trkpt lat="44.51072786863492" lon="9.991681824087163"><ele>826.0</ele><time>2026-04-26T10:06:40.999Z</time></trkpt><trkpt lat="44.51069892499879" lon="9.991534243119377"><ele>823.5999999999999</ele><time>2026-04-26T10:06:42.999Z</time></trkpt><trkpt lat="44.51069507155019" lon="9.991410598737437"><ele>821.2</ele><time>2026-04-26T10:06:44.999Z</time></trkpt><trkpt lat="44.51068281925681" lon="9.991319308523137"><ele>818.8</ele><time>2026-04-26T10:06:46.999Z</time></trkpt><trkpt lat="44.51050228751651" lon="9.991383975839254"><ele>816.4000000000001</ele><time>2026-04-26T10:06:48.999Z</time></trkpt><trkpt lat="44.510450754824575" lon="9.991451451920573"><ele>814.0</ele><time>2026-04-26T10:06:49.999Z</time></trkpt><trkpt lat="44.51041495582005" lon="9.99154048125064"><ele>813.1666666666666</ele><time>2026-04-26T10:06:50.999Z</time></trkpt><trkpt lat="44.510377579235154" lon="9.991680025192391"><ele>812.3333333333333</ele><time>2026-04-26T10:06:52.999Z</time></trkpt><trkpt lat="44.510316502037305" lon="9.991765569326864"><ele>811.5</ele><time>2026-04-26T10:06:54.999Z</time></trkpt><trkpt lat="44.51022233601301" lon="9.991719075514292"><ele>810.6666666666667</ele><time>2026-04-26T10:06:56.999Z</time></trkpt><trkpt lat="44.51016143015634" lon="9.991680471099311"><ele>809.8333333333334</ele><time>2026-04-26T10:06:57.999Z</time></trkpt><trkpt lat="44.51009993288492" lon="9.991640376289881"><ele>809.0</ele><time>2026-04-26T10:06:58.999Z</time></trkpt><trkpt lat="44.510031843185985" lon="9.991595983329763"><ele>809.0</ele><time>2026-04-26T10:06:59.999Z</time></trkpt><trkpt lat="44.50988003807637" lon="9.991543147379979"><ele>809.0</ele><time>2026-04-26T10:07:00.999Z</time></trkpt><trkpt lat="44.50979307847906" lon="9.991484719057919"><ele>809.0</ele><time>2026-04-26T10:07:01.999Z</time></trkpt><trkpt lat="44.50970332500651" lon="9.991429621473332"><ele>809.0</ele><time>2026-04-26T10:07:02.999Z</time></trkpt><trkpt lat="44.50962906450237" lon="9.991376947227776"><ele>809.0</ele><time>2026-04-26T10:07:03.999Z</time></trkpt><trkpt lat="44.50956050645421" lon="9.991329812480686"><ele>811.0</ele><time>2026-04-26T10:07:04.999Z</time></trkpt><trkpt lat="44.509474226524524" lon="9.99128161253452"><ele>813.0</ele><time>2026-04-26T10:07:05.999Z</time></trkpt><trkpt lat="44.50938722164226" lon="9.991223189908421"><ele>815.0</ele><time>2026-04-26T10:07:06.999Z</time></trkpt><trkpt lat="44.50929817953033" lon="9.991174950961973"><ele>817.0</ele><time>2026-04-26T10:07:07.999Z</time></trkpt><trkpt lat="44.50921414289183" lon="9.991112201094559"><ele>819.0</ele><time>2026-04-26T10:07:08.999Z</time></trkpt><trkpt lat="44.509138992378" lon="9.991055818636164"><ele>819.0</ele><time>2026-04-26T10:07:09.999Z</time></trkpt></trkseg></trk></gpx>